<?xml version="1.0" encoding="UTF-8"?>
<gpx version="1.1" creator="https://www.youtrack.es" xsi:schemaLocation="http://www.topografix.com/GPX/1/1 http://www.topografix.com/GPX/1/1/gpx.xsd http://www.garmin.com/xmlschemas/GpxExtensions/v3 http://www.garmin.com/xmlschemas/GpxExtensionsv3.xsd http://www.garmin.com/xmlschemas/TrackPointExtension/v1 http://www.garmin.com/xmlschemas/TrackPointExtensionv1.xsd" xmlns:gpxtpx="http://www.garmin.com/xmlschemas/TrackPointExtension/v1" xmlns:gpxx="http://www.garmin.com/xmlschemas/GpxExtensions/v3" xmlns:xsi="http://www.w3.org/2001/XMLSchema-instance">
  <metadata>
    <link href="https://www.youtrack.es">
      <text>YouTrack.es</text>
    </link>
    <time>2026-05-08T08:28:26Z</time>
  </metadata>
  <trk>
    <src>https://www.youtrack.es</src>
    <link href="https://www.youtrack.es/ruta/5672-ruta-guadix">
      <text>YouTrack.es</text>
    </link>
    <trkseg>
      <trkpt lat="37.303990" lon="-3.135643">
        <ele>894.000000</ele>
        <time>2019-05-09T06:04:00Z</time>
      </trkpt>
      <trkpt lat="37.303992" lon="-3.135658">
        <ele>894.000000</ele>
        <time>2019-05-09T06:04:01Z</time>
      </trkpt>
      <trkpt lat="37.303998" lon="-3.135670">
        <ele>894.000000</ele>
        <time>2019-05-09T06:04:02Z</time>
      </trkpt>
      <trkpt lat="37.304010" lon="-3.135693">
        <ele>894.000000</ele>
        <time>2019-05-09T06:04:03Z</time>
      </trkpt>
      <trkpt lat="37.304027" lon="-3.135720">
        <ele>894.000000</ele>
        <time>2019-05-09T06:04:04Z</time>
      </trkpt>
      <trkpt lat="37.304045" lon="-3.135728">
        <ele>894.000000</ele>
        <time>2019-05-09T06:04:05Z</time>
      </trkpt>
      <trkpt lat="37.304065" lon="-3.135750">
        <ele>894.000000</ele>
        <time>2019-05-09T06:04:06Z</time>
      </trkpt>
      <trkpt lat="37.304078" lon="-3.135768">
        <ele>894.000000</ele>
        <time>2019-05-09T06:04:07Z</time>
      </trkpt>
      <trkpt lat="37.304087" lon="-3.135783">
        <ele>894.000000</ele>
        <time>2019-05-09T06:04:09Z</time>
      </trkpt>
      <trkpt lat="37.304098" lon="-3.135797">
        <ele>894.000000</ele>
        <time>2019-05-09T06:04:10Z</time>
      </trkpt>
      <trkpt lat="37.304112" lon="-3.135807">
        <ele>894.000000</ele>
        <time>2019-05-09T06:04:11Z</time>
      </trkpt>
      <trkpt lat="37.304130" lon="-3.135823">
        <ele>894.000000</ele>
        <time>2019-05-09T06:04:12Z</time>
      </trkpt>
      <trkpt lat="37.304148" lon="-3.135837">
        <ele>894.000000</ele>
        <time>2019-05-09T06:04:13Z</time>
      </trkpt>
      <trkpt lat="37.304160" lon="-3.135873">
        <ele>894.000000</ele>
        <time>2019-05-09T06:04:14Z</time>
      </trkpt>
      <trkpt lat="37.304168" lon="-3.135893">
        <ele>894.000000</ele>
        <time>2019-05-09T06:04:15Z</time>
      </trkpt>
      <trkpt lat="37.304188" lon="-3.135903">
        <ele>894.000000</ele>
        <time>2019-05-09T06:04:16Z</time>
      </trkpt>
      <trkpt lat="37.304195" lon="-3.135908">
        <ele>894.000000</ele>
        <time>2019-05-09T06:04:17Z</time>
      </trkpt>
      <trkpt lat="37.304203" lon="-3.135918">
        <ele>894.000000</ele>
        <time>2019-05-09T06:04:18Z</time>
      </trkpt>
      <trkpt lat="37.304220" lon="-3.135923">
        <ele>894.000000</ele>
        <time>2019-05-09T06:04:19Z</time>
      </trkpt>
      <trkpt lat="37.304228" lon="-3.135938">
        <ele>894.000000</ele>
        <time>2019-05-09T06:04:20Z</time>
      </trkpt>
      <trkpt lat="37.304242" lon="-3.135953">
        <ele>894.000000</ele>
        <time>2019-05-09T06:04:21Z</time>
      </trkpt>
      <trkpt lat="37.304255" lon="-3.135967">
        <ele>894.000000</ele>
        <time>2019-05-09T06:04:22Z</time>
      </trkpt>
      <trkpt lat="37.304265" lon="-3.135977">
        <ele>894.000000</ele>
        <time>2019-05-09T06:04:23Z</time>
      </trkpt>
      <trkpt lat="37.304280" lon="-3.135995">
        <ele>894.000000</ele>
        <time>2019-05-09T06:04:24Z</time>
      </trkpt>
      <trkpt lat="37.304295" lon="-3.136008">
        <ele>894.000000</ele>
        <time>2019-05-09T06:04:26Z</time>
      </trkpt>
      <trkpt lat="37.304305" lon="-3.136027">
        <ele>894.000000</ele>
        <time>2019-05-09T06:04:27Z</time>
      </trkpt>
      <trkpt lat="37.304315" lon="-3.136038">
        <ele>894.000000</ele>
        <time>2019-05-09T06:04:28Z</time>
      </trkpt>
      <trkpt lat="37.304328" lon="-3.136048">
        <ele>894.000000</ele>
        <time>2019-05-09T06:04:29Z</time>
      </trkpt>
      <trkpt lat="37.304340" lon="-3.136055">
        <ele>894.000000</ele>
        <time>2019-05-09T06:04:30Z</time>
      </trkpt>
      <trkpt lat="37.304350" lon="-3.136072">
        <ele>894.000000</ele>
        <time>2019-05-09T06:04:31Z</time>
      </trkpt>
      <trkpt lat="37.304360" lon="-3.136092">
        <ele>894.000000</ele>
        <time>2019-05-09T06:04:32Z</time>
      </trkpt>
      <trkpt lat="37.304363" lon="-3.136105">
        <ele>894.000000</ele>
        <time>2019-05-09T06:04:33Z</time>
      </trkpt>
      <trkpt lat="37.304361" lon="-3.136127">
        <ele>894.000000</ele>
        <time>2019-05-09T06:04:34Z</time>
      </trkpt>
      <trkpt lat="37.304357" lon="-3.136143">
        <ele>894.000000</ele>
        <time>2019-05-09T06:04:35Z</time>
      </trkpt>
      <trkpt lat="37.304348" lon="-3.136162">
        <ele>894.000000</ele>
        <time>2019-05-09T06:04:36Z</time>
      </trkpt>
      <trkpt lat="37.304338" lon="-3.136182">
        <ele>894.000000</ele>
        <time>2019-05-09T06:04:38Z</time>
      </trkpt>
      <trkpt lat="37.304332" lon="-3.136197">
        <ele>894.000000</ele>
        <time>2019-05-09T06:04:39Z</time>
      </trkpt>
      <trkpt lat="37.304318" lon="-3.136218">
        <ele>894.000000</ele>
        <time>2019-05-09T06:04:40Z</time>
      </trkpt>
      <trkpt lat="37.304315" lon="-3.136237">
        <ele>894.000000</ele>
        <time>2019-05-09T06:04:41Z</time>
      </trkpt>
      <trkpt lat="37.304314" lon="-3.136255">
        <ele>894.000000</ele>
        <time>2019-05-09T06:04:42Z</time>
      </trkpt>
      <trkpt lat="37.304317" lon="-3.136270">
        <ele>894.000000</ele>
        <time>2019-05-09T06:04:43Z</time>
      </trkpt>
      <trkpt lat="37.304320" lon="-3.136283">
        <ele>894.000000</ele>
        <time>2019-05-09T06:04:44Z</time>
      </trkpt>
      <trkpt lat="37.304333" lon="-3.136297">
        <ele>894.000000</ele>
        <time>2019-05-09T06:04:46Z</time>
      </trkpt>
      <trkpt lat="37.304348" lon="-3.136307">
        <ele>894.000000</ele>
        <time>2019-05-09T06:04:47Z</time>
      </trkpt>
      <trkpt lat="37.304360" lon="-3.136323">
        <ele>894.000000</ele>
        <time>2019-05-09T06:04:48Z</time>
      </trkpt>
      <trkpt lat="37.304372" lon="-3.136337">
        <ele>894.000000</ele>
        <time>2019-05-09T06:04:49Z</time>
      </trkpt>
      <trkpt lat="37.304382" lon="-3.136348">
        <ele>894.000000</ele>
        <time>2019-05-09T06:04:50Z</time>
      </trkpt>
      <trkpt lat="37.304397" lon="-3.136360">
        <ele>894.000000</ele>
        <time>2019-05-09T06:04:51Z</time>
      </trkpt>
      <trkpt lat="37.304412" lon="-3.136375">
        <ele>894.000000</ele>
        <time>2019-05-09T06:04:52Z</time>
      </trkpt>
      <trkpt lat="37.304431" lon="-3.136390">
        <ele>894.000000</ele>
        <time>2019-05-09T06:04:53Z</time>
      </trkpt>
      <trkpt lat="37.304451" lon="-3.136410">
        <ele>894.000000</ele>
        <time>2019-05-09T06:04:55Z</time>
      </trkpt>
      <trkpt lat="37.304466" lon="-3.136425">
        <ele>894.000000</ele>
        <time>2019-05-09T06:04:56Z</time>
      </trkpt>
      <trkpt lat="37.304478" lon="-3.136437">
        <ele>893.000000</ele>
        <time>2019-05-09T06:04:57Z</time>
      </trkpt>
      <trkpt lat="37.304494" lon="-3.136453">
        <ele>893.000000</ele>
        <time>2019-05-09T06:04:58Z</time>
      </trkpt>
      <trkpt lat="37.304509" lon="-3.136467">
        <ele>893.000000</ele>
        <time>2019-05-09T06:04:59Z</time>
      </trkpt>
      <trkpt lat="37.304526" lon="-3.136487">
        <ele>893.000000</ele>
        <time>2019-05-09T06:05:00Z</time>
      </trkpt>
      <trkpt lat="37.304539" lon="-3.136505">
        <ele>893.000000</ele>
        <time>2019-05-09T06:05:01Z</time>
      </trkpt>
      <trkpt lat="37.304549" lon="-3.136523">
        <ele>893.000000</ele>
        <time>2019-05-09T06:05:02Z</time>
      </trkpt>
      <trkpt lat="37.304555" lon="-3.136538">
        <ele>893.000000</ele>
        <time>2019-05-09T06:05:04Z</time>
      </trkpt>
      <trkpt lat="37.304538" lon="-3.136555">
        <ele>893.000000</ele>
        <time>2019-05-09T06:05:05Z</time>
      </trkpt>
      <trkpt lat="37.304542" lon="-3.136577">
        <ele>893.000000</ele>
        <time>2019-05-09T06:05:06Z</time>
      </trkpt>
      <trkpt lat="37.304548" lon="-3.136598">
        <ele>893.000000</ele>
        <time>2019-05-09T06:05:07Z</time>
      </trkpt>
      <trkpt lat="37.304557" lon="-3.136617">
        <ele>893.000000</ele>
        <time>2019-05-09T06:05:08Z</time>
      </trkpt>
      <trkpt lat="37.304573" lon="-3.136630">
        <ele>893.000000</ele>
        <time>2019-05-09T06:05:09Z</time>
      </trkpt>
      <trkpt lat="37.304587" lon="-3.136650">
        <ele>893.000000</ele>
        <time>2019-05-09T06:05:10Z</time>
      </trkpt>
      <trkpt lat="37.304597" lon="-3.136667">
        <ele>893.000000</ele>
        <time>2019-05-09T06:05:11Z</time>
      </trkpt>
      <trkpt lat="37.304605" lon="-3.136692">
        <ele>893.000000</ele>
        <time>2019-05-09T06:05:13Z</time>
      </trkpt>
      <trkpt lat="37.304609" lon="-3.136715">
        <ele>893.000000</ele>
        <time>2019-05-09T06:05:14Z</time>
      </trkpt>
      <trkpt lat="37.304616" lon="-3.136732">
        <ele>893.000000</ele>
        <time>2019-05-09T06:05:15Z</time>
      </trkpt>
      <trkpt lat="37.304622" lon="-3.136753">
        <ele>893.000000</ele>
        <time>2019-05-09T06:05:16Z</time>
      </trkpt>
      <trkpt lat="37.304629" lon="-3.136768">
        <ele>893.000000</ele>
        <time>2019-05-09T06:05:17Z</time>
      </trkpt>
      <trkpt lat="37.304637" lon="-3.136788">
        <ele>893.000000</ele>
        <time>2019-05-09T06:05:18Z</time>
      </trkpt>
      <trkpt lat="37.304643" lon="-3.136802">
        <ele>893.000000</ele>
        <time>2019-05-09T06:05:19Z</time>
      </trkpt>
      <trkpt lat="37.304652" lon="-3.136815">
        <ele>893.000000</ele>
        <time>2019-05-09T06:05:20Z</time>
      </trkpt>
      <trkpt lat="37.304663" lon="-3.136828">
        <ele>893.000000</ele>
        <time>2019-05-09T06:05:21Z</time>
      </trkpt>
      <trkpt lat="37.304674" lon="-3.136840">
        <ele>893.000000</ele>
        <time>2019-05-09T06:05:22Z</time>
      </trkpt>
      <trkpt lat="37.304685" lon="-3.136852">
        <ele>893.000000</ele>
        <time>2019-05-09T06:05:24Z</time>
      </trkpt>
      <trkpt lat="37.304700" lon="-3.136868">
        <ele>893.000000</ele>
        <time>2019-05-09T06:05:25Z</time>
      </trkpt>
      <trkpt lat="37.304715" lon="-3.136887">
        <ele>893.000000</ele>
        <time>2019-05-09T06:05:26Z</time>
      </trkpt>
      <trkpt lat="37.304730" lon="-3.136905">
        <ele>893.000000</ele>
        <time>2019-05-09T06:05:27Z</time>
      </trkpt>
      <trkpt lat="37.304740" lon="-3.136913">
        <ele>893.000000</ele>
        <time>2019-05-09T06:05:28Z</time>
      </trkpt>
      <trkpt lat="37.304757" lon="-3.136933">
        <ele>893.000000</ele>
        <time>2019-05-09T06:05:29Z</time>
      </trkpt>
      <trkpt lat="37.304769" lon="-3.136945">
        <ele>893.000000</ele>
        <time>2019-05-09T06:05:30Z</time>
      </trkpt>
      <trkpt lat="37.304784" lon="-3.136960">
        <ele>893.000000</ele>
        <time>2019-05-09T06:05:31Z</time>
      </trkpt>
      <trkpt lat="37.304800" lon="-3.136982">
        <ele>893.000000</ele>
        <time>2019-05-09T06:05:33Z</time>
      </trkpt>
      <trkpt lat="37.304814" lon="-3.137003">
        <ele>893.000000</ele>
        <time>2019-05-09T06:05:34Z</time>
      </trkpt>
      <trkpt lat="37.304808" lon="-3.137028">
        <ele>893.000000</ele>
        <time>2019-05-09T06:05:35Z</time>
      </trkpt>
      <trkpt lat="37.304803" lon="-3.137050">
        <ele>893.000000</ele>
        <time>2019-05-09T06:05:36Z</time>
      </trkpt>
      <trkpt lat="37.304803" lon="-3.137067">
        <ele>893.000000</ele>
        <time>2019-05-09T06:05:37Z</time>
      </trkpt>
      <trkpt lat="37.304797" lon="-3.137085">
        <ele>893.000000</ele>
        <time>2019-05-09T06:05:38Z</time>
      </trkpt>
      <trkpt lat="37.304792" lon="-3.137100">
        <ele>893.000000</ele>
        <time>2019-05-09T06:05:39Z</time>
      </trkpt>
      <trkpt lat="37.304783" lon="-3.137120">
        <ele>893.000000</ele>
        <time>2019-05-09T06:05:40Z</time>
      </trkpt>
      <trkpt lat="37.304770" lon="-3.137140">
        <ele>893.000000</ele>
        <time>2019-05-09T06:05:42Z</time>
      </trkpt>
      <trkpt lat="37.304762" lon="-3.137157">
        <ele>893.000000</ele>
        <time>2019-05-09T06:05:43Z</time>
      </trkpt>
      <trkpt lat="37.304747" lon="-3.137170">
        <ele>893.000000</ele>
        <time>2019-05-09T06:05:44Z</time>
      </trkpt>
      <trkpt lat="37.304740" lon="-3.137188">
        <ele>893.000000</ele>
        <time>2019-05-09T06:05:45Z</time>
      </trkpt>
      <trkpt lat="37.304742" lon="-3.137200">
        <ele>893.000000</ele>
        <time>2019-05-09T06:05:46Z</time>
      </trkpt>
      <trkpt lat="37.304746" lon="-3.137215">
        <ele>893.000000</ele>
        <time>2019-05-09T06:05:47Z</time>
      </trkpt>
      <trkpt lat="37.304760" lon="-3.137223">
        <ele>893.000000</ele>
        <time>2019-05-09T06:05:48Z</time>
      </trkpt>
      <trkpt lat="37.304767" lon="-3.137222">
        <ele>893.000000</ele>
        <time>2019-05-09T06:05:50Z</time>
      </trkpt>
      <trkpt lat="37.304764" lon="-3.137212">
        <ele>893.000000</ele>
        <time>2019-05-09T06:05:51Z</time>
      </trkpt>
      <trkpt lat="37.304763" lon="-3.137198">
        <ele>893.000000</ele>
        <time>2019-05-09T06:05:52Z</time>
      </trkpt>
      <trkpt lat="37.304778" lon="-3.137185">
        <ele>893.000000</ele>
        <time>2019-05-09T06:05:53Z</time>
      </trkpt>
      <trkpt lat="37.304796" lon="-3.137172">
        <ele>893.000000</ele>
        <time>2019-05-09T06:05:54Z</time>
      </trkpt>
      <trkpt lat="37.304809" lon="-3.137162">
        <ele>893.000000</ele>
        <time>2019-05-09T06:05:55Z</time>
      </trkpt>
      <trkpt lat="37.304826" lon="-3.137140">
        <ele>893.000000</ele>
        <time>2019-05-09T06:05:56Z</time>
      </trkpt>
      <trkpt lat="37.304838" lon="-3.137122">
        <ele>893.000000</ele>
        <time>2019-05-09T06:05:58Z</time>
      </trkpt>
      <trkpt lat="37.304849" lon="-3.137100">
        <ele>893.000000</ele>
        <time>2019-05-09T06:05:59Z</time>
      </trkpt>
      <trkpt lat="37.304860" lon="-3.137078">
        <ele>892.000000</ele>
        <time>2019-05-09T06:06:00Z</time>
      </trkpt>
      <trkpt lat="37.304866" lon="-3.137063">
        <ele>892.000000</ele>
        <time>2019-05-09T06:06:01Z</time>
      </trkpt>
      <trkpt lat="37.304878" lon="-3.137043">
        <ele>892.000000</ele>
        <time>2019-05-09T06:06:02Z</time>
      </trkpt>
      <trkpt lat="37.304890" lon="-3.137022">
        <ele>892.000000</ele>
        <time>2019-05-09T06:06:03Z</time>
      </trkpt>
      <trkpt lat="37.304904" lon="-3.136998">
        <ele>892.000000</ele>
        <time>2019-05-09T06:06:04Z</time>
      </trkpt>
      <trkpt lat="37.304917" lon="-3.136980">
        <ele>892.000000</ele>
        <time>2019-05-09T06:06:05Z</time>
      </trkpt>
      <trkpt lat="37.304929" lon="-3.136960">
        <ele>892.000000</ele>
        <time>2019-05-09T06:06:06Z</time>
      </trkpt>
      <trkpt lat="37.304939" lon="-3.136943">
        <ele>892.000000</ele>
        <time>2019-05-09T06:06:07Z</time>
      </trkpt>
      <trkpt lat="37.304960" lon="-3.136907">
        <ele>892.000000</ele>
        <time>2019-05-09T06:06:08Z</time>
      </trkpt>
      <trkpt lat="37.304965" lon="-3.136897">
        <ele>892.000000</ele>
        <time>2019-05-09T06:06:11Z</time>
      </trkpt>
      <trkpt lat="37.304977" lon="-3.136875">
        <ele>892.000000</ele>
        <time>2019-05-09T06:06:12Z</time>
      </trkpt>
      <trkpt lat="37.304992" lon="-3.136848">
        <ele>892.000000</ele>
        <time>2019-05-09T06:06:13Z</time>
      </trkpt>
      <trkpt lat="37.305001" lon="-3.136832">
        <ele>891.000000</ele>
        <time>2019-05-09T06:06:14Z</time>
      </trkpt>
      <trkpt lat="37.305010" lon="-3.136815">
        <ele>891.000000</ele>
        <time>2019-05-09T06:06:15Z</time>
      </trkpt>
      <trkpt lat="37.305018" lon="-3.136800">
        <ele>891.000000</ele>
        <time>2019-05-09T06:06:16Z</time>
      </trkpt>
      <trkpt lat="37.305031" lon="-3.136778">
        <ele>891.000000</ele>
        <time>2019-05-09T06:06:17Z</time>
      </trkpt>
      <trkpt lat="37.305041" lon="-3.136760">
        <ele>891.000000</ele>
        <time>2019-05-09T06:06:18Z</time>
      </trkpt>
      <trkpt lat="37.305054" lon="-3.136735">
        <ele>891.000000</ele>
        <time>2019-05-09T06:06:19Z</time>
      </trkpt>
      <trkpt lat="37.305063" lon="-3.136717">
        <ele>891.000000</ele>
        <time>2019-05-09T06:06:20Z</time>
      </trkpt>
      <trkpt lat="37.305075" lon="-3.136693">
        <ele>891.000000</ele>
        <time>2019-05-09T06:06:21Z</time>
      </trkpt>
      <trkpt lat="37.305082" lon="-3.136675">
        <ele>891.000000</ele>
        <time>2019-05-09T06:06:23Z</time>
      </trkpt>
      <trkpt lat="37.305091" lon="-3.136660">
        <ele>891.000000</ele>
        <time>2019-05-09T06:06:24Z</time>
      </trkpt>
      <trkpt lat="37.305098" lon="-3.136645">
        <ele>891.000000</ele>
        <time>2019-05-09T06:06:25Z</time>
      </trkpt>
      <trkpt lat="37.305104" lon="-3.136633">
        <ele>891.000000</ele>
        <time>2019-05-09T06:06:26Z</time>
      </trkpt>
      <trkpt lat="37.305110" lon="-3.136623">
        <ele>891.000000</ele>
        <time>2019-05-09T06:06:27Z</time>
      </trkpt>
      <trkpt lat="37.305118" lon="-3.136607">
        <ele>891.000000</ele>
        <time>2019-05-09T06:06:28Z</time>
      </trkpt>
      <trkpt lat="37.305124" lon="-3.136595">
        <ele>891.000000</ele>
        <time>2019-05-09T06:06:29Z</time>
      </trkpt>
      <trkpt lat="37.305131" lon="-3.136580">
        <ele>891.000000</ele>
        <time>2019-05-09T06:06:30Z</time>
      </trkpt>
      <trkpt lat="37.305141" lon="-3.136562">
        <ele>891.000000</ele>
        <time>2019-05-09T06:06:31Z</time>
      </trkpt>
      <trkpt lat="37.305152" lon="-3.136542">
        <ele>890.000000</ele>
        <time>2019-05-09T06:06:32Z</time>
      </trkpt>
      <trkpt lat="37.305162" lon="-3.136520">
        <ele>890.000000</ele>
        <time>2019-05-09T06:06:33Z</time>
      </trkpt>
      <trkpt lat="37.305183" lon="-3.136482">
        <ele>890.000000</ele>
        <time>2019-05-09T06:06:34Z</time>
      </trkpt>
      <trkpt lat="37.305188" lon="-3.136468">
        <ele>890.000000</ele>
        <time>2019-05-09T06:06:37Z</time>
      </trkpt>
      <trkpt lat="37.305198" lon="-3.136450">
        <ele>890.000000</ele>
        <time>2019-05-09T06:06:38Z</time>
      </trkpt>
      <trkpt lat="37.305204" lon="-3.136432">
        <ele>890.000000</ele>
        <time>2019-05-09T06:06:39Z</time>
      </trkpt>
      <trkpt lat="37.305158" lon="-3.136415">
        <ele>890.000000</ele>
        <time>2019-05-09T06:06:40Z</time>
      </trkpt>
      <trkpt lat="37.305150" lon="-3.136400">
        <ele>889.000000</ele>
        <time>2019-05-09T06:06:41Z</time>
      </trkpt>
      <trkpt lat="37.305143" lon="-3.136378">
        <ele>889.000000</ele>
        <time>2019-05-09T06:06:42Z</time>
      </trkpt>
      <trkpt lat="37.305138" lon="-3.136362">
        <ele>889.000000</ele>
        <time>2019-05-09T06:06:43Z</time>
      </trkpt>
      <trkpt lat="37.305122" lon="-3.136345">
        <ele>889.000000</ele>
        <time>2019-05-09T06:06:44Z</time>
      </trkpt>
      <trkpt lat="37.305113" lon="-3.136322">
        <ele>889.000000</ele>
        <time>2019-05-09T06:06:46Z</time>
      </trkpt>
      <trkpt lat="37.305113" lon="-3.136300">
        <ele>889.000000</ele>
        <time>2019-05-09T06:06:47Z</time>
      </trkpt>
      <trkpt lat="37.305116" lon="-3.136278">
        <ele>889.000000</ele>
        <time>2019-05-09T06:06:48Z</time>
      </trkpt>
      <trkpt lat="37.305121" lon="-3.136260">
        <ele>889.000000</ele>
        <time>2019-05-09T06:06:49Z</time>
      </trkpt>
      <trkpt lat="37.305128" lon="-3.136243">
        <ele>889.000000</ele>
        <time>2019-05-09T06:06:50Z</time>
      </trkpt>
      <trkpt lat="37.305139" lon="-3.136225">
        <ele>889.000000</ele>
        <time>2019-05-09T06:06:51Z</time>
      </trkpt>
      <trkpt lat="37.305167" lon="-3.136202">
        <ele>889.000000</ele>
        <time>2019-05-09T06:06:52Z</time>
      </trkpt>
      <trkpt lat="37.305182" lon="-3.136177">
        <ele>889.000000</ele>
        <time>2019-05-09T06:06:53Z</time>
      </trkpt>
      <trkpt lat="37.305197" lon="-3.136160">
        <ele>888.000000</ele>
        <time>2019-05-09T06:06:54Z</time>
      </trkpt>
      <trkpt lat="37.305213" lon="-3.136143">
        <ele>888.000000</ele>
        <time>2019-05-09T06:06:55Z</time>
      </trkpt>
      <trkpt lat="37.305230" lon="-3.136128">
        <ele>888.000000</ele>
        <time>2019-05-09T06:06:56Z</time>
      </trkpt>
      <trkpt lat="37.305245" lon="-3.136112">
        <ele>888.000000</ele>
        <time>2019-05-09T06:06:57Z</time>
      </trkpt>
      <trkpt lat="37.305260" lon="-3.136090">
        <ele>888.000000</ele>
        <time>2019-05-09T06:06:59Z</time>
      </trkpt>
      <trkpt lat="37.305273" lon="-3.136073">
        <ele>888.000000</ele>
        <time>2019-05-09T06:07:00Z</time>
      </trkpt>
      <trkpt lat="37.305289" lon="-3.136048">
        <ele>887.000000</ele>
        <time>2019-05-09T06:07:01Z</time>
      </trkpt>
      <trkpt lat="37.305300" lon="-3.136027">
        <ele>887.000000</ele>
        <time>2019-05-09T06:07:02Z</time>
      </trkpt>
      <trkpt lat="37.305307" lon="-3.136013">
        <ele>887.000000</ele>
        <time>2019-05-09T06:07:03Z</time>
      </trkpt>
      <trkpt lat="37.305317" lon="-3.135995">
        <ele>887.000000</ele>
        <time>2019-05-09T06:07:04Z</time>
      </trkpt>
      <trkpt lat="37.305325" lon="-3.135982">
        <ele>887.000000</ele>
        <time>2019-05-09T06:07:05Z</time>
      </trkpt>
      <trkpt lat="37.305337" lon="-3.135962">
        <ele>887.000000</ele>
        <time>2019-05-09T06:07:06Z</time>
      </trkpt>
      <trkpt lat="37.305349" lon="-3.135940">
        <ele>887.000000</ele>
        <time>2019-05-09T06:07:07Z</time>
      </trkpt>
      <trkpt lat="37.305361" lon="-3.135918">
        <ele>887.000000</ele>
        <time>2019-05-09T06:07:09Z</time>
      </trkpt>
      <trkpt lat="37.305370" lon="-3.135900">
        <ele>887.000000</ele>
        <time>2019-05-09T06:07:10Z</time>
      </trkpt>
      <trkpt lat="37.305383" lon="-3.135877">
        <ele>887.000000</ele>
        <time>2019-05-09T06:07:11Z</time>
      </trkpt>
      <trkpt lat="37.305393" lon="-3.135858">
        <ele>887.000000</ele>
        <time>2019-05-09T06:07:12Z</time>
      </trkpt>
      <trkpt lat="37.305403" lon="-3.135840">
        <ele>887.000000</ele>
        <time>2019-05-09T06:07:13Z</time>
      </trkpt>
      <trkpt lat="37.305415" lon="-3.135815">
        <ele>886.000000</ele>
        <time>2019-05-09T06:07:14Z</time>
      </trkpt>
      <trkpt lat="37.305425" lon="-3.135793">
        <ele>886.000000</ele>
        <time>2019-05-09T06:07:15Z</time>
      </trkpt>
      <trkpt lat="37.305431" lon="-3.135772">
        <ele>886.000000</ele>
        <time>2019-05-09T06:07:16Z</time>
      </trkpt>
      <trkpt lat="37.305437" lon="-3.135747">
        <ele>886.000000</ele>
        <time>2019-05-09T06:07:17Z</time>
      </trkpt>
      <trkpt lat="37.305410" lon="-3.135730">
        <ele>886.000000</ele>
        <time>2019-05-09T06:07:18Z</time>
      </trkpt>
      <trkpt lat="37.305405" lon="-3.135712">
        <ele>886.000000</ele>
        <time>2019-05-09T06:07:19Z</time>
      </trkpt>
      <trkpt lat="37.305397" lon="-3.135703">
        <ele>886.000000</ele>
        <time>2019-05-09T06:07:21Z</time>
      </trkpt>
      <trkpt lat="37.305385" lon="-3.135695">
        <ele>886.000000</ele>
        <time>2019-05-09T06:07:22Z</time>
      </trkpt>
      <trkpt lat="37.305367" lon="-3.135693">
        <ele>886.000000</ele>
        <time>2019-05-09T06:07:23Z</time>
      </trkpt>
      <trkpt lat="37.305352" lon="-3.135692">
        <ele>886.000000</ele>
        <time>2019-05-09T06:07:24Z</time>
      </trkpt>
      <trkpt lat="37.305332" lon="-3.135692">
        <ele>886.000000</ele>
        <time>2019-05-09T06:07:25Z</time>
      </trkpt>
      <trkpt lat="37.305317" lon="-3.135695">
        <ele>886.000000</ele>
        <time>2019-05-09T06:07:26Z</time>
      </trkpt>
      <trkpt lat="37.305302" lon="-3.135693">
        <ele>886.000000</ele>
        <time>2019-05-09T06:07:27Z</time>
      </trkpt>
      <trkpt lat="37.305283" lon="-3.135693">
        <ele>886.000000</ele>
        <time>2019-05-09T06:07:29Z</time>
      </trkpt>
      <trkpt lat="37.305267" lon="-3.135692">
        <ele>886.000000</ele>
        <time>2019-05-09T06:07:30Z</time>
      </trkpt>
      <trkpt lat="37.305248" lon="-3.135691">
        <ele>886.000000</ele>
        <time>2019-05-09T06:07:31Z</time>
      </trkpt>
      <trkpt lat="37.305233" lon="-3.135690">
        <ele>886.000000</ele>
        <time>2019-05-09T06:07:32Z</time>
      </trkpt>
      <trkpt lat="37.305198" lon="-3.135679">
        <ele>886.000000</ele>
        <time>2019-05-09T06:07:33Z</time>
      </trkpt>
      <trkpt lat="37.305180" lon="-3.135673">
        <ele>886.000000</ele>
        <time>2019-05-09T06:07:36Z</time>
      </trkpt>
      <trkpt lat="37.305162" lon="-3.135668">
        <ele>886.000000</ele>
        <time>2019-05-09T06:07:37Z</time>
      </trkpt>
      <trkpt lat="37.305147" lon="-3.135664">
        <ele>886.000000</ele>
        <time>2019-05-09T06:07:38Z</time>
      </trkpt>
      <trkpt lat="37.305128" lon="-3.135663">
        <ele>886.000000</ele>
        <time>2019-05-09T06:07:39Z</time>
      </trkpt>
      <trkpt lat="37.305113" lon="-3.135662">
        <ele>886.000000</ele>
        <time>2019-05-09T06:07:40Z</time>
      </trkpt>
      <trkpt lat="37.305093" lon="-3.135660">
        <ele>886.000000</ele>
        <time>2019-05-09T06:07:41Z</time>
      </trkpt>
      <trkpt lat="37.305077" lon="-3.135659">
        <ele>886.000000</ele>
        <time>2019-05-09T06:07:42Z</time>
      </trkpt>
      <trkpt lat="37.305060" lon="-3.135658">
        <ele>886.000000</ele>
        <time>2019-05-09T06:07:44Z</time>
      </trkpt>
      <trkpt lat="37.305048" lon="-3.135658">
        <ele>886.000000</ele>
        <time>2019-05-09T06:07:45Z</time>
      </trkpt>
      <trkpt lat="37.305030" lon="-3.135658">
        <ele>886.000000</ele>
        <time>2019-05-09T06:07:46Z</time>
      </trkpt>
      <trkpt lat="37.305010" lon="-3.135657">
        <ele>886.000000</ele>
        <time>2019-05-09T06:07:47Z</time>
      </trkpt>
      <trkpt lat="37.304993" lon="-3.135658">
        <ele>886.000000</ele>
        <time>2019-05-09T06:07:48Z</time>
      </trkpt>
      <trkpt lat="37.304977" lon="-3.135658">
        <ele>886.000000</ele>
        <time>2019-05-09T06:07:49Z</time>
      </trkpt>
      <trkpt lat="37.304958" lon="-3.135658">
        <ele>886.000000</ele>
        <time>2019-05-09T06:07:50Z</time>
      </trkpt>
      <trkpt lat="37.304947" lon="-3.135659">
        <ele>886.000000</ele>
        <time>2019-05-09T06:07:51Z</time>
      </trkpt>
      <trkpt lat="37.304933" lon="-3.135660">
        <ele>886.000000</ele>
        <time>2019-05-09T06:07:52Z</time>
      </trkpt>
      <trkpt lat="37.304920" lon="-3.135661">
        <ele>886.000000</ele>
        <time>2019-05-09T06:07:53Z</time>
      </trkpt>
      <trkpt lat="37.304905" lon="-3.135662">
        <ele>886.000000</ele>
        <time>2019-05-09T06:07:54Z</time>
      </trkpt>
      <trkpt lat="37.304892" lon="-3.135662">
        <ele>886.000000</ele>
        <time>2019-05-09T06:07:55Z</time>
      </trkpt>
      <trkpt lat="37.304877" lon="-3.135661">
        <ele>886.000000</ele>
        <time>2019-05-09T06:07:56Z</time>
      </trkpt>
      <trkpt lat="37.304862" lon="-3.135662">
        <ele>886.000000</ele>
        <time>2019-05-09T06:07:57Z</time>
      </trkpt>
      <trkpt lat="37.304852" lon="-3.135662">
        <ele>886.000000</ele>
        <time>2019-05-09T06:07:58Z</time>
      </trkpt>
      <trkpt lat="37.304838" lon="-3.135662">
        <ele>886.000000</ele>
        <time>2019-05-09T06:07:59Z</time>
      </trkpt>
      <trkpt lat="37.304823" lon="-3.135660">
        <ele>886.000000</ele>
        <time>2019-05-09T06:08:00Z</time>
      </trkpt>
      <trkpt lat="37.304810" lon="-3.135659">
        <ele>886.000000</ele>
        <time>2019-05-09T06:08:01Z</time>
      </trkpt>
      <trkpt lat="37.304793" lon="-3.135658">
        <ele>886.000000</ele>
        <time>2019-05-09T06:08:01Z</time>
      </trkpt>
      <trkpt lat="37.304780" lon="-3.135658">
        <ele>886.000000</ele>
        <time>2019-05-09T06:08:03Z</time>
      </trkpt>
      <trkpt lat="37.304765" lon="-3.135657">
        <ele>886.000000</ele>
        <time>2019-05-09T06:08:04Z</time>
      </trkpt>
      <trkpt lat="37.304752" lon="-3.135656">
        <ele>886.000000</ele>
        <time>2019-05-09T06:08:04Z</time>
      </trkpt>
      <trkpt lat="37.304738" lon="-3.135656">
        <ele>886.000000</ele>
        <time>2019-05-09T06:08:05Z</time>
      </trkpt>
      <trkpt lat="37.304727" lon="-3.135654">
        <ele>886.000000</ele>
        <time>2019-05-09T06:08:06Z</time>
      </trkpt>
      <trkpt lat="37.304713" lon="-3.135653">
        <ele>886.000000</ele>
        <time>2019-05-09T06:08:07Z</time>
      </trkpt>
      <trkpt lat="37.304698" lon="-3.135651">
        <ele>886.000000</ele>
        <time>2019-05-09T06:08:08Z</time>
      </trkpt>
      <trkpt lat="37.304685" lon="-3.135649">
        <ele>886.000000</ele>
        <time>2019-05-09T06:08:09Z</time>
      </trkpt>
      <trkpt lat="37.304668" lon="-3.135646">
        <ele>886.000000</ele>
        <time>2019-05-09T06:08:10Z</time>
      </trkpt>
      <trkpt lat="37.304653" lon="-3.135643">
        <ele>886.000000</ele>
        <time>2019-05-09T06:08:11Z</time>
      </trkpt>
      <trkpt lat="37.304638" lon="-3.135641">
        <ele>886.000000</ele>
        <time>2019-05-09T06:08:12Z</time>
      </trkpt>
      <trkpt lat="37.304623" lon="-3.135638">
        <ele>886.000000</ele>
        <time>2019-05-09T06:08:13Z</time>
      </trkpt>
      <trkpt lat="37.304610" lon="-3.135634">
        <ele>886.000000</ele>
        <time>2019-05-09T06:08:14Z</time>
      </trkpt>
      <trkpt lat="37.304597" lon="-3.135631">
        <ele>886.000000</ele>
        <time>2019-05-09T06:08:15Z</time>
      </trkpt>
      <trkpt lat="37.304583" lon="-3.135626">
        <ele>886.000000</ele>
        <time>2019-05-09T06:08:15Z</time>
      </trkpt>
      <trkpt lat="37.304568" lon="-3.135621">
        <ele>886.000000</ele>
        <time>2019-05-09T06:08:16Z</time>
      </trkpt>
      <trkpt lat="37.304555" lon="-3.135617">
        <ele>886.000000</ele>
        <time>2019-05-09T06:08:17Z</time>
      </trkpt>
      <trkpt lat="37.304540" lon="-3.135612">
        <ele>886.000000</ele>
        <time>2019-05-09T06:08:18Z</time>
      </trkpt>
      <trkpt lat="37.304522" lon="-3.135607">
        <ele>886.000000</ele>
        <time>2019-05-09T06:08:19Z</time>
      </trkpt>
      <trkpt lat="37.304508" lon="-3.135603">
        <ele>886.000000</ele>
        <time>2019-05-09T06:08:20Z</time>
      </trkpt>
      <trkpt lat="37.304493" lon="-3.135598">
        <ele>886.000000</ele>
        <time>2019-05-09T06:08:21Z</time>
      </trkpt>
      <trkpt lat="37.304478" lon="-3.135592">
        <ele>886.000000</ele>
        <time>2019-05-09T06:08:22Z</time>
      </trkpt>
      <trkpt lat="37.304460" lon="-3.135585">
        <ele>886.000000</ele>
        <time>2019-05-09T06:08:23Z</time>
      </trkpt>
      <trkpt lat="37.304442" lon="-3.135579">
        <ele>886.000000</ele>
        <time>2019-05-09T06:08:24Z</time>
      </trkpt>
      <trkpt lat="37.304425" lon="-3.135572">
        <ele>886.000000</ele>
        <time>2019-05-09T06:08:25Z</time>
      </trkpt>
      <trkpt lat="37.304407" lon="-3.135564">
        <ele>886.000000</ele>
        <time>2019-05-09T06:08:26Z</time>
      </trkpt>
      <trkpt lat="37.304388" lon="-3.135554">
        <ele>886.000000</ele>
        <time>2019-05-09T06:08:27Z</time>
      </trkpt>
      <trkpt lat="37.304372" lon="-3.135547">
        <ele>886.000000</ele>
        <time>2019-05-09T06:08:28Z</time>
      </trkpt>
      <trkpt lat="37.304352" lon="-3.135537">
        <ele>886.000000</ele>
        <time>2019-05-09T06:08:29Z</time>
      </trkpt>
      <trkpt lat="37.304333" lon="-3.135528">
        <ele>886.000000</ele>
        <time>2019-05-09T06:08:30Z</time>
      </trkpt>
      <trkpt lat="37.304318" lon="-3.135520">
        <ele>886.000000</ele>
        <time>2019-05-09T06:08:31Z</time>
      </trkpt>
      <trkpt lat="37.304305" lon="-3.135511">
        <ele>886.000000</ele>
        <time>2019-05-09T06:08:32Z</time>
      </trkpt>
      <trkpt lat="37.304290" lon="-3.135502">
        <ele>886.000000</ele>
        <time>2019-05-09T06:08:33Z</time>
      </trkpt>
      <trkpt lat="37.304272" lon="-3.135492">
        <ele>886.000000</ele>
        <time>2019-05-09T06:08:34Z</time>
      </trkpt>
      <trkpt lat="37.304247" lon="-3.135480">
        <ele>886.000000</ele>
        <time>2019-05-09T06:08:35Z</time>
      </trkpt>
      <trkpt lat="37.304227" lon="-3.135469">
        <ele>886.000000</ele>
        <time>2019-05-09T06:08:36Z</time>
      </trkpt>
      <trkpt lat="37.304210" lon="-3.135461">
        <ele>886.000000</ele>
        <time>2019-05-09T06:08:37Z</time>
      </trkpt>
      <trkpt lat="37.304193" lon="-3.135453">
        <ele>886.000000</ele>
        <time>2019-05-09T06:08:38Z</time>
      </trkpt>
      <trkpt lat="37.304182" lon="-3.135445">
        <ele>886.000000</ele>
        <time>2019-05-09T06:08:39Z</time>
      </trkpt>
      <trkpt lat="37.304170" lon="-3.135439">
        <ele>886.000000</ele>
        <time>2019-05-09T06:08:40Z</time>
      </trkpt>
      <trkpt lat="37.304160" lon="-3.135434">
        <ele>886.000000</ele>
        <time>2019-05-09T06:08:41Z</time>
      </trkpt>
      <trkpt lat="37.304150" lon="-3.135427">
        <ele>886.000000</ele>
        <time>2019-05-09T06:08:42Z</time>
      </trkpt>
      <trkpt lat="37.304135" lon="-3.135419">
        <ele>886.000000</ele>
        <time>2019-05-09T06:08:43Z</time>
      </trkpt>
      <trkpt lat="37.304123" lon="-3.135412">
        <ele>886.000000</ele>
        <time>2019-05-09T06:08:44Z</time>
      </trkpt>
      <trkpt lat="37.304107" lon="-3.135405">
        <ele>886.000000</ele>
        <time>2019-05-09T06:08:45Z</time>
      </trkpt>
      <trkpt lat="37.304090" lon="-3.135397">
        <ele>886.000000</ele>
        <time>2019-05-09T06:08:46Z</time>
      </trkpt>
      <trkpt lat="37.304078" lon="-3.135392">
        <ele>886.000000</ele>
        <time>2019-05-09T06:08:47Z</time>
      </trkpt>
      <trkpt lat="37.304065" lon="-3.135385">
        <ele>886.000000</ele>
        <time>2019-05-09T06:08:48Z</time>
      </trkpt>
      <trkpt lat="37.304052" lon="-3.135379">
        <ele>886.000000</ele>
        <time>2019-05-09T06:08:49Z</time>
      </trkpt>
      <trkpt lat="37.304042" lon="-3.135374">
        <ele>886.000000</ele>
        <time>2019-05-09T06:08:50Z</time>
      </trkpt>
      <trkpt lat="37.304027" lon="-3.135369">
        <ele>886.000000</ele>
        <time>2019-05-09T06:08:51Z</time>
      </trkpt>
      <trkpt lat="37.304008" lon="-3.135362">
        <ele>886.000000</ele>
        <time>2019-05-09T06:08:52Z</time>
      </trkpt>
      <trkpt lat="37.303992" lon="-3.135355">
        <ele>886.000000</ele>
        <time>2019-05-09T06:08:53Z</time>
      </trkpt>
      <trkpt lat="37.303980" lon="-3.135351">
        <ele>886.000000</ele>
        <time>2019-05-09T06:08:54Z</time>
      </trkpt>
      <trkpt lat="37.303965" lon="-3.135345">
        <ele>886.000000</ele>
        <time>2019-05-09T06:08:55Z</time>
      </trkpt>
      <trkpt lat="37.303950" lon="-3.135340">
        <ele>886.000000</ele>
        <time>2019-05-09T06:08:56Z</time>
      </trkpt>
      <trkpt lat="37.303933" lon="-3.135334">
        <ele>886.000000</ele>
        <time>2019-05-09T06:08:57Z</time>
      </trkpt>
      <trkpt lat="37.303918" lon="-3.135328">
        <ele>886.000000</ele>
        <time>2019-05-09T06:08:58Z</time>
      </trkpt>
      <trkpt lat="37.303907" lon="-3.135325">
        <ele>886.000000</ele>
        <time>2019-05-09T06:08:59Z</time>
      </trkpt>
      <trkpt lat="37.303890" lon="-3.135318">
        <ele>886.000000</ele>
        <time>2019-05-09T06:09:00Z</time>
      </trkpt>
      <trkpt lat="37.303873" lon="-3.135312">
        <ele>886.000000</ele>
        <time>2019-05-09T06:09:01Z</time>
      </trkpt>
      <trkpt lat="37.303853" lon="-3.135305">
        <ele>886.000000</ele>
        <time>2019-05-09T06:09:02Z</time>
      </trkpt>
      <trkpt lat="37.303838" lon="-3.135299">
        <ele>886.000000</ele>
        <time>2019-05-09T06:09:03Z</time>
      </trkpt>
      <trkpt lat="37.303822" lon="-3.135291">
        <ele>886.000000</ele>
        <time>2019-05-09T06:09:04Z</time>
      </trkpt>
      <trkpt lat="37.303807" lon="-3.135285">
        <ele>886.000000</ele>
        <time>2019-05-09T06:09:05Z</time>
      </trkpt>
      <trkpt lat="37.303792" lon="-3.135277">
        <ele>886.000000</ele>
        <time>2019-05-09T06:09:06Z</time>
      </trkpt>
      <trkpt lat="37.303777" lon="-3.135269">
        <ele>886.000000</ele>
        <time>2019-05-09T06:09:07Z</time>
      </trkpt>
      <trkpt lat="37.303762" lon="-3.135261">
        <ele>886.000000</ele>
        <time>2019-05-09T06:09:08Z</time>
      </trkpt>
      <trkpt lat="37.303740" lon="-3.135250">
        <ele>886.000000</ele>
        <time>2019-05-09T06:09:09Z</time>
      </trkpt>
      <trkpt lat="37.303725" lon="-3.135241">
        <ele>886.000000</ele>
        <time>2019-05-09T06:09:10Z</time>
      </trkpt>
      <trkpt lat="37.303710" lon="-3.135232">
        <ele>886.000000</ele>
        <time>2019-05-09T06:09:11Z</time>
      </trkpt>
      <trkpt lat="37.303693" lon="-3.135224">
        <ele>886.000000</ele>
        <time>2019-05-09T06:09:12Z</time>
      </trkpt>
      <trkpt lat="37.303672" lon="-3.135214">
        <ele>886.000000</ele>
        <time>2019-05-09T06:09:13Z</time>
      </trkpt>
      <trkpt lat="37.303657" lon="-3.135206">
        <ele>886.000000</ele>
        <time>2019-05-09T06:09:14Z</time>
      </trkpt>
      <trkpt lat="37.303638" lon="-3.135196">
        <ele>886.000000</ele>
        <time>2019-05-09T06:09:15Z</time>
      </trkpt>
      <trkpt lat="37.303620" lon="-3.135186">
        <ele>886.000000</ele>
        <time>2019-05-09T06:09:16Z</time>
      </trkpt>
      <trkpt lat="37.303597" lon="-3.135174">
        <ele>886.000000</ele>
        <time>2019-05-09T06:09:17Z</time>
      </trkpt>
      <trkpt lat="37.303575" lon="-3.135165">
        <ele>886.000000</ele>
        <time>2019-05-09T06:09:18Z</time>
      </trkpt>
      <trkpt lat="37.303553" lon="-3.135153">
        <ele>887.000000</ele>
        <time>2019-05-09T06:09:19Z</time>
      </trkpt>
      <trkpt lat="37.303537" lon="-3.135146">
        <ele>887.000000</ele>
        <time>2019-05-09T06:09:20Z</time>
      </trkpt>
      <trkpt lat="37.303520" lon="-3.135137">
        <ele>887.000000</ele>
        <time>2019-05-09T06:09:21Z</time>
      </trkpt>
      <trkpt lat="37.303508" lon="-3.135130">
        <ele>887.000000</ele>
        <time>2019-05-09T06:09:22Z</time>
      </trkpt>
      <trkpt lat="37.303493" lon="-3.135122">
        <ele>887.000000</ele>
        <time>2019-05-09T06:09:23Z</time>
      </trkpt>
      <trkpt lat="37.303478" lon="-3.135114">
        <ele>887.000000</ele>
        <time>2019-05-09T06:09:24Z</time>
      </trkpt>
      <trkpt lat="37.303463" lon="-3.135105">
        <ele>887.000000</ele>
        <time>2019-05-09T06:09:25Z</time>
      </trkpt>
      <trkpt lat="37.303450" lon="-3.135096">
        <ele>887.000000</ele>
        <time>2019-05-09T06:09:26Z</time>
      </trkpt>
      <trkpt lat="37.303433" lon="-3.135086">
        <ele>887.000000</ele>
        <time>2019-05-09T06:09:27Z</time>
      </trkpt>
      <trkpt lat="37.303420" lon="-3.135078">
        <ele>887.000000</ele>
        <time>2019-05-09T06:09:28Z</time>
      </trkpt>
      <trkpt lat="37.303415" lon="-3.135074">
        <ele>887.000000</ele>
        <time>2019-05-09T06:09:29Z</time>
      </trkpt>
      <trkpt lat="37.303403" lon="-3.135065">
        <ele>887.000000</ele>
        <time>2019-05-09T06:09:30Z</time>
      </trkpt>
      <trkpt lat="37.303395" lon="-3.135057">
        <ele>887.000000</ele>
        <time>2019-05-09T06:09:31Z</time>
      </trkpt>
      <trkpt lat="37.303380" lon="-3.135047">
        <ele>887.000000</ele>
        <time>2019-05-09T06:09:32Z</time>
      </trkpt>
      <trkpt lat="37.303378" lon="-3.135043">
        <ele>887.000000</ele>
        <time>2019-05-09T06:09:33Z</time>
      </trkpt>
      <trkpt lat="37.303368" lon="-3.135035">
        <ele>887.000000</ele>
        <time>2019-05-09T06:09:34Z</time>
      </trkpt>
      <trkpt lat="37.303355" lon="-3.135025">
        <ele>887.000000</ele>
        <time>2019-05-09T06:09:35Z</time>
      </trkpt>
      <trkpt lat="37.303275" lon="-3.134522">
        <ele>887.000000</ele>
        <time>2019-05-09T06:09:44Z</time>
      </trkpt>
      <trkpt lat="37.303305" lon="-3.134505">
        <ele>887.000000</ele>
        <time>2019-05-09T06:09:45Z</time>
      </trkpt>
      <trkpt lat="37.303322" lon="-3.134498">
        <ele>887.000000</ele>
        <time>2019-05-09T06:09:46Z</time>
      </trkpt>
      <trkpt lat="37.303342" lon="-3.134492">
        <ele>887.000000</ele>
        <time>2019-05-09T06:09:47Z</time>
      </trkpt>
      <trkpt lat="37.303352" lon="-3.134477">
        <ele>887.000000</ele>
        <time>2019-05-09T06:09:48Z</time>
      </trkpt>
      <trkpt lat="37.303353" lon="-3.134452">
        <ele>887.000000</ele>
        <time>2019-05-09T06:09:49Z</time>
      </trkpt>
      <trkpt lat="37.303346" lon="-3.134432">
        <ele>887.000000</ele>
        <time>2019-05-09T06:09:50Z</time>
      </trkpt>
      <trkpt lat="37.303338" lon="-3.134412">
        <ele>887.000000</ele>
        <time>2019-05-09T06:09:51Z</time>
      </trkpt>
      <trkpt lat="37.303336" lon="-3.134402">
        <ele>887.000000</ele>
        <time>2019-05-09T06:09:52Z</time>
      </trkpt>
      <trkpt lat="37.303334" lon="-3.134382">
        <ele>887.000000</ele>
        <time>2019-05-09T06:09:53Z</time>
      </trkpt>
      <trkpt lat="37.303331" lon="-3.134368">
        <ele>887.000000</ele>
        <time>2019-05-09T06:09:54Z</time>
      </trkpt>
      <trkpt lat="37.303328" lon="-3.134350">
        <ele>887.000000</ele>
        <time>2019-05-09T06:09:55Z</time>
      </trkpt>
      <trkpt lat="37.303324" lon="-3.134332">
        <ele>887.000000</ele>
        <time>2019-05-09T06:09:56Z</time>
      </trkpt>
      <trkpt lat="37.303321" lon="-3.134318">
        <ele>887.000000</ele>
        <time>2019-05-09T06:09:57Z</time>
      </trkpt>
      <trkpt lat="37.303317" lon="-3.134307">
        <ele>887.000000</ele>
        <time>2019-05-09T06:09:58Z</time>
      </trkpt>
      <trkpt lat="37.303312" lon="-3.134293">
        <ele>887.000000</ele>
        <time>2019-05-09T06:09:59Z</time>
      </trkpt>
      <trkpt lat="37.303308" lon="-3.134277">
        <ele>887.000000</ele>
        <time>2019-05-09T06:10:00Z</time>
      </trkpt>
      <trkpt lat="37.303304" lon="-3.134263">
        <ele>887.000000</ele>
        <time>2019-05-09T06:10:01Z</time>
      </trkpt>
      <trkpt lat="37.303298" lon="-3.134248">
        <ele>887.000000</ele>
        <time>2019-05-09T06:10:02Z</time>
      </trkpt>
      <trkpt lat="37.303293" lon="-3.134230">
        <ele>887.000000</ele>
        <time>2019-05-09T06:10:03Z</time>
      </trkpt>
      <trkpt lat="37.303286" lon="-3.134212">
        <ele>887.000000</ele>
        <time>2019-05-09T06:10:04Z</time>
      </trkpt>
      <trkpt lat="37.303280" lon="-3.134195">
        <ele>887.000000</ele>
        <time>2019-05-09T06:10:05Z</time>
      </trkpt>
      <trkpt lat="37.303274" lon="-3.134177">
        <ele>887.000000</ele>
        <time>2019-05-09T06:10:06Z</time>
      </trkpt>
      <trkpt lat="37.303269" lon="-3.134160">
        <ele>887.000000</ele>
        <time>2019-05-09T06:10:07Z</time>
      </trkpt>
      <trkpt lat="37.303265" lon="-3.134145">
        <ele>888.000000</ele>
        <time>2019-05-09T06:10:08Z</time>
      </trkpt>
      <trkpt lat="37.303259" lon="-3.134127">
        <ele>888.000000</ele>
        <time>2019-05-09T06:10:09Z</time>
      </trkpt>
      <trkpt lat="37.303257" lon="-3.134118">
        <ele>888.000000</ele>
        <time>2019-05-09T06:10:10Z</time>
      </trkpt>
      <trkpt lat="37.303250" lon="-3.134097">
        <ele>888.000000</ele>
        <time>2019-05-09T06:10:11Z</time>
      </trkpt>
      <trkpt lat="37.303244" lon="-3.134080">
        <ele>888.000000</ele>
        <time>2019-05-09T06:10:12Z</time>
      </trkpt>
      <trkpt lat="37.303237" lon="-3.134063">
        <ele>888.000000</ele>
        <time>2019-05-09T06:10:13Z</time>
      </trkpt>
      <trkpt lat="37.303229" lon="-3.134045">
        <ele>888.000000</ele>
        <time>2019-05-09T06:10:14Z</time>
      </trkpt>
      <trkpt lat="37.303221" lon="-3.134027">
        <ele>888.000000</ele>
        <time>2019-05-09T06:10:15Z</time>
      </trkpt>
      <trkpt lat="37.303215" lon="-3.134013">
        <ele>888.000000</ele>
        <time>2019-05-09T06:10:16Z</time>
      </trkpt>
      <trkpt lat="37.303205" lon="-3.133992">
        <ele>888.000000</ele>
        <time>2019-05-09T06:10:17Z</time>
      </trkpt>
      <trkpt lat="37.303197" lon="-3.133973">
        <ele>888.000000</ele>
        <time>2019-05-09T06:10:18Z</time>
      </trkpt>
      <trkpt lat="37.303189" lon="-3.133955">
        <ele>888.000000</ele>
        <time>2019-05-09T06:10:19Z</time>
      </trkpt>
      <trkpt lat="37.303180" lon="-3.133935">
        <ele>888.000000</ele>
        <time>2019-05-09T06:10:20Z</time>
      </trkpt>
      <trkpt lat="37.303171" lon="-3.133920">
        <ele>888.000000</ele>
        <time>2019-05-09T06:10:21Z</time>
      </trkpt>
      <trkpt lat="37.303162" lon="-3.133902">
        <ele>888.000000</ele>
        <time>2019-05-09T06:10:22Z</time>
      </trkpt>
      <trkpt lat="37.303154" lon="-3.133885">
        <ele>888.000000</ele>
        <time>2019-05-09T06:10:23Z</time>
      </trkpt>
      <trkpt lat="37.303144" lon="-3.133863">
        <ele>888.000000</ele>
        <time>2019-05-09T06:10:24Z</time>
      </trkpt>
      <trkpt lat="37.303133" lon="-3.133845">
        <ele>888.000000</ele>
        <time>2019-05-09T06:10:25Z</time>
      </trkpt>
      <trkpt lat="37.303123" lon="-3.133827">
        <ele>888.000000</ele>
        <time>2019-05-09T06:10:26Z</time>
      </trkpt>
      <trkpt lat="37.303115" lon="-3.133810">
        <ele>888.000000</ele>
        <time>2019-05-09T06:10:27Z</time>
      </trkpt>
      <trkpt lat="37.303106" lon="-3.133790">
        <ele>888.000000</ele>
        <time>2019-05-09T06:10:28Z</time>
      </trkpt>
      <trkpt lat="37.303097" lon="-3.133772">
        <ele>888.000000</ele>
        <time>2019-05-09T06:10:29Z</time>
      </trkpt>
      <trkpt lat="37.303088" lon="-3.133753">
        <ele>888.000000</ele>
        <time>2019-05-09T06:10:30Z</time>
      </trkpt>
      <trkpt lat="37.303079" lon="-3.133735">
        <ele>888.000000</ele>
        <time>2019-05-09T06:10:31Z</time>
      </trkpt>
      <trkpt lat="37.303070" lon="-3.133717">
        <ele>888.000000</ele>
        <time>2019-05-09T06:10:32Z</time>
      </trkpt>
      <trkpt lat="37.303063" lon="-3.133700">
        <ele>888.000000</ele>
        <time>2019-05-09T06:10:33Z</time>
      </trkpt>
      <trkpt lat="37.303056" lon="-3.133687">
        <ele>888.000000</ele>
        <time>2019-05-09T06:10:34Z</time>
      </trkpt>
      <trkpt lat="37.303049" lon="-3.133670">
        <ele>888.000000</ele>
        <time>2019-05-09T06:10:35Z</time>
      </trkpt>
      <trkpt lat="37.303039" lon="-3.133655">
        <ele>888.000000</ele>
        <time>2019-05-09T06:10:36Z</time>
      </trkpt>
      <trkpt lat="37.303032" lon="-3.133640">
        <ele>888.000000</ele>
        <time>2019-05-09T06:10:37Z</time>
      </trkpt>
      <trkpt lat="37.303023" lon="-3.133625">
        <ele>888.000000</ele>
        <time>2019-05-09T06:10:38Z</time>
      </trkpt>
      <trkpt lat="37.303015" lon="-3.133612">
        <ele>888.000000</ele>
        <time>2019-05-09T06:10:39Z</time>
      </trkpt>
      <trkpt lat="37.303008" lon="-3.133598">
        <ele>888.000000</ele>
        <time>2019-05-09T06:10:40Z</time>
      </trkpt>
      <trkpt lat="37.303000" lon="-3.133585">
        <ele>888.000000</ele>
        <time>2019-05-09T06:10:41Z</time>
      </trkpt>
      <trkpt lat="37.302994" lon="-3.133573">
        <ele>888.000000</ele>
        <time>2019-05-09T06:10:42Z</time>
      </trkpt>
      <trkpt lat="37.302987" lon="-3.133562">
        <ele>888.000000</ele>
        <time>2019-05-09T06:10:43Z</time>
      </trkpt>
      <trkpt lat="37.302980" lon="-3.133550">
        <ele>888.000000</ele>
        <time>2019-05-09T06:10:44Z</time>
      </trkpt>
      <trkpt lat="37.302974" lon="-3.133538">
        <ele>888.000000</ele>
        <time>2019-05-09T06:10:45Z</time>
      </trkpt>
      <trkpt lat="37.302967" lon="-3.133527">
        <ele>888.000000</ele>
        <time>2019-05-09T06:10:46Z</time>
      </trkpt>
      <trkpt lat="37.302960" lon="-3.133512">
        <ele>888.000000</ele>
        <time>2019-05-09T06:10:47Z</time>
      </trkpt>
      <trkpt lat="37.302952" lon="-3.133500">
        <ele>889.000000</ele>
        <time>2019-05-09T06:10:48Z</time>
      </trkpt>
      <trkpt lat="37.302943" lon="-3.133483">
        <ele>889.000000</ele>
        <time>2019-05-09T06:10:49Z</time>
      </trkpt>
      <trkpt lat="37.302934" lon="-3.133468">
        <ele>889.000000</ele>
        <time>2019-05-09T06:10:50Z</time>
      </trkpt>
      <trkpt lat="37.302925" lon="-3.133453">
        <ele>889.000000</ele>
        <time>2019-05-09T06:10:51Z</time>
      </trkpt>
      <trkpt lat="37.302914" lon="-3.133437">
        <ele>889.000000</ele>
        <time>2019-05-09T06:10:52Z</time>
      </trkpt>
      <trkpt lat="37.302904" lon="-3.133418">
        <ele>889.000000</ele>
        <time>2019-05-09T06:10:53Z</time>
      </trkpt>
      <trkpt lat="37.302894" lon="-3.133402">
        <ele>889.000000</ele>
        <time>2019-05-09T06:10:54Z</time>
      </trkpt>
      <trkpt lat="37.302882" lon="-3.133383">
        <ele>889.000000</ele>
        <time>2019-05-09T06:10:55Z</time>
      </trkpt>
      <trkpt lat="37.302871" lon="-3.133365">
        <ele>889.000000</ele>
        <time>2019-05-09T06:10:56Z</time>
      </trkpt>
      <trkpt lat="37.302859" lon="-3.133343">
        <ele>889.000000</ele>
        <time>2019-05-09T06:10:57Z</time>
      </trkpt>
      <trkpt lat="37.302849" lon="-3.133325">
        <ele>889.000000</ele>
        <time>2019-05-09T06:10:58Z</time>
      </trkpt>
      <trkpt lat="37.302838" lon="-3.133303">
        <ele>889.000000</ele>
        <time>2019-05-09T06:10:59Z</time>
      </trkpt>
      <trkpt lat="37.302827" lon="-3.133282">
        <ele>889.000000</ele>
        <time>2019-05-09T06:11:00Z</time>
      </trkpt>
      <trkpt lat="37.302816" lon="-3.133260">
        <ele>889.000000</ele>
        <time>2019-05-09T06:11:01Z</time>
      </trkpt>
      <trkpt lat="37.302805" lon="-3.133238">
        <ele>889.000000</ele>
        <time>2019-05-09T06:11:02Z</time>
      </trkpt>
      <trkpt lat="37.302793" lon="-3.133213">
        <ele>889.000000</ele>
        <time>2019-05-09T06:11:03Z</time>
      </trkpt>
      <trkpt lat="37.302784" lon="-3.133192">
        <ele>889.000000</ele>
        <time>2019-05-09T06:11:04Z</time>
      </trkpt>
      <trkpt lat="37.302774" lon="-3.133167">
        <ele>889.000000</ele>
        <time>2019-05-09T06:11:05Z</time>
      </trkpt>
      <trkpt lat="37.302764" lon="-3.133142">
        <ele>889.000000</ele>
        <time>2019-05-09T06:11:06Z</time>
      </trkpt>
      <trkpt lat="37.302755" lon="-3.133115">
        <ele>889.000000</ele>
        <time>2019-05-09T06:11:07Z</time>
      </trkpt>
      <trkpt lat="37.302748" lon="-3.133092">
        <ele>889.000000</ele>
        <time>2019-05-09T06:11:08Z</time>
      </trkpt>
      <trkpt lat="37.302744" lon="-3.133072">
        <ele>889.000000</ele>
        <time>2019-05-09T06:11:09Z</time>
      </trkpt>
      <trkpt lat="37.302741" lon="-3.133052">
        <ele>889.000000</ele>
        <time>2019-05-09T06:11:10Z</time>
      </trkpt>
      <trkpt lat="37.302738" lon="-3.133033">
        <ele>889.000000</ele>
        <time>2019-05-09T06:11:11Z</time>
      </trkpt>
      <trkpt lat="37.302736" lon="-3.133013">
        <ele>889.000000</ele>
        <time>2019-05-09T06:11:12Z</time>
      </trkpt>
      <trkpt lat="37.302733" lon="-3.132993">
        <ele>889.000000</ele>
        <time>2019-05-09T06:11:13Z</time>
      </trkpt>
      <trkpt lat="37.302732" lon="-3.132975">
        <ele>889.000000</ele>
        <time>2019-05-09T06:11:14Z</time>
      </trkpt>
      <trkpt lat="37.302732" lon="-3.132960">
        <ele>889.000000</ele>
        <time>2019-05-09T06:11:15Z</time>
      </trkpt>
      <trkpt lat="37.302732" lon="-3.132948">
        <ele>889.000000</ele>
        <time>2019-05-09T06:11:16Z</time>
      </trkpt>
      <trkpt lat="37.302733" lon="-3.132937">
        <ele>889.000000</ele>
        <time>2019-05-09T06:11:17Z</time>
      </trkpt>
      <trkpt lat="37.302732" lon="-3.132925">
        <ele>889.000000</ele>
        <time>2019-05-09T06:11:18Z</time>
      </trkpt>
      <trkpt lat="37.302732" lon="-3.132913">
        <ele>889.000000</ele>
        <time>2019-05-09T06:11:19Z</time>
      </trkpt>
      <trkpt lat="37.302731" lon="-3.132902">
        <ele>889.000000</ele>
        <time>2019-05-09T06:11:20Z</time>
      </trkpt>
      <trkpt lat="37.302750" lon="-3.132888">
        <ele>889.000000</ele>
        <time>2019-05-09T06:11:21Z</time>
      </trkpt>
      <trkpt lat="37.302740" lon="-3.132875">
        <ele>889.000000</ele>
        <time>2019-05-09T06:11:22Z</time>
      </trkpt>
      <trkpt lat="37.302733" lon="-3.132863">
        <ele>889.000000</ele>
        <time>2019-05-09T06:11:23Z</time>
      </trkpt>
      <trkpt lat="37.302722" lon="-3.132850">
        <ele>889.000000</ele>
        <time>2019-05-09T06:11:24Z</time>
      </trkpt>
      <trkpt lat="37.302713" lon="-3.132835">
        <ele>889.000000</ele>
        <time>2019-05-09T06:11:25Z</time>
      </trkpt>
      <trkpt lat="37.302701" lon="-3.132818">
        <ele>889.000000</ele>
        <time>2019-05-09T06:11:26Z</time>
      </trkpt>
      <trkpt lat="37.302689" lon="-3.132800">
        <ele>889.000000</ele>
        <time>2019-05-09T06:11:27Z</time>
      </trkpt>
      <trkpt lat="37.302678" lon="-3.132782">
        <ele>889.000000</ele>
        <time>2019-05-09T06:11:28Z</time>
      </trkpt>
      <trkpt lat="37.302669" lon="-3.132763">
        <ele>889.000000</ele>
        <time>2019-05-09T06:11:29Z</time>
      </trkpt>
      <trkpt lat="37.302659" lon="-3.132743">
        <ele>889.000000</ele>
        <time>2019-05-09T06:11:30Z</time>
      </trkpt>
      <trkpt lat="37.302651" lon="-3.132722">
        <ele>889.000000</ele>
        <time>2019-05-09T06:11:31Z</time>
      </trkpt>
      <trkpt lat="37.302646" lon="-3.132702">
        <ele>889.000000</ele>
        <time>2019-05-09T06:11:32Z</time>
      </trkpt>
      <trkpt lat="37.302641" lon="-3.132680">
        <ele>889.000000</ele>
        <time>2019-05-09T06:11:33Z</time>
      </trkpt>
      <trkpt lat="37.302636" lon="-3.132658">
        <ele>889.000000</ele>
        <time>2019-05-09T06:11:34Z</time>
      </trkpt>
      <trkpt lat="37.302631" lon="-3.132637">
        <ele>889.000000</ele>
        <time>2019-05-09T06:11:35Z</time>
      </trkpt>
      <trkpt lat="37.302629" lon="-3.132620">
        <ele>889.000000</ele>
        <time>2019-05-09T06:11:36Z</time>
      </trkpt>
      <trkpt lat="37.302627" lon="-3.132602">
        <ele>889.000000</ele>
        <time>2019-05-09T06:11:37Z</time>
      </trkpt>
      <trkpt lat="37.302624" lon="-3.132582">
        <ele>889.000000</ele>
        <time>2019-05-09T06:11:38Z</time>
      </trkpt>
      <trkpt lat="37.302622" lon="-3.132562">
        <ele>889.000000</ele>
        <time>2019-05-09T06:11:39Z</time>
      </trkpt>
      <trkpt lat="37.302622" lon="-3.132543">
        <ele>889.000000</ele>
        <time>2019-05-09T06:11:40Z</time>
      </trkpt>
      <trkpt lat="37.302622" lon="-3.132518">
        <ele>889.000000</ele>
        <time>2019-05-09T06:11:41Z</time>
      </trkpt>
      <trkpt lat="37.302660" lon="-3.132500">
        <ele>889.000000</ele>
        <time>2019-05-09T06:11:42Z</time>
      </trkpt>
      <trkpt lat="37.302672" lon="-3.132490">
        <ele>889.000000</ele>
        <time>2019-05-09T06:11:43Z</time>
      </trkpt>
      <trkpt lat="37.302687" lon="-3.132488">
        <ele>889.000000</ele>
        <time>2019-05-09T06:11:44Z</time>
      </trkpt>
      <trkpt lat="37.302698" lon="-3.132497">
        <ele>889.000000</ele>
        <time>2019-05-09T06:11:45Z</time>
      </trkpt>
      <trkpt lat="37.302708" lon="-3.132510">
        <ele>889.000000</ele>
        <time>2019-05-09T06:11:46Z</time>
      </trkpt>
      <trkpt lat="37.302722" lon="-3.132525">
        <ele>889.000000</ele>
        <time>2019-05-09T06:11:47Z</time>
      </trkpt>
      <trkpt lat="37.302732" lon="-3.132540">
        <ele>889.000000</ele>
        <time>2019-05-09T06:11:48Z</time>
      </trkpt>
      <trkpt lat="37.302742" lon="-3.132555">
        <ele>889.000000</ele>
        <time>2019-05-09T06:11:49Z</time>
      </trkpt>
      <trkpt lat="37.302745" lon="-3.132572">
        <ele>889.000000</ele>
        <time>2019-05-09T06:11:50Z</time>
      </trkpt>
      <trkpt lat="37.302750" lon="-3.132585">
        <ele>889.000000</ele>
        <time>2019-05-09T06:11:51Z</time>
      </trkpt>
      <trkpt lat="37.302760" lon="-3.132598">
        <ele>889.000000</ele>
        <time>2019-05-09T06:11:52Z</time>
      </trkpt>
      <trkpt lat="37.302772" lon="-3.132610">
        <ele>889.000000</ele>
        <time>2019-05-09T06:11:53Z</time>
      </trkpt>
      <trkpt lat="37.302785" lon="-3.132617">
        <ele>889.000000</ele>
        <time>2019-05-09T06:11:54Z</time>
      </trkpt>
      <trkpt lat="37.302792" lon="-3.132620">
        <ele>891.000000</ele>
        <time>2019-05-09T06:11:55Z</time>
      </trkpt>
      <trkpt lat="37.302798" lon="-3.132618">
        <ele>891.000000</ele>
        <time>2019-05-09T06:11:56Z</time>
      </trkpt>
      <trkpt lat="37.302795" lon="-3.132614">
        <ele>891.000000</ele>
        <time>2019-05-09T06:11:57Z</time>
      </trkpt>
      <trkpt lat="37.302795" lon="-3.132592">
        <ele>891.000000</ele>
        <time>2019-05-09T06:11:58Z</time>
      </trkpt>
      <trkpt lat="37.302793" lon="-3.132573">
        <ele>891.000000</ele>
        <time>2019-05-09T06:11:59Z</time>
      </trkpt>
      <trkpt lat="37.302795" lon="-3.132557">
        <ele>891.000000</ele>
        <time>2019-05-09T06:12:00Z</time>
      </trkpt>
      <trkpt lat="37.302797" lon="-3.132543">
        <ele>891.000000</ele>
        <time>2019-05-09T06:12:01Z</time>
      </trkpt>
      <trkpt lat="37.302795" lon="-3.132525">
        <ele>891.000000</ele>
        <time>2019-05-09T06:12:02Z</time>
      </trkpt>
      <trkpt lat="37.302792" lon="-3.132507">
        <ele>891.000000</ele>
        <time>2019-05-09T06:12:03Z</time>
      </trkpt>
      <trkpt lat="37.302793" lon="-3.132490">
        <ele>891.000000</ele>
        <time>2019-05-09T06:12:04Z</time>
      </trkpt>
      <trkpt lat="37.302797" lon="-3.132475">
        <ele>891.000000</ele>
        <time>2019-05-09T06:12:05Z</time>
      </trkpt>
      <trkpt lat="37.302797" lon="-3.132458">
        <ele>891.000000</ele>
        <time>2019-05-09T06:12:06Z</time>
      </trkpt>
      <trkpt lat="37.302801" lon="-3.132443">
        <ele>891.000000</ele>
        <time>2019-05-09T06:12:07Z</time>
      </trkpt>
      <trkpt lat="37.302805" lon="-3.132430">
        <ele>891.000000</ele>
        <time>2019-05-09T06:12:08Z</time>
      </trkpt>
      <trkpt lat="37.302812" lon="-3.132415">
        <ele>891.000000</ele>
        <time>2019-05-09T06:12:09Z</time>
      </trkpt>
      <trkpt lat="37.302818" lon="-3.132402">
        <ele>891.000000</ele>
        <time>2019-05-09T06:12:10Z</time>
      </trkpt>
      <trkpt lat="37.302825" lon="-3.132385">
        <ele>891.000000</ele>
        <time>2019-05-09T06:12:11Z</time>
      </trkpt>
      <trkpt lat="37.302832" lon="-3.132368">
        <ele>891.000000</ele>
        <time>2019-05-09T06:12:12Z</time>
      </trkpt>
      <trkpt lat="37.302840" lon="-3.132353">
        <ele>891.000000</ele>
        <time>2019-05-09T06:12:13Z</time>
      </trkpt>
      <trkpt lat="37.302848" lon="-3.132338">
        <ele>891.000000</ele>
        <time>2019-05-09T06:12:14Z</time>
      </trkpt>
      <trkpt lat="37.302857" lon="-3.132323">
        <ele>891.000000</ele>
        <time>2019-05-09T06:12:15Z</time>
      </trkpt>
      <trkpt lat="37.302868" lon="-3.132305">
        <ele>891.000000</ele>
        <time>2019-05-09T06:12:16Z</time>
      </trkpt>
      <trkpt lat="37.302878" lon="-3.132288">
        <ele>891.000000</ele>
        <time>2019-05-09T06:12:17Z</time>
      </trkpt>
      <trkpt lat="37.302888" lon="-3.132270">
        <ele>891.000000</ele>
        <time>2019-05-09T06:12:18Z</time>
      </trkpt>
      <trkpt lat="37.302898" lon="-3.132255">
        <ele>891.000000</ele>
        <time>2019-05-09T06:12:19Z</time>
      </trkpt>
      <trkpt lat="37.302907" lon="-3.132240">
        <ele>891.000000</ele>
        <time>2019-05-09T06:12:20Z</time>
      </trkpt>
      <trkpt lat="37.302916" lon="-3.132227">
        <ele>891.000000</ele>
        <time>2019-05-09T06:12:21Z</time>
      </trkpt>
      <trkpt lat="37.302926" lon="-3.132210">
        <ele>891.000000</ele>
        <time>2019-05-09T06:12:22Z</time>
      </trkpt>
      <trkpt lat="37.302935" lon="-3.132195">
        <ele>891.000000</ele>
        <time>2019-05-09T06:12:23Z</time>
      </trkpt>
      <trkpt lat="37.302944" lon="-3.132182">
        <ele>891.000000</ele>
        <time>2019-05-09T06:12:24Z</time>
      </trkpt>
      <trkpt lat="37.302954" lon="-3.132167">
        <ele>891.000000</ele>
        <time>2019-05-09T06:12:25Z</time>
      </trkpt>
      <trkpt lat="37.302961" lon="-3.132157">
        <ele>891.000000</ele>
        <time>2019-05-09T06:12:26Z</time>
      </trkpt>
      <trkpt lat="37.302972" lon="-3.132142">
        <ele>891.000000</ele>
        <time>2019-05-09T06:12:27Z</time>
      </trkpt>
      <trkpt lat="37.302983" lon="-3.132127">
        <ele>891.000000</ele>
        <time>2019-05-09T06:12:28Z</time>
      </trkpt>
      <trkpt lat="37.302995" lon="-3.132108">
        <ele>891.000000</ele>
        <time>2019-05-09T06:12:29Z</time>
      </trkpt>
      <trkpt lat="37.303004" lon="-3.132095">
        <ele>891.000000</ele>
        <time>2019-05-09T06:12:30Z</time>
      </trkpt>
      <trkpt lat="37.303013" lon="-3.132083">
        <ele>891.000000</ele>
        <time>2019-05-09T06:12:30Z</time>
      </trkpt>
      <trkpt lat="37.303023" lon="-3.132070">
        <ele>891.000000</ele>
        <time>2019-05-09T06:12:31Z</time>
      </trkpt>
      <trkpt lat="37.303034" lon="-3.132055">
        <ele>891.000000</ele>
        <time>2019-05-09T06:12:33Z</time>
      </trkpt>
      <trkpt lat="37.303042" lon="-3.132045">
        <ele>891.000000</ele>
        <time>2019-05-09T06:12:33Z</time>
      </trkpt>
      <trkpt lat="37.303052" lon="-3.132030">
        <ele>891.000000</ele>
        <time>2019-05-09T06:12:34Z</time>
      </trkpt>
      <trkpt lat="37.303066" lon="-3.132008">
        <ele>891.000000</ele>
        <time>2019-05-09T06:12:35Z</time>
      </trkpt>
      <trkpt lat="37.303076" lon="-3.131993">
        <ele>891.000000</ele>
        <time>2019-05-09T06:12:36Z</time>
      </trkpt>
      <trkpt lat="37.303086" lon="-3.131977">
        <ele>891.000000</ele>
        <time>2019-05-09T06:12:37Z</time>
      </trkpt>
      <trkpt lat="37.303098" lon="-3.131958">
        <ele>891.000000</ele>
        <time>2019-05-09T06:12:38Z</time>
      </trkpt>
      <trkpt lat="37.303107" lon="-3.131943">
        <ele>891.000000</ele>
        <time>2019-05-09T06:12:39Z</time>
      </trkpt>
      <trkpt lat="37.303115" lon="-3.131930">
        <ele>891.000000</ele>
        <time>2019-05-09T06:12:40Z</time>
      </trkpt>
      <trkpt lat="37.303124" lon="-3.131917">
        <ele>891.000000</ele>
        <time>2019-05-09T06:12:41Z</time>
      </trkpt>
      <trkpt lat="37.303135" lon="-3.131902">
        <ele>892.000000</ele>
        <time>2019-05-09T06:12:42Z</time>
      </trkpt>
      <trkpt lat="37.303144" lon="-3.131888">
        <ele>892.000000</ele>
        <time>2019-05-09T06:12:43Z</time>
      </trkpt>
      <trkpt lat="37.303155" lon="-3.131875">
        <ele>892.000000</ele>
        <time>2019-05-09T06:12:44Z</time>
      </trkpt>
      <trkpt lat="37.303167" lon="-3.131858">
        <ele>892.000000</ele>
        <time>2019-05-09T06:12:45Z</time>
      </trkpt>
      <trkpt lat="37.303176" lon="-3.131847">
        <ele>892.000000</ele>
        <time>2019-05-09T06:12:46Z</time>
      </trkpt>
      <trkpt lat="37.303205" lon="-3.131835">
        <ele>892.000000</ele>
        <time>2019-05-09T06:12:47Z</time>
      </trkpt>
      <trkpt lat="37.303215" lon="-3.131820">
        <ele>892.000000</ele>
        <time>2019-05-09T06:12:48Z</time>
      </trkpt>
      <trkpt lat="37.303227" lon="-3.131804">
        <ele>892.000000</ele>
        <time>2019-05-09T06:12:49Z</time>
      </trkpt>
      <trkpt lat="37.303238" lon="-3.131790">
        <ele>892.000000</ele>
        <time>2019-05-09T06:12:50Z</time>
      </trkpt>
      <trkpt lat="37.303248" lon="-3.131779">
        <ele>892.000000</ele>
        <time>2019-05-09T06:12:51Z</time>
      </trkpt>
      <trkpt lat="37.303257" lon="-3.131768">
        <ele>892.000000</ele>
        <time>2019-05-09T06:12:52Z</time>
      </trkpt>
      <trkpt lat="37.303263" lon="-3.131753">
        <ele>892.000000</ele>
        <time>2019-05-09T06:12:53Z</time>
      </trkpt>
      <trkpt lat="37.303271" lon="-3.131738">
        <ele>892.000000</ele>
        <time>2019-05-09T06:12:54Z</time>
      </trkpt>
      <trkpt lat="37.303280" lon="-3.131723">
        <ele>892.000000</ele>
        <time>2019-05-09T06:12:55Z</time>
      </trkpt>
      <trkpt lat="37.303289" lon="-3.131705">
        <ele>892.000000</ele>
        <time>2019-05-09T06:12:56Z</time>
      </trkpt>
      <trkpt lat="37.303298" lon="-3.131690">
        <ele>892.000000</ele>
        <time>2019-05-09T06:12:57Z</time>
      </trkpt>
      <trkpt lat="37.303306" lon="-3.131677">
        <ele>893.000000</ele>
        <time>2019-05-09T06:12:58Z</time>
      </trkpt>
      <trkpt lat="37.303315" lon="-3.131663">
        <ele>893.000000</ele>
        <time>2019-05-09T06:12:59Z</time>
      </trkpt>
      <trkpt lat="37.303324" lon="-3.131648">
        <ele>893.000000</ele>
        <time>2019-05-09T06:13:00Z</time>
      </trkpt>
      <trkpt lat="37.303333" lon="-3.131632">
        <ele>893.000000</ele>
        <time>2019-05-09T06:13:01Z</time>
      </trkpt>
      <trkpt lat="37.303341" lon="-3.131618">
        <ele>893.000000</ele>
        <time>2019-05-09T06:13:02Z</time>
      </trkpt>
      <trkpt lat="37.303348" lon="-3.131607">
        <ele>893.000000</ele>
        <time>2019-05-09T06:13:03Z</time>
      </trkpt>
      <trkpt lat="37.303355" lon="-3.131598">
        <ele>893.000000</ele>
        <time>2019-05-09T06:13:04Z</time>
      </trkpt>
      <trkpt lat="37.303366" lon="-3.131583">
        <ele>893.000000</ele>
        <time>2019-05-09T06:13:05Z</time>
      </trkpt>
      <trkpt lat="37.303376" lon="-3.131572">
        <ele>893.000000</ele>
        <time>2019-05-09T06:13:06Z</time>
      </trkpt>
      <trkpt lat="37.303388" lon="-3.131557">
        <ele>893.000000</ele>
        <time>2019-05-09T06:13:07Z</time>
      </trkpt>
      <trkpt lat="37.303401" lon="-3.131540">
        <ele>893.000000</ele>
        <time>2019-05-09T06:13:08Z</time>
      </trkpt>
      <trkpt lat="37.303411" lon="-3.131528">
        <ele>893.000000</ele>
        <time>2019-05-09T06:13:09Z</time>
      </trkpt>
      <trkpt lat="37.303423" lon="-3.131515">
        <ele>893.000000</ele>
        <time>2019-05-09T06:13:10Z</time>
      </trkpt>
      <trkpt lat="37.303434" lon="-3.131503">
        <ele>893.000000</ele>
        <time>2019-05-09T06:13:11Z</time>
      </trkpt>
      <trkpt lat="37.303457" lon="-3.131492">
        <ele>893.000000</ele>
        <time>2019-05-09T06:13:12Z</time>
      </trkpt>
      <trkpt lat="37.303465" lon="-3.131480">
        <ele>893.000000</ele>
        <time>2019-05-09T06:13:13Z</time>
      </trkpt>
      <trkpt lat="37.303473" lon="-3.131465">
        <ele>893.000000</ele>
        <time>2019-05-09T06:13:14Z</time>
      </trkpt>
      <trkpt lat="37.303483" lon="-3.131450">
        <ele>893.000000</ele>
        <time>2019-05-09T06:13:15Z</time>
      </trkpt>
      <trkpt lat="37.303491" lon="-3.131433">
        <ele>893.000000</ele>
        <time>2019-05-09T06:13:16Z</time>
      </trkpt>
      <trkpt lat="37.303501" lon="-3.131417">
        <ele>893.000000</ele>
        <time>2019-05-09T06:13:17Z</time>
      </trkpt>
      <trkpt lat="37.303511" lon="-3.131402">
        <ele>894.000000</ele>
        <time>2019-05-09T06:13:18Z</time>
      </trkpt>
      <trkpt lat="37.303523" lon="-3.131388">
        <ele>894.000000</ele>
        <time>2019-05-09T06:13:19Z</time>
      </trkpt>
      <trkpt lat="37.303534" lon="-3.131373">
        <ele>894.000000</ele>
        <time>2019-05-09T06:13:20Z</time>
      </trkpt>
      <trkpt lat="37.303548" lon="-3.131360">
        <ele>894.000000</ele>
        <time>2019-05-09T06:13:21Z</time>
      </trkpt>
      <trkpt lat="37.303570" lon="-3.131347">
        <ele>894.000000</ele>
        <time>2019-05-09T06:13:22Z</time>
      </trkpt>
      <trkpt lat="37.303585" lon="-3.131331">
        <ele>894.000000</ele>
        <time>2019-05-09T06:13:23Z</time>
      </trkpt>
      <trkpt lat="37.303597" lon="-3.131318">
        <ele>894.000000</ele>
        <time>2019-05-09T06:13:24Z</time>
      </trkpt>
      <trkpt lat="37.303610" lon="-3.131301">
        <ele>894.000000</ele>
        <time>2019-05-09T06:13:25Z</time>
      </trkpt>
      <trkpt lat="37.303622" lon="-3.131286">
        <ele>894.000000</ele>
        <time>2019-05-09T06:13:26Z</time>
      </trkpt>
      <trkpt lat="37.303633" lon="-3.131271">
        <ele>894.000000</ele>
        <time>2019-05-09T06:13:27Z</time>
      </trkpt>
      <trkpt lat="37.303645" lon="-3.131256">
        <ele>894.000000</ele>
        <time>2019-05-09T06:13:28Z</time>
      </trkpt>
      <trkpt lat="37.303657" lon="-3.131241">
        <ele>894.000000</ele>
        <time>2019-05-09T06:13:29Z</time>
      </trkpt>
      <trkpt lat="37.303668" lon="-3.131227">
        <ele>894.000000</ele>
        <time>2019-05-09T06:13:30Z</time>
      </trkpt>
      <trkpt lat="37.303677" lon="-3.131215">
        <ele>894.000000</ele>
        <time>2019-05-09T06:13:31Z</time>
      </trkpt>
      <trkpt lat="37.303685" lon="-3.131197">
        <ele>894.000000</ele>
        <time>2019-05-09T06:13:32Z</time>
      </trkpt>
      <trkpt lat="37.303693" lon="-3.131183">
        <ele>894.000000</ele>
        <time>2019-05-09T06:13:33Z</time>
      </trkpt>
      <trkpt lat="37.303700" lon="-3.131168">
        <ele>894.000000</ele>
        <time>2019-05-09T06:13:34Z</time>
      </trkpt>
      <trkpt lat="37.303708" lon="-3.131155">
        <ele>894.000000</ele>
        <time>2019-05-09T06:13:35Z</time>
      </trkpt>
      <trkpt lat="37.303717" lon="-3.131145">
        <ele>894.000000</ele>
        <time>2019-05-09T06:13:36Z</time>
      </trkpt>
      <trkpt lat="37.303727" lon="-3.131133">
        <ele>895.000000</ele>
        <time>2019-05-09T06:13:37Z</time>
      </trkpt>
      <trkpt lat="37.303738" lon="-3.131118">
        <ele>895.000000</ele>
        <time>2019-05-09T06:13:38Z</time>
      </trkpt>
      <trkpt lat="37.303749" lon="-3.131103">
        <ele>895.000000</ele>
        <time>2019-05-09T06:13:39Z</time>
      </trkpt>
      <trkpt lat="37.303760" lon="-3.131087">
        <ele>895.000000</ele>
        <time>2019-05-09T06:13:40Z</time>
      </trkpt>
      <trkpt lat="37.303770" lon="-3.131073">
        <ele>895.000000</ele>
        <time>2019-05-09T06:13:41Z</time>
      </trkpt>
      <trkpt lat="37.303781" lon="-3.131058">
        <ele>895.000000</ele>
        <time>2019-05-09T06:13:42Z</time>
      </trkpt>
      <trkpt lat="37.303794" lon="-3.131042">
        <ele>895.000000</ele>
        <time>2019-05-09T06:13:43Z</time>
      </trkpt>
      <trkpt lat="37.303807" lon="-3.131025">
        <ele>895.000000</ele>
        <time>2019-05-09T06:13:44Z</time>
      </trkpt>
      <trkpt lat="37.303820" lon="-3.131008">
        <ele>895.000000</ele>
        <time>2019-05-09T06:13:45Z</time>
      </trkpt>
      <trkpt lat="37.303831" lon="-3.130995">
        <ele>895.000000</ele>
        <time>2019-05-09T06:13:46Z</time>
      </trkpt>
      <trkpt lat="37.303852" lon="-3.130980">
        <ele>895.000000</ele>
        <time>2019-05-09T06:13:47Z</time>
      </trkpt>
      <trkpt lat="37.303868" lon="-3.130963">
        <ele>895.000000</ele>
        <time>2019-05-09T06:13:48Z</time>
      </trkpt>
      <trkpt lat="37.303883" lon="-3.130947">
        <ele>895.000000</ele>
        <time>2019-05-09T06:13:49Z</time>
      </trkpt>
      <trkpt lat="37.303892" lon="-3.130932">
        <ele>895.000000</ele>
        <time>2019-05-09T06:13:50Z</time>
      </trkpt>
      <trkpt lat="37.303902" lon="-3.130916">
        <ele>895.000000</ele>
        <time>2019-05-09T06:13:51Z</time>
      </trkpt>
      <trkpt lat="37.303913" lon="-3.130899">
        <ele>895.000000</ele>
        <time>2019-05-09T06:13:52Z</time>
      </trkpt>
      <trkpt lat="37.303923" lon="-3.130884">
        <ele>895.000000</ele>
        <time>2019-05-09T06:13:53Z</time>
      </trkpt>
      <trkpt lat="37.303932" lon="-3.130865">
        <ele>896.000000</ele>
        <time>2019-05-09T06:13:54Z</time>
      </trkpt>
      <trkpt lat="37.303942" lon="-3.130852">
        <ele>896.000000</ele>
        <time>2019-05-09T06:13:55Z</time>
      </trkpt>
      <trkpt lat="37.303950" lon="-3.130838">
        <ele>896.000000</ele>
        <time>2019-05-09T06:13:56Z</time>
      </trkpt>
      <trkpt lat="37.303959" lon="-3.130825">
        <ele>896.000000</ele>
        <time>2019-05-09T06:13:57Z</time>
      </trkpt>
      <trkpt lat="37.303966" lon="-3.130810">
        <ele>896.000000</ele>
        <time>2019-05-09T06:13:58Z</time>
      </trkpt>
      <trkpt lat="37.303977" lon="-3.130790">
        <ele>896.000000</ele>
        <time>2019-05-09T06:13:59Z</time>
      </trkpt>
      <trkpt lat="37.303985" lon="-3.130777">
        <ele>896.000000</ele>
        <time>2019-05-09T06:14:00Z</time>
      </trkpt>
      <trkpt lat="37.303994" lon="-3.130757">
        <ele>896.000000</ele>
        <time>2019-05-09T06:14:01Z</time>
      </trkpt>
      <trkpt lat="37.304004" lon="-3.130735">
        <ele>896.000000</ele>
        <time>2019-05-09T06:14:02Z</time>
      </trkpt>
      <trkpt lat="37.304014" lon="-3.130717">
        <ele>896.000000</ele>
        <time>2019-05-09T06:14:03Z</time>
      </trkpt>
      <trkpt lat="37.304025" lon="-3.130700">
        <ele>896.000000</ele>
        <time>2019-05-09T06:14:04Z</time>
      </trkpt>
      <trkpt lat="37.304038" lon="-3.130680">
        <ele>896.000000</ele>
        <time>2019-05-09T06:14:05Z</time>
      </trkpt>
      <trkpt lat="37.304049" lon="-3.130663">
        <ele>896.000000</ele>
        <time>2019-05-09T06:14:06Z</time>
      </trkpt>
      <trkpt lat="37.304061" lon="-3.130647">
        <ele>896.000000</ele>
        <time>2019-05-09T06:14:08Z</time>
      </trkpt>
      <trkpt lat="37.304073" lon="-3.130628">
        <ele>896.000000</ele>
        <time>2019-05-09T06:14:08Z</time>
      </trkpt>
      <trkpt lat="37.304084" lon="-3.130612">
        <ele>896.000000</ele>
        <time>2019-05-09T06:14:09Z</time>
      </trkpt>
      <trkpt lat="37.304092" lon="-3.130600">
        <ele>896.000000</ele>
        <time>2019-05-09T06:14:10Z</time>
      </trkpt>
      <trkpt lat="37.304101" lon="-3.130585">
        <ele>896.000000</ele>
        <time>2019-05-09T06:14:11Z</time>
      </trkpt>
      <trkpt lat="37.304107" lon="-3.130573">
        <ele>896.000000</ele>
        <time>2019-05-09T06:14:12Z</time>
      </trkpt>
      <trkpt lat="37.304117" lon="-3.130558">
        <ele>896.000000</ele>
        <time>2019-05-09T06:14:13Z</time>
      </trkpt>
      <trkpt lat="37.304125" lon="-3.130545">
        <ele>897.000000</ele>
        <time>2019-05-09T06:14:14Z</time>
      </trkpt>
      <trkpt lat="37.304137" lon="-3.130525">
        <ele>897.000000</ele>
        <time>2019-05-09T06:14:15Z</time>
      </trkpt>
      <trkpt lat="37.304148" lon="-3.130507">
        <ele>897.000000</ele>
        <time>2019-05-09T06:14:16Z</time>
      </trkpt>
      <trkpt lat="37.304156" lon="-3.130493">
        <ele>897.000000</ele>
        <time>2019-05-09T06:14:17Z</time>
      </trkpt>
      <trkpt lat="37.304169" lon="-3.130473">
        <ele>897.000000</ele>
        <time>2019-05-09T06:14:18Z</time>
      </trkpt>
      <trkpt lat="37.304179" lon="-3.130457">
        <ele>897.000000</ele>
        <time>2019-05-09T06:14:19Z</time>
      </trkpt>
      <trkpt lat="37.304191" lon="-3.130437">
        <ele>897.000000</ele>
        <time>2019-05-09T06:14:20Z</time>
      </trkpt>
      <trkpt lat="37.304201" lon="-3.130422">
        <ele>897.000000</ele>
        <time>2019-05-09T06:14:21Z</time>
      </trkpt>
      <trkpt lat="37.304212" lon="-3.130403">
        <ele>897.000000</ele>
        <time>2019-05-09T06:14:22Z</time>
      </trkpt>
      <trkpt lat="37.304222" lon="-3.130387">
        <ele>897.000000</ele>
        <time>2019-05-09T06:14:23Z</time>
      </trkpt>
      <trkpt lat="37.304232" lon="-3.130370">
        <ele>897.000000</ele>
        <time>2019-05-09T06:14:24Z</time>
      </trkpt>
      <trkpt lat="37.304242" lon="-3.130355">
        <ele>897.000000</ele>
        <time>2019-05-09T06:14:25Z</time>
      </trkpt>
      <trkpt lat="37.304251" lon="-3.130340">
        <ele>898.000000</ele>
        <time>2019-05-09T06:14:26Z</time>
      </trkpt>
      <trkpt lat="37.304258" lon="-3.130325">
        <ele>898.000000</ele>
        <time>2019-05-09T06:14:27Z</time>
      </trkpt>
      <trkpt lat="37.304266" lon="-3.130310">
        <ele>898.000000</ele>
        <time>2019-05-09T06:14:28Z</time>
      </trkpt>
      <trkpt lat="37.304273" lon="-3.130295">
        <ele>899.000000</ele>
        <time>2019-05-09T06:14:29Z</time>
      </trkpt>
      <trkpt lat="37.304280" lon="-3.130283">
        <ele>899.000000</ele>
        <time>2019-05-09T06:14:30Z</time>
      </trkpt>
      <trkpt lat="37.304289" lon="-3.130267">
        <ele>899.000000</ele>
        <time>2019-05-09T06:14:31Z</time>
      </trkpt>
      <trkpt lat="37.304298" lon="-3.130250">
        <ele>900.000000</ele>
        <time>2019-05-09T06:14:32Z</time>
      </trkpt>
      <trkpt lat="37.304309" lon="-3.130230">
        <ele>900.000000</ele>
        <time>2019-05-09T06:14:33Z</time>
      </trkpt>
      <trkpt lat="37.304316" lon="-3.130215">
        <ele>900.000000</ele>
        <time>2019-05-09T06:14:34Z</time>
      </trkpt>
      <trkpt lat="37.304325" lon="-3.130200">
        <ele>900.000000</ele>
        <time>2019-05-09T06:14:35Z</time>
      </trkpt>
      <trkpt lat="37.304333" lon="-3.130187">
        <ele>900.000000</ele>
        <time>2019-05-09T06:14:36Z</time>
      </trkpt>
      <trkpt lat="37.304343" lon="-3.130170">
        <ele>900.000000</ele>
        <time>2019-05-09T06:14:37Z</time>
      </trkpt>
      <trkpt lat="37.304354" lon="-3.130150">
        <ele>900.000000</ele>
        <time>2019-05-09T06:14:38Z</time>
      </trkpt>
      <trkpt lat="37.304366" lon="-3.130133">
        <ele>900.000000</ele>
        <time>2019-05-09T06:14:39Z</time>
      </trkpt>
      <trkpt lat="37.304374" lon="-3.130120">
        <ele>900.000000</ele>
        <time>2019-05-09T06:14:40Z</time>
      </trkpt>
      <trkpt lat="37.304385" lon="-3.130105">
        <ele>900.000000</ele>
        <time>2019-05-09T06:14:41Z</time>
      </trkpt>
      <trkpt lat="37.304393" lon="-3.130092">
        <ele>900.000000</ele>
        <time>2019-05-09T06:14:42Z</time>
      </trkpt>
      <trkpt lat="37.304403" lon="-3.130078">
        <ele>900.000000</ele>
        <time>2019-05-09T06:14:43Z</time>
      </trkpt>
      <trkpt lat="37.304414" lon="-3.130063">
        <ele>900.000000</ele>
        <time>2019-05-09T06:14:44Z</time>
      </trkpt>
      <trkpt lat="37.304423" lon="-3.130048">
        <ele>900.000000</ele>
        <time>2019-05-09T06:14:45Z</time>
      </trkpt>
      <trkpt lat="37.304434" lon="-3.130033">
        <ele>900.000000</ele>
        <time>2019-05-09T06:14:46Z</time>
      </trkpt>
      <trkpt lat="37.304445" lon="-3.130018">
        <ele>900.000000</ele>
        <time>2019-05-09T06:14:47Z</time>
      </trkpt>
      <trkpt lat="37.304482" lon="-3.130003">
        <ele>900.000000</ele>
        <time>2019-05-09T06:14:48Z</time>
      </trkpt>
      <trkpt lat="37.304495" lon="-3.129991">
        <ele>900.000000</ele>
        <time>2019-05-09T06:14:49Z</time>
      </trkpt>
      <trkpt lat="37.304510" lon="-3.129972">
        <ele>900.000000</ele>
        <time>2019-05-09T06:14:50Z</time>
      </trkpt>
      <trkpt lat="37.304522" lon="-3.129955">
        <ele>900.000000</ele>
        <time>2019-05-09T06:14:51Z</time>
      </trkpt>
      <trkpt lat="37.304533" lon="-3.129939">
        <ele>900.000000</ele>
        <time>2019-05-09T06:14:52Z</time>
      </trkpt>
      <trkpt lat="37.304547" lon="-3.129923">
        <ele>900.000000</ele>
        <time>2019-05-09T06:14:53Z</time>
      </trkpt>
      <trkpt lat="37.304562" lon="-3.129913">
        <ele>900.000000</ele>
        <time>2019-05-09T06:14:54Z</time>
      </trkpt>
      <trkpt lat="37.304570" lon="-3.129900">
        <ele>900.000000</ele>
        <time>2019-05-09T06:14:55Z</time>
      </trkpt>
      <trkpt lat="37.304578" lon="-3.129883">
        <ele>900.000000</ele>
        <time>2019-05-09T06:14:56Z</time>
      </trkpt>
      <trkpt lat="37.304586" lon="-3.129867">
        <ele>900.000000</ele>
        <time>2019-05-09T06:14:57Z</time>
      </trkpt>
      <trkpt lat="37.304594" lon="-3.129852">
        <ele>900.000000</ele>
        <time>2019-05-09T06:14:58Z</time>
      </trkpt>
      <trkpt lat="37.304603" lon="-3.129838">
        <ele>900.000000</ele>
        <time>2019-05-09T06:14:59Z</time>
      </trkpt>
      <trkpt lat="37.304613" lon="-3.129825">
        <ele>900.000000</ele>
        <time>2019-05-09T06:15:00Z</time>
      </trkpt>
      <trkpt lat="37.304624" lon="-3.129810">
        <ele>900.000000</ele>
        <time>2019-05-09T06:15:01Z</time>
      </trkpt>
      <trkpt lat="37.304636" lon="-3.129797">
        <ele>900.000000</ele>
        <time>2019-05-09T06:15:02Z</time>
      </trkpt>
      <trkpt lat="37.304649" lon="-3.129780">
        <ele>900.000000</ele>
        <time>2019-05-09T06:15:03Z</time>
      </trkpt>
      <trkpt lat="37.304663" lon="-3.129760">
        <ele>900.000000</ele>
        <time>2019-05-09T06:15:04Z</time>
      </trkpt>
      <trkpt lat="37.304677" lon="-3.129740">
        <ele>900.000000</ele>
        <time>2019-05-09T06:15:05Z</time>
      </trkpt>
      <trkpt lat="37.304688" lon="-3.129725">
        <ele>900.000000</ele>
        <time>2019-05-09T06:15:06Z</time>
      </trkpt>
      <trkpt lat="37.304701" lon="-3.129707">
        <ele>900.000000</ele>
        <time>2019-05-09T06:15:07Z</time>
      </trkpt>
      <trkpt lat="37.304712" lon="-3.129690">
        <ele>900.000000</ele>
        <time>2019-05-09T06:15:08Z</time>
      </trkpt>
      <trkpt lat="37.304722" lon="-3.129675">
        <ele>900.000000</ele>
        <time>2019-05-09T06:15:09Z</time>
      </trkpt>
      <trkpt lat="37.304732" lon="-3.129660">
        <ele>900.000000</ele>
        <time>2019-05-09T06:15:10Z</time>
      </trkpt>
      <trkpt lat="37.304741" lon="-3.129647">
        <ele>900.000000</ele>
        <time>2019-05-09T06:15:11Z</time>
      </trkpt>
      <trkpt lat="37.304750" lon="-3.129633">
        <ele>900.000000</ele>
        <time>2019-05-09T06:15:12Z</time>
      </trkpt>
      <trkpt lat="37.304758" lon="-3.129620">
        <ele>900.000000</ele>
        <time>2019-05-09T06:15:13Z</time>
      </trkpt>
      <trkpt lat="37.304766" lon="-3.129607">
        <ele>900.000000</ele>
        <time>2019-05-09T06:15:14Z</time>
      </trkpt>
      <trkpt lat="37.304775" lon="-3.129593">
        <ele>900.000000</ele>
        <time>2019-05-09T06:15:15Z</time>
      </trkpt>
      <trkpt lat="37.304784" lon="-3.129580">
        <ele>900.000000</ele>
        <time>2019-05-09T06:15:16Z</time>
      </trkpt>
      <trkpt lat="37.304795" lon="-3.129562">
        <ele>900.000000</ele>
        <time>2019-05-09T06:15:17Z</time>
      </trkpt>
      <trkpt lat="37.304804" lon="-3.129548">
        <ele>900.000000</ele>
        <time>2019-05-09T06:15:18Z</time>
      </trkpt>
      <trkpt lat="37.304813" lon="-3.129535">
        <ele>900.000000</ele>
        <time>2019-05-09T06:15:19Z</time>
      </trkpt>
      <trkpt lat="37.304822" lon="-3.129520">
        <ele>900.000000</ele>
        <time>2019-05-09T06:15:20Z</time>
      </trkpt>
      <trkpt lat="37.304834" lon="-3.129505">
        <ele>900.000000</ele>
        <time>2019-05-09T06:15:21Z</time>
      </trkpt>
      <trkpt lat="37.304845" lon="-3.129490">
        <ele>900.000000</ele>
        <time>2019-05-09T06:15:22Z</time>
      </trkpt>
      <trkpt lat="37.304858" lon="-3.129473">
        <ele>900.000000</ele>
        <time>2019-05-09T06:15:23Z</time>
      </trkpt>
      <trkpt lat="37.304873" lon="-3.129453">
        <ele>900.000000</ele>
        <time>2019-05-09T06:15:24Z</time>
      </trkpt>
      <trkpt lat="37.304884" lon="-3.129440">
        <ele>900.000000</ele>
        <time>2019-05-09T06:15:25Z</time>
      </trkpt>
      <trkpt lat="37.304894" lon="-3.129427">
        <ele>900.000000</ele>
        <time>2019-05-09T06:15:26Z</time>
      </trkpt>
      <trkpt lat="37.304908" lon="-3.129407">
        <ele>900.000000</ele>
        <time>2019-05-09T06:15:27Z</time>
      </trkpt>
      <trkpt lat="37.304920" lon="-3.129392">
        <ele>900.000000</ele>
        <time>2019-05-09T06:15:28Z</time>
      </trkpt>
      <trkpt lat="37.304930" lon="-3.129377">
        <ele>900.000000</ele>
        <time>2019-05-09T06:15:29Z</time>
      </trkpt>
      <trkpt lat="37.304942" lon="-3.129360">
        <ele>900.000000</ele>
        <time>2019-05-09T06:15:30Z</time>
      </trkpt>
      <trkpt lat="37.304954" lon="-3.129343">
        <ele>901.000000</ele>
        <time>2019-05-09T06:15:31Z</time>
      </trkpt>
      <trkpt lat="37.304964" lon="-3.129328">
        <ele>901.000000</ele>
        <time>2019-05-09T06:15:32Z</time>
      </trkpt>
      <trkpt lat="37.304977" lon="-3.129310">
        <ele>901.000000</ele>
        <time>2019-05-09T06:15:33Z</time>
      </trkpt>
      <trkpt lat="37.304989" lon="-3.129293">
        <ele>901.000000</ele>
        <time>2019-05-09T06:15:34Z</time>
      </trkpt>
      <trkpt lat="37.305001" lon="-3.129277">
        <ele>901.000000</ele>
        <time>2019-05-09T06:15:35Z</time>
      </trkpt>
      <trkpt lat="37.305014" lon="-3.129260">
        <ele>901.000000</ele>
        <time>2019-05-09T06:15:36Z</time>
      </trkpt>
      <trkpt lat="37.305027" lon="-3.129242">
        <ele>901.000000</ele>
        <time>2019-05-09T06:15:37Z</time>
      </trkpt>
      <trkpt lat="37.305037" lon="-3.129227">
        <ele>901.000000</ele>
        <time>2019-05-09T06:15:38Z</time>
      </trkpt>
      <trkpt lat="37.305049" lon="-3.129210">
        <ele>901.000000</ele>
        <time>2019-05-09T06:15:39Z</time>
      </trkpt>
      <trkpt lat="37.305060" lon="-3.129195">
        <ele>901.000000</ele>
        <time>2019-05-09T06:15:40Z</time>
      </trkpt>
      <trkpt lat="37.305069" lon="-3.129182">
        <ele>901.000000</ele>
        <time>2019-05-09T06:15:41Z</time>
      </trkpt>
      <trkpt lat="37.305081" lon="-3.129165">
        <ele>901.000000</ele>
        <time>2019-05-09T06:15:42Z</time>
      </trkpt>
      <trkpt lat="37.305092" lon="-3.129152">
        <ele>901.000000</ele>
        <time>2019-05-09T06:15:43Z</time>
      </trkpt>
      <trkpt lat="37.305100" lon="-3.129140">
        <ele>901.000000</ele>
        <time>2019-05-09T06:15:44Z</time>
      </trkpt>
      <trkpt lat="37.305111" lon="-3.129127">
        <ele>901.000000</ele>
        <time>2019-05-09T06:15:45Z</time>
      </trkpt>
      <trkpt lat="37.305122" lon="-3.129112">
        <ele>901.000000</ele>
        <time>2019-05-09T06:15:47Z</time>
      </trkpt>
      <trkpt lat="37.305134" lon="-3.129095">
        <ele>901.000000</ele>
        <time>2019-05-09T06:15:47Z</time>
      </trkpt>
      <trkpt lat="37.305146" lon="-3.129078">
        <ele>901.000000</ele>
        <time>2019-05-09T06:15:48Z</time>
      </trkpt>
      <trkpt lat="37.305158" lon="-3.129062">
        <ele>901.000000</ele>
        <time>2019-05-09T06:15:49Z</time>
      </trkpt>
      <trkpt lat="37.305172" lon="-3.129042">
        <ele>902.000000</ele>
        <time>2019-05-09T06:15:50Z</time>
      </trkpt>
      <trkpt lat="37.305186" lon="-3.129023">
        <ele>902.000000</ele>
        <time>2019-05-09T06:15:51Z</time>
      </trkpt>
      <trkpt lat="37.305199" lon="-3.129005">
        <ele>902.000000</ele>
        <time>2019-05-09T06:15:52Z</time>
      </trkpt>
      <trkpt lat="37.305211" lon="-3.128988">
        <ele>902.000000</ele>
        <time>2019-05-09T06:15:53Z</time>
      </trkpt>
      <trkpt lat="37.305221" lon="-3.128973">
        <ele>902.000000</ele>
        <time>2019-05-09T06:15:54Z</time>
      </trkpt>
      <trkpt lat="37.305233" lon="-3.128957">
        <ele>902.000000</ele>
        <time>2019-05-09T06:15:55Z</time>
      </trkpt>
      <trkpt lat="37.305245" lon="-3.128942">
        <ele>902.000000</ele>
        <time>2019-05-09T06:15:56Z</time>
      </trkpt>
      <trkpt lat="37.305257" lon="-3.128925">
        <ele>902.000000</ele>
        <time>2019-05-09T06:15:57Z</time>
      </trkpt>
      <trkpt lat="37.305268" lon="-3.128910">
        <ele>902.000000</ele>
        <time>2019-05-09T06:15:58Z</time>
      </trkpt>
      <trkpt lat="37.305278" lon="-3.128897">
        <ele>902.000000</ele>
        <time>2019-05-09T06:15:59Z</time>
      </trkpt>
      <trkpt lat="37.305287" lon="-3.128883">
        <ele>902.000000</ele>
        <time>2019-05-09T06:16:00Z</time>
      </trkpt>
      <trkpt lat="37.305297" lon="-3.128868">
        <ele>902.000000</ele>
        <time>2019-05-09T06:16:01Z</time>
      </trkpt>
      <trkpt lat="37.305309" lon="-3.128850">
        <ele>902.000000</ele>
        <time>2019-05-09T06:16:02Z</time>
      </trkpt>
      <trkpt lat="37.305321" lon="-3.128833">
        <ele>902.000000</ele>
        <time>2019-05-09T06:16:03Z</time>
      </trkpt>
      <trkpt lat="37.305332" lon="-3.128815">
        <ele>902.000000</ele>
        <time>2019-05-09T06:16:04Z</time>
      </trkpt>
      <trkpt lat="37.305344" lon="-3.128797">
        <ele>903.000000</ele>
        <time>2019-05-09T06:16:05Z</time>
      </trkpt>
      <trkpt lat="37.305358" lon="-3.128777">
        <ele>903.000000</ele>
        <time>2019-05-09T06:16:06Z</time>
      </trkpt>
      <trkpt lat="37.305368" lon="-3.128757">
        <ele>903.000000</ele>
        <time>2019-05-09T06:16:07Z</time>
      </trkpt>
      <trkpt lat="37.305381" lon="-3.128733">
        <ele>903.000000</ele>
        <time>2019-05-09T06:16:08Z</time>
      </trkpt>
      <trkpt lat="37.305391" lon="-3.128713">
        <ele>903.000000</ele>
        <time>2019-05-09T06:16:09Z</time>
      </trkpt>
      <trkpt lat="37.305400" lon="-3.128695">
        <ele>904.000000</ele>
        <time>2019-05-09T06:16:10Z</time>
      </trkpt>
      <trkpt lat="37.305408" lon="-3.128677">
        <ele>904.000000</ele>
        <time>2019-05-09T06:16:11Z</time>
      </trkpt>
      <trkpt lat="37.305417" lon="-3.128655">
        <ele>904.000000</ele>
        <time>2019-05-09T06:16:12Z</time>
      </trkpt>
      <trkpt lat="37.305422" lon="-3.128638">
        <ele>904.000000</ele>
        <time>2019-05-09T06:16:13Z</time>
      </trkpt>
      <trkpt lat="37.305430" lon="-3.128620">
        <ele>904.000000</ele>
        <time>2019-05-09T06:16:14Z</time>
      </trkpt>
      <trkpt lat="37.305435" lon="-3.128603">
        <ele>904.000000</ele>
        <time>2019-05-09T06:16:15Z</time>
      </trkpt>
      <trkpt lat="37.305440" lon="-3.128585">
        <ele>904.000000</ele>
        <time>2019-05-09T06:16:16Z</time>
      </trkpt>
      <trkpt lat="37.305444" lon="-3.128567">
        <ele>904.000000</ele>
        <time>2019-05-09T06:16:17Z</time>
      </trkpt>
      <trkpt lat="37.305449" lon="-3.128548">
        <ele>904.000000</ele>
        <time>2019-05-09T06:16:18Z</time>
      </trkpt>
      <trkpt lat="37.305453" lon="-3.128532">
        <ele>904.000000</ele>
        <time>2019-05-09T06:16:19Z</time>
      </trkpt>
      <trkpt lat="37.305456" lon="-3.128513">
        <ele>904.000000</ele>
        <time>2019-05-09T06:16:20Z</time>
      </trkpt>
      <trkpt lat="37.305461" lon="-3.128495">
        <ele>904.000000</ele>
        <time>2019-05-09T06:16:21Z</time>
      </trkpt>
      <trkpt lat="37.305466" lon="-3.128477">
        <ele>904.000000</ele>
        <time>2019-05-09T06:16:22Z</time>
      </trkpt>
      <trkpt lat="37.305471" lon="-3.128458">
        <ele>904.000000</ele>
        <time>2019-05-09T06:16:23Z</time>
      </trkpt>
      <trkpt lat="37.305478" lon="-3.128438">
        <ele>904.000000</ele>
        <time>2019-05-09T06:16:24Z</time>
      </trkpt>
      <trkpt lat="37.305482" lon="-3.128425">
        <ele>904.000000</ele>
        <time>2019-05-09T06:16:25Z</time>
      </trkpt>
      <trkpt lat="37.305490" lon="-3.128405">
        <ele>904.000000</ele>
        <time>2019-05-09T06:16:26Z</time>
      </trkpt>
      <trkpt lat="37.305496" lon="-3.128387">
        <ele>904.000000</ele>
        <time>2019-05-09T06:16:27Z</time>
      </trkpt>
      <trkpt lat="37.305502" lon="-3.128372">
        <ele>904.000000</ele>
        <time>2019-05-09T06:16:28Z</time>
      </trkpt>
      <trkpt lat="37.305508" lon="-3.128358">
        <ele>904.000000</ele>
        <time>2019-05-09T06:16:29Z</time>
      </trkpt>
      <trkpt lat="37.305515" lon="-3.128343">
        <ele>904.000000</ele>
        <time>2019-05-09T06:16:30Z</time>
      </trkpt>
      <trkpt lat="37.305521" lon="-3.128330">
        <ele>904.000000</ele>
        <time>2019-05-09T06:16:31Z</time>
      </trkpt>
      <trkpt lat="37.305528" lon="-3.128313">
        <ele>904.000000</ele>
        <time>2019-05-09T06:16:32Z</time>
      </trkpt>
      <trkpt lat="37.305535" lon="-3.128298">
        <ele>904.000000</ele>
        <time>2019-05-09T06:16:33Z</time>
      </trkpt>
      <trkpt lat="37.305542" lon="-3.128285">
        <ele>904.000000</ele>
        <time>2019-05-09T06:16:35Z</time>
      </trkpt>
      <trkpt lat="37.305550" lon="-3.128270">
        <ele>904.000000</ele>
        <time>2019-05-09T06:16:35Z</time>
      </trkpt>
      <trkpt lat="37.305558" lon="-3.128257">
        <ele>903.000000</ele>
        <time>2019-05-09T06:16:36Z</time>
      </trkpt>
      <trkpt lat="37.305568" lon="-3.128242">
        <ele>903.000000</ele>
        <time>2019-05-09T06:16:37Z</time>
      </trkpt>
      <trkpt lat="37.305577" lon="-3.128225">
        <ele>903.000000</ele>
        <time>2019-05-09T06:16:38Z</time>
      </trkpt>
      <trkpt lat="37.305635" lon="-3.128210">
        <ele>903.000000</ele>
        <time>2019-05-09T06:16:39Z</time>
      </trkpt>
      <trkpt lat="37.305650" lon="-3.128195">
        <ele>903.000000</ele>
        <time>2019-05-09T06:16:40Z</time>
      </trkpt>
      <trkpt lat="37.305667" lon="-3.128180">
        <ele>903.000000</ele>
        <time>2019-05-09T06:16:41Z</time>
      </trkpt>
      <trkpt lat="37.305682" lon="-3.128165">
        <ele>903.000000</ele>
        <time>2019-05-09T06:16:42Z</time>
      </trkpt>
      <trkpt lat="37.305693" lon="-3.128152">
        <ele>903.000000</ele>
        <time>2019-05-09T06:16:43Z</time>
      </trkpt>
      <trkpt lat="37.305705" lon="-3.128138">
        <ele>903.000000</ele>
        <time>2019-05-09T06:16:44Z</time>
      </trkpt>
      <trkpt lat="37.305717" lon="-3.128124">
        <ele>903.000000</ele>
        <time>2019-05-09T06:16:45Z</time>
      </trkpt>
      <trkpt lat="37.305727" lon="-3.128110">
        <ele>903.000000</ele>
        <time>2019-05-09T06:16:45Z</time>
      </trkpt>
      <trkpt lat="37.305738" lon="-3.128096">
        <ele>903.000000</ele>
        <time>2019-05-09T06:16:46Z</time>
      </trkpt>
      <trkpt lat="37.305748" lon="-3.128083">
        <ele>904.000000</ele>
        <time>2019-05-09T06:16:47Z</time>
      </trkpt>
      <trkpt lat="37.305762" lon="-3.128068">
        <ele>904.000000</ele>
        <time>2019-05-09T06:16:48Z</time>
      </trkpt>
      <trkpt lat="37.305773" lon="-3.128054">
        <ele>904.000000</ele>
        <time>2019-05-09T06:16:49Z</time>
      </trkpt>
      <trkpt lat="37.305785" lon="-3.128037">
        <ele>904.000000</ele>
        <time>2019-05-09T06:16:50Z</time>
      </trkpt>
      <trkpt lat="37.305798" lon="-3.128018">
        <ele>905.000000</ele>
        <time>2019-05-09T06:16:51Z</time>
      </trkpt>
      <trkpt lat="37.305812" lon="-3.128003">
        <ele>905.000000</ele>
        <time>2019-05-09T06:16:52Z</time>
      </trkpt>
      <trkpt lat="37.305828" lon="-3.127993">
        <ele>905.000000</ele>
        <time>2019-05-09T06:16:53Z</time>
      </trkpt>
      <trkpt lat="37.305843" lon="-3.127985">
        <ele>905.000000</ele>
        <time>2019-05-09T06:16:54Z</time>
      </trkpt>
      <trkpt lat="37.305862" lon="-3.127977">
        <ele>905.000000</ele>
        <time>2019-05-09T06:16:55Z</time>
      </trkpt>
      <trkpt lat="37.305877" lon="-3.127972">
        <ele>906.000000</ele>
        <time>2019-05-09T06:16:56Z</time>
      </trkpt>
      <trkpt lat="37.305892" lon="-3.127967">
        <ele>906.000000</ele>
        <time>2019-05-09T06:16:57Z</time>
      </trkpt>
      <trkpt lat="37.305905" lon="-3.127965">
        <ele>906.000000</ele>
        <time>2019-05-09T06:16:58Z</time>
      </trkpt>
      <trkpt lat="37.305920" lon="-3.127962">
        <ele>906.000000</ele>
        <time>2019-05-09T06:16:59Z</time>
      </trkpt>
      <trkpt lat="37.305933" lon="-3.127955">
        <ele>906.000000</ele>
        <time>2019-05-09T06:17:00Z</time>
      </trkpt>
      <trkpt lat="37.305945" lon="-3.127949">
        <ele>906.000000</ele>
        <time>2019-05-09T06:17:01Z</time>
      </trkpt>
      <trkpt lat="37.305962" lon="-3.127942">
        <ele>906.000000</ele>
        <time>2019-05-09T06:17:02Z</time>
      </trkpt>
      <trkpt lat="37.305973" lon="-3.127935">
        <ele>906.000000</ele>
        <time>2019-05-09T06:17:03Z</time>
      </trkpt>
      <trkpt lat="37.305985" lon="-3.127927">
        <ele>906.000000</ele>
        <time>2019-05-09T06:17:04Z</time>
      </trkpt>
      <trkpt lat="37.305997" lon="-3.127920">
        <ele>906.000000</ele>
        <time>2019-05-09T06:17:05Z</time>
      </trkpt>
      <trkpt lat="37.306010" lon="-3.127910">
        <ele>906.000000</ele>
        <time>2019-05-09T06:17:06Z</time>
      </trkpt>
      <trkpt lat="37.306023" lon="-3.127899">
        <ele>906.000000</ele>
        <time>2019-05-09T06:17:07Z</time>
      </trkpt>
      <trkpt lat="37.306038" lon="-3.127884">
        <ele>906.000000</ele>
        <time>2019-05-09T06:17:08Z</time>
      </trkpt>
      <trkpt lat="37.306053" lon="-3.127870">
        <ele>906.000000</ele>
        <time>2019-05-09T06:17:09Z</time>
      </trkpt>
      <trkpt lat="37.306067" lon="-3.127853">
        <ele>906.000000</ele>
        <time>2019-05-09T06:17:10Z</time>
      </trkpt>
      <trkpt lat="37.306080" lon="-3.127836">
        <ele>906.000000</ele>
        <time>2019-05-09T06:17:11Z</time>
      </trkpt>
      <trkpt lat="37.306092" lon="-3.127821">
        <ele>906.000000</ele>
        <time>2019-05-09T06:17:12Z</time>
      </trkpt>
      <trkpt lat="37.306102" lon="-3.127807">
        <ele>906.000000</ele>
        <time>2019-05-09T06:17:13Z</time>
      </trkpt>
      <trkpt lat="37.306115" lon="-3.127790">
        <ele>906.000000</ele>
        <time>2019-05-09T06:17:14Z</time>
      </trkpt>
      <trkpt lat="37.306127" lon="-3.127775">
        <ele>906.000000</ele>
        <time>2019-05-09T06:17:15Z</time>
      </trkpt>
      <trkpt lat="37.306140" lon="-3.127759">
        <ele>906.000000</ele>
        <time>2019-05-09T06:17:16Z</time>
      </trkpt>
      <trkpt lat="37.306152" lon="-3.127743">
        <ele>906.000000</ele>
        <time>2019-05-09T06:17:17Z</time>
      </trkpt>
      <trkpt lat="37.306163" lon="-3.127728">
        <ele>906.000000</ele>
        <time>2019-05-09T06:17:18Z</time>
      </trkpt>
      <trkpt lat="37.306177" lon="-3.127710">
        <ele>906.000000</ele>
        <time>2019-05-09T06:17:19Z</time>
      </trkpt>
      <trkpt lat="37.306187" lon="-3.127696">
        <ele>906.000000</ele>
        <time>2019-05-09T06:17:20Z</time>
      </trkpt>
      <trkpt lat="37.306200" lon="-3.127678">
        <ele>906.000000</ele>
        <time>2019-05-09T06:17:22Z</time>
      </trkpt>
      <trkpt lat="37.306208" lon="-3.127645">
        <ele>906.000000</ele>
        <time>2019-05-09T06:17:22Z</time>
      </trkpt>
      <trkpt lat="37.306218" lon="-3.127632">
        <ele>906.000000</ele>
        <time>2019-05-09T06:17:23Z</time>
      </trkpt>
      <trkpt lat="37.306227" lon="-3.127617">
        <ele>906.000000</ele>
        <time>2019-05-09T06:17:24Z</time>
      </trkpt>
      <trkpt lat="37.306234" lon="-3.127603">
        <ele>906.000000</ele>
        <time>2019-05-09T06:17:25Z</time>
      </trkpt>
      <trkpt lat="37.306243" lon="-3.127590">
        <ele>906.000000</ele>
        <time>2019-05-09T06:17:26Z</time>
      </trkpt>
      <trkpt lat="37.306252" lon="-3.127578">
        <ele>906.000000</ele>
        <time>2019-05-09T06:17:27Z</time>
      </trkpt>
      <trkpt lat="37.306265" lon="-3.127565">
        <ele>906.000000</ele>
        <time>2019-05-09T06:17:28Z</time>
      </trkpt>
      <trkpt lat="37.306278" lon="-3.127552">
        <ele>906.000000</ele>
        <time>2019-05-09T06:17:29Z</time>
      </trkpt>
      <trkpt lat="37.306293" lon="-3.127538">
        <ele>906.000000</ele>
        <time>2019-05-09T06:17:30Z</time>
      </trkpt>
      <trkpt lat="37.306307" lon="-3.127523">
        <ele>906.000000</ele>
        <time>2019-05-09T06:17:31Z</time>
      </trkpt>
      <trkpt lat="37.306322" lon="-3.127508">
        <ele>906.000000</ele>
        <time>2019-05-09T06:17:32Z</time>
      </trkpt>
      <trkpt lat="37.306338" lon="-3.127491">
        <ele>906.000000</ele>
        <time>2019-05-09T06:17:33Z</time>
      </trkpt>
      <trkpt lat="37.306352" lon="-3.127477">
        <ele>906.000000</ele>
        <time>2019-05-09T06:17:34Z</time>
      </trkpt>
      <trkpt lat="37.306363" lon="-3.127463">
        <ele>906.000000</ele>
        <time>2019-05-09T06:17:35Z</time>
      </trkpt>
      <trkpt lat="37.306377" lon="-3.127448">
        <ele>906.000000</ele>
        <time>2019-05-09T06:17:36Z</time>
      </trkpt>
      <trkpt lat="37.306390" lon="-3.127434">
        <ele>906.000000</ele>
        <time>2019-05-09T06:17:37Z</time>
      </trkpt>
      <trkpt lat="37.306403" lon="-3.127420">
        <ele>906.000000</ele>
        <time>2019-05-09T06:17:38Z</time>
      </trkpt>
      <trkpt lat="37.306415" lon="-3.127409">
        <ele>906.000000</ele>
        <time>2019-05-09T06:17:39Z</time>
      </trkpt>
      <trkpt lat="37.306425" lon="-3.127399">
        <ele>906.000000</ele>
        <time>2019-05-09T06:17:40Z</time>
      </trkpt>
      <trkpt lat="37.306437" lon="-3.127388">
        <ele>906.000000</ele>
        <time>2019-05-09T06:17:41Z</time>
      </trkpt>
      <trkpt lat="37.306448" lon="-3.127376">
        <ele>906.000000</ele>
        <time>2019-05-09T06:17:42Z</time>
      </trkpt>
      <trkpt lat="37.306458" lon="-3.127366">
        <ele>906.000000</ele>
        <time>2019-05-09T06:17:43Z</time>
      </trkpt>
      <trkpt lat="37.306468" lon="-3.127356">
        <ele>906.000000</ele>
        <time>2019-05-09T06:17:44Z</time>
      </trkpt>
      <trkpt lat="37.306478" lon="-3.127345">
        <ele>906.000000</ele>
        <time>2019-05-09T06:17:45Z</time>
      </trkpt>
      <trkpt lat="37.306490" lon="-3.127333">
        <ele>906.000000</ele>
        <time>2019-05-09T06:17:46Z</time>
      </trkpt>
      <trkpt lat="37.306503" lon="-3.127319">
        <ele>906.000000</ele>
        <time>2019-05-09T06:17:47Z</time>
      </trkpt>
      <trkpt lat="37.306517" lon="-3.127305">
        <ele>906.000000</ele>
        <time>2019-05-09T06:17:48Z</time>
      </trkpt>
      <trkpt lat="37.306530" lon="-3.127291">
        <ele>906.000000</ele>
        <time>2019-05-09T06:17:49Z</time>
      </trkpt>
      <trkpt lat="37.306543" lon="-3.127276">
        <ele>906.000000</ele>
        <time>2019-05-09T06:17:50Z</time>
      </trkpt>
      <trkpt lat="37.306558" lon="-3.127260">
        <ele>906.000000</ele>
        <time>2019-05-09T06:17:51Z</time>
      </trkpt>
      <trkpt lat="37.306572" lon="-3.127246">
        <ele>906.000000</ele>
        <time>2019-05-09T06:17:52Z</time>
      </trkpt>
      <trkpt lat="37.306585" lon="-3.127231">
        <ele>906.000000</ele>
        <time>2019-05-09T06:17:53Z</time>
      </trkpt>
      <trkpt lat="37.306597" lon="-3.127218">
        <ele>906.000000</ele>
        <time>2019-05-09T06:17:54Z</time>
      </trkpt>
      <trkpt lat="37.306605" lon="-3.127208">
        <ele>907.000000</ele>
        <time>2019-05-09T06:17:55Z</time>
      </trkpt>
      <trkpt lat="37.306613" lon="-3.127197">
        <ele>907.000000</ele>
        <time>2019-05-09T06:17:56Z</time>
      </trkpt>
      <trkpt lat="37.306623" lon="-3.127184">
        <ele>907.000000</ele>
        <time>2019-05-09T06:17:57Z</time>
      </trkpt>
      <trkpt lat="37.306633" lon="-3.127171">
        <ele>907.000000</ele>
        <time>2019-05-09T06:17:58Z</time>
      </trkpt>
      <trkpt lat="37.306645" lon="-3.127143">
        <ele>907.000000</ele>
        <time>2019-05-09T06:17:59Z</time>
      </trkpt>
      <trkpt lat="37.306655" lon="-3.127133">
        <ele>907.000000</ele>
        <time>2019-05-09T06:18:00Z</time>
      </trkpt>
      <trkpt lat="37.306667" lon="-3.127122">
        <ele>907.000000</ele>
        <time>2019-05-09T06:18:01Z</time>
      </trkpt>
      <trkpt lat="37.306677" lon="-3.127108">
        <ele>907.000000</ele>
        <time>2019-05-09T06:18:02Z</time>
      </trkpt>
      <trkpt lat="37.306690" lon="-3.127094">
        <ele>907.000000</ele>
        <time>2019-05-09T06:18:03Z</time>
      </trkpt>
      <trkpt lat="37.306702" lon="-3.127081">
        <ele>907.000000</ele>
        <time>2019-05-09T06:18:04Z</time>
      </trkpt>
      <trkpt lat="37.306712" lon="-3.127068">
        <ele>907.000000</ele>
        <time>2019-05-09T06:18:05Z</time>
      </trkpt>
      <trkpt lat="37.306723" lon="-3.127052">
        <ele>907.000000</ele>
        <time>2019-05-09T06:18:06Z</time>
      </trkpt>
      <trkpt lat="37.306732" lon="-3.127032">
        <ele>907.000000</ele>
        <time>2019-05-09T06:18:07Z</time>
      </trkpt>
      <trkpt lat="37.306743" lon="-3.127015">
        <ele>907.000000</ele>
        <time>2019-05-09T06:18:08Z</time>
      </trkpt>
      <trkpt lat="37.306756" lon="-3.126997">
        <ele>907.000000</ele>
        <time>2019-05-09T06:18:10Z</time>
      </trkpt>
      <trkpt lat="37.306769" lon="-3.126977">
        <ele>907.000000</ele>
        <time>2019-05-09T06:18:10Z</time>
      </trkpt>
      <trkpt lat="37.306779" lon="-3.126958">
        <ele>907.000000</ele>
        <time>2019-05-09T06:18:11Z</time>
      </trkpt>
      <trkpt lat="37.306789" lon="-3.126940">
        <ele>907.000000</ele>
        <time>2019-05-09T06:18:12Z</time>
      </trkpt>
      <trkpt lat="37.306798" lon="-3.126923">
        <ele>908.000000</ele>
        <time>2019-05-09T06:18:13Z</time>
      </trkpt>
      <trkpt lat="37.306806" lon="-3.126907">
        <ele>908.000000</ele>
        <time>2019-05-09T06:18:14Z</time>
      </trkpt>
      <trkpt lat="37.306814" lon="-3.126892">
        <ele>908.000000</ele>
        <time>2019-05-09T06:18:15Z</time>
      </trkpt>
      <trkpt lat="37.306822" lon="-3.126877">
        <ele>908.000000</ele>
        <time>2019-05-09T06:18:16Z</time>
      </trkpt>
      <trkpt lat="37.306830" lon="-3.126865">
        <ele>908.000000</ele>
        <time>2019-05-09T06:18:17Z</time>
      </trkpt>
      <trkpt lat="37.306836" lon="-3.126853">
        <ele>908.000000</ele>
        <time>2019-05-09T06:18:18Z</time>
      </trkpt>
      <trkpt lat="37.306844" lon="-3.126840">
        <ele>908.000000</ele>
        <time>2019-05-09T06:18:19Z</time>
      </trkpt>
      <trkpt lat="37.306852" lon="-3.126825">
        <ele>908.000000</ele>
        <time>2019-05-09T06:18:20Z</time>
      </trkpt>
      <trkpt lat="37.306859" lon="-3.126808">
        <ele>908.000000</ele>
        <time>2019-05-09T06:18:21Z</time>
      </trkpt>
      <trkpt lat="37.306866" lon="-3.126795">
        <ele>908.000000</ele>
        <time>2019-05-09T06:18:22Z</time>
      </trkpt>
      <trkpt lat="37.306873" lon="-3.126783">
        <ele>908.000000</ele>
        <time>2019-05-09T06:18:23Z</time>
      </trkpt>
      <trkpt lat="37.306881" lon="-3.126770">
        <ele>908.000000</ele>
        <time>2019-05-09T06:18:24Z</time>
      </trkpt>
      <trkpt lat="37.306890" lon="-3.126758">
        <ele>908.000000</ele>
        <time>2019-05-09T06:18:25Z</time>
      </trkpt>
      <trkpt lat="37.306902" lon="-3.126743">
        <ele>909.000000</ele>
        <time>2019-05-09T06:18:26Z</time>
      </trkpt>
      <trkpt lat="37.306916" lon="-3.126727">
        <ele>909.000000</ele>
        <time>2019-05-09T06:18:27Z</time>
      </trkpt>
      <trkpt lat="37.306945" lon="-3.126710">
        <ele>909.000000</ele>
        <time>2019-05-09T06:18:28Z</time>
      </trkpt>
      <trkpt lat="37.306962" lon="-3.126695">
        <ele>909.000000</ele>
        <time>2019-05-09T06:18:29Z</time>
      </trkpt>
      <trkpt lat="37.306973" lon="-3.126681">
        <ele>910.000000</ele>
        <time>2019-05-09T06:18:30Z</time>
      </trkpt>
      <trkpt lat="37.306983" lon="-3.126667">
        <ele>910.000000</ele>
        <time>2019-05-09T06:18:31Z</time>
      </trkpt>
      <trkpt lat="37.306995" lon="-3.126652">
        <ele>910.000000</ele>
        <time>2019-05-09T06:18:32Z</time>
      </trkpt>
      <trkpt lat="37.307007" lon="-3.126637">
        <ele>910.000000</ele>
        <time>2019-05-09T06:18:33Z</time>
      </trkpt>
      <trkpt lat="37.307017" lon="-3.126625">
        <ele>910.000000</ele>
        <time>2019-05-09T06:18:34Z</time>
      </trkpt>
      <trkpt lat="37.307027" lon="-3.126611">
        <ele>910.000000</ele>
        <time>2019-05-09T06:18:35Z</time>
      </trkpt>
      <trkpt lat="37.307037" lon="-3.126597">
        <ele>910.000000</ele>
        <time>2019-05-09T06:18:36Z</time>
      </trkpt>
      <trkpt lat="37.307047" lon="-3.126584">
        <ele>910.000000</ele>
        <time>2019-05-09T06:18:37Z</time>
      </trkpt>
      <trkpt lat="37.307053" lon="-3.126568">
        <ele>910.000000</ele>
        <time>2019-05-09T06:18:38Z</time>
      </trkpt>
      <trkpt lat="37.307060" lon="-3.126553">
        <ele>910.000000</ele>
        <time>2019-05-09T06:18:39Z</time>
      </trkpt>
      <trkpt lat="37.307070" lon="-3.126540">
        <ele>910.000000</ele>
        <time>2019-05-09T06:18:40Z</time>
      </trkpt>
      <trkpt lat="37.307083" lon="-3.126527">
        <ele>910.000000</ele>
        <time>2019-05-09T06:18:41Z</time>
      </trkpt>
      <trkpt lat="37.307097" lon="-3.126515">
        <ele>910.000000</ele>
        <time>2019-05-09T06:18:42Z</time>
      </trkpt>
      <trkpt lat="37.307112" lon="-3.126500">
        <ele>910.000000</ele>
        <time>2019-05-09T06:18:43Z</time>
      </trkpt>
      <trkpt lat="37.307125" lon="-3.126486">
        <ele>910.000000</ele>
        <time>2019-05-09T06:18:44Z</time>
      </trkpt>
      <trkpt lat="37.307142" lon="-3.126471">
        <ele>910.000000</ele>
        <time>2019-05-09T06:18:45Z</time>
      </trkpt>
      <trkpt lat="37.307157" lon="-3.126457">
        <ele>910.000000</ele>
        <time>2019-05-09T06:18:46Z</time>
      </trkpt>
      <trkpt lat="37.307172" lon="-3.126442">
        <ele>910.000000</ele>
        <time>2019-05-09T06:18:47Z</time>
      </trkpt>
      <trkpt lat="37.307188" lon="-3.126426">
        <ele>910.000000</ele>
        <time>2019-05-09T06:18:48Z</time>
      </trkpt>
      <trkpt lat="37.307203" lon="-3.126411">
        <ele>910.000000</ele>
        <time>2019-05-09T06:18:49Z</time>
      </trkpt>
      <trkpt lat="37.307217" lon="-3.126397">
        <ele>910.000000</ele>
        <time>2019-05-09T06:18:50Z</time>
      </trkpt>
      <trkpt lat="37.307228" lon="-3.126385">
        <ele>910.000000</ele>
        <time>2019-05-09T06:18:51Z</time>
      </trkpt>
      <trkpt lat="37.307238" lon="-3.126372">
        <ele>910.000000</ele>
        <time>2019-05-09T06:18:52Z</time>
      </trkpt>
      <trkpt lat="37.307247" lon="-3.126361">
        <ele>910.000000</ele>
        <time>2019-05-09T06:18:53Z</time>
      </trkpt>
      <trkpt lat="37.307258" lon="-3.126347">
        <ele>910.000000</ele>
        <time>2019-05-09T06:18:54Z</time>
      </trkpt>
      <trkpt lat="37.307272" lon="-3.126331">
        <ele>910.000000</ele>
        <time>2019-05-09T06:18:55Z</time>
      </trkpt>
      <trkpt lat="37.307282" lon="-3.126319">
        <ele>910.000000</ele>
        <time>2019-05-09T06:18:56Z</time>
      </trkpt>
      <trkpt lat="37.307297" lon="-3.126302">
        <ele>910.000000</ele>
        <time>2019-05-09T06:18:57Z</time>
      </trkpt>
      <trkpt lat="37.307307" lon="-3.126290">
        <ele>909.000000</ele>
        <time>2019-05-09T06:18:58Z</time>
      </trkpt>
      <trkpt lat="37.307320" lon="-3.126275">
        <ele>909.000000</ele>
        <time>2019-05-09T06:18:59Z</time>
      </trkpt>
      <trkpt lat="37.307333" lon="-3.126260">
        <ele>909.000000</ele>
        <time>2019-05-09T06:19:00Z</time>
      </trkpt>
      <trkpt lat="37.307347" lon="-3.126245">
        <ele>909.000000</ele>
        <time>2019-05-09T06:19:01Z</time>
      </trkpt>
      <trkpt lat="37.307358" lon="-3.126232">
        <ele>909.000000</ele>
        <time>2019-05-09T06:19:02Z</time>
      </trkpt>
      <trkpt lat="37.307372" lon="-3.126217">
        <ele>909.000000</ele>
        <time>2019-05-09T06:19:03Z</time>
      </trkpt>
      <trkpt lat="37.307383" lon="-3.126204">
        <ele>909.000000</ele>
        <time>2019-05-09T06:19:04Z</time>
      </trkpt>
      <trkpt lat="37.307395" lon="-3.126191">
        <ele>910.000000</ele>
        <time>2019-05-09T06:19:05Z</time>
      </trkpt>
      <trkpt lat="37.307407" lon="-3.126176">
        <ele>910.000000</ele>
        <time>2019-05-09T06:19:06Z</time>
      </trkpt>
      <trkpt lat="37.307418" lon="-3.126162">
        <ele>910.000000</ele>
        <time>2019-05-09T06:19:07Z</time>
      </trkpt>
      <trkpt lat="37.307428" lon="-3.126149">
        <ele>910.000000</ele>
        <time>2019-05-09T06:19:08Z</time>
      </trkpt>
      <trkpt lat="37.307438" lon="-3.126135">
        <ele>910.000000</ele>
        <time>2019-05-09T06:19:09Z</time>
      </trkpt>
      <trkpt lat="37.307448" lon="-3.126108">
        <ele>911.000000</ele>
        <time>2019-05-09T06:19:10Z</time>
      </trkpt>
      <trkpt lat="37.307457" lon="-3.126095">
        <ele>911.000000</ele>
        <time>2019-05-09T06:19:11Z</time>
      </trkpt>
      <trkpt lat="37.307464" lon="-3.126082">
        <ele>911.000000</ele>
        <time>2019-05-09T06:19:12Z</time>
      </trkpt>
      <trkpt lat="37.307471" lon="-3.126070">
        <ele>911.000000</ele>
        <time>2019-05-09T06:19:13Z</time>
      </trkpt>
      <trkpt lat="37.307480" lon="-3.126058">
        <ele>911.000000</ele>
        <time>2019-05-09T06:19:14Z</time>
      </trkpt>
      <trkpt lat="37.307490" lon="-3.126047">
        <ele>912.000000</ele>
        <time>2019-05-09T06:19:15Z</time>
      </trkpt>
      <trkpt lat="37.307499" lon="-3.126033">
        <ele>912.000000</ele>
        <time>2019-05-09T06:19:16Z</time>
      </trkpt>
      <trkpt lat="37.307509" lon="-3.126018">
        <ele>912.000000</ele>
        <time>2019-05-09T06:19:17Z</time>
      </trkpt>
      <trkpt lat="37.307519" lon="-3.126000">
        <ele>912.000000</ele>
        <time>2019-05-09T06:19:18Z</time>
      </trkpt>
      <trkpt lat="37.307527" lon="-3.125980">
        <ele>913.000000</ele>
        <time>2019-05-09T06:19:19Z</time>
      </trkpt>
      <trkpt lat="37.307533" lon="-3.125958">
        <ele>913.000000</ele>
        <time>2019-05-09T06:19:20Z</time>
      </trkpt>
      <trkpt lat="37.307523" lon="-3.125935">
        <ele>913.000000</ele>
        <time>2019-05-09T06:19:21Z</time>
      </trkpt>
      <trkpt lat="37.307522" lon="-3.125912">
        <ele>913.000000</ele>
        <time>2019-05-09T06:19:22Z</time>
      </trkpt>
      <trkpt lat="37.307523" lon="-3.125890">
        <ele>913.000000</ele>
        <time>2019-05-09T06:19:23Z</time>
      </trkpt>
      <trkpt lat="37.307526" lon="-3.125867">
        <ele>914.000000</ele>
        <time>2019-05-09T06:19:24Z</time>
      </trkpt>
      <trkpt lat="37.307530" lon="-3.125847">
        <ele>914.000000</ele>
        <time>2019-05-09T06:19:25Z</time>
      </trkpt>
      <trkpt lat="37.307536" lon="-3.125827">
        <ele>914.000000</ele>
        <time>2019-05-09T06:19:26Z</time>
      </trkpt>
      <trkpt lat="37.307544" lon="-3.125810">
        <ele>914.000000</ele>
        <time>2019-05-09T06:19:27Z</time>
      </trkpt>
      <trkpt lat="37.307553" lon="-3.125795">
        <ele>914.000000</ele>
        <time>2019-05-09T06:19:28Z</time>
      </trkpt>
      <trkpt lat="37.307561" lon="-3.125782">
        <ele>914.000000</ele>
        <time>2019-05-09T06:19:29Z</time>
      </trkpt>
      <trkpt lat="37.307578" lon="-3.125768">
        <ele>914.000000</ele>
        <time>2019-05-09T06:19:30Z</time>
      </trkpt>
      <trkpt lat="37.307590" lon="-3.125755">
        <ele>914.000000</ele>
        <time>2019-05-09T06:19:31Z</time>
      </trkpt>
      <trkpt lat="37.307601" lon="-3.125745">
        <ele>914.000000</ele>
        <time>2019-05-09T06:19:32Z</time>
      </trkpt>
      <trkpt lat="37.307613" lon="-3.125732">
        <ele>914.000000</ele>
        <time>2019-05-09T06:19:33Z</time>
      </trkpt>
      <trkpt lat="37.307627" lon="-3.125722">
        <ele>914.000000</ele>
        <time>2019-05-09T06:19:34Z</time>
      </trkpt>
      <trkpt lat="37.307641" lon="-3.125712">
        <ele>914.000000</ele>
        <time>2019-05-09T06:19:35Z</time>
      </trkpt>
      <trkpt lat="37.307658" lon="-3.125698">
        <ele>913.000000</ele>
        <time>2019-05-09T06:19:36Z</time>
      </trkpt>
      <trkpt lat="37.307672" lon="-3.125685">
        <ele>913.000000</ele>
        <time>2019-05-09T06:19:37Z</time>
      </trkpt>
      <trkpt lat="37.307687" lon="-3.125668">
        <ele>913.000000</ele>
        <time>2019-05-09T06:19:38Z</time>
      </trkpt>
      <trkpt lat="37.307703" lon="-3.125655">
        <ele>913.000000</ele>
        <time>2019-05-09T06:19:39Z</time>
      </trkpt>
      <trkpt lat="37.307718" lon="-3.125641">
        <ele>913.000000</ele>
        <time>2019-05-09T06:19:40Z</time>
      </trkpt>
      <trkpt lat="37.307732" lon="-3.125630">
        <ele>913.000000</ele>
        <time>2019-05-09T06:19:41Z</time>
      </trkpt>
      <trkpt lat="37.307743" lon="-3.125617">
        <ele>913.000000</ele>
        <time>2019-05-09T06:19:42Z</time>
      </trkpt>
      <trkpt lat="37.307755" lon="-3.125604">
        <ele>913.000000</ele>
        <time>2019-05-09T06:19:43Z</time>
      </trkpt>
      <trkpt lat="37.307767" lon="-3.125592">
        <ele>913.000000</ele>
        <time>2019-05-09T06:19:44Z</time>
      </trkpt>
      <trkpt lat="37.307778" lon="-3.125579">
        <ele>913.000000</ele>
        <time>2019-05-09T06:19:45Z</time>
      </trkpt>
      <trkpt lat="37.307790" lon="-3.125565">
        <ele>913.000000</ele>
        <time>2019-05-09T06:19:46Z</time>
      </trkpt>
      <trkpt lat="37.307802" lon="-3.125553">
        <ele>913.000000</ele>
        <time>2019-05-09T06:19:47Z</time>
      </trkpt>
      <trkpt lat="37.307813" lon="-3.125541">
        <ele>913.000000</ele>
        <time>2019-05-09T06:19:48Z</time>
      </trkpt>
      <trkpt lat="37.307823" lon="-3.125531">
        <ele>913.000000</ele>
        <time>2019-05-09T06:19:49Z</time>
      </trkpt>
      <trkpt lat="37.307830" lon="-3.125524">
        <ele>913.000000</ele>
        <time>2019-05-09T06:19:50Z</time>
      </trkpt>
      <trkpt lat="37.307842" lon="-3.125512">
        <ele>913.000000</ele>
        <time>2019-05-09T06:19:51Z</time>
      </trkpt>
      <trkpt lat="37.307853" lon="-3.125500">
        <ele>913.000000</ele>
        <time>2019-05-09T06:19:52Z</time>
      </trkpt>
      <trkpt lat="37.307865" lon="-3.125488">
        <ele>913.000000</ele>
        <time>2019-05-09T06:19:53Z</time>
      </trkpt>
      <trkpt lat="37.307878" lon="-3.125475">
        <ele>913.000000</ele>
        <time>2019-05-09T06:19:54Z</time>
      </trkpt>
      <trkpt lat="37.307892" lon="-3.125463">
        <ele>913.000000</ele>
        <time>2019-05-09T06:19:55Z</time>
      </trkpt>
      <trkpt lat="37.307905" lon="-3.125450">
        <ele>913.000000</ele>
        <time>2019-05-09T06:19:56Z</time>
      </trkpt>
      <trkpt lat="37.307920" lon="-3.125436">
        <ele>913.000000</ele>
        <time>2019-05-09T06:19:57Z</time>
      </trkpt>
      <trkpt lat="37.307933" lon="-3.125424">
        <ele>913.000000</ele>
        <time>2019-05-09T06:19:58Z</time>
      </trkpt>
      <trkpt lat="37.307948" lon="-3.125410">
        <ele>913.000000</ele>
        <time>2019-05-09T06:19:59Z</time>
      </trkpt>
      <trkpt lat="37.307962" lon="-3.125397">
        <ele>913.000000</ele>
        <time>2019-05-09T06:20:00Z</time>
      </trkpt>
      <trkpt lat="37.307977" lon="-3.125383">
        <ele>913.000000</ele>
        <time>2019-05-09T06:20:01Z</time>
      </trkpt>
      <trkpt lat="37.307990" lon="-3.125369">
        <ele>913.000000</ele>
        <time>2019-05-09T06:20:02Z</time>
      </trkpt>
      <trkpt lat="37.308003" lon="-3.125356">
        <ele>913.000000</ele>
        <time>2019-05-09T06:20:03Z</time>
      </trkpt>
      <trkpt lat="37.308017" lon="-3.125342">
        <ele>914.000000</ele>
        <time>2019-05-09T06:20:04Z</time>
      </trkpt>
      <trkpt lat="37.308030" lon="-3.125329">
        <ele>914.000000</ele>
        <time>2019-05-09T06:20:05Z</time>
      </trkpt>
      <trkpt lat="37.308042" lon="-3.125318">
        <ele>914.000000</ele>
        <time>2019-05-09T06:20:06Z</time>
      </trkpt>
      <trkpt lat="37.308053" lon="-3.125307">
        <ele>914.000000</ele>
        <time>2019-05-09T06:20:07Z</time>
      </trkpt>
      <trkpt lat="37.308065" lon="-3.125295">
        <ele>914.000000</ele>
        <time>2019-05-09T06:20:08Z</time>
      </trkpt>
      <trkpt lat="37.308075" lon="-3.125285">
        <ele>914.000000</ele>
        <time>2019-05-09T06:20:09Z</time>
      </trkpt>
      <trkpt lat="37.308085" lon="-3.125274">
        <ele>914.000000</ele>
        <time>2019-05-09T06:20:10Z</time>
      </trkpt>
      <trkpt lat="37.308095" lon="-3.125264">
        <ele>914.000000</ele>
        <time>2019-05-09T06:20:11Z</time>
      </trkpt>
      <trkpt lat="37.308105" lon="-3.125253">
        <ele>914.000000</ele>
        <time>2019-05-09T06:20:12Z</time>
      </trkpt>
      <trkpt lat="37.308117" lon="-3.125240">
        <ele>914.000000</ele>
        <time>2019-05-09T06:20:13Z</time>
      </trkpt>
      <trkpt lat="37.308128" lon="-3.125227">
        <ele>914.000000</ele>
        <time>2019-05-09T06:20:14Z</time>
      </trkpt>
      <trkpt lat="37.308140" lon="-3.125215">
        <ele>914.000000</ele>
        <time>2019-05-09T06:20:15Z</time>
      </trkpt>
      <trkpt lat="37.308150" lon="-3.125205">
        <ele>914.000000</ele>
        <time>2019-05-09T06:20:16Z</time>
      </trkpt>
      <trkpt lat="37.308160" lon="-3.125194">
        <ele>914.000000</ele>
        <time>2019-05-09T06:20:17Z</time>
      </trkpt>
      <trkpt lat="37.308172" lon="-3.125182">
        <ele>914.000000</ele>
        <time>2019-05-09T06:20:18Z</time>
      </trkpt>
      <trkpt lat="37.308183" lon="-3.125170">
        <ele>914.000000</ele>
        <time>2019-05-09T06:20:19Z</time>
      </trkpt>
      <trkpt lat="37.308195" lon="-3.125159">
        <ele>914.000000</ele>
        <time>2019-05-09T06:20:20Z</time>
      </trkpt>
      <trkpt lat="37.308205" lon="-3.125149">
        <ele>914.000000</ele>
        <time>2019-05-09T06:20:21Z</time>
      </trkpt>
      <trkpt lat="37.308217" lon="-3.125137">
        <ele>914.000000</ele>
        <time>2019-05-09T06:20:22Z</time>
      </trkpt>
      <trkpt lat="37.308232" lon="-3.125123">
        <ele>914.000000</ele>
        <time>2019-05-09T06:20:23Z</time>
      </trkpt>
      <trkpt lat="37.308245" lon="-3.125110">
        <ele>914.000000</ele>
        <time>2019-05-09T06:20:24Z</time>
      </trkpt>
      <trkpt lat="37.308260" lon="-3.125096">
        <ele>914.000000</ele>
        <time>2019-05-09T06:20:25Z</time>
      </trkpt>
      <trkpt lat="37.308275" lon="-3.125082">
        <ele>915.000000</ele>
        <time>2019-05-09T06:20:26Z</time>
      </trkpt>
      <trkpt lat="37.308290" lon="-3.125068">
        <ele>915.000000</ele>
        <time>2019-05-09T06:20:27Z</time>
      </trkpt>
      <trkpt lat="37.308307" lon="-3.125053">
        <ele>915.000000</ele>
        <time>2019-05-09T06:20:28Z</time>
      </trkpt>
      <trkpt lat="37.308323" lon="-3.125038">
        <ele>915.000000</ele>
        <time>2019-05-09T06:20:29Z</time>
      </trkpt>
      <trkpt lat="37.308340" lon="-3.125024">
        <ele>915.000000</ele>
        <time>2019-05-09T06:20:30Z</time>
      </trkpt>
      <trkpt lat="37.308357" lon="-3.125010">
        <ele>915.000000</ele>
        <time>2019-05-09T06:20:31Z</time>
      </trkpt>
      <trkpt lat="37.308370" lon="-3.124999">
        <ele>915.000000</ele>
        <time>2019-05-09T06:20:32Z</time>
      </trkpt>
      <trkpt lat="37.308385" lon="-3.124986">
        <ele>915.000000</ele>
        <time>2019-05-09T06:20:33Z</time>
      </trkpt>
      <trkpt lat="37.308398" lon="-3.124976">
        <ele>915.000000</ele>
        <time>2019-05-09T06:20:34Z</time>
      </trkpt>
      <trkpt lat="37.308415" lon="-3.124962">
        <ele>915.000000</ele>
        <time>2019-05-09T06:20:35Z</time>
      </trkpt>
      <trkpt lat="37.308428" lon="-3.124950">
        <ele>915.000000</ele>
        <time>2019-05-09T06:20:36Z</time>
      </trkpt>
      <trkpt lat="37.308440" lon="-3.124941">
        <ele>915.000000</ele>
        <time>2019-05-09T06:20:37Z</time>
      </trkpt>
      <trkpt lat="37.308453" lon="-3.124931">
        <ele>915.000000</ele>
        <time>2019-05-09T06:20:38Z</time>
      </trkpt>
      <trkpt lat="37.308467" lon="-3.124920">
        <ele>915.000000</ele>
        <time>2019-05-09T06:20:39Z</time>
      </trkpt>
      <trkpt lat="37.308480" lon="-3.124909">
        <ele>915.000000</ele>
        <time>2019-05-09T06:20:40Z</time>
      </trkpt>
      <trkpt lat="37.308492" lon="-3.124900">
        <ele>915.000000</ele>
        <time>2019-05-09T06:20:41Z</time>
      </trkpt>
      <trkpt lat="37.308503" lon="-3.124892">
        <ele>915.000000</ele>
        <time>2019-05-09T06:20:42Z</time>
      </trkpt>
      <trkpt lat="37.308517" lon="-3.124881">
        <ele>915.000000</ele>
        <time>2019-05-09T06:20:43Z</time>
      </trkpt>
      <trkpt lat="37.308528" lon="-3.124873">
        <ele>915.000000</ele>
        <time>2019-05-09T06:20:44Z</time>
      </trkpt>
      <trkpt lat="37.308543" lon="-3.124860">
        <ele>915.000000</ele>
        <time>2019-05-09T06:20:45Z</time>
      </trkpt>
      <trkpt lat="37.308558" lon="-3.124851">
        <ele>915.000000</ele>
        <time>2019-05-09T06:20:46Z</time>
      </trkpt>
      <trkpt lat="37.308572" lon="-3.124841">
        <ele>915.000000</ele>
        <time>2019-05-09T06:20:47Z</time>
      </trkpt>
      <trkpt lat="37.308583" lon="-3.124833">
        <ele>915.000000</ele>
        <time>2019-05-09T06:20:48Z</time>
      </trkpt>
      <trkpt lat="37.308597" lon="-3.124824">
        <ele>915.000000</ele>
        <time>2019-05-09T06:20:49Z</time>
      </trkpt>
      <trkpt lat="37.308610" lon="-3.124815">
        <ele>915.000000</ele>
        <time>2019-05-09T06:20:50Z</time>
      </trkpt>
      <trkpt lat="37.308625" lon="-3.124805">
        <ele>915.000000</ele>
        <time>2019-05-09T06:20:51Z</time>
      </trkpt>
      <trkpt lat="37.308638" lon="-3.124796">
        <ele>915.000000</ele>
        <time>2019-05-09T06:20:52Z</time>
      </trkpt>
      <trkpt lat="37.308652" lon="-3.124787">
        <ele>915.000000</ele>
        <time>2019-05-09T06:20:53Z</time>
      </trkpt>
      <trkpt lat="37.308667" lon="-3.124776">
        <ele>916.000000</ele>
        <time>2019-05-09T06:20:54Z</time>
      </trkpt>
      <trkpt lat="37.308683" lon="-3.124764">
        <ele>916.000000</ele>
        <time>2019-05-09T06:20:55Z</time>
      </trkpt>
      <trkpt lat="37.308698" lon="-3.124754">
        <ele>916.000000</ele>
        <time>2019-05-09T06:20:56Z</time>
      </trkpt>
      <trkpt lat="37.308713" lon="-3.124743">
        <ele>916.000000</ele>
        <time>2019-05-09T06:20:57Z</time>
      </trkpt>
      <trkpt lat="37.308730" lon="-3.124732">
        <ele>916.000000</ele>
        <time>2019-05-09T06:20:58Z</time>
      </trkpt>
      <trkpt lat="37.308745" lon="-3.124722">
        <ele>916.000000</ele>
        <time>2019-05-09T06:20:59Z</time>
      </trkpt>
      <trkpt lat="37.308760" lon="-3.124711">
        <ele>917.000000</ele>
        <time>2019-05-09T06:21:00Z</time>
      </trkpt>
      <trkpt lat="37.308775" lon="-3.124701">
        <ele>917.000000</ele>
        <time>2019-05-09T06:21:00Z</time>
      </trkpt>
      <trkpt lat="37.308790" lon="-3.124690">
        <ele>917.000000</ele>
        <time>2019-05-09T06:21:01Z</time>
      </trkpt>
      <trkpt lat="37.308803" lon="-3.124680">
        <ele>917.000000</ele>
        <time>2019-05-09T06:21:02Z</time>
      </trkpt>
      <trkpt lat="37.308815" lon="-3.124672">
        <ele>917.000000</ele>
        <time>2019-05-09T06:21:03Z</time>
      </trkpt>
      <trkpt lat="37.308827" lon="-3.124664">
        <ele>917.000000</ele>
        <time>2019-05-09T06:21:04Z</time>
      </trkpt>
      <trkpt lat="37.308840" lon="-3.124653">
        <ele>917.000000</ele>
        <time>2019-05-09T06:21:05Z</time>
      </trkpt>
      <trkpt lat="37.308852" lon="-3.124646">
        <ele>917.000000</ele>
        <time>2019-05-09T06:21:06Z</time>
      </trkpt>
      <trkpt lat="37.308863" lon="-3.124636">
        <ele>917.000000</ele>
        <time>2019-05-09T06:21:07Z</time>
      </trkpt>
      <trkpt lat="37.308875" lon="-3.124629">
        <ele>917.000000</ele>
        <time>2019-05-09T06:21:08Z</time>
      </trkpt>
      <trkpt lat="37.308887" lon="-3.124619">
        <ele>917.000000</ele>
        <time>2019-05-09T06:21:09Z</time>
      </trkpt>
      <trkpt lat="37.308900" lon="-3.124611">
        <ele>917.000000</ele>
        <time>2019-05-09T06:21:10Z</time>
      </trkpt>
      <trkpt lat="37.308915" lon="-3.124600">
        <ele>917.000000</ele>
        <time>2019-05-09T06:21:11Z</time>
      </trkpt>
      <trkpt lat="37.308932" lon="-3.124589">
        <ele>917.000000</ele>
        <time>2019-05-09T06:21:12Z</time>
      </trkpt>
      <trkpt lat="37.308948" lon="-3.124578">
        <ele>917.000000</ele>
        <time>2019-05-09T06:21:13Z</time>
      </trkpt>
      <trkpt lat="37.308965" lon="-3.124569">
        <ele>917.000000</ele>
        <time>2019-05-09T06:21:14Z</time>
      </trkpt>
      <trkpt lat="37.308982" lon="-3.124560">
        <ele>917.000000</ele>
        <time>2019-05-09T06:21:15Z</time>
      </trkpt>
      <trkpt lat="37.309000" lon="-3.124549">
        <ele>917.000000</ele>
        <time>2019-05-09T06:21:16Z</time>
      </trkpt>
      <trkpt lat="37.309018" lon="-3.124539">
        <ele>918.000000</ele>
        <time>2019-05-09T06:21:17Z</time>
      </trkpt>
      <trkpt lat="37.309038" lon="-3.124529">
        <ele>918.000000</ele>
        <time>2019-05-09T06:21:18Z</time>
      </trkpt>
      <trkpt lat="37.309055" lon="-3.124522">
        <ele>918.000000</ele>
        <time>2019-05-09T06:21:19Z</time>
      </trkpt>
      <trkpt lat="37.309072" lon="-3.124514">
        <ele>918.000000</ele>
        <time>2019-05-09T06:21:20Z</time>
      </trkpt>
      <trkpt lat="37.309085" lon="-3.124508">
        <ele>918.000000</ele>
        <time>2019-05-09T06:21:21Z</time>
      </trkpt>
      <trkpt lat="37.309103" lon="-3.124500">
        <ele>919.000000</ele>
        <time>2019-05-09T06:21:23Z</time>
      </trkpt>
      <trkpt lat="37.309120" lon="-3.124492">
        <ele>919.000000</ele>
        <time>2019-05-09T06:21:23Z</time>
      </trkpt>
      <trkpt lat="37.309137" lon="-3.124484">
        <ele>919.000000</ele>
        <time>2019-05-09T06:21:24Z</time>
      </trkpt>
      <trkpt lat="37.309153" lon="-3.124476">
        <ele>919.000000</ele>
        <time>2019-05-09T06:21:25Z</time>
      </trkpt>
      <trkpt lat="37.309170" lon="-3.124468">
        <ele>919.000000</ele>
        <time>2019-05-09T06:21:26Z</time>
      </trkpt>
      <trkpt lat="37.309185" lon="-3.124462">
        <ele>919.000000</ele>
        <time>2019-05-09T06:21:27Z</time>
      </trkpt>
      <trkpt lat="37.309200" lon="-3.124455">
        <ele>919.000000</ele>
        <time>2019-05-09T06:21:28Z</time>
      </trkpt>
      <trkpt lat="37.309212" lon="-3.124451">
        <ele>919.000000</ele>
        <time>2019-05-09T06:21:29Z</time>
      </trkpt>
      <trkpt lat="37.309223" lon="-3.124445">
        <ele>919.000000</ele>
        <time>2019-05-09T06:21:30Z</time>
      </trkpt>
      <trkpt lat="37.309238" lon="-3.124439">
        <ele>920.000000</ele>
        <time>2019-05-09T06:21:31Z</time>
      </trkpt>
      <trkpt lat="37.309247" lon="-3.124434">
        <ele>920.000000</ele>
        <time>2019-05-09T06:21:32Z</time>
      </trkpt>
      <trkpt lat="37.309262" lon="-3.124427">
        <ele>920.000000</ele>
        <time>2019-05-09T06:21:33Z</time>
      </trkpt>
      <trkpt lat="37.309273" lon="-3.124421">
        <ele>920.000000</ele>
        <time>2019-05-09T06:21:34Z</time>
      </trkpt>
      <trkpt lat="37.309285" lon="-3.124417">
        <ele>920.000000</ele>
        <time>2019-05-09T06:21:35Z</time>
      </trkpt>
      <trkpt lat="37.309297" lon="-3.124410">
        <ele>920.000000</ele>
        <time>2019-05-09T06:21:36Z</time>
      </trkpt>
      <trkpt lat="37.309307" lon="-3.124406">
        <ele>920.000000</ele>
        <time>2019-05-09T06:21:37Z</time>
      </trkpt>
      <trkpt lat="37.309315" lon="-3.124403">
        <ele>920.000000</ele>
        <time>2019-05-09T06:21:38Z</time>
      </trkpt>
      <trkpt lat="37.309328" lon="-3.124396">
        <ele>920.000000</ele>
        <time>2019-05-09T06:21:39Z</time>
      </trkpt>
      <trkpt lat="37.309340" lon="-3.124391">
        <ele>920.000000</ele>
        <time>2019-05-09T06:21:40Z</time>
      </trkpt>
      <trkpt lat="37.309355" lon="-3.124384">
        <ele>920.000000</ele>
        <time>2019-05-09T06:21:41Z</time>
      </trkpt>
      <trkpt lat="37.309368" lon="-3.124378">
        <ele>920.000000</ele>
        <time>2019-05-09T06:21:42Z</time>
      </trkpt>
      <trkpt lat="37.309380" lon="-3.124372">
        <ele>921.000000</ele>
        <time>2019-05-09T06:21:43Z</time>
      </trkpt>
      <trkpt lat="37.309393" lon="-3.124366">
        <ele>921.000000</ele>
        <time>2019-05-09T06:21:44Z</time>
      </trkpt>
      <trkpt lat="37.309408" lon="-3.124359">
        <ele>921.000000</ele>
        <time>2019-05-09T06:21:45Z</time>
      </trkpt>
      <trkpt lat="37.309425" lon="-3.124351">
        <ele>921.000000</ele>
        <time>2019-05-09T06:21:46Z</time>
      </trkpt>
      <trkpt lat="37.309435" lon="-3.124347">
        <ele>921.000000</ele>
        <time>2019-05-09T06:21:47Z</time>
      </trkpt>
      <trkpt lat="37.309455" lon="-3.124335">
        <ele>921.000000</ele>
        <time>2019-05-09T06:21:48Z</time>
      </trkpt>
      <trkpt lat="37.309470" lon="-3.124327">
        <ele>921.000000</ele>
        <time>2019-05-09T06:21:49Z</time>
      </trkpt>
      <trkpt lat="37.309485" lon="-3.124318">
        <ele>921.000000</ele>
        <time>2019-05-09T06:21:50Z</time>
      </trkpt>
      <trkpt lat="37.309497" lon="-3.124312">
        <ele>921.000000</ele>
        <time>2019-05-09T06:21:51Z</time>
      </trkpt>
      <trkpt lat="37.309518" lon="-3.124300">
        <ele>921.000000</ele>
        <time>2019-05-09T06:21:52Z</time>
      </trkpt>
      <trkpt lat="37.309533" lon="-3.124290">
        <ele>921.000000</ele>
        <time>2019-05-09T06:21:53Z</time>
      </trkpt>
      <trkpt lat="37.309557" lon="-3.124278">
        <ele>921.000000</ele>
        <time>2019-05-09T06:21:54Z</time>
      </trkpt>
      <trkpt lat="37.309570" lon="-3.124271">
        <ele>921.000000</ele>
        <time>2019-05-09T06:21:55Z</time>
      </trkpt>
      <trkpt lat="37.309590" lon="-3.124261">
        <ele>921.000000</ele>
        <time>2019-05-09T06:21:56Z</time>
      </trkpt>
      <trkpt lat="37.309607" lon="-3.124252">
        <ele>921.000000</ele>
        <time>2019-05-09T06:21:57Z</time>
      </trkpt>
      <trkpt lat="37.309620" lon="-3.124245">
        <ele>921.000000</ele>
        <time>2019-05-09T06:21:58Z</time>
      </trkpt>
      <trkpt lat="37.309632" lon="-3.124240">
        <ele>921.000000</ele>
        <time>2019-05-09T06:21:59Z</time>
      </trkpt>
      <trkpt lat="37.309650" lon="-3.124230">
        <ele>921.000000</ele>
        <time>2019-05-09T06:22:00Z</time>
      </trkpt>
      <trkpt lat="37.309665" lon="-3.124223">
        <ele>921.000000</ele>
        <time>2019-05-09T06:22:01Z</time>
      </trkpt>
      <trkpt lat="37.309680" lon="-3.124215">
        <ele>921.000000</ele>
        <time>2019-05-09T06:22:02Z</time>
      </trkpt>
      <trkpt lat="37.309697" lon="-3.124208">
        <ele>921.000000</ele>
        <time>2019-05-09T06:22:03Z</time>
      </trkpt>
      <trkpt lat="37.309713" lon="-3.124200">
        <ele>921.000000</ele>
        <time>2019-05-09T06:22:04Z</time>
      </trkpt>
      <trkpt lat="37.309727" lon="-3.124196">
        <ele>921.000000</ele>
        <time>2019-05-09T06:22:05Z</time>
      </trkpt>
      <trkpt lat="37.309743" lon="-3.124189">
        <ele>921.000000</ele>
        <time>2019-05-09T06:22:06Z</time>
      </trkpt>
      <trkpt lat="37.309755" lon="-3.124185">
        <ele>921.000000</ele>
        <time>2019-05-09T06:22:07Z</time>
      </trkpt>
      <trkpt lat="37.309765" lon="-3.124181">
        <ele>921.000000</ele>
        <time>2019-05-09T06:22:08Z</time>
      </trkpt>
      <trkpt lat="37.309778" lon="-3.124176">
        <ele>921.000000</ele>
        <time>2019-05-09T06:22:10Z</time>
      </trkpt>
      <trkpt lat="37.309792" lon="-3.124171">
        <ele>921.000000</ele>
        <time>2019-05-09T06:22:10Z</time>
      </trkpt>
      <trkpt lat="37.309807" lon="-3.124166">
        <ele>921.000000</ele>
        <time>2019-05-09T06:22:11Z</time>
      </trkpt>
      <trkpt lat="37.309820" lon="-3.124159">
        <ele>921.000000</ele>
        <time>2019-05-09T06:22:12Z</time>
      </trkpt>
      <trkpt lat="37.309832" lon="-3.124154">
        <ele>921.000000</ele>
        <time>2019-05-09T06:22:13Z</time>
      </trkpt>
      <trkpt lat="37.309842" lon="-3.124149">
        <ele>921.000000</ele>
        <time>2019-05-09T06:22:14Z</time>
      </trkpt>
      <trkpt lat="37.309857" lon="-3.124142">
        <ele>921.000000</ele>
        <time>2019-05-09T06:22:15Z</time>
      </trkpt>
      <trkpt lat="37.309873" lon="-3.124133">
        <ele>921.000000</ele>
        <time>2019-05-09T06:22:16Z</time>
      </trkpt>
      <trkpt lat="37.309892" lon="-3.124124">
        <ele>921.000000</ele>
        <time>2019-05-09T06:22:17Z</time>
      </trkpt>
      <trkpt lat="37.309910" lon="-3.124116">
        <ele>921.000000</ele>
        <time>2019-05-09T06:22:18Z</time>
      </trkpt>
      <trkpt lat="37.309928" lon="-3.124107">
        <ele>921.000000</ele>
        <time>2019-05-09T06:22:19Z</time>
      </trkpt>
      <trkpt lat="37.309945" lon="-3.124099">
        <ele>921.000000</ele>
        <time>2019-05-09T06:22:20Z</time>
      </trkpt>
      <trkpt lat="37.309960" lon="-3.124093">
        <ele>921.000000</ele>
        <time>2019-05-09T06:22:21Z</time>
      </trkpt>
      <trkpt lat="37.309980" lon="-3.124083">
        <ele>921.000000</ele>
        <time>2019-05-09T06:22:22Z</time>
      </trkpt>
      <trkpt lat="37.309995" lon="-3.124075">
        <ele>921.000000</ele>
        <time>2019-05-09T06:22:23Z</time>
      </trkpt>
      <trkpt lat="37.310010" lon="-3.124068">
        <ele>921.000000</ele>
        <time>2019-05-09T06:22:24Z</time>
      </trkpt>
      <trkpt lat="37.310025" lon="-3.124062">
        <ele>921.000000</ele>
        <time>2019-05-09T06:22:25Z</time>
      </trkpt>
      <trkpt lat="37.310040" lon="-3.124055">
        <ele>922.000000</ele>
        <time>2019-05-09T06:22:26Z</time>
      </trkpt>
      <trkpt lat="37.310057" lon="-3.124047">
        <ele>922.000000</ele>
        <time>2019-05-09T06:22:27Z</time>
      </trkpt>
      <trkpt lat="37.310070" lon="-3.124041">
        <ele>922.000000</ele>
        <time>2019-05-09T06:22:28Z</time>
      </trkpt>
      <trkpt lat="37.310087" lon="-3.124034">
        <ele>922.000000</ele>
        <time>2019-05-09T06:22:29Z</time>
      </trkpt>
      <trkpt lat="37.310105" lon="-3.124024">
        <ele>922.000000</ele>
        <time>2019-05-09T06:22:30Z</time>
      </trkpt>
      <trkpt lat="37.310120" lon="-3.124016">
        <ele>922.000000</ele>
        <time>2019-05-09T06:22:31Z</time>
      </trkpt>
      <trkpt lat="37.310130" lon="-3.124011">
        <ele>922.000000</ele>
        <time>2019-05-09T06:22:32Z</time>
      </trkpt>
      <trkpt lat="37.310145" lon="-3.124002">
        <ele>922.000000</ele>
        <time>2019-05-09T06:22:33Z</time>
      </trkpt>
      <trkpt lat="37.310157" lon="-3.123994">
        <ele>922.000000</ele>
        <time>2019-05-09T06:22:34Z</time>
      </trkpt>
      <trkpt lat="37.310170" lon="-3.123985">
        <ele>922.000000</ele>
        <time>2019-05-09T06:22:35Z</time>
      </trkpt>
      <trkpt lat="37.310182" lon="-3.123977">
        <ele>922.000000</ele>
        <time>2019-05-09T06:22:36Z</time>
      </trkpt>
      <trkpt lat="37.310193" lon="-3.123967">
        <ele>922.000000</ele>
        <time>2019-05-09T06:22:37Z</time>
      </trkpt>
      <trkpt lat="37.310208" lon="-3.123955">
        <ele>922.000000</ele>
        <time>2019-05-09T06:22:38Z</time>
      </trkpt>
      <trkpt lat="37.310223" lon="-3.123943">
        <ele>922.000000</ele>
        <time>2019-05-09T06:22:39Z</time>
      </trkpt>
      <trkpt lat="37.310238" lon="-3.123930">
        <ele>922.000000</ele>
        <time>2019-05-09T06:22:40Z</time>
      </trkpt>
      <trkpt lat="37.310255" lon="-3.123918">
        <ele>922.000000</ele>
        <time>2019-05-09T06:22:41Z</time>
      </trkpt>
      <trkpt lat="37.310272" lon="-3.123905">
        <ele>922.000000</ele>
        <time>2019-05-09T06:22:42Z</time>
      </trkpt>
      <trkpt lat="37.310287" lon="-3.123894">
        <ele>922.000000</ele>
        <time>2019-05-09T06:22:43Z</time>
      </trkpt>
      <trkpt lat="37.310302" lon="-3.123882">
        <ele>922.000000</ele>
        <time>2019-05-09T06:22:44Z</time>
      </trkpt>
      <trkpt lat="37.310317" lon="-3.123873">
        <ele>922.000000</ele>
        <time>2019-05-09T06:22:45Z</time>
      </trkpt>
      <trkpt lat="37.310327" lon="-3.123865">
        <ele>922.000000</ele>
        <time>2019-05-09T06:22:46Z</time>
      </trkpt>
      <trkpt lat="37.310347" lon="-3.123852">
        <ele>922.000000</ele>
        <time>2019-05-09T06:22:47Z</time>
      </trkpt>
      <trkpt lat="37.310358" lon="-3.123846">
        <ele>922.000000</ele>
        <time>2019-05-09T06:22:48Z</time>
      </trkpt>
      <trkpt lat="37.310380" lon="-3.123832">
        <ele>922.000000</ele>
        <time>2019-05-09T06:22:49Z</time>
      </trkpt>
      <trkpt lat="37.310397" lon="-3.123823">
        <ele>922.000000</ele>
        <time>2019-05-09T06:22:50Z</time>
      </trkpt>
      <trkpt lat="37.310413" lon="-3.123816">
        <ele>922.000000</ele>
        <time>2019-05-09T06:22:51Z</time>
      </trkpt>
      <trkpt lat="37.310427" lon="-3.123809">
        <ele>922.000000</ele>
        <time>2019-05-09T06:22:52Z</time>
      </trkpt>
      <trkpt lat="37.310440" lon="-3.123805">
        <ele>922.000000</ele>
        <time>2019-05-09T06:22:53Z</time>
      </trkpt>
      <trkpt lat="37.310453" lon="-3.123800">
        <ele>922.000000</ele>
        <time>2019-05-09T06:22:55Z</time>
      </trkpt>
      <trkpt lat="37.310468" lon="-3.123797">
        <ele>922.000000</ele>
        <time>2019-05-09T06:22:55Z</time>
      </trkpt>
      <trkpt lat="37.310483" lon="-3.123792">
        <ele>922.000000</ele>
        <time>2019-05-09T06:22:56Z</time>
      </trkpt>
      <trkpt lat="37.310500" lon="-3.123788">
        <ele>922.000000</ele>
        <time>2019-05-09T06:22:57Z</time>
      </trkpt>
      <trkpt lat="37.310517" lon="-3.123785">
        <ele>922.000000</ele>
        <time>2019-05-09T06:22:58Z</time>
      </trkpt>
      <trkpt lat="37.310532" lon="-3.123782">
        <ele>922.000000</ele>
        <time>2019-05-09T06:22:59Z</time>
      </trkpt>
      <trkpt lat="37.310547" lon="-3.123780">
        <ele>922.000000</ele>
        <time>2019-05-09T06:23:00Z</time>
      </trkpt>
      <trkpt lat="37.310562" lon="-3.123777">
        <ele>922.000000</ele>
        <time>2019-05-09T06:23:01Z</time>
      </trkpt>
      <trkpt lat="37.310573" lon="-3.123777">
        <ele>922.000000</ele>
        <time>2019-05-09T06:23:02Z</time>
      </trkpt>
      <trkpt lat="37.310590" lon="-3.123774">
        <ele>922.000000</ele>
        <time>2019-05-09T06:23:03Z</time>
      </trkpt>
      <trkpt lat="37.310603" lon="-3.123772">
        <ele>923.000000</ele>
        <time>2019-05-09T06:23:04Z</time>
      </trkpt>
      <trkpt lat="37.310623" lon="-3.123768">
        <ele>923.000000</ele>
        <time>2019-05-09T06:23:05Z</time>
      </trkpt>
      <trkpt lat="37.310642" lon="-3.123765">
        <ele>923.000000</ele>
        <time>2019-05-09T06:23:06Z</time>
      </trkpt>
      <trkpt lat="37.310660" lon="-3.123762">
        <ele>923.000000</ele>
        <time>2019-05-09T06:23:07Z</time>
      </trkpt>
      <trkpt lat="37.310678" lon="-3.123761">
        <ele>923.000000</ele>
        <time>2019-05-09T06:23:08Z</time>
      </trkpt>
      <trkpt lat="37.310692" lon="-3.123760">
        <ele>923.000000</ele>
        <time>2019-05-09T06:23:09Z</time>
      </trkpt>
      <trkpt lat="37.310715" lon="-3.123759">
        <ele>923.000000</ele>
        <time>2019-05-09T06:23:10Z</time>
      </trkpt>
      <trkpt lat="37.310732" lon="-3.123759">
        <ele>923.000000</ele>
        <time>2019-05-09T06:23:11Z</time>
      </trkpt>
      <trkpt lat="37.310750" lon="-3.123760">
        <ele>923.000000</ele>
        <time>2019-05-09T06:23:12Z</time>
      </trkpt>
      <trkpt lat="37.310768" lon="-3.123762">
        <ele>923.000000</ele>
        <time>2019-05-09T06:23:13Z</time>
      </trkpt>
      <trkpt lat="37.310785" lon="-3.123764">
        <ele>923.000000</ele>
        <time>2019-05-09T06:23:14Z</time>
      </trkpt>
      <trkpt lat="37.310802" lon="-3.123766">
        <ele>924.000000</ele>
        <time>2019-05-09T06:23:15Z</time>
      </trkpt>
      <trkpt lat="37.310815" lon="-3.123770">
        <ele>924.000000</ele>
        <time>2019-05-09T06:23:16Z</time>
      </trkpt>
      <trkpt lat="37.310830" lon="-3.123773">
        <ele>924.000000</ele>
        <time>2019-05-09T06:23:17Z</time>
      </trkpt>
      <trkpt lat="37.310848" lon="-3.123775">
        <ele>924.000000</ele>
        <time>2019-05-09T06:23:18Z</time>
      </trkpt>
      <trkpt lat="37.310862" lon="-3.123779">
        <ele>924.000000</ele>
        <time>2019-05-09T06:23:19Z</time>
      </trkpt>
      <trkpt lat="37.310875" lon="-3.123782">
        <ele>924.000000</ele>
        <time>2019-05-09T06:23:20Z</time>
      </trkpt>
      <trkpt lat="37.310888" lon="-3.123784">
        <ele>924.000000</ele>
        <time>2019-05-09T06:23:21Z</time>
      </trkpt>
      <trkpt lat="37.310907" lon="-3.123786">
        <ele>924.000000</ele>
        <time>2019-05-09T06:23:22Z</time>
      </trkpt>
      <trkpt lat="37.310925" lon="-3.123789">
        <ele>924.000000</ele>
        <time>2019-05-09T06:23:23Z</time>
      </trkpt>
      <trkpt lat="37.310945" lon="-3.123789">
        <ele>925.000000</ele>
        <time>2019-05-09T06:23:24Z</time>
      </trkpt>
      <trkpt lat="37.310963" lon="-3.123791">
        <ele>925.000000</ele>
        <time>2019-05-09T06:23:25Z</time>
      </trkpt>
      <trkpt lat="37.310978" lon="-3.123793">
        <ele>925.000000</ele>
        <time>2019-05-09T06:23:26Z</time>
      </trkpt>
      <trkpt lat="37.310990" lon="-3.123794">
        <ele>925.000000</ele>
        <time>2019-05-09T06:23:27Z</time>
      </trkpt>
      <trkpt lat="37.311007" lon="-3.123795">
        <ele>925.000000</ele>
        <time>2019-05-09T06:23:28Z</time>
      </trkpt>
      <trkpt lat="37.311025" lon="-3.123795">
        <ele>925.000000</ele>
        <time>2019-05-09T06:23:29Z</time>
      </trkpt>
      <trkpt lat="37.311043" lon="-3.123794">
        <ele>925.000000</ele>
        <time>2019-05-09T06:23:30Z</time>
      </trkpt>
      <trkpt lat="37.311060" lon="-3.123794">
        <ele>925.000000</ele>
        <time>2019-05-09T06:23:31Z</time>
      </trkpt>
      <trkpt lat="37.311073" lon="-3.123794">
        <ele>925.000000</ele>
        <time>2019-05-09T06:23:32Z</time>
      </trkpt>
      <trkpt lat="37.311087" lon="-3.123795">
        <ele>925.000000</ele>
        <time>2019-05-09T06:23:33Z</time>
      </trkpt>
      <trkpt lat="37.311102" lon="-3.123795">
        <ele>925.000000</ele>
        <time>2019-05-09T06:23:34Z</time>
      </trkpt>
      <trkpt lat="37.311115" lon="-3.123796">
        <ele>926.000000</ele>
        <time>2019-05-09T06:23:35Z</time>
      </trkpt>
      <trkpt lat="37.311133" lon="-3.123796">
        <ele>926.000000</ele>
        <time>2019-05-09T06:23:36Z</time>
      </trkpt>
      <trkpt lat="37.311150" lon="-3.123795">
        <ele>926.000000</ele>
        <time>2019-05-09T06:23:37Z</time>
      </trkpt>
      <trkpt lat="37.311163" lon="-3.123793">
        <ele>926.000000</ele>
        <time>2019-05-09T06:23:38Z</time>
      </trkpt>
      <trkpt lat="37.311180" lon="-3.123792">
        <ele>926.000000</ele>
        <time>2019-05-09T06:23:39Z</time>
      </trkpt>
      <trkpt lat="37.311193" lon="-3.123791">
        <ele>926.000000</ele>
        <time>2019-05-09T06:23:40Z</time>
      </trkpt>
      <trkpt lat="37.311205" lon="-3.123790">
        <ele>926.000000</ele>
        <time>2019-05-09T06:23:41Z</time>
      </trkpt>
      <trkpt lat="37.311227" lon="-3.123789">
        <ele>926.000000</ele>
        <time>2019-05-09T06:23:42Z</time>
      </trkpt>
      <trkpt lat="37.311247" lon="-3.123788">
        <ele>926.000000</ele>
        <time>2019-05-09T06:23:43Z</time>
      </trkpt>
      <trkpt lat="37.311267" lon="-3.123786">
        <ele>926.000000</ele>
        <time>2019-05-09T06:23:45Z</time>
      </trkpt>
      <trkpt lat="37.311285" lon="-3.123785">
        <ele>926.000000</ele>
        <time>2019-05-09T06:23:45Z</time>
      </trkpt>
      <trkpt lat="37.311302" lon="-3.123785">
        <ele>926.000000</ele>
        <time>2019-05-09T06:23:46Z</time>
      </trkpt>
      <trkpt lat="37.311318" lon="-3.123783">
        <ele>926.000000</ele>
        <time>2019-05-09T06:23:47Z</time>
      </trkpt>
      <trkpt lat="37.311333" lon="-3.123784">
        <ele>926.000000</ele>
        <time>2019-05-09T06:23:48Z</time>
      </trkpt>
      <trkpt lat="37.311352" lon="-3.123782">
        <ele>927.000000</ele>
        <time>2019-05-09T06:23:49Z</time>
      </trkpt>
      <trkpt lat="37.311365" lon="-3.123781">
        <ele>927.000000</ele>
        <time>2019-05-09T06:23:50Z</time>
      </trkpt>
      <trkpt lat="37.311377" lon="-3.123780">
        <ele>927.000000</ele>
        <time>2019-05-09T06:23:51Z</time>
      </trkpt>
      <trkpt lat="37.311390" lon="-3.123780">
        <ele>927.000000</ele>
        <time>2019-05-09T06:23:52Z</time>
      </trkpt>
      <trkpt lat="37.311402" lon="-3.123777">
        <ele>927.000000</ele>
        <time>2019-05-09T06:23:53Z</time>
      </trkpt>
      <trkpt lat="37.311417" lon="-3.123776">
        <ele>927.000000</ele>
        <time>2019-05-09T06:23:54Z</time>
      </trkpt>
      <trkpt lat="37.311428" lon="-3.123774">
        <ele>927.000000</ele>
        <time>2019-05-09T06:23:55Z</time>
      </trkpt>
      <trkpt lat="37.311437" lon="-3.123772">
        <ele>927.000000</ele>
        <time>2019-05-09T06:23:56Z</time>
      </trkpt>
      <trkpt lat="37.311450" lon="-3.123769">
        <ele>927.000000</ele>
        <time>2019-05-09T06:23:57Z</time>
      </trkpt>
      <trkpt lat="37.311468" lon="-3.123767">
        <ele>927.000000</ele>
        <time>2019-05-09T06:23:58Z</time>
      </trkpt>
      <trkpt lat="37.311483" lon="-3.123762">
        <ele>927.000000</ele>
        <time>2019-05-09T06:23:59Z</time>
      </trkpt>
      <trkpt lat="37.311500" lon="-3.123759">
        <ele>927.000000</ele>
        <time>2019-05-09T06:24:00Z</time>
      </trkpt>
      <trkpt lat="37.311518" lon="-3.123754">
        <ele>927.000000</ele>
        <time>2019-05-09T06:24:01Z</time>
      </trkpt>
      <trkpt lat="37.311535" lon="-3.123751">
        <ele>927.000000</ele>
        <time>2019-05-09T06:24:02Z</time>
      </trkpt>
      <trkpt lat="37.311553" lon="-3.123746">
        <ele>927.000000</ele>
        <time>2019-05-09T06:24:03Z</time>
      </trkpt>
      <trkpt lat="37.311570" lon="-3.123740">
        <ele>927.000000</ele>
        <time>2019-05-09T06:24:04Z</time>
      </trkpt>
      <trkpt lat="37.311588" lon="-3.123735">
        <ele>927.000000</ele>
        <time>2019-05-09T06:24:05Z</time>
      </trkpt>
      <trkpt lat="37.311605" lon="-3.123729">
        <ele>927.000000</ele>
        <time>2019-05-09T06:24:06Z</time>
      </trkpt>
      <trkpt lat="37.311622" lon="-3.123724">
        <ele>927.000000</ele>
        <time>2019-05-09T06:24:07Z</time>
      </trkpt>
      <trkpt lat="37.311637" lon="-3.123718">
        <ele>927.000000</ele>
        <time>2019-05-09T06:24:08Z</time>
      </trkpt>
      <trkpt lat="37.311648" lon="-3.123713">
        <ele>927.000000</ele>
        <time>2019-05-09T06:24:09Z</time>
      </trkpt>
      <trkpt lat="37.311667" lon="-3.123707">
        <ele>927.000000</ele>
        <time>2019-05-09T06:24:10Z</time>
      </trkpt>
      <trkpt lat="37.311680" lon="-3.123702">
        <ele>927.000000</ele>
        <time>2019-05-09T06:24:11Z</time>
      </trkpt>
      <trkpt lat="37.311692" lon="-3.123694">
        <ele>927.000000</ele>
        <time>2019-05-09T06:24:12Z</time>
      </trkpt>
      <trkpt lat="37.311703" lon="-3.123688">
        <ele>927.000000</ele>
        <time>2019-05-09T06:24:13Z</time>
      </trkpt>
      <trkpt lat="37.311712" lon="-3.123683">
        <ele>927.000000</ele>
        <time>2019-05-09T06:24:14Z</time>
      </trkpt>
      <trkpt lat="37.311723" lon="-3.123676">
        <ele>927.000000</ele>
        <time>2019-05-09T06:24:15Z</time>
      </trkpt>
      <trkpt lat="37.311737" lon="-3.123668">
        <ele>928.000000</ele>
        <time>2019-05-09T06:24:16Z</time>
      </trkpt>
      <trkpt lat="37.311748" lon="-3.123659">
        <ele>928.000000</ele>
        <time>2019-05-09T06:24:17Z</time>
      </trkpt>
      <trkpt lat="37.311762" lon="-3.123651">
        <ele>928.000000</ele>
        <time>2019-05-09T06:24:18Z</time>
      </trkpt>
      <trkpt lat="37.311777" lon="-3.123641">
        <ele>928.000000</ele>
        <time>2019-05-09T06:24:19Z</time>
      </trkpt>
      <trkpt lat="37.311792" lon="-3.123633">
        <ele>928.000000</ele>
        <time>2019-05-09T06:24:20Z</time>
      </trkpt>
      <trkpt lat="37.311802" lon="-3.123628">
        <ele>928.000000</ele>
        <time>2019-05-09T06:24:21Z</time>
      </trkpt>
      <trkpt lat="37.311812" lon="-3.123620">
        <ele>929.000000</ele>
        <time>2019-05-09T06:24:22Z</time>
      </trkpt>
      <trkpt lat="37.311818" lon="-3.123638">
        <ele>929.000000</ele>
        <time>2019-05-09T06:24:23Z</time>
      </trkpt>
      <trkpt lat="37.311820" lon="-3.123653">
        <ele>929.000000</ele>
        <time>2019-05-09T06:24:24Z</time>
      </trkpt>
      <trkpt lat="37.311827" lon="-3.123678">
        <ele>929.000000</ele>
        <time>2019-05-09T06:24:25Z</time>
      </trkpt>
      <trkpt lat="37.311830" lon="-3.123698">
        <ele>929.000000</ele>
        <time>2019-05-09T06:24:26Z</time>
      </trkpt>
      <trkpt lat="37.311832" lon="-3.123712">
        <ele>930.000000</ele>
        <time>2019-05-09T06:24:27Z</time>
      </trkpt>
      <trkpt lat="37.311832" lon="-3.123722">
        <ele>930.000000</ele>
        <time>2019-05-09T06:24:28Z</time>
      </trkpt>
      <trkpt lat="37.311835" lon="-3.123730">
        <ele>930.000000</ele>
        <time>2019-05-09T06:24:29Z</time>
      </trkpt>
      <trkpt lat="37.311838" lon="-3.123740">
        <ele>930.000000</ele>
        <time>2019-05-09T06:24:30Z</time>
      </trkpt>
      <trkpt lat="37.311846" lon="-3.123750">
        <ele>930.000000</ele>
        <time>2019-05-09T06:24:32Z</time>
      </trkpt>
      <trkpt lat="37.311853" lon="-3.123763">
        <ele>930.000000</ele>
        <time>2019-05-09T06:24:32Z</time>
      </trkpt>
      <trkpt lat="37.311861" lon="-3.123773">
        <ele>930.000000</ele>
        <time>2019-05-09T06:24:33Z</time>
      </trkpt>
      <trkpt lat="37.311871" lon="-3.123788">
        <ele>930.000000</ele>
        <time>2019-05-09T06:24:34Z</time>
      </trkpt>
      <trkpt lat="37.311879" lon="-3.123797">
        <ele>930.000000</ele>
        <time>2019-05-09T06:24:35Z</time>
      </trkpt>
      <trkpt lat="37.311887" lon="-3.123800">
        <ele>930.000000</ele>
        <time>2019-05-09T06:24:36Z</time>
      </trkpt>
      <trkpt lat="37.311915" lon="-3.123805">
        <ele>930.000000</ele>
        <time>2019-05-09T06:24:37Z</time>
      </trkpt>
      <trkpt lat="37.311933" lon="-3.123803">
        <ele>930.000000</ele>
        <time>2019-05-09T06:24:38Z</time>
      </trkpt>
      <trkpt lat="37.311943" lon="-3.123805">
        <ele>930.000000</ele>
        <time>2019-05-09T06:24:39Z</time>
      </trkpt>
      <trkpt lat="37.311953" lon="-3.123807">
        <ele>930.000000</ele>
        <time>2019-05-09T06:24:40Z</time>
      </trkpt>
      <trkpt lat="37.311965" lon="-3.123803">
        <ele>930.000000</ele>
        <time>2019-05-09T06:24:41Z</time>
      </trkpt>
      <trkpt lat="37.311980" lon="-3.123803">
        <ele>930.000000</ele>
        <time>2019-05-09T06:24:42Z</time>
      </trkpt>
      <trkpt lat="37.311993" lon="-3.123800">
        <ele>930.000000</ele>
        <time>2019-05-09T06:24:43Z</time>
      </trkpt>
      <trkpt lat="37.312010" lon="-3.123805">
        <ele>930.000000</ele>
        <time>2019-05-09T06:24:44Z</time>
      </trkpt>
      <trkpt lat="37.312025" lon="-3.123807">
        <ele>930.000000</ele>
        <time>2019-05-09T06:24:45Z</time>
      </trkpt>
      <trkpt lat="37.312040" lon="-3.123804">
        <ele>930.000000</ele>
        <time>2019-05-09T06:24:46Z</time>
      </trkpt>
      <trkpt lat="37.312053" lon="-3.123800">
        <ele>930.000000</ele>
        <time>2019-05-09T06:24:47Z</time>
      </trkpt>
      <trkpt lat="37.312070" lon="-3.123798">
        <ele>930.000000</ele>
        <time>2019-05-09T06:24:48Z</time>
      </trkpt>
      <trkpt lat="37.312080" lon="-3.123799">
        <ele>930.000000</ele>
        <time>2019-05-09T06:24:49Z</time>
      </trkpt>
      <trkpt lat="37.312092" lon="-3.123800">
        <ele>930.000000</ele>
        <time>2019-05-09T06:24:50Z</time>
      </trkpt>
      <trkpt lat="37.312108" lon="-3.123802">
        <ele>930.000000</ele>
        <time>2019-05-09T06:24:51Z</time>
      </trkpt>
      <trkpt lat="37.312125" lon="-3.123806">
        <ele>930.000000</ele>
        <time>2019-05-09T06:24:52Z</time>
      </trkpt>
      <trkpt lat="37.312143" lon="-3.123809">
        <ele>930.000000</ele>
        <time>2019-05-09T06:24:53Z</time>
      </trkpt>
      <trkpt lat="37.312168" lon="-3.123812">
        <ele>930.000000</ele>
        <time>2019-05-09T06:24:55Z</time>
      </trkpt>
      <trkpt lat="37.312190" lon="-3.123813">
        <ele>930.000000</ele>
        <time>2019-05-09T06:24:55Z</time>
      </trkpt>
      <trkpt lat="37.312207" lon="-3.123814">
        <ele>930.000000</ele>
        <time>2019-05-09T06:24:56Z</time>
      </trkpt>
      <trkpt lat="37.312220" lon="-3.123815">
        <ele>930.000000</ele>
        <time>2019-05-09T06:24:57Z</time>
      </trkpt>
      <trkpt lat="37.312237" lon="-3.123817">
        <ele>930.000000</ele>
        <time>2019-05-09T06:24:58Z</time>
      </trkpt>
      <trkpt lat="37.312252" lon="-3.123818">
        <ele>930.000000</ele>
        <time>2019-05-09T06:24:59Z</time>
      </trkpt>
      <trkpt lat="37.312270" lon="-3.123818">
        <ele>930.000000</ele>
        <time>2019-05-09T06:25:00Z</time>
      </trkpt>
      <trkpt lat="37.312283" lon="-3.123819">
        <ele>930.000000</ele>
        <time>2019-05-09T06:25:01Z</time>
      </trkpt>
      <trkpt lat="37.312302" lon="-3.123819">
        <ele>930.000000</ele>
        <time>2019-05-09T06:25:02Z</time>
      </trkpt>
      <trkpt lat="37.312318" lon="-3.123819">
        <ele>930.000000</ele>
        <time>2019-05-09T06:25:03Z</time>
      </trkpt>
      <trkpt lat="37.312332" lon="-3.123819">
        <ele>930.000000</ele>
        <time>2019-05-09T06:25:04Z</time>
      </trkpt>
      <trkpt lat="37.312347" lon="-3.123818">
        <ele>931.000000</ele>
        <time>2019-05-09T06:25:05Z</time>
      </trkpt>
      <trkpt lat="37.312362" lon="-3.123818">
        <ele>931.000000</ele>
        <time>2019-05-09T06:25:06Z</time>
      </trkpt>
      <trkpt lat="37.312377" lon="-3.123817">
        <ele>931.000000</ele>
        <time>2019-05-09T06:25:07Z</time>
      </trkpt>
      <trkpt lat="37.312390" lon="-3.123817">
        <ele>931.000000</ele>
        <time>2019-05-09T06:25:08Z</time>
      </trkpt>
      <trkpt lat="37.312403" lon="-3.123817">
        <ele>931.000000</ele>
        <time>2019-05-09T06:25:09Z</time>
      </trkpt>
      <trkpt lat="37.312417" lon="-3.123818">
        <ele>931.000000</ele>
        <time>2019-05-09T06:25:10Z</time>
      </trkpt>
      <trkpt lat="37.312430" lon="-3.123819">
        <ele>931.000000</ele>
        <time>2019-05-09T06:25:11Z</time>
      </trkpt>
      <trkpt lat="37.312445" lon="-3.123821">
        <ele>931.000000</ele>
        <time>2019-05-09T06:25:12Z</time>
      </trkpt>
      <trkpt lat="37.312462" lon="-3.123824">
        <ele>931.000000</ele>
        <time>2019-05-09T06:25:13Z</time>
      </trkpt>
      <trkpt lat="37.312477" lon="-3.123825">
        <ele>931.000000</ele>
        <time>2019-05-09T06:25:14Z</time>
      </trkpt>
      <trkpt lat="37.312492" lon="-3.123827">
        <ele>931.000000</ele>
        <time>2019-05-09T06:25:15Z</time>
      </trkpt>
      <trkpt lat="37.312508" lon="-3.123828">
        <ele>931.000000</ele>
        <time>2019-05-09T06:25:15Z</time>
      </trkpt>
      <trkpt lat="37.312523" lon="-3.123829">
        <ele>931.000000</ele>
        <time>2019-05-09T06:25:16Z</time>
      </trkpt>
      <trkpt lat="37.312537" lon="-3.123830">
        <ele>931.000000</ele>
        <time>2019-05-09T06:25:18Z</time>
      </trkpt>
      <trkpt lat="37.312553" lon="-3.123832">
        <ele>931.000000</ele>
        <time>2019-05-09T06:25:18Z</time>
      </trkpt>
      <trkpt lat="37.312567" lon="-3.123833">
        <ele>931.000000</ele>
        <time>2019-05-09T06:25:19Z</time>
      </trkpt>
      <trkpt lat="37.312587" lon="-3.123834">
        <ele>931.000000</ele>
        <time>2019-05-09T06:25:20Z</time>
      </trkpt>
      <trkpt lat="37.312600" lon="-3.123835">
        <ele>931.000000</ele>
        <time>2019-05-09T06:25:21Z</time>
      </trkpt>
      <trkpt lat="37.312617" lon="-3.123836">
        <ele>931.000000</ele>
        <time>2019-05-09T06:25:22Z</time>
      </trkpt>
      <trkpt lat="37.312633" lon="-3.123837">
        <ele>931.000000</ele>
        <time>2019-05-09T06:25:23Z</time>
      </trkpt>
      <trkpt lat="37.312652" lon="-3.123838">
        <ele>931.000000</ele>
        <time>2019-05-09T06:25:24Z</time>
      </trkpt>
      <trkpt lat="37.312667" lon="-3.123839">
        <ele>931.000000</ele>
        <time>2019-05-09T06:25:25Z</time>
      </trkpt>
      <trkpt lat="37.312685" lon="-3.123840">
        <ele>931.000000</ele>
        <time>2019-05-09T06:25:26Z</time>
      </trkpt>
      <trkpt lat="37.312700" lon="-3.123841">
        <ele>931.000000</ele>
        <time>2019-05-09T06:25:27Z</time>
      </trkpt>
      <trkpt lat="37.312717" lon="-3.123840">
        <ele>932.000000</ele>
        <time>2019-05-09T06:25:28Z</time>
      </trkpt>
      <trkpt lat="37.312737" lon="-3.123841">
        <ele>932.000000</ele>
        <time>2019-05-09T06:25:29Z</time>
      </trkpt>
      <trkpt lat="37.312750" lon="-3.123842">
        <ele>932.000000</ele>
        <time>2019-05-09T06:25:30Z</time>
      </trkpt>
      <trkpt lat="37.312770" lon="-3.123843">
        <ele>932.000000</ele>
        <time>2019-05-09T06:25:31Z</time>
      </trkpt>
      <trkpt lat="37.312790" lon="-3.123844">
        <ele>932.000000</ele>
        <time>2019-05-09T06:25:32Z</time>
      </trkpt>
      <trkpt lat="37.312808" lon="-3.123847">
        <ele>932.000000</ele>
        <time>2019-05-09T06:25:33Z</time>
      </trkpt>
      <trkpt lat="37.312830" lon="-3.123848">
        <ele>932.000000</ele>
        <time>2019-05-09T06:25:34Z</time>
      </trkpt>
      <trkpt lat="37.312852" lon="-3.123850">
        <ele>932.000000</ele>
        <time>2019-05-09T06:25:35Z</time>
      </trkpt>
      <trkpt lat="37.312872" lon="-3.123851">
        <ele>932.000000</ele>
        <time>2019-05-09T06:25:36Z</time>
      </trkpt>
      <trkpt lat="37.312892" lon="-3.123850">
        <ele>932.000000</ele>
        <time>2019-05-09T06:25:37Z</time>
      </trkpt>
      <trkpt lat="37.312912" lon="-3.123850">
        <ele>932.000000</ele>
        <time>2019-05-09T06:25:38Z</time>
      </trkpt>
      <trkpt lat="37.312930" lon="-3.123848">
        <ele>932.000000</ele>
        <time>2019-05-09T06:25:39Z</time>
      </trkpt>
      <trkpt lat="37.312948" lon="-3.123849">
        <ele>932.000000</ele>
        <time>2019-05-09T06:25:40Z</time>
      </trkpt>
      <trkpt lat="37.312963" lon="-3.123848">
        <ele>932.000000</ele>
        <time>2019-05-09T06:25:41Z</time>
      </trkpt>
      <trkpt lat="37.312973" lon="-3.123846">
        <ele>932.000000</ele>
        <time>2019-05-09T06:25:42Z</time>
      </trkpt>
      <trkpt lat="37.312982" lon="-3.123842">
        <ele>932.000000</ele>
        <time>2019-05-09T06:25:43Z</time>
      </trkpt>
      <trkpt lat="37.312975" lon="-3.123815">
        <ele>932.000000</ele>
        <time>2019-05-09T06:25:52Z</time>
      </trkpt>
      <trkpt lat="37.312975" lon="-3.123818">
        <ele>932.000000</ele>
        <time>2019-05-09T06:25:53Z</time>
      </trkpt>
      <trkpt lat="37.312963" lon="-3.123825">
        <ele>932.000000</ele>
        <time>2019-05-09T06:25:56Z</time>
      </trkpt>
      <trkpt lat="37.312973" lon="-3.123822">
        <ele>932.000000</ele>
        <time>2019-05-09T06:25:57Z</time>
      </trkpt>
      <trkpt lat="37.312993" lon="-3.123787">
        <ele>931.000000</ele>
        <time>2019-05-09T06:26:21Z</time>
      </trkpt>
      <trkpt lat="37.313010" lon="-3.123773">
        <ele>931.000000</ele>
        <time>2019-05-09T06:26:22Z</time>
      </trkpt>
      <trkpt lat="37.313021" lon="-3.123767">
        <ele>931.000000</ele>
        <time>2019-05-09T06:26:23Z</time>
      </trkpt>
      <trkpt lat="37.313050" lon="-3.123758">
        <ele>932.000000</ele>
        <time>2019-05-09T06:26:25Z</time>
      </trkpt>
      <trkpt lat="37.313065" lon="-3.123755">
        <ele>932.000000</ele>
        <time>2019-05-09T06:26:26Z</time>
      </trkpt>
      <trkpt lat="37.313078" lon="-3.123753">
        <ele>932.000000</ele>
        <time>2019-05-09T06:26:27Z</time>
      </trkpt>
      <trkpt lat="37.313095" lon="-3.123752">
        <ele>932.000000</ele>
        <time>2019-05-09T06:26:28Z</time>
      </trkpt>
      <trkpt lat="37.313108" lon="-3.123750">
        <ele>932.000000</ele>
        <time>2019-05-09T06:26:29Z</time>
      </trkpt>
      <trkpt lat="37.313125" lon="-3.123747">
        <ele>933.000000</ele>
        <time>2019-05-09T06:26:30Z</time>
      </trkpt>
      <trkpt lat="37.313140" lon="-3.123743">
        <ele>933.000000</ele>
        <time>2019-05-09T06:26:31Z</time>
      </trkpt>
      <trkpt lat="37.313160" lon="-3.123738">
        <ele>933.000000</ele>
        <time>2019-05-09T06:26:32Z</time>
      </trkpt>
      <trkpt lat="37.313172" lon="-3.123737">
        <ele>933.000000</ele>
        <time>2019-05-09T06:26:33Z</time>
      </trkpt>
      <trkpt lat="37.313190" lon="-3.123736">
        <ele>933.000000</ele>
        <time>2019-05-09T06:26:34Z</time>
      </trkpt>
      <trkpt lat="37.313202" lon="-3.123735">
        <ele>933.000000</ele>
        <time>2019-05-09T06:26:35Z</time>
      </trkpt>
      <trkpt lat="37.313218" lon="-3.123733">
        <ele>934.000000</ele>
        <time>2019-05-09T06:26:36Z</time>
      </trkpt>
      <trkpt lat="37.313232" lon="-3.123731">
        <ele>934.000000</ele>
        <time>2019-05-09T06:26:37Z</time>
      </trkpt>
      <trkpt lat="37.313245" lon="-3.123730">
        <ele>934.000000</ele>
        <time>2019-05-09T06:26:38Z</time>
      </trkpt>
      <trkpt lat="37.313268" lon="-3.123729">
        <ele>934.000000</ele>
        <time>2019-05-09T06:26:39Z</time>
      </trkpt>
      <trkpt lat="37.313283" lon="-3.123728">
        <ele>934.000000</ele>
        <time>2019-05-09T06:26:40Z</time>
      </trkpt>
      <trkpt lat="37.313300" lon="-3.123727">
        <ele>934.000000</ele>
        <time>2019-05-09T06:26:41Z</time>
      </trkpt>
      <trkpt lat="37.313320" lon="-3.123726">
        <ele>934.000000</ele>
        <time>2019-05-09T06:26:42Z</time>
      </trkpt>
      <trkpt lat="37.313332" lon="-3.123726">
        <ele>934.000000</ele>
        <time>2019-05-09T06:26:43Z</time>
      </trkpt>
      <trkpt lat="37.313350" lon="-3.123726">
        <ele>934.000000</ele>
        <time>2019-05-09T06:26:44Z</time>
      </trkpt>
      <trkpt lat="37.313368" lon="-3.123726">
        <ele>934.000000</ele>
        <time>2019-05-09T06:26:45Z</time>
      </trkpt>
      <trkpt lat="37.313385" lon="-3.123725">
        <ele>935.000000</ele>
        <time>2019-05-09T06:26:46Z</time>
      </trkpt>
      <trkpt lat="37.313398" lon="-3.123724">
        <ele>935.000000</ele>
        <time>2019-05-09T06:26:47Z</time>
      </trkpt>
      <trkpt lat="37.313418" lon="-3.123722">
        <ele>935.000000</ele>
        <time>2019-05-09T06:26:48Z</time>
      </trkpt>
      <trkpt lat="37.313435" lon="-3.123719">
        <ele>935.000000</ele>
        <time>2019-05-09T06:26:49Z</time>
      </trkpt>
      <trkpt lat="37.313450" lon="-3.123716">
        <ele>935.000000</ele>
        <time>2019-05-09T06:26:50Z</time>
      </trkpt>
      <trkpt lat="37.313463" lon="-3.123713">
        <ele>936.000000</ele>
        <time>2019-05-09T06:26:51Z</time>
      </trkpt>
      <trkpt lat="37.313482" lon="-3.123710">
        <ele>936.000000</ele>
        <time>2019-05-09T06:26:52Z</time>
      </trkpt>
      <trkpt lat="37.313498" lon="-3.123707">
        <ele>936.000000</ele>
        <time>2019-05-09T06:26:53Z</time>
      </trkpt>
      <trkpt lat="37.313517" lon="-3.123703">
        <ele>936.000000</ele>
        <time>2019-05-09T06:26:54Z</time>
      </trkpt>
      <trkpt lat="37.313530" lon="-3.123699">
        <ele>936.000000</ele>
        <time>2019-05-09T06:26:55Z</time>
      </trkpt>
      <trkpt lat="37.313548" lon="-3.123694">
        <ele>936.000000</ele>
        <time>2019-05-09T06:26:56Z</time>
      </trkpt>
      <trkpt lat="37.313567" lon="-3.123688">
        <ele>936.000000</ele>
        <time>2019-05-09T06:26:57Z</time>
      </trkpt>
      <trkpt lat="37.313583" lon="-3.123682">
        <ele>936.000000</ele>
        <time>2019-05-09T06:26:58Z</time>
      </trkpt>
      <trkpt lat="37.313593" lon="-3.123677">
        <ele>936.000000</ele>
        <time>2019-05-09T06:26:59Z</time>
      </trkpt>
      <trkpt lat="37.313612" lon="-3.123671">
        <ele>936.000000</ele>
        <time>2019-05-09T06:27:00Z</time>
      </trkpt>
      <trkpt lat="37.313630" lon="-3.123663">
        <ele>936.000000</ele>
        <time>2019-05-09T06:27:01Z</time>
      </trkpt>
      <trkpt lat="37.313642" lon="-3.123658">
        <ele>936.000000</ele>
        <time>2019-05-09T06:27:02Z</time>
      </trkpt>
      <trkpt lat="37.313657" lon="-3.123651">
        <ele>936.000000</ele>
        <time>2019-05-09T06:27:03Z</time>
      </trkpt>
      <trkpt lat="37.313673" lon="-3.123645">
        <ele>936.000000</ele>
        <time>2019-05-09T06:27:04Z</time>
      </trkpt>
      <trkpt lat="37.313690" lon="-3.123638">
        <ele>936.000000</ele>
        <time>2019-05-09T06:27:05Z</time>
      </trkpt>
      <trkpt lat="37.313707" lon="-3.123631">
        <ele>936.000000</ele>
        <time>2019-05-09T06:27:06Z</time>
      </trkpt>
      <trkpt lat="37.313727" lon="-3.123623">
        <ele>936.000000</ele>
        <time>2019-05-09T06:27:07Z</time>
      </trkpt>
      <trkpt lat="37.313743" lon="-3.123616">
        <ele>936.000000</ele>
        <time>2019-05-09T06:27:08Z</time>
      </trkpt>
      <trkpt lat="37.313758" lon="-3.123611">
        <ele>936.000000</ele>
        <time>2019-05-09T06:27:09Z</time>
      </trkpt>
      <trkpt lat="37.313773" lon="-3.123604">
        <ele>936.000000</ele>
        <time>2019-05-09T06:27:11Z</time>
      </trkpt>
      <trkpt lat="37.313787" lon="-3.123598">
        <ele>936.000000</ele>
        <time>2019-05-09T06:27:11Z</time>
      </trkpt>
      <trkpt lat="37.313798" lon="-3.123593">
        <ele>936.000000</ele>
        <time>2019-05-09T06:27:12Z</time>
      </trkpt>
      <trkpt lat="37.313815" lon="-3.123587">
        <ele>936.000000</ele>
        <time>2019-05-09T06:27:13Z</time>
      </trkpt>
      <trkpt lat="37.313830" lon="-3.123581">
        <ele>936.000000</ele>
        <time>2019-05-09T06:27:14Z</time>
      </trkpt>
      <trkpt lat="37.313842" lon="-3.123576">
        <ele>936.000000</ele>
        <time>2019-05-09T06:27:15Z</time>
      </trkpt>
      <trkpt lat="37.313860" lon="-3.123569">
        <ele>936.000000</ele>
        <time>2019-05-09T06:27:16Z</time>
      </trkpt>
      <trkpt lat="37.313872" lon="-3.123564">
        <ele>936.000000</ele>
        <time>2019-05-09T06:27:17Z</time>
      </trkpt>
      <trkpt lat="37.313890" lon="-3.123559">
        <ele>936.000000</ele>
        <time>2019-05-09T06:27:18Z</time>
      </trkpt>
      <trkpt lat="37.313902" lon="-3.123553">
        <ele>936.000000</ele>
        <time>2019-05-09T06:27:19Z</time>
      </trkpt>
      <trkpt lat="37.313918" lon="-3.123547">
        <ele>937.000000</ele>
        <time>2019-05-09T06:27:20Z</time>
      </trkpt>
      <trkpt lat="37.313937" lon="-3.123539">
        <ele>937.000000</ele>
        <time>2019-05-09T06:27:21Z</time>
      </trkpt>
      <trkpt lat="37.313955" lon="-3.123531">
        <ele>937.000000</ele>
        <time>2019-05-09T06:27:22Z</time>
      </trkpt>
      <trkpt lat="37.313972" lon="-3.123525">
        <ele>937.000000</ele>
        <time>2019-05-09T06:27:23Z</time>
      </trkpt>
      <trkpt lat="37.313985" lon="-3.123520">
        <ele>937.000000</ele>
        <time>2019-05-09T06:27:24Z</time>
      </trkpt>
      <trkpt lat="37.314003" lon="-3.123513">
        <ele>937.000000</ele>
        <time>2019-05-09T06:27:25Z</time>
      </trkpt>
      <trkpt lat="37.314020" lon="-3.123506">
        <ele>937.000000</ele>
        <time>2019-05-09T06:27:26Z</time>
      </trkpt>
      <trkpt lat="37.314042" lon="-3.123500">
        <ele>937.000000</ele>
        <time>2019-05-09T06:27:27Z</time>
      </trkpt>
      <trkpt lat="37.314057" lon="-3.123494">
        <ele>937.000000</ele>
        <time>2019-05-09T06:27:28Z</time>
      </trkpt>
      <trkpt lat="37.314075" lon="-3.123487">
        <ele>937.000000</ele>
        <time>2019-05-09T06:27:29Z</time>
      </trkpt>
      <trkpt lat="37.314088" lon="-3.123483">
        <ele>937.000000</ele>
        <time>2019-05-09T06:27:30Z</time>
      </trkpt>
      <trkpt lat="37.314107" lon="-3.123478">
        <ele>937.000000</ele>
        <time>2019-05-09T06:27:31Z</time>
      </trkpt>
      <trkpt lat="37.314123" lon="-3.123473">
        <ele>937.000000</ele>
        <time>2019-05-09T06:27:32Z</time>
      </trkpt>
      <trkpt lat="37.314142" lon="-3.123467">
        <ele>937.000000</ele>
        <time>2019-05-09T06:27:33Z</time>
      </trkpt>
      <trkpt lat="37.314158" lon="-3.123464">
        <ele>937.000000</ele>
        <time>2019-05-09T06:27:34Z</time>
      </trkpt>
      <trkpt lat="37.314175" lon="-3.123458">
        <ele>937.000000</ele>
        <time>2019-05-09T06:27:35Z</time>
      </trkpt>
      <trkpt lat="37.314190" lon="-3.123453">
        <ele>937.000000</ele>
        <time>2019-05-09T06:27:36Z</time>
      </trkpt>
      <trkpt lat="37.314208" lon="-3.123448">
        <ele>937.000000</ele>
        <time>2019-05-09T06:27:37Z</time>
      </trkpt>
      <trkpt lat="37.314227" lon="-3.123442">
        <ele>937.000000</ele>
        <time>2019-05-09T06:27:38Z</time>
      </trkpt>
      <trkpt lat="37.314238" lon="-3.123438">
        <ele>937.000000</ele>
        <time>2019-05-09T06:27:39Z</time>
      </trkpt>
      <trkpt lat="37.314252" lon="-3.123432">
        <ele>937.000000</ele>
        <time>2019-05-09T06:27:40Z</time>
      </trkpt>
      <trkpt lat="37.314270" lon="-3.123425">
        <ele>937.000000</ele>
        <time>2019-05-09T06:27:41Z</time>
      </trkpt>
      <trkpt lat="37.314283" lon="-3.123420">
        <ele>937.000000</ele>
        <time>2019-05-09T06:27:42Z</time>
      </trkpt>
      <trkpt lat="37.314303" lon="-3.123412">
        <ele>937.000000</ele>
        <time>2019-05-09T06:27:43Z</time>
      </trkpt>
      <trkpt lat="37.314320" lon="-3.123406">
        <ele>937.000000</ele>
        <time>2019-05-09T06:27:44Z</time>
      </trkpt>
      <trkpt lat="37.314337" lon="-3.123400">
        <ele>937.000000</ele>
        <time>2019-05-09T06:27:45Z</time>
      </trkpt>
      <trkpt lat="37.314350" lon="-3.123395">
        <ele>937.000000</ele>
        <time>2019-05-09T06:27:46Z</time>
      </trkpt>
      <trkpt lat="37.314370" lon="-3.123388">
        <ele>938.000000</ele>
        <time>2019-05-09T06:27:47Z</time>
      </trkpt>
      <trkpt lat="37.314382" lon="-3.123383">
        <ele>938.000000</ele>
        <time>2019-05-09T06:27:48Z</time>
      </trkpt>
      <trkpt lat="37.314398" lon="-3.123375">
        <ele>938.000000</ele>
        <time>2019-05-09T06:27:49Z</time>
      </trkpt>
      <trkpt lat="37.314410" lon="-3.123371">
        <ele>938.000000</ele>
        <time>2019-05-09T06:27:50Z</time>
      </trkpt>
      <trkpt lat="37.314423" lon="-3.123365">
        <ele>938.000000</ele>
        <time>2019-05-09T06:27:51Z</time>
      </trkpt>
      <trkpt lat="37.314440" lon="-3.123357">
        <ele>938.000000</ele>
        <time>2019-05-09T06:27:52Z</time>
      </trkpt>
      <trkpt lat="37.314457" lon="-3.123351">
        <ele>938.000000</ele>
        <time>2019-05-09T06:27:53Z</time>
      </trkpt>
      <trkpt lat="37.314472" lon="-3.123342">
        <ele>938.000000</ele>
        <time>2019-05-09T06:27:54Z</time>
      </trkpt>
      <trkpt lat="37.314490" lon="-3.123334">
        <ele>938.000000</ele>
        <time>2019-05-09T06:27:55Z</time>
      </trkpt>
      <trkpt lat="37.314503" lon="-3.123328">
        <ele>938.000000</ele>
        <time>2019-05-09T06:27:56Z</time>
      </trkpt>
      <trkpt lat="37.314515" lon="-3.123322">
        <ele>938.000000</ele>
        <time>2019-05-09T06:27:57Z</time>
      </trkpt>
      <trkpt lat="37.314527" lon="-3.123316">
        <ele>938.000000</ele>
        <time>2019-05-09T06:27:58Z</time>
      </trkpt>
      <trkpt lat="37.314542" lon="-3.123308">
        <ele>938.000000</ele>
        <time>2019-05-09T06:27:59Z</time>
      </trkpt>
      <trkpt lat="37.314560" lon="-3.123299">
        <ele>939.000000</ele>
        <time>2019-05-09T06:28:00Z</time>
      </trkpt>
      <trkpt lat="37.314570" lon="-3.123294">
        <ele>939.000000</ele>
        <time>2019-05-09T06:28:01Z</time>
      </trkpt>
      <trkpt lat="37.314588" lon="-3.123286">
        <ele>939.000000</ele>
        <time>2019-05-09T06:28:02Z</time>
      </trkpt>
      <trkpt lat="37.314605" lon="-3.123278">
        <ele>939.000000</ele>
        <time>2019-05-09T06:28:03Z</time>
      </trkpt>
      <trkpt lat="37.314618" lon="-3.123272">
        <ele>939.000000</ele>
        <time>2019-05-09T06:28:04Z</time>
      </trkpt>
      <trkpt lat="37.314632" lon="-3.123264">
        <ele>939.000000</ele>
        <time>2019-05-09T06:28:05Z</time>
      </trkpt>
      <trkpt lat="37.314647" lon="-3.123257">
        <ele>939.000000</ele>
        <time>2019-05-09T06:28:06Z</time>
      </trkpt>
      <trkpt lat="37.314662" lon="-3.123250">
        <ele>939.000000</ele>
        <time>2019-05-09T06:28:07Z</time>
      </trkpt>
      <trkpt lat="37.314678" lon="-3.123242">
        <ele>939.000000</ele>
        <time>2019-05-09T06:28:08Z</time>
      </trkpt>
      <trkpt lat="37.314697" lon="-3.123233">
        <ele>939.000000</ele>
        <time>2019-05-09T06:28:09Z</time>
      </trkpt>
      <trkpt lat="37.314713" lon="-3.123225">
        <ele>939.000000</ele>
        <time>2019-05-09T06:28:10Z</time>
      </trkpt>
      <trkpt lat="37.314728" lon="-3.123219">
        <ele>939.000000</ele>
        <time>2019-05-09T06:28:11Z</time>
      </trkpt>
      <trkpt lat="37.314740" lon="-3.123213">
        <ele>939.000000</ele>
        <time>2019-05-09T06:28:12Z</time>
      </trkpt>
      <trkpt lat="37.314758" lon="-3.123206">
        <ele>939.000000</ele>
        <time>2019-05-09T06:28:13Z</time>
      </trkpt>
      <trkpt lat="37.314778" lon="-3.123198">
        <ele>939.000000</ele>
        <time>2019-05-09T06:28:14Z</time>
      </trkpt>
      <trkpt lat="37.314793" lon="-3.123190">
        <ele>939.000000</ele>
        <time>2019-05-09T06:28:16Z</time>
      </trkpt>
      <trkpt lat="37.314810" lon="-3.123183">
        <ele>939.000000</ele>
        <time>2019-05-09T06:28:16Z</time>
      </trkpt>
      <trkpt lat="37.314828" lon="-3.123176">
        <ele>939.000000</ele>
        <time>2019-05-09T06:28:17Z</time>
      </trkpt>
      <trkpt lat="37.314840" lon="-3.123171">
        <ele>939.000000</ele>
        <time>2019-05-09T06:28:18Z</time>
      </trkpt>
      <trkpt lat="37.314857" lon="-3.123165">
        <ele>939.000000</ele>
        <time>2019-05-09T06:28:19Z</time>
      </trkpt>
      <trkpt lat="37.314872" lon="-3.123159">
        <ele>939.000000</ele>
        <time>2019-05-09T06:28:20Z</time>
      </trkpt>
      <trkpt lat="37.314890" lon="-3.123152">
        <ele>939.000000</ele>
        <time>2019-05-09T06:28:21Z</time>
      </trkpt>
      <trkpt lat="37.314903" lon="-3.123147">
        <ele>939.000000</ele>
        <time>2019-05-09T06:28:22Z</time>
      </trkpt>
      <trkpt lat="37.314913" lon="-3.123144">
        <ele>940.000000</ele>
        <time>2019-05-09T06:28:23Z</time>
      </trkpt>
      <trkpt lat="37.314932" lon="-3.123137">
        <ele>940.000000</ele>
        <time>2019-05-09T06:28:24Z</time>
      </trkpt>
      <trkpt lat="37.314938" lon="-3.123136">
        <ele>940.000000</ele>
        <time>2019-05-09T06:28:25Z</time>
      </trkpt>
      <trkpt lat="37.314960" lon="-3.123127">
        <ele>940.000000</ele>
        <time>2019-05-09T06:28:26Z</time>
      </trkpt>
      <trkpt lat="37.314968" lon="-3.123125">
        <ele>940.000000</ele>
        <time>2019-05-09T06:28:27Z</time>
      </trkpt>
      <trkpt lat="37.314978" lon="-3.123120">
        <ele>940.000000</ele>
        <time>2019-05-09T06:28:28Z</time>
      </trkpt>
      <trkpt lat="37.314995" lon="-3.123113">
        <ele>940.000000</ele>
        <time>2019-05-09T06:28:29Z</time>
      </trkpt>
      <trkpt lat="37.315010" lon="-3.123107">
        <ele>940.000000</ele>
        <time>2019-05-09T06:28:30Z</time>
      </trkpt>
      <trkpt lat="37.315020" lon="-3.123103">
        <ele>940.000000</ele>
        <time>2019-05-09T06:28:31Z</time>
      </trkpt>
      <trkpt lat="37.315035" lon="-3.123097">
        <ele>940.000000</ele>
        <time>2019-05-09T06:28:32Z</time>
      </trkpt>
      <trkpt lat="37.315053" lon="-3.123089">
        <ele>940.000000</ele>
        <time>2019-05-09T06:28:33Z</time>
      </trkpt>
      <trkpt lat="37.315067" lon="-3.123085">
        <ele>940.000000</ele>
        <time>2019-05-09T06:28:34Z</time>
      </trkpt>
      <trkpt lat="37.315082" lon="-3.123079">
        <ele>940.000000</ele>
        <time>2019-05-09T06:28:35Z</time>
      </trkpt>
      <trkpt lat="37.315098" lon="-3.123072">
        <ele>940.000000</ele>
        <time>2019-05-09T06:28:36Z</time>
      </trkpt>
      <trkpt lat="37.315112" lon="-3.123067">
        <ele>940.000000</ele>
        <time>2019-05-09T06:28:37Z</time>
      </trkpt>
      <trkpt lat="37.315133" lon="-3.123058">
        <ele>940.000000</ele>
        <time>2019-05-09T06:28:38Z</time>
      </trkpt>
      <trkpt lat="37.315148" lon="-3.123052">
        <ele>940.000000</ele>
        <time>2019-05-09T06:28:39Z</time>
      </trkpt>
      <trkpt lat="37.315165" lon="-3.123045">
        <ele>940.000000</ele>
        <time>2019-05-09T06:28:40Z</time>
      </trkpt>
      <trkpt lat="37.315177" lon="-3.123040">
        <ele>940.000000</ele>
        <time>2019-05-09T06:28:41Z</time>
      </trkpt>
      <trkpt lat="37.315197" lon="-3.123034">
        <ele>940.000000</ele>
        <time>2019-05-09T06:28:42Z</time>
      </trkpt>
      <trkpt lat="37.315212" lon="-3.123028">
        <ele>940.000000</ele>
        <time>2019-05-09T06:28:43Z</time>
      </trkpt>
      <trkpt lat="37.315223" lon="-3.123023">
        <ele>940.000000</ele>
        <time>2019-05-09T06:28:44Z</time>
      </trkpt>
      <trkpt lat="37.315238" lon="-3.123017">
        <ele>940.000000</ele>
        <time>2019-05-09T06:28:45Z</time>
      </trkpt>
      <trkpt lat="37.315250" lon="-3.123012">
        <ele>940.000000</ele>
        <time>2019-05-09T06:28:47Z</time>
      </trkpt>
      <trkpt lat="37.315262" lon="-3.123008">
        <ele>940.000000</ele>
        <time>2019-05-09T06:28:47Z</time>
      </trkpt>
      <trkpt lat="37.315275" lon="-3.123004">
        <ele>940.000000</ele>
        <time>2019-05-09T06:28:48Z</time>
      </trkpt>
      <trkpt lat="37.315293" lon="-3.122997">
        <ele>940.000000</ele>
        <time>2019-05-09T06:28:49Z</time>
      </trkpt>
      <trkpt lat="37.315307" lon="-3.122994">
        <ele>940.000000</ele>
        <time>2019-05-09T06:28:50Z</time>
      </trkpt>
      <trkpt lat="37.315322" lon="-3.122988">
        <ele>940.000000</ele>
        <time>2019-05-09T06:28:51Z</time>
      </trkpt>
      <trkpt lat="37.315335" lon="-3.122984">
        <ele>940.000000</ele>
        <time>2019-05-09T06:28:52Z</time>
      </trkpt>
      <trkpt lat="37.315352" lon="-3.122979">
        <ele>940.000000</ele>
        <time>2019-05-09T06:28:53Z</time>
      </trkpt>
      <trkpt lat="37.315360" lon="-3.122977">
        <ele>940.000000</ele>
        <time>2019-05-09T06:28:54Z</time>
      </trkpt>
      <trkpt lat="37.315375" lon="-3.122972">
        <ele>940.000000</ele>
        <time>2019-05-09T06:28:55Z</time>
      </trkpt>
      <trkpt lat="37.315385" lon="-3.122969">
        <ele>940.000000</ele>
        <time>2019-05-09T06:28:56Z</time>
      </trkpt>
      <trkpt lat="37.315402" lon="-3.122964">
        <ele>940.000000</ele>
        <time>2019-05-09T06:28:57Z</time>
      </trkpt>
      <trkpt lat="37.315418" lon="-3.122958">
        <ele>940.000000</ele>
        <time>2019-05-09T06:28:58Z</time>
      </trkpt>
      <trkpt lat="37.315440" lon="-3.122951">
        <ele>940.000000</ele>
        <time>2019-05-09T06:28:59Z</time>
      </trkpt>
      <trkpt lat="37.315452" lon="-3.122947">
        <ele>940.000000</ele>
        <time>2019-05-09T06:29:00Z</time>
      </trkpt>
      <trkpt lat="37.315467" lon="-3.122943">
        <ele>941.000000</ele>
        <time>2019-05-09T06:29:01Z</time>
      </trkpt>
      <trkpt lat="37.315480" lon="-3.122939">
        <ele>941.000000</ele>
        <time>2019-05-09T06:29:02Z</time>
      </trkpt>
      <trkpt lat="37.315498" lon="-3.122934">
        <ele>941.000000</ele>
        <time>2019-05-09T06:29:03Z</time>
      </trkpt>
      <trkpt lat="37.315515" lon="-3.122930">
        <ele>941.000000</ele>
        <time>2019-05-09T06:29:04Z</time>
      </trkpt>
      <trkpt lat="37.315528" lon="-3.122926">
        <ele>941.000000</ele>
        <time>2019-05-09T06:29:05Z</time>
      </trkpt>
      <trkpt lat="37.315542" lon="-3.122923">
        <ele>941.000000</ele>
        <time>2019-05-09T06:29:06Z</time>
      </trkpt>
      <trkpt lat="37.315557" lon="-3.122919">
        <ele>941.000000</ele>
        <time>2019-05-09T06:29:07Z</time>
      </trkpt>
      <trkpt lat="37.315573" lon="-3.122913">
        <ele>941.000000</ele>
        <time>2019-05-09T06:29:08Z</time>
      </trkpt>
      <trkpt lat="37.315588" lon="-3.122909">
        <ele>941.000000</ele>
        <time>2019-05-09T06:29:09Z</time>
      </trkpt>
      <trkpt lat="37.315608" lon="-3.122904">
        <ele>941.000000</ele>
        <time>2019-05-09T06:29:10Z</time>
      </trkpt>
      <trkpt lat="37.315622" lon="-3.122901">
        <ele>941.000000</ele>
        <time>2019-05-09T06:29:11Z</time>
      </trkpt>
      <trkpt lat="37.315645" lon="-3.122895">
        <ele>941.000000</ele>
        <time>2019-05-09T06:29:12Z</time>
      </trkpt>
      <trkpt lat="37.315662" lon="-3.122892">
        <ele>941.000000</ele>
        <time>2019-05-09T06:29:13Z</time>
      </trkpt>
      <trkpt lat="37.315678" lon="-3.122889">
        <ele>941.000000</ele>
        <time>2019-05-09T06:29:14Z</time>
      </trkpt>
      <trkpt lat="37.315692" lon="-3.122887">
        <ele>941.000000</ele>
        <time>2019-05-09T06:29:15Z</time>
      </trkpt>
      <trkpt lat="37.315702" lon="-3.122886">
        <ele>941.000000</ele>
        <time>2019-05-09T06:29:16Z</time>
      </trkpt>
      <trkpt lat="37.315718" lon="-3.122882">
        <ele>941.000000</ele>
        <time>2019-05-09T06:29:17Z</time>
      </trkpt>
      <trkpt lat="37.315735" lon="-3.122880">
        <ele>941.000000</ele>
        <time>2019-05-09T06:29:18Z</time>
      </trkpt>
      <trkpt lat="37.315753" lon="-3.122876">
        <ele>941.000000</ele>
        <time>2019-05-09T06:29:19Z</time>
      </trkpt>
      <trkpt lat="37.315770" lon="-3.122873">
        <ele>942.000000</ele>
        <time>2019-05-09T06:29:20Z</time>
      </trkpt>
      <trkpt lat="37.315785" lon="-3.122870">
        <ele>942.000000</ele>
        <time>2019-05-09T06:29:21Z</time>
      </trkpt>
      <trkpt lat="37.315802" lon="-3.122869">
        <ele>942.000000</ele>
        <time>2019-05-09T06:29:22Z</time>
      </trkpt>
      <trkpt lat="37.315818" lon="-3.122865">
        <ele>942.000000</ele>
        <time>2019-05-09T06:29:23Z</time>
      </trkpt>
      <trkpt lat="37.315830" lon="-3.122865">
        <ele>942.000000</ele>
        <time>2019-05-09T06:29:24Z</time>
      </trkpt>
      <trkpt lat="37.315847" lon="-3.122862">
        <ele>942.000000</ele>
        <time>2019-05-09T06:29:25Z</time>
      </trkpt>
      <trkpt lat="37.315862" lon="-3.122860">
        <ele>942.000000</ele>
        <time>2019-05-09T06:29:26Z</time>
      </trkpt>
      <trkpt lat="37.315877" lon="-3.122857">
        <ele>942.000000</ele>
        <time>2019-05-09T06:29:27Z</time>
      </trkpt>
      <trkpt lat="37.315892" lon="-3.122855">
        <ele>942.000000</ele>
        <time>2019-05-09T06:29:28Z</time>
      </trkpt>
      <trkpt lat="37.315903" lon="-3.122854">
        <ele>942.000000</ele>
        <time>2019-05-09T06:29:29Z</time>
      </trkpt>
      <trkpt lat="37.315920" lon="-3.122849">
        <ele>942.000000</ele>
        <time>2019-05-09T06:29:30Z</time>
      </trkpt>
      <trkpt lat="37.315932" lon="-3.122846">
        <ele>942.000000</ele>
        <time>2019-05-09T06:29:30Z</time>
      </trkpt>
      <trkpt lat="37.315948" lon="-3.122842">
        <ele>942.000000</ele>
        <time>2019-05-09T06:29:31Z</time>
      </trkpt>
      <trkpt lat="37.315960" lon="-3.122837">
        <ele>942.000000</ele>
        <time>2019-05-09T06:29:32Z</time>
      </trkpt>
      <trkpt lat="37.315973" lon="-3.122833">
        <ele>942.000000</ele>
        <time>2019-05-09T06:29:33Z</time>
      </trkpt>
      <trkpt lat="37.315988" lon="-3.122828">
        <ele>942.000000</ele>
        <time>2019-05-09T06:29:34Z</time>
      </trkpt>
      <trkpt lat="37.316003" lon="-3.122824">
        <ele>942.000000</ele>
        <time>2019-05-09T06:29:35Z</time>
      </trkpt>
      <trkpt lat="37.316022" lon="-3.122819">
        <ele>942.000000</ele>
        <time>2019-05-09T06:29:36Z</time>
      </trkpt>
      <trkpt lat="37.316032" lon="-3.122816">
        <ele>942.000000</ele>
        <time>2019-05-09T06:29:37Z</time>
      </trkpt>
      <trkpt lat="37.316045" lon="-3.122812">
        <ele>942.000000</ele>
        <time>2019-05-09T06:29:38Z</time>
      </trkpt>
      <trkpt lat="37.316060" lon="-3.122808">
        <ele>942.000000</ele>
        <time>2019-05-09T06:29:39Z</time>
      </trkpt>
      <trkpt lat="37.316078" lon="-3.122803">
        <ele>942.000000</ele>
        <time>2019-05-09T06:29:40Z</time>
      </trkpt>
      <trkpt lat="37.316093" lon="-3.122799">
        <ele>942.000000</ele>
        <time>2019-05-09T06:29:41Z</time>
      </trkpt>
      <trkpt lat="37.316107" lon="-3.122796">
        <ele>942.000000</ele>
        <time>2019-05-09T06:29:42Z</time>
      </trkpt>
      <trkpt lat="37.316120" lon="-3.122790">
        <ele>942.000000</ele>
        <time>2019-05-09T06:29:43Z</time>
      </trkpt>
      <trkpt lat="37.316130" lon="-3.122787">
        <ele>942.000000</ele>
        <time>2019-05-09T06:29:44Z</time>
      </trkpt>
      <trkpt lat="37.316147" lon="-3.122783">
        <ele>942.000000</ele>
        <time>2019-05-09T06:29:45Z</time>
      </trkpt>
      <trkpt lat="37.316163" lon="-3.122777">
        <ele>942.000000</ele>
        <time>2019-05-09T06:29:46Z</time>
      </trkpt>
      <trkpt lat="37.316182" lon="-3.122771">
        <ele>942.000000</ele>
        <time>2019-05-09T06:29:47Z</time>
      </trkpt>
      <trkpt lat="37.316200" lon="-3.122766">
        <ele>942.000000</ele>
        <time>2019-05-09T06:29:48Z</time>
      </trkpt>
      <trkpt lat="37.316217" lon="-3.122760">
        <ele>943.000000</ele>
        <time>2019-05-09T06:29:49Z</time>
      </trkpt>
      <trkpt lat="37.316237" lon="-3.122754">
        <ele>943.000000</ele>
        <time>2019-05-09T06:29:50Z</time>
      </trkpt>
      <trkpt lat="37.316255" lon="-3.122748">
        <ele>943.000000</ele>
        <time>2019-05-09T06:29:51Z</time>
      </trkpt>
      <trkpt lat="37.316272" lon="-3.122742">
        <ele>943.000000</ele>
        <time>2019-05-09T06:29:52Z</time>
      </trkpt>
      <trkpt lat="37.316285" lon="-3.122737">
        <ele>943.000000</ele>
        <time>2019-05-09T06:29:53Z</time>
      </trkpt>
      <trkpt lat="37.316298" lon="-3.122732">
        <ele>943.000000</ele>
        <time>2019-05-09T06:29:54Z</time>
      </trkpt>
      <trkpt lat="37.316312" lon="-3.122727">
        <ele>943.000000</ele>
        <time>2019-05-09T06:29:55Z</time>
      </trkpt>
      <trkpt lat="37.316325" lon="-3.122721">
        <ele>944.000000</ele>
        <time>2019-05-09T06:29:56Z</time>
      </trkpt>
      <trkpt lat="37.316337" lon="-3.122717">
        <ele>944.000000</ele>
        <time>2019-05-09T06:29:57Z</time>
      </trkpt>
      <trkpt lat="37.316352" lon="-3.122710">
        <ele>944.000000</ele>
        <time>2019-05-09T06:29:58Z</time>
      </trkpt>
      <trkpt lat="37.316367" lon="-3.122704">
        <ele>944.000000</ele>
        <time>2019-05-09T06:29:59Z</time>
      </trkpt>
      <trkpt lat="37.316375" lon="-3.122700">
        <ele>944.000000</ele>
        <time>2019-05-09T06:30:00Z</time>
      </trkpt>
      <trkpt lat="37.316395" lon="-3.122693">
        <ele>944.000000</ele>
        <time>2019-05-09T06:30:01Z</time>
      </trkpt>
      <trkpt lat="37.316407" lon="-3.122688">
        <ele>944.000000</ele>
        <time>2019-05-09T06:30:02Z</time>
      </trkpt>
      <trkpt lat="37.316422" lon="-3.122683">
        <ele>944.000000</ele>
        <time>2019-05-09T06:30:03Z</time>
      </trkpt>
      <trkpt lat="37.316442" lon="-3.122675">
        <ele>945.000000</ele>
        <time>2019-05-09T06:30:04Z</time>
      </trkpt>
      <trkpt lat="37.316458" lon="-3.122670">
        <ele>945.000000</ele>
        <time>2019-05-09T06:30:05Z</time>
      </trkpt>
      <trkpt lat="37.316477" lon="-3.122663">
        <ele>945.000000</ele>
        <time>2019-05-09T06:30:06Z</time>
      </trkpt>
      <trkpt lat="37.316493" lon="-3.122657">
        <ele>945.000000</ele>
        <time>2019-05-09T06:30:07Z</time>
      </trkpt>
      <trkpt lat="37.316507" lon="-3.122651">
        <ele>945.000000</ele>
        <time>2019-05-09T06:30:08Z</time>
      </trkpt>
      <trkpt lat="37.316525" lon="-3.122643">
        <ele>945.000000</ele>
        <time>2019-05-09T06:30:09Z</time>
      </trkpt>
      <trkpt lat="37.316545" lon="-3.122635">
        <ele>946.000000</ele>
        <time>2019-05-09T06:30:10Z</time>
      </trkpt>
      <trkpt lat="37.316558" lon="-3.122630">
        <ele>946.000000</ele>
        <time>2019-05-09T06:30:11Z</time>
      </trkpt>
      <trkpt lat="37.316570" lon="-3.122624">
        <ele>946.000000</ele>
        <time>2019-05-09T06:30:12Z</time>
      </trkpt>
      <trkpt lat="37.316587" lon="-3.122616">
        <ele>946.000000</ele>
        <time>2019-05-09T06:30:13Z</time>
      </trkpt>
      <trkpt lat="37.316602" lon="-3.122609">
        <ele>946.000000</ele>
        <time>2019-05-09T06:30:14Z</time>
      </trkpt>
      <trkpt lat="37.316615" lon="-3.122602">
        <ele>946.000000</ele>
        <time>2019-05-09T06:30:15Z</time>
      </trkpt>
      <trkpt lat="37.316628" lon="-3.122595">
        <ele>946.000000</ele>
        <time>2019-05-09T06:30:16Z</time>
      </trkpt>
      <trkpt lat="37.316640" lon="-3.122591">
        <ele>946.000000</ele>
        <time>2019-05-09T06:30:17Z</time>
      </trkpt>
      <trkpt lat="37.316655" lon="-3.122584">
        <ele>946.000000</ele>
        <time>2019-05-09T06:30:18Z</time>
      </trkpt>
      <trkpt lat="37.316670" lon="-3.122578">
        <ele>946.000000</ele>
        <time>2019-05-09T06:30:19Z</time>
      </trkpt>
      <trkpt lat="37.316687" lon="-3.122573">
        <ele>946.000000</ele>
        <time>2019-05-09T06:30:20Z</time>
      </trkpt>
      <trkpt lat="37.316698" lon="-3.122582">
        <ele>946.000000</ele>
        <time>2019-05-09T06:30:21Z</time>
      </trkpt>
      <trkpt lat="37.316712" lon="-3.122587">
        <ele>946.000000</ele>
        <time>2019-05-09T06:30:22Z</time>
      </trkpt>
      <trkpt lat="37.316728" lon="-3.122588">
        <ele>946.000000</ele>
        <time>2019-05-09T06:30:23Z</time>
      </trkpt>
      <trkpt lat="37.316745" lon="-3.122591">
        <ele>946.000000</ele>
        <time>2019-05-09T06:30:24Z</time>
      </trkpt>
      <trkpt lat="37.316762" lon="-3.122598">
        <ele>946.000000</ele>
        <time>2019-05-09T06:30:25Z</time>
      </trkpt>
      <trkpt lat="37.316773" lon="-3.122603">
        <ele>946.000000</ele>
        <time>2019-05-09T06:30:26Z</time>
      </trkpt>
      <trkpt lat="37.316793" lon="-3.122609">
        <ele>946.000000</ele>
        <time>2019-05-09T06:30:27Z</time>
      </trkpt>
      <trkpt lat="37.316813" lon="-3.122614">
        <ele>946.000000</ele>
        <time>2019-05-09T06:30:28Z</time>
      </trkpt>
      <trkpt lat="37.316828" lon="-3.122617">
        <ele>946.000000</ele>
        <time>2019-05-09T06:30:29Z</time>
      </trkpt>
      <trkpt lat="37.316845" lon="-3.122619">
        <ele>946.000000</ele>
        <time>2019-05-09T06:30:30Z</time>
      </trkpt>
      <trkpt lat="37.316863" lon="-3.122620">
        <ele>946.000000</ele>
        <time>2019-05-09T06:30:31Z</time>
      </trkpt>
      <trkpt lat="37.316877" lon="-3.122619">
        <ele>946.000000</ele>
        <time>2019-05-09T06:30:32Z</time>
      </trkpt>
      <trkpt lat="37.316893" lon="-3.122616">
        <ele>946.000000</ele>
        <time>2019-05-09T06:30:33Z</time>
      </trkpt>
      <trkpt lat="37.316913" lon="-3.122612">
        <ele>946.000000</ele>
        <time>2019-05-09T06:30:34Z</time>
      </trkpt>
      <trkpt lat="37.316925" lon="-3.122606">
        <ele>946.000000</ele>
        <time>2019-05-09T06:30:35Z</time>
      </trkpt>
      <trkpt lat="37.316937" lon="-3.122601">
        <ele>946.000000</ele>
        <time>2019-05-09T06:30:36Z</time>
      </trkpt>
      <trkpt lat="37.316950" lon="-3.122595">
        <ele>946.000000</ele>
        <time>2019-05-09T06:30:37Z</time>
      </trkpt>
      <trkpt lat="37.316963" lon="-3.122590">
        <ele>946.000000</ele>
        <time>2019-05-09T06:30:38Z</time>
      </trkpt>
      <trkpt lat="37.316975" lon="-3.122585">
        <ele>946.000000</ele>
        <time>2019-05-09T06:30:39Z</time>
      </trkpt>
      <trkpt lat="37.316988" lon="-3.122578">
        <ele>946.000000</ele>
        <time>2019-05-09T06:30:40Z</time>
      </trkpt>
      <trkpt lat="37.317000" lon="-3.122572">
        <ele>946.000000</ele>
        <time>2019-05-09T06:30:41Z</time>
      </trkpt>
      <trkpt lat="37.317013" lon="-3.122564">
        <ele>946.000000</ele>
        <time>2019-05-09T06:30:42Z</time>
      </trkpt>
      <trkpt lat="37.317023" lon="-3.122557">
        <ele>946.000000</ele>
        <time>2019-05-09T06:30:43Z</time>
      </trkpt>
      <trkpt lat="37.317040" lon="-3.122548">
        <ele>946.000000</ele>
        <time>2019-05-09T06:30:44Z</time>
      </trkpt>
      <trkpt lat="37.317052" lon="-3.122540">
        <ele>946.000000</ele>
        <time>2019-05-09T06:30:45Z</time>
      </trkpt>
      <trkpt lat="37.317060" lon="-3.122532">
        <ele>946.000000</ele>
        <time>2019-05-09T06:30:46Z</time>
      </trkpt>
      <trkpt lat="37.317068" lon="-3.122524">
        <ele>946.000000</ele>
        <time>2019-05-09T06:30:47Z</time>
      </trkpt>
      <trkpt lat="37.317078" lon="-3.122515">
        <ele>947.000000</ele>
        <time>2019-05-09T06:30:48Z</time>
      </trkpt>
      <trkpt lat="37.317090" lon="-3.122505">
        <ele>947.000000</ele>
        <time>2019-05-09T06:30:49Z</time>
      </trkpt>
      <trkpt lat="37.317103" lon="-3.122494">
        <ele>947.000000</ele>
        <time>2019-05-09T06:30:50Z</time>
      </trkpt>
      <trkpt lat="37.317113" lon="-3.122484">
        <ele>947.000000</ele>
        <time>2019-05-09T06:30:51Z</time>
      </trkpt>
      <trkpt lat="37.317125" lon="-3.122473">
        <ele>947.000000</ele>
        <time>2019-05-09T06:30:52Z</time>
      </trkpt>
      <trkpt lat="37.317137" lon="-3.122462">
        <ele>947.000000</ele>
        <time>2019-05-09T06:30:53Z</time>
      </trkpt>
      <trkpt lat="37.317147" lon="-3.122452">
        <ele>947.000000</ele>
        <time>2019-05-09T06:30:54Z</time>
      </trkpt>
      <trkpt lat="37.317158" lon="-3.122441">
        <ele>947.000000</ele>
        <time>2019-05-09T06:30:55Z</time>
      </trkpt>
      <trkpt lat="37.317172" lon="-3.122428">
        <ele>947.000000</ele>
        <time>2019-05-09T06:30:56Z</time>
      </trkpt>
      <trkpt lat="37.317185" lon="-3.122416">
        <ele>947.000000</ele>
        <time>2019-05-09T06:30:57Z</time>
      </trkpt>
      <trkpt lat="37.317195" lon="-3.122405">
        <ele>947.000000</ele>
        <time>2019-05-09T06:30:58Z</time>
      </trkpt>
      <trkpt lat="37.317208" lon="-3.122392">
        <ele>947.000000</ele>
        <time>2019-05-09T06:30:59Z</time>
      </trkpt>
      <trkpt lat="37.317220" lon="-3.122379">
        <ele>947.000000</ele>
        <time>2019-05-09T06:31:00Z</time>
      </trkpt>
      <trkpt lat="37.317235" lon="-3.122366">
        <ele>947.000000</ele>
        <time>2019-05-09T06:31:01Z</time>
      </trkpt>
      <trkpt lat="37.317242" lon="-3.122356">
        <ele>947.000000</ele>
        <time>2019-05-09T06:31:02Z</time>
      </trkpt>
      <trkpt lat="37.317255" lon="-3.122343">
        <ele>947.000000</ele>
        <time>2019-05-09T06:31:03Z</time>
      </trkpt>
      <trkpt lat="37.317267" lon="-3.122330">
        <ele>947.000000</ele>
        <time>2019-05-09T06:31:04Z</time>
      </trkpt>
      <trkpt lat="37.317278" lon="-3.122317">
        <ele>947.000000</ele>
        <time>2019-05-09T06:31:05Z</time>
      </trkpt>
      <trkpt lat="37.317287" lon="-3.122306">
        <ele>947.000000</ele>
        <time>2019-05-09T06:31:06Z</time>
      </trkpt>
      <trkpt lat="37.317300" lon="-3.122292">
        <ele>948.000000</ele>
        <time>2019-05-09T06:31:07Z</time>
      </trkpt>
      <trkpt lat="37.317307" lon="-3.122282">
        <ele>948.000000</ele>
        <time>2019-05-09T06:31:08Z</time>
      </trkpt>
      <trkpt lat="37.317320" lon="-3.122268">
        <ele>948.000000</ele>
        <time>2019-05-09T06:31:09Z</time>
      </trkpt>
      <trkpt lat="37.317332" lon="-3.122255">
        <ele>948.000000</ele>
        <time>2019-05-09T06:31:10Z</time>
      </trkpt>
      <trkpt lat="37.317347" lon="-3.122238">
        <ele>948.000000</ele>
        <time>2019-05-09T06:31:11Z</time>
      </trkpt>
      <trkpt lat="37.317363" lon="-3.122215">
        <ele>948.000000</ele>
        <time>2019-05-09T06:31:12Z</time>
      </trkpt>
      <trkpt lat="37.317378" lon="-3.122194">
        <ele>948.000000</ele>
        <time>2019-05-09T06:31:13Z</time>
      </trkpt>
      <trkpt lat="37.317393" lon="-3.122171">
        <ele>948.000000</ele>
        <time>2019-05-09T06:31:14Z</time>
      </trkpt>
      <trkpt lat="37.317408" lon="-3.122150">
        <ele>948.000000</ele>
        <time>2019-05-09T06:31:15Z</time>
      </trkpt>
      <trkpt lat="37.317420" lon="-3.122131">
        <ele>948.000000</ele>
        <time>2019-05-09T06:31:16Z</time>
      </trkpt>
      <trkpt lat="37.317430" lon="-3.122114">
        <ele>948.000000</ele>
        <time>2019-05-09T06:31:17Z</time>
      </trkpt>
      <trkpt lat="37.317440" lon="-3.122097">
        <ele>948.000000</ele>
        <time>2019-05-09T06:31:18Z</time>
      </trkpt>
      <trkpt lat="37.317450" lon="-3.122048">
        <ele>948.000000</ele>
        <time>2019-05-09T06:31:19Z</time>
      </trkpt>
      <trkpt lat="37.317461" lon="-3.122033">
        <ele>948.000000</ele>
        <time>2019-05-09T06:31:20Z</time>
      </trkpt>
      <trkpt lat="37.317469" lon="-3.122017">
        <ele>948.000000</ele>
        <time>2019-05-09T06:31:21Z</time>
      </trkpt>
      <trkpt lat="37.317474" lon="-3.122005">
        <ele>948.000000</ele>
        <time>2019-05-09T06:31:22Z</time>
      </trkpt>
      <trkpt lat="37.317485" lon="-3.121985">
        <ele>948.000000</ele>
        <time>2019-05-09T06:31:23Z</time>
      </trkpt>
      <trkpt lat="37.317491" lon="-3.121973">
        <ele>948.000000</ele>
        <time>2019-05-09T06:31:24Z</time>
      </trkpt>
      <trkpt lat="37.317499" lon="-3.121958">
        <ele>948.000000</ele>
        <time>2019-05-09T06:31:25Z</time>
      </trkpt>
      <trkpt lat="37.317507" lon="-3.121943">
        <ele>948.000000</ele>
        <time>2019-05-09T06:31:26Z</time>
      </trkpt>
      <trkpt lat="37.317514" lon="-3.121930">
        <ele>948.000000</ele>
        <time>2019-05-09T06:31:27Z</time>
      </trkpt>
      <trkpt lat="37.317522" lon="-3.121913">
        <ele>948.000000</ele>
        <time>2019-05-09T06:31:28Z</time>
      </trkpt>
      <trkpt lat="37.317530" lon="-3.121898">
        <ele>948.000000</ele>
        <time>2019-05-09T06:31:29Z</time>
      </trkpt>
      <trkpt lat="37.317539" lon="-3.121880">
        <ele>948.000000</ele>
        <time>2019-05-09T06:31:30Z</time>
      </trkpt>
      <trkpt lat="37.317548" lon="-3.121863">
        <ele>948.000000</ele>
        <time>2019-05-09T06:31:31Z</time>
      </trkpt>
      <trkpt lat="37.317560" lon="-3.121842">
        <ele>949.000000</ele>
        <time>2019-05-09T06:31:32Z</time>
      </trkpt>
      <trkpt lat="37.317568" lon="-3.121828">
        <ele>949.000000</ele>
        <time>2019-05-09T06:31:33Z</time>
      </trkpt>
      <trkpt lat="37.317579" lon="-3.121810">
        <ele>949.000000</ele>
        <time>2019-05-09T06:31:34Z</time>
      </trkpt>
      <trkpt lat="37.317592" lon="-3.121792">
        <ele>949.000000</ele>
        <time>2019-05-09T06:31:35Z</time>
      </trkpt>
      <trkpt lat="37.317601" lon="-3.121778">
        <ele>949.000000</ele>
        <time>2019-05-09T06:31:36Z</time>
      </trkpt>
      <trkpt lat="37.317613" lon="-3.121760">
        <ele>949.000000</ele>
        <time>2019-05-09T06:31:37Z</time>
      </trkpt>
      <trkpt lat="37.317625" lon="-3.121743">
        <ele>949.000000</ele>
        <time>2019-05-09T06:31:38Z</time>
      </trkpt>
      <trkpt lat="37.317635" lon="-3.121727">
        <ele>949.000000</ele>
        <time>2019-05-09T06:31:39Z</time>
      </trkpt>
      <trkpt lat="37.317647" lon="-3.121708">
        <ele>949.000000</ele>
        <time>2019-05-09T06:31:40Z</time>
      </trkpt>
      <trkpt lat="37.317659" lon="-3.121690">
        <ele>949.000000</ele>
        <time>2019-05-09T06:31:41Z</time>
      </trkpt>
      <trkpt lat="37.317665" lon="-3.121677">
        <ele>949.000000</ele>
        <time>2019-05-09T06:31:42Z</time>
      </trkpt>
      <trkpt lat="37.317673" lon="-3.121662">
        <ele>949.000000</ele>
        <time>2019-05-09T06:31:43Z</time>
      </trkpt>
      <trkpt lat="37.317679" lon="-3.121647">
        <ele>949.000000</ele>
        <time>2019-05-09T06:31:44Z</time>
      </trkpt>
      <trkpt lat="37.317655" lon="-3.121628">
        <ele>949.000000</ele>
        <time>2019-05-09T06:31:45Z</time>
      </trkpt>
      <trkpt lat="37.317645" lon="-3.121613">
        <ele>950.000000</ele>
        <time>2019-05-09T06:31:46Z</time>
      </trkpt>
      <trkpt lat="37.317637" lon="-3.121602">
        <ele>950.000000</ele>
        <time>2019-05-09T06:31:47Z</time>
      </trkpt>
      <trkpt lat="37.317627" lon="-3.121585">
        <ele>950.000000</ele>
        <time>2019-05-09T06:31:48Z</time>
      </trkpt>
      <trkpt lat="37.317613" lon="-3.121570">
        <ele>950.000000</ele>
        <time>2019-05-09T06:31:49Z</time>
      </trkpt>
      <trkpt lat="37.317600" lon="-3.121555">
        <ele>950.000000</ele>
        <time>2019-05-09T06:31:50Z</time>
      </trkpt>
      <trkpt lat="37.317585" lon="-3.121540">
        <ele>951.000000</ele>
        <time>2019-05-09T06:31:51Z</time>
      </trkpt>
      <trkpt lat="37.317570" lon="-3.121527">
        <ele>951.000000</ele>
        <time>2019-05-09T06:31:52Z</time>
      </trkpt>
      <trkpt lat="37.317557" lon="-3.121513">
        <ele>951.000000</ele>
        <time>2019-05-09T06:31:54Z</time>
      </trkpt>
      <trkpt lat="37.317545" lon="-3.121502">
        <ele>951.000000</ele>
        <time>2019-05-09T06:31:54Z</time>
      </trkpt>
      <trkpt lat="37.317532" lon="-3.121492">
        <ele>951.000000</ele>
        <time>2019-05-09T06:31:55Z</time>
      </trkpt>
      <trkpt lat="37.317518" lon="-3.121482">
        <ele>951.000000</ele>
        <time>2019-05-09T06:31:56Z</time>
      </trkpt>
      <trkpt lat="37.317499" lon="-3.121465">
        <ele>952.000000</ele>
        <time>2019-05-09T06:31:57Z</time>
      </trkpt>
      <trkpt lat="37.317485" lon="-3.121448">
        <ele>952.000000</ele>
        <time>2019-05-09T06:31:58Z</time>
      </trkpt>
      <trkpt lat="37.317472" lon="-3.121430">
        <ele>952.000000</ele>
        <time>2019-05-09T06:31:59Z</time>
      </trkpt>
      <trkpt lat="37.317463" lon="-3.121413">
        <ele>952.000000</ele>
        <time>2019-05-09T06:32:00Z</time>
      </trkpt>
      <trkpt lat="37.317456" lon="-3.121398">
        <ele>952.000000</ele>
        <time>2019-05-09T06:32:01Z</time>
      </trkpt>
      <trkpt lat="37.317449" lon="-3.121383">
        <ele>952.000000</ele>
        <time>2019-05-09T06:32:02Z</time>
      </trkpt>
      <trkpt lat="37.317443" lon="-3.121368">
        <ele>952.000000</ele>
        <time>2019-05-09T06:32:03Z</time>
      </trkpt>
      <trkpt lat="37.317438" lon="-3.121358">
        <ele>952.000000</ele>
        <time>2019-05-09T06:32:04Z</time>
      </trkpt>
      <trkpt lat="37.317433" lon="-3.121347">
        <ele>953.000000</ele>
        <time>2019-05-09T06:32:05Z</time>
      </trkpt>
      <trkpt lat="37.317428" lon="-3.121333">
        <ele>953.000000</ele>
        <time>2019-05-09T06:32:06Z</time>
      </trkpt>
      <trkpt lat="37.317420" lon="-3.121317">
        <ele>953.000000</ele>
        <time>2019-05-09T06:32:07Z</time>
      </trkpt>
      <trkpt lat="37.317412" lon="-3.121298">
        <ele>953.000000</ele>
        <time>2019-05-09T06:32:08Z</time>
      </trkpt>
      <trkpt lat="37.317406" lon="-3.121283">
        <ele>953.000000</ele>
        <time>2019-05-09T06:32:09Z</time>
      </trkpt>
      <trkpt lat="37.317401" lon="-3.121272">
        <ele>953.000000</ele>
        <time>2019-05-09T06:32:10Z</time>
      </trkpt>
      <trkpt lat="37.317394" lon="-3.121258">
        <ele>953.000000</ele>
        <time>2019-05-09T06:32:11Z</time>
      </trkpt>
      <trkpt lat="37.317387" lon="-3.121245">
        <ele>953.000000</ele>
        <time>2019-05-09T06:32:12Z</time>
      </trkpt>
      <trkpt lat="37.317380" lon="-3.121232">
        <ele>953.000000</ele>
        <time>2019-05-09T06:32:13Z</time>
      </trkpt>
      <trkpt lat="37.317371" lon="-3.121217">
        <ele>953.000000</ele>
        <time>2019-05-09T06:32:14Z</time>
      </trkpt>
      <trkpt lat="37.317363" lon="-3.121203">
        <ele>954.000000</ele>
        <time>2019-05-09T06:32:15Z</time>
      </trkpt>
      <trkpt lat="37.317357" lon="-3.121193">
        <ele>954.000000</ele>
        <time>2019-05-09T06:32:16Z</time>
      </trkpt>
      <trkpt lat="37.317349" lon="-3.121182">
        <ele>954.000000</ele>
        <time>2019-05-09T06:32:17Z</time>
      </trkpt>
      <trkpt lat="37.317342" lon="-3.121168">
        <ele>954.000000</ele>
        <time>2019-05-09T06:32:18Z</time>
      </trkpt>
      <trkpt lat="37.317334" lon="-3.121158">
        <ele>954.000000</ele>
        <time>2019-05-09T06:32:19Z</time>
      </trkpt>
      <trkpt lat="37.317324" lon="-3.121142">
        <ele>954.000000</ele>
        <time>2019-05-09T06:32:20Z</time>
      </trkpt>
      <trkpt lat="37.317314" lon="-3.121123">
        <ele>954.000000</ele>
        <time>2019-05-09T06:32:21Z</time>
      </trkpt>
      <trkpt lat="37.317303" lon="-3.121105">
        <ele>954.000000</ele>
        <time>2019-05-09T06:32:22Z</time>
      </trkpt>
      <trkpt lat="37.317292" lon="-3.121085">
        <ele>954.000000</ele>
        <time>2019-05-09T06:32:23Z</time>
      </trkpt>
      <trkpt lat="37.317282" lon="-3.121065">
        <ele>954.000000</ele>
        <time>2019-05-09T06:32:24Z</time>
      </trkpt>
      <trkpt lat="37.317276" lon="-3.121055">
        <ele>954.000000</ele>
        <time>2019-05-09T06:32:25Z</time>
      </trkpt>
      <trkpt lat="37.317270" lon="-3.121045">
        <ele>954.000000</ele>
        <time>2019-05-09T06:32:26Z</time>
      </trkpt>
      <trkpt lat="37.317262" lon="-3.121030">
        <ele>954.000000</ele>
        <time>2019-05-09T06:32:27Z</time>
      </trkpt>
      <trkpt lat="37.317251" lon="-3.121012">
        <ele>954.000000</ele>
        <time>2019-05-09T06:32:28Z</time>
      </trkpt>
      <trkpt lat="37.317238" lon="-3.120992">
        <ele>954.000000</ele>
        <time>2019-05-09T06:32:29Z</time>
      </trkpt>
      <trkpt lat="37.317225" lon="-3.120968">
        <ele>954.000000</ele>
        <time>2019-05-09T06:32:30Z</time>
      </trkpt>
      <trkpt lat="37.317212" lon="-3.120945">
        <ele>954.000000</ele>
        <time>2019-05-09T06:32:31Z</time>
      </trkpt>
      <trkpt lat="37.317199" lon="-3.120923">
        <ele>954.000000</ele>
        <time>2019-05-09T06:32:32Z</time>
      </trkpt>
      <trkpt lat="37.317189" lon="-3.120905">
        <ele>954.000000</ele>
        <time>2019-05-09T06:32:33Z</time>
      </trkpt>
      <trkpt lat="37.317178" lon="-3.120887">
        <ele>954.000000</ele>
        <time>2019-05-09T06:32:34Z</time>
      </trkpt>
      <trkpt lat="37.317168" lon="-3.120868">
        <ele>954.000000</ele>
        <time>2019-05-09T06:32:35Z</time>
      </trkpt>
      <trkpt lat="37.317158" lon="-3.120852">
        <ele>954.000000</ele>
        <time>2019-05-09T06:32:36Z</time>
      </trkpt>
      <trkpt lat="37.317149" lon="-3.120837">
        <ele>954.000000</ele>
        <time>2019-05-09T06:32:37Z</time>
      </trkpt>
      <trkpt lat="37.317139" lon="-3.120822">
        <ele>954.000000</ele>
        <time>2019-05-09T06:32:38Z</time>
      </trkpt>
      <trkpt lat="37.317128" lon="-3.120803">
        <ele>954.000000</ele>
        <time>2019-05-09T06:32:39Z</time>
      </trkpt>
      <trkpt lat="37.317118" lon="-3.120785">
        <ele>954.000000</ele>
        <time>2019-05-09T06:32:40Z</time>
      </trkpt>
      <trkpt lat="37.317106" lon="-3.120765">
        <ele>954.000000</ele>
        <time>2019-05-09T06:32:41Z</time>
      </trkpt>
      <trkpt lat="37.317092" lon="-3.120745">
        <ele>954.000000</ele>
        <time>2019-05-09T06:32:42Z</time>
      </trkpt>
      <trkpt lat="37.317083" lon="-3.120727">
        <ele>954.000000</ele>
        <time>2019-05-09T06:32:44Z</time>
      </trkpt>
      <trkpt lat="37.317073" lon="-3.120707">
        <ele>954.000000</ele>
        <time>2019-05-09T06:32:44Z</time>
      </trkpt>
      <trkpt lat="37.317062" lon="-3.120688">
        <ele>954.000000</ele>
        <time>2019-05-09T06:32:45Z</time>
      </trkpt>
      <trkpt lat="37.317054" lon="-3.120673">
        <ele>954.000000</ele>
        <time>2019-05-09T06:32:46Z</time>
      </trkpt>
      <trkpt lat="37.317045" lon="-3.120658">
        <ele>954.000000</ele>
        <time>2019-05-09T06:32:47Z</time>
      </trkpt>
      <trkpt lat="37.317034" lon="-3.120642">
        <ele>954.000000</ele>
        <time>2019-05-09T06:32:48Z</time>
      </trkpt>
      <trkpt lat="37.317026" lon="-3.120627">
        <ele>954.000000</ele>
        <time>2019-05-09T06:32:49Z</time>
      </trkpt>
      <trkpt lat="37.317014" lon="-3.120608">
        <ele>954.000000</ele>
        <time>2019-05-09T06:32:50Z</time>
      </trkpt>
      <trkpt lat="37.317003" lon="-3.120590">
        <ele>954.000000</ele>
        <time>2019-05-09T06:32:51Z</time>
      </trkpt>
      <trkpt lat="37.316992" lon="-3.120570">
        <ele>954.000000</ele>
        <time>2019-05-09T06:32:52Z</time>
      </trkpt>
      <trkpt lat="37.316978" lon="-3.120547">
        <ele>954.000000</ele>
        <time>2019-05-09T06:32:53Z</time>
      </trkpt>
      <trkpt lat="37.316966" lon="-3.120528">
        <ele>954.000000</ele>
        <time>2019-05-09T06:32:54Z</time>
      </trkpt>
      <trkpt lat="37.316956" lon="-3.120512">
        <ele>954.000000</ele>
        <time>2019-05-09T06:32:55Z</time>
      </trkpt>
      <trkpt lat="37.316948" lon="-3.120498">
        <ele>954.000000</ele>
        <time>2019-05-09T06:32:56Z</time>
      </trkpt>
      <trkpt lat="37.316938" lon="-3.120480">
        <ele>954.000000</ele>
        <time>2019-05-09T06:32:57Z</time>
      </trkpt>
      <trkpt lat="37.316931" lon="-3.120467">
        <ele>954.000000</ele>
        <time>2019-05-09T06:32:58Z</time>
      </trkpt>
      <trkpt lat="37.316923" lon="-3.120452">
        <ele>954.000000</ele>
        <time>2019-05-09T06:32:59Z</time>
      </trkpt>
      <trkpt lat="37.316915" lon="-3.120438">
        <ele>954.000000</ele>
        <time>2019-05-09T06:33:00Z</time>
      </trkpt>
      <trkpt lat="37.316906" lon="-3.120423">
        <ele>954.000000</ele>
        <time>2019-05-09T06:33:01Z</time>
      </trkpt>
      <trkpt lat="37.316898" lon="-3.120410">
        <ele>954.000000</ele>
        <time>2019-05-09T06:33:02Z</time>
      </trkpt>
      <trkpt lat="37.316889" lon="-3.120395">
        <ele>954.000000</ele>
        <time>2019-05-09T06:33:03Z</time>
      </trkpt>
      <trkpt lat="37.316879" lon="-3.120378">
        <ele>954.000000</ele>
        <time>2019-05-09T06:33:04Z</time>
      </trkpt>
      <trkpt lat="37.316869" lon="-3.120362">
        <ele>955.000000</ele>
        <time>2019-05-09T06:33:05Z</time>
      </trkpt>
      <trkpt lat="37.316859" lon="-3.120343">
        <ele>955.000000</ele>
        <time>2019-05-09T06:33:06Z</time>
      </trkpt>
      <trkpt lat="37.316847" lon="-3.120323">
        <ele>955.000000</ele>
        <time>2019-05-09T06:33:07Z</time>
      </trkpt>
      <trkpt lat="37.316834" lon="-3.120305">
        <ele>955.000000</ele>
        <time>2019-05-09T06:33:08Z</time>
      </trkpt>
      <trkpt lat="37.316824" lon="-3.120287">
        <ele>955.000000</ele>
        <time>2019-05-09T06:33:09Z</time>
      </trkpt>
      <trkpt lat="37.316810" lon="-3.120267">
        <ele>955.000000</ele>
        <time>2019-05-09T06:33:10Z</time>
      </trkpt>
      <trkpt lat="37.316799" lon="-3.120248">
        <ele>955.000000</ele>
        <time>2019-05-09T06:33:11Z</time>
      </trkpt>
      <trkpt lat="37.316792" lon="-3.120238">
        <ele>955.000000</ele>
        <time>2019-05-09T06:33:12Z</time>
      </trkpt>
      <trkpt lat="37.316782" lon="-3.120223">
        <ele>955.000000</ele>
        <time>2019-05-09T06:33:13Z</time>
      </trkpt>
      <trkpt lat="37.316776" lon="-3.120213">
        <ele>955.000000</ele>
        <time>2019-05-09T06:33:14Z</time>
      </trkpt>
      <trkpt lat="37.316767" lon="-3.120202">
        <ele>955.000000</ele>
        <time>2019-05-09T06:33:15Z</time>
      </trkpt>
      <trkpt lat="37.316758" lon="-3.120187">
        <ele>955.000000</ele>
        <time>2019-05-09T06:33:16Z</time>
      </trkpt>
      <trkpt lat="37.316746" lon="-3.120170">
        <ele>955.000000</ele>
        <time>2019-05-09T06:33:17Z</time>
      </trkpt>
      <trkpt lat="37.316735" lon="-3.120153">
        <ele>955.000000</ele>
        <time>2019-05-09T06:33:18Z</time>
      </trkpt>
      <trkpt lat="37.316720" lon="-3.120130">
        <ele>956.000000</ele>
        <time>2019-05-09T06:33:19Z</time>
      </trkpt>
      <trkpt lat="37.316710" lon="-3.120117">
        <ele>956.000000</ele>
        <time>2019-05-09T06:33:20Z</time>
      </trkpt>
      <trkpt lat="37.316698" lon="-3.120098">
        <ele>956.000000</ele>
        <time>2019-05-09T06:33:21Z</time>
      </trkpt>
      <trkpt lat="37.316685" lon="-3.120078">
        <ele>956.000000</ele>
        <time>2019-05-09T06:33:22Z</time>
      </trkpt>
      <trkpt lat="37.316675" lon="-3.120065">
        <ele>956.000000</ele>
        <time>2019-05-09T06:33:23Z</time>
      </trkpt>
      <trkpt lat="37.316667" lon="-3.120052">
        <ele>956.000000</ele>
        <time>2019-05-09T06:33:24Z</time>
      </trkpt>
      <trkpt lat="37.316654" lon="-3.120033">
        <ele>957.000000</ele>
        <time>2019-05-09T06:33:25Z</time>
      </trkpt>
      <trkpt lat="37.316644" lon="-3.120020">
        <ele>957.000000</ele>
        <time>2019-05-09T06:33:26Z</time>
      </trkpt>
      <trkpt lat="37.316635" lon="-3.120008">
        <ele>957.000000</ele>
        <time>2019-05-09T06:33:27Z</time>
      </trkpt>
      <trkpt lat="37.316625" lon="-3.119995">
        <ele>957.000000</ele>
        <time>2019-05-09T06:33:29Z</time>
      </trkpt>
      <trkpt lat="37.316613" lon="-3.119978">
        <ele>957.000000</ele>
        <time>2019-05-09T06:33:29Z</time>
      </trkpt>
      <trkpt lat="37.316605" lon="-3.119968">
        <ele>957.000000</ele>
        <time>2019-05-09T06:33:30Z</time>
      </trkpt>
      <trkpt lat="37.316591" lon="-3.119948">
        <ele>957.000000</ele>
        <time>2019-05-09T06:33:32Z</time>
      </trkpt>
      <trkpt lat="37.316581" lon="-3.119935">
        <ele>958.000000</ele>
        <time>2019-05-09T06:33:32Z</time>
      </trkpt>
      <trkpt lat="37.316566" lon="-3.119915">
        <ele>958.000000</ele>
        <time>2019-05-09T06:33:33Z</time>
      </trkpt>
      <trkpt lat="37.316558" lon="-3.119902">
        <ele>958.000000</ele>
        <time>2019-05-09T06:33:34Z</time>
      </trkpt>
      <trkpt lat="37.316547" lon="-3.119887">
        <ele>958.000000</ele>
        <time>2019-05-09T06:33:35Z</time>
      </trkpt>
      <trkpt lat="37.316537" lon="-3.119875">
        <ele>958.000000</ele>
        <time>2019-05-09T06:33:36Z</time>
      </trkpt>
      <trkpt lat="37.316524" lon="-3.119855">
        <ele>958.000000</ele>
        <time>2019-05-09T06:33:37Z</time>
      </trkpt>
      <trkpt lat="37.316513" lon="-3.119840">
        <ele>958.000000</ele>
        <time>2019-05-09T06:33:39Z</time>
      </trkpt>
      <trkpt lat="37.316505" lon="-3.119827">
        <ele>959.000000</ele>
        <time>2019-05-09T06:33:39Z</time>
      </trkpt>
      <trkpt lat="37.316496" lon="-3.119817">
        <ele>959.000000</ele>
        <time>2019-05-09T06:33:40Z</time>
      </trkpt>
      <trkpt lat="37.316487" lon="-3.119802">
        <ele>959.000000</ele>
        <time>2019-05-09T06:33:41Z</time>
      </trkpt>
      <trkpt lat="37.316476" lon="-3.119787">
        <ele>959.000000</ele>
        <time>2019-05-09T06:33:42Z</time>
      </trkpt>
      <trkpt lat="37.316469" lon="-3.119777">
        <ele>959.000000</ele>
        <time>2019-05-09T06:33:43Z</time>
      </trkpt>
      <trkpt lat="37.316462" lon="-3.119767">
        <ele>960.000000</ele>
        <time>2019-05-09T06:33:44Z</time>
      </trkpt>
      <trkpt lat="37.316452" lon="-3.119753">
        <ele>960.000000</ele>
        <time>2019-05-09T06:33:45Z</time>
      </trkpt>
      <trkpt lat="37.316444" lon="-3.119742">
        <ele>960.000000</ele>
        <time>2019-05-09T06:33:45Z</time>
      </trkpt>
      <trkpt lat="37.316436" lon="-3.119730">
        <ele>960.000000</ele>
        <time>2019-05-09T06:33:46Z</time>
      </trkpt>
      <trkpt lat="37.316418" lon="-3.119717">
        <ele>960.000000</ele>
        <time>2019-05-09T06:33:47Z</time>
      </trkpt>
      <trkpt lat="37.316403" lon="-3.119698">
        <ele>960.000000</ele>
        <time>2019-05-09T06:33:48Z</time>
      </trkpt>
      <trkpt lat="37.316393" lon="-3.119685">
        <ele>960.000000</ele>
        <time>2019-05-09T06:33:49Z</time>
      </trkpt>
      <trkpt lat="37.316380" lon="-3.119670">
        <ele>960.000000</ele>
        <time>2019-05-09T06:33:50Z</time>
      </trkpt>
      <trkpt lat="37.316368" lon="-3.119653">
        <ele>960.000000</ele>
        <time>2019-05-09T06:33:51Z</time>
      </trkpt>
      <trkpt lat="37.316355" lon="-3.119637">
        <ele>961.000000</ele>
        <time>2019-05-09T06:33:52Z</time>
      </trkpt>
      <trkpt lat="37.316343" lon="-3.119620">
        <ele>961.000000</ele>
        <time>2019-05-09T06:33:53Z</time>
      </trkpt>
      <trkpt lat="37.316332" lon="-3.119607">
        <ele>961.000000</ele>
        <time>2019-05-09T06:33:54Z</time>
      </trkpt>
      <trkpt lat="37.316324" lon="-3.119595">
        <ele>961.000000</ele>
        <time>2019-05-09T06:33:55Z</time>
      </trkpt>
      <trkpt lat="37.316315" lon="-3.119583">
        <ele>961.000000</ele>
        <time>2019-05-09T06:33:56Z</time>
      </trkpt>
      <trkpt lat="37.316304" lon="-3.119570">
        <ele>962.000000</ele>
        <time>2019-05-09T06:33:57Z</time>
      </trkpt>
      <trkpt lat="37.316293" lon="-3.119557">
        <ele>962.000000</ele>
        <time>2019-05-09T06:33:58Z</time>
      </trkpt>
      <trkpt lat="37.316281" lon="-3.119542">
        <ele>962.000000</ele>
        <time>2019-05-09T06:33:59Z</time>
      </trkpt>
      <trkpt lat="37.316268" lon="-3.119527">
        <ele>962.000000</ele>
        <time>2019-05-09T06:34:00Z</time>
      </trkpt>
      <trkpt lat="37.316254" lon="-3.119510">
        <ele>962.000000</ele>
        <time>2019-05-09T06:34:01Z</time>
      </trkpt>
      <trkpt lat="37.316243" lon="-3.119495">
        <ele>962.000000</ele>
        <time>2019-05-09T06:34:02Z</time>
      </trkpt>
      <trkpt lat="37.316233" lon="-3.119483">
        <ele>962.000000</ele>
        <time>2019-05-09T06:34:03Z</time>
      </trkpt>
      <trkpt lat="37.316223" lon="-3.119470">
        <ele>962.000000</ele>
        <time>2019-05-09T06:34:04Z</time>
      </trkpt>
      <trkpt lat="37.316214" lon="-3.119458">
        <ele>962.000000</ele>
        <time>2019-05-09T06:34:05Z</time>
      </trkpt>
      <trkpt lat="37.316206" lon="-3.119445">
        <ele>962.000000</ele>
        <time>2019-05-09T06:34:06Z</time>
      </trkpt>
      <trkpt lat="37.316196" lon="-3.119432">
        <ele>962.000000</ele>
        <time>2019-05-09T06:34:07Z</time>
      </trkpt>
      <trkpt lat="37.316187" lon="-3.119418">
        <ele>962.000000</ele>
        <time>2019-05-09T06:34:08Z</time>
      </trkpt>
      <trkpt lat="37.316177" lon="-3.119405">
        <ele>962.000000</ele>
        <time>2019-05-09T06:34:09Z</time>
      </trkpt>
      <trkpt lat="37.316167" lon="-3.119392">
        <ele>962.000000</ele>
        <time>2019-05-09T06:34:10Z</time>
      </trkpt>
      <trkpt lat="37.316156" lon="-3.119377">
        <ele>962.000000</ele>
        <time>2019-05-09T06:34:11Z</time>
      </trkpt>
      <trkpt lat="37.316147" lon="-3.119363">
        <ele>962.000000</ele>
        <time>2019-05-09T06:34:13Z</time>
      </trkpt>
      <trkpt lat="37.316138" lon="-3.119350">
        <ele>962.000000</ele>
        <time>2019-05-09T06:34:13Z</time>
      </trkpt>
      <trkpt lat="37.316128" lon="-3.119337">
        <ele>962.000000</ele>
        <time>2019-05-09T06:34:14Z</time>
      </trkpt>
      <trkpt lat="37.316118" lon="-3.119322">
        <ele>962.000000</ele>
        <time>2019-05-09T06:34:15Z</time>
      </trkpt>
      <trkpt lat="37.316108" lon="-3.119308">
        <ele>962.000000</ele>
        <time>2019-05-09T06:34:16Z</time>
      </trkpt>
      <trkpt lat="37.316099" lon="-3.119295">
        <ele>963.000000</ele>
        <time>2019-05-09T06:34:17Z</time>
      </trkpt>
      <trkpt lat="37.316090" lon="-3.119283">
        <ele>963.000000</ele>
        <time>2019-05-09T06:34:18Z</time>
      </trkpt>
      <trkpt lat="37.316080" lon="-3.119270">
        <ele>963.000000</ele>
        <time>2019-05-09T06:34:19Z</time>
      </trkpt>
      <trkpt lat="37.316068" lon="-3.119253">
        <ele>963.000000</ele>
        <time>2019-05-09T06:34:20Z</time>
      </trkpt>
      <trkpt lat="37.316058" lon="-3.119240">
        <ele>963.000000</ele>
        <time>2019-05-09T06:34:21Z</time>
      </trkpt>
      <trkpt lat="37.316046" lon="-3.119225">
        <ele>963.000000</ele>
        <time>2019-05-09T06:34:22Z</time>
      </trkpt>
      <trkpt lat="37.316035" lon="-3.119210">
        <ele>963.000000</ele>
        <time>2019-05-09T06:34:23Z</time>
      </trkpt>
      <trkpt lat="37.316024" lon="-3.119195">
        <ele>964.000000</ele>
        <time>2019-05-09T06:34:24Z</time>
      </trkpt>
      <trkpt lat="37.316013" lon="-3.119180">
        <ele>964.000000</ele>
        <time>2019-05-09T06:34:25Z</time>
      </trkpt>
      <trkpt lat="37.316003" lon="-3.119167">
        <ele>964.000000</ele>
        <time>2019-05-09T06:34:26Z</time>
      </trkpt>
      <trkpt lat="37.315993" lon="-3.119152">
        <ele>964.000000</ele>
        <time>2019-05-09T06:34:27Z</time>
      </trkpt>
      <trkpt lat="37.315982" lon="-3.119137">
        <ele>964.000000</ele>
        <time>2019-05-09T06:34:28Z</time>
      </trkpt>
      <trkpt lat="37.315973" lon="-3.119122">
        <ele>964.000000</ele>
        <time>2019-05-09T06:34:29Z</time>
      </trkpt>
      <trkpt lat="37.315963" lon="-3.119108">
        <ele>964.000000</ele>
        <time>2019-05-09T06:34:30Z</time>
      </trkpt>
      <trkpt lat="37.315953" lon="-3.119093">
        <ele>965.000000</ele>
        <time>2019-05-09T06:34:31Z</time>
      </trkpt>
      <trkpt lat="37.315941" lon="-3.119077">
        <ele>965.000000</ele>
        <time>2019-05-09T06:34:32Z</time>
      </trkpt>
      <trkpt lat="37.315930" lon="-3.119060">
        <ele>965.000000</ele>
        <time>2019-05-09T06:34:33Z</time>
      </trkpt>
      <trkpt lat="37.315920" lon="-3.119045">
        <ele>965.000000</ele>
        <time>2019-05-09T06:34:34Z</time>
      </trkpt>
      <trkpt lat="37.315912" lon="-3.119035">
        <ele>965.000000</ele>
        <time>2019-05-09T06:34:35Z</time>
      </trkpt>
      <trkpt lat="37.315905" lon="-3.119025">
        <ele>965.000000</ele>
        <time>2019-05-09T06:34:36Z</time>
      </trkpt>
      <trkpt lat="37.315893" lon="-3.119007">
        <ele>965.000000</ele>
        <time>2019-05-09T06:34:37Z</time>
      </trkpt>
      <trkpt lat="37.315880" lon="-3.118990">
        <ele>965.000000</ele>
        <time>2019-05-09T06:34:38Z</time>
      </trkpt>
      <trkpt lat="37.315867" lon="-3.118970">
        <ele>966.000000</ele>
        <time>2019-05-09T06:34:39Z</time>
      </trkpt>
      <trkpt lat="37.315856" lon="-3.118955">
        <ele>966.000000</ele>
        <time>2019-05-09T06:34:40Z</time>
      </trkpt>
      <trkpt lat="37.315842" lon="-3.118937">
        <ele>966.000000</ele>
        <time>2019-05-09T06:34:41Z</time>
      </trkpt>
      <trkpt lat="37.315831" lon="-3.118922">
        <ele>966.000000</ele>
        <time>2019-05-09T06:34:42Z</time>
      </trkpt>
      <trkpt lat="37.315822" lon="-3.118907">
        <ele>966.000000</ele>
        <time>2019-05-09T06:34:43Z</time>
      </trkpt>
      <trkpt lat="37.315808" lon="-3.118888">
        <ele>966.000000</ele>
        <time>2019-05-09T06:34:44Z</time>
      </trkpt>
      <trkpt lat="37.315800" lon="-3.118877">
        <ele>966.000000</ele>
        <time>2019-05-09T06:34:45Z</time>
      </trkpt>
      <trkpt lat="37.315789" lon="-3.118862">
        <ele>966.000000</ele>
        <time>2019-05-09T06:34:46Z</time>
      </trkpt>
      <trkpt lat="37.315782" lon="-3.118850">
        <ele>967.000000</ele>
        <time>2019-05-09T06:34:47Z</time>
      </trkpt>
      <trkpt lat="37.315772" lon="-3.118837">
        <ele>967.000000</ele>
        <time>2019-05-09T06:34:48Z</time>
      </trkpt>
      <trkpt lat="37.315761" lon="-3.118822">
        <ele>967.000000</ele>
        <time>2019-05-09T06:34:49Z</time>
      </trkpt>
      <trkpt lat="37.315751" lon="-3.118807">
        <ele>967.000000</ele>
        <time>2019-05-09T06:34:50Z</time>
      </trkpt>
      <trkpt lat="37.315741" lon="-3.118793">
        <ele>967.000000</ele>
        <time>2019-05-09T06:34:51Z</time>
      </trkpt>
      <trkpt lat="37.315731" lon="-3.118778">
        <ele>967.000000</ele>
        <time>2019-05-09T06:34:52Z</time>
      </trkpt>
      <trkpt lat="37.315719" lon="-3.118762">
        <ele>967.000000</ele>
        <time>2019-05-09T06:34:53Z</time>
      </trkpt>
      <trkpt lat="37.315710" lon="-3.118747">
        <ele>968.000000</ele>
        <time>2019-05-09T06:34:54Z</time>
      </trkpt>
      <trkpt lat="37.315698" lon="-3.118730">
        <ele>968.000000</ele>
        <time>2019-05-09T06:34:55Z</time>
      </trkpt>
      <trkpt lat="37.315684" lon="-3.118708">
        <ele>968.000000</ele>
        <time>2019-05-09T06:34:56Z</time>
      </trkpt>
      <trkpt lat="37.315671" lon="-3.118690">
        <ele>968.000000</ele>
        <time>2019-05-09T06:34:57Z</time>
      </trkpt>
      <trkpt lat="37.315662" lon="-3.118675">
        <ele>968.000000</ele>
        <time>2019-05-09T06:34:59Z</time>
      </trkpt>
      <trkpt lat="37.315650" lon="-3.118655">
        <ele>968.000000</ele>
        <time>2019-05-09T06:34:59Z</time>
      </trkpt>
      <trkpt lat="37.315639" lon="-3.118637">
        <ele>969.000000</ele>
        <time>2019-05-09T06:35:00Z</time>
      </trkpt>
      <trkpt lat="37.315630" lon="-3.118622">
        <ele>969.000000</ele>
        <time>2019-05-09T06:35:01Z</time>
      </trkpt>
      <trkpt lat="37.315620" lon="-3.118605">
        <ele>969.000000</ele>
        <time>2019-05-09T06:35:02Z</time>
      </trkpt>
      <trkpt lat="37.315612" lon="-3.118593">
        <ele>969.000000</ele>
        <time>2019-05-09T06:35:03Z</time>
      </trkpt>
      <trkpt lat="37.315602" lon="-3.118577">
        <ele>969.000000</ele>
        <time>2019-05-09T06:35:04Z</time>
      </trkpt>
      <trkpt lat="37.315594" lon="-3.118563">
        <ele>969.000000</ele>
        <time>2019-05-09T06:35:05Z</time>
      </trkpt>
      <trkpt lat="37.315586" lon="-3.118552">
        <ele>969.000000</ele>
        <time>2019-05-09T06:35:06Z</time>
      </trkpt>
      <trkpt lat="37.315578" lon="-3.118537">
        <ele>969.000000</ele>
        <time>2019-05-09T06:35:07Z</time>
      </trkpt>
      <trkpt lat="37.315564" lon="-3.118517">
        <ele>969.000000</ele>
        <time>2019-05-09T06:35:08Z</time>
      </trkpt>
      <trkpt lat="37.315555" lon="-3.118503">
        <ele>969.000000</ele>
        <time>2019-05-09T06:35:09Z</time>
      </trkpt>
      <trkpt lat="37.315546" lon="-3.118490">
        <ele>969.000000</ele>
        <time>2019-05-09T06:35:10Z</time>
      </trkpt>
      <trkpt lat="37.315537" lon="-3.118475">
        <ele>969.000000</ele>
        <time>2019-05-09T06:35:11Z</time>
      </trkpt>
      <trkpt lat="37.315524" lon="-3.118458">
        <ele>969.000000</ele>
        <time>2019-05-09T06:35:12Z</time>
      </trkpt>
      <trkpt lat="37.315513" lon="-3.118442">
        <ele>969.000000</ele>
        <time>2019-05-09T06:35:13Z</time>
      </trkpt>
      <trkpt lat="37.315506" lon="-3.118432">
        <ele>970.000000</ele>
        <time>2019-05-09T06:35:14Z</time>
      </trkpt>
      <trkpt lat="37.315496" lon="-3.118418">
        <ele>970.000000</ele>
        <time>2019-05-09T06:35:15Z</time>
      </trkpt>
      <trkpt lat="37.315486" lon="-3.118403">
        <ele>970.000000</ele>
        <time>2019-05-09T06:35:16Z</time>
      </trkpt>
      <trkpt lat="37.315458" lon="-3.118392">
        <ele>970.000000</ele>
        <time>2019-05-09T06:35:17Z</time>
      </trkpt>
      <trkpt lat="37.315443" lon="-3.118377">
        <ele>970.000000</ele>
        <time>2019-05-09T06:35:18Z</time>
      </trkpt>
      <trkpt lat="37.315435" lon="-3.118368">
        <ele>970.000000</ele>
        <time>2019-05-09T06:35:19Z</time>
      </trkpt>
      <trkpt lat="37.315420" lon="-3.118353">
        <ele>970.000000</ele>
        <time>2019-05-09T06:35:20Z</time>
      </trkpt>
      <trkpt lat="37.315412" lon="-3.118345">
        <ele>970.000000</ele>
        <time>2019-05-09T06:35:21Z</time>
      </trkpt>
      <trkpt lat="37.315400" lon="-3.118335">
        <ele>970.000000</ele>
        <time>2019-05-09T06:35:22Z</time>
      </trkpt>
      <trkpt lat="37.315388" lon="-3.118326">
        <ele>970.000000</ele>
        <time>2019-05-09T06:35:23Z</time>
      </trkpt>
      <trkpt lat="37.315375" lon="-3.118315">
        <ele>970.000000</ele>
        <time>2019-05-09T06:35:24Z</time>
      </trkpt>
      <trkpt lat="37.315362" lon="-3.118304">
        <ele>970.000000</ele>
        <time>2019-05-09T06:35:25Z</time>
      </trkpt>
      <trkpt lat="37.315343" lon="-3.118288">
        <ele>970.000000</ele>
        <time>2019-05-09T06:35:26Z</time>
      </trkpt>
      <trkpt lat="37.315332" lon="-3.118278">
        <ele>970.000000</ele>
        <time>2019-05-09T06:35:27Z</time>
      </trkpt>
      <trkpt lat="37.315315" lon="-3.118264">
        <ele>970.000000</ele>
        <time>2019-05-09T06:35:28Z</time>
      </trkpt>
      <trkpt lat="37.315302" lon="-3.118253">
        <ele>971.000000</ele>
        <time>2019-05-09T06:35:29Z</time>
      </trkpt>
      <trkpt lat="37.315290" lon="-3.118242">
        <ele>971.000000</ele>
        <time>2019-05-09T06:35:30Z</time>
      </trkpt>
      <trkpt lat="37.315277" lon="-3.118231">
        <ele>971.000000</ele>
        <time>2019-05-09T06:35:31Z</time>
      </trkpt>
      <trkpt lat="37.315265" lon="-3.118221">
        <ele>971.000000</ele>
        <time>2019-05-09T06:35:32Z</time>
      </trkpt>
      <trkpt lat="37.315253" lon="-3.118211">
        <ele>971.000000</ele>
        <time>2019-05-09T06:35:33Z</time>
      </trkpt>
      <trkpt lat="37.315238" lon="-3.118198">
        <ele>971.000000</ele>
        <time>2019-05-09T06:35:34Z</time>
      </trkpt>
      <trkpt lat="37.315223" lon="-3.118186">
        <ele>971.000000</ele>
        <time>2019-05-09T06:35:35Z</time>
      </trkpt>
      <trkpt lat="37.315208" lon="-3.118174">
        <ele>971.000000</ele>
        <time>2019-05-09T06:35:36Z</time>
      </trkpt>
      <trkpt lat="37.315200" lon="-3.118167">
        <ele>971.000000</ele>
        <time>2019-05-09T06:35:37Z</time>
      </trkpt>
      <trkpt lat="37.315187" lon="-3.118157">
        <ele>971.000000</ele>
        <time>2019-05-09T06:35:38Z</time>
      </trkpt>
      <trkpt lat="37.315173" lon="-3.118145">
        <ele>972.000000</ele>
        <time>2019-05-09T06:35:39Z</time>
      </trkpt>
      <trkpt lat="37.315157" lon="-3.118131">
        <ele>972.000000</ele>
        <time>2019-05-09T06:35:40Z</time>
      </trkpt>
      <trkpt lat="37.315143" lon="-3.118118">
        <ele>972.000000</ele>
        <time>2019-05-09T06:35:41Z</time>
      </trkpt>
      <trkpt lat="37.315130" lon="-3.118106">
        <ele>972.000000</ele>
        <time>2019-05-09T06:35:42Z</time>
      </trkpt>
      <trkpt lat="37.315118" lon="-3.118095">
        <ele>972.000000</ele>
        <time>2019-05-09T06:35:43Z</time>
      </trkpt>
      <trkpt lat="37.315105" lon="-3.118081">
        <ele>972.000000</ele>
        <time>2019-05-09T06:35:44Z</time>
      </trkpt>
      <trkpt lat="37.315093" lon="-3.118070">
        <ele>972.000000</ele>
        <time>2019-05-09T06:35:45Z</time>
      </trkpt>
      <trkpt lat="37.315083" lon="-3.118059">
        <ele>972.000000</ele>
        <time>2019-05-09T06:35:46Z</time>
      </trkpt>
      <trkpt lat="37.315072" lon="-3.118046">
        <ele>972.000000</ele>
        <time>2019-05-09T06:35:47Z</time>
      </trkpt>
      <trkpt lat="37.315062" lon="-3.118035">
        <ele>973.000000</ele>
        <time>2019-05-09T06:35:48Z</time>
      </trkpt>
      <trkpt lat="37.315052" lon="-3.118024">
        <ele>973.000000</ele>
        <time>2019-05-09T06:35:50Z</time>
      </trkpt>
      <trkpt lat="37.315043" lon="-3.118013">
        <ele>973.000000</ele>
        <time>2019-05-09T06:35:50Z</time>
      </trkpt>
      <trkpt lat="37.315033" lon="-3.117973">
        <ele>973.000000</ele>
        <time>2019-05-09T06:35:51Z</time>
      </trkpt>
      <trkpt lat="37.315027" lon="-3.117953">
        <ele>973.000000</ele>
        <time>2019-05-09T06:35:52Z</time>
      </trkpt>
      <trkpt lat="37.315019" lon="-3.117933">
        <ele>973.000000</ele>
        <time>2019-05-09T06:35:53Z</time>
      </trkpt>
      <trkpt lat="37.315010" lon="-3.117910">
        <ele>973.000000</ele>
        <time>2019-05-09T06:35:54Z</time>
      </trkpt>
      <trkpt lat="37.315001" lon="-3.117887">
        <ele>973.000000</ele>
        <time>2019-05-09T06:35:55Z</time>
      </trkpt>
      <trkpt lat="37.314992" lon="-3.117863">
        <ele>973.000000</ele>
        <time>2019-05-09T06:35:56Z</time>
      </trkpt>
      <trkpt lat="37.314986" lon="-3.117843">
        <ele>973.000000</ele>
        <time>2019-05-09T06:35:57Z</time>
      </trkpt>
      <trkpt lat="37.314979" lon="-3.117822">
        <ele>973.000000</ele>
        <time>2019-05-09T06:35:59Z</time>
      </trkpt>
      <trkpt lat="37.314972" lon="-3.117798">
        <ele>973.000000</ele>
        <time>2019-05-09T06:35:59Z</time>
      </trkpt>
      <trkpt lat="37.314967" lon="-3.117783">
        <ele>973.000000</ele>
        <time>2019-05-09T06:36:00Z</time>
      </trkpt>
      <trkpt lat="37.314962" lon="-3.117762">
        <ele>973.000000</ele>
        <time>2019-05-09T06:36:01Z</time>
      </trkpt>
      <trkpt lat="37.314960" lon="-3.117748">
        <ele>973.000000</ele>
        <time>2019-05-09T06:36:02Z</time>
      </trkpt>
      <trkpt lat="37.314956" lon="-3.117728">
        <ele>973.000000</ele>
        <time>2019-05-09T06:36:03Z</time>
      </trkpt>
      <trkpt lat="37.314952" lon="-3.117708">
        <ele>973.000000</ele>
        <time>2019-05-09T06:36:04Z</time>
      </trkpt>
      <trkpt lat="37.314946" lon="-3.117680">
        <ele>973.000000</ele>
        <time>2019-05-09T06:36:05Z</time>
      </trkpt>
      <trkpt lat="37.314942" lon="-3.117658">
        <ele>973.000000</ele>
        <time>2019-05-09T06:36:06Z</time>
      </trkpt>
      <trkpt lat="37.314939" lon="-3.117638">
        <ele>973.000000</ele>
        <time>2019-05-09T06:36:07Z</time>
      </trkpt>
      <trkpt lat="37.314934" lon="-3.117612">
        <ele>973.000000</ele>
        <time>2019-05-09T06:36:08Z</time>
      </trkpt>
      <trkpt lat="37.314930" lon="-3.117595">
        <ele>973.000000</ele>
        <time>2019-05-09T06:36:09Z</time>
      </trkpt>
      <trkpt lat="37.314927" lon="-3.117572">
        <ele>973.000000</ele>
        <time>2019-05-09T06:36:10Z</time>
      </trkpt>
      <trkpt lat="37.314923" lon="-3.117553">
        <ele>973.000000</ele>
        <time>2019-05-09T06:36:11Z</time>
      </trkpt>
      <trkpt lat="37.314920" lon="-3.117535">
        <ele>973.000000</ele>
        <time>2019-05-09T06:36:12Z</time>
      </trkpt>
      <trkpt lat="37.314918" lon="-3.117520">
        <ele>973.000000</ele>
        <time>2019-05-09T06:36:13Z</time>
      </trkpt>
      <trkpt lat="37.314916" lon="-3.117503">
        <ele>973.000000</ele>
        <time>2019-05-09T06:36:14Z</time>
      </trkpt>
      <trkpt lat="37.314913" lon="-3.117485">
        <ele>973.000000</ele>
        <time>2019-05-09T06:36:15Z</time>
      </trkpt>
      <trkpt lat="37.314911" lon="-3.117467">
        <ele>973.000000</ele>
        <time>2019-05-09T06:36:16Z</time>
      </trkpt>
      <trkpt lat="37.314908" lon="-3.117443">
        <ele>973.000000</ele>
        <time>2019-05-09T06:36:17Z</time>
      </trkpt>
      <trkpt lat="37.314904" lon="-3.117420">
        <ele>973.000000</ele>
        <time>2019-05-09T06:36:18Z</time>
      </trkpt>
      <trkpt lat="37.314901" lon="-3.117395">
        <ele>973.000000</ele>
        <time>2019-05-09T06:36:19Z</time>
      </trkpt>
      <trkpt lat="37.314899" lon="-3.117370">
        <ele>973.000000</ele>
        <time>2019-05-09T06:36:20Z</time>
      </trkpt>
      <trkpt lat="37.314896" lon="-3.117343">
        <ele>973.000000</ele>
        <time>2019-05-09T06:36:22Z</time>
      </trkpt>
      <trkpt lat="37.314895" lon="-3.117320">
        <ele>973.000000</ele>
        <time>2019-05-09T06:36:22Z</time>
      </trkpt>
      <trkpt lat="37.314893" lon="-3.117298">
        <ele>973.000000</ele>
        <time>2019-05-09T06:36:23Z</time>
      </trkpt>
      <trkpt lat="37.314890" lon="-3.117273">
        <ele>973.000000</ele>
        <time>2019-05-09T06:36:24Z</time>
      </trkpt>
      <trkpt lat="37.314890" lon="-3.117252">
        <ele>973.000000</ele>
        <time>2019-05-09T06:36:25Z</time>
      </trkpt>
      <trkpt lat="37.314888" lon="-3.117228">
        <ele>973.000000</ele>
        <time>2019-05-09T06:36:26Z</time>
      </trkpt>
      <trkpt lat="37.314886" lon="-3.117213">
        <ele>973.000000</ele>
        <time>2019-05-09T06:36:27Z</time>
      </trkpt>
      <trkpt lat="37.314885" lon="-3.117195">
        <ele>973.000000</ele>
        <time>2019-05-09T06:36:28Z</time>
      </trkpt>
      <trkpt lat="37.314884" lon="-3.117177">
        <ele>973.000000</ele>
        <time>2019-05-09T06:36:29Z</time>
      </trkpt>
      <trkpt lat="37.314881" lon="-3.117157">
        <ele>973.000000</ele>
        <time>2019-05-09T06:36:30Z</time>
      </trkpt>
      <trkpt lat="37.314880" lon="-3.117135">
        <ele>973.000000</ele>
        <time>2019-05-09T06:36:31Z</time>
      </trkpt>
      <trkpt lat="37.314876" lon="-3.117112">
        <ele>973.000000</ele>
        <time>2019-05-09T06:36:33Z</time>
      </trkpt>
      <trkpt lat="37.314873" lon="-3.117088">
        <ele>973.000000</ele>
        <time>2019-05-09T06:36:33Z</time>
      </trkpt>
      <trkpt lat="37.314871" lon="-3.117065">
        <ele>973.000000</ele>
        <time>2019-05-09T06:36:34Z</time>
      </trkpt>
      <trkpt lat="37.314866" lon="-3.117042">
        <ele>973.000000</ele>
        <time>2019-05-09T06:36:36Z</time>
      </trkpt>
      <trkpt lat="37.314862" lon="-3.117018">
        <ele>973.000000</ele>
        <time>2019-05-09T06:36:36Z</time>
      </trkpt>
      <trkpt lat="37.314859" lon="-3.116997">
        <ele>973.000000</ele>
        <time>2019-05-09T06:36:37Z</time>
      </trkpt>
      <trkpt lat="37.314853" lon="-3.116973">
        <ele>973.000000</ele>
        <time>2019-05-09T06:36:38Z</time>
      </trkpt>
      <trkpt lat="37.314848" lon="-3.116960">
        <ele>973.000000</ele>
        <time>2019-05-09T06:36:39Z</time>
      </trkpt>
      <trkpt lat="37.314845" lon="-3.116942">
        <ele>973.000000</ele>
        <time>2019-05-09T06:36:40Z</time>
      </trkpt>
      <trkpt lat="37.314841" lon="-3.116923">
        <ele>973.000000</ele>
        <time>2019-05-09T06:36:41Z</time>
      </trkpt>
      <trkpt lat="37.314835" lon="-3.116907">
        <ele>973.000000</ele>
        <time>2019-05-09T06:36:42Z</time>
      </trkpt>
      <trkpt lat="37.314832" lon="-3.116890">
        <ele>973.000000</ele>
        <time>2019-05-09T06:36:43Z</time>
      </trkpt>
      <trkpt lat="37.314826" lon="-3.116873">
        <ele>973.000000</ele>
        <time>2019-05-09T06:36:45Z</time>
      </trkpt>
      <trkpt lat="37.314820" lon="-3.116857">
        <ele>973.000000</ele>
        <time>2019-05-09T06:36:45Z</time>
      </trkpt>
      <trkpt lat="37.314815" lon="-3.116842">
        <ele>973.000000</ele>
        <time>2019-05-09T06:36:46Z</time>
      </trkpt>
      <trkpt lat="37.314809" lon="-3.116825">
        <ele>973.000000</ele>
        <time>2019-05-09T06:36:47Z</time>
      </trkpt>
      <trkpt lat="37.314801" lon="-3.116808">
        <ele>973.000000</ele>
        <time>2019-05-09T06:36:48Z</time>
      </trkpt>
      <trkpt lat="37.314793" lon="-3.116792">
        <ele>973.000000</ele>
        <time>2019-05-09T06:36:49Z</time>
      </trkpt>
      <trkpt lat="37.314785" lon="-3.116773">
        <ele>973.000000</ele>
        <time>2019-05-09T06:36:50Z</time>
      </trkpt>
      <trkpt lat="37.314777" lon="-3.116755">
        <ele>973.000000</ele>
        <time>2019-05-09T06:36:52Z</time>
      </trkpt>
      <trkpt lat="37.314769" lon="-3.116737">
        <ele>973.000000</ele>
        <time>2019-05-09T06:36:52Z</time>
      </trkpt>
      <trkpt lat="37.314759" lon="-3.116722">
        <ele>973.000000</ele>
        <time>2019-05-09T06:36:53Z</time>
      </trkpt>
      <trkpt lat="37.314751" lon="-3.116705">
        <ele>973.000000</ele>
        <time>2019-05-09T06:36:54Z</time>
      </trkpt>
      <trkpt lat="37.314740" lon="-3.116685">
        <ele>972.000000</ele>
        <time>2019-05-09T06:36:55Z</time>
      </trkpt>
      <trkpt lat="37.314729" lon="-3.116668">
        <ele>972.000000</ele>
        <time>2019-05-09T06:36:56Z</time>
      </trkpt>
      <trkpt lat="37.314719" lon="-3.116653">
        <ele>972.000000</ele>
        <time>2019-05-09T06:36:57Z</time>
      </trkpt>
      <trkpt lat="37.314709" lon="-3.116637">
        <ele>972.000000</ele>
        <time>2019-05-09T06:36:58Z</time>
      </trkpt>
      <trkpt lat="37.314696" lon="-3.116620">
        <ele>972.000000</ele>
        <time>2019-05-09T06:36:59Z</time>
      </trkpt>
      <trkpt lat="37.314686" lon="-3.116603">
        <ele>972.000000</ele>
        <time>2019-05-09T06:37:00Z</time>
      </trkpt>
      <trkpt lat="37.314676" lon="-3.116587">
        <ele>972.000000</ele>
        <time>2019-05-09T06:37:01Z</time>
      </trkpt>
      <trkpt lat="37.314661" lon="-3.116565">
        <ele>972.000000</ele>
        <time>2019-05-09T06:37:02Z</time>
      </trkpt>
      <trkpt lat="37.314651" lon="-3.116548">
        <ele>972.000000</ele>
        <time>2019-05-09T06:37:03Z</time>
      </trkpt>
      <trkpt lat="37.314637" lon="-3.116530">
        <ele>972.000000</ele>
        <time>2019-05-09T06:37:04Z</time>
      </trkpt>
      <trkpt lat="37.314626" lon="-3.116512">
        <ele>972.000000</ele>
        <time>2019-05-09T06:37:05Z</time>
      </trkpt>
      <trkpt lat="37.314615" lon="-3.116493">
        <ele>972.000000</ele>
        <time>2019-05-09T06:37:06Z</time>
      </trkpt>
      <trkpt lat="37.314600" lon="-3.116473">
        <ele>972.000000</ele>
        <time>2019-05-09T06:37:07Z</time>
      </trkpt>
      <trkpt lat="37.314587" lon="-3.116457">
        <ele>972.000000</ele>
        <time>2019-05-09T06:37:08Z</time>
      </trkpt>
      <trkpt lat="37.314575" lon="-3.116438">
        <ele>972.000000</ele>
        <time>2019-05-09T06:37:09Z</time>
      </trkpt>
      <trkpt lat="37.314563" lon="-3.116422">
        <ele>971.000000</ele>
        <time>2019-05-09T06:37:10Z</time>
      </trkpt>
      <trkpt lat="37.314552" lon="-3.116407">
        <ele>971.000000</ele>
        <time>2019-05-09T06:37:11Z</time>
      </trkpt>
      <trkpt lat="37.314540" lon="-3.116390">
        <ele>971.000000</ele>
        <time>2019-05-09T06:37:12Z</time>
      </trkpt>
      <trkpt lat="37.314529" lon="-3.116375">
        <ele>971.000000</ele>
        <time>2019-05-09T06:37:13Z</time>
      </trkpt>
      <trkpt lat="37.314520" lon="-3.116362">
        <ele>971.000000</ele>
        <time>2019-05-09T06:37:14Z</time>
      </trkpt>
      <trkpt lat="37.314507" lon="-3.116345">
        <ele>971.000000</ele>
        <time>2019-05-09T06:37:15Z</time>
      </trkpt>
      <trkpt lat="37.314501" lon="-3.116338">
        <ele>971.000000</ele>
        <time>2019-05-09T06:37:16Z</time>
      </trkpt>
      <trkpt lat="37.314490" lon="-3.116327">
        <ele>971.000000</ele>
        <time>2019-05-09T06:37:18Z</time>
      </trkpt>
      <trkpt lat="37.314450" lon="-3.116318">
        <ele>971.000000</ele>
        <time>2019-05-09T06:37:18Z</time>
      </trkpt>
      <trkpt lat="37.314438" lon="-3.116308">
        <ele>971.000000</ele>
        <time>2019-05-09T06:37:19Z</time>
      </trkpt>
      <trkpt lat="37.314425" lon="-3.116295">
        <ele>971.000000</ele>
        <time>2019-05-09T06:37:20Z</time>
      </trkpt>
      <trkpt lat="37.314410" lon="-3.116283">
        <ele>971.000000</ele>
        <time>2019-05-09T06:37:21Z</time>
      </trkpt>
      <trkpt lat="37.314395" lon="-3.116271">
        <ele>971.000000</ele>
        <time>2019-05-09T06:37:22Z</time>
      </trkpt>
      <trkpt lat="37.314377" lon="-3.116257">
        <ele>971.000000</ele>
        <time>2019-05-09T06:37:23Z</time>
      </trkpt>
      <trkpt lat="37.314362" lon="-3.116246">
        <ele>971.000000</ele>
        <time>2019-05-09T06:37:24Z</time>
      </trkpt>
      <trkpt lat="37.314347" lon="-3.116234">
        <ele>971.000000</ele>
        <time>2019-05-09T06:37:25Z</time>
      </trkpt>
      <trkpt lat="37.314332" lon="-3.116224">
        <ele>971.000000</ele>
        <time>2019-05-09T06:37:26Z</time>
      </trkpt>
      <trkpt lat="37.314318" lon="-3.116215">
        <ele>971.000000</ele>
        <time>2019-05-09T06:37:27Z</time>
      </trkpt>
      <trkpt lat="37.314305" lon="-3.116207">
        <ele>971.000000</ele>
        <time>2019-05-09T06:37:28Z</time>
      </trkpt>
      <trkpt lat="37.314293" lon="-3.116199">
        <ele>971.000000</ele>
        <time>2019-05-09T06:37:29Z</time>
      </trkpt>
      <trkpt lat="37.314280" lon="-3.116190">
        <ele>971.000000</ele>
        <time>2019-05-09T06:37:30Z</time>
      </trkpt>
      <trkpt lat="37.314267" lon="-3.116181">
        <ele>971.000000</ele>
        <time>2019-05-09T06:37:31Z</time>
      </trkpt>
      <trkpt lat="37.314253" lon="-3.116171">
        <ele>971.000000</ele>
        <time>2019-05-09T06:37:32Z</time>
      </trkpt>
      <trkpt lat="37.314238" lon="-3.116159">
        <ele>971.000000</ele>
        <time>2019-05-09T06:37:33Z</time>
      </trkpt>
      <trkpt lat="37.314223" lon="-3.116147">
        <ele>971.000000</ele>
        <time>2019-05-09T06:37:34Z</time>
      </trkpt>
      <trkpt lat="37.314208" lon="-3.116135">
        <ele>971.000000</ele>
        <time>2019-05-09T06:37:35Z</time>
      </trkpt>
      <trkpt lat="37.314193" lon="-3.116122">
        <ele>971.000000</ele>
        <time>2019-05-09T06:37:36Z</time>
      </trkpt>
      <trkpt lat="37.314178" lon="-3.116109">
        <ele>971.000000</ele>
        <time>2019-05-09T06:37:37Z</time>
      </trkpt>
      <trkpt lat="37.314165" lon="-3.116097">
        <ele>971.000000</ele>
        <time>2019-05-09T06:37:38Z</time>
      </trkpt>
      <trkpt lat="37.314153" lon="-3.116087">
        <ele>971.000000</ele>
        <time>2019-05-09T06:37:39Z</time>
      </trkpt>
      <trkpt lat="37.314138" lon="-3.116074">
        <ele>971.000000</ele>
        <time>2019-05-09T06:37:40Z</time>
      </trkpt>
      <trkpt lat="37.314125" lon="-3.116062">
        <ele>971.000000</ele>
        <time>2019-05-09T06:37:41Z</time>
      </trkpt>
      <trkpt lat="37.314112" lon="-3.116051">
        <ele>971.000000</ele>
        <time>2019-05-09T06:37:42Z</time>
      </trkpt>
      <trkpt lat="37.314100" lon="-3.116041">
        <ele>971.000000</ele>
        <time>2019-05-09T06:37:43Z</time>
      </trkpt>
      <trkpt lat="37.314085" lon="-3.116029">
        <ele>971.000000</ele>
        <time>2019-05-09T06:37:44Z</time>
      </trkpt>
      <trkpt lat="37.314067" lon="-3.116013">
        <ele>971.000000</ele>
        <time>2019-05-09T06:37:45Z</time>
      </trkpt>
      <trkpt lat="37.314052" lon="-3.116000">
        <ele>971.000000</ele>
        <time>2019-05-09T06:37:46Z</time>
      </trkpt>
      <trkpt lat="37.314037" lon="-3.115987">
        <ele>971.000000</ele>
        <time>2019-05-09T06:37:47Z</time>
      </trkpt>
      <trkpt lat="37.314022" lon="-3.115974">
        <ele>971.000000</ele>
        <time>2019-05-09T06:37:50Z</time>
      </trkpt>
      <trkpt lat="37.313995" lon="-3.115952">
        <ele>971.000000</ele>
        <time>2019-05-09T06:37:50Z</time>
      </trkpt>
      <trkpt lat="37.313983" lon="-3.115941">
        <ele>971.000000</ele>
        <time>2019-05-09T06:37:51Z</time>
      </trkpt>
      <trkpt lat="37.313973" lon="-3.115932">
        <ele>971.000000</ele>
        <time>2019-05-09T06:37:52Z</time>
      </trkpt>
      <trkpt lat="37.313960" lon="-3.115919">
        <ele>971.000000</ele>
        <time>2019-05-09T06:37:53Z</time>
      </trkpt>
      <trkpt lat="37.313947" lon="-3.115907">
        <ele>971.000000</ele>
        <time>2019-05-09T06:37:54Z</time>
      </trkpt>
      <trkpt lat="37.313933" lon="-3.115895">
        <ele>971.000000</ele>
        <time>2019-05-09T06:37:55Z</time>
      </trkpt>
      <trkpt lat="37.313918" lon="-3.115881">
        <ele>971.000000</ele>
        <time>2019-05-09T06:37:56Z</time>
      </trkpt>
      <trkpt lat="37.313907" lon="-3.115870">
        <ele>971.000000</ele>
        <time>2019-05-09T06:37:57Z</time>
      </trkpt>
      <trkpt lat="37.313892" lon="-3.115856">
        <ele>971.000000</ele>
        <time>2019-05-09T06:37:58Z</time>
      </trkpt>
      <trkpt lat="37.313878" lon="-3.115843">
        <ele>971.000000</ele>
        <time>2019-05-09T06:37:59Z</time>
      </trkpt>
      <trkpt lat="37.313865" lon="-3.115830">
        <ele>971.000000</ele>
        <time>2019-05-09T06:38:00Z</time>
      </trkpt>
      <trkpt lat="37.313852" lon="-3.115817">
        <ele>971.000000</ele>
        <time>2019-05-09T06:38:00Z</time>
      </trkpt>
      <trkpt lat="37.313840" lon="-3.115806">
        <ele>971.000000</ele>
        <time>2019-05-09T06:38:02Z</time>
      </trkpt>
      <trkpt lat="37.313827" lon="-3.115793">
        <ele>971.000000</ele>
        <time>2019-05-09T06:38:02Z</time>
      </trkpt>
      <trkpt lat="37.313813" lon="-3.115779">
        <ele>971.000000</ele>
        <time>2019-05-09T06:38:03Z</time>
      </trkpt>
      <trkpt lat="37.313800" lon="-3.115766">
        <ele>971.000000</ele>
        <time>2019-05-09T06:38:04Z</time>
      </trkpt>
      <trkpt lat="37.313790" lon="-3.115755">
        <ele>971.000000</ele>
        <time>2019-05-09T06:38:05Z</time>
      </trkpt>
      <trkpt lat="37.313780" lon="-3.115745">
        <ele>971.000000</ele>
        <time>2019-05-09T06:38:06Z</time>
      </trkpt>
      <trkpt lat="37.313767" lon="-3.115733">
        <ele>971.000000</ele>
        <time>2019-05-09T06:38:07Z</time>
      </trkpt>
      <trkpt lat="37.313753" lon="-3.115719">
        <ele>971.000000</ele>
        <time>2019-05-09T06:38:08Z</time>
      </trkpt>
      <trkpt lat="37.313742" lon="-3.115705">
        <ele>971.000000</ele>
        <time>2019-05-09T06:38:09Z</time>
      </trkpt>
      <trkpt lat="37.313732" lon="-3.115694">
        <ele>971.000000</ele>
        <time>2019-05-09T06:38:10Z</time>
      </trkpt>
      <trkpt lat="37.313720" lon="-3.115682">
        <ele>971.000000</ele>
        <time>2019-05-09T06:38:11Z</time>
      </trkpt>
      <trkpt lat="37.313703" lon="-3.115665">
        <ele>971.000000</ele>
        <time>2019-05-09T06:38:12Z</time>
      </trkpt>
      <trkpt lat="37.313690" lon="-3.115652">
        <ele>971.000000</ele>
        <time>2019-05-09T06:38:13Z</time>
      </trkpt>
      <trkpt lat="37.313677" lon="-3.115637">
        <ele>971.000000</ele>
        <time>2019-05-09T06:38:14Z</time>
      </trkpt>
      <trkpt lat="37.313663" lon="-3.115624">
        <ele>971.000000</ele>
        <time>2019-05-09T06:38:15Z</time>
      </trkpt>
      <trkpt lat="37.313648" lon="-3.115609">
        <ele>971.000000</ele>
        <time>2019-05-09T06:38:16Z</time>
      </trkpt>
      <trkpt lat="37.313638" lon="-3.115599">
        <ele>971.000000</ele>
        <time>2019-05-09T06:38:17Z</time>
      </trkpt>
      <trkpt lat="37.313625" lon="-3.115586">
        <ele>971.000000</ele>
        <time>2019-05-09T06:38:18Z</time>
      </trkpt>
      <trkpt lat="37.313610" lon="-3.115571">
        <ele>971.000000</ele>
        <time>2019-05-09T06:38:19Z</time>
      </trkpt>
      <trkpt lat="37.313595" lon="-3.115557">
        <ele>971.000000</ele>
        <time>2019-05-09T06:38:20Z</time>
      </trkpt>
      <trkpt lat="37.313582" lon="-3.115545">
        <ele>971.000000</ele>
        <time>2019-05-09T06:38:21Z</time>
      </trkpt>
      <trkpt lat="37.313563" lon="-3.115528">
        <ele>971.000000</ele>
        <time>2019-05-09T06:38:22Z</time>
      </trkpt>
      <trkpt lat="37.313553" lon="-3.115519">
        <ele>971.000000</ele>
        <time>2019-05-09T06:38:23Z</time>
      </trkpt>
      <trkpt lat="37.313542" lon="-3.115507">
        <ele>971.000000</ele>
        <time>2019-05-09T06:38:24Z</time>
      </trkpt>
      <trkpt lat="37.313528" lon="-3.115494">
        <ele>971.000000</ele>
        <time>2019-05-09T06:38:25Z</time>
      </trkpt>
      <trkpt lat="37.313515" lon="-3.115482">
        <ele>971.000000</ele>
        <time>2019-05-09T06:38:26Z</time>
      </trkpt>
      <trkpt lat="37.313502" lon="-3.115470">
        <ele>971.000000</ele>
        <time>2019-05-09T06:38:27Z</time>
      </trkpt>
      <trkpt lat="37.313490" lon="-3.115459">
        <ele>971.000000</ele>
        <time>2019-05-09T06:38:28Z</time>
      </trkpt>
      <trkpt lat="37.313480" lon="-3.115450">
        <ele>971.000000</ele>
        <time>2019-05-09T06:38:29Z</time>
      </trkpt>
      <trkpt lat="37.313467" lon="-3.115436">
        <ele>971.000000</ele>
        <time>2019-05-09T06:38:30Z</time>
      </trkpt>
      <trkpt lat="37.313457" lon="-3.115426">
        <ele>970.000000</ele>
        <time>2019-05-09T06:38:31Z</time>
      </trkpt>
      <trkpt lat="37.313447" lon="-3.115417">
        <ele>970.000000</ele>
        <time>2019-05-09T06:38:32Z</time>
      </trkpt>
      <trkpt lat="37.313433" lon="-3.115404">
        <ele>970.000000</ele>
        <time>2019-05-09T06:38:33Z</time>
      </trkpt>
      <trkpt lat="37.313418" lon="-3.115388">
        <ele>970.000000</ele>
        <time>2019-05-09T06:38:34Z</time>
      </trkpt>
      <trkpt lat="37.313407" lon="-3.115379">
        <ele>970.000000</ele>
        <time>2019-05-09T06:38:35Z</time>
      </trkpt>
      <trkpt lat="37.313393" lon="-3.115366">
        <ele>970.000000</ele>
        <time>2019-05-09T06:38:36Z</time>
      </trkpt>
      <trkpt lat="37.313383" lon="-3.115356">
        <ele>970.000000</ele>
        <time>2019-05-09T06:38:37Z</time>
      </trkpt>
      <trkpt lat="37.313368" lon="-3.115342">
        <ele>970.000000</ele>
        <time>2019-05-09T06:38:38Z</time>
      </trkpt>
      <trkpt lat="37.313358" lon="-3.115332">
        <ele>970.000000</ele>
        <time>2019-05-09T06:38:39Z</time>
      </trkpt>
      <trkpt lat="37.313348" lon="-3.115324">
        <ele>970.000000</ele>
        <time>2019-05-09T06:38:40Z</time>
      </trkpt>
      <trkpt lat="37.313335" lon="-3.115311">
        <ele>970.000000</ele>
        <time>2019-05-09T06:38:41Z</time>
      </trkpt>
      <trkpt lat="37.313322" lon="-3.115300">
        <ele>970.000000</ele>
        <time>2019-05-09T06:38:42Z</time>
      </trkpt>
      <trkpt lat="37.313307" lon="-3.115287">
        <ele>970.000000</ele>
        <time>2019-05-09T06:38:43Z</time>
      </trkpt>
      <trkpt lat="37.313293" lon="-3.115274">
        <ele>970.000000</ele>
        <time>2019-05-09T06:38:44Z</time>
      </trkpt>
      <trkpt lat="37.313280" lon="-3.115263">
        <ele>970.000000</ele>
        <time>2019-05-09T06:38:45Z</time>
      </trkpt>
      <trkpt lat="37.313267" lon="-3.115252">
        <ele>970.000000</ele>
        <time>2019-05-09T06:38:46Z</time>
      </trkpt>
      <trkpt lat="37.313252" lon="-3.115238">
        <ele>970.000000</ele>
        <time>2019-05-09T06:38:47Z</time>
      </trkpt>
      <trkpt lat="37.313240" lon="-3.115228">
        <ele>970.000000</ele>
        <time>2019-05-09T06:38:48Z</time>
      </trkpt>
      <trkpt lat="37.313228" lon="-3.115217">
        <ele>970.000000</ele>
        <time>2019-05-09T06:38:49Z</time>
      </trkpt>
      <trkpt lat="37.313217" lon="-3.115207">
        <ele>970.000000</ele>
        <time>2019-05-09T06:38:51Z</time>
      </trkpt>
      <trkpt lat="37.313203" lon="-3.115195">
        <ele>970.000000</ele>
        <time>2019-05-09T06:38:51Z</time>
      </trkpt>
      <trkpt lat="37.313192" lon="-3.115184">
        <ele>970.000000</ele>
        <time>2019-05-09T06:38:52Z</time>
      </trkpt>
      <trkpt lat="37.313178" lon="-3.115173">
        <ele>970.000000</ele>
        <time>2019-05-09T06:38:53Z</time>
      </trkpt>
      <trkpt lat="37.313165" lon="-3.115161">
        <ele>970.000000</ele>
        <time>2019-05-09T06:38:54Z</time>
      </trkpt>
      <trkpt lat="37.313153" lon="-3.115151">
        <ele>970.000000</ele>
        <time>2019-05-09T06:38:55Z</time>
      </trkpt>
      <trkpt lat="37.313138" lon="-3.115138">
        <ele>970.000000</ele>
        <time>2019-05-09T06:38:56Z</time>
      </trkpt>
      <trkpt lat="37.313127" lon="-3.115127">
        <ele>970.000000</ele>
        <time>2019-05-09T06:38:57Z</time>
      </trkpt>
      <trkpt lat="37.313117" lon="-3.115118">
        <ele>970.000000</ele>
        <time>2019-05-09T06:38:58Z</time>
      </trkpt>
      <trkpt lat="37.313105" lon="-3.115106">
        <ele>970.000000</ele>
        <time>2019-05-09T06:38:59Z</time>
      </trkpt>
      <trkpt lat="37.313093" lon="-3.115095">
        <ele>970.000000</ele>
        <time>2019-05-09T06:39:00Z</time>
      </trkpt>
      <trkpt lat="37.313080" lon="-3.115082">
        <ele>970.000000</ele>
        <time>2019-05-09T06:39:01Z</time>
      </trkpt>
      <trkpt lat="37.313067" lon="-3.115070">
        <ele>970.000000</ele>
        <time>2019-05-09T06:39:02Z</time>
      </trkpt>
      <trkpt lat="37.313053" lon="-3.115057">
        <ele>970.000000</ele>
        <time>2019-05-09T06:39:03Z</time>
      </trkpt>
      <trkpt lat="37.313042" lon="-3.115046">
        <ele>970.000000</ele>
        <time>2019-05-09T06:39:04Z</time>
      </trkpt>
      <trkpt lat="37.313030" lon="-3.115036">
        <ele>970.000000</ele>
        <time>2019-05-09T06:39:05Z</time>
      </trkpt>
      <trkpt lat="37.313018" lon="-3.115024">
        <ele>970.000000</ele>
        <time>2019-05-09T06:39:06Z</time>
      </trkpt>
      <trkpt lat="37.313010" lon="-3.115016">
        <ele>970.000000</ele>
        <time>2019-05-09T06:39:07Z</time>
      </trkpt>
      <trkpt lat="37.312998" lon="-3.115004">
        <ele>970.000000</ele>
        <time>2019-05-09T06:39:08Z</time>
      </trkpt>
      <trkpt lat="37.312987" lon="-3.114992">
        <ele>970.000000</ele>
        <time>2019-05-09T06:39:09Z</time>
      </trkpt>
      <trkpt lat="37.312973" lon="-3.114980">
        <ele>970.000000</ele>
        <time>2019-05-09T06:39:10Z</time>
      </trkpt>
      <trkpt lat="37.312960" lon="-3.114967">
        <ele>970.000000</ele>
        <time>2019-05-09T06:39:11Z</time>
      </trkpt>
      <trkpt lat="37.312945" lon="-3.114953">
        <ele>970.000000</ele>
        <time>2019-05-09T06:39:12Z</time>
      </trkpt>
      <trkpt lat="37.312932" lon="-3.114939">
        <ele>970.000000</ele>
        <time>2019-05-09T06:39:13Z</time>
      </trkpt>
      <trkpt lat="37.312918" lon="-3.114926">
        <ele>970.000000</ele>
        <time>2019-05-09T06:39:14Z</time>
      </trkpt>
      <trkpt lat="37.312905" lon="-3.114914">
        <ele>970.000000</ele>
        <time>2019-05-09T06:39:15Z</time>
      </trkpt>
      <trkpt lat="37.312893" lon="-3.114903">
        <ele>970.000000</ele>
        <time>2019-05-09T06:39:16Z</time>
      </trkpt>
      <trkpt lat="37.312880" lon="-3.114890">
        <ele>970.000000</ele>
        <time>2019-05-09T06:39:17Z</time>
      </trkpt>
      <trkpt lat="37.312868" lon="-3.114879">
        <ele>970.000000</ele>
        <time>2019-05-09T06:39:18Z</time>
      </trkpt>
      <trkpt lat="37.312862" lon="-3.114873">
        <ele>970.000000</ele>
        <time>2019-05-09T06:39:19Z</time>
      </trkpt>
      <trkpt lat="37.312848" lon="-3.114859">
        <ele>969.000000</ele>
        <time>2019-05-09T06:39:20Z</time>
      </trkpt>
      <trkpt lat="37.312837" lon="-3.114847">
        <ele>969.000000</ele>
        <time>2019-05-09T06:39:21Z</time>
      </trkpt>
      <trkpt lat="37.312828" lon="-3.114838">
        <ele>969.000000</ele>
        <time>2019-05-09T06:39:22Z</time>
      </trkpt>
      <trkpt lat="37.312813" lon="-3.114822">
        <ele>969.000000</ele>
        <time>2019-05-09T06:39:23Z</time>
      </trkpt>
      <trkpt lat="37.312803" lon="-3.114812">
        <ele>969.000000</ele>
        <time>2019-05-09T06:39:24Z</time>
      </trkpt>
      <trkpt lat="37.312793" lon="-3.114801">
        <ele>969.000000</ele>
        <time>2019-05-09T06:39:25Z</time>
      </trkpt>
      <trkpt lat="37.312782" lon="-3.114788">
        <ele>969.000000</ele>
        <time>2019-05-09T06:39:26Z</time>
      </trkpt>
      <trkpt lat="37.312768" lon="-3.114775">
        <ele>969.000000</ele>
        <time>2019-05-09T06:39:27Z</time>
      </trkpt>
      <trkpt lat="37.312757" lon="-3.114762">
        <ele>969.000000</ele>
        <time>2019-05-09T06:39:28Z</time>
      </trkpt>
      <trkpt lat="37.312745" lon="-3.114750">
        <ele>969.000000</ele>
        <time>2019-05-09T06:39:29Z</time>
      </trkpt>
      <trkpt lat="37.312733" lon="-3.114737">
        <ele>969.000000</ele>
        <time>2019-05-09T06:39:30Z</time>
      </trkpt>
      <trkpt lat="37.312722" lon="-3.114725">
        <ele>969.000000</ele>
        <time>2019-05-09T06:39:31Z</time>
      </trkpt>
      <trkpt lat="37.312712" lon="-3.114714">
        <ele>969.000000</ele>
        <time>2019-05-09T06:39:32Z</time>
      </trkpt>
      <trkpt lat="37.312698" lon="-3.114700">
        <ele>969.000000</ele>
        <time>2019-05-09T06:39:33Z</time>
      </trkpt>
      <trkpt lat="37.312688" lon="-3.114689">
        <ele>969.000000</ele>
        <time>2019-05-09T06:39:34Z</time>
      </trkpt>
      <trkpt lat="37.312677" lon="-3.114677">
        <ele>969.000000</ele>
        <time>2019-05-09T06:39:35Z</time>
      </trkpt>
      <trkpt lat="37.312665" lon="-3.114666">
        <ele>969.000000</ele>
        <time>2019-05-09T06:39:36Z</time>
      </trkpt>
      <trkpt lat="37.312653" lon="-3.114653">
        <ele>969.000000</ele>
        <time>2019-05-09T06:39:37Z</time>
      </trkpt>
      <trkpt lat="37.312643" lon="-3.114643">
        <ele>969.000000</ele>
        <time>2019-05-09T06:39:39Z</time>
      </trkpt>
      <trkpt lat="37.312632" lon="-3.114631">
        <ele>969.000000</ele>
        <time>2019-05-09T06:39:39Z</time>
      </trkpt>
      <trkpt lat="37.312620" lon="-3.114619">
        <ele>969.000000</ele>
        <time>2019-05-09T06:39:40Z</time>
      </trkpt>
      <trkpt lat="37.312607" lon="-3.114605">
        <ele>969.000000</ele>
        <time>2019-05-09T06:39:41Z</time>
      </trkpt>
      <trkpt lat="37.312593" lon="-3.114592">
        <ele>969.000000</ele>
        <time>2019-05-09T06:39:42Z</time>
      </trkpt>
      <trkpt lat="37.312580" lon="-3.114579">
        <ele>969.000000</ele>
        <time>2019-05-09T06:39:43Z</time>
      </trkpt>
      <trkpt lat="37.312567" lon="-3.114566">
        <ele>969.000000</ele>
        <time>2019-05-09T06:39:44Z</time>
      </trkpt>
      <trkpt lat="37.312552" lon="-3.114551">
        <ele>969.000000</ele>
        <time>2019-05-09T06:39:45Z</time>
      </trkpt>
      <trkpt lat="37.312538" lon="-3.114539">
        <ele>969.000000</ele>
        <time>2019-05-09T06:39:46Z</time>
      </trkpt>
      <trkpt lat="37.312525" lon="-3.114527">
        <ele>969.000000</ele>
        <time>2019-05-09T06:39:47Z</time>
      </trkpt>
      <trkpt lat="37.312512" lon="-3.114516">
        <ele>969.000000</ele>
        <time>2019-05-09T06:39:48Z</time>
      </trkpt>
      <trkpt lat="37.312498" lon="-3.114503">
        <ele>969.000000</ele>
        <time>2019-05-09T06:39:49Z</time>
      </trkpt>
      <trkpt lat="37.312487" lon="-3.114493">
        <ele>969.000000</ele>
        <time>2019-05-09T06:39:50Z</time>
      </trkpt>
      <trkpt lat="37.312473" lon="-3.114481">
        <ele>969.000000</ele>
        <time>2019-05-09T06:39:51Z</time>
      </trkpt>
      <trkpt lat="37.312460" lon="-3.114469">
        <ele>969.000000</ele>
        <time>2019-05-09T06:39:52Z</time>
      </trkpt>
      <trkpt lat="37.312447" lon="-3.114458">
        <ele>969.000000</ele>
        <time>2019-05-09T06:39:53Z</time>
      </trkpt>
      <trkpt lat="37.312433" lon="-3.114446">
        <ele>969.000000</ele>
        <time>2019-05-09T06:39:54Z</time>
      </trkpt>
      <trkpt lat="37.312422" lon="-3.114436">
        <ele>969.000000</ele>
        <time>2019-05-09T06:39:55Z</time>
      </trkpt>
      <trkpt lat="37.312408" lon="-3.114424">
        <ele>969.000000</ele>
        <time>2019-05-09T06:39:56Z</time>
      </trkpt>
      <trkpt lat="37.312395" lon="-3.114412">
        <ele>969.000000</ele>
        <time>2019-05-09T06:39:57Z</time>
      </trkpt>
      <trkpt lat="37.312385" lon="-3.114403">
        <ele>969.000000</ele>
        <time>2019-05-09T06:39:58Z</time>
      </trkpt>
      <trkpt lat="37.312375" lon="-3.114395">
        <ele>969.000000</ele>
        <time>2019-05-09T06:39:59Z</time>
      </trkpt>
      <trkpt lat="37.312362" lon="-3.114383">
        <ele>969.000000</ele>
        <time>2019-05-09T06:40:00Z</time>
      </trkpt>
      <trkpt lat="37.312348" lon="-3.114370">
        <ele>969.000000</ele>
        <time>2019-05-09T06:40:01Z</time>
      </trkpt>
      <trkpt lat="37.312337" lon="-3.114361">
        <ele>969.000000</ele>
        <time>2019-05-09T06:40:02Z</time>
      </trkpt>
      <trkpt lat="37.312327" lon="-3.114351">
        <ele>969.000000</ele>
        <time>2019-05-09T06:40:03Z</time>
      </trkpt>
      <trkpt lat="37.312313" lon="-3.114339">
        <ele>969.000000</ele>
        <time>2019-05-09T06:40:04Z</time>
      </trkpt>
      <trkpt lat="37.312302" lon="-3.114329">
        <ele>969.000000</ele>
        <time>2019-05-09T06:40:05Z</time>
      </trkpt>
      <trkpt lat="37.312292" lon="-3.114320">
        <ele>969.000000</ele>
        <time>2019-05-09T06:40:06Z</time>
      </trkpt>
      <trkpt lat="37.312278" lon="-3.114308">
        <ele>969.000000</ele>
        <time>2019-05-09T06:40:07Z</time>
      </trkpt>
      <trkpt lat="37.312268" lon="-3.114300">
        <ele>969.000000</ele>
        <time>2019-05-09T06:40:08Z</time>
      </trkpt>
      <trkpt lat="37.312255" lon="-3.114287">
        <ele>969.000000</ele>
        <time>2019-05-09T06:40:09Z</time>
      </trkpt>
      <trkpt lat="37.312242" lon="-3.114275">
        <ele>969.000000</ele>
        <time>2019-05-09T06:40:10Z</time>
      </trkpt>
      <trkpt lat="37.312228" lon="-3.114263">
        <ele>969.000000</ele>
        <time>2019-05-09T06:40:11Z</time>
      </trkpt>
      <trkpt lat="37.312217" lon="-3.114253">
        <ele>969.000000</ele>
        <time>2019-05-09T06:40:12Z</time>
      </trkpt>
      <trkpt lat="37.312203" lon="-3.114240">
        <ele>969.000000</ele>
        <time>2019-05-09T06:40:13Z</time>
      </trkpt>
      <trkpt lat="37.312190" lon="-3.114228">
        <ele>969.000000</ele>
        <time>2019-05-09T06:40:14Z</time>
      </trkpt>
      <trkpt lat="37.312178" lon="-3.114217">
        <ele>969.000000</ele>
        <time>2019-05-09T06:40:15Z</time>
      </trkpt>
      <trkpt lat="37.312167" lon="-3.114207">
        <ele>969.000000</ele>
        <time>2019-05-09T06:40:16Z</time>
      </trkpt>
      <trkpt lat="37.312153" lon="-3.114195">
        <ele>969.000000</ele>
        <time>2019-05-09T06:40:17Z</time>
      </trkpt>
      <trkpt lat="37.312142" lon="-3.114185">
        <ele>969.000000</ele>
        <time>2019-05-09T06:40:18Z</time>
      </trkpt>
      <trkpt lat="37.312128" lon="-3.114172">
        <ele>969.000000</ele>
        <time>2019-05-09T06:40:19Z</time>
      </trkpt>
      <trkpt lat="37.312117" lon="-3.114162">
        <ele>969.000000</ele>
        <time>2019-05-09T06:40:20Z</time>
      </trkpt>
      <trkpt lat="37.312105" lon="-3.114152">
        <ele>969.000000</ele>
        <time>2019-05-09T06:40:21Z</time>
      </trkpt>
      <trkpt lat="37.312093" lon="-3.114140">
        <ele>969.000000</ele>
        <time>2019-05-09T06:40:22Z</time>
      </trkpt>
      <trkpt lat="37.312082" lon="-3.114129">
        <ele>969.000000</ele>
        <time>2019-05-09T06:40:23Z</time>
      </trkpt>
      <trkpt lat="37.312072" lon="-3.114120">
        <ele>969.000000</ele>
        <time>2019-05-09T06:40:24Z</time>
      </trkpt>
      <trkpt lat="37.312057" lon="-3.114106">
        <ele>969.000000</ele>
        <time>2019-05-09T06:40:26Z</time>
      </trkpt>
      <trkpt lat="37.312045" lon="-3.114095">
        <ele>969.000000</ele>
        <time>2019-05-09T06:40:26Z</time>
      </trkpt>
      <trkpt lat="37.312032" lon="-3.114084">
        <ele>969.000000</ele>
        <time>2019-05-09T06:40:27Z</time>
      </trkpt>
      <trkpt lat="37.312020" lon="-3.114074">
        <ele>969.000000</ele>
        <time>2019-05-09T06:40:28Z</time>
      </trkpt>
      <trkpt lat="37.312005" lon="-3.114060">
        <ele>969.000000</ele>
        <time>2019-05-09T06:40:29Z</time>
      </trkpt>
      <trkpt lat="37.311990" lon="-3.114047">
        <ele>969.000000</ele>
        <time>2019-05-09T06:40:30Z</time>
      </trkpt>
      <trkpt lat="37.311978" lon="-3.114037">
        <ele>969.000000</ele>
        <time>2019-05-09T06:40:31Z</time>
      </trkpt>
      <trkpt lat="37.311968" lon="-3.114029">
        <ele>969.000000</ele>
        <time>2019-05-09T06:40:32Z</time>
      </trkpt>
      <trkpt lat="37.311955" lon="-3.114017">
        <ele>969.000000</ele>
        <time>2019-05-09T06:40:33Z</time>
      </trkpt>
      <trkpt lat="37.311940" lon="-3.114004">
        <ele>969.000000</ele>
        <time>2019-05-09T06:40:34Z</time>
      </trkpt>
      <trkpt lat="37.311928" lon="-3.113994">
        <ele>969.000000</ele>
        <time>2019-05-09T06:40:35Z</time>
      </trkpt>
      <trkpt lat="37.311917" lon="-3.113984">
        <ele>969.000000</ele>
        <time>2019-05-09T06:40:36Z</time>
      </trkpt>
      <trkpt lat="37.311903" lon="-3.113973">
        <ele>969.000000</ele>
        <time>2019-05-09T06:40:37Z</time>
      </trkpt>
      <trkpt lat="37.311892" lon="-3.113962">
        <ele>969.000000</ele>
        <time>2019-05-09T06:40:38Z</time>
      </trkpt>
      <trkpt lat="37.311878" lon="-3.113950">
        <ele>969.000000</ele>
        <time>2019-05-09T06:40:39Z</time>
      </trkpt>
      <trkpt lat="37.311867" lon="-3.113941">
        <ele>969.000000</ele>
        <time>2019-05-09T06:40:40Z</time>
      </trkpt>
      <trkpt lat="37.311857" lon="-3.113932">
        <ele>969.000000</ele>
        <time>2019-05-09T06:40:41Z</time>
      </trkpt>
      <trkpt lat="37.311843" lon="-3.113921">
        <ele>969.000000</ele>
        <time>2019-05-09T06:40:42Z</time>
      </trkpt>
      <trkpt lat="37.311830" lon="-3.113910">
        <ele>969.000000</ele>
        <time>2019-05-09T06:40:43Z</time>
      </trkpt>
      <trkpt lat="37.311818" lon="-3.113901">
        <ele>969.000000</ele>
        <time>2019-05-09T06:40:44Z</time>
      </trkpt>
      <trkpt lat="37.311803" lon="-3.113888">
        <ele>969.000000</ele>
        <time>2019-05-09T06:40:45Z</time>
      </trkpt>
      <trkpt lat="37.311792" lon="-3.113878">
        <ele>969.000000</ele>
        <time>2019-05-09T06:40:46Z</time>
      </trkpt>
      <trkpt lat="37.311777" lon="-3.113866">
        <ele>969.000000</ele>
        <time>2019-05-09T06:40:47Z</time>
      </trkpt>
      <trkpt lat="37.311763" lon="-3.113855">
        <ele>969.000000</ele>
        <time>2019-05-09T06:40:48Z</time>
      </trkpt>
      <trkpt lat="37.311750" lon="-3.113844">
        <ele>969.000000</ele>
        <time>2019-05-09T06:40:49Z</time>
      </trkpt>
      <trkpt lat="37.311738" lon="-3.113835">
        <ele>969.000000</ele>
        <time>2019-05-09T06:40:50Z</time>
      </trkpt>
      <trkpt lat="37.311727" lon="-3.113824">
        <ele>969.000000</ele>
        <time>2019-05-09T06:40:51Z</time>
      </trkpt>
      <trkpt lat="37.311717" lon="-3.113815">
        <ele>969.000000</ele>
        <time>2019-05-09T06:40:52Z</time>
      </trkpt>
      <trkpt lat="37.311705" lon="-3.113805">
        <ele>969.000000</ele>
        <time>2019-05-09T06:40:53Z</time>
      </trkpt>
      <trkpt lat="37.311692" lon="-3.113793">
        <ele>969.000000</ele>
        <time>2019-05-09T06:40:54Z</time>
      </trkpt>
      <trkpt lat="37.311682" lon="-3.113783">
        <ele>969.000000</ele>
        <time>2019-05-09T06:40:55Z</time>
      </trkpt>
      <trkpt lat="37.311670" lon="-3.113772">
        <ele>969.000000</ele>
        <time>2019-05-09T06:40:56Z</time>
      </trkpt>
      <trkpt lat="37.311657" lon="-3.113758">
        <ele>969.000000</ele>
        <time>2019-05-09T06:40:57Z</time>
      </trkpt>
      <trkpt lat="37.311647" lon="-3.113749">
        <ele>969.000000</ele>
        <time>2019-05-09T06:40:58Z</time>
      </trkpt>
      <trkpt lat="37.311630" lon="-3.113732">
        <ele>969.000000</ele>
        <time>2019-05-09T06:40:59Z</time>
      </trkpt>
      <trkpt lat="37.311615" lon="-3.113719">
        <ele>969.000000</ele>
        <time>2019-05-09T06:41:00Z</time>
      </trkpt>
      <trkpt lat="37.311598" lon="-3.113704">
        <ele>969.000000</ele>
        <time>2019-05-09T06:41:01Z</time>
      </trkpt>
      <trkpt lat="37.311582" lon="-3.113690">
        <ele>969.000000</ele>
        <time>2019-05-09T06:41:02Z</time>
      </trkpt>
      <trkpt lat="37.311563" lon="-3.113675">
        <ele>969.000000</ele>
        <time>2019-05-09T06:41:03Z</time>
      </trkpt>
      <trkpt lat="37.311545" lon="-3.113659">
        <ele>969.000000</ele>
        <time>2019-05-09T06:41:04Z</time>
      </trkpt>
      <trkpt lat="37.311527" lon="-3.113645">
        <ele>969.000000</ele>
        <time>2019-05-09T06:41:05Z</time>
      </trkpt>
      <trkpt lat="37.311513" lon="-3.113636">
        <ele>969.000000</ele>
        <time>2019-05-09T06:41:06Z</time>
      </trkpt>
      <trkpt lat="37.311498" lon="-3.113626">
        <ele>969.000000</ele>
        <time>2019-05-09T06:41:07Z</time>
      </trkpt>
      <trkpt lat="37.311483" lon="-3.113617">
        <ele>969.000000</ele>
        <time>2019-05-09T06:41:08Z</time>
      </trkpt>
      <trkpt lat="37.311468" lon="-3.113607">
        <ele>969.000000</ele>
        <time>2019-05-09T06:41:09Z</time>
      </trkpt>
      <trkpt lat="37.311453" lon="-3.113599">
        <ele>969.000000</ele>
        <time>2019-05-09T06:41:10Z</time>
      </trkpt>
      <trkpt lat="37.311437" lon="-3.113592">
        <ele>969.000000</ele>
        <time>2019-05-09T06:41:12Z</time>
      </trkpt>
      <trkpt lat="37.311420" lon="-3.113585">
        <ele>969.000000</ele>
        <time>2019-05-09T06:41:12Z</time>
      </trkpt>
      <trkpt lat="37.311402" lon="-3.113663">
        <ele>969.000000</ele>
        <time>2019-05-09T06:41:13Z</time>
      </trkpt>
      <trkpt lat="37.311383" lon="-3.113670">
        <ele>969.000000</ele>
        <time>2019-05-09T06:41:14Z</time>
      </trkpt>
      <trkpt lat="37.311365" lon="-3.113680">
        <ele>969.000000</ele>
        <time>2019-05-09T06:41:15Z</time>
      </trkpt>
      <trkpt lat="37.311348" lon="-3.113690">
        <ele>969.000000</ele>
        <time>2019-05-09T06:41:16Z</time>
      </trkpt>
      <trkpt lat="37.311333" lon="-3.113702">
        <ele>969.000000</ele>
        <time>2019-05-09T06:41:17Z</time>
      </trkpt>
      <trkpt lat="37.311318" lon="-3.113715">
        <ele>969.000000</ele>
        <time>2019-05-09T06:41:18Z</time>
      </trkpt>
      <trkpt lat="37.311303" lon="-3.113728">
        <ele>969.000000</ele>
        <time>2019-05-09T06:41:19Z</time>
      </trkpt>
      <trkpt lat="37.311292" lon="-3.113742">
        <ele>969.000000</ele>
        <time>2019-05-09T06:41:20Z</time>
      </trkpt>
      <trkpt lat="37.311280" lon="-3.113753">
        <ele>969.000000</ele>
        <time>2019-05-09T06:41:21Z</time>
      </trkpt>
      <trkpt lat="37.311270" lon="-3.113765">
        <ele>969.000000</ele>
        <time>2019-05-09T06:41:22Z</time>
      </trkpt>
      <trkpt lat="37.311260" lon="-3.113775">
        <ele>969.000000</ele>
        <time>2019-05-09T06:41:23Z</time>
      </trkpt>
      <trkpt lat="37.311250" lon="-3.113785">
        <ele>969.000000</ele>
        <time>2019-05-09T06:41:24Z</time>
      </trkpt>
      <trkpt lat="37.311242" lon="-3.113796">
        <ele>969.000000</ele>
        <time>2019-05-09T06:41:25Z</time>
      </trkpt>
      <trkpt lat="37.311232" lon="-3.113810">
        <ele>969.000000</ele>
        <time>2019-05-09T06:41:26Z</time>
      </trkpt>
      <trkpt lat="37.311223" lon="-3.113823">
        <ele>969.000000</ele>
        <time>2019-05-09T06:41:27Z</time>
      </trkpt>
      <trkpt lat="37.311213" lon="-3.113839">
        <ele>969.000000</ele>
        <time>2019-05-09T06:41:28Z</time>
      </trkpt>
      <trkpt lat="37.311202" lon="-3.113858">
        <ele>969.000000</ele>
        <time>2019-05-09T06:41:29Z</time>
      </trkpt>
      <trkpt lat="37.311192" lon="-3.113875">
        <ele>969.000000</ele>
        <time>2019-05-09T06:41:30Z</time>
      </trkpt>
      <trkpt lat="37.311180" lon="-3.113897">
        <ele>969.000000</ele>
        <time>2019-05-09T06:41:31Z</time>
      </trkpt>
      <trkpt lat="37.311168" lon="-3.113915">
        <ele>969.000000</ele>
        <time>2019-05-09T06:41:32Z</time>
      </trkpt>
      <trkpt lat="37.311156" lon="-3.113930">
        <ele>969.000000</ele>
        <time>2019-05-09T06:41:33Z</time>
      </trkpt>
      <trkpt lat="37.311145" lon="-3.113945">
        <ele>969.000000</ele>
        <time>2019-05-09T06:41:34Z</time>
      </trkpt>
      <trkpt lat="37.311133" lon="-3.113962">
        <ele>969.000000</ele>
        <time>2019-05-09T06:41:35Z</time>
      </trkpt>
      <trkpt lat="37.311121" lon="-3.113980">
        <ele>969.000000</ele>
        <time>2019-05-09T06:41:36Z</time>
      </trkpt>
      <trkpt lat="37.311110" lon="-3.113998">
        <ele>969.000000</ele>
        <time>2019-05-09T06:41:37Z</time>
      </trkpt>
      <trkpt lat="37.311101" lon="-3.114013">
        <ele>969.000000</ele>
        <time>2019-05-09T06:41:38Z</time>
      </trkpt>
      <trkpt lat="37.311089" lon="-3.114032">
        <ele>969.000000</ele>
        <time>2019-05-09T06:41:39Z</time>
      </trkpt>
      <trkpt lat="37.311078" lon="-3.114048">
        <ele>968.000000</ele>
        <time>2019-05-09T06:41:40Z</time>
      </trkpt>
      <trkpt lat="37.311065" lon="-3.114067">
        <ele>968.000000</ele>
        <time>2019-05-09T06:41:41Z</time>
      </trkpt>
      <trkpt lat="37.311051" lon="-3.114085">
        <ele>968.000000</ele>
        <time>2019-05-09T06:41:42Z</time>
      </trkpt>
      <trkpt lat="37.311039" lon="-3.114102">
        <ele>968.000000</ele>
        <time>2019-05-09T06:41:43Z</time>
      </trkpt>
      <trkpt lat="37.311024" lon="-3.114122">
        <ele>968.000000</ele>
        <time>2019-05-09T06:41:44Z</time>
      </trkpt>
      <trkpt lat="37.311010" lon="-3.114140">
        <ele>968.000000</ele>
        <time>2019-05-09T06:41:45Z</time>
      </trkpt>
      <trkpt lat="37.310999" lon="-3.114155">
        <ele>967.000000</ele>
        <time>2019-05-09T06:41:46Z</time>
      </trkpt>
      <trkpt lat="37.310988" lon="-3.114170">
        <ele>967.000000</ele>
        <time>2019-05-09T06:41:47Z</time>
      </trkpt>
      <trkpt lat="37.310978" lon="-3.114183">
        <ele>967.000000</ele>
        <time>2019-05-09T06:41:48Z</time>
      </trkpt>
      <trkpt lat="37.310965" lon="-3.114203">
        <ele>967.000000</ele>
        <time>2019-05-09T06:41:49Z</time>
      </trkpt>
      <trkpt lat="37.310952" lon="-3.114222">
        <ele>967.000000</ele>
        <time>2019-05-09T06:41:50Z</time>
      </trkpt>
      <trkpt lat="37.310938" lon="-3.114243">
        <ele>967.000000</ele>
        <time>2019-05-09T06:41:51Z</time>
      </trkpt>
      <trkpt lat="37.310924" lon="-3.114265">
        <ele>967.000000</ele>
        <time>2019-05-09T06:41:52Z</time>
      </trkpt>
      <trkpt lat="37.310912" lon="-3.114282">
        <ele>967.000000</ele>
        <time>2019-05-09T06:41:53Z</time>
      </trkpt>
      <trkpt lat="37.310899" lon="-3.114300">
        <ele>967.000000</ele>
        <time>2019-05-09T06:41:54Z</time>
      </trkpt>
      <trkpt lat="37.310886" lon="-3.114318">
        <ele>967.000000</ele>
        <time>2019-05-09T06:41:55Z</time>
      </trkpt>
      <trkpt lat="37.310874" lon="-3.114335">
        <ele>966.000000</ele>
        <time>2019-05-09T06:41:56Z</time>
      </trkpt>
      <trkpt lat="37.310863" lon="-3.114350">
        <ele>966.000000</ele>
        <time>2019-05-09T06:41:57Z</time>
      </trkpt>
      <trkpt lat="37.310854" lon="-3.114363">
        <ele>966.000000</ele>
        <time>2019-05-09T06:41:59Z</time>
      </trkpt>
      <trkpt lat="37.310845" lon="-3.114375">
        <ele>966.000000</ele>
        <time>2019-05-09T06:41:59Z</time>
      </trkpt>
      <trkpt lat="37.310836" lon="-3.114387">
        <ele>966.000000</ele>
        <time>2019-05-09T06:42:00Z</time>
      </trkpt>
      <trkpt lat="37.310827" lon="-3.114400">
        <ele>965.000000</ele>
        <time>2019-05-09T06:42:01Z</time>
      </trkpt>
      <trkpt lat="37.310815" lon="-3.114415">
        <ele>965.000000</ele>
        <time>2019-05-09T06:42:02Z</time>
      </trkpt>
      <trkpt lat="37.310802" lon="-3.114432">
        <ele>965.000000</ele>
        <time>2019-05-09T06:42:03Z</time>
      </trkpt>
      <trkpt lat="37.310788" lon="-3.114450">
        <ele>965.000000</ele>
        <time>2019-05-09T06:42:04Z</time>
      </trkpt>
      <trkpt lat="37.310763" lon="-3.114467">
        <ele>965.000000</ele>
        <time>2019-05-09T06:42:05Z</time>
      </trkpt>
      <trkpt lat="37.310748" lon="-3.114485">
        <ele>964.000000</ele>
        <time>2019-05-09T06:42:06Z</time>
      </trkpt>
      <trkpt lat="37.310733" lon="-3.114500">
        <ele>964.000000</ele>
        <time>2019-05-09T06:42:07Z</time>
      </trkpt>
      <trkpt lat="37.310722" lon="-3.114513">
        <ele>964.000000</ele>
        <time>2019-05-09T06:42:08Z</time>
      </trkpt>
      <trkpt lat="37.310708" lon="-3.114526">
        <ele>964.000000</ele>
        <time>2019-05-09T06:42:09Z</time>
      </trkpt>
      <trkpt lat="37.310697" lon="-3.114537">
        <ele>963.000000</ele>
        <time>2019-05-09T06:42:10Z</time>
      </trkpt>
      <trkpt lat="37.310683" lon="-3.114550">
        <ele>963.000000</ele>
        <time>2019-05-09T06:42:11Z</time>
      </trkpt>
      <trkpt lat="37.310672" lon="-3.114562">
        <ele>963.000000</ele>
        <time>2019-05-09T06:42:12Z</time>
      </trkpt>
      <trkpt lat="37.310657" lon="-3.114575">
        <ele>963.000000</ele>
        <time>2019-05-09T06:42:13Z</time>
      </trkpt>
      <trkpt lat="37.310643" lon="-3.114587">
        <ele>963.000000</ele>
        <time>2019-05-09T06:42:14Z</time>
      </trkpt>
      <trkpt lat="37.310627" lon="-3.114602">
        <ele>962.000000</ele>
        <time>2019-05-09T06:42:15Z</time>
      </trkpt>
      <trkpt lat="37.310610" lon="-3.114615">
        <ele>962.000000</ele>
        <time>2019-05-09T06:42:15Z</time>
      </trkpt>
      <trkpt lat="37.310592" lon="-3.114629">
        <ele>962.000000</ele>
        <time>2019-05-09T06:42:16Z</time>
      </trkpt>
      <trkpt lat="37.310573" lon="-3.114641">
        <ele>962.000000</ele>
        <time>2019-05-09T06:42:17Z</time>
      </trkpt>
      <trkpt lat="37.310557" lon="-3.114652">
        <ele>961.000000</ele>
        <time>2019-05-09T06:42:18Z</time>
      </trkpt>
      <trkpt lat="37.310543" lon="-3.114661">
        <ele>961.000000</ele>
        <time>2019-05-09T06:42:19Z</time>
      </trkpt>
      <trkpt lat="37.310528" lon="-3.114671">
        <ele>961.000000</ele>
        <time>2019-05-09T06:42:20Z</time>
      </trkpt>
      <trkpt lat="37.310517" lon="-3.114679">
        <ele>961.000000</ele>
        <time>2019-05-09T06:42:21Z</time>
      </trkpt>
      <trkpt lat="37.310503" lon="-3.114690">
        <ele>961.000000</ele>
        <time>2019-05-09T06:42:22Z</time>
      </trkpt>
      <trkpt lat="37.310490" lon="-3.114701">
        <ele>960.000000</ele>
        <time>2019-05-09T06:42:23Z</time>
      </trkpt>
      <trkpt lat="37.310475" lon="-3.114714">
        <ele>960.000000</ele>
        <time>2019-05-09T06:42:24Z</time>
      </trkpt>
      <trkpt lat="37.310458" lon="-3.114726">
        <ele>960.000000</ele>
        <time>2019-05-09T06:42:25Z</time>
      </trkpt>
      <trkpt lat="37.310442" lon="-3.114739">
        <ele>960.000000</ele>
        <time>2019-05-09T06:42:26Z</time>
      </trkpt>
      <trkpt lat="37.310425" lon="-3.114751">
        <ele>960.000000</ele>
        <time>2019-05-09T06:42:27Z</time>
      </trkpt>
      <trkpt lat="37.310408" lon="-3.114763">
        <ele>960.000000</ele>
        <time>2019-05-09T06:42:28Z</time>
      </trkpt>
      <trkpt lat="37.310388" lon="-3.114777">
        <ele>959.000000</ele>
        <time>2019-05-09T06:42:29Z</time>
      </trkpt>
      <trkpt lat="37.310372" lon="-3.114788">
        <ele>959.000000</ele>
        <time>2019-05-09T06:42:30Z</time>
      </trkpt>
      <trkpt lat="37.310357" lon="-3.114798">
        <ele>959.000000</ele>
        <time>2019-05-09T06:42:31Z</time>
      </trkpt>
      <trkpt lat="37.310342" lon="-3.114808">
        <ele>959.000000</ele>
        <time>2019-05-09T06:42:32Z</time>
      </trkpt>
      <trkpt lat="37.310330" lon="-3.114817">
        <ele>959.000000</ele>
        <time>2019-05-09T06:42:33Z</time>
      </trkpt>
      <trkpt lat="37.310313" lon="-3.114828">
        <ele>959.000000</ele>
        <time>2019-05-09T06:42:34Z</time>
      </trkpt>
      <trkpt lat="37.310300" lon="-3.114838">
        <ele>959.000000</ele>
        <time>2019-05-09T06:42:35Z</time>
      </trkpt>
      <trkpt lat="37.310285" lon="-3.114849">
        <ele>959.000000</ele>
        <time>2019-05-09T06:42:36Z</time>
      </trkpt>
      <trkpt lat="37.310270" lon="-3.114860">
        <ele>959.000000</ele>
        <time>2019-05-09T06:42:37Z</time>
      </trkpt>
      <trkpt lat="37.310253" lon="-3.114873">
        <ele>958.000000</ele>
        <time>2019-05-09T06:42:38Z</time>
      </trkpt>
      <trkpt lat="37.310235" lon="-3.114886">
        <ele>958.000000</ele>
        <time>2019-05-09T06:42:39Z</time>
      </trkpt>
      <trkpt lat="37.310220" lon="-3.114898">
        <ele>958.000000</ele>
        <time>2019-05-09T06:42:40Z</time>
      </trkpt>
      <trkpt lat="37.310203" lon="-3.114910">
        <ele>958.000000</ele>
        <time>2019-05-09T06:42:41Z</time>
      </trkpt>
      <trkpt lat="37.310188" lon="-3.114922">
        <ele>958.000000</ele>
        <time>2019-05-09T06:42:42Z</time>
      </trkpt>
      <trkpt lat="37.310173" lon="-3.114935">
        <ele>958.000000</ele>
        <time>2019-05-09T06:42:43Z</time>
      </trkpt>
      <trkpt lat="37.310162" lon="-3.114944">
        <ele>957.000000</ele>
        <time>2019-05-09T06:42:44Z</time>
      </trkpt>
      <trkpt lat="37.310148" lon="-3.114954">
        <ele>957.000000</ele>
        <time>2019-05-09T06:42:45Z</time>
      </trkpt>
      <trkpt lat="37.310135" lon="-3.114966">
        <ele>957.000000</ele>
        <time>2019-05-09T06:42:46Z</time>
      </trkpt>
      <trkpt lat="37.310120" lon="-3.114977">
        <ele>957.000000</ele>
        <time>2019-05-09T06:42:48Z</time>
      </trkpt>
      <trkpt lat="37.310107" lon="-3.114988">
        <ele>957.000000</ele>
        <time>2019-05-09T06:42:48Z</time>
      </trkpt>
      <trkpt lat="37.310092" lon="-3.114999">
        <ele>957.000000</ele>
        <time>2019-05-09T06:42:49Z</time>
      </trkpt>
      <trkpt lat="37.310075" lon="-3.115012">
        <ele>957.000000</ele>
        <time>2019-05-09T06:42:50Z</time>
      </trkpt>
      <trkpt lat="37.310057" lon="-3.115024">
        <ele>956.000000</ele>
        <time>2019-05-09T06:42:51Z</time>
      </trkpt>
      <trkpt lat="37.310038" lon="-3.115038">
        <ele>956.000000</ele>
        <time>2019-05-09T06:42:52Z</time>
      </trkpt>
      <trkpt lat="37.310022" lon="-3.115049">
        <ele>956.000000</ele>
        <time>2019-05-09T06:42:53Z</time>
      </trkpt>
      <trkpt lat="37.310005" lon="-3.115060">
        <ele>956.000000</ele>
        <time>2019-05-09T06:42:54Z</time>
      </trkpt>
      <trkpt lat="37.309990" lon="-3.115070">
        <ele>956.000000</ele>
        <time>2019-05-09T06:42:55Z</time>
      </trkpt>
      <trkpt lat="37.309975" lon="-3.115080">
        <ele>956.000000</ele>
        <time>2019-05-09T06:42:56Z</time>
      </trkpt>
      <trkpt lat="37.309962" lon="-3.115088">
        <ele>955.000000</ele>
        <time>2019-05-09T06:42:57Z</time>
      </trkpt>
      <trkpt lat="37.309950" lon="-3.115096">
        <ele>955.000000</ele>
        <time>2019-05-09T06:42:58Z</time>
      </trkpt>
      <trkpt lat="37.309937" lon="-3.115105">
        <ele>955.000000</ele>
        <time>2019-05-09T06:42:59Z</time>
      </trkpt>
      <trkpt lat="37.309922" lon="-3.115115">
        <ele>955.000000</ele>
        <time>2019-05-09T06:43:00Z</time>
      </trkpt>
      <trkpt lat="37.309903" lon="-3.115128">
        <ele>955.000000</ele>
        <time>2019-05-09T06:43:01Z</time>
      </trkpt>
      <trkpt lat="37.309888" lon="-3.115138">
        <ele>954.000000</ele>
        <time>2019-05-09T06:43:02Z</time>
      </trkpt>
      <trkpt lat="37.309870" lon="-3.115149">
        <ele>954.000000</ele>
        <time>2019-05-09T06:43:03Z</time>
      </trkpt>
      <trkpt lat="37.309850" lon="-3.115163">
        <ele>954.000000</ele>
        <time>2019-05-09T06:43:04Z</time>
      </trkpt>
      <trkpt lat="37.309830" lon="-3.115176">
        <ele>954.000000</ele>
        <time>2019-05-09T06:43:05Z</time>
      </trkpt>
      <trkpt lat="37.309812" lon="-3.115187">
        <ele>954.000000</ele>
        <time>2019-05-09T06:43:06Z</time>
      </trkpt>
      <trkpt lat="37.309795" lon="-3.115196">
        <ele>954.000000</ele>
        <time>2019-05-09T06:43:07Z</time>
      </trkpt>
      <trkpt lat="37.309782" lon="-3.115204">
        <ele>954.000000</ele>
        <time>2019-05-09T06:43:08Z</time>
      </trkpt>
      <trkpt lat="37.309770" lon="-3.115211">
        <ele>954.000000</ele>
        <time>2019-05-09T06:43:09Z</time>
      </trkpt>
      <trkpt lat="37.309758" lon="-3.115217">
        <ele>954.000000</ele>
        <time>2019-05-09T06:43:10Z</time>
      </trkpt>
      <trkpt lat="37.309745" lon="-3.115223">
        <ele>953.000000</ele>
        <time>2019-05-09T06:43:11Z</time>
      </trkpt>
      <trkpt lat="37.309730" lon="-3.115232">
        <ele>953.000000</ele>
        <time>2019-05-09T06:43:12Z</time>
      </trkpt>
      <trkpt lat="37.309713" lon="-3.115241">
        <ele>953.000000</ele>
        <time>2019-05-09T06:43:13Z</time>
      </trkpt>
      <trkpt lat="37.309695" lon="-3.115252">
        <ele>953.000000</ele>
        <time>2019-05-09T06:43:14Z</time>
      </trkpt>
      <trkpt lat="37.309678" lon="-3.115260">
        <ele>953.000000</ele>
        <time>2019-05-09T06:43:15Z</time>
      </trkpt>
      <trkpt lat="37.309660" lon="-3.115269">
        <ele>953.000000</ele>
        <time>2019-05-09T06:43:16Z</time>
      </trkpt>
      <trkpt lat="37.309642" lon="-3.115278">
        <ele>953.000000</ele>
        <time>2019-05-09T06:43:17Z</time>
      </trkpt>
      <trkpt lat="37.309622" lon="-3.115288">
        <ele>953.000000</ele>
        <time>2019-05-09T06:43:18Z</time>
      </trkpt>
      <trkpt lat="37.309603" lon="-3.115296">
        <ele>953.000000</ele>
        <time>2019-05-09T06:43:19Z</time>
      </trkpt>
      <trkpt lat="37.309587" lon="-3.115304">
        <ele>953.000000</ele>
        <time>2019-05-09T06:43:20Z</time>
      </trkpt>
      <trkpt lat="37.309573" lon="-3.115307">
        <ele>952.000000</ele>
        <time>2019-05-09T06:43:21Z</time>
      </trkpt>
      <trkpt lat="37.309558" lon="-3.115313">
        <ele>952.000000</ele>
        <time>2019-05-09T06:43:22Z</time>
      </trkpt>
      <trkpt lat="37.309542" lon="-3.115319">
        <ele>952.000000</ele>
        <time>2019-05-09T06:43:23Z</time>
      </trkpt>
      <trkpt lat="37.309525" lon="-3.115326">
        <ele>952.000000</ele>
        <time>2019-05-09T06:43:24Z</time>
      </trkpt>
      <trkpt lat="37.309510" lon="-3.115330">
        <ele>952.000000</ele>
        <time>2019-05-09T06:43:25Z</time>
      </trkpt>
      <trkpt lat="37.309493" lon="-3.115337">
        <ele>951.000000</ele>
        <time>2019-05-09T06:43:26Z</time>
      </trkpt>
      <trkpt lat="37.309477" lon="-3.115342">
        <ele>951.000000</ele>
        <time>2019-05-09T06:43:27Z</time>
      </trkpt>
      <trkpt lat="37.309458" lon="-3.115348">
        <ele>951.000000</ele>
        <time>2019-05-09T06:43:28Z</time>
      </trkpt>
      <trkpt lat="37.309440" lon="-3.115353">
        <ele>951.000000</ele>
        <time>2019-05-09T06:43:29Z</time>
      </trkpt>
      <trkpt lat="37.309420" lon="-3.115358">
        <ele>951.000000</ele>
        <time>2019-05-09T06:43:30Z</time>
      </trkpt>
      <trkpt lat="37.309400" lon="-3.115364">
        <ele>951.000000</ele>
        <time>2019-05-09T06:43:31Z</time>
      </trkpt>
      <trkpt lat="37.309383" lon="-3.115365">
        <ele>951.000000</ele>
        <time>2019-05-09T06:43:32Z</time>
      </trkpt>
      <trkpt lat="37.309365" lon="-3.115369">
        <ele>951.000000</ele>
        <time>2019-05-09T06:43:33Z</time>
      </trkpt>
      <trkpt lat="37.309348" lon="-3.115372">
        <ele>951.000000</ele>
        <time>2019-05-09T06:43:35Z</time>
      </trkpt>
      <trkpt lat="37.309333" lon="-3.115374">
        <ele>951.000000</ele>
        <time>2019-05-09T06:43:35Z</time>
      </trkpt>
      <trkpt lat="37.309318" lon="-3.115374">
        <ele>951.000000</ele>
        <time>2019-05-09T06:43:36Z</time>
      </trkpt>
      <trkpt lat="37.309303" lon="-3.115375">
        <ele>951.000000</ele>
        <time>2019-05-09T06:43:37Z</time>
      </trkpt>
      <trkpt lat="37.309288" lon="-3.115375">
        <ele>951.000000</ele>
        <time>2019-05-09T06:43:38Z</time>
      </trkpt>
      <trkpt lat="37.309272" lon="-3.115375">
        <ele>951.000000</ele>
        <time>2019-05-09T06:43:39Z</time>
      </trkpt>
      <trkpt lat="37.309252" lon="-3.115376">
        <ele>950.000000</ele>
        <time>2019-05-09T06:43:40Z</time>
      </trkpt>
      <trkpt lat="37.309233" lon="-3.115375">
        <ele>950.000000</ele>
        <time>2019-05-09T06:43:41Z</time>
      </trkpt>
      <trkpt lat="37.309215" lon="-3.115374">
        <ele>950.000000</ele>
        <time>2019-05-09T06:43:42Z</time>
      </trkpt>
      <trkpt lat="37.309195" lon="-3.115373">
        <ele>950.000000</ele>
        <time>2019-05-09T06:43:43Z</time>
      </trkpt>
      <trkpt lat="37.309177" lon="-3.115368">
        <ele>950.000000</ele>
        <time>2019-05-09T06:43:44Z</time>
      </trkpt>
      <trkpt lat="37.309160" lon="-3.115363">
        <ele>950.000000</ele>
        <time>2019-05-09T06:43:45Z</time>
      </trkpt>
      <trkpt lat="37.309147" lon="-3.115357">
        <ele>950.000000</ele>
        <time>2019-05-09T06:43:46Z</time>
      </trkpt>
      <trkpt lat="37.309132" lon="-3.115351">
        <ele>950.000000</ele>
        <time>2019-05-09T06:43:47Z</time>
      </trkpt>
      <trkpt lat="37.309120" lon="-3.115343">
        <ele>950.000000</ele>
        <time>2019-05-09T06:43:48Z</time>
      </trkpt>
      <trkpt lat="37.309108" lon="-3.115334">
        <ele>950.000000</ele>
        <time>2019-05-09T06:43:49Z</time>
      </trkpt>
      <trkpt lat="37.309093" lon="-3.115326">
        <ele>950.000000</ele>
        <time>2019-05-09T06:43:50Z</time>
      </trkpt>
      <trkpt lat="37.309080" lon="-3.115319">
        <ele>950.000000</ele>
        <time>2019-05-09T06:43:51Z</time>
      </trkpt>
      <trkpt lat="37.309065" lon="-3.115309">
        <ele>950.000000</ele>
        <time>2019-05-09T06:43:52Z</time>
      </trkpt>
      <trkpt lat="37.309047" lon="-3.115300">
        <ele>950.000000</ele>
        <time>2019-05-09T06:43:53Z</time>
      </trkpt>
      <trkpt lat="37.309030" lon="-3.115290">
        <ele>950.000000</ele>
        <time>2019-05-09T06:43:54Z</time>
      </trkpt>
      <trkpt lat="37.309013" lon="-3.115279">
        <ele>950.000000</ele>
        <time>2019-05-09T06:43:55Z</time>
      </trkpt>
      <trkpt lat="37.308998" lon="-3.115268">
        <ele>950.000000</ele>
        <time>2019-05-09T06:43:56Z</time>
      </trkpt>
      <trkpt lat="37.308985" lon="-3.115258">
        <ele>950.000000</ele>
        <time>2019-05-09T06:43:57Z</time>
      </trkpt>
      <trkpt lat="37.308970" lon="-3.115247">
        <ele>950.000000</ele>
        <time>2019-05-09T06:43:58Z</time>
      </trkpt>
      <trkpt lat="37.308957" lon="-3.115235">
        <ele>950.000000</ele>
        <time>2019-05-09T06:43:59Z</time>
      </trkpt>
      <trkpt lat="37.308942" lon="-3.115223">
        <ele>950.000000</ele>
        <time>2019-05-09T06:44:00Z</time>
      </trkpt>
      <trkpt lat="37.308927" lon="-3.115211">
        <ele>950.000000</ele>
        <time>2019-05-09T06:44:01Z</time>
      </trkpt>
      <trkpt lat="37.308908" lon="-3.115198">
        <ele>950.000000</ele>
        <time>2019-05-09T06:44:02Z</time>
      </trkpt>
      <trkpt lat="37.308893" lon="-3.115183">
        <ele>950.000000</ele>
        <time>2019-05-09T06:44:03Z</time>
      </trkpt>
      <trkpt lat="37.308875" lon="-3.115169">
        <ele>950.000000</ele>
        <time>2019-05-09T06:44:04Z</time>
      </trkpt>
      <trkpt lat="37.308860" lon="-3.115156">
        <ele>950.000000</ele>
        <time>2019-05-09T06:44:05Z</time>
      </trkpt>
      <trkpt lat="37.308843" lon="-3.115142">
        <ele>950.000000</ele>
        <time>2019-05-09T06:44:06Z</time>
      </trkpt>
      <trkpt lat="37.308828" lon="-3.115128">
        <ele>950.000000</ele>
        <time>2019-05-09T06:44:07Z</time>
      </trkpt>
      <trkpt lat="37.308813" lon="-3.115113">
        <ele>950.000000</ele>
        <time>2019-05-09T06:44:08Z</time>
      </trkpt>
      <trkpt lat="37.308797" lon="-3.115100">
        <ele>950.000000</ele>
        <time>2019-05-09T06:44:09Z</time>
      </trkpt>
      <trkpt lat="37.308782" lon="-3.115086">
        <ele>950.000000</ele>
        <time>2019-05-09T06:44:10Z</time>
      </trkpt>
      <trkpt lat="37.308767" lon="-3.115072">
        <ele>950.000000</ele>
        <time>2019-05-09T06:44:11Z</time>
      </trkpt>
      <trkpt lat="37.308753" lon="-3.115061">
        <ele>950.000000</ele>
        <time>2019-05-09T06:44:12Z</time>
      </trkpt>
      <trkpt lat="37.308738" lon="-3.115046">
        <ele>950.000000</ele>
        <time>2019-05-09T06:44:13Z</time>
      </trkpt>
      <trkpt lat="37.308723" lon="-3.115033">
        <ele>950.000000</ele>
        <time>2019-05-09T06:44:14Z</time>
      </trkpt>
      <trkpt lat="37.308707" lon="-3.115019">
        <ele>950.000000</ele>
        <time>2019-05-09T06:44:15Z</time>
      </trkpt>
      <trkpt lat="37.308692" lon="-3.115005">
        <ele>950.000000</ele>
        <time>2019-05-09T06:44:16Z</time>
      </trkpt>
      <trkpt lat="37.308675" lon="-3.114990">
        <ele>951.000000</ele>
        <time>2019-05-09T06:44:17Z</time>
      </trkpt>
      <trkpt lat="37.308662" lon="-3.114975">
        <ele>951.000000</ele>
        <time>2019-05-09T06:44:18Z</time>
      </trkpt>
      <trkpt lat="37.308650" lon="-3.114962">
        <ele>951.000000</ele>
        <time>2019-05-09T06:44:19Z</time>
      </trkpt>
      <trkpt lat="37.308640" lon="-3.114950">
        <ele>951.000000</ele>
        <time>2019-05-09T06:44:20Z</time>
      </trkpt>
      <trkpt lat="37.308630" lon="-3.114937">
        <ele>951.000000</ele>
        <time>2019-05-09T06:44:22Z</time>
      </trkpt>
      <trkpt lat="37.308620" lon="-3.114924">
        <ele>951.000000</ele>
        <time>2019-05-09T06:44:22Z</time>
      </trkpt>
      <trkpt lat="37.308610" lon="-3.114911">
        <ele>951.000000</ele>
        <time>2019-05-09T06:44:23Z</time>
      </trkpt>
      <trkpt lat="37.308598" lon="-3.114843">
        <ele>951.000000</ele>
        <time>2019-05-09T06:44:24Z</time>
      </trkpt>
      <trkpt lat="37.308588" lon="-3.114828">
        <ele>951.000000</ele>
        <time>2019-05-09T06:44:25Z</time>
      </trkpt>
      <trkpt lat="37.308581" lon="-3.114813">
        <ele>951.000000</ele>
        <time>2019-05-09T06:44:26Z</time>
      </trkpt>
      <trkpt lat="37.308574" lon="-3.114795">
        <ele>951.000000</ele>
        <time>2019-05-09T06:44:27Z</time>
      </trkpt>
      <trkpt lat="37.308568" lon="-3.114777">
        <ele>951.000000</ele>
        <time>2019-05-09T06:44:28Z</time>
      </trkpt>
      <trkpt lat="37.308562" lon="-3.114755">
        <ele>951.000000</ele>
        <time>2019-05-09T06:44:29Z</time>
      </trkpt>
      <trkpt lat="37.308555" lon="-3.114735">
        <ele>951.000000</ele>
        <time>2019-05-09T06:44:30Z</time>
      </trkpt>
      <trkpt lat="37.308548" lon="-3.114712">
        <ele>951.000000</ele>
        <time>2019-05-09T06:44:31Z</time>
      </trkpt>
      <trkpt lat="37.308542" lon="-3.114690">
        <ele>951.000000</ele>
        <time>2019-05-09T06:44:32Z</time>
      </trkpt>
      <trkpt lat="37.308536" lon="-3.114668">
        <ele>951.000000</ele>
        <time>2019-05-09T06:44:33Z</time>
      </trkpt>
      <trkpt lat="37.308529" lon="-3.114643">
        <ele>951.000000</ele>
        <time>2019-05-09T06:44:34Z</time>
      </trkpt>
      <trkpt lat="37.308523" lon="-3.114623">
        <ele>951.000000</ele>
        <time>2019-05-09T06:44:35Z</time>
      </trkpt>
      <trkpt lat="37.308518" lon="-3.114605">
        <ele>951.000000</ele>
        <time>2019-05-09T06:44:36Z</time>
      </trkpt>
      <trkpt lat="37.308512" lon="-3.114587">
        <ele>951.000000</ele>
        <time>2019-05-09T06:44:37Z</time>
      </trkpt>
      <trkpt lat="37.308507" lon="-3.114570">
        <ele>951.000000</ele>
        <time>2019-05-09T06:44:38Z</time>
      </trkpt>
      <trkpt lat="37.308501" lon="-3.114553">
        <ele>951.000000</ele>
        <time>2019-05-09T06:44:39Z</time>
      </trkpt>
      <trkpt lat="37.308493" lon="-3.114535">
        <ele>951.000000</ele>
        <time>2019-05-09T06:44:40Z</time>
      </trkpt>
      <trkpt lat="37.308486" lon="-3.114518">
        <ele>951.000000</ele>
        <time>2019-05-09T06:44:41Z</time>
      </trkpt>
      <trkpt lat="37.308478" lon="-3.114500">
        <ele>951.000000</ele>
        <time>2019-05-09T06:44:42Z</time>
      </trkpt>
      <trkpt lat="37.308469" lon="-3.114482">
        <ele>951.000000</ele>
        <time>2019-05-09T06:44:43Z</time>
      </trkpt>
      <trkpt lat="37.308460" lon="-3.114463">
        <ele>951.000000</ele>
        <time>2019-05-09T06:44:44Z</time>
      </trkpt>
      <trkpt lat="37.308451" lon="-3.114447">
        <ele>951.000000</ele>
        <time>2019-05-09T06:44:45Z</time>
      </trkpt>
      <trkpt lat="37.308442" lon="-3.114432">
        <ele>951.000000</ele>
        <time>2019-05-09T06:44:46Z</time>
      </trkpt>
      <trkpt lat="37.308432" lon="-3.114417">
        <ele>951.000000</ele>
        <time>2019-05-09T06:44:47Z</time>
      </trkpt>
      <trkpt lat="37.308424" lon="-3.114405">
        <ele>951.000000</ele>
        <time>2019-05-09T06:44:48Z</time>
      </trkpt>
      <trkpt lat="37.308414" lon="-3.114393">
        <ele>951.000000</ele>
        <time>2019-05-09T06:44:49Z</time>
      </trkpt>
      <trkpt lat="37.308405" lon="-3.114383">
        <ele>951.000000</ele>
        <time>2019-05-09T06:44:50Z</time>
      </trkpt>
      <trkpt lat="37.308355" lon="-3.114373">
        <ele>951.000000</ele>
        <time>2019-05-09T06:44:51Z</time>
      </trkpt>
      <trkpt lat="37.308340" lon="-3.114368">
        <ele>952.000000</ele>
        <time>2019-05-09T06:44:52Z</time>
      </trkpt>
      <trkpt lat="37.308327" lon="-3.114362">
        <ele>952.000000</ele>
        <time>2019-05-09T06:44:53Z</time>
      </trkpt>
      <trkpt lat="37.308310" lon="-3.114357">
        <ele>952.000000</ele>
        <time>2019-05-09T06:44:54Z</time>
      </trkpt>
      <trkpt lat="37.308297" lon="-3.114353">
        <ele>952.000000</ele>
        <time>2019-05-09T06:44:55Z</time>
      </trkpt>
      <trkpt lat="37.308283" lon="-3.114347">
        <ele>952.000000</ele>
        <time>2019-05-09T06:44:56Z</time>
      </trkpt>
      <trkpt lat="37.308268" lon="-3.114340">
        <ele>952.000000</ele>
        <time>2019-05-09T06:44:57Z</time>
      </trkpt>
      <trkpt lat="37.308250" lon="-3.114334">
        <ele>952.000000</ele>
        <time>2019-05-09T06:44:58Z</time>
      </trkpt>
      <trkpt lat="37.308233" lon="-3.114326">
        <ele>952.000000</ele>
        <time>2019-05-09T06:44:59Z</time>
      </trkpt>
      <trkpt lat="37.308217" lon="-3.114316">
        <ele>952.000000</ele>
        <time>2019-05-09T06:45:00Z</time>
      </trkpt>
      <trkpt lat="37.308197" lon="-3.114305">
        <ele>952.000000</ele>
        <time>2019-05-09T06:45:01Z</time>
      </trkpt>
      <trkpt lat="37.308178" lon="-3.114292">
        <ele>952.000000</ele>
        <time>2019-05-09T06:45:02Z</time>
      </trkpt>
      <trkpt lat="37.308163" lon="-3.114280">
        <ele>951.000000</ele>
        <time>2019-05-09T06:45:03Z</time>
      </trkpt>
      <trkpt lat="37.308148" lon="-3.114268">
        <ele>951.000000</ele>
        <time>2019-05-09T06:45:04Z</time>
      </trkpt>
      <trkpt lat="37.308135" lon="-3.114256">
        <ele>951.000000</ele>
        <time>2019-05-09T06:45:05Z</time>
      </trkpt>
      <trkpt lat="37.308123" lon="-3.114245">
        <ele>951.000000</ele>
        <time>2019-05-09T06:45:06Z</time>
      </trkpt>
      <trkpt lat="37.308113" lon="-3.114233">
        <ele>951.000000</ele>
        <time>2019-05-09T06:45:08Z</time>
      </trkpt>
      <trkpt lat="37.308103" lon="-3.114221">
        <ele>951.000000</ele>
        <time>2019-05-09T06:45:08Z</time>
      </trkpt>
      <trkpt lat="37.308093" lon="-3.114209">
        <ele>951.000000</ele>
        <time>2019-05-09T06:45:09Z</time>
      </trkpt>
      <trkpt lat="37.308085" lon="-3.114197">
        <ele>951.000000</ele>
        <time>2019-05-09T06:45:10Z</time>
      </trkpt>
      <trkpt lat="37.308080" lon="-3.114155">
        <ele>951.000000</ele>
        <time>2019-05-09T06:45:11Z</time>
      </trkpt>
      <trkpt lat="37.308073" lon="-3.114135">
        <ele>951.000000</ele>
        <time>2019-05-09T06:45:12Z</time>
      </trkpt>
      <trkpt lat="37.308070" lon="-3.114113">
        <ele>951.000000</ele>
        <time>2019-05-09T06:45:13Z</time>
      </trkpt>
      <trkpt lat="37.308067" lon="-3.114092">
        <ele>951.000000</ele>
        <time>2019-05-09T06:45:14Z</time>
      </trkpt>
      <trkpt lat="37.308065" lon="-3.114067">
        <ele>951.000000</ele>
        <time>2019-05-09T06:45:15Z</time>
      </trkpt>
      <trkpt lat="37.308062" lon="-3.114043">
        <ele>951.000000</ele>
        <time>2019-05-09T06:45:16Z</time>
      </trkpt>
      <trkpt lat="37.308060" lon="-3.114018">
        <ele>951.000000</ele>
        <time>2019-05-09T06:45:17Z</time>
      </trkpt>
      <trkpt lat="37.308057" lon="-3.113995">
        <ele>951.000000</ele>
        <time>2019-05-09T06:45:18Z</time>
      </trkpt>
      <trkpt lat="37.308057" lon="-3.113972">
        <ele>951.000000</ele>
        <time>2019-05-09T06:45:19Z</time>
      </trkpt>
      <trkpt lat="37.308057" lon="-3.113948">
        <ele>951.000000</ele>
        <time>2019-05-09T06:45:20Z</time>
      </trkpt>
      <trkpt lat="37.308058" lon="-3.113927">
        <ele>951.000000</ele>
        <time>2019-05-09T06:45:21Z</time>
      </trkpt>
      <trkpt lat="37.308059" lon="-3.113908">
        <ele>951.000000</ele>
        <time>2019-05-09T06:45:22Z</time>
      </trkpt>
      <trkpt lat="37.308060" lon="-3.113883">
        <ele>951.000000</ele>
        <time>2019-05-09T06:45:23Z</time>
      </trkpt>
      <trkpt lat="37.308061" lon="-3.113865">
        <ele>951.000000</ele>
        <time>2019-05-09T06:45:24Z</time>
      </trkpt>
      <trkpt lat="37.308061" lon="-3.113847">
        <ele>951.000000</ele>
        <time>2019-05-09T06:45:25Z</time>
      </trkpt>
      <trkpt lat="37.308060" lon="-3.113830">
        <ele>951.000000</ele>
        <time>2019-05-09T06:45:26Z</time>
      </trkpt>
      <trkpt lat="37.308061" lon="-3.113813">
        <ele>951.000000</ele>
        <time>2019-05-09T06:45:27Z</time>
      </trkpt>
      <trkpt lat="37.308062" lon="-3.113797">
        <ele>951.000000</ele>
        <time>2019-05-09T06:45:28Z</time>
      </trkpt>
      <trkpt lat="37.308063" lon="-3.113777">
        <ele>951.000000</ele>
        <time>2019-05-09T06:45:29Z</time>
      </trkpt>
      <trkpt lat="37.308064" lon="-3.113755">
        <ele>951.000000</ele>
        <time>2019-05-09T06:45:30Z</time>
      </trkpt>
      <trkpt lat="37.308064" lon="-3.113733">
        <ele>951.000000</ele>
        <time>2019-05-09T06:45:31Z</time>
      </trkpt>
      <trkpt lat="37.308062" lon="-3.113710">
        <ele>951.000000</ele>
        <time>2019-05-09T06:45:32Z</time>
      </trkpt>
      <trkpt lat="37.308060" lon="-3.113687">
        <ele>951.000000</ele>
        <time>2019-05-09T06:45:33Z</time>
      </trkpt>
      <trkpt lat="37.308057" lon="-3.113667">
        <ele>951.000000</ele>
        <time>2019-05-09T06:45:34Z</time>
      </trkpt>
      <trkpt lat="37.308053" lon="-3.113647">
        <ele>951.000000</ele>
        <time>2019-05-09T06:45:35Z</time>
      </trkpt>
      <trkpt lat="37.308048" lon="-3.113628">
        <ele>951.000000</ele>
        <time>2019-05-09T06:45:36Z</time>
      </trkpt>
      <trkpt lat="37.308015" lon="-3.113613">
        <ele>951.000000</ele>
        <time>2019-05-09T06:45:37Z</time>
      </trkpt>
      <trkpt lat="37.308000" lon="-3.113600">
        <ele>951.000000</ele>
        <time>2019-05-09T06:45:38Z</time>
      </trkpt>
      <trkpt lat="37.307988" lon="-3.113588">
        <ele>951.000000</ele>
        <time>2019-05-09T06:45:39Z</time>
      </trkpt>
      <trkpt lat="37.307975" lon="-3.113578">
        <ele>951.000000</ele>
        <time>2019-05-09T06:45:40Z</time>
      </trkpt>
      <trkpt lat="37.307962" lon="-3.113570">
        <ele>951.000000</ele>
        <time>2019-05-09T06:45:41Z</time>
      </trkpt>
      <trkpt lat="37.307945" lon="-3.113563">
        <ele>951.000000</ele>
        <time>2019-05-09T06:45:42Z</time>
      </trkpt>
      <trkpt lat="37.307928" lon="-3.113558">
        <ele>951.000000</ele>
        <time>2019-05-09T06:45:43Z</time>
      </trkpt>
      <trkpt lat="37.307912" lon="-3.113560">
        <ele>951.000000</ele>
        <time>2019-05-09T06:45:44Z</time>
      </trkpt>
      <trkpt lat="37.307892" lon="-3.113560">
        <ele>951.000000</ele>
        <time>2019-05-09T06:45:45Z</time>
      </trkpt>
      <trkpt lat="37.307873" lon="-3.113560">
        <ele>951.000000</ele>
        <time>2019-05-09T06:45:46Z</time>
      </trkpt>
      <trkpt lat="37.307853" lon="-3.113562">
        <ele>951.000000</ele>
        <time>2019-05-09T06:45:47Z</time>
      </trkpt>
      <trkpt lat="37.307835" lon="-3.113568">
        <ele>951.000000</ele>
        <time>2019-05-09T06:45:48Z</time>
      </trkpt>
      <trkpt lat="37.307817" lon="-3.113575">
        <ele>951.000000</ele>
        <time>2019-05-09T06:45:49Z</time>
      </trkpt>
      <trkpt lat="37.307800" lon="-3.113582">
        <ele>951.000000</ele>
        <time>2019-05-09T06:45:50Z</time>
      </trkpt>
      <trkpt lat="37.307783" lon="-3.113590">
        <ele>951.000000</ele>
        <time>2019-05-09T06:45:51Z</time>
      </trkpt>
      <trkpt lat="37.307770" lon="-3.113595">
        <ele>951.000000</ele>
        <time>2019-05-09T06:45:52Z</time>
      </trkpt>
      <trkpt lat="37.307753" lon="-3.113602">
        <ele>951.000000</ele>
        <time>2019-05-09T06:45:53Z</time>
      </trkpt>
      <trkpt lat="37.307740" lon="-3.113608">
        <ele>951.000000</ele>
        <time>2019-05-09T06:45:54Z</time>
      </trkpt>
      <trkpt lat="37.307725" lon="-3.113618">
        <ele>951.000000</ele>
        <time>2019-05-09T06:45:56Z</time>
      </trkpt>
      <trkpt lat="37.307708" lon="-3.113627">
        <ele>951.000000</ele>
        <time>2019-05-09T06:45:56Z</time>
      </trkpt>
      <trkpt lat="37.307692" lon="-3.113635">
        <ele>951.000000</ele>
        <time>2019-05-09T06:45:57Z</time>
      </trkpt>
      <trkpt lat="37.307673" lon="-3.113643">
        <ele>951.000000</ele>
        <time>2019-05-09T06:45:58Z</time>
      </trkpt>
      <trkpt lat="37.307657" lon="-3.113650">
        <ele>951.000000</ele>
        <time>2019-05-09T06:45:59Z</time>
      </trkpt>
      <trkpt lat="37.307637" lon="-3.113655">
        <ele>951.000000</ele>
        <time>2019-05-09T06:46:00Z</time>
      </trkpt>
      <trkpt lat="37.307620" lon="-3.113658">
        <ele>951.000000</ele>
        <time>2019-05-09T06:46:01Z</time>
      </trkpt>
      <trkpt lat="37.307602" lon="-3.113661">
        <ele>951.000000</ele>
        <time>2019-05-09T06:46:02Z</time>
      </trkpt>
      <trkpt lat="37.307587" lon="-3.113662">
        <ele>951.000000</ele>
        <time>2019-05-09T06:46:03Z</time>
      </trkpt>
      <trkpt lat="37.307568" lon="-3.113663">
        <ele>951.000000</ele>
        <time>2019-05-09T06:46:04Z</time>
      </trkpt>
      <trkpt lat="37.307553" lon="-3.113662">
        <ele>952.000000</ele>
        <time>2019-05-09T06:46:05Z</time>
      </trkpt>
      <trkpt lat="37.307538" lon="-3.113660">
        <ele>952.000000</ele>
        <time>2019-05-09T06:46:06Z</time>
      </trkpt>
      <trkpt lat="37.307525" lon="-3.113635">
        <ele>952.000000</ele>
        <time>2019-05-09T06:46:07Z</time>
      </trkpt>
      <trkpt lat="37.307513" lon="-3.113628">
        <ele>952.000000</ele>
        <time>2019-05-09T06:46:08Z</time>
      </trkpt>
      <trkpt lat="37.307502" lon="-3.113622">
        <ele>952.000000</ele>
        <time>2019-05-09T06:46:09Z</time>
      </trkpt>
      <trkpt lat="37.307490" lon="-3.113612">
        <ele>952.000000</ele>
        <time>2019-05-09T06:46:10Z</time>
      </trkpt>
      <trkpt lat="37.307477" lon="-3.113602">
        <ele>952.000000</ele>
        <time>2019-05-09T06:46:11Z</time>
      </trkpt>
      <trkpt lat="37.307463" lon="-3.113589">
        <ele>952.000000</ele>
        <time>2019-05-09T06:46:12Z</time>
      </trkpt>
      <trkpt lat="37.307450" lon="-3.113577">
        <ele>952.000000</ele>
        <time>2019-05-09T06:46:13Z</time>
      </trkpt>
      <trkpt lat="37.307438" lon="-3.113562">
        <ele>952.000000</ele>
        <time>2019-05-09T06:46:14Z</time>
      </trkpt>
      <trkpt lat="37.307427" lon="-3.113547">
        <ele>952.000000</ele>
        <time>2019-05-09T06:46:15Z</time>
      </trkpt>
      <trkpt lat="37.307413" lon="-3.113528">
        <ele>952.000000</ele>
        <time>2019-05-09T06:46:16Z</time>
      </trkpt>
      <trkpt lat="37.307398" lon="-3.113513">
        <ele>952.000000</ele>
        <time>2019-05-09T06:46:17Z</time>
      </trkpt>
      <trkpt lat="37.307387" lon="-3.113496">
        <ele>952.000000</ele>
        <time>2019-05-09T06:46:18Z</time>
      </trkpt>
      <trkpt lat="37.307375" lon="-3.113481">
        <ele>952.000000</ele>
        <time>2019-05-09T06:46:19Z</time>
      </trkpt>
      <trkpt lat="37.307360" lon="-3.113463">
        <ele>952.000000</ele>
        <time>2019-05-09T06:46:20Z</time>
      </trkpt>
      <trkpt lat="37.307347" lon="-3.113448">
        <ele>953.000000</ele>
        <time>2019-05-09T06:46:21Z</time>
      </trkpt>
      <trkpt lat="37.307333" lon="-3.113433">
        <ele>953.000000</ele>
        <time>2019-05-09T06:46:22Z</time>
      </trkpt>
      <trkpt lat="37.307322" lon="-3.113419">
        <ele>953.000000</ele>
        <time>2019-05-09T06:46:23Z</time>
      </trkpt>
      <trkpt lat="37.307310" lon="-3.113404">
        <ele>953.000000</ele>
        <time>2019-05-09T06:46:24Z</time>
      </trkpt>
      <trkpt lat="37.307300" lon="-3.113390">
        <ele>953.000000</ele>
        <time>2019-05-09T06:46:25Z</time>
      </trkpt>
      <trkpt lat="37.307290" lon="-3.113368">
        <ele>953.000000</ele>
        <time>2019-05-09T06:46:26Z</time>
      </trkpt>
      <trkpt lat="37.307282" lon="-3.113350">
        <ele>953.000000</ele>
        <time>2019-05-09T06:46:27Z</time>
      </trkpt>
      <trkpt lat="37.307274" lon="-3.113333">
        <ele>953.000000</ele>
        <time>2019-05-09T06:46:28Z</time>
      </trkpt>
      <trkpt lat="37.307264" lon="-3.113317">
        <ele>953.000000</ele>
        <time>2019-05-09T06:46:29Z</time>
      </trkpt>
      <trkpt lat="37.307255" lon="-3.113300">
        <ele>953.000000</ele>
        <time>2019-05-09T06:46:30Z</time>
      </trkpt>
      <trkpt lat="37.307245" lon="-3.113283">
        <ele>953.000000</ele>
        <time>2019-05-09T06:46:30Z</time>
      </trkpt>
      <trkpt lat="37.307235" lon="-3.113270">
        <ele>953.000000</ele>
        <time>2019-05-09T06:46:31Z</time>
      </trkpt>
      <trkpt lat="37.307224" lon="-3.113257">
        <ele>953.000000</ele>
        <time>2019-05-09T06:46:32Z</time>
      </trkpt>
      <trkpt lat="37.307211" lon="-3.113243">
        <ele>953.000000</ele>
        <time>2019-05-09T06:46:33Z</time>
      </trkpt>
      <trkpt lat="37.307188" lon="-3.113235">
        <ele>953.000000</ele>
        <time>2019-05-09T06:46:34Z</time>
      </trkpt>
      <trkpt lat="37.307172" lon="-3.113225">
        <ele>953.000000</ele>
        <time>2019-05-09T06:46:35Z</time>
      </trkpt>
      <trkpt lat="37.307157" lon="-3.113216">
        <ele>953.000000</ele>
        <time>2019-05-09T06:46:36Z</time>
      </trkpt>
      <trkpt lat="37.307140" lon="-3.113209">
        <ele>953.000000</ele>
        <time>2019-05-09T06:46:37Z</time>
      </trkpt>
      <trkpt lat="37.307127" lon="-3.113202">
        <ele>953.000000</ele>
        <time>2019-05-09T06:46:38Z</time>
      </trkpt>
      <trkpt lat="37.307112" lon="-3.113194">
        <ele>953.000000</ele>
        <time>2019-05-09T06:46:39Z</time>
      </trkpt>
      <trkpt lat="37.307097" lon="-3.113187">
        <ele>953.000000</ele>
        <time>2019-05-09T06:46:40Z</time>
      </trkpt>
      <trkpt lat="37.307082" lon="-3.113179">
        <ele>953.000000</ele>
        <time>2019-05-09T06:46:41Z</time>
      </trkpt>
      <trkpt lat="37.307068" lon="-3.113171">
        <ele>953.000000</ele>
        <time>2019-05-09T06:46:42Z</time>
      </trkpt>
      <trkpt lat="37.307055" lon="-3.113164">
        <ele>953.000000</ele>
        <time>2019-05-09T06:46:43Z</time>
      </trkpt>
      <trkpt lat="37.307042" lon="-3.113157">
        <ele>953.000000</ele>
        <time>2019-05-09T06:46:45Z</time>
      </trkpt>
      <trkpt lat="37.307028" lon="-3.113149">
        <ele>953.000000</ele>
        <time>2019-05-09T06:46:45Z</time>
      </trkpt>
      <trkpt lat="37.307013" lon="-3.113140">
        <ele>953.000000</ele>
        <time>2019-05-09T06:46:46Z</time>
      </trkpt>
      <trkpt lat="37.306997" lon="-3.113131">
        <ele>953.000000</ele>
        <time>2019-05-09T06:46:47Z</time>
      </trkpt>
      <trkpt lat="37.306982" lon="-3.113123">
        <ele>953.000000</ele>
        <time>2019-05-09T06:46:48Z</time>
      </trkpt>
      <trkpt lat="37.306965" lon="-3.113113">
        <ele>953.000000</ele>
        <time>2019-05-09T06:46:49Z</time>
      </trkpt>
      <trkpt lat="37.306952" lon="-3.113105">
        <ele>953.000000</ele>
        <time>2019-05-09T06:46:50Z</time>
      </trkpt>
      <trkpt lat="37.306933" lon="-3.113093">
        <ele>953.000000</ele>
        <time>2019-05-09T06:46:51Z</time>
      </trkpt>
      <trkpt lat="37.306915" lon="-3.113082">
        <ele>953.000000</ele>
        <time>2019-05-09T06:46:52Z</time>
      </trkpt>
      <trkpt lat="37.306900" lon="-3.113072">
        <ele>953.000000</ele>
        <time>2019-05-09T06:46:53Z</time>
      </trkpt>
      <trkpt lat="37.306885" lon="-3.113062">
        <ele>954.000000</ele>
        <time>2019-05-09T06:46:54Z</time>
      </trkpt>
      <trkpt lat="37.306870" lon="-3.113052">
        <ele>954.000000</ele>
        <time>2019-05-09T06:46:55Z</time>
      </trkpt>
      <trkpt lat="37.306853" lon="-3.113042">
        <ele>954.000000</ele>
        <time>2019-05-09T06:46:56Z</time>
      </trkpt>
      <trkpt lat="37.306837" lon="-3.113030">
        <ele>954.000000</ele>
        <time>2019-05-09T06:46:57Z</time>
      </trkpt>
      <trkpt lat="37.306823" lon="-3.113021">
        <ele>954.000000</ele>
        <time>2019-05-09T06:46:58Z</time>
      </trkpt>
      <trkpt lat="37.306812" lon="-3.113012">
        <ele>954.000000</ele>
        <time>2019-05-09T06:46:59Z</time>
      </trkpt>
      <trkpt lat="37.306798" lon="-3.113003">
        <ele>955.000000</ele>
        <time>2019-05-09T06:47:00Z</time>
      </trkpt>
      <trkpt lat="37.306785" lon="-3.112994">
        <ele>955.000000</ele>
        <time>2019-05-09T06:47:01Z</time>
      </trkpt>
      <trkpt lat="37.306770" lon="-3.112983">
        <ele>955.000000</ele>
        <time>2019-05-09T06:47:02Z</time>
      </trkpt>
      <trkpt lat="37.306755" lon="-3.112974">
        <ele>955.000000</ele>
        <time>2019-05-09T06:47:03Z</time>
      </trkpt>
      <trkpt lat="37.306745" lon="-3.112966">
        <ele>955.000000</ele>
        <time>2019-05-09T06:47:04Z</time>
      </trkpt>
      <trkpt lat="37.306732" lon="-3.112957">
        <ele>955.000000</ele>
        <time>2019-05-09T06:47:05Z</time>
      </trkpt>
      <trkpt lat="37.306717" lon="-3.112948">
        <ele>956.000000</ele>
        <time>2019-05-09T06:47:06Z</time>
      </trkpt>
      <trkpt lat="37.306703" lon="-3.112940">
        <ele>956.000000</ele>
        <time>2019-05-09T06:47:07Z</time>
      </trkpt>
      <trkpt lat="37.306687" lon="-3.112930">
        <ele>956.000000</ele>
        <time>2019-05-09T06:47:08Z</time>
      </trkpt>
      <trkpt lat="37.306672" lon="-3.112922">
        <ele>956.000000</ele>
        <time>2019-05-09T06:47:09Z</time>
      </trkpt>
      <trkpt lat="37.306655" lon="-3.112913">
        <ele>956.000000</ele>
        <time>2019-05-09T06:47:10Z</time>
      </trkpt>
      <trkpt lat="37.306638" lon="-3.112905">
        <ele>957.000000</ele>
        <time>2019-05-09T06:47:11Z</time>
      </trkpt>
      <trkpt lat="37.306623" lon="-3.112898">
        <ele>957.000000</ele>
        <time>2019-05-09T06:47:12Z</time>
      </trkpt>
      <trkpt lat="37.306607" lon="-3.112891">
        <ele>957.000000</ele>
        <time>2019-05-09T06:47:13Z</time>
      </trkpt>
      <trkpt lat="37.306592" lon="-3.112885">
        <ele>957.000000</ele>
        <time>2019-05-09T06:47:14Z</time>
      </trkpt>
      <trkpt lat="37.306578" lon="-3.112882">
        <ele>957.000000</ele>
        <time>2019-05-09T06:47:15Z</time>
      </trkpt>
      <trkpt lat="37.306565" lon="-3.112879">
        <ele>958.000000</ele>
        <time>2019-05-09T06:47:16Z</time>
      </trkpt>
      <trkpt lat="37.306550" lon="-3.112937">
        <ele>958.000000</ele>
        <time>2019-05-09T06:47:17Z</time>
      </trkpt>
      <trkpt lat="37.306538" lon="-3.112948">
        <ele>958.000000</ele>
        <time>2019-05-09T06:47:18Z</time>
      </trkpt>
      <trkpt lat="37.306525" lon="-3.112958">
        <ele>958.000000</ele>
        <time>2019-05-09T06:47:19Z</time>
      </trkpt>
      <trkpt lat="37.306513" lon="-3.112972">
        <ele>958.000000</ele>
        <time>2019-05-09T06:47:20Z</time>
      </trkpt>
      <trkpt lat="37.306500" lon="-3.112987">
        <ele>958.000000</ele>
        <time>2019-05-09T06:47:21Z</time>
      </trkpt>
      <trkpt lat="37.306488" lon="-3.113005">
        <ele>958.000000</ele>
        <time>2019-05-09T06:47:22Z</time>
      </trkpt>
      <trkpt lat="37.306477" lon="-3.113023">
        <ele>958.000000</ele>
        <time>2019-05-09T06:47:23Z</time>
      </trkpt>
      <trkpt lat="37.306465" lon="-3.113042">
        <ele>958.000000</ele>
        <time>2019-05-09T06:47:24Z</time>
      </trkpt>
      <trkpt lat="37.306455" lon="-3.113056">
        <ele>958.000000</ele>
        <time>2019-05-09T06:47:25Z</time>
      </trkpt>
      <trkpt lat="37.306445" lon="-3.113070">
        <ele>958.000000</ele>
        <time>2019-05-09T06:47:26Z</time>
      </trkpt>
      <trkpt lat="37.306435" lon="-3.113087">
        <ele>958.000000</ele>
        <time>2019-05-09T06:47:27Z</time>
      </trkpt>
      <trkpt lat="37.306423" lon="-3.113105">
        <ele>958.000000</ele>
        <time>2019-05-09T06:47:28Z</time>
      </trkpt>
      <trkpt lat="37.306410" lon="-3.113124">
        <ele>958.000000</ele>
        <time>2019-05-09T06:47:29Z</time>
      </trkpt>
      <trkpt lat="37.306400" lon="-3.113140">
        <ele>957.000000</ele>
        <time>2019-05-09T06:47:30Z</time>
      </trkpt>
      <trkpt lat="37.306387" lon="-3.113159">
        <ele>957.000000</ele>
        <time>2019-05-09T06:47:32Z</time>
      </trkpt>
      <trkpt lat="37.306377" lon="-3.113175">
        <ele>957.000000</ele>
        <time>2019-05-09T06:47:32Z</time>
      </trkpt>
      <trkpt lat="37.306363" lon="-3.113192">
        <ele>957.000000</ele>
        <time>2019-05-09T06:47:33Z</time>
      </trkpt>
      <trkpt lat="37.306351" lon="-3.113207">
        <ele>957.000000</ele>
        <time>2019-05-09T06:47:34Z</time>
      </trkpt>
      <trkpt lat="37.306338" lon="-3.113222">
        <ele>957.000000</ele>
        <time>2019-05-09T06:47:35Z</time>
      </trkpt>
      <trkpt lat="37.306327" lon="-3.113236">
        <ele>957.000000</ele>
        <time>2019-05-09T06:47:36Z</time>
      </trkpt>
      <trkpt lat="37.306317" lon="-3.113251">
        <ele>957.000000</ele>
        <time>2019-05-09T06:47:37Z</time>
      </trkpt>
      <trkpt lat="37.306305" lon="-3.113268">
        <ele>956.000000</ele>
        <time>2019-05-09T06:47:38Z</time>
      </trkpt>
      <trkpt lat="37.306295" lon="-3.113282">
        <ele>956.000000</ele>
        <time>2019-05-09T06:47:39Z</time>
      </trkpt>
      <trkpt lat="37.306285" lon="-3.113297">
        <ele>956.000000</ele>
        <time>2019-05-09T06:47:40Z</time>
      </trkpt>
      <trkpt lat="37.306273" lon="-3.113312">
        <ele>956.000000</ele>
        <time>2019-05-09T06:47:41Z</time>
      </trkpt>
      <trkpt lat="37.306262" lon="-3.113328">
        <ele>956.000000</ele>
        <time>2019-05-09T06:47:42Z</time>
      </trkpt>
      <trkpt lat="37.306250" lon="-3.113345">
        <ele>955.000000</ele>
        <time>2019-05-09T06:47:43Z</time>
      </trkpt>
      <trkpt lat="37.306240" lon="-3.113362">
        <ele>955.000000</ele>
        <time>2019-05-09T06:47:44Z</time>
      </trkpt>
      <trkpt lat="37.306230" lon="-3.113375">
        <ele>955.000000</ele>
        <time>2019-05-09T06:47:45Z</time>
      </trkpt>
      <trkpt lat="37.306221" lon="-3.113387">
        <ele>955.000000</ele>
        <time>2019-05-09T06:47:46Z</time>
      </trkpt>
      <trkpt lat="37.306207" lon="-3.113395">
        <ele>955.000000</ele>
        <time>2019-05-09T06:47:47Z</time>
      </trkpt>
      <trkpt lat="37.306195" lon="-3.113406">
        <ele>955.000000</ele>
        <time>2019-05-09T06:47:48Z</time>
      </trkpt>
      <trkpt lat="37.306182" lon="-3.113417">
        <ele>954.000000</ele>
        <time>2019-05-09T06:47:49Z</time>
      </trkpt>
      <trkpt lat="37.306168" lon="-3.113428">
        <ele>954.000000</ele>
        <time>2019-05-09T06:47:50Z</time>
      </trkpt>
      <trkpt lat="37.306155" lon="-3.113437">
        <ele>954.000000</ele>
        <time>2019-05-09T06:47:51Z</time>
      </trkpt>
      <trkpt lat="37.306140" lon="-3.113444">
        <ele>954.000000</ele>
        <time>2019-05-09T06:47:52Z</time>
      </trkpt>
      <trkpt lat="37.306127" lon="-3.113450">
        <ele>954.000000</ele>
        <time>2019-05-09T06:47:53Z</time>
      </trkpt>
      <trkpt lat="37.306110" lon="-3.113450">
        <ele>954.000000</ele>
        <time>2019-05-09T06:47:54Z</time>
      </trkpt>
      <trkpt lat="37.306093" lon="-3.113453">
        <ele>954.000000</ele>
        <time>2019-05-09T06:47:55Z</time>
      </trkpt>
      <trkpt lat="37.306077" lon="-3.113457">
        <ele>953.000000</ele>
        <time>2019-05-09T06:47:56Z</time>
      </trkpt>
      <trkpt lat="37.306062" lon="-3.113457">
        <ele>953.000000</ele>
        <time>2019-05-09T06:47:57Z</time>
      </trkpt>
      <trkpt lat="37.306047" lon="-3.113457">
        <ele>953.000000</ele>
        <time>2019-05-09T06:47:58Z</time>
      </trkpt>
      <trkpt lat="37.306030" lon="-3.113453">
        <ele>953.000000</ele>
        <time>2019-05-09T06:47:59Z</time>
      </trkpt>
      <trkpt lat="37.306015" lon="-3.113453">
        <ele>953.000000</ele>
        <time>2019-05-09T06:48:00Z</time>
      </trkpt>
      <trkpt lat="37.305998" lon="-3.113450">
        <ele>953.000000</ele>
        <time>2019-05-09T06:48:01Z</time>
      </trkpt>
      <trkpt lat="37.305982" lon="-3.113449">
        <ele>953.000000</ele>
        <time>2019-05-09T06:48:02Z</time>
      </trkpt>
      <trkpt lat="37.305965" lon="-3.113448">
        <ele>953.000000</ele>
        <time>2019-05-09T06:48:03Z</time>
      </trkpt>
      <trkpt lat="37.305950" lon="-3.113447">
        <ele>953.000000</ele>
        <time>2019-05-09T06:48:04Z</time>
      </trkpt>
      <trkpt lat="37.305933" lon="-3.113447">
        <ele>953.000000</ele>
        <time>2019-05-09T06:48:05Z</time>
      </trkpt>
      <trkpt lat="37.305915" lon="-3.113447">
        <ele>953.000000</ele>
        <time>2019-05-09T06:48:06Z</time>
      </trkpt>
      <trkpt lat="37.305897" lon="-3.113447">
        <ele>952.000000</ele>
        <time>2019-05-09T06:48:07Z</time>
      </trkpt>
      <trkpt lat="37.305878" lon="-3.113445">
        <ele>952.000000</ele>
        <time>2019-05-09T06:48:08Z</time>
      </trkpt>
      <trkpt lat="37.305860" lon="-3.113442">
        <ele>952.000000</ele>
        <time>2019-05-09T06:48:09Z</time>
      </trkpt>
      <trkpt lat="37.305843" lon="-3.113439">
        <ele>952.000000</ele>
        <time>2019-05-09T06:48:10Z</time>
      </trkpt>
      <trkpt lat="37.305823" lon="-3.113436">
        <ele>952.000000</ele>
        <time>2019-05-09T06:48:11Z</time>
      </trkpt>
      <trkpt lat="37.305805" lon="-3.113433">
        <ele>952.000000</ele>
        <time>2019-05-09T06:48:12Z</time>
      </trkpt>
      <trkpt lat="37.305788" lon="-3.113432">
        <ele>952.000000</ele>
        <time>2019-05-09T06:48:13Z</time>
      </trkpt>
      <trkpt lat="37.305770" lon="-3.113431">
        <ele>952.000000</ele>
        <time>2019-05-09T06:48:14Z</time>
      </trkpt>
      <trkpt lat="37.305753" lon="-3.113429">
        <ele>952.000000</ele>
        <time>2019-05-09T06:48:15Z</time>
      </trkpt>
      <trkpt lat="37.305738" lon="-3.113429">
        <ele>952.000000</ele>
        <time>2019-05-09T06:48:16Z</time>
      </trkpt>
      <trkpt lat="37.305722" lon="-3.113428">
        <ele>952.000000</ele>
        <time>2019-05-09T06:48:17Z</time>
      </trkpt>
      <trkpt lat="37.305707" lon="-3.113427">
        <ele>952.000000</ele>
        <time>2019-05-09T06:48:19Z</time>
      </trkpt>
      <trkpt lat="37.305690" lon="-3.113426">
        <ele>952.000000</ele>
        <time>2019-05-09T06:48:19Z</time>
      </trkpt>
      <trkpt lat="37.305677" lon="-3.113424">
        <ele>952.000000</ele>
        <time>2019-05-09T06:48:20Z</time>
      </trkpt>
      <trkpt lat="37.305660" lon="-3.113420">
        <ele>952.000000</ele>
        <time>2019-05-09T06:48:21Z</time>
      </trkpt>
      <trkpt lat="37.305643" lon="-3.113416">
        <ele>952.000000</ele>
        <time>2019-05-09T06:48:22Z</time>
      </trkpt>
      <trkpt lat="37.305625" lon="-3.113412">
        <ele>952.000000</ele>
        <time>2019-05-09T06:48:23Z</time>
      </trkpt>
      <trkpt lat="37.305607" lon="-3.113408">
        <ele>952.000000</ele>
        <time>2019-05-09T06:48:24Z</time>
      </trkpt>
      <trkpt lat="37.305588" lon="-3.113403">
        <ele>952.000000</ele>
        <time>2019-05-09T06:48:25Z</time>
      </trkpt>
      <trkpt lat="37.305568" lon="-3.113399">
        <ele>952.000000</ele>
        <time>2019-05-09T06:48:26Z</time>
      </trkpt>
      <trkpt lat="37.305552" lon="-3.113396">
        <ele>952.000000</ele>
        <time>2019-05-09T06:48:27Z</time>
      </trkpt>
      <trkpt lat="37.305535" lon="-3.113393">
        <ele>952.000000</ele>
        <time>2019-05-09T06:48:28Z</time>
      </trkpt>
      <trkpt lat="37.305520" lon="-3.113390">
        <ele>952.000000</ele>
        <time>2019-05-09T06:48:29Z</time>
      </trkpt>
      <trkpt lat="37.305505" lon="-3.113387">
        <ele>952.000000</ele>
        <time>2019-05-09T06:48:30Z</time>
      </trkpt>
      <trkpt lat="37.305492" lon="-3.113385">
        <ele>952.000000</ele>
        <time>2019-05-09T06:48:31Z</time>
      </trkpt>
      <trkpt lat="37.305477" lon="-3.113381">
        <ele>952.000000</ele>
        <time>2019-05-09T06:48:32Z</time>
      </trkpt>
      <trkpt lat="37.305460" lon="-3.113377">
        <ele>952.000000</ele>
        <time>2019-05-09T06:48:33Z</time>
      </trkpt>
      <trkpt lat="37.305443" lon="-3.113374">
        <ele>952.000000</ele>
        <time>2019-05-09T06:48:34Z</time>
      </trkpt>
      <trkpt lat="37.305427" lon="-3.113370">
        <ele>952.000000</ele>
        <time>2019-05-09T06:48:35Z</time>
      </trkpt>
      <trkpt lat="37.305410" lon="-3.113366">
        <ele>952.000000</ele>
        <time>2019-05-09T06:48:36Z</time>
      </trkpt>
      <trkpt lat="37.305393" lon="-3.113362">
        <ele>952.000000</ele>
        <time>2019-05-09T06:48:37Z</time>
      </trkpt>
      <trkpt lat="37.305377" lon="-3.113358">
        <ele>952.000000</ele>
        <time>2019-05-09T06:48:38Z</time>
      </trkpt>
      <trkpt lat="37.305358" lon="-3.113353">
        <ele>952.000000</ele>
        <time>2019-05-09T06:48:39Z</time>
      </trkpt>
      <trkpt lat="37.305340" lon="-3.113348">
        <ele>952.000000</ele>
        <time>2019-05-09T06:48:40Z</time>
      </trkpt>
      <trkpt lat="37.305322" lon="-3.113345">
        <ele>952.000000</ele>
        <time>2019-05-09T06:48:41Z</time>
      </trkpt>
      <trkpt lat="37.305303" lon="-3.113340">
        <ele>952.000000</ele>
        <time>2019-05-09T06:48:42Z</time>
      </trkpt>
      <trkpt lat="37.305287" lon="-3.113337">
        <ele>952.000000</ele>
        <time>2019-05-09T06:48:43Z</time>
      </trkpt>
      <trkpt lat="37.305272" lon="-3.113334">
        <ele>952.000000</ele>
        <time>2019-05-09T06:48:44Z</time>
      </trkpt>
      <trkpt lat="37.305257" lon="-3.113331">
        <ele>952.000000</ele>
        <time>2019-05-09T06:48:45Z</time>
      </trkpt>
      <trkpt lat="37.305243" lon="-3.113329">
        <ele>952.000000</ele>
        <time>2019-05-09T06:48:46Z</time>
      </trkpt>
      <trkpt lat="37.305228" lon="-3.113326">
        <ele>952.000000</ele>
        <time>2019-05-09T06:48:47Z</time>
      </trkpt>
      <trkpt lat="37.305215" lon="-3.113324">
        <ele>952.000000</ele>
        <time>2019-05-09T06:48:48Z</time>
      </trkpt>
      <trkpt lat="37.305200" lon="-3.113321">
        <ele>952.000000</ele>
        <time>2019-05-09T06:48:49Z</time>
      </trkpt>
      <trkpt lat="37.305183" lon="-3.113318">
        <ele>952.000000</ele>
        <time>2019-05-09T06:48:50Z</time>
      </trkpt>
      <trkpt lat="37.305168" lon="-3.113314">
        <ele>952.000000</ele>
        <time>2019-05-09T06:48:51Z</time>
      </trkpt>
      <trkpt lat="37.305150" lon="-3.113310">
        <ele>952.000000</ele>
        <time>2019-05-09T06:48:52Z</time>
      </trkpt>
      <trkpt lat="37.305132" lon="-3.113305">
        <ele>952.000000</ele>
        <time>2019-05-09T06:48:53Z</time>
      </trkpt>
      <trkpt lat="37.305115" lon="-3.113300">
        <ele>952.000000</ele>
        <time>2019-05-09T06:48:54Z</time>
      </trkpt>
      <trkpt lat="37.305097" lon="-3.113296">
        <ele>952.000000</ele>
        <time>2019-05-09T06:48:55Z</time>
      </trkpt>
      <trkpt lat="37.305078" lon="-3.113292">
        <ele>952.000000</ele>
        <time>2019-05-09T06:48:56Z</time>
      </trkpt>
      <trkpt lat="37.305060" lon="-3.113288">
        <ele>952.000000</ele>
        <time>2019-05-09T06:48:57Z</time>
      </trkpt>
      <trkpt lat="37.305043" lon="-3.113285">
        <ele>952.000000</ele>
        <time>2019-05-09T06:48:58Z</time>
      </trkpt>
      <trkpt lat="37.305028" lon="-3.113282">
        <ele>952.000000</ele>
        <time>2019-05-09T06:48:59Z</time>
      </trkpt>
      <trkpt lat="37.305013" lon="-3.113278">
        <ele>952.000000</ele>
        <time>2019-05-09T06:49:00Z</time>
      </trkpt>
      <trkpt lat="37.304997" lon="-3.113275">
        <ele>952.000000</ele>
        <time>2019-05-09T06:49:01Z</time>
      </trkpt>
      <trkpt lat="37.304982" lon="-3.113272">
        <ele>952.000000</ele>
        <time>2019-05-09T06:49:02Z</time>
      </trkpt>
      <trkpt lat="37.304968" lon="-3.113271">
        <ele>952.000000</ele>
        <time>2019-05-09T06:49:03Z</time>
      </trkpt>
      <trkpt lat="37.304955" lon="-3.113269">
        <ele>952.000000</ele>
        <time>2019-05-09T06:49:04Z</time>
      </trkpt>
      <trkpt lat="37.304942" lon="-3.113268">
        <ele>952.000000</ele>
        <time>2019-05-09T06:49:05Z</time>
      </trkpt>
      <trkpt lat="37.304927" lon="-3.113267">
        <ele>952.000000</ele>
        <time>2019-05-09T06:49:06Z</time>
      </trkpt>
      <trkpt lat="37.304910" lon="-3.113265">
        <ele>952.000000</ele>
        <time>2019-05-09T06:49:07Z</time>
      </trkpt>
      <trkpt lat="37.304892" lon="-3.113263">
        <ele>952.000000</ele>
        <time>2019-05-09T06:49:08Z</time>
      </trkpt>
      <trkpt lat="37.304875" lon="-3.113261">
        <ele>952.000000</ele>
        <time>2019-05-09T06:49:09Z</time>
      </trkpt>
      <trkpt lat="37.304857" lon="-3.113260">
        <ele>952.000000</ele>
        <time>2019-05-09T06:49:10Z</time>
      </trkpt>
      <trkpt lat="37.304838" lon="-3.113257">
        <ele>952.000000</ele>
        <time>2019-05-09T06:49:11Z</time>
      </trkpt>
      <trkpt lat="37.304820" lon="-3.113255">
        <ele>952.000000</ele>
        <time>2019-05-09T06:49:12Z</time>
      </trkpt>
      <trkpt lat="37.304803" lon="-3.113252">
        <ele>952.000000</ele>
        <time>2019-05-09T06:49:13Z</time>
      </trkpt>
      <trkpt lat="37.304787" lon="-3.113251">
        <ele>952.000000</ele>
        <time>2019-05-09T06:49:14Z</time>
      </trkpt>
      <trkpt lat="37.304770" lon="-3.113248">
        <ele>952.000000</ele>
        <time>2019-05-09T06:49:15Z</time>
      </trkpt>
      <trkpt lat="37.304755" lon="-3.113247">
        <ele>952.000000</ele>
        <time>2019-05-09T06:49:16Z</time>
      </trkpt>
      <trkpt lat="37.304740" lon="-3.113245">
        <ele>952.000000</ele>
        <time>2019-05-09T06:49:17Z</time>
      </trkpt>
      <trkpt lat="37.304725" lon="-3.113244">
        <ele>952.000000</ele>
        <time>2019-05-09T06:49:18Z</time>
      </trkpt>
      <trkpt lat="37.304710" lon="-3.113243">
        <ele>952.000000</ele>
        <time>2019-05-09T06:49:19Z</time>
      </trkpt>
      <trkpt lat="37.304693" lon="-3.113241">
        <ele>952.000000</ele>
        <time>2019-05-09T06:49:20Z</time>
      </trkpt>
      <trkpt lat="37.304677" lon="-3.113238">
        <ele>952.000000</ele>
        <time>2019-05-09T06:49:21Z</time>
      </trkpt>
      <trkpt lat="37.304660" lon="-3.113235">
        <ele>952.000000</ele>
        <time>2019-05-09T06:49:22Z</time>
      </trkpt>
      <trkpt lat="37.304643" lon="-3.113232">
        <ele>952.000000</ele>
        <time>2019-05-09T06:49:23Z</time>
      </trkpt>
      <trkpt lat="37.304625" lon="-3.113229">
        <ele>952.000000</ele>
        <time>2019-05-09T06:49:24Z</time>
      </trkpt>
      <trkpt lat="37.304605" lon="-3.113226">
        <ele>952.000000</ele>
        <time>2019-05-09T06:49:25Z</time>
      </trkpt>
      <trkpt lat="37.304587" lon="-3.113223">
        <ele>952.000000</ele>
        <time>2019-05-09T06:49:26Z</time>
      </trkpt>
      <trkpt lat="37.304570" lon="-3.113218">
        <ele>952.000000</ele>
        <time>2019-05-09T06:49:27Z</time>
      </trkpt>
      <trkpt lat="37.304552" lon="-3.113215">
        <ele>952.000000</ele>
        <time>2019-05-09T06:49:28Z</time>
      </trkpt>
      <trkpt lat="37.304535" lon="-3.113211">
        <ele>952.000000</ele>
        <time>2019-05-09T06:49:29Z</time>
      </trkpt>
      <trkpt lat="37.304518" lon="-3.113208">
        <ele>952.000000</ele>
        <time>2019-05-09T06:49:30Z</time>
      </trkpt>
      <trkpt lat="37.304502" lon="-3.113204">
        <ele>952.000000</ele>
        <time>2019-05-09T06:49:31Z</time>
      </trkpt>
      <trkpt lat="37.304488" lon="-3.113201">
        <ele>952.000000</ele>
        <time>2019-05-09T06:49:32Z</time>
      </trkpt>
      <trkpt lat="37.304473" lon="-3.113199">
        <ele>952.000000</ele>
        <time>2019-05-09T06:49:33Z</time>
      </trkpt>
      <trkpt lat="37.304458" lon="-3.113196">
        <ele>952.000000</ele>
        <time>2019-05-09T06:49:34Z</time>
      </trkpt>
      <trkpt lat="37.304447" lon="-3.113192">
        <ele>952.000000</ele>
        <time>2019-05-09T06:49:35Z</time>
      </trkpt>
      <trkpt lat="37.304432" lon="-3.113190">
        <ele>952.000000</ele>
        <time>2019-05-09T06:49:36Z</time>
      </trkpt>
      <trkpt lat="37.304417" lon="-3.113187">
        <ele>952.000000</ele>
        <time>2019-05-09T06:49:37Z</time>
      </trkpt>
      <trkpt lat="37.304400" lon="-3.113183">
        <ele>952.000000</ele>
        <time>2019-05-09T06:49:38Z</time>
      </trkpt>
      <trkpt lat="37.304383" lon="-3.113179">
        <ele>952.000000</ele>
        <time>2019-05-09T06:49:39Z</time>
      </trkpt>
      <trkpt lat="37.304367" lon="-3.113174">
        <ele>952.000000</ele>
        <time>2019-05-09T06:49:40Z</time>
      </trkpt>
      <trkpt lat="37.304350" lon="-3.113169">
        <ele>952.000000</ele>
        <time>2019-05-09T06:49:41Z</time>
      </trkpt>
      <trkpt lat="37.304333" lon="-3.113164">
        <ele>952.000000</ele>
        <time>2019-05-09T06:49:42Z</time>
      </trkpt>
      <trkpt lat="37.304320" lon="-3.113159">
        <ele>952.000000</ele>
        <time>2019-05-09T06:49:43Z</time>
      </trkpt>
      <trkpt lat="37.304305" lon="-3.113154">
        <ele>952.000000</ele>
        <time>2019-05-09T06:49:44Z</time>
      </trkpt>
      <trkpt lat="37.304292" lon="-3.113150">
        <ele>953.000000</ele>
        <time>2019-05-09T06:49:45Z</time>
      </trkpt>
      <trkpt lat="37.304277" lon="-3.113146">
        <ele>953.000000</ele>
        <time>2019-05-09T06:49:46Z</time>
      </trkpt>
      <trkpt lat="37.304263" lon="-3.113141">
        <ele>953.000000</ele>
        <time>2019-05-09T06:49:48Z</time>
      </trkpt>
      <trkpt lat="37.304253" lon="-3.113138">
        <ele>953.000000</ele>
        <time>2019-05-09T06:49:48Z</time>
      </trkpt>
      <trkpt lat="37.304240" lon="-3.113132">
        <ele>953.000000</ele>
        <time>2019-05-09T06:49:49Z</time>
      </trkpt>
      <trkpt lat="37.304228" lon="-3.113129">
        <ele>953.000000</ele>
        <time>2019-05-09T06:49:50Z</time>
      </trkpt>
      <trkpt lat="37.304213" lon="-3.113125">
        <ele>953.000000</ele>
        <time>2019-05-09T06:49:51Z</time>
      </trkpt>
      <trkpt lat="37.304198" lon="-3.113121">
        <ele>953.000000</ele>
        <time>2019-05-09T06:49:52Z</time>
      </trkpt>
      <trkpt lat="37.304183" lon="-3.113116">
        <ele>953.000000</ele>
        <time>2019-05-09T06:49:53Z</time>
      </trkpt>
      <trkpt lat="37.304170" lon="-3.113113">
        <ele>953.000000</ele>
        <time>2019-05-09T06:49:54Z</time>
      </trkpt>
      <trkpt lat="37.304155" lon="-3.113109">
        <ele>953.000000</ele>
        <time>2019-05-09T06:49:55Z</time>
      </trkpt>
      <trkpt lat="37.304138" lon="-3.113105">
        <ele>953.000000</ele>
        <time>2019-05-09T06:49:56Z</time>
      </trkpt>
      <trkpt lat="37.304123" lon="-3.113102">
        <ele>953.000000</ele>
        <time>2019-05-09T06:49:58Z</time>
      </trkpt>
      <trkpt lat="37.304108" lon="-3.113097">
        <ele>953.000000</ele>
        <time>2019-05-09T06:49:58Z</time>
      </trkpt>
      <trkpt lat="37.304092" lon="-3.113093">
        <ele>953.000000</ele>
        <time>2019-05-09T06:49:59Z</time>
      </trkpt>
      <trkpt lat="37.304077" lon="-3.113090">
        <ele>953.000000</ele>
        <time>2019-05-09T06:50:00Z</time>
      </trkpt>
      <trkpt lat="37.304062" lon="-3.113085">
        <ele>953.000000</ele>
        <time>2019-05-09T06:50:01Z</time>
      </trkpt>
      <trkpt lat="37.304048" lon="-3.113082">
        <ele>953.000000</ele>
        <time>2019-05-09T06:50:02Z</time>
      </trkpt>
      <trkpt lat="37.304035" lon="-3.113077">
        <ele>953.000000</ele>
        <time>2019-05-09T06:50:04Z</time>
      </trkpt>
      <trkpt lat="37.304023" lon="-3.113072">
        <ele>953.000000</ele>
        <time>2019-05-09T06:50:04Z</time>
      </trkpt>
      <trkpt lat="37.304013" lon="-3.113068">
        <ele>953.000000</ele>
        <time>2019-05-09T06:50:05Z</time>
      </trkpt>
      <trkpt lat="37.304003" lon="-3.113064">
        <ele>953.000000</ele>
        <time>2019-05-09T06:50:06Z</time>
      </trkpt>
      <trkpt lat="37.303992" lon="-3.113015">
        <ele>953.000000</ele>
        <time>2019-05-09T06:50:07Z</time>
      </trkpt>
      <trkpt lat="37.303980" lon="-3.112995">
        <ele>953.000000</ele>
        <time>2019-05-09T06:50:08Z</time>
      </trkpt>
      <trkpt lat="37.303973" lon="-3.112975">
        <ele>953.000000</ele>
        <time>2019-05-09T06:50:09Z</time>
      </trkpt>
      <trkpt lat="37.303967" lon="-3.112953">
        <ele>953.000000</ele>
        <time>2019-05-09T06:50:10Z</time>
      </trkpt>
      <trkpt lat="37.303965" lon="-3.112932">
        <ele>953.000000</ele>
        <time>2019-05-09T06:50:11Z</time>
      </trkpt>
      <trkpt lat="37.303965" lon="-3.112912">
        <ele>953.000000</ele>
        <time>2019-05-09T06:50:12Z</time>
      </trkpt>
      <trkpt lat="37.303967" lon="-3.112893">
        <ele>953.000000</ele>
        <time>2019-05-09T06:50:13Z</time>
      </trkpt>
      <trkpt lat="37.303965" lon="-3.112875">
        <ele>953.000000</ele>
        <time>2019-05-09T06:50:14Z</time>
      </trkpt>
      <trkpt lat="37.303965" lon="-3.112858">
        <ele>953.000000</ele>
        <time>2019-05-09T06:50:15Z</time>
      </trkpt>
      <trkpt lat="37.303962" lon="-3.112842">
        <ele>953.000000</ele>
        <time>2019-05-09T06:50:16Z</time>
      </trkpt>
      <trkpt lat="37.303958" lon="-3.112825">
        <ele>953.000000</ele>
        <time>2019-05-09T06:50:17Z</time>
      </trkpt>
      <trkpt lat="37.303955" lon="-3.112808">
        <ele>953.000000</ele>
        <time>2019-05-09T06:50:18Z</time>
      </trkpt>
      <trkpt lat="37.303951" lon="-3.112790">
        <ele>953.000000</ele>
        <time>2019-05-09T06:50:20Z</time>
      </trkpt>
      <trkpt lat="37.303937" lon="-3.112750">
        <ele>953.000000</ele>
        <time>2019-05-09T06:50:20Z</time>
      </trkpt>
      <trkpt lat="37.303919" lon="-3.112713">
        <ele>953.000000</ele>
        <time>2019-05-09T06:50:23Z</time>
      </trkpt>
      <trkpt lat="37.303907" lon="-3.112695">
        <ele>954.000000</ele>
        <time>2019-05-09T06:50:24Z</time>
      </trkpt>
      <trkpt lat="37.303888" lon="-3.112682">
        <ele>954.000000</ele>
        <time>2019-05-09T06:50:25Z</time>
      </trkpt>
      <trkpt lat="37.303873" lon="-3.112668">
        <ele>954.000000</ele>
        <time>2019-05-09T06:50:26Z</time>
      </trkpt>
      <trkpt lat="37.303860" lon="-3.112655">
        <ele>954.000000</ele>
        <time>2019-05-09T06:50:27Z</time>
      </trkpt>
      <trkpt lat="37.303848" lon="-3.112645">
        <ele>955.000000</ele>
        <time>2019-05-09T06:50:28Z</time>
      </trkpt>
      <trkpt lat="37.303835" lon="-3.112638">
        <ele>955.000000</ele>
        <time>2019-05-09T06:50:29Z</time>
      </trkpt>
      <trkpt lat="37.303822" lon="-3.112633">
        <ele>955.000000</ele>
        <time>2019-05-09T06:50:30Z</time>
      </trkpt>
      <trkpt lat="37.303805" lon="-3.112628">
        <ele>955.000000</ele>
        <time>2019-05-09T06:50:31Z</time>
      </trkpt>
      <trkpt lat="37.303788" lon="-3.112623">
        <ele>955.000000</ele>
        <time>2019-05-09T06:50:32Z</time>
      </trkpt>
      <trkpt lat="37.303773" lon="-3.112620">
        <ele>955.000000</ele>
        <time>2019-05-09T06:50:33Z</time>
      </trkpt>
      <trkpt lat="37.303755" lon="-3.112620">
        <ele>956.000000</ele>
        <time>2019-05-09T06:50:35Z</time>
      </trkpt>
      <trkpt lat="37.303737" lon="-3.112618">
        <ele>956.000000</ele>
        <time>2019-05-09T06:50:35Z</time>
      </trkpt>
      <trkpt lat="37.303722" lon="-3.112615">
        <ele>956.000000</ele>
        <time>2019-05-09T06:50:36Z</time>
      </trkpt>
      <trkpt lat="37.303705" lon="-3.112612">
        <ele>956.000000</ele>
        <time>2019-05-09T06:50:37Z</time>
      </trkpt>
      <trkpt lat="37.303690" lon="-3.112608">
        <ele>956.000000</ele>
        <time>2019-05-09T06:50:38Z</time>
      </trkpt>
      <trkpt lat="37.303675" lon="-3.112605">
        <ele>956.000000</ele>
        <time>2019-05-09T06:50:39Z</time>
      </trkpt>
      <trkpt lat="37.303660" lon="-3.112602">
        <ele>956.000000</ele>
        <time>2019-05-09T06:50:40Z</time>
      </trkpt>
      <trkpt lat="37.303645" lon="-3.112598">
        <ele>956.000000</ele>
        <time>2019-05-09T06:50:41Z</time>
      </trkpt>
      <trkpt lat="37.303643" lon="-3.112596">
        <ele>956.000000</ele>
        <time>2019-05-09T06:50:42Z</time>
      </trkpt>
      <trkpt lat="37.303650" lon="-3.112595">
        <ele>956.000000</ele>
        <time>2019-05-09T06:50:43Z</time>
      </trkpt>
      <trkpt lat="37.303663" lon="-3.112597">
        <ele>956.000000</ele>
        <time>2019-05-09T06:50:44Z</time>
      </trkpt>
      <trkpt lat="37.303677" lon="-3.112599">
        <ele>956.000000</ele>
        <time>2019-05-09T06:50:45Z</time>
      </trkpt>
      <trkpt lat="37.303695" lon="-3.112604">
        <ele>956.000000</ele>
        <time>2019-05-09T06:50:45Z</time>
      </trkpt>
      <trkpt lat="37.303713" lon="-3.112607">
        <ele>956.000000</ele>
        <time>2019-05-09T06:50:46Z</time>
      </trkpt>
      <trkpt lat="37.303730" lon="-3.112608">
        <ele>956.000000</ele>
        <time>2019-05-09T06:50:47Z</time>
      </trkpt>
      <trkpt lat="37.303748" lon="-3.112608">
        <ele>956.000000</ele>
        <time>2019-05-09T06:50:48Z</time>
      </trkpt>
      <trkpt lat="37.303767" lon="-3.112609">
        <ele>956.000000</ele>
        <time>2019-05-09T06:50:49Z</time>
      </trkpt>
      <trkpt lat="37.303783" lon="-3.112609">
        <ele>956.000000</ele>
        <time>2019-05-09T06:50:50Z</time>
      </trkpt>
      <trkpt lat="37.303798" lon="-3.112611">
        <ele>956.000000</ele>
        <time>2019-05-09T06:50:51Z</time>
      </trkpt>
      <trkpt lat="37.303812" lon="-3.112614">
        <ele>956.000000</ele>
        <time>2019-05-09T06:50:52Z</time>
      </trkpt>
      <trkpt lat="37.303825" lon="-3.112617">
        <ele>956.000000</ele>
        <time>2019-05-09T06:50:53Z</time>
      </trkpt>
      <trkpt lat="37.303840" lon="-3.112621">
        <ele>956.000000</ele>
        <time>2019-05-09T06:50:54Z</time>
      </trkpt>
      <trkpt lat="37.303855" lon="-3.112627">
        <ele>956.000000</ele>
        <time>2019-05-09T06:50:55Z</time>
      </trkpt>
      <trkpt lat="37.303868" lon="-3.112632">
        <ele>956.000000</ele>
        <time>2019-05-09T06:50:56Z</time>
      </trkpt>
      <trkpt lat="37.303882" lon="-3.112638">
        <ele>956.000000</ele>
        <time>2019-05-09T06:50:57Z</time>
      </trkpt>
      <trkpt lat="37.303895" lon="-3.112645">
        <ele>956.000000</ele>
        <time>2019-05-09T06:50:58Z</time>
      </trkpt>
      <trkpt lat="37.303908" lon="-3.112652">
        <ele>956.000000</ele>
        <time>2019-05-09T06:50:59Z</time>
      </trkpt>
      <trkpt lat="37.303923" lon="-3.112661">
        <ele>956.000000</ele>
        <time>2019-05-09T06:51:01Z</time>
      </trkpt>
      <trkpt lat="37.303940" lon="-3.112672">
        <ele>956.000000</ele>
        <time>2019-05-09T06:51:01Z</time>
      </trkpt>
      <trkpt lat="37.303955" lon="-3.112682">
        <ele>956.000000</ele>
        <time>2019-05-09T06:51:02Z</time>
      </trkpt>
      <trkpt lat="37.303970" lon="-3.112692">
        <ele>956.000000</ele>
        <time>2019-05-09T06:51:03Z</time>
      </trkpt>
      <trkpt lat="37.303985" lon="-3.112701">
        <ele>956.000000</ele>
        <time>2019-05-09T06:51:04Z</time>
      </trkpt>
      <trkpt lat="37.303992" lon="-3.112705">
        <ele>956.000000</ele>
        <time>2019-05-09T06:51:05Z</time>
      </trkpt>
      <trkpt lat="37.303995" lon="-3.112700">
        <ele>956.000000</ele>
        <time>2019-05-09T06:51:06Z</time>
      </trkpt>
      <trkpt lat="37.303998" lon="-3.112687">
        <ele>956.000000</ele>
        <time>2019-05-09T06:51:07Z</time>
      </trkpt>
      <trkpt lat="37.304002" lon="-3.112670">
        <ele>956.000000</ele>
        <time>2019-05-09T06:51:08Z</time>
      </trkpt>
      <trkpt lat="37.304007" lon="-3.112652">
        <ele>956.000000</ele>
        <time>2019-05-09T06:51:09Z</time>
      </trkpt>
      <trkpt lat="37.304012" lon="-3.112630">
        <ele>956.000000</ele>
        <time>2019-05-09T06:51:10Z</time>
      </trkpt>
      <trkpt lat="37.304012" lon="-3.112607">
        <ele>956.000000</ele>
        <time>2019-05-09T06:51:11Z</time>
      </trkpt>
      <trkpt lat="37.304017" lon="-3.112585">
        <ele>956.000000</ele>
        <time>2019-05-09T06:51:12Z</time>
      </trkpt>
      <trkpt lat="37.304018" lon="-3.112565">
        <ele>956.000000</ele>
        <time>2019-05-09T06:51:13Z</time>
      </trkpt>
      <trkpt lat="37.304018" lon="-3.112543">
        <ele>956.000000</ele>
        <time>2019-05-09T06:51:14Z</time>
      </trkpt>
      <trkpt lat="37.304020" lon="-3.112527">
        <ele>956.000000</ele>
        <time>2019-05-09T06:51:15Z</time>
      </trkpt>
      <trkpt lat="37.304017" lon="-3.112505">
        <ele>956.000000</ele>
        <time>2019-05-09T06:51:16Z</time>
      </trkpt>
      <trkpt lat="37.304017" lon="-3.112488">
        <ele>956.000000</ele>
        <time>2019-05-09T06:51:17Z</time>
      </trkpt>
      <trkpt lat="37.304015" lon="-3.112473">
        <ele>956.000000</ele>
        <time>2019-05-09T06:51:18Z</time>
      </trkpt>
      <trkpt lat="37.304015" lon="-3.112458">
        <ele>956.000000</ele>
        <time>2019-05-09T06:51:20Z</time>
      </trkpt>
      <trkpt lat="37.304013" lon="-3.112440">
        <ele>956.000000</ele>
        <time>2019-05-09T06:51:20Z</time>
      </trkpt>
      <trkpt lat="37.304012" lon="-3.112425">
        <ele>956.000000</ele>
        <time>2019-05-09T06:51:21Z</time>
      </trkpt>
      <trkpt lat="37.304009" lon="-3.112408">
        <ele>956.000000</ele>
        <time>2019-05-09T06:51:22Z</time>
      </trkpt>
      <trkpt lat="37.304005" lon="-3.112388">
        <ele>956.000000</ele>
        <time>2019-05-09T06:51:23Z</time>
      </trkpt>
      <trkpt lat="37.304004" lon="-3.112367">
        <ele>956.000000</ele>
        <time>2019-05-09T06:51:24Z</time>
      </trkpt>
      <trkpt lat="37.304005" lon="-3.112348">
        <ele>956.000000</ele>
        <time>2019-05-09T06:51:25Z</time>
      </trkpt>
      <trkpt lat="37.304011" lon="-3.112330">
        <ele>956.000000</ele>
        <time>2019-05-09T06:51:26Z</time>
      </trkpt>
      <trkpt lat="37.304019" lon="-3.112318">
        <ele>956.000000</ele>
        <time>2019-05-09T06:51:27Z</time>
      </trkpt>
      <trkpt lat="37.304070" lon="-3.112137">
        <ele>957.000000</ele>
        <time>2019-05-09T06:51:35Z</time>
      </trkpt>
      <trkpt lat="37.304073" lon="-3.112128">
        <ele>957.000000</ele>
        <time>2019-05-09T06:51:36Z</time>
      </trkpt>
      <trkpt lat="37.304075" lon="-3.112125">
        <ele>957.000000</ele>
        <time>2019-05-09T06:51:37Z</time>
      </trkpt>
      <trkpt lat="37.304078" lon="-3.112115">
        <ele>957.000000</ele>
        <time>2019-05-09T06:51:38Z</time>
      </trkpt>
      <trkpt lat="37.304082" lon="-3.112100">
        <ele>958.000000</ele>
        <time>2019-05-09T06:51:39Z</time>
      </trkpt>
      <trkpt lat="37.304084" lon="-3.112085">
        <ele>958.000000</ele>
        <time>2019-05-09T06:51:40Z</time>
      </trkpt>
      <trkpt lat="37.304088" lon="-3.112065">
        <ele>958.000000</ele>
        <time>2019-05-09T06:51:41Z</time>
      </trkpt>
      <trkpt lat="37.304089" lon="-3.112047">
        <ele>958.000000</ele>
        <time>2019-05-09T06:51:42Z</time>
      </trkpt>
      <trkpt lat="37.304091" lon="-3.112027">
        <ele>958.000000</ele>
        <time>2019-05-09T06:51:43Z</time>
      </trkpt>
      <trkpt lat="37.304094" lon="-3.112007">
        <ele>958.000000</ele>
        <time>2019-05-09T06:51:44Z</time>
      </trkpt>
      <trkpt lat="37.304098" lon="-3.111985">
        <ele>958.000000</ele>
        <time>2019-05-09T06:51:45Z</time>
      </trkpt>
      <trkpt lat="37.304102" lon="-3.111960">
        <ele>959.000000</ele>
        <time>2019-05-09T06:51:46Z</time>
      </trkpt>
      <trkpt lat="37.304105" lon="-3.111937">
        <ele>959.000000</ele>
        <time>2019-05-09T06:51:47Z</time>
      </trkpt>
      <trkpt lat="37.304109" lon="-3.111917">
        <ele>959.000000</ele>
        <time>2019-05-09T06:51:48Z</time>
      </trkpt>
      <trkpt lat="37.304111" lon="-3.111900">
        <ele>959.000000</ele>
        <time>2019-05-09T06:51:49Z</time>
      </trkpt>
      <trkpt lat="37.304113" lon="-3.111887">
        <ele>960.000000</ele>
        <time>2019-05-09T06:51:50Z</time>
      </trkpt>
      <trkpt lat="37.304113" lon="-3.111880">
        <ele>960.000000</ele>
        <time>2019-05-09T06:51:51Z</time>
      </trkpt>
      <trkpt lat="37.304111" lon="-3.111875">
        <ele>960.000000</ele>
        <time>2019-05-09T06:51:52Z</time>
      </trkpt>
      <trkpt lat="37.304088" lon="-3.111865">
        <ele>961.000000</ele>
        <time>2019-05-09T06:51:53Z</time>
      </trkpt>
      <trkpt lat="37.304073" lon="-3.111862">
        <ele>961.000000</ele>
        <time>2019-05-09T06:51:54Z</time>
      </trkpt>
      <trkpt lat="37.304060" lon="-3.111863">
        <ele>961.000000</ele>
        <time>2019-05-09T06:51:55Z</time>
      </trkpt>
      <trkpt lat="37.304047" lon="-3.111863">
        <ele>961.000000</ele>
        <time>2019-05-09T06:51:56Z</time>
      </trkpt>
      <trkpt lat="37.304040" lon="-3.111860">
        <ele>961.000000</ele>
        <time>2019-05-09T06:51:57Z</time>
      </trkpt>
      <trkpt lat="37.304035" lon="-3.111857">
        <ele>961.000000</ele>
        <time>2019-05-09T06:51:58Z</time>
      </trkpt>
      <trkpt lat="37.304037" lon="-3.111843">
        <ele>961.000000</ele>
        <time>2019-05-09T06:51:59Z</time>
      </trkpt>
      <trkpt lat="37.304040" lon="-3.111830">
        <ele>961.000000</ele>
        <time>2019-05-09T06:52:00Z</time>
      </trkpt>
      <trkpt lat="37.304043" lon="-3.111810">
        <ele>961.000000</ele>
        <time>2019-05-09T06:52:01Z</time>
      </trkpt>
      <trkpt lat="37.304045" lon="-3.111795">
        <ele>961.000000</ele>
        <time>2019-05-09T06:52:02Z</time>
      </trkpt>
      <trkpt lat="37.304047" lon="-3.111778">
        <ele>961.000000</ele>
        <time>2019-05-09T06:52:03Z</time>
      </trkpt>
      <trkpt lat="37.304050" lon="-3.111762">
        <ele>961.000000</ele>
        <time>2019-05-09T06:52:04Z</time>
      </trkpt>
      <trkpt lat="37.304053" lon="-3.111743">
        <ele>961.000000</ele>
        <time>2019-05-09T06:52:05Z</time>
      </trkpt>
      <trkpt lat="37.304055" lon="-3.111727">
        <ele>961.000000</ele>
        <time>2019-05-09T06:52:06Z</time>
      </trkpt>
      <trkpt lat="37.304057" lon="-3.111708">
        <ele>961.000000</ele>
        <time>2019-05-09T06:52:07Z</time>
      </trkpt>
      <trkpt lat="37.304061" lon="-3.111692">
        <ele>961.000000</ele>
        <time>2019-05-09T06:52:08Z</time>
      </trkpt>
      <trkpt lat="37.304065" lon="-3.111673">
        <ele>961.000000</ele>
        <time>2019-05-09T06:52:09Z</time>
      </trkpt>
      <trkpt lat="37.304070" lon="-3.111658">
        <ele>962.000000</ele>
        <time>2019-05-09T06:52:11Z</time>
      </trkpt>
      <trkpt lat="37.304075" lon="-3.111643">
        <ele>962.000000</ele>
        <time>2019-05-09T06:52:11Z</time>
      </trkpt>
      <trkpt lat="37.304083" lon="-3.111628">
        <ele>962.000000</ele>
        <time>2019-05-09T06:52:12Z</time>
      </trkpt>
      <trkpt lat="37.304088" lon="-3.111612">
        <ele>963.000000</ele>
        <time>2019-05-09T06:52:13Z</time>
      </trkpt>
      <trkpt lat="37.304092" lon="-3.111597">
        <ele>963.000000</ele>
        <time>2019-05-09T06:52:14Z</time>
      </trkpt>
      <trkpt lat="37.304099" lon="-3.111580">
        <ele>963.000000</ele>
        <time>2019-05-09T06:52:15Z</time>
      </trkpt>
      <trkpt lat="37.304105" lon="-3.111562">
        <ele>964.000000</ele>
        <time>2019-05-09T06:52:16Z</time>
      </trkpt>
      <trkpt lat="37.304114" lon="-3.111543">
        <ele>964.000000</ele>
        <time>2019-05-09T06:52:17Z</time>
      </trkpt>
      <trkpt lat="37.304123" lon="-3.111525">
        <ele>964.000000</ele>
        <time>2019-05-09T06:52:18Z</time>
      </trkpt>
      <trkpt lat="37.304132" lon="-3.111505">
        <ele>964.000000</ele>
        <time>2019-05-09T06:52:19Z</time>
      </trkpt>
      <trkpt lat="37.304140" lon="-3.111483">
        <ele>964.000000</ele>
        <time>2019-05-09T06:52:20Z</time>
      </trkpt>
      <trkpt lat="37.304148" lon="-3.111467">
        <ele>964.000000</ele>
        <time>2019-05-09T06:52:21Z</time>
      </trkpt>
      <trkpt lat="37.304308" lon="-3.110692">
        <ele>968.000000</ele>
        <time>2019-05-09T06:52:59Z</time>
      </trkpt>
      <trkpt lat="37.304313" lon="-3.110675">
        <ele>969.000000</ele>
        <time>2019-05-09T06:53:00Z</time>
      </trkpt>
      <trkpt lat="37.304318" lon="-3.110657">
        <ele>969.000000</ele>
        <time>2019-05-09T06:53:01Z</time>
      </trkpt>
      <trkpt lat="37.304324" lon="-3.110640">
        <ele>969.000000</ele>
        <time>2019-05-09T06:53:02Z</time>
      </trkpt>
      <trkpt lat="37.304329" lon="-3.110622">
        <ele>969.000000</ele>
        <time>2019-05-09T06:53:03Z</time>
      </trkpt>
      <trkpt lat="37.304335" lon="-3.110600">
        <ele>969.000000</ele>
        <time>2019-05-09T06:53:04Z</time>
      </trkpt>
      <trkpt lat="37.304341" lon="-3.110582">
        <ele>970.000000</ele>
        <time>2019-05-09T06:53:05Z</time>
      </trkpt>
      <trkpt lat="37.304350" lon="-3.110560">
        <ele>970.000000</ele>
        <time>2019-05-09T06:53:06Z</time>
      </trkpt>
      <trkpt lat="37.304357" lon="-3.110540">
        <ele>970.000000</ele>
        <time>2019-05-09T06:53:07Z</time>
      </trkpt>
      <trkpt lat="37.304363" lon="-3.110517">
        <ele>970.000000</ele>
        <time>2019-05-09T06:53:08Z</time>
      </trkpt>
      <trkpt lat="37.304368" lon="-3.110498">
        <ele>971.000000</ele>
        <time>2019-05-09T06:53:09Z</time>
      </trkpt>
      <trkpt lat="37.304371" lon="-3.110482">
        <ele>971.000000</ele>
        <time>2019-05-09T06:53:10Z</time>
      </trkpt>
      <trkpt lat="37.304376" lon="-3.110460">
        <ele>971.000000</ele>
        <time>2019-05-09T06:53:11Z</time>
      </trkpt>
      <trkpt lat="37.304379" lon="-3.110443">
        <ele>971.000000</ele>
        <time>2019-05-09T06:53:13Z</time>
      </trkpt>
      <trkpt lat="37.304382" lon="-3.110425">
        <ele>971.000000</ele>
        <time>2019-05-09T06:53:13Z</time>
      </trkpt>
      <trkpt lat="37.304387" lon="-3.110398">
        <ele>971.000000</ele>
        <time>2019-05-09T06:53:14Z</time>
      </trkpt>
      <trkpt lat="37.304390" lon="-3.110378">
        <ele>971.000000</ele>
        <time>2019-05-09T06:53:15Z</time>
      </trkpt>
      <trkpt lat="37.304394" lon="-3.110357">
        <ele>971.000000</ele>
        <time>2019-05-09T06:53:16Z</time>
      </trkpt>
      <trkpt lat="37.304398" lon="-3.110335">
        <ele>972.000000</ele>
        <time>2019-05-09T06:53:17Z</time>
      </trkpt>
      <trkpt lat="37.304402" lon="-3.110318">
        <ele>972.000000</ele>
        <time>2019-05-09T06:53:18Z</time>
      </trkpt>
      <trkpt lat="37.304406" lon="-3.110297">
        <ele>972.000000</ele>
        <time>2019-05-09T06:53:19Z</time>
      </trkpt>
      <trkpt lat="37.304410" lon="-3.110278">
        <ele>972.000000</ele>
        <time>2019-05-09T06:53:20Z</time>
      </trkpt>
      <trkpt lat="37.304414" lon="-3.110262">
        <ele>972.000000</ele>
        <time>2019-05-09T06:53:21Z</time>
      </trkpt>
      <trkpt lat="37.304417" lon="-3.110245">
        <ele>972.000000</ele>
        <time>2019-05-09T06:53:22Z</time>
      </trkpt>
      <trkpt lat="37.304421" lon="-3.110227">
        <ele>972.000000</ele>
        <time>2019-05-09T06:53:23Z</time>
      </trkpt>
      <trkpt lat="37.304424" lon="-3.110208">
        <ele>972.000000</ele>
        <time>2019-05-09T06:53:24Z</time>
      </trkpt>
      <trkpt lat="37.304428" lon="-3.110188">
        <ele>972.000000</ele>
        <time>2019-05-09T06:53:25Z</time>
      </trkpt>
      <trkpt lat="37.304432" lon="-3.110167">
        <ele>972.000000</ele>
        <time>2019-05-09T06:53:26Z</time>
      </trkpt>
      <trkpt lat="37.304436" lon="-3.110145">
        <ele>972.000000</ele>
        <time>2019-05-09T06:53:27Z</time>
      </trkpt>
      <trkpt lat="37.304439" lon="-3.110123">
        <ele>972.000000</ele>
        <time>2019-05-09T06:53:28Z</time>
      </trkpt>
      <trkpt lat="37.304442" lon="-3.110107">
        <ele>973.000000</ele>
        <time>2019-05-09T06:53:29Z</time>
      </trkpt>
      <trkpt lat="37.304443" lon="-3.110087">
        <ele>973.000000</ele>
        <time>2019-05-09T06:53:30Z</time>
      </trkpt>
      <trkpt lat="37.304444" lon="-3.110070">
        <ele>973.000000</ele>
        <time>2019-05-09T06:53:31Z</time>
      </trkpt>
      <trkpt lat="37.304444" lon="-3.110053">
        <ele>973.000000</ele>
        <time>2019-05-09T06:53:32Z</time>
      </trkpt>
      <trkpt lat="37.304444" lon="-3.110035">
        <ele>973.000000</ele>
        <time>2019-05-09T06:53:33Z</time>
      </trkpt>
      <trkpt lat="37.304444" lon="-3.110015">
        <ele>974.000000</ele>
        <time>2019-05-09T06:53:34Z</time>
      </trkpt>
      <trkpt lat="37.304444" lon="-3.109995">
        <ele>974.000000</ele>
        <time>2019-05-09T06:53:35Z</time>
      </trkpt>
      <trkpt lat="37.304443" lon="-3.109972">
        <ele>974.000000</ele>
        <time>2019-05-09T06:53:36Z</time>
      </trkpt>
      <trkpt lat="37.304442" lon="-3.109948">
        <ele>974.000000</ele>
        <time>2019-05-09T06:53:37Z</time>
      </trkpt>
      <trkpt lat="37.304442" lon="-3.109923">
        <ele>975.000000</ele>
        <time>2019-05-09T06:53:38Z</time>
      </trkpt>
      <trkpt lat="37.304440" lon="-3.109907">
        <ele>975.000000</ele>
        <time>2019-05-09T06:53:39Z</time>
      </trkpt>
      <trkpt lat="37.304438" lon="-3.109888">
        <ele>975.000000</ele>
        <time>2019-05-09T06:53:40Z</time>
      </trkpt>
      <trkpt lat="37.304436" lon="-3.109873">
        <ele>975.000000</ele>
        <time>2019-05-09T06:53:41Z</time>
      </trkpt>
      <trkpt lat="37.304433" lon="-3.109858">
        <ele>975.000000</ele>
        <time>2019-05-09T06:53:42Z</time>
      </trkpt>
      <trkpt lat="37.304433" lon="-3.109840">
        <ele>976.000000</ele>
        <time>2019-05-09T06:53:43Z</time>
      </trkpt>
      <trkpt lat="37.304431" lon="-3.109822">
        <ele>976.000000</ele>
        <time>2019-05-09T06:53:44Z</time>
      </trkpt>
      <trkpt lat="37.304430" lon="-3.109800">
        <ele>976.000000</ele>
        <time>2019-05-09T06:53:45Z</time>
      </trkpt>
      <trkpt lat="37.304430" lon="-3.109778">
        <ele>976.000000</ele>
        <time>2019-05-09T06:53:46Z</time>
      </trkpt>
      <trkpt lat="37.304429" lon="-3.109757">
        <ele>976.000000</ele>
        <time>2019-05-09T06:53:47Z</time>
      </trkpt>
      <trkpt lat="37.304429" lon="-3.109735">
        <ele>977.000000</ele>
        <time>2019-05-09T06:53:48Z</time>
      </trkpt>
      <trkpt lat="37.304427" lon="-3.109717">
        <ele>977.000000</ele>
        <time>2019-05-09T06:53:49Z</time>
      </trkpt>
      <trkpt lat="37.304425" lon="-3.109700">
        <ele>977.000000</ele>
        <time>2019-05-09T06:53:50Z</time>
      </trkpt>
      <trkpt lat="37.304423" lon="-3.109685">
        <ele>977.000000</ele>
        <time>2019-05-09T06:53:51Z</time>
      </trkpt>
      <trkpt lat="37.304420" lon="-3.109668">
        <ele>978.000000</ele>
        <time>2019-05-09T06:53:52Z</time>
      </trkpt>
      <trkpt lat="37.304418" lon="-3.109650">
        <ele>978.000000</ele>
        <time>2019-05-09T06:53:53Z</time>
      </trkpt>
      <trkpt lat="37.304416" lon="-3.109632">
        <ele>978.000000</ele>
        <time>2019-05-09T06:53:54Z</time>
      </trkpt>
      <trkpt lat="37.304413" lon="-3.109608">
        <ele>978.000000</ele>
        <time>2019-05-09T06:53:55Z</time>
      </trkpt>
      <trkpt lat="37.304410" lon="-3.109587">
        <ele>978.000000</ele>
        <time>2019-05-09T06:53:56Z</time>
      </trkpt>
      <trkpt lat="37.304409" lon="-3.109565">
        <ele>979.000000</ele>
        <time>2019-05-09T06:53:57Z</time>
      </trkpt>
      <trkpt lat="37.304406" lon="-3.109547">
        <ele>979.000000</ele>
        <time>2019-05-09T06:53:58Z</time>
      </trkpt>
      <trkpt lat="37.304403" lon="-3.109528">
        <ele>979.000000</ele>
        <time>2019-05-09T06:54:00Z</time>
      </trkpt>
      <trkpt lat="37.304403" lon="-3.109512">
        <ele>979.000000</ele>
        <time>2019-05-09T06:54:00Z</time>
      </trkpt>
      <trkpt lat="37.304400" lon="-3.109495">
        <ele>980.000000</ele>
        <time>2019-05-09T06:54:01Z</time>
      </trkpt>
      <trkpt lat="37.304396" lon="-3.109480">
        <ele>980.000000</ele>
        <time>2019-05-09T06:54:02Z</time>
      </trkpt>
      <trkpt lat="37.304395" lon="-3.109463">
        <ele>980.000000</ele>
        <time>2019-05-09T06:54:03Z</time>
      </trkpt>
      <trkpt lat="37.304391" lon="-3.109445">
        <ele>980.000000</ele>
        <time>2019-05-09T06:54:04Z</time>
      </trkpt>
      <trkpt lat="37.304387" lon="-3.109425">
        <ele>980.000000</ele>
        <time>2019-05-09T06:54:05Z</time>
      </trkpt>
      <trkpt lat="37.304385" lon="-3.109403">
        <ele>980.000000</ele>
        <time>2019-05-09T06:54:06Z</time>
      </trkpt>
      <trkpt lat="37.304380" lon="-3.109382">
        <ele>980.000000</ele>
        <time>2019-05-09T06:54:07Z</time>
      </trkpt>
      <trkpt lat="37.304375" lon="-3.109362">
        <ele>980.000000</ele>
        <time>2019-05-09T06:54:08Z</time>
      </trkpt>
      <trkpt lat="37.304371" lon="-3.109343">
        <ele>980.000000</ele>
        <time>2019-05-09T06:54:09Z</time>
      </trkpt>
      <trkpt lat="37.304368" lon="-3.109328">
        <ele>980.000000</ele>
        <time>2019-05-09T06:54:10Z</time>
      </trkpt>
      <trkpt lat="37.304363" lon="-3.109313">
        <ele>981.000000</ele>
        <time>2019-05-09T06:54:11Z</time>
      </trkpt>
      <trkpt lat="37.304358" lon="-3.109300">
        <ele>981.000000</ele>
        <time>2019-05-09T06:54:12Z</time>
      </trkpt>
      <trkpt lat="37.304354" lon="-3.109285">
        <ele>981.000000</ele>
        <time>2019-05-09T06:54:13Z</time>
      </trkpt>
      <trkpt lat="37.304349" lon="-3.109267">
        <ele>981.000000</ele>
        <time>2019-05-09T06:54:14Z</time>
      </trkpt>
      <trkpt lat="37.304345" lon="-3.109245">
        <ele>981.000000</ele>
        <time>2019-05-09T06:54:15Z</time>
      </trkpt>
      <trkpt lat="37.304338" lon="-3.109222">
        <ele>981.000000</ele>
        <time>2019-05-09T06:54:16Z</time>
      </trkpt>
      <trkpt lat="37.304333" lon="-3.109202">
        <ele>982.000000</ele>
        <time>2019-05-09T06:54:17Z</time>
      </trkpt>
      <trkpt lat="37.304327" lon="-3.109183">
        <ele>982.000000</ele>
        <time>2019-05-09T06:54:18Z</time>
      </trkpt>
      <trkpt lat="37.304321" lon="-3.109168">
        <ele>982.000000</ele>
        <time>2019-05-09T06:54:19Z</time>
      </trkpt>
      <trkpt lat="37.304314" lon="-3.109152">
        <ele>982.000000</ele>
        <time>2019-05-09T06:54:20Z</time>
      </trkpt>
      <trkpt lat="37.304308" lon="-3.109138">
        <ele>982.000000</ele>
        <time>2019-05-09T06:54:21Z</time>
      </trkpt>
      <trkpt lat="37.304302" lon="-3.109122">
        <ele>982.000000</ele>
        <time>2019-05-09T06:54:22Z</time>
      </trkpt>
      <trkpt lat="37.304295" lon="-3.109105">
        <ele>983.000000</ele>
        <time>2019-05-09T06:54:23Z</time>
      </trkpt>
      <trkpt lat="37.304287" lon="-3.109085">
        <ele>983.000000</ele>
        <time>2019-05-09T06:54:24Z</time>
      </trkpt>
      <trkpt lat="37.304279" lon="-3.109065">
        <ele>983.000000</ele>
        <time>2019-05-09T06:54:25Z</time>
      </trkpt>
      <trkpt lat="37.304272" lon="-3.109042">
        <ele>983.000000</ele>
        <time>2019-05-09T06:54:26Z</time>
      </trkpt>
      <trkpt lat="37.304261" lon="-3.109015">
        <ele>983.000000</ele>
        <time>2019-05-09T06:54:27Z</time>
      </trkpt>
      <trkpt lat="37.304233" lon="-3.108992">
        <ele>983.000000</ele>
        <time>2019-05-09T06:54:28Z</time>
      </trkpt>
      <trkpt lat="37.304232" lon="-3.108970">
        <ele>984.000000</ele>
        <time>2019-05-09T06:54:29Z</time>
      </trkpt>
      <trkpt lat="37.304230" lon="-3.108952">
        <ele>984.000000</ele>
        <time>2019-05-09T06:54:30Z</time>
      </trkpt>
      <trkpt lat="37.304231" lon="-3.108935">
        <ele>984.000000</ele>
        <time>2019-05-09T06:54:31Z</time>
      </trkpt>
      <trkpt lat="37.304234" lon="-3.108920">
        <ele>984.000000</ele>
        <time>2019-05-09T06:54:32Z</time>
      </trkpt>
      <trkpt lat="37.304237" lon="-3.108903">
        <ele>984.000000</ele>
        <time>2019-05-09T06:54:33Z</time>
      </trkpt>
      <trkpt lat="37.304240" lon="-3.108888">
        <ele>984.000000</ele>
        <time>2019-05-09T06:54:34Z</time>
      </trkpt>
      <trkpt lat="37.304245" lon="-3.108868">
        <ele>984.000000</ele>
        <time>2019-05-09T06:54:35Z</time>
      </trkpt>
      <trkpt lat="37.304250" lon="-3.108847">
        <ele>984.000000</ele>
        <time>2019-05-09T06:54:36Z</time>
      </trkpt>
      <trkpt lat="37.304255" lon="-3.108827">
        <ele>985.000000</ele>
        <time>2019-05-09T06:54:37Z</time>
      </trkpt>
      <trkpt lat="37.304259" lon="-3.108805">
        <ele>985.000000</ele>
        <time>2019-05-09T06:54:38Z</time>
      </trkpt>
      <trkpt lat="37.304264" lon="-3.108783">
        <ele>985.000000</ele>
        <time>2019-05-09T06:54:39Z</time>
      </trkpt>
      <trkpt lat="37.304268" lon="-3.108767">
        <ele>985.000000</ele>
        <time>2019-05-09T06:54:40Z</time>
      </trkpt>
      <trkpt lat="37.304272" lon="-3.108750">
        <ele>985.000000</ele>
        <time>2019-05-09T06:54:41Z</time>
      </trkpt>
      <trkpt lat="37.304274" lon="-3.108733">
        <ele>986.000000</ele>
        <time>2019-05-09T06:54:42Z</time>
      </trkpt>
      <trkpt lat="37.304277" lon="-3.108715">
        <ele>986.000000</ele>
        <time>2019-05-09T06:54:43Z</time>
      </trkpt>
      <trkpt lat="37.304280" lon="-3.108695">
        <ele>986.000000</ele>
        <time>2019-05-09T06:54:44Z</time>
      </trkpt>
      <trkpt lat="37.304283" lon="-3.108673">
        <ele>986.000000</ele>
        <time>2019-05-09T06:54:45Z</time>
      </trkpt>
      <trkpt lat="37.304285" lon="-3.108652">
        <ele>986.000000</ele>
        <time>2019-05-09T06:54:46Z</time>
      </trkpt>
      <trkpt lat="37.304287" lon="-3.108630">
        <ele>987.000000</ele>
        <time>2019-05-09T06:54:47Z</time>
      </trkpt>
      <trkpt lat="37.304289" lon="-3.108607">
        <ele>987.000000</ele>
        <time>2019-05-09T06:54:48Z</time>
      </trkpt>
      <trkpt lat="37.304290" lon="-3.108587">
        <ele>987.000000</ele>
        <time>2019-05-09T06:54:49Z</time>
      </trkpt>
      <trkpt lat="37.304292" lon="-3.108568">
        <ele>987.000000</ele>
        <time>2019-05-09T06:54:50Z</time>
      </trkpt>
      <trkpt lat="37.304293" lon="-3.108550">
        <ele>987.000000</ele>
        <time>2019-05-09T06:54:51Z</time>
      </trkpt>
      <trkpt lat="37.304295" lon="-3.108532">
        <ele>987.000000</ele>
        <time>2019-05-09T06:54:52Z</time>
      </trkpt>
      <trkpt lat="37.304297" lon="-3.108515">
        <ele>987.000000</ele>
        <time>2019-05-09T06:54:53Z</time>
      </trkpt>
      <trkpt lat="37.304298" lon="-3.108495">
        <ele>988.000000</ele>
        <time>2019-05-09T06:54:54Z</time>
      </trkpt>
      <trkpt lat="37.304301" lon="-3.108473">
        <ele>988.000000</ele>
        <time>2019-05-09T06:54:55Z</time>
      </trkpt>
      <trkpt lat="37.304304" lon="-3.108450">
        <ele>988.000000</ele>
        <time>2019-05-09T06:54:56Z</time>
      </trkpt>
      <trkpt lat="37.304307" lon="-3.108427">
        <ele>988.000000</ele>
        <time>2019-05-09T06:54:57Z</time>
      </trkpt>
      <trkpt lat="37.304310" lon="-3.108403">
        <ele>988.000000</ele>
        <time>2019-05-09T06:54:59Z</time>
      </trkpt>
      <trkpt lat="37.304312" lon="-3.108380">
        <ele>988.000000</ele>
        <time>2019-05-09T06:55:00Z</time>
      </trkpt>
      <trkpt lat="37.304315" lon="-3.108360">
        <ele>989.000000</ele>
        <time>2019-05-09T06:55:00Z</time>
      </trkpt>
      <trkpt lat="37.304317" lon="-3.108342">
        <ele>989.000000</ele>
        <time>2019-05-09T06:55:00Z</time>
      </trkpt>
      <trkpt lat="37.304318" lon="-3.108323">
        <ele>989.000000</ele>
        <time>2019-05-09T06:55:01Z</time>
      </trkpt>
      <trkpt lat="37.304319" lon="-3.108302">
        <ele>989.000000</ele>
        <time>2019-05-09T06:55:02Z</time>
      </trkpt>
      <trkpt lat="37.304320" lon="-3.108280">
        <ele>989.000000</ele>
        <time>2019-05-09T06:55:03Z</time>
      </trkpt>
      <trkpt lat="37.304320" lon="-3.108262">
        <ele>990.000000</ele>
        <time>2019-05-09T06:55:04Z</time>
      </trkpt>
      <trkpt lat="37.304320" lon="-3.108240">
        <ele>990.000000</ele>
        <time>2019-05-09T06:55:06Z</time>
      </trkpt>
      <trkpt lat="37.304321" lon="-3.108197">
        <ele>990.000000</ele>
        <time>2019-05-09T06:55:07Z</time>
      </trkpt>
      <trkpt lat="37.304320" lon="-3.108178">
        <ele>990.000000</ele>
        <time>2019-05-09T06:55:08Z</time>
      </trkpt>
      <trkpt lat="37.304317" lon="-3.108163">
        <ele>990.000000</ele>
        <time>2019-05-09T06:55:09Z</time>
      </trkpt>
      <trkpt lat="37.304314" lon="-3.108148">
        <ele>991.000000</ele>
        <time>2019-05-09T06:55:10Z</time>
      </trkpt>
      <trkpt lat="37.304311" lon="-3.108135">
        <ele>991.000000</ele>
        <time>2019-05-09T06:55:11Z</time>
      </trkpt>
      <trkpt lat="37.304307" lon="-3.108117">
        <ele>991.000000</ele>
        <time>2019-05-09T06:55:12Z</time>
      </trkpt>
      <trkpt lat="37.304303" lon="-3.108103">
        <ele>991.000000</ele>
        <time>2019-05-09T06:55:13Z</time>
      </trkpt>
      <trkpt lat="37.304297" lon="-3.108088">
        <ele>992.000000</ele>
        <time>2019-05-09T06:55:14Z</time>
      </trkpt>
      <trkpt lat="37.304293" lon="-3.108073">
        <ele>992.000000</ele>
        <time>2019-05-09T06:55:15Z</time>
      </trkpt>
      <trkpt lat="37.304288" lon="-3.108060">
        <ele>992.000000</ele>
        <time>2019-05-09T06:55:16Z</time>
      </trkpt>
      <trkpt lat="37.304284" lon="-3.108048">
        <ele>992.000000</ele>
        <time>2019-05-09T06:55:17Z</time>
      </trkpt>
      <trkpt lat="37.304278" lon="-3.108032">
        <ele>992.000000</ele>
        <time>2019-05-09T06:55:18Z</time>
      </trkpt>
      <trkpt lat="37.304272" lon="-3.108013">
        <ele>992.000000</ele>
        <time>2019-05-09T06:55:19Z</time>
      </trkpt>
      <trkpt lat="37.304268" lon="-3.107995">
        <ele>993.000000</ele>
        <time>2019-05-09T06:55:20Z</time>
      </trkpt>
      <trkpt lat="37.304260" lon="-3.107978">
        <ele>993.000000</ele>
        <time>2019-05-09T06:55:21Z</time>
      </trkpt>
      <trkpt lat="37.304254" lon="-3.107963">
        <ele>993.000000</ele>
        <time>2019-05-09T06:55:22Z</time>
      </trkpt>
      <trkpt lat="37.304246" lon="-3.107950">
        <ele>993.000000</ele>
        <time>2019-05-09T06:55:23Z</time>
      </trkpt>
      <trkpt lat="37.304237" lon="-3.107935">
        <ele>994.000000</ele>
        <time>2019-05-09T06:55:24Z</time>
      </trkpt>
      <trkpt lat="37.304229" lon="-3.107920">
        <ele>994.000000</ele>
        <time>2019-05-09T06:55:25Z</time>
      </trkpt>
      <trkpt lat="37.304220" lon="-3.107907">
        <ele>994.000000</ele>
        <time>2019-05-09T06:55:26Z</time>
      </trkpt>
      <trkpt lat="37.304212" lon="-3.107892">
        <ele>994.000000</ele>
        <time>2019-05-09T06:55:27Z</time>
      </trkpt>
      <trkpt lat="37.304203" lon="-3.107877">
        <ele>994.000000</ele>
        <time>2019-05-09T06:55:28Z</time>
      </trkpt>
      <trkpt lat="37.304193" lon="-3.107858">
        <ele>995.000000</ele>
        <time>2019-05-09T06:55:29Z</time>
      </trkpt>
      <trkpt lat="37.304184" lon="-3.107843">
        <ele>995.000000</ele>
        <time>2019-05-09T06:55:30Z</time>
      </trkpt>
      <trkpt lat="37.304175" lon="-3.107832">
        <ele>995.000000</ele>
        <time>2019-05-09T06:55:31Z</time>
      </trkpt>
      <trkpt lat="37.304166" lon="-3.107820">
        <ele>995.000000</ele>
        <time>2019-05-09T06:55:32Z</time>
      </trkpt>
      <trkpt lat="37.304156" lon="-3.107808">
        <ele>995.000000</ele>
        <time>2019-05-09T06:55:34Z</time>
      </trkpt>
      <trkpt lat="37.304145" lon="-3.107797">
        <ele>996.000000</ele>
        <time>2019-05-09T06:55:34Z</time>
      </trkpt>
      <trkpt lat="37.304135" lon="-3.107787">
        <ele>996.000000</ele>
        <time>2019-05-09T06:55:35Z</time>
      </trkpt>
      <trkpt lat="37.304124" lon="-3.107775">
        <ele>996.000000</ele>
        <time>2019-05-09T06:55:36Z</time>
      </trkpt>
      <trkpt lat="37.304115" lon="-3.107767">
        <ele>996.000000</ele>
        <time>2019-05-09T06:55:37Z</time>
      </trkpt>
      <trkpt lat="37.304102" lon="-3.107755">
        <ele>996.000000</ele>
        <time>2019-05-09T06:55:38Z</time>
      </trkpt>
      <trkpt lat="37.304092" lon="-3.107743">
        <ele>996.000000</ele>
        <time>2019-05-09T06:55:39Z</time>
      </trkpt>
      <trkpt lat="37.304079" lon="-3.107730">
        <ele>997.000000</ele>
        <time>2019-05-09T06:55:40Z</time>
      </trkpt>
      <trkpt lat="37.304066" lon="-3.107718">
        <ele>997.000000</ele>
        <time>2019-05-09T06:55:41Z</time>
      </trkpt>
      <trkpt lat="37.304054" lon="-3.107707">
        <ele>997.000000</ele>
        <time>2019-05-09T06:55:42Z</time>
      </trkpt>
      <trkpt lat="37.304042" lon="-3.107695">
        <ele>997.000000</ele>
        <time>2019-05-09T06:55:43Z</time>
      </trkpt>
      <trkpt lat="37.304028" lon="-3.107682">
        <ele>997.000000</ele>
        <time>2019-05-09T06:55:44Z</time>
      </trkpt>
      <trkpt lat="37.304015" lon="-3.107668">
        <ele>998.000000</ele>
        <time>2019-05-09T06:55:45Z</time>
      </trkpt>
      <trkpt lat="37.304001" lon="-3.107653">
        <ele>998.000000</ele>
        <time>2019-05-09T06:55:46Z</time>
      </trkpt>
      <trkpt lat="37.303988" lon="-3.107640">
        <ele>998.000000</ele>
        <time>2019-05-09T06:55:47Z</time>
      </trkpt>
      <trkpt lat="37.303975" lon="-3.107628">
        <ele>998.000000</ele>
        <time>2019-05-09T06:55:48Z</time>
      </trkpt>
      <trkpt lat="37.303961" lon="-3.107613">
        <ele>998.000000</ele>
        <time>2019-05-09T06:55:49Z</time>
      </trkpt>
      <trkpt lat="37.303947" lon="-3.107598">
        <ele>998.000000</ele>
        <time>2019-05-09T06:55:50Z</time>
      </trkpt>
      <trkpt lat="37.303933" lon="-3.107585">
        <ele>998.000000</ele>
        <time>2019-05-09T06:55:51Z</time>
      </trkpt>
      <trkpt lat="37.303918" lon="-3.107570">
        <ele>998.000000</ele>
        <time>2019-05-09T06:55:52Z</time>
      </trkpt>
      <trkpt lat="37.303902" lon="-3.107552">
        <ele>998.000000</ele>
        <time>2019-05-09T06:55:53Z</time>
      </trkpt>
      <trkpt lat="37.303888" lon="-3.107537">
        <ele>998.000000</ele>
        <time>2019-05-09T06:55:54Z</time>
      </trkpt>
      <trkpt lat="37.303873" lon="-3.107518">
        <ele>998.000000</ele>
        <time>2019-05-09T06:55:55Z</time>
      </trkpt>
      <trkpt lat="37.303858" lon="-3.107498">
        <ele>999.000000</ele>
        <time>2019-05-09T06:55:56Z</time>
      </trkpt>
      <trkpt lat="37.303860" lon="-3.107480">
        <ele>999.000000</ele>
        <time>2019-05-09T06:55:57Z</time>
      </trkpt>
      <trkpt lat="37.303857" lon="-3.107463">
        <ele>999.000000</ele>
        <time>2019-05-09T06:55:58Z</time>
      </trkpt>
      <trkpt lat="37.303853" lon="-3.107440">
        <ele>999.000000</ele>
        <time>2019-05-09T06:55:59Z</time>
      </trkpt>
      <trkpt lat="37.303855" lon="-3.107418">
        <ele>999.000000</ele>
        <time>2019-05-09T06:56:00Z</time>
      </trkpt>
      <trkpt lat="37.303862" lon="-3.107398">
        <ele>999.000000</ele>
        <time>2019-05-09T06:56:01Z</time>
      </trkpt>
      <trkpt lat="37.303867" lon="-3.107378">
        <ele>1000.000000</ele>
        <time>2019-05-09T06:56:02Z</time>
      </trkpt>
      <trkpt lat="37.303868" lon="-3.107357">
        <ele>1000.000000</ele>
        <time>2019-05-09T06:56:03Z</time>
      </trkpt>
      <trkpt lat="37.303873" lon="-3.107338">
        <ele>1000.000000</ele>
        <time>2019-05-09T06:56:04Z</time>
      </trkpt>
      <trkpt lat="37.303882" lon="-3.107320">
        <ele>1000.000000</ele>
        <time>2019-05-09T06:56:05Z</time>
      </trkpt>
      <trkpt lat="37.303890" lon="-3.107303">
        <ele>1000.000000</ele>
        <time>2019-05-09T06:56:06Z</time>
      </trkpt>
      <trkpt lat="37.303898" lon="-3.107290">
        <ele>1000.000000</ele>
        <time>2019-05-09T06:56:07Z</time>
      </trkpt>
      <trkpt lat="37.303905" lon="-3.107275">
        <ele>1001.000000</ele>
        <time>2019-05-09T06:56:08Z</time>
      </trkpt>
      <trkpt lat="37.303912" lon="-3.107260">
        <ele>1001.000000</ele>
        <time>2019-05-09T06:56:09Z</time>
      </trkpt>
      <trkpt lat="37.303918" lon="-3.107245">
        <ele>1001.000000</ele>
        <time>2019-05-09T06:56:10Z</time>
      </trkpt>
      <trkpt lat="37.303926" lon="-3.107228">
        <ele>1001.000000</ele>
        <time>2019-05-09T06:56:11Z</time>
      </trkpt>
      <trkpt lat="37.303931" lon="-3.107215">
        <ele>1001.000000</ele>
        <time>2019-05-09T06:56:12Z</time>
      </trkpt>
      <trkpt lat="37.303938" lon="-3.107200">
        <ele>1001.000000</ele>
        <time>2019-05-09T06:56:13Z</time>
      </trkpt>
      <trkpt lat="37.303947" lon="-3.107185">
        <ele>1001.000000</ele>
        <time>2019-05-09T06:56:14Z</time>
      </trkpt>
      <trkpt lat="37.303956" lon="-3.107170">
        <ele>1002.000000</ele>
        <time>2019-05-09T06:56:15Z</time>
      </trkpt>
      <trkpt lat="37.303964" lon="-3.107157">
        <ele>1002.000000</ele>
        <time>2019-05-09T06:56:16Z</time>
      </trkpt>
      <trkpt lat="37.303972" lon="-3.107143">
        <ele>1002.000000</ele>
        <time>2019-05-09T06:56:17Z</time>
      </trkpt>
      <trkpt lat="37.303983" lon="-3.107128">
        <ele>1002.000000</ele>
        <time>2019-05-09T06:56:18Z</time>
      </trkpt>
      <trkpt lat="37.303993" lon="-3.107112">
        <ele>1002.000000</ele>
        <time>2019-05-09T06:56:19Z</time>
      </trkpt>
      <trkpt lat="37.304002" lon="-3.107095">
        <ele>1002.000000</ele>
        <time>2019-05-09T06:56:21Z</time>
      </trkpt>
      <trkpt lat="37.304011" lon="-3.107077">
        <ele>1003.000000</ele>
        <time>2019-05-09T06:56:21Z</time>
      </trkpt>
      <trkpt lat="37.304017" lon="-3.107062">
        <ele>1003.000000</ele>
        <time>2019-05-09T06:56:22Z</time>
      </trkpt>
      <trkpt lat="37.304025" lon="-3.107043">
        <ele>1003.000000</ele>
        <time>2019-05-09T06:56:23Z</time>
      </trkpt>
      <trkpt lat="37.304033" lon="-3.107025">
        <ele>1003.000000</ele>
        <time>2019-05-09T06:56:24Z</time>
      </trkpt>
      <trkpt lat="37.304039" lon="-3.107008">
        <ele>1003.000000</ele>
        <time>2019-05-09T06:56:25Z</time>
      </trkpt>
      <trkpt lat="37.304046" lon="-3.106992">
        <ele>1003.000000</ele>
        <time>2019-05-09T06:56:26Z</time>
      </trkpt>
      <trkpt lat="37.304053" lon="-3.106972">
        <ele>1004.000000</ele>
        <time>2019-05-09T06:56:27Z</time>
      </trkpt>
      <trkpt lat="37.304061" lon="-3.106952">
        <ele>1004.000000</ele>
        <time>2019-05-09T06:56:28Z</time>
      </trkpt>
      <trkpt lat="37.304066" lon="-3.106937">
        <ele>1004.000000</ele>
        <time>2019-05-09T06:56:29Z</time>
      </trkpt>
      <trkpt lat="37.304070" lon="-3.106922">
        <ele>1004.000000</ele>
        <time>2019-05-09T06:56:30Z</time>
      </trkpt>
      <trkpt lat="37.304075" lon="-3.106905">
        <ele>1004.000000</ele>
        <time>2019-05-09T06:56:31Z</time>
      </trkpt>
      <trkpt lat="37.304080" lon="-3.106890">
        <ele>1004.000000</ele>
        <time>2019-05-09T06:56:32Z</time>
      </trkpt>
      <trkpt lat="37.304082" lon="-3.106877">
        <ele>1004.000000</ele>
        <time>2019-05-09T06:56:33Z</time>
      </trkpt>
      <trkpt lat="37.304086" lon="-3.106860">
        <ele>1004.000000</ele>
        <time>2019-05-09T06:56:34Z</time>
      </trkpt>
      <trkpt lat="37.304088" lon="-3.106843">
        <ele>1004.000000</ele>
        <time>2019-05-09T06:56:35Z</time>
      </trkpt>
      <trkpt lat="37.304091" lon="-3.106825">
        <ele>1004.000000</ele>
        <time>2019-05-09T06:56:36Z</time>
      </trkpt>
      <trkpt lat="37.304053" lon="-3.106807">
        <ele>1004.000000</ele>
        <time>2019-05-09T06:56:37Z</time>
      </trkpt>
      <trkpt lat="37.304048" lon="-3.106785">
        <ele>1005.000000</ele>
        <time>2019-05-09T06:56:38Z</time>
      </trkpt>
      <trkpt lat="37.304042" lon="-3.106763">
        <ele>1005.000000</ele>
        <time>2019-05-09T06:56:39Z</time>
      </trkpt>
      <trkpt lat="37.304034" lon="-3.106745">
        <ele>1005.000000</ele>
        <time>2019-05-09T06:56:40Z</time>
      </trkpt>
      <trkpt lat="37.304025" lon="-3.106727">
        <ele>1005.000000</ele>
        <time>2019-05-09T06:56:41Z</time>
      </trkpt>
      <trkpt lat="37.304015" lon="-3.106712">
        <ele>1006.000000</ele>
        <time>2019-05-09T06:56:42Z</time>
      </trkpt>
      <trkpt lat="37.304008" lon="-3.106698">
        <ele>1006.000000</ele>
        <time>2019-05-09T06:56:43Z</time>
      </trkpt>
      <trkpt lat="37.304000" lon="-3.106683">
        <ele>1006.000000</ele>
        <time>2019-05-09T06:56:44Z</time>
      </trkpt>
      <trkpt lat="37.303992" lon="-3.106667">
        <ele>1006.000000</ele>
        <time>2019-05-09T06:56:45Z</time>
      </trkpt>
      <trkpt lat="37.303986" lon="-3.106653">
        <ele>1006.000000</ele>
        <time>2019-05-09T06:56:46Z</time>
      </trkpt>
      <trkpt lat="37.303980" lon="-3.106638">
        <ele>1007.000000</ele>
        <time>2019-05-09T06:56:47Z</time>
      </trkpt>
      <trkpt lat="37.303973" lon="-3.106622">
        <ele>1007.000000</ele>
        <time>2019-05-09T06:56:48Z</time>
      </trkpt>
      <trkpt lat="37.303967" lon="-3.106603">
        <ele>1007.000000</ele>
        <time>2019-05-09T06:56:49Z</time>
      </trkpt>
      <trkpt lat="37.303960" lon="-3.106583">
        <ele>1007.000000</ele>
        <time>2019-05-09T06:56:50Z</time>
      </trkpt>
      <trkpt lat="37.303953" lon="-3.106563">
        <ele>1007.000000</ele>
        <time>2019-05-09T06:56:51Z</time>
      </trkpt>
      <trkpt lat="37.303947" lon="-3.106543">
        <ele>1007.000000</ele>
        <time>2019-05-09T06:56:52Z</time>
      </trkpt>
      <trkpt lat="37.303941" lon="-3.106523">
        <ele>1008.000000</ele>
        <time>2019-05-09T06:56:53Z</time>
      </trkpt>
      <trkpt lat="37.303934" lon="-3.106503">
        <ele>1008.000000</ele>
        <time>2019-05-09T06:56:54Z</time>
      </trkpt>
      <trkpt lat="37.303929" lon="-3.106482">
        <ele>1008.000000</ele>
        <time>2019-05-09T06:56:55Z</time>
      </trkpt>
      <trkpt lat="37.303924" lon="-3.106460">
        <ele>1008.000000</ele>
        <time>2019-05-09T06:56:56Z</time>
      </trkpt>
      <trkpt lat="37.303919" lon="-3.106440">
        <ele>1009.000000</ele>
        <time>2019-05-09T06:56:57Z</time>
      </trkpt>
      <trkpt lat="37.303916" lon="-3.106423">
        <ele>1009.000000</ele>
        <time>2019-05-09T06:56:58Z</time>
      </trkpt>
      <trkpt lat="37.303913" lon="-3.106407">
        <ele>1009.000000</ele>
        <time>2019-05-09T06:56:59Z</time>
      </trkpt>
      <trkpt lat="37.303911" lon="-3.106393">
        <ele>1009.000000</ele>
        <time>2019-05-09T06:57:00Z</time>
      </trkpt>
      <trkpt lat="37.303909" lon="-3.106378">
        <ele>1010.000000</ele>
        <time>2019-05-09T06:57:03Z</time>
      </trkpt>
      <trkpt lat="37.303901" lon="-3.106345">
        <ele>1010.000000</ele>
        <time>2019-05-09T06:57:04Z</time>
      </trkpt>
      <trkpt lat="37.303899" lon="-3.106330">
        <ele>1010.000000</ele>
        <time>2019-05-09T06:57:04Z</time>
      </trkpt>
      <trkpt lat="37.303896" lon="-3.106313">
        <ele>1010.000000</ele>
        <time>2019-05-09T06:57:05Z</time>
      </trkpt>
      <trkpt lat="37.303892" lon="-3.106295">
        <ele>1010.000000</ele>
        <time>2019-05-09T06:57:06Z</time>
      </trkpt>
      <trkpt lat="37.303889" lon="-3.106275">
        <ele>1010.000000</ele>
        <time>2019-05-09T06:57:07Z</time>
      </trkpt>
      <trkpt lat="37.303885" lon="-3.106257">
        <ele>1010.000000</ele>
        <time>2019-05-09T06:57:08Z</time>
      </trkpt>
      <trkpt lat="37.303881" lon="-3.106237">
        <ele>1010.000000</ele>
        <time>2019-05-09T06:57:09Z</time>
      </trkpt>
      <trkpt lat="37.303878" lon="-3.106217">
        <ele>1012.000000</ele>
        <time>2019-05-09T06:57:10Z</time>
      </trkpt>
      <trkpt lat="37.303877" lon="-3.106195">
        <ele>1012.000000</ele>
        <time>2019-05-09T06:57:11Z</time>
      </trkpt>
      <trkpt lat="37.303875" lon="-3.106175">
        <ele>1012.000000</ele>
        <time>2019-05-09T06:57:12Z</time>
      </trkpt>
      <trkpt lat="37.303912" lon="-3.106157">
        <ele>1012.000000</ele>
        <time>2019-05-09T06:57:13Z</time>
      </trkpt>
      <trkpt lat="37.303922" lon="-3.106138">
        <ele>1012.000000</ele>
        <time>2019-05-09T06:57:14Z</time>
      </trkpt>
      <trkpt lat="37.303928" lon="-3.106117">
        <ele>1012.000000</ele>
        <time>2019-05-09T06:57:15Z</time>
      </trkpt>
      <trkpt lat="37.303936" lon="-3.106097">
        <ele>1012.000000</ele>
        <time>2019-05-09T06:57:16Z</time>
      </trkpt>
      <trkpt lat="37.303943" lon="-3.106078">
        <ele>1012.000000</ele>
        <time>2019-05-09T06:57:17Z</time>
      </trkpt>
      <trkpt lat="37.303949" lon="-3.106063">
        <ele>1013.000000</ele>
        <time>2019-05-09T06:57:18Z</time>
      </trkpt>
      <trkpt lat="37.303955" lon="-3.106050">
        <ele>1013.000000</ele>
        <time>2019-05-09T06:57:19Z</time>
      </trkpt>
      <trkpt lat="37.303959" lon="-3.106035">
        <ele>1013.000000</ele>
        <time>2019-05-09T06:57:20Z</time>
      </trkpt>
      <trkpt lat="37.303963" lon="-3.106020">
        <ele>1013.000000</ele>
        <time>2019-05-09T06:57:21Z</time>
      </trkpt>
      <trkpt lat="37.303967" lon="-3.106005">
        <ele>1013.000000</ele>
        <time>2019-05-09T06:57:22Z</time>
      </trkpt>
      <trkpt lat="37.303971" lon="-3.105987">
        <ele>1014.000000</ele>
        <time>2019-05-09T06:57:23Z</time>
      </trkpt>
      <trkpt lat="37.303974" lon="-3.105968">
        <ele>1014.000000</ele>
        <time>2019-05-09T06:57:24Z</time>
      </trkpt>
      <trkpt lat="37.303978" lon="-3.105945">
        <ele>1014.000000</ele>
        <time>2019-05-09T06:57:25Z</time>
      </trkpt>
      <trkpt lat="37.303981" lon="-3.105925">
        <ele>1014.000000</ele>
        <time>2019-05-09T06:57:26Z</time>
      </trkpt>
      <trkpt lat="37.303984" lon="-3.105902">
        <ele>1014.000000</ele>
        <time>2019-05-09T06:57:27Z</time>
      </trkpt>
      <trkpt lat="37.303987" lon="-3.105883">
        <ele>1015.000000</ele>
        <time>2019-05-09T06:57:28Z</time>
      </trkpt>
      <trkpt lat="37.303991" lon="-3.105862">
        <ele>1015.000000</ele>
        <time>2019-05-09T06:57:29Z</time>
      </trkpt>
      <trkpt lat="37.303995" lon="-3.105842">
        <ele>1015.000000</ele>
        <time>2019-05-09T06:57:30Z</time>
      </trkpt>
      <trkpt lat="37.304000" lon="-3.105820">
        <ele>1015.000000</ele>
        <time>2019-05-09T06:57:31Z</time>
      </trkpt>
      <trkpt lat="37.304005" lon="-3.105798">
        <ele>1015.000000</ele>
        <time>2019-05-09T06:57:32Z</time>
      </trkpt>
      <trkpt lat="37.304010" lon="-3.105778">
        <ele>1016.000000</ele>
        <time>2019-05-09T06:57:33Z</time>
      </trkpt>
      <trkpt lat="37.304015" lon="-3.105760">
        <ele>1016.000000</ele>
        <time>2019-05-09T06:57:34Z</time>
      </trkpt>
      <trkpt lat="37.304022" lon="-3.105743">
        <ele>1016.000000</ele>
        <time>2019-05-09T06:57:35Z</time>
      </trkpt>
      <trkpt lat="37.304027" lon="-3.105730">
        <ele>1016.000000</ele>
        <time>2019-05-09T06:57:36Z</time>
      </trkpt>
      <trkpt lat="37.304032" lon="-3.105718">
        <ele>1016.000000</ele>
        <time>2019-05-09T06:57:37Z</time>
      </trkpt>
      <trkpt lat="37.304038" lon="-3.105708">
        <ele>1016.000000</ele>
        <time>2019-05-09T06:57:38Z</time>
      </trkpt>
      <trkpt lat="37.304043" lon="-3.105700">
        <ele>1016.000000</ele>
        <time>2019-05-09T06:57:39Z</time>
      </trkpt>
      <trkpt lat="37.304070" lon="-3.105687">
        <ele>1017.000000</ele>
        <time>2019-05-09T06:57:40Z</time>
      </trkpt>
      <trkpt lat="37.304078" lon="-3.105677">
        <ele>1017.000000</ele>
        <time>2019-05-09T06:57:41Z</time>
      </trkpt>
      <trkpt lat="37.304088" lon="-3.105663">
        <ele>1017.000000</ele>
        <time>2019-05-09T06:57:42Z</time>
      </trkpt>
      <trkpt lat="37.304098" lon="-3.105648">
        <ele>1017.000000</ele>
        <time>2019-05-09T06:57:43Z</time>
      </trkpt>
      <trkpt lat="37.304106" lon="-3.105637">
        <ele>1017.000000</ele>
        <time>2019-05-09T06:57:44Z</time>
      </trkpt>
      <trkpt lat="37.304117" lon="-3.105622">
        <ele>1018.000000</ele>
        <time>2019-05-09T06:57:45Z</time>
      </trkpt>
      <trkpt lat="37.304124" lon="-3.105608">
        <ele>1018.000000</ele>
        <time>2019-05-09T06:57:46Z</time>
      </trkpt>
      <trkpt lat="37.304133" lon="-3.105593">
        <ele>1018.000000</ele>
        <time>2019-05-09T06:57:48Z</time>
      </trkpt>
      <trkpt lat="37.304141" lon="-3.105577">
        <ele>1018.000000</ele>
        <time>2019-05-09T06:57:48Z</time>
      </trkpt>
      <trkpt lat="37.304149" lon="-3.105560">
        <ele>1018.000000</ele>
        <time>2019-05-09T06:57:50Z</time>
      </trkpt>
      <trkpt lat="37.304157" lon="-3.105543">
        <ele>1018.000000</ele>
        <time>2019-05-09T06:57:50Z</time>
      </trkpt>
      <trkpt lat="37.304163" lon="-3.105528">
        <ele>1018.000000</ele>
        <time>2019-05-09T06:57:51Z</time>
      </trkpt>
      <trkpt lat="37.304170" lon="-3.105513">
        <ele>1018.000000</ele>
        <time>2019-05-09T06:57:52Z</time>
      </trkpt>
      <trkpt lat="37.304176" lon="-3.105498">
        <ele>1018.000000</ele>
        <time>2019-05-09T06:57:53Z</time>
      </trkpt>
      <trkpt lat="37.304184" lon="-3.105482">
        <ele>1019.000000</ele>
        <time>2019-05-09T06:57:54Z</time>
      </trkpt>
      <trkpt lat="37.304191" lon="-3.105468">
        <ele>1019.000000</ele>
        <time>2019-05-09T06:57:55Z</time>
      </trkpt>
      <trkpt lat="37.304198" lon="-3.105453">
        <ele>1019.000000</ele>
        <time>2019-05-09T06:57:56Z</time>
      </trkpt>
      <trkpt lat="37.304205" lon="-3.105442">
        <ele>1019.000000</ele>
        <time>2019-05-09T06:57:57Z</time>
      </trkpt>
      <trkpt lat="37.304213" lon="-3.105425">
        <ele>1019.000000</ele>
        <time>2019-05-09T06:57:58Z</time>
      </trkpt>
      <trkpt lat="37.304222" lon="-3.105410">
        <ele>1020.000000</ele>
        <time>2019-05-09T06:57:59Z</time>
      </trkpt>
      <trkpt lat="37.304231" lon="-3.105392">
        <ele>1020.000000</ele>
        <time>2019-05-09T06:58:00Z</time>
      </trkpt>
      <trkpt lat="37.304239" lon="-3.105377">
        <ele>1020.000000</ele>
        <time>2019-05-09T06:58:01Z</time>
      </trkpt>
      <trkpt lat="37.304247" lon="-3.105362">
        <ele>1020.000000</ele>
        <time>2019-05-09T06:58:02Z</time>
      </trkpt>
      <trkpt lat="37.304255" lon="-3.105348">
        <ele>1020.000000</ele>
        <time>2019-05-09T06:58:03Z</time>
      </trkpt>
      <trkpt lat="37.304263" lon="-3.105335">
        <ele>1021.000000</ele>
        <time>2019-05-09T06:58:04Z</time>
      </trkpt>
      <trkpt lat="37.304272" lon="-3.105320">
        <ele>1021.000000</ele>
        <time>2019-05-09T06:58:05Z</time>
      </trkpt>
      <trkpt lat="37.304279" lon="-3.105308">
        <ele>1021.000000</ele>
        <time>2019-05-09T06:58:06Z</time>
      </trkpt>
      <trkpt lat="37.304289" lon="-3.105292">
        <ele>1021.000000</ele>
        <time>2019-05-09T06:58:07Z</time>
      </trkpt>
      <trkpt lat="37.304299" lon="-3.105273">
        <ele>1021.000000</ele>
        <time>2019-05-09T06:58:08Z</time>
      </trkpt>
      <trkpt lat="37.304304" lon="-3.105262">
        <ele>1022.000000</ele>
        <time>2019-05-09T06:58:09Z</time>
      </trkpt>
      <trkpt lat="37.304313" lon="-3.105245">
        <ele>1022.000000</ele>
        <time>2019-05-09T06:58:10Z</time>
      </trkpt>
      <trkpt lat="37.304322" lon="-3.105227">
        <ele>1022.000000</ele>
        <time>2019-05-09T06:58:11Z</time>
      </trkpt>
      <trkpt lat="37.304330" lon="-3.105212">
        <ele>1022.000000</ele>
        <time>2019-05-09T06:58:12Z</time>
      </trkpt>
      <trkpt lat="37.304339" lon="-3.105193">
        <ele>1023.000000</ele>
        <time>2019-05-09T06:58:13Z</time>
      </trkpt>
      <trkpt lat="37.304346" lon="-3.105177">
        <ele>1023.000000</ele>
        <time>2019-05-09T06:58:14Z</time>
      </trkpt>
      <trkpt lat="37.304352" lon="-3.105162">
        <ele>1023.000000</ele>
        <time>2019-05-09T06:58:15Z</time>
      </trkpt>
      <trkpt lat="37.304358" lon="-3.105148">
        <ele>1023.000000</ele>
        <time>2019-05-09T06:58:16Z</time>
      </trkpt>
      <trkpt lat="37.304367" lon="-3.105132">
        <ele>1023.000000</ele>
        <time>2019-05-09T06:58:17Z</time>
      </trkpt>
      <trkpt lat="37.304372" lon="-3.105120">
        <ele>1024.000000</ele>
        <time>2019-05-09T06:58:18Z</time>
      </trkpt>
      <trkpt lat="37.304379" lon="-3.105105">
        <ele>1024.000000</ele>
        <time>2019-05-09T06:58:19Z</time>
      </trkpt>
      <trkpt lat="37.304388" lon="-3.105088">
        <ele>1024.000000</ele>
        <time>2019-05-09T06:58:20Z</time>
      </trkpt>
      <trkpt lat="37.304397" lon="-3.105073">
        <ele>1024.000000</ele>
        <time>2019-05-09T06:58:21Z</time>
      </trkpt>
      <trkpt lat="37.304403" lon="-3.105062">
        <ele>1025.000000</ele>
        <time>2019-05-09T06:58:22Z</time>
      </trkpt>
      <trkpt lat="37.304410" lon="-3.105048">
        <ele>1025.000000</ele>
        <time>2019-05-09T06:58:23Z</time>
      </trkpt>
      <trkpt lat="37.304419" lon="-3.105033">
        <ele>1025.000000</ele>
        <time>2019-05-09T06:58:24Z</time>
      </trkpt>
      <trkpt lat="37.304428" lon="-3.105020">
        <ele>1025.000000</ele>
        <time>2019-05-09T06:58:25Z</time>
      </trkpt>
      <trkpt lat="37.304435" lon="-3.105007">
        <ele>1025.000000</ele>
        <time>2019-05-09T06:58:26Z</time>
      </trkpt>
      <trkpt lat="37.304443" lon="-3.104995">
        <ele>1025.000000</ele>
        <time>2019-05-09T06:58:27Z</time>
      </trkpt>
      <trkpt lat="37.304451" lon="-3.104983">
        <ele>1025.000000</ele>
        <time>2019-05-09T06:58:28Z</time>
      </trkpt>
      <trkpt lat="37.304459" lon="-3.104972">
        <ele>1025.000000</ele>
        <time>2019-05-09T06:58:29Z</time>
      </trkpt>
      <trkpt lat="37.304469" lon="-3.104957">
        <ele>1025.000000</ele>
        <time>2019-05-09T06:58:30Z</time>
      </trkpt>
      <trkpt lat="37.304500" lon="-3.104945">
        <ele>1025.000000</ele>
        <time>2019-05-09T06:58:31Z</time>
      </trkpt>
      <trkpt lat="37.304513" lon="-3.104936">
        <ele>1026.000000</ele>
        <time>2019-05-09T06:58:32Z</time>
      </trkpt>
      <trkpt lat="37.304523" lon="-3.104926">
        <ele>1026.000000</ele>
        <time>2019-05-09T06:58:33Z</time>
      </trkpt>
      <trkpt lat="37.304533" lon="-3.104913">
        <ele>1026.000000</ele>
        <time>2019-05-09T06:58:34Z</time>
      </trkpt>
      <trkpt lat="37.304542" lon="-3.104902">
        <ele>1026.000000</ele>
        <time>2019-05-09T06:58:35Z</time>
      </trkpt>
      <trkpt lat="37.304548" lon="-3.104887">
        <ele>1027.000000</ele>
        <time>2019-05-09T06:58:36Z</time>
      </trkpt>
      <trkpt lat="37.304553" lon="-3.104870">
        <ele>1027.000000</ele>
        <time>2019-05-09T06:58:37Z</time>
      </trkpt>
      <trkpt lat="37.304559" lon="-3.104853">
        <ele>1027.000000</ele>
        <time>2019-05-09T06:58:38Z</time>
      </trkpt>
      <trkpt lat="37.304567" lon="-3.104838">
        <ele>1027.000000</ele>
        <time>2019-05-09T06:58:40Z</time>
      </trkpt>
      <trkpt lat="37.304575" lon="-3.104823">
        <ele>1027.000000</ele>
        <time>2019-05-09T06:58:40Z</time>
      </trkpt>
      <trkpt lat="37.304583" lon="-3.104810">
        <ele>1027.000000</ele>
        <time>2019-05-09T06:58:41Z</time>
      </trkpt>
      <trkpt lat="37.304591" lon="-3.104793">
        <ele>1028.000000</ele>
        <time>2019-05-09T06:58:42Z</time>
      </trkpt>
      <trkpt lat="37.304598" lon="-3.104778">
        <ele>1028.000000</ele>
        <time>2019-05-09T06:58:43Z</time>
      </trkpt>
      <trkpt lat="37.304604" lon="-3.104763">
        <ele>1028.000000</ele>
        <time>2019-05-09T06:58:44Z</time>
      </trkpt>
      <trkpt lat="37.304610" lon="-3.104747">
        <ele>1028.000000</ele>
        <time>2019-05-09T06:58:45Z</time>
      </trkpt>
      <trkpt lat="37.304616" lon="-3.104735">
        <ele>1028.000000</ele>
        <time>2019-05-09T06:58:46Z</time>
      </trkpt>
      <trkpt lat="37.304623" lon="-3.104722">
        <ele>1029.000000</ele>
        <time>2019-05-09T06:58:47Z</time>
      </trkpt>
      <trkpt lat="37.304629" lon="-3.104712">
        <ele>1029.000000</ele>
        <time>2019-05-09T06:58:48Z</time>
      </trkpt>
      <trkpt lat="37.304638" lon="-3.104695">
        <ele>1029.000000</ele>
        <time>2019-05-09T06:58:49Z</time>
      </trkpt>
      <trkpt lat="37.304646" lon="-3.104678">
        <ele>1029.000000</ele>
        <time>2019-05-09T06:58:50Z</time>
      </trkpt>
      <trkpt lat="37.304653" lon="-3.104660">
        <ele>1029.000000</ele>
        <time>2019-05-09T06:58:51Z</time>
      </trkpt>
      <trkpt lat="37.304660" lon="-3.104643">
        <ele>1029.000000</ele>
        <time>2019-05-09T06:58:52Z</time>
      </trkpt>
      <trkpt lat="37.304667" lon="-3.104625">
        <ele>1030.000000</ele>
        <time>2019-05-09T06:58:53Z</time>
      </trkpt>
      <trkpt lat="37.304672" lon="-3.104608">
        <ele>1030.000000</ele>
        <time>2019-05-09T06:58:54Z</time>
      </trkpt>
      <trkpt lat="37.304677" lon="-3.104592">
        <ele>1030.000000</ele>
        <time>2019-05-09T06:58:55Z</time>
      </trkpt>
      <trkpt lat="37.304681" lon="-3.104572">
        <ele>1030.000000</ele>
        <time>2019-05-09T06:58:56Z</time>
      </trkpt>
      <trkpt lat="37.304686" lon="-3.104552">
        <ele>1031.000000</ele>
        <time>2019-05-09T06:58:57Z</time>
      </trkpt>
      <trkpt lat="37.304687" lon="-3.104533">
        <ele>1031.000000</ele>
        <time>2019-05-09T06:58:58Z</time>
      </trkpt>
      <trkpt lat="37.304691" lon="-3.104517">
        <ele>1031.000000</ele>
        <time>2019-05-09T06:58:59Z</time>
      </trkpt>
      <trkpt lat="37.304694" lon="-3.104500">
        <ele>1031.000000</ele>
        <time>2019-05-09T06:59:00Z</time>
      </trkpt>
      <trkpt lat="37.304696" lon="-3.104483">
        <ele>1031.000000</ele>
        <time>2019-05-09T06:59:01Z</time>
      </trkpt>
      <trkpt lat="37.304699" lon="-3.104467">
        <ele>1031.000000</ele>
        <time>2019-05-09T06:59:02Z</time>
      </trkpt>
      <trkpt lat="37.304702" lon="-3.104452">
        <ele>1031.000000</ele>
        <time>2019-05-09T06:59:03Z</time>
      </trkpt>
      <trkpt lat="37.304705" lon="-3.104437">
        <ele>1031.000000</ele>
        <time>2019-05-09T06:59:04Z</time>
      </trkpt>
      <trkpt lat="37.304708" lon="-3.104422">
        <ele>1031.000000</ele>
        <time>2019-05-09T06:59:05Z</time>
      </trkpt>
      <trkpt lat="37.304712" lon="-3.104405">
        <ele>1032.000000</ele>
        <time>2019-05-09T06:59:06Z</time>
      </trkpt>
      <trkpt lat="37.304715" lon="-3.104390">
        <ele>1032.000000</ele>
        <time>2019-05-09T06:59:07Z</time>
      </trkpt>
      <trkpt lat="37.304718" lon="-3.104375">
        <ele>1032.000000</ele>
        <time>2019-05-09T06:59:08Z</time>
      </trkpt>
      <trkpt lat="37.304723" lon="-3.104360">
        <ele>1032.000000</ele>
        <time>2019-05-09T06:59:09Z</time>
      </trkpt>
      <trkpt lat="37.304727" lon="-3.104350">
        <ele>1033.000000</ele>
        <time>2019-05-09T06:59:10Z</time>
      </trkpt>
      <trkpt lat="37.304732" lon="-3.104338">
        <ele>1033.000000</ele>
        <time>2019-05-09T06:59:11Z</time>
      </trkpt>
      <trkpt lat="37.304755" lon="-3.104332">
        <ele>1033.000000</ele>
        <time>2019-05-09T06:59:12Z</time>
      </trkpt>
      <trkpt lat="37.304767" lon="-3.104318">
        <ele>1033.000000</ele>
        <time>2019-05-09T06:59:13Z</time>
      </trkpt>
      <trkpt lat="37.304775" lon="-3.104308">
        <ele>1034.000000</ele>
        <time>2019-05-09T06:59:14Z</time>
      </trkpt>
      <trkpt lat="37.304785" lon="-3.104300">
        <ele>1034.000000</ele>
        <time>2019-05-09T06:59:15Z</time>
      </trkpt>
      <trkpt lat="37.304798" lon="-3.104293">
        <ele>1034.000000</ele>
        <time>2019-05-09T06:59:15Z</time>
      </trkpt>
      <trkpt lat="37.304807" lon="-3.104283">
        <ele>1035.000000</ele>
        <time>2019-05-09T06:59:16Z</time>
      </trkpt>
      <trkpt lat="37.304818" lon="-3.104274">
        <ele>1035.000000</ele>
        <time>2019-05-09T06:59:17Z</time>
      </trkpt>
      <trkpt lat="37.304833" lon="-3.104265">
        <ele>1035.000000</ele>
        <time>2019-05-09T06:59:18Z</time>
      </trkpt>
      <trkpt lat="37.304845" lon="-3.104257">
        <ele>1035.000000</ele>
        <time>2019-05-09T06:59:19Z</time>
      </trkpt>
      <trkpt lat="37.304857" lon="-3.104246">
        <ele>1036.000000</ele>
        <time>2019-05-09T06:59:20Z</time>
      </trkpt>
      <trkpt lat="37.304870" lon="-3.104236">
        <ele>1036.000000</ele>
        <time>2019-05-09T06:59:21Z</time>
      </trkpt>
      <trkpt lat="37.304883" lon="-3.104225">
        <ele>1036.000000</ele>
        <time>2019-05-09T06:59:22Z</time>
      </trkpt>
      <trkpt lat="37.304893" lon="-3.104213">
        <ele>1037.000000</ele>
        <time>2019-05-09T06:59:23Z</time>
      </trkpt>
      <trkpt lat="37.304898" lon="-3.104203">
        <ele>1037.000000</ele>
        <time>2019-05-09T06:59:25Z</time>
      </trkpt>
      <trkpt lat="37.304907" lon="-3.104189">
        <ele>1037.000000</ele>
        <time>2019-05-09T06:59:25Z</time>
      </trkpt>
      <trkpt lat="37.304917" lon="-3.104160">
        <ele>1037.000000</ele>
        <time>2019-05-09T06:59:26Z</time>
      </trkpt>
      <trkpt lat="37.304925" lon="-3.104145">
        <ele>1038.000000</ele>
        <time>2019-05-09T06:59:27Z</time>
      </trkpt>
      <trkpt lat="37.304933" lon="-3.104135">
        <ele>1038.000000</ele>
        <time>2019-05-09T06:59:28Z</time>
      </trkpt>
      <trkpt lat="37.304940" lon="-3.104125">
        <ele>1038.000000</ele>
        <time>2019-05-09T06:59:29Z</time>
      </trkpt>
      <trkpt lat="37.304951" lon="-3.104112">
        <ele>1039.000000</ele>
        <time>2019-05-09T06:59:30Z</time>
      </trkpt>
      <trkpt lat="37.304960" lon="-3.104098">
        <ele>1039.000000</ele>
        <time>2019-05-09T06:59:31Z</time>
      </trkpt>
      <trkpt lat="37.304968" lon="-3.104087">
        <ele>1039.000000</ele>
        <time>2019-05-09T06:59:32Z</time>
      </trkpt>
      <trkpt lat="37.304975" lon="-3.104075">
        <ele>1039.000000</ele>
        <time>2019-05-09T06:59:33Z</time>
      </trkpt>
      <trkpt lat="37.304983" lon="-3.104062">
        <ele>1040.000000</ele>
        <time>2019-05-09T06:59:34Z</time>
      </trkpt>
      <trkpt lat="37.304991" lon="-3.104047">
        <ele>1040.000000</ele>
        <time>2019-05-09T06:59:35Z</time>
      </trkpt>
      <trkpt lat="37.304996" lon="-3.104038">
        <ele>1040.000000</ele>
        <time>2019-05-09T06:59:36Z</time>
      </trkpt>
      <trkpt lat="37.305002" lon="-3.104027">
        <ele>1040.000000</ele>
        <time>2019-05-09T06:59:37Z</time>
      </trkpt>
      <trkpt lat="37.305010" lon="-3.104012">
        <ele>1041.000000</ele>
        <time>2019-05-09T06:59:38Z</time>
      </trkpt>
      <trkpt lat="37.305017" lon="-3.103998">
        <ele>1041.000000</ele>
        <time>2019-05-09T06:59:39Z</time>
      </trkpt>
      <trkpt lat="37.305024" lon="-3.103985">
        <ele>1041.000000</ele>
        <time>2019-05-09T06:59:40Z</time>
      </trkpt>
      <trkpt lat="37.305031" lon="-3.103970">
        <ele>1041.000000</ele>
        <time>2019-05-09T06:59:41Z</time>
      </trkpt>
      <trkpt lat="37.305037" lon="-3.103960">
        <ele>1041.000000</ele>
        <time>2019-05-09T06:59:42Z</time>
      </trkpt>
      <trkpt lat="37.305042" lon="-3.103953">
        <ele>1041.000000</ele>
        <time>2019-05-09T06:59:43Z</time>
      </trkpt>
      <trkpt lat="37.305049" lon="-3.103943">
        <ele>1041.000000</ele>
        <time>2019-05-09T06:59:44Z</time>
      </trkpt>
      <trkpt lat="37.305055" lon="-3.103933">
        <ele>1041.000000</ele>
        <time>2019-05-09T06:59:45Z</time>
      </trkpt>
      <trkpt lat="37.305063" lon="-3.103920">
        <ele>1042.000000</ele>
        <time>2019-05-09T06:59:46Z</time>
      </trkpt>
      <trkpt lat="37.305070" lon="-3.103910">
        <ele>1042.000000</ele>
        <time>2019-05-09T06:59:47Z</time>
      </trkpt>
      <trkpt lat="37.305076" lon="-3.103902">
        <ele>1042.000000</ele>
        <time>2019-05-09T06:59:48Z</time>
      </trkpt>
      <trkpt lat="37.305084" lon="-3.103890">
        <ele>1042.000000</ele>
        <time>2019-05-09T06:59:49Z</time>
      </trkpt>
      <trkpt lat="37.305092" lon="-3.103880">
        <ele>1043.000000</ele>
        <time>2019-05-09T06:59:50Z</time>
      </trkpt>
      <trkpt lat="37.305113" lon="-3.103873">
        <ele>1043.000000</ele>
        <time>2019-05-09T06:59:51Z</time>
      </trkpt>
      <trkpt lat="37.305125" lon="-3.103863">
        <ele>1043.000000</ele>
        <time>2019-05-09T06:59:52Z</time>
      </trkpt>
      <trkpt lat="37.305137" lon="-3.103853">
        <ele>1043.000000</ele>
        <time>2019-05-09T06:59:53Z</time>
      </trkpt>
      <trkpt lat="37.305150" lon="-3.103844">
        <ele>1044.000000</ele>
        <time>2019-05-09T06:59:54Z</time>
      </trkpt>
      <trkpt lat="37.305162" lon="-3.103837">
        <ele>1044.000000</ele>
        <time>2019-05-09T06:59:55Z</time>
      </trkpt>
      <trkpt lat="37.305172" lon="-3.103831">
        <ele>1044.000000</ele>
        <time>2019-05-09T06:59:56Z</time>
      </trkpt>
      <trkpt lat="37.305183" lon="-3.103825">
        <ele>1044.000000</ele>
        <time>2019-05-09T06:59:57Z</time>
      </trkpt>
      <trkpt lat="37.305195" lon="-3.103816">
        <ele>1044.000000</ele>
        <time>2019-05-09T06:59:58Z</time>
      </trkpt>
      <trkpt lat="37.305207" lon="-3.103807">
        <ele>1044.000000</ele>
        <time>2019-05-09T06:59:59Z</time>
      </trkpt>
      <trkpt lat="37.305218" lon="-3.103798">
        <ele>1045.000000</ele>
        <time>2019-05-09T07:00:00Z</time>
      </trkpt>
      <trkpt lat="37.305230" lon="-3.103789">
        <ele>1045.000000</ele>
        <time>2019-05-09T07:00:01Z</time>
      </trkpt>
      <trkpt lat="37.305242" lon="-3.103780">
        <ele>1045.000000</ele>
        <time>2019-05-09T07:00:02Z</time>
      </trkpt>
      <trkpt lat="37.305252" lon="-3.103771">
        <ele>1045.000000</ele>
        <time>2019-05-09T07:00:03Z</time>
      </trkpt>
      <trkpt lat="37.305262" lon="-3.103761">
        <ele>1045.000000</ele>
        <time>2019-05-09T07:00:04Z</time>
      </trkpt>
      <trkpt lat="37.305273" lon="-3.103749">
        <ele>1046.000000</ele>
        <time>2019-05-09T07:00:05Z</time>
      </trkpt>
      <trkpt lat="37.305287" lon="-3.103736">
        <ele>1046.000000</ele>
        <time>2019-05-09T07:00:06Z</time>
      </trkpt>
      <trkpt lat="37.305295" lon="-3.103726">
        <ele>1046.000000</ele>
        <time>2019-05-09T07:00:07Z</time>
      </trkpt>
      <trkpt lat="37.305307" lon="-3.103714">
        <ele>1046.000000</ele>
        <time>2019-05-09T07:00:08Z</time>
      </trkpt>
      <trkpt lat="37.305320" lon="-3.103700">
        <ele>1046.000000</ele>
        <time>2019-05-09T07:00:10Z</time>
      </trkpt>
      <trkpt lat="37.305335" lon="-3.103684">
        <ele>1046.000000</ele>
        <time>2019-05-09T07:00:10Z</time>
      </trkpt>
      <trkpt lat="37.305345" lon="-3.103674">
        <ele>1046.000000</ele>
        <time>2019-05-09T07:00:11Z</time>
      </trkpt>
      <trkpt lat="37.305357" lon="-3.103662">
        <ele>1047.000000</ele>
        <time>2019-05-09T07:00:12Z</time>
      </trkpt>
      <trkpt lat="37.305370" lon="-3.103649">
        <ele>1047.000000</ele>
        <time>2019-05-09T07:00:13Z</time>
      </trkpt>
      <trkpt lat="37.305382" lon="-3.103637">
        <ele>1047.000000</ele>
        <time>2019-05-09T07:00:14Z</time>
      </trkpt>
      <trkpt lat="37.305392" lon="-3.103627">
        <ele>1047.000000</ele>
        <time>2019-05-09T07:00:15Z</time>
      </trkpt>
      <trkpt lat="37.305403" lon="-3.103614">
        <ele>1047.000000</ele>
        <time>2019-05-09T07:00:16Z</time>
      </trkpt>
      <trkpt lat="37.305415" lon="-3.103601">
        <ele>1047.000000</ele>
        <time>2019-05-09T07:00:17Z</time>
      </trkpt>
      <trkpt lat="37.305430" lon="-3.103585">
        <ele>1047.000000</ele>
        <time>2019-05-09T07:00:18Z</time>
      </trkpt>
      <trkpt lat="37.305443" lon="-3.103571">
        <ele>1047.000000</ele>
        <time>2019-05-09T07:00:19Z</time>
      </trkpt>
      <trkpt lat="37.305458" lon="-3.103556">
        <ele>1047.000000</ele>
        <time>2019-05-09T07:00:20Z</time>
      </trkpt>
      <trkpt lat="37.305473" lon="-3.103543">
        <ele>1047.000000</ele>
        <time>2019-05-09T07:00:21Z</time>
      </trkpt>
      <trkpt lat="37.305487" lon="-3.103532">
        <ele>1047.000000</ele>
        <time>2019-05-09T07:00:22Z</time>
      </trkpt>
      <trkpt lat="37.305500" lon="-3.103522">
        <ele>1047.000000</ele>
        <time>2019-05-09T07:00:23Z</time>
      </trkpt>
      <trkpt lat="37.305513" lon="-3.103542">
        <ele>1047.000000</ele>
        <time>2019-05-09T07:00:24Z</time>
      </trkpt>
      <trkpt lat="37.305527" lon="-3.103538">
        <ele>1047.000000</ele>
        <time>2019-05-09T07:00:25Z</time>
      </trkpt>
      <trkpt lat="37.305542" lon="-3.103535">
        <ele>1047.000000</ele>
        <time>2019-05-09T07:00:26Z</time>
      </trkpt>
      <trkpt lat="37.305557" lon="-3.103534">
        <ele>1047.000000</ele>
        <time>2019-05-09T07:00:27Z</time>
      </trkpt>
      <trkpt lat="37.305572" lon="-3.103533">
        <ele>1047.000000</ele>
        <time>2019-05-09T07:00:28Z</time>
      </trkpt>
      <trkpt lat="37.305587" lon="-3.103531">
        <ele>1047.000000</ele>
        <time>2019-05-09T07:00:29Z</time>
      </trkpt>
      <trkpt lat="37.305600" lon="-3.103528">
        <ele>1047.000000</ele>
        <time>2019-05-09T07:00:30Z</time>
      </trkpt>
      <trkpt lat="37.305613" lon="-3.103525">
        <ele>1047.000000</ele>
        <time>2019-05-09T07:00:31Z</time>
      </trkpt>
      <trkpt lat="37.305628" lon="-3.103521">
        <ele>1047.000000</ele>
        <time>2019-05-09T07:00:32Z</time>
      </trkpt>
      <trkpt lat="37.305643" lon="-3.103518">
        <ele>1047.000000</ele>
        <time>2019-05-09T07:00:33Z</time>
      </trkpt>
      <trkpt lat="37.305662" lon="-3.103515">
        <ele>1047.000000</ele>
        <time>2019-05-09T07:00:34Z</time>
      </trkpt>
      <trkpt lat="37.305677" lon="-3.103513">
        <ele>1047.000000</ele>
        <time>2019-05-09T07:00:35Z</time>
      </trkpt>
      <trkpt lat="37.305697" lon="-3.103509">
        <ele>1047.000000</ele>
        <time>2019-05-09T07:00:36Z</time>
      </trkpt>
      <trkpt lat="37.305712" lon="-3.103507">
        <ele>1047.000000</ele>
        <time>2019-05-09T07:00:37Z</time>
      </trkpt>
      <trkpt lat="37.305725" lon="-3.103503">
        <ele>1047.000000</ele>
        <time>2019-05-09T07:00:38Z</time>
      </trkpt>
      <trkpt lat="37.305737" lon="-3.103499">
        <ele>1047.000000</ele>
        <time>2019-05-09T07:00:39Z</time>
      </trkpt>
      <trkpt lat="37.305748" lon="-3.103494">
        <ele>1047.000000</ele>
        <time>2019-05-09T07:00:40Z</time>
      </trkpt>
      <trkpt lat="37.305762" lon="-3.103489">
        <ele>1047.000000</ele>
        <time>2019-05-09T07:00:41Z</time>
      </trkpt>
      <trkpt lat="37.305773" lon="-3.103484">
        <ele>1047.000000</ele>
        <time>2019-05-09T07:00:42Z</time>
      </trkpt>
      <trkpt lat="37.305787" lon="-3.103477">
        <ele>1047.000000</ele>
        <time>2019-05-09T07:00:43Z</time>
      </trkpt>
      <trkpt lat="37.305802" lon="-3.103470">
        <ele>1047.000000</ele>
        <time>2019-05-09T07:00:44Z</time>
      </trkpt>
      <trkpt lat="37.305813" lon="-3.103462">
        <ele>1047.000000</ele>
        <time>2019-05-09T07:00:45Z</time>
      </trkpt>
      <trkpt lat="37.305827" lon="-3.103455">
        <ele>1047.000000</ele>
        <time>2019-05-09T07:00:46Z</time>
      </trkpt>
      <trkpt lat="37.305840" lon="-3.103448">
        <ele>1047.000000</ele>
        <time>2019-05-09T07:00:47Z</time>
      </trkpt>
      <trkpt lat="37.305852" lon="-3.103441">
        <ele>1047.000000</ele>
        <time>2019-05-09T07:00:48Z</time>
      </trkpt>
      <trkpt lat="37.305865" lon="-3.103434">
        <ele>1047.000000</ele>
        <time>2019-05-09T07:00:49Z</time>
      </trkpt>
      <trkpt lat="37.305877" lon="-3.103426">
        <ele>1047.000000</ele>
        <time>2019-05-09T07:00:50Z</time>
      </trkpt>
      <trkpt lat="37.305887" lon="-3.103419">
        <ele>1047.000000</ele>
        <time>2019-05-09T07:00:51Z</time>
      </trkpt>
      <trkpt lat="37.305898" lon="-3.103410">
        <ele>1047.000000</ele>
        <time>2019-05-09T07:00:52Z</time>
      </trkpt>
      <trkpt lat="37.305910" lon="-3.103401">
        <ele>1047.000000</ele>
        <time>2019-05-09T07:00:53Z</time>
      </trkpt>
      <trkpt lat="37.305920" lon="-3.103393">
        <ele>1047.000000</ele>
        <time>2019-05-09T07:00:54Z</time>
      </trkpt>
      <trkpt lat="37.305932" lon="-3.103384">
        <ele>1047.000000</ele>
        <time>2019-05-09T07:00:55Z</time>
      </trkpt>
      <trkpt lat="37.305942" lon="-3.103374">
        <ele>1047.000000</ele>
        <time>2019-05-09T07:00:56Z</time>
      </trkpt>
      <trkpt lat="37.305952" lon="-3.103365">
        <ele>1047.000000</ele>
        <time>2019-05-09T07:00:57Z</time>
      </trkpt>
      <trkpt lat="37.305965" lon="-3.103355">
        <ele>1047.000000</ele>
        <time>2019-05-09T07:00:58Z</time>
      </trkpt>
      <trkpt lat="37.305980" lon="-3.103344">
        <ele>1047.000000</ele>
        <time>2019-05-09T07:00:59Z</time>
      </trkpt>
      <trkpt lat="37.305993" lon="-3.103333">
        <ele>1047.000000</ele>
        <time>2019-05-09T07:01:00Z</time>
      </trkpt>
      <trkpt lat="37.306007" lon="-3.103324">
        <ele>1048.000000</ele>
        <time>2019-05-09T07:01:01Z</time>
      </trkpt>
      <trkpt lat="37.306020" lon="-3.103316">
        <ele>1048.000000</ele>
        <time>2019-05-09T07:01:02Z</time>
      </trkpt>
      <trkpt lat="37.306033" lon="-3.103307">
        <ele>1048.000000</ele>
        <time>2019-05-09T07:01:03Z</time>
      </trkpt>
      <trkpt lat="37.306048" lon="-3.103300">
        <ele>1048.000000</ele>
        <time>2019-05-09T07:01:04Z</time>
      </trkpt>
      <trkpt lat="37.306062" lon="-3.103302">
        <ele>1048.000000</ele>
        <time>2019-05-09T07:01:05Z</time>
      </trkpt>
      <trkpt lat="37.306075" lon="-3.103305">
        <ele>1048.000000</ele>
        <time>2019-05-09T07:01:06Z</time>
      </trkpt>
      <trkpt lat="37.306090" lon="-3.103308">
        <ele>1048.000000</ele>
        <time>2019-05-09T07:01:07Z</time>
      </trkpt>
      <trkpt lat="37.306107" lon="-3.103313">
        <ele>1048.000000</ele>
        <time>2019-05-09T07:01:08Z</time>
      </trkpt>
      <trkpt lat="37.306118" lon="-3.103318">
        <ele>1048.000000</ele>
        <time>2019-05-09T07:01:09Z</time>
      </trkpt>
      <trkpt lat="37.306132" lon="-3.103323">
        <ele>1048.000000</ele>
        <time>2019-05-09T07:01:10Z</time>
      </trkpt>
      <trkpt lat="37.306145" lon="-3.103329">
        <ele>1048.000000</ele>
        <time>2019-05-09T07:01:11Z</time>
      </trkpt>
      <trkpt lat="37.306158" lon="-3.103336">
        <ele>1048.000000</ele>
        <time>2019-05-09T07:01:12Z</time>
      </trkpt>
      <trkpt lat="37.306172" lon="-3.103343">
        <ele>1048.000000</ele>
        <time>2019-05-09T07:01:13Z</time>
      </trkpt>
      <trkpt lat="37.306187" lon="-3.103351">
        <ele>1048.000000</ele>
        <time>2019-05-09T07:01:14Z</time>
      </trkpt>
      <trkpt lat="37.306202" lon="-3.103357">
        <ele>1048.000000</ele>
        <time>2019-05-09T07:01:15Z</time>
      </trkpt>
      <trkpt lat="37.306215" lon="-3.103362">
        <ele>1048.000000</ele>
        <time>2019-05-09T07:01:16Z</time>
      </trkpt>
      <trkpt lat="37.306228" lon="-3.103366">
        <ele>1048.000000</ele>
        <time>2019-05-09T07:01:17Z</time>
      </trkpt>
      <trkpt lat="37.306242" lon="-3.103367">
        <ele>1048.000000</ele>
        <time>2019-05-09T07:01:18Z</time>
      </trkpt>
      <trkpt lat="37.306255" lon="-3.103368">
        <ele>1048.000000</ele>
        <time>2019-05-09T07:01:19Z</time>
      </trkpt>
      <trkpt lat="37.306267" lon="-3.103365">
        <ele>1048.000000</ele>
        <time>2019-05-09T07:01:20Z</time>
      </trkpt>
      <trkpt lat="37.306277" lon="-3.103338">
        <ele>1048.000000</ele>
        <time>2019-05-09T07:01:21Z</time>
      </trkpt>
      <trkpt lat="37.306287" lon="-3.103327">
        <ele>1048.000000</ele>
        <time>2019-05-09T07:01:22Z</time>
      </trkpt>
      <trkpt lat="37.306298" lon="-3.103313">
        <ele>1048.000000</ele>
        <time>2019-05-09T07:01:23Z</time>
      </trkpt>
      <trkpt lat="37.306310" lon="-3.103300">
        <ele>1048.000000</ele>
        <time>2019-05-09T07:01:24Z</time>
      </trkpt>
      <trkpt lat="37.306320" lon="-3.103288">
        <ele>1048.000000</ele>
        <time>2019-05-09T07:01:25Z</time>
      </trkpt>
      <trkpt lat="37.306328" lon="-3.103277">
        <ele>1048.000000</ele>
        <time>2019-05-09T07:01:26Z</time>
      </trkpt>
      <trkpt lat="37.306340" lon="-3.103268">
        <ele>1048.000000</ele>
        <time>2019-05-09T07:01:27Z</time>
      </trkpt>
      <trkpt lat="37.306352" lon="-3.103260">
        <ele>1048.000000</ele>
        <time>2019-05-09T07:01:28Z</time>
      </trkpt>
      <trkpt lat="37.306362" lon="-3.103250">
        <ele>1048.000000</ele>
        <time>2019-05-09T07:01:29Z</time>
      </trkpt>
      <trkpt lat="37.306373" lon="-3.103238">
        <ele>1048.000000</ele>
        <time>2019-05-09T07:01:30Z</time>
      </trkpt>
      <trkpt lat="37.306385" lon="-3.103228">
        <ele>1048.000000</ele>
        <time>2019-05-09T07:01:31Z</time>
      </trkpt>
      <trkpt lat="37.306397" lon="-3.103218">
        <ele>1048.000000</ele>
        <time>2019-05-09T07:01:32Z</time>
      </trkpt>
      <trkpt lat="37.306410" lon="-3.103207">
        <ele>1048.000000</ele>
        <time>2019-05-09T07:01:33Z</time>
      </trkpt>
      <trkpt lat="37.306423" lon="-3.103197">
        <ele>1048.000000</ele>
        <time>2019-05-09T07:01:34Z</time>
      </trkpt>
      <trkpt lat="37.306435" lon="-3.103189">
        <ele>1048.000000</ele>
        <time>2019-05-09T07:01:35Z</time>
      </trkpt>
      <trkpt lat="37.306450" lon="-3.103179">
        <ele>1050.000000</ele>
        <time>2019-05-09T07:01:36Z</time>
      </trkpt>
      <trkpt lat="37.306463" lon="-3.103171">
        <ele>1050.000000</ele>
        <time>2019-05-09T07:01:38Z</time>
      </trkpt>
      <trkpt lat="37.306478" lon="-3.103164">
        <ele>1050.000000</ele>
        <time>2019-05-09T07:01:38Z</time>
      </trkpt>
      <trkpt lat="37.306488" lon="-3.103159">
        <ele>1050.000000</ele>
        <time>2019-05-09T07:01:39Z</time>
      </trkpt>
      <trkpt lat="37.306500" lon="-3.103152">
        <ele>1050.000000</ele>
        <time>2019-05-09T07:01:40Z</time>
      </trkpt>
      <trkpt lat="37.306513" lon="-3.103144">
        <ele>1050.000000</ele>
        <time>2019-05-09T07:01:41Z</time>
      </trkpt>
      <trkpt lat="37.306525" lon="-3.103137">
        <ele>1050.000000</ele>
        <time>2019-05-09T07:01:42Z</time>
      </trkpt>
      <trkpt lat="37.306535" lon="-3.103132">
        <ele>1050.000000</ele>
        <time>2019-05-09T07:01:43Z</time>
      </trkpt>
      <trkpt lat="37.306547" lon="-3.103125">
        <ele>1050.000000</ele>
        <time>2019-05-09T07:01:45Z</time>
      </trkpt>
      <trkpt lat="37.306558" lon="-3.103118">
        <ele>1050.000000</ele>
        <time>2019-05-09T07:01:45Z</time>
      </trkpt>
      <trkpt lat="37.306570" lon="-3.103111">
        <ele>1050.000000</ele>
        <time>2019-05-09T07:01:46Z</time>
      </trkpt>
      <trkpt lat="37.306578" lon="-3.103105">
        <ele>1050.000000</ele>
        <time>2019-05-09T07:01:47Z</time>
      </trkpt>
      <trkpt lat="37.306590" lon="-3.103097">
        <ele>1050.000000</ele>
        <time>2019-05-09T07:01:48Z</time>
      </trkpt>
      <trkpt lat="37.306600" lon="-3.103091">
        <ele>1050.000000</ele>
        <time>2019-05-09T07:01:49Z</time>
      </trkpt>
      <trkpt lat="37.306612" lon="-3.103083">
        <ele>1050.000000</ele>
        <time>2019-05-09T07:01:50Z</time>
      </trkpt>
      <trkpt lat="37.306625" lon="-3.103073">
        <ele>1050.000000</ele>
        <time>2019-05-09T07:01:51Z</time>
      </trkpt>
      <trkpt lat="37.306640" lon="-3.103062">
        <ele>1050.000000</ele>
        <time>2019-05-09T07:01:52Z</time>
      </trkpt>
      <trkpt lat="37.306653" lon="-3.103053">
        <ele>1050.000000</ele>
        <time>2019-05-09T07:01:53Z</time>
      </trkpt>
      <trkpt lat="37.306668" lon="-3.103044">
        <ele>1050.000000</ele>
        <time>2019-05-09T07:01:54Z</time>
      </trkpt>
      <trkpt lat="37.306682" lon="-3.103035">
        <ele>1050.000000</ele>
        <time>2019-05-09T07:01:55Z</time>
      </trkpt>
      <trkpt lat="37.306693" lon="-3.103029">
        <ele>1050.000000</ele>
        <time>2019-05-09T07:01:56Z</time>
      </trkpt>
      <trkpt lat="37.306702" lon="-3.103023">
        <ele>1050.000000</ele>
        <time>2019-05-09T07:01:57Z</time>
      </trkpt>
      <trkpt lat="37.306712" lon="-3.103016">
        <ele>1050.000000</ele>
        <time>2019-05-09T07:01:58Z</time>
      </trkpt>
      <trkpt lat="37.306722" lon="-3.103009">
        <ele>1050.000000</ele>
        <time>2019-05-09T07:01:59Z</time>
      </trkpt>
      <trkpt lat="37.306730" lon="-3.103002">
        <ele>1050.000000</ele>
        <time>2019-05-09T07:02:00Z</time>
      </trkpt>
      <trkpt lat="37.306742" lon="-3.102993">
        <ele>1050.000000</ele>
        <time>2019-05-09T07:02:01Z</time>
      </trkpt>
      <trkpt lat="37.306755" lon="-3.102982">
        <ele>1050.000000</ele>
        <time>2019-05-09T07:02:02Z</time>
      </trkpt>
      <trkpt lat="37.306768" lon="-3.102972">
        <ele>1050.000000</ele>
        <time>2019-05-09T07:02:03Z</time>
      </trkpt>
      <trkpt lat="37.306780" lon="-3.102962">
        <ele>1050.000000</ele>
        <time>2019-05-09T07:02:04Z</time>
      </trkpt>
      <trkpt lat="37.306793" lon="-3.102950">
        <ele>1050.000000</ele>
        <time>2019-05-09T07:02:05Z</time>
      </trkpt>
      <trkpt lat="37.306803" lon="-3.102941">
        <ele>1050.000000</ele>
        <time>2019-05-09T07:02:06Z</time>
      </trkpt>
      <trkpt lat="37.306818" lon="-3.102928">
        <ele>1050.000000</ele>
        <time>2019-05-09T07:02:07Z</time>
      </trkpt>
      <trkpt lat="37.306828" lon="-3.102918">
        <ele>1050.000000</ele>
        <time>2019-05-09T07:02:08Z</time>
      </trkpt>
      <trkpt lat="37.306840" lon="-3.102907">
        <ele>1050.000000</ele>
        <time>2019-05-09T07:02:09Z</time>
      </trkpt>
      <trkpt lat="37.306853" lon="-3.102894">
        <ele>1050.000000</ele>
        <time>2019-05-09T07:02:10Z</time>
      </trkpt>
      <trkpt lat="37.306865" lon="-3.102882">
        <ele>1050.000000</ele>
        <time>2019-05-09T07:02:11Z</time>
      </trkpt>
      <trkpt lat="37.306880" lon="-3.102867">
        <ele>1049.000000</ele>
        <time>2019-05-09T07:02:12Z</time>
      </trkpt>
      <trkpt lat="37.306892" lon="-3.102856">
        <ele>1049.000000</ele>
        <time>2019-05-09T07:02:13Z</time>
      </trkpt>
      <trkpt lat="37.306905" lon="-3.102843">
        <ele>1049.000000</ele>
        <time>2019-05-09T07:02:14Z</time>
      </trkpt>
      <trkpt lat="37.306918" lon="-3.102831">
        <ele>1049.000000</ele>
        <time>2019-05-09T07:02:15Z</time>
      </trkpt>
      <trkpt lat="37.306932" lon="-3.102818">
        <ele>1049.000000</ele>
        <time>2019-05-09T07:02:16Z</time>
      </trkpt>
      <trkpt lat="37.306948" lon="-3.102802">
        <ele>1049.000000</ele>
        <time>2019-05-09T07:02:17Z</time>
      </trkpt>
      <trkpt lat="37.306962" lon="-3.102789">
        <ele>1049.000000</ele>
        <time>2019-05-09T07:02:18Z</time>
      </trkpt>
      <trkpt lat="37.306975" lon="-3.102777">
        <ele>1049.000000</ele>
        <time>2019-05-09T07:02:19Z</time>
      </trkpt>
      <trkpt lat="37.306987" lon="-3.102766">
        <ele>1049.000000</ele>
        <time>2019-05-09T07:02:20Z</time>
      </trkpt>
      <trkpt lat="37.306998" lon="-3.102754">
        <ele>1049.000000</ele>
        <time>2019-05-09T07:02:21Z</time>
      </trkpt>
      <trkpt lat="37.307008" lon="-3.102744">
        <ele>1049.000000</ele>
        <time>2019-05-09T07:02:22Z</time>
      </trkpt>
      <trkpt lat="37.307020" lon="-3.102732">
        <ele>1049.000000</ele>
        <time>2019-05-09T07:02:23Z</time>
      </trkpt>
      <trkpt lat="37.307030" lon="-3.102722">
        <ele>1049.000000</ele>
        <time>2019-05-09T07:02:24Z</time>
      </trkpt>
      <trkpt lat="37.307040" lon="-3.102712">
        <ele>1049.000000</ele>
        <time>2019-05-09T07:02:25Z</time>
      </trkpt>
      <trkpt lat="37.307052" lon="-3.102700">
        <ele>1050.000000</ele>
        <time>2019-05-09T07:02:26Z</time>
      </trkpt>
      <trkpt lat="37.307060" lon="-3.102692">
        <ele>1050.000000</ele>
        <time>2019-05-09T07:02:27Z</time>
      </trkpt>
      <trkpt lat="37.307068" lon="-3.102685">
        <ele>1050.000000</ele>
        <time>2019-05-09T07:02:28Z</time>
      </trkpt>
      <trkpt lat="37.307073" lon="-3.102678">
        <ele>1051.000000</ele>
        <time>2019-05-09T07:02:29Z</time>
      </trkpt>
      <trkpt lat="37.307082" lon="-3.102669">
        <ele>1051.000000</ele>
        <time>2019-05-09T07:02:30Z</time>
      </trkpt>
      <trkpt lat="37.307090" lon="-3.102661">
        <ele>1051.000000</ele>
        <time>2019-05-09T07:02:32Z</time>
      </trkpt>
      <trkpt lat="37.307095" lon="-3.102654">
        <ele>1051.000000</ele>
        <time>2019-05-09T07:02:32Z</time>
      </trkpt>
      <trkpt lat="37.307103" lon="-3.102645">
        <ele>1052.000000</ele>
        <time>2019-05-09T07:02:33Z</time>
      </trkpt>
      <trkpt lat="37.307110" lon="-3.102638">
        <ele>1052.000000</ele>
        <time>2019-05-09T07:02:34Z</time>
      </trkpt>
      <trkpt lat="37.307117" lon="-3.102629">
        <ele>1052.000000</ele>
        <time>2019-05-09T07:02:35Z</time>
      </trkpt>
      <trkpt lat="37.307125" lon="-3.102620">
        <ele>1052.000000</ele>
        <time>2019-05-09T07:02:36Z</time>
      </trkpt>
      <trkpt lat="37.307133" lon="-3.102610">
        <ele>1052.000000</ele>
        <time>2019-05-09T07:02:37Z</time>
      </trkpt>
      <trkpt lat="37.307142" lon="-3.102600">
        <ele>1052.000000</ele>
        <time>2019-05-09T07:02:38Z</time>
      </trkpt>
      <trkpt lat="37.307150" lon="-3.102590">
        <ele>1053.000000</ele>
        <time>2019-05-09T07:02:39Z</time>
      </trkpt>
      <trkpt lat="37.307160" lon="-3.102580">
        <ele>1053.000000</ele>
        <time>2019-05-09T07:02:40Z</time>
      </trkpt>
      <trkpt lat="37.307165" lon="-3.102574">
        <ele>1053.000000</ele>
        <time>2019-05-09T07:02:41Z</time>
      </trkpt>
      <trkpt lat="37.307177" lon="-3.102562">
        <ele>1054.000000</ele>
        <time>2019-05-09T07:02:42Z</time>
      </trkpt>
      <trkpt lat="37.307187" lon="-3.102552">
        <ele>1054.000000</ele>
        <time>2019-05-09T07:02:43Z</time>
      </trkpt>
      <trkpt lat="37.307202" lon="-3.102538">
        <ele>1054.000000</ele>
        <time>2019-05-09T07:02:44Z</time>
      </trkpt>
      <trkpt lat="37.307212" lon="-3.102529">
        <ele>1054.000000</ele>
        <time>2019-05-09T07:02:45Z</time>
      </trkpt>
      <trkpt lat="37.307223" lon="-3.102519">
        <ele>1055.000000</ele>
        <time>2019-05-09T07:02:46Z</time>
      </trkpt>
      <trkpt lat="37.307237" lon="-3.102509">
        <ele>1055.000000</ele>
        <time>2019-05-09T07:02:47Z</time>
      </trkpt>
      <trkpt lat="37.307250" lon="-3.102498">
        <ele>1055.000000</ele>
        <time>2019-05-09T07:02:48Z</time>
      </trkpt>
      <trkpt lat="37.307263" lon="-3.102488">
        <ele>1056.000000</ele>
        <time>2019-05-09T07:02:49Z</time>
      </trkpt>
      <trkpt lat="37.307275" lon="-3.102481">
        <ele>1056.000000</ele>
        <time>2019-05-09T07:02:50Z</time>
      </trkpt>
      <trkpt lat="37.307285" lon="-3.102475">
        <ele>1056.000000</ele>
        <time>2019-05-09T07:02:51Z</time>
      </trkpt>
      <trkpt lat="37.307293" lon="-3.102470">
        <ele>1056.000000</ele>
        <time>2019-05-09T07:02:52Z</time>
      </trkpt>
      <trkpt lat="37.307303" lon="-3.102464">
        <ele>1057.000000</ele>
        <time>2019-05-09T07:02:53Z</time>
      </trkpt>
      <trkpt lat="37.307307" lon="-3.102462">
        <ele>1057.000000</ele>
        <time>2019-05-09T07:02:54Z</time>
      </trkpt>
      <trkpt lat="37.307310" lon="-3.102459">
        <ele>1057.000000</ele>
        <time>2019-05-09T07:02:55Z</time>
      </trkpt>
      <trkpt lat="37.307315" lon="-3.102437">
        <ele>1057.000000</ele>
        <time>2019-05-09T07:02:56Z</time>
      </trkpt>
      <trkpt lat="37.307315" lon="-3.102422">
        <ele>1057.000000</ele>
        <time>2019-05-09T07:02:57Z</time>
      </trkpt>
      <trkpt lat="37.307313" lon="-3.102405">
        <ele>1057.000000</ele>
        <time>2019-05-09T07:02:58Z</time>
      </trkpt>
      <trkpt lat="37.307315" lon="-3.102388">
        <ele>1057.000000</ele>
        <time>2019-05-09T07:02:59Z</time>
      </trkpt>
      <trkpt lat="37.307315" lon="-3.102373">
        <ele>1057.000000</ele>
        <time>2019-05-09T07:03:00Z</time>
      </trkpt>
      <trkpt lat="37.307313" lon="-3.102358">
        <ele>1057.000000</ele>
        <time>2019-05-09T07:03:01Z</time>
      </trkpt>
      <trkpt lat="37.307312" lon="-3.102343">
        <ele>1057.000000</ele>
        <time>2019-05-09T07:03:02Z</time>
      </trkpt>
      <trkpt lat="37.307308" lon="-3.102327">
        <ele>1057.000000</ele>
        <time>2019-05-09T07:03:03Z</time>
      </trkpt>
      <trkpt lat="37.307303" lon="-3.102310">
        <ele>1057.000000</ele>
        <time>2019-05-09T07:03:04Z</time>
      </trkpt>
      <trkpt lat="37.307302" lon="-3.102292">
        <ele>1057.000000</ele>
        <time>2019-05-09T07:03:05Z</time>
      </trkpt>
      <trkpt lat="37.307297" lon="-3.102275">
        <ele>1057.000000</ele>
        <time>2019-05-09T07:03:06Z</time>
      </trkpt>
      <trkpt lat="37.307294" lon="-3.102257">
        <ele>1057.000000</ele>
        <time>2019-05-09T07:03:07Z</time>
      </trkpt>
      <trkpt lat="37.307295" lon="-3.102242">
        <ele>1057.000000</ele>
        <time>2019-05-09T07:03:08Z</time>
      </trkpt>
      <trkpt lat="37.307297" lon="-3.102225">
        <ele>1057.000000</ele>
        <time>2019-05-09T07:03:09Z</time>
      </trkpt>
      <trkpt lat="37.307300" lon="-3.102208">
        <ele>1057.000000</ele>
        <time>2019-05-09T07:03:10Z</time>
      </trkpt>
      <trkpt lat="37.307305" lon="-3.102193">
        <ele>1057.000000</ele>
        <time>2019-05-09T07:03:11Z</time>
      </trkpt>
      <trkpt lat="37.307311" lon="-3.102180">
        <ele>1057.000000</ele>
        <time>2019-05-09T07:03:12Z</time>
      </trkpt>
      <trkpt lat="37.307316" lon="-3.102165">
        <ele>1057.000000</ele>
        <time>2019-05-09T07:03:13Z</time>
      </trkpt>
      <trkpt lat="37.307322" lon="-3.102147">
        <ele>1057.000000</ele>
        <time>2019-05-09T07:03:14Z</time>
      </trkpt>
      <trkpt lat="37.307327" lon="-3.102133">
        <ele>1057.000000</ele>
        <time>2019-05-09T07:03:15Z</time>
      </trkpt>
      <trkpt lat="37.307332" lon="-3.102122">
        <ele>1057.000000</ele>
        <time>2019-05-09T07:03:17Z</time>
      </trkpt>
      <trkpt lat="37.307339" lon="-3.102108">
        <ele>1057.000000</ele>
        <time>2019-05-09T07:03:17Z</time>
      </trkpt>
      <trkpt lat="37.307345" lon="-3.102093">
        <ele>1057.000000</ele>
        <time>2019-05-09T07:03:18Z</time>
      </trkpt>
      <trkpt lat="37.307351" lon="-3.102077">
        <ele>1057.000000</ele>
        <time>2019-05-09T07:03:19Z</time>
      </trkpt>
      <trkpt lat="37.307358" lon="-3.102060">
        <ele>1057.000000</ele>
        <time>2019-05-09T07:03:20Z</time>
      </trkpt>
      <trkpt lat="37.307364" lon="-3.102045">
        <ele>1057.000000</ele>
        <time>2019-05-09T07:03:21Z</time>
      </trkpt>
      <trkpt lat="37.307370" lon="-3.102032">
        <ele>1057.000000</ele>
        <time>2019-05-09T07:03:22Z</time>
      </trkpt>
      <trkpt lat="37.307376" lon="-3.102017">
        <ele>1057.000000</ele>
        <time>2019-05-09T07:03:23Z</time>
      </trkpt>
      <trkpt lat="37.307383" lon="-3.102000">
        <ele>1057.000000</ele>
        <time>2019-05-09T07:03:24Z</time>
      </trkpt>
      <trkpt lat="37.307390" lon="-3.101983">
        <ele>1057.000000</ele>
        <time>2019-05-09T07:03:25Z</time>
      </trkpt>
      <trkpt lat="37.307396" lon="-3.101967">
        <ele>1057.000000</ele>
        <time>2019-05-09T07:03:26Z</time>
      </trkpt>
      <trkpt lat="37.307402" lon="-3.101953">
        <ele>1057.000000</ele>
        <time>2019-05-09T07:03:27Z</time>
      </trkpt>
      <trkpt lat="37.307407" lon="-3.101940">
        <ele>1057.000000</ele>
        <time>2019-05-09T07:03:28Z</time>
      </trkpt>
      <trkpt lat="37.307412" lon="-3.101927">
        <ele>1057.000000</ele>
        <time>2019-05-09T07:03:29Z</time>
      </trkpt>
      <trkpt lat="37.307418" lon="-3.101913">
        <ele>1057.000000</ele>
        <time>2019-05-09T07:03:30Z</time>
      </trkpt>
      <trkpt lat="37.307424" lon="-3.101898">
        <ele>1057.000000</ele>
        <time>2019-05-09T07:03:30Z</time>
      </trkpt>
      <trkpt lat="37.307429" lon="-3.101883">
        <ele>1057.000000</ele>
        <time>2019-05-09T07:03:31Z</time>
      </trkpt>
      <trkpt lat="37.307435" lon="-3.101867">
        <ele>1057.000000</ele>
        <time>2019-05-09T07:03:32Z</time>
      </trkpt>
      <trkpt lat="37.307440" lon="-3.101850">
        <ele>1057.000000</ele>
        <time>2019-05-09T07:03:33Z</time>
      </trkpt>
      <trkpt lat="37.307444" lon="-3.101832">
        <ele>1057.000000</ele>
        <time>2019-05-09T07:03:34Z</time>
      </trkpt>
      <trkpt lat="37.307448" lon="-3.101815">
        <ele>1057.000000</ele>
        <time>2019-05-09T07:03:35Z</time>
      </trkpt>
      <trkpt lat="37.307451" lon="-3.101797">
        <ele>1057.000000</ele>
        <time>2019-05-09T07:03:36Z</time>
      </trkpt>
      <trkpt lat="37.307455" lon="-3.101778">
        <ele>1057.000000</ele>
        <time>2019-05-09T07:03:37Z</time>
      </trkpt>
      <trkpt lat="37.307456" lon="-3.101762">
        <ele>1057.000000</ele>
        <time>2019-05-09T07:03:38Z</time>
      </trkpt>
      <trkpt lat="37.307459" lon="-3.101745">
        <ele>1057.000000</ele>
        <time>2019-05-09T07:03:39Z</time>
      </trkpt>
      <trkpt lat="37.307460" lon="-3.101730">
        <ele>1057.000000</ele>
        <time>2019-05-09T07:03:40Z</time>
      </trkpt>
      <trkpt lat="37.307462" lon="-3.101713">
        <ele>1057.000000</ele>
        <time>2019-05-09T07:03:41Z</time>
      </trkpt>
      <trkpt lat="37.307465" lon="-3.101693">
        <ele>1057.000000</ele>
        <time>2019-05-09T07:03:42Z</time>
      </trkpt>
      <trkpt lat="37.307466" lon="-3.101677">
        <ele>1057.000000</ele>
        <time>2019-05-09T07:03:43Z</time>
      </trkpt>
      <trkpt lat="37.307469" lon="-3.101657">
        <ele>1057.000000</ele>
        <time>2019-05-09T07:03:44Z</time>
      </trkpt>
      <trkpt lat="37.307472" lon="-3.101638">
        <ele>1057.000000</ele>
        <time>2019-05-09T07:03:45Z</time>
      </trkpt>
      <trkpt lat="37.307475" lon="-3.101622">
        <ele>1057.000000</ele>
        <time>2019-05-09T07:03:46Z</time>
      </trkpt>
      <trkpt lat="37.307477" lon="-3.101605">
        <ele>1057.000000</ele>
        <time>2019-05-09T07:03:47Z</time>
      </trkpt>
      <trkpt lat="37.307480" lon="-3.101587">
        <ele>1057.000000</ele>
        <time>2019-05-09T07:03:48Z</time>
      </trkpt>
      <trkpt lat="37.307482" lon="-3.101570">
        <ele>1057.000000</ele>
        <time>2019-05-09T07:03:49Z</time>
      </trkpt>
      <trkpt lat="37.307486" lon="-3.101555">
        <ele>1057.000000</ele>
        <time>2019-05-09T07:03:50Z</time>
      </trkpt>
      <trkpt lat="37.307487" lon="-3.101543">
        <ele>1057.000000</ele>
        <time>2019-05-09T07:03:51Z</time>
      </trkpt>
      <trkpt lat="37.307492" lon="-3.101530">
        <ele>1057.000000</ele>
        <time>2019-05-09T07:03:52Z</time>
      </trkpt>
      <trkpt lat="37.307496" lon="-3.101517">
        <ele>1057.000000</ele>
        <time>2019-05-09T07:03:53Z</time>
      </trkpt>
      <trkpt lat="37.307499" lon="-3.101503">
        <ele>1057.000000</ele>
        <time>2019-05-09T07:03:54Z</time>
      </trkpt>
      <trkpt lat="37.307506" lon="-3.101487">
        <ele>1057.000000</ele>
        <time>2019-05-09T07:03:55Z</time>
      </trkpt>
      <trkpt lat="37.307510" lon="-3.101472">
        <ele>1057.000000</ele>
        <time>2019-05-09T07:03:56Z</time>
      </trkpt>
      <trkpt lat="37.307515" lon="-3.101455">
        <ele>1057.000000</ele>
        <time>2019-05-09T07:03:57Z</time>
      </trkpt>
      <trkpt lat="37.307520" lon="-3.101442">
        <ele>1057.000000</ele>
        <time>2019-05-09T07:03:58Z</time>
      </trkpt>
      <trkpt lat="37.307525" lon="-3.101428">
        <ele>1057.000000</ele>
        <time>2019-05-09T07:03:59Z</time>
      </trkpt>
      <trkpt lat="37.307530" lon="-3.101413">
        <ele>1057.000000</ele>
        <time>2019-05-09T07:04:00Z</time>
      </trkpt>
      <trkpt lat="37.307537" lon="-3.101397">
        <ele>1057.000000</ele>
        <time>2019-05-09T07:04:01Z</time>
      </trkpt>
      <trkpt lat="37.307542" lon="-3.101380">
        <ele>1057.000000</ele>
        <time>2019-05-09T07:04:03Z</time>
      </trkpt>
      <trkpt lat="37.307549" lon="-3.101365">
        <ele>1058.000000</ele>
        <time>2019-05-09T07:04:03Z</time>
      </trkpt>
      <trkpt lat="37.307555" lon="-3.101352">
        <ele>1058.000000</ele>
        <time>2019-05-09T07:04:04Z</time>
      </trkpt>
      <trkpt lat="37.307561" lon="-3.101337">
        <ele>1058.000000</ele>
        <time>2019-05-09T07:04:05Z</time>
      </trkpt>
      <trkpt lat="37.307570" lon="-3.101320">
        <ele>1058.000000</ele>
        <time>2019-05-09T07:04:06Z</time>
      </trkpt>
      <trkpt lat="37.307577" lon="-3.101302">
        <ele>1058.000000</ele>
        <time>2019-05-09T07:04:07Z</time>
      </trkpt>
      <trkpt lat="37.307585" lon="-3.101287">
        <ele>1058.000000</ele>
        <time>2019-05-09T07:04:08Z</time>
      </trkpt>
      <trkpt lat="37.307592" lon="-3.101272">
        <ele>1058.000000</ele>
        <time>2019-05-09T07:04:09Z</time>
      </trkpt>
      <trkpt lat="37.307599" lon="-3.101260">
        <ele>1058.000000</ele>
        <time>2019-05-09T07:04:10Z</time>
      </trkpt>
      <trkpt lat="37.307608" lon="-3.101247">
        <ele>1058.000000</ele>
        <time>2019-05-09T07:04:11Z</time>
      </trkpt>
      <trkpt lat="37.307617" lon="-3.101232">
        <ele>1058.000000</ele>
        <time>2019-05-09T07:04:12Z</time>
      </trkpt>
      <trkpt lat="37.307627" lon="-3.101217">
        <ele>1058.000000</ele>
        <time>2019-05-09T07:04:13Z</time>
      </trkpt>
      <trkpt lat="37.307634" lon="-3.101203">
        <ele>1058.000000</ele>
        <time>2019-05-09T07:04:14Z</time>
      </trkpt>
      <trkpt lat="37.307645" lon="-3.101187">
        <ele>1058.000000</ele>
        <time>2019-05-09T07:04:15Z</time>
      </trkpt>
      <trkpt lat="37.307655" lon="-3.101172">
        <ele>1058.000000</ele>
        <time>2019-05-09T07:04:16Z</time>
      </trkpt>
      <trkpt lat="37.307664" lon="-3.101155">
        <ele>1058.000000</ele>
        <time>2019-05-09T07:04:17Z</time>
      </trkpt>
      <trkpt lat="37.307675" lon="-3.101135">
        <ele>1058.000000</ele>
        <time>2019-05-09T07:04:18Z</time>
      </trkpt>
      <trkpt lat="37.307686" lon="-3.101117">
        <ele>1058.000000</ele>
        <time>2019-05-09T07:04:19Z</time>
      </trkpt>
      <trkpt lat="37.307697" lon="-3.101098">
        <ele>1058.000000</ele>
        <time>2019-05-09T07:04:20Z</time>
      </trkpt>
      <trkpt lat="37.307708" lon="-3.101078">
        <ele>1058.000000</ele>
        <time>2019-05-09T07:04:21Z</time>
      </trkpt>
      <trkpt lat="37.307719" lon="-3.101062">
        <ele>1058.000000</ele>
        <time>2019-05-09T07:04:22Z</time>
      </trkpt>
      <trkpt lat="37.307729" lon="-3.101042">
        <ele>1058.000000</ele>
        <time>2019-05-09T07:04:23Z</time>
      </trkpt>
      <trkpt lat="37.307739" lon="-3.101023">
        <ele>1058.000000</ele>
        <time>2019-05-09T07:04:24Z</time>
      </trkpt>
      <trkpt lat="37.307747" lon="-3.101005">
        <ele>1058.000000</ele>
        <time>2019-05-09T07:04:25Z</time>
      </trkpt>
      <trkpt lat="37.307755" lon="-3.100988">
        <ele>1058.000000</ele>
        <time>2019-05-09T07:04:27Z</time>
      </trkpt>
      <trkpt lat="37.307763" lon="-3.100970">
        <ele>1058.000000</ele>
        <time>2019-05-09T07:04:27Z</time>
      </trkpt>
      <trkpt lat="37.307770" lon="-3.100952">
        <ele>1058.000000</ele>
        <time>2019-05-09T07:04:28Z</time>
      </trkpt>
      <trkpt lat="37.307778" lon="-3.100932">
        <ele>1058.000000</ele>
        <time>2019-05-09T07:04:29Z</time>
      </trkpt>
      <trkpt lat="37.307784" lon="-3.100913">
        <ele>1058.000000</ele>
        <time>2019-05-09T07:04:30Z</time>
      </trkpt>
      <trkpt lat="37.307790" lon="-3.100897">
        <ele>1058.000000</ele>
        <time>2019-05-09T07:04:31Z</time>
      </trkpt>
      <trkpt lat="37.307795" lon="-3.100880">
        <ele>1058.000000</ele>
        <time>2019-05-09T07:04:32Z</time>
      </trkpt>
      <trkpt lat="37.307800" lon="-3.100863">
        <ele>1058.000000</ele>
        <time>2019-05-09T07:04:33Z</time>
      </trkpt>
      <trkpt lat="37.307804" lon="-3.100850">
        <ele>1058.000000</ele>
        <time>2019-05-09T07:04:34Z</time>
      </trkpt>
      <trkpt lat="37.307807" lon="-3.100837">
        <ele>1058.000000</ele>
        <time>2019-05-09T07:04:35Z</time>
      </trkpt>
      <trkpt lat="37.307812" lon="-3.100820">
        <ele>1058.000000</ele>
        <time>2019-05-09T07:04:36Z</time>
      </trkpt>
      <trkpt lat="37.307818" lon="-3.100803">
        <ele>1058.000000</ele>
        <time>2019-05-09T07:04:37Z</time>
      </trkpt>
      <trkpt lat="37.307824" lon="-3.100787">
        <ele>1058.000000</ele>
        <time>2019-05-09T07:04:39Z</time>
      </trkpt>
      <trkpt lat="37.307829" lon="-3.100772">
        <ele>1058.000000</ele>
        <time>2019-05-09T07:04:40Z</time>
      </trkpt>
      <trkpt lat="37.307835" lon="-3.100755">
        <ele>1058.000000</ele>
        <time>2019-05-09T07:04:41Z</time>
      </trkpt>
      <trkpt lat="37.307840" lon="-3.100740">
        <ele>1058.000000</ele>
        <time>2019-05-09T07:04:42Z</time>
      </trkpt>
      <trkpt lat="37.307844" lon="-3.100727">
        <ele>1058.000000</ele>
        <time>2019-05-09T07:04:42Z</time>
      </trkpt>
      <trkpt lat="37.307851" lon="-3.100712">
        <ele>1059.000000</ele>
        <time>2019-05-09T07:04:43Z</time>
      </trkpt>
      <trkpt lat="37.307857" lon="-3.100700">
        <ele>1059.000000</ele>
        <time>2019-05-09T07:04:44Z</time>
      </trkpt>
      <trkpt lat="37.307864" lon="-3.100685">
        <ele>1059.000000</ele>
        <time>2019-05-09T07:04:45Z</time>
      </trkpt>
      <trkpt lat="37.307869" lon="-3.100673">
        <ele>1059.000000</ele>
        <time>2019-05-09T07:04:46Z</time>
      </trkpt>
      <trkpt lat="37.307877" lon="-3.100660">
        <ele>1059.000000</ele>
        <time>2019-05-09T07:04:47Z</time>
      </trkpt>
      <trkpt lat="37.307883" lon="-3.100647">
        <ele>1059.000000</ele>
        <time>2019-05-09T07:04:49Z</time>
      </trkpt>
      <trkpt lat="37.307890" lon="-3.100635">
        <ele>1059.000000</ele>
        <time>2019-05-09T07:04:49Z</time>
      </trkpt>
      <trkpt lat="37.307896" lon="-3.100627">
        <ele>1059.000000</ele>
        <time>2019-05-09T07:04:50Z</time>
      </trkpt>
      <trkpt lat="37.307904" lon="-3.100613">
        <ele>1059.000000</ele>
        <time>2019-05-09T07:04:51Z</time>
      </trkpt>
      <trkpt lat="37.307911" lon="-3.100603">
        <ele>1059.000000</ele>
        <time>2019-05-09T07:04:52Z</time>
      </trkpt>
      <trkpt lat="37.307918" lon="-3.100593">
        <ele>1060.000000</ele>
        <time>2019-05-09T07:04:53Z</time>
      </trkpt>
      <trkpt lat="37.307928" lon="-3.100578">
        <ele>1060.000000</ele>
        <time>2019-05-09T07:04:54Z</time>
      </trkpt>
      <trkpt lat="37.307936" lon="-3.100567">
        <ele>1060.000000</ele>
        <time>2019-05-09T07:04:55Z</time>
      </trkpt>
      <trkpt lat="37.307947" lon="-3.100550">
        <ele>1060.000000</ele>
        <time>2019-05-09T07:04:56Z</time>
      </trkpt>
      <trkpt lat="37.307957" lon="-3.100535">
        <ele>1060.000000</ele>
        <time>2019-05-09T07:04:57Z</time>
      </trkpt>
      <trkpt lat="37.307966" lon="-3.100522">
        <ele>1060.000000</ele>
        <time>2019-05-09T07:04:58Z</time>
      </trkpt>
      <trkpt lat="37.307974" lon="-3.100512">
        <ele>1060.000000</ele>
        <time>2019-05-09T07:04:59Z</time>
      </trkpt>
      <trkpt lat="37.307983" lon="-3.100500">
        <ele>1060.000000</ele>
        <time>2019-05-09T07:05:00Z</time>
      </trkpt>
      <trkpt lat="37.307992" lon="-3.100490">
        <ele>1061.000000</ele>
        <time>2019-05-09T07:05:01Z</time>
      </trkpt>
      <trkpt lat="37.308002" lon="-3.100480">
        <ele>1061.000000</ele>
        <time>2019-05-09T07:05:02Z</time>
      </trkpt>
      <trkpt lat="37.308013" lon="-3.100465">
        <ele>1061.000000</ele>
        <time>2019-05-09T07:05:03Z</time>
      </trkpt>
      <trkpt lat="37.308026" lon="-3.100448">
        <ele>1061.000000</ele>
        <time>2019-05-09T07:05:04Z</time>
      </trkpt>
      <trkpt lat="37.308037" lon="-3.100437">
        <ele>1061.000000</ele>
        <time>2019-05-09T07:05:05Z</time>
      </trkpt>
      <trkpt lat="37.308048" lon="-3.100425">
        <ele>1061.000000</ele>
        <time>2019-05-09T07:05:06Z</time>
      </trkpt>
      <trkpt lat="37.308058" lon="-3.100413">
        <ele>1061.000000</ele>
        <time>2019-05-09T07:05:07Z</time>
      </trkpt>
      <trkpt lat="37.308069" lon="-3.100403">
        <ele>1061.000000</ele>
        <time>2019-05-09T07:05:08Z</time>
      </trkpt>
      <trkpt lat="37.308112" lon="-3.100392">
        <ele>1061.000000</ele>
        <time>2019-05-09T07:05:09Z</time>
      </trkpt>
      <trkpt lat="37.308125" lon="-3.100382">
        <ele>1061.000000</ele>
        <time>2019-05-09T07:05:10Z</time>
      </trkpt>
      <trkpt lat="37.308137" lon="-3.100369">
        <ele>1061.000000</ele>
        <time>2019-05-09T07:05:11Z</time>
      </trkpt>
      <trkpt lat="37.308148" lon="-3.100355">
        <ele>1061.000000</ele>
        <time>2019-05-09T07:05:12Z</time>
      </trkpt>
      <trkpt lat="37.308160" lon="-3.100340">
        <ele>1061.000000</ele>
        <time>2019-05-09T07:05:13Z</time>
      </trkpt>
      <trkpt lat="37.308172" lon="-3.100326">
        <ele>1061.000000</ele>
        <time>2019-05-09T07:05:14Z</time>
      </trkpt>
      <trkpt lat="37.308183" lon="-3.100310">
        <ele>1061.000000</ele>
        <time>2019-05-09T07:05:15Z</time>
      </trkpt>
      <trkpt lat="37.308195" lon="-3.100294">
        <ele>1061.000000</ele>
        <time>2019-05-09T07:05:16Z</time>
      </trkpt>
      <trkpt lat="37.308205" lon="-3.100279">
        <ele>1061.000000</ele>
        <time>2019-05-09T07:05:17Z</time>
      </trkpt>
      <trkpt lat="37.308217" lon="-3.100262">
        <ele>1061.000000</ele>
        <time>2019-05-09T07:05:18Z</time>
      </trkpt>
      <trkpt lat="37.308228" lon="-3.100248">
        <ele>1061.000000</ele>
        <time>2019-05-09T07:05:19Z</time>
      </trkpt>
      <trkpt lat="37.308240" lon="-3.100237">
        <ele>1061.000000</ele>
        <time>2019-05-09T07:05:20Z</time>
      </trkpt>
      <trkpt lat="37.308250" lon="-3.100223">
        <ele>1061.000000</ele>
        <time>2019-05-09T07:05:21Z</time>
      </trkpt>
      <trkpt lat="37.308260" lon="-3.100213">
        <ele>1061.000000</ele>
        <time>2019-05-09T07:05:22Z</time>
      </trkpt>
      <trkpt lat="37.308272" lon="-3.100201">
        <ele>1061.000000</ele>
        <time>2019-05-09T07:05:23Z</time>
      </trkpt>
      <trkpt lat="37.308283" lon="-3.100188">
        <ele>1061.000000</ele>
        <time>2019-05-09T07:05:24Z</time>
      </trkpt>
      <trkpt lat="37.308295" lon="-3.100175">
        <ele>1062.000000</ele>
        <time>2019-05-09T07:05:25Z</time>
      </trkpt>
      <trkpt lat="37.308307" lon="-3.100163">
        <ele>1062.000000</ele>
        <time>2019-05-09T07:05:26Z</time>
      </trkpt>
      <trkpt lat="37.308317" lon="-3.100152">
        <ele>1062.000000</ele>
        <time>2019-05-09T07:05:27Z</time>
      </trkpt>
      <trkpt lat="37.308328" lon="-3.100140">
        <ele>1062.000000</ele>
        <time>2019-05-09T07:05:28Z</time>
      </trkpt>
      <trkpt lat="37.308338" lon="-3.100132">
        <ele>1062.000000</ele>
        <time>2019-05-09T07:05:29Z</time>
      </trkpt>
      <trkpt lat="37.308350" lon="-3.100121">
        <ele>1062.000000</ele>
        <time>2019-05-09T07:05:30Z</time>
      </trkpt>
      <trkpt lat="37.308362" lon="-3.100111">
        <ele>1062.000000</ele>
        <time>2019-05-09T07:05:31Z</time>
      </trkpt>
      <trkpt lat="37.308372" lon="-3.100100">
        <ele>1062.000000</ele>
        <time>2019-05-09T07:05:32Z</time>
      </trkpt>
      <trkpt lat="37.308382" lon="-3.100090">
        <ele>1062.000000</ele>
        <time>2019-05-09T07:05:33Z</time>
      </trkpt>
      <trkpt lat="37.308393" lon="-3.100077">
        <ele>1062.000000</ele>
        <time>2019-05-09T07:05:34Z</time>
      </trkpt>
      <trkpt lat="37.308403" lon="-3.100067">
        <ele>1062.000000</ele>
        <time>2019-05-09T07:05:35Z</time>
      </trkpt>
      <trkpt lat="37.308415" lon="-3.100056">
        <ele>1062.000000</ele>
        <time>2019-05-09T07:05:36Z</time>
      </trkpt>
      <trkpt lat="37.308428" lon="-3.100044">
        <ele>1062.000000</ele>
        <time>2019-05-09T07:05:38Z</time>
      </trkpt>
      <trkpt lat="37.308442" lon="-3.100033">
        <ele>1062.000000</ele>
        <time>2019-05-09T07:05:38Z</time>
      </trkpt>
      <trkpt lat="37.308453" lon="-3.100024">
        <ele>1062.000000</ele>
        <time>2019-05-09T07:05:39Z</time>
      </trkpt>
      <trkpt lat="37.308465" lon="-3.100016">
        <ele>1062.000000</ele>
        <time>2019-05-09T07:05:40Z</time>
      </trkpt>
      <trkpt lat="37.308477" lon="-3.100007">
        <ele>1062.000000</ele>
        <time>2019-05-09T07:05:41Z</time>
      </trkpt>
      <trkpt lat="37.308488" lon="-3.099998">
        <ele>1062.000000</ele>
        <time>2019-05-09T07:05:42Z</time>
      </trkpt>
      <trkpt lat="37.308500" lon="-3.099988">
        <ele>1062.000000</ele>
        <time>2019-05-09T07:05:43Z</time>
      </trkpt>
      <trkpt lat="37.308510" lon="-3.099980">
        <ele>1062.000000</ele>
        <time>2019-05-09T07:05:44Z</time>
      </trkpt>
      <trkpt lat="37.308522" lon="-3.099970">
        <ele>1062.000000</ele>
        <time>2019-05-09T07:05:45Z</time>
      </trkpt>
      <trkpt lat="37.308533" lon="-3.099959">
        <ele>1062.000000</ele>
        <time>2019-05-09T07:05:46Z</time>
      </trkpt>
      <trkpt lat="37.308545" lon="-3.099949">
        <ele>1062.000000</ele>
        <time>2019-05-09T07:05:48Z</time>
      </trkpt>
      <trkpt lat="37.308555" lon="-3.099939">
        <ele>1062.000000</ele>
        <time>2019-05-09T07:05:48Z</time>
      </trkpt>
      <trkpt lat="37.308565" lon="-3.099928">
        <ele>1062.000000</ele>
        <time>2019-05-09T07:05:49Z</time>
      </trkpt>
      <trkpt lat="37.308575" lon="-3.099917">
        <ele>1062.000000</ele>
        <time>2019-05-09T07:05:50Z</time>
      </trkpt>
      <trkpt lat="37.308583" lon="-3.099907">
        <ele>1062.000000</ele>
        <time>2019-05-09T07:05:52Z</time>
      </trkpt>
      <trkpt lat="37.308592" lon="-3.099896">
        <ele>1062.000000</ele>
        <time>2019-05-09T07:05:53Z</time>
      </trkpt>
      <trkpt lat="37.308602" lon="-3.099884">
        <ele>1062.000000</ele>
        <time>2019-05-09T07:05:53Z</time>
      </trkpt>
      <trkpt lat="37.308610" lon="-3.099845">
        <ele>1062.000000</ele>
        <time>2019-05-09T07:05:54Z</time>
      </trkpt>
      <trkpt lat="37.308620" lon="-3.099832">
        <ele>1062.000000</ele>
        <time>2019-05-09T07:08:16Z</time>
      </trkpt>
      <trkpt lat="37.308629" lon="-3.099817">
        <ele>1062.000000</ele>
        <time>2019-05-09T07:08:17Z</time>
      </trkpt>
      <trkpt lat="37.308637" lon="-3.099803">
        <ele>1062.000000</ele>
        <time>2019-05-09T07:08:18Z</time>
      </trkpt>
      <trkpt lat="37.308649" lon="-3.099783">
        <ele>1062.000000</ele>
        <time>2019-05-09T07:08:19Z</time>
      </trkpt>
      <trkpt lat="37.308658" lon="-3.099768">
        <ele>1062.000000</ele>
        <time>2019-05-09T07:08:20Z</time>
      </trkpt>
      <trkpt lat="37.308667" lon="-3.099755">
        <ele>1062.000000</ele>
        <time>2019-05-09T07:08:21Z</time>
      </trkpt>
      <trkpt lat="37.308676" lon="-3.099742">
        <ele>1062.000000</ele>
        <time>2019-05-09T07:08:22Z</time>
      </trkpt>
      <trkpt lat="37.308687" lon="-3.099727">
        <ele>1062.000000</ele>
        <time>2019-05-09T07:08:23Z</time>
      </trkpt>
      <trkpt lat="37.308697" lon="-3.099710">
        <ele>1062.000000</ele>
        <time>2019-05-09T07:08:24Z</time>
      </trkpt>
      <trkpt lat="37.308706" lon="-3.099695">
        <ele>1062.000000</ele>
        <time>2019-05-09T07:08:25Z</time>
      </trkpt>
      <trkpt lat="37.308716" lon="-3.099677">
        <ele>1062.000000</ele>
        <time>2019-05-09T07:08:26Z</time>
      </trkpt>
      <trkpt lat="37.308725" lon="-3.099663">
        <ele>1062.000000</ele>
        <time>2019-05-09T07:08:27Z</time>
      </trkpt>
      <trkpt lat="37.308733" lon="-3.099650">
        <ele>1062.000000</ele>
        <time>2019-05-09T07:08:28Z</time>
      </trkpt>
      <trkpt lat="37.308743" lon="-3.099633">
        <ele>1062.000000</ele>
        <time>2019-05-09T07:08:29Z</time>
      </trkpt>
      <trkpt lat="37.308751" lon="-3.099622">
        <ele>1062.000000</ele>
        <time>2019-05-09T07:08:30Z</time>
      </trkpt>
      <trkpt lat="37.308760" lon="-3.099610">
        <ele>1062.000000</ele>
        <time>2019-05-09T07:08:31Z</time>
      </trkpt>
      <trkpt lat="37.308769" lon="-3.099598">
        <ele>1062.000000</ele>
        <time>2019-05-09T07:08:32Z</time>
      </trkpt>
      <trkpt lat="37.308790" lon="-3.099585">
        <ele>1062.000000</ele>
        <time>2019-05-09T07:08:33Z</time>
      </trkpt>
      <trkpt lat="37.308805" lon="-3.099570">
        <ele>1062.000000</ele>
        <time>2019-05-09T07:08:34Z</time>
      </trkpt>
      <trkpt lat="37.308818" lon="-3.099555">
        <ele>1062.000000</ele>
        <time>2019-05-09T07:08:35Z</time>
      </trkpt>
      <trkpt lat="37.308832" lon="-3.099541">
        <ele>1062.000000</ele>
        <time>2019-05-09T07:08:36Z</time>
      </trkpt>
      <trkpt lat="37.308845" lon="-3.099530">
        <ele>1062.000000</ele>
        <time>2019-05-09T07:08:37Z</time>
      </trkpt>
      <trkpt lat="37.308858" lon="-3.099517">
        <ele>1062.000000</ele>
        <time>2019-05-09T07:08:38Z</time>
      </trkpt>
      <trkpt lat="37.308870" lon="-3.099506">
        <ele>1062.000000</ele>
        <time>2019-05-09T07:08:39Z</time>
      </trkpt>
      <trkpt lat="37.308883" lon="-3.099496">
        <ele>1062.000000</ele>
        <time>2019-05-09T07:08:40Z</time>
      </trkpt>
      <trkpt lat="37.308897" lon="-3.099487">
        <ele>1063.000000</ele>
        <time>2019-05-09T07:08:41Z</time>
      </trkpt>
      <trkpt lat="37.308910" lon="-3.099479">
        <ele>1063.000000</ele>
        <time>2019-05-09T07:08:42Z</time>
      </trkpt>
      <trkpt lat="37.308925" lon="-3.099471">
        <ele>1063.000000</ele>
        <time>2019-05-09T07:08:43Z</time>
      </trkpt>
      <trkpt lat="37.308937" lon="-3.099464">
        <ele>1063.000000</ele>
        <time>2019-05-09T07:08:44Z</time>
      </trkpt>
      <trkpt lat="37.308948" lon="-3.099456">
        <ele>1063.000000</ele>
        <time>2019-05-09T07:08:45Z</time>
      </trkpt>
      <trkpt lat="37.308963" lon="-3.099446">
        <ele>1063.000000</ele>
        <time>2019-05-09T07:08:46Z</time>
      </trkpt>
      <trkpt lat="37.308977" lon="-3.099437">
        <ele>1063.000000</ele>
        <time>2019-05-09T07:08:47Z</time>
      </trkpt>
      <trkpt lat="37.308990" lon="-3.099427">
        <ele>1064.000000</ele>
        <time>2019-05-09T07:08:48Z</time>
      </trkpt>
      <trkpt lat="37.309005" lon="-3.099417">
        <ele>1064.000000</ele>
        <time>2019-05-09T07:08:49Z</time>
      </trkpt>
      <trkpt lat="37.309018" lon="-3.099407">
        <ele>1064.000000</ele>
        <time>2019-05-09T07:08:50Z</time>
      </trkpt>
      <trkpt lat="37.309030" lon="-3.099399">
        <ele>1064.000000</ele>
        <time>2019-05-09T07:08:51Z</time>
      </trkpt>
      <trkpt lat="37.309040" lon="-3.099391">
        <ele>1064.000000</ele>
        <time>2019-05-09T07:08:52Z</time>
      </trkpt>
      <trkpt lat="37.309050" lon="-3.099383">
        <ele>1064.000000</ele>
        <time>2019-05-09T07:08:53Z</time>
      </trkpt>
      <trkpt lat="37.309063" lon="-3.099372">
        <ele>1064.000000</ele>
        <time>2019-05-09T07:08:54Z</time>
      </trkpt>
      <trkpt lat="37.309078" lon="-3.099360">
        <ele>1064.000000</ele>
        <time>2019-05-09T07:08:55Z</time>
      </trkpt>
      <trkpt lat="37.309092" lon="-3.099349">
        <ele>1064.000000</ele>
        <time>2019-05-09T07:08:56Z</time>
      </trkpt>
      <trkpt lat="37.309103" lon="-3.099339">
        <ele>1064.000000</ele>
        <time>2019-05-09T07:08:57Z</time>
      </trkpt>
      <trkpt lat="37.309113" lon="-3.099331">
        <ele>1064.000000</ele>
        <time>2019-05-09T07:08:58Z</time>
      </trkpt>
      <trkpt lat="37.309127" lon="-3.099320">
        <ele>1064.000000</ele>
        <time>2019-05-09T07:08:59Z</time>
      </trkpt>
      <trkpt lat="37.309137" lon="-3.099311">
        <ele>1064.000000</ele>
        <time>2019-05-09T07:09:00Z</time>
      </trkpt>
      <trkpt lat="37.309147" lon="-3.099301">
        <ele>1064.000000</ele>
        <time>2019-05-09T07:09:01Z</time>
      </trkpt>
      <trkpt lat="37.309157" lon="-3.099292">
        <ele>1064.000000</ele>
        <time>2019-05-09T07:09:02Z</time>
      </trkpt>
      <trkpt lat="37.309167" lon="-3.099282">
        <ele>1064.000000</ele>
        <time>2019-05-09T07:09:03Z</time>
      </trkpt>
      <trkpt lat="37.309180" lon="-3.099269">
        <ele>1064.000000</ele>
        <time>2019-05-09T07:09:04Z</time>
      </trkpt>
      <trkpt lat="37.309193" lon="-3.099257">
        <ele>1064.000000</ele>
        <time>2019-05-09T07:09:05Z</time>
      </trkpt>
      <trkpt lat="37.309207" lon="-3.099244">
        <ele>1064.000000</ele>
        <time>2019-05-09T07:09:06Z</time>
      </trkpt>
      <trkpt lat="37.309218" lon="-3.099233">
        <ele>1064.000000</ele>
        <time>2019-05-09T07:09:07Z</time>
      </trkpt>
      <trkpt lat="37.309232" lon="-3.099221">
        <ele>1064.000000</ele>
        <time>2019-05-09T07:09:08Z</time>
      </trkpt>
      <trkpt lat="37.309243" lon="-3.099210">
        <ele>1065.000000</ele>
        <time>2019-05-09T07:09:09Z</time>
      </trkpt>
      <trkpt lat="37.309255" lon="-3.099200">
        <ele>1065.000000</ele>
        <time>2019-05-09T07:09:10Z</time>
      </trkpt>
      <trkpt lat="37.309267" lon="-3.099189">
        <ele>1065.000000</ele>
        <time>2019-05-09T07:09:11Z</time>
      </trkpt>
      <trkpt lat="37.309282" lon="-3.099177">
        <ele>1065.000000</ele>
        <time>2019-05-09T07:09:12Z</time>
      </trkpt>
      <trkpt lat="37.309293" lon="-3.099166">
        <ele>1065.000000</ele>
        <time>2019-05-09T07:09:13Z</time>
      </trkpt>
      <trkpt lat="37.309305" lon="-3.099156">
        <ele>1065.000000</ele>
        <time>2019-05-09T07:09:14Z</time>
      </trkpt>
      <trkpt lat="37.309317" lon="-3.099146">
        <ele>1065.000000</ele>
        <time>2019-05-09T07:09:15Z</time>
      </trkpt>
      <trkpt lat="37.309327" lon="-3.099136">
        <ele>1065.000000</ele>
        <time>2019-05-09T07:09:16Z</time>
      </trkpt>
      <trkpt lat="37.309337" lon="-3.099127">
        <ele>1065.000000</ele>
        <time>2019-05-09T07:09:17Z</time>
      </trkpt>
      <trkpt lat="37.309348" lon="-3.099114">
        <ele>1065.000000</ele>
        <time>2019-05-09T07:09:18Z</time>
      </trkpt>
      <trkpt lat="37.309360" lon="-3.099103">
        <ele>1065.000000</ele>
        <time>2019-05-09T07:09:19Z</time>
      </trkpt>
      <trkpt lat="37.309368" lon="-3.099093">
        <ele>1065.000000</ele>
        <time>2019-05-09T07:09:20Z</time>
      </trkpt>
      <trkpt lat="37.309378" lon="-3.099082">
        <ele>1065.000000</ele>
        <time>2019-05-09T07:09:21Z</time>
      </trkpt>
      <trkpt lat="37.309388" lon="-3.099071">
        <ele>1065.000000</ele>
        <time>2019-05-09T07:09:22Z</time>
      </trkpt>
      <trkpt lat="37.309400" lon="-3.099058">
        <ele>1065.000000</ele>
        <time>2019-05-09T07:09:23Z</time>
      </trkpt>
      <trkpt lat="37.309410" lon="-3.099013">
        <ele>1065.000000</ele>
        <time>2019-05-09T07:09:24Z</time>
      </trkpt>
      <trkpt lat="37.309418" lon="-3.098998">
        <ele>1065.000000</ele>
        <time>2019-05-09T07:09:25Z</time>
      </trkpt>
      <trkpt lat="37.309426" lon="-3.098985">
        <ele>1065.000000</ele>
        <time>2019-05-09T07:09:26Z</time>
      </trkpt>
      <trkpt lat="37.309435" lon="-3.098972">
        <ele>1065.000000</ele>
        <time>2019-05-09T07:09:27Z</time>
      </trkpt>
      <trkpt lat="37.309444" lon="-3.098960">
        <ele>1065.000000</ele>
        <time>2019-05-09T07:09:28Z</time>
      </trkpt>
      <trkpt lat="37.309453" lon="-3.098947">
        <ele>1065.000000</ele>
        <time>2019-05-09T07:09:29Z</time>
      </trkpt>
      <trkpt lat="37.309461" lon="-3.098935">
        <ele>1065.000000</ele>
        <time>2019-05-09T07:09:30Z</time>
      </trkpt>
      <trkpt lat="37.309470" lon="-3.098923">
        <ele>1065.000000</ele>
        <time>2019-05-09T07:09:31Z</time>
      </trkpt>
      <trkpt lat="37.309479" lon="-3.098908">
        <ele>1066.000000</ele>
        <time>2019-05-09T07:09:32Z</time>
      </trkpt>
      <trkpt lat="37.309485" lon="-3.098900">
        <ele>1066.000000</ele>
        <time>2019-05-09T07:09:33Z</time>
      </trkpt>
      <trkpt lat="37.309494" lon="-3.098888">
        <ele>1066.000000</ele>
        <time>2019-05-09T07:09:34Z</time>
      </trkpt>
      <trkpt lat="37.309505" lon="-3.098873">
        <ele>1066.000000</ele>
        <time>2019-05-09T07:09:35Z</time>
      </trkpt>
      <trkpt lat="37.309516" lon="-3.098858">
        <ele>1066.000000</ele>
        <time>2019-05-09T07:09:36Z</time>
      </trkpt>
      <trkpt lat="37.309530" lon="-3.098848">
        <ele>1066.000000</ele>
        <time>2019-05-09T07:09:37Z</time>
      </trkpt>
      <trkpt lat="37.309540" lon="-3.098842">
        <ele>1066.000000</ele>
        <time>2019-05-09T07:09:38Z</time>
      </trkpt>
      <trkpt lat="37.309553" lon="-3.098838">
        <ele>1066.000000</ele>
        <time>2019-05-09T07:09:39Z</time>
      </trkpt>
      <trkpt lat="37.309568" lon="-3.098835">
        <ele>1066.000000</ele>
        <time>2019-05-09T07:09:40Z</time>
      </trkpt>
      <trkpt lat="37.309582" lon="-3.098830">
        <ele>1067.000000</ele>
        <time>2019-05-09T07:09:41Z</time>
      </trkpt>
      <trkpt lat="37.309595" lon="-3.098821">
        <ele>1067.000000</ele>
        <time>2019-05-09T07:09:42Z</time>
      </trkpt>
      <trkpt lat="37.309608" lon="-3.098812">
        <ele>1067.000000</ele>
        <time>2019-05-09T07:09:43Z</time>
      </trkpt>
      <trkpt lat="37.309622" lon="-3.098803">
        <ele>1067.000000</ele>
        <time>2019-05-09T07:09:44Z</time>
      </trkpt>
      <trkpt lat="37.309632" lon="-3.098795">
        <ele>1067.000000</ele>
        <time>2019-05-09T07:09:45Z</time>
      </trkpt>
      <trkpt lat="37.309647" lon="-3.098784">
        <ele>1067.000000</ele>
        <time>2019-05-09T07:09:46Z</time>
      </trkpt>
      <trkpt lat="37.309660" lon="-3.098774">
        <ele>1067.000000</ele>
        <time>2019-05-09T07:09:47Z</time>
      </trkpt>
      <trkpt lat="37.309673" lon="-3.098765">
        <ele>1067.000000</ele>
        <time>2019-05-09T07:09:48Z</time>
      </trkpt>
      <trkpt lat="37.309688" lon="-3.098756">
        <ele>1067.000000</ele>
        <time>2019-05-09T07:09:49Z</time>
      </trkpt>
      <trkpt lat="37.309702" lon="-3.098748">
        <ele>1067.000000</ele>
        <time>2019-05-09T07:09:50Z</time>
      </trkpt>
      <trkpt lat="37.309715" lon="-3.098739">
        <ele>1067.000000</ele>
        <time>2019-05-09T07:09:51Z</time>
      </trkpt>
      <trkpt lat="37.309728" lon="-3.098730">
        <ele>1068.000000</ele>
        <time>2019-05-09T07:09:52Z</time>
      </trkpt>
      <trkpt lat="37.309742" lon="-3.098721">
        <ele>1068.000000</ele>
        <time>2019-05-09T07:09:53Z</time>
      </trkpt>
      <trkpt lat="37.309755" lon="-3.098712">
        <ele>1068.000000</ele>
        <time>2019-05-09T07:09:54Z</time>
      </trkpt>
      <trkpt lat="37.309770" lon="-3.098702">
        <ele>1068.000000</ele>
        <time>2019-05-09T07:09:55Z</time>
      </trkpt>
      <trkpt lat="37.309783" lon="-3.098693">
        <ele>1068.000000</ele>
        <time>2019-05-09T07:09:56Z</time>
      </trkpt>
      <trkpt lat="37.309797" lon="-3.098684">
        <ele>1068.000000</ele>
        <time>2019-05-09T07:09:57Z</time>
      </trkpt>
      <trkpt lat="37.309810" lon="-3.098676">
        <ele>1068.000000</ele>
        <time>2019-05-09T07:09:58Z</time>
      </trkpt>
      <trkpt lat="37.309820" lon="-3.098668">
        <ele>1068.000000</ele>
        <time>2019-05-09T07:09:59Z</time>
      </trkpt>
      <trkpt lat="37.309832" lon="-3.098658">
        <ele>1068.000000</ele>
        <time>2019-05-09T07:10:00Z</time>
      </trkpt>
      <trkpt lat="37.309843" lon="-3.098649">
        <ele>1068.000000</ele>
        <time>2019-05-09T07:10:01Z</time>
      </trkpt>
      <trkpt lat="37.309855" lon="-3.098639">
        <ele>1069.000000</ele>
        <time>2019-05-09T07:10:02Z</time>
      </trkpt>
      <trkpt lat="37.309868" lon="-3.098629">
        <ele>1069.000000</ele>
        <time>2019-05-09T07:10:03Z</time>
      </trkpt>
      <trkpt lat="37.309883" lon="-3.098617">
        <ele>1069.000000</ele>
        <time>2019-05-09T07:10:04Z</time>
      </trkpt>
      <trkpt lat="37.309897" lon="-3.098607">
        <ele>1069.000000</ele>
        <time>2019-05-09T07:10:05Z</time>
      </trkpt>
      <trkpt lat="37.309912" lon="-3.098596">
        <ele>1069.000000</ele>
        <time>2019-05-09T07:10:06Z</time>
      </trkpt>
      <trkpt lat="37.309927" lon="-3.098587">
        <ele>1069.000000</ele>
        <time>2019-05-09T07:10:07Z</time>
      </trkpt>
      <trkpt lat="37.309938" lon="-3.098579">
        <ele>1069.000000</ele>
        <time>2019-05-09T07:10:08Z</time>
      </trkpt>
      <trkpt lat="37.309952" lon="-3.098571">
        <ele>1069.000000</ele>
        <time>2019-05-09T07:10:09Z</time>
      </trkpt>
      <trkpt lat="37.309963" lon="-3.098563">
        <ele>1070.000000</ele>
        <time>2019-05-09T07:10:09Z</time>
      </trkpt>
      <trkpt lat="37.309975" lon="-3.098555">
        <ele>1070.000000</ele>
        <time>2019-05-09T07:10:10Z</time>
      </trkpt>
      <trkpt lat="37.309985" lon="-3.098548">
        <ele>1070.000000</ele>
        <time>2019-05-09T07:10:11Z</time>
      </trkpt>
      <trkpt lat="37.309998" lon="-3.098538">
        <ele>1070.000000</ele>
        <time>2019-05-09T07:10:12Z</time>
      </trkpt>
      <trkpt lat="37.310013" lon="-3.098526">
        <ele>1070.000000</ele>
        <time>2019-05-09T07:10:13Z</time>
      </trkpt>
      <trkpt lat="37.310025" lon="-3.098517">
        <ele>1070.000000</ele>
        <time>2019-05-09T07:10:14Z</time>
      </trkpt>
      <trkpt lat="37.310037" lon="-3.098507">
        <ele>1070.000000</ele>
        <time>2019-05-09T07:10:15Z</time>
      </trkpt>
      <trkpt lat="37.310050" lon="-3.098497">
        <ele>1070.000000</ele>
        <time>2019-05-09T07:10:16Z</time>
      </trkpt>
      <trkpt lat="37.310063" lon="-3.098486">
        <ele>1070.000000</ele>
        <time>2019-05-09T07:10:17Z</time>
      </trkpt>
      <trkpt lat="37.310077" lon="-3.098475">
        <ele>1070.000000</ele>
        <time>2019-05-09T07:10:18Z</time>
      </trkpt>
      <trkpt lat="37.310088" lon="-3.098465">
        <ele>1070.000000</ele>
        <time>2019-05-09T07:10:19Z</time>
      </trkpt>
      <trkpt lat="37.310098" lon="-3.098456">
        <ele>1070.000000</ele>
        <time>2019-05-09T07:10:20Z</time>
      </trkpt>
      <trkpt lat="37.310110" lon="-3.098446">
        <ele>1070.000000</ele>
        <time>2019-05-09T07:10:21Z</time>
      </trkpt>
      <trkpt lat="37.310122" lon="-3.098436">
        <ele>1070.000000</ele>
        <time>2019-05-09T07:10:22Z</time>
      </trkpt>
      <trkpt lat="37.310133" lon="-3.098426">
        <ele>1071.000000</ele>
        <time>2019-05-09T07:10:23Z</time>
      </trkpt>
      <trkpt lat="37.310143" lon="-3.098417">
        <ele>1071.000000</ele>
        <time>2019-05-09T07:10:24Z</time>
      </trkpt>
      <trkpt lat="37.310153" lon="-3.098408">
        <ele>1071.000000</ele>
        <time>2019-05-09T07:10:25Z</time>
      </trkpt>
      <trkpt lat="37.310163" lon="-3.098397">
        <ele>1071.000000</ele>
        <time>2019-05-09T07:10:26Z</time>
      </trkpt>
      <trkpt lat="37.310173" lon="-3.098387">
        <ele>1071.000000</ele>
        <time>2019-05-09T07:10:27Z</time>
      </trkpt>
      <trkpt lat="37.310185" lon="-3.098376">
        <ele>1072.000000</ele>
        <time>2019-05-09T07:10:28Z</time>
      </trkpt>
      <trkpt lat="37.310198" lon="-3.098363">
        <ele>1072.000000</ele>
        <time>2019-05-09T07:10:29Z</time>
      </trkpt>
      <trkpt lat="37.310213" lon="-3.098349">
        <ele>1072.000000</ele>
        <time>2019-05-09T07:10:30Z</time>
      </trkpt>
      <trkpt lat="37.310225" lon="-3.098338">
        <ele>1072.000000</ele>
        <time>2019-05-09T07:10:31Z</time>
      </trkpt>
      <trkpt lat="37.310237" lon="-3.098327">
        <ele>1072.000000</ele>
        <time>2019-05-09T07:10:32Z</time>
      </trkpt>
      <trkpt lat="37.310247" lon="-3.098316">
        <ele>1072.000000</ele>
        <time>2019-05-09T07:10:33Z</time>
      </trkpt>
      <trkpt lat="37.310262" lon="-3.098302">
        <ele>1072.000000</ele>
        <time>2019-05-09T07:10:34Z</time>
      </trkpt>
      <trkpt lat="37.310273" lon="-3.098290">
        <ele>1072.000000</ele>
        <time>2019-05-09T07:10:35Z</time>
      </trkpt>
      <trkpt lat="37.310287" lon="-3.098278">
        <ele>1072.000000</ele>
        <time>2019-05-09T07:10:36Z</time>
      </trkpt>
      <trkpt lat="37.310295" lon="-3.098268">
        <ele>1072.000000</ele>
        <time>2019-05-09T07:10:37Z</time>
      </trkpt>
      <trkpt lat="37.310308" lon="-3.098256">
        <ele>1072.000000</ele>
        <time>2019-05-09T07:10:38Z</time>
      </trkpt>
      <trkpt lat="37.310320" lon="-3.098244">
        <ele>1072.000000</ele>
        <time>2019-05-09T07:10:39Z</time>
      </trkpt>
      <trkpt lat="37.310333" lon="-3.098232">
        <ele>1072.000000</ele>
        <time>2019-05-09T07:10:40Z</time>
      </trkpt>
      <trkpt lat="37.310347" lon="-3.098219">
        <ele>1072.000000</ele>
        <time>2019-05-09T07:10:41Z</time>
      </trkpt>
      <trkpt lat="37.310360" lon="-3.098206">
        <ele>1072.000000</ele>
        <time>2019-05-09T07:10:42Z</time>
      </trkpt>
      <trkpt lat="37.310373" lon="-3.098194">
        <ele>1072.000000</ele>
        <time>2019-05-09T07:10:43Z</time>
      </trkpt>
      <trkpt lat="37.310387" lon="-3.098181">
        <ele>1072.000000</ele>
        <time>2019-05-09T07:10:44Z</time>
      </trkpt>
      <trkpt lat="37.310402" lon="-3.098169">
        <ele>1072.000000</ele>
        <time>2019-05-09T07:10:45Z</time>
      </trkpt>
      <trkpt lat="37.310417" lon="-3.098156">
        <ele>1072.000000</ele>
        <time>2019-05-09T07:10:46Z</time>
      </trkpt>
      <trkpt lat="37.310432" lon="-3.098142">
        <ele>1072.000000</ele>
        <time>2019-05-09T07:10:47Z</time>
      </trkpt>
      <trkpt lat="37.310445" lon="-3.098131">
        <ele>1072.000000</ele>
        <time>2019-05-09T07:10:48Z</time>
      </trkpt>
      <trkpt lat="37.310458" lon="-3.098120">
        <ele>1072.000000</ele>
        <time>2019-05-09T07:10:49Z</time>
      </trkpt>
      <trkpt lat="37.310472" lon="-3.098108">
        <ele>1072.000000</ele>
        <time>2019-05-09T07:10:50Z</time>
      </trkpt>
      <trkpt lat="37.310482" lon="-3.098101">
        <ele>1072.000000</ele>
        <time>2019-05-09T07:10:51Z</time>
      </trkpt>
      <trkpt lat="37.310492" lon="-3.098091">
        <ele>1072.000000</ele>
        <time>2019-05-09T07:10:52Z</time>
      </trkpt>
      <trkpt lat="37.310503" lon="-3.098081">
        <ele>1072.000000</ele>
        <time>2019-05-09T07:10:53Z</time>
      </trkpt>
      <trkpt lat="37.310515" lon="-3.098072">
        <ele>1072.000000</ele>
        <time>2019-05-09T07:10:54Z</time>
      </trkpt>
      <trkpt lat="37.310528" lon="-3.098062">
        <ele>1072.000000</ele>
        <time>2019-05-09T07:10:55Z</time>
      </trkpt>
      <trkpt lat="37.310542" lon="-3.098052">
        <ele>1072.000000</ele>
        <time>2019-05-09T07:10:56Z</time>
      </trkpt>
      <trkpt lat="37.310553" lon="-3.098044">
        <ele>1072.000000</ele>
        <time>2019-05-09T07:10:57Z</time>
      </trkpt>
      <trkpt lat="37.310567" lon="-3.098034">
        <ele>1072.000000</ele>
        <time>2019-05-09T07:10:58Z</time>
      </trkpt>
      <trkpt lat="37.310580" lon="-3.098024">
        <ele>1072.000000</ele>
        <time>2019-05-09T07:10:59Z</time>
      </trkpt>
      <trkpt lat="37.310593" lon="-3.098015">
        <ele>1072.000000</ele>
        <time>2019-05-09T07:11:00Z</time>
      </trkpt>
      <trkpt lat="37.310607" lon="-3.098005">
        <ele>1072.000000</ele>
        <time>2019-05-09T07:11:01Z</time>
      </trkpt>
      <trkpt lat="37.310620" lon="-3.097995">
        <ele>1072.000000</ele>
        <time>2019-05-09T07:11:02Z</time>
      </trkpt>
      <trkpt lat="37.310632" lon="-3.097986">
        <ele>1072.000000</ele>
        <time>2019-05-09T07:11:03Z</time>
      </trkpt>
      <trkpt lat="37.310643" lon="-3.097977">
        <ele>1072.000000</ele>
        <time>2019-05-09T07:11:04Z</time>
      </trkpt>
      <trkpt lat="37.310655" lon="-3.097968">
        <ele>1072.000000</ele>
        <time>2019-05-09T07:11:05Z</time>
      </trkpt>
      <trkpt lat="37.310668" lon="-3.097959">
        <ele>1072.000000</ele>
        <time>2019-05-09T07:11:06Z</time>
      </trkpt>
      <trkpt lat="37.310678" lon="-3.097950">
        <ele>1072.000000</ele>
        <time>2019-05-09T07:11:07Z</time>
      </trkpt>
      <trkpt lat="37.310690" lon="-3.097941">
        <ele>1072.000000</ele>
        <time>2019-05-09T07:11:08Z</time>
      </trkpt>
      <trkpt lat="37.310703" lon="-3.097930">
        <ele>1072.000000</ele>
        <time>2019-05-09T07:11:09Z</time>
      </trkpt>
      <trkpt lat="37.310717" lon="-3.097919">
        <ele>1072.000000</ele>
        <time>2019-05-09T07:11:10Z</time>
      </trkpt>
      <trkpt lat="37.310728" lon="-3.097908">
        <ele>1072.000000</ele>
        <time>2019-05-09T07:11:11Z</time>
      </trkpt>
      <trkpt lat="37.310742" lon="-3.097897">
        <ele>1072.000000</ele>
        <time>2019-05-09T07:11:12Z</time>
      </trkpt>
      <trkpt lat="37.310755" lon="-3.097885">
        <ele>1072.000000</ele>
        <time>2019-05-09T07:11:13Z</time>
      </trkpt>
      <trkpt lat="37.310767" lon="-3.097875">
        <ele>1072.000000</ele>
        <time>2019-05-09T07:11:14Z</time>
      </trkpt>
      <trkpt lat="37.310778" lon="-3.097865">
        <ele>1072.000000</ele>
        <time>2019-05-09T07:11:15Z</time>
      </trkpt>
      <trkpt lat="37.310790" lon="-3.097856">
        <ele>1072.000000</ele>
        <time>2019-05-09T07:11:16Z</time>
      </trkpt>
      <trkpt lat="37.310802" lon="-3.097845">
        <ele>1072.000000</ele>
        <time>2019-05-09T07:11:17Z</time>
      </trkpt>
      <trkpt lat="37.310813" lon="-3.097834">
        <ele>1072.000000</ele>
        <time>2019-05-09T07:11:18Z</time>
      </trkpt>
      <trkpt lat="37.310827" lon="-3.097821">
        <ele>1072.000000</ele>
        <time>2019-05-09T07:11:19Z</time>
      </trkpt>
      <trkpt lat="37.310840" lon="-3.097808">
        <ele>1072.000000</ele>
        <time>2019-05-09T07:11:20Z</time>
      </trkpt>
      <trkpt lat="37.310850" lon="-3.097800">
        <ele>1072.000000</ele>
        <time>2019-05-09T07:11:21Z</time>
      </trkpt>
      <trkpt lat="37.310862" lon="-3.097789">
        <ele>1072.000000</ele>
        <time>2019-05-09T07:11:22Z</time>
      </trkpt>
      <trkpt lat="37.310875" lon="-3.097777">
        <ele>1072.000000</ele>
        <time>2019-05-09T07:11:23Z</time>
      </trkpt>
      <trkpt lat="37.310888" lon="-3.097764">
        <ele>1072.000000</ele>
        <time>2019-05-09T07:11:24Z</time>
      </trkpt>
      <trkpt lat="37.310905" lon="-3.097750">
        <ele>1072.000000</ele>
        <time>2019-05-09T07:11:25Z</time>
      </trkpt>
      <trkpt lat="37.310920" lon="-3.097738">
        <ele>1072.000000</ele>
        <time>2019-05-09T07:11:26Z</time>
      </trkpt>
      <trkpt lat="37.310937" lon="-3.097724">
        <ele>1072.000000</ele>
        <time>2019-05-09T07:11:27Z</time>
      </trkpt>
      <trkpt lat="37.310953" lon="-3.097712">
        <ele>1072.000000</ele>
        <time>2019-05-09T07:11:28Z</time>
      </trkpt>
      <trkpt lat="37.310972" lon="-3.097699">
        <ele>1072.000000</ele>
        <time>2019-05-09T07:11:29Z</time>
      </trkpt>
      <trkpt lat="37.310987" lon="-3.097689">
        <ele>1073.000000</ele>
        <time>2019-05-09T07:11:30Z</time>
      </trkpt>
      <trkpt lat="37.311003" lon="-3.097677">
        <ele>1073.000000</ele>
        <time>2019-05-09T07:11:31Z</time>
      </trkpt>
      <trkpt lat="37.311017" lon="-3.097668">
        <ele>1073.000000</ele>
        <time>2019-05-09T07:11:32Z</time>
      </trkpt>
      <trkpt lat="37.311032" lon="-3.097657">
        <ele>1073.000000</ele>
        <time>2019-05-09T07:11:33Z</time>
      </trkpt>
      <trkpt lat="37.311043" lon="-3.097649">
        <ele>1073.000000</ele>
        <time>2019-05-09T07:11:34Z</time>
      </trkpt>
      <trkpt lat="37.311052" lon="-3.097643">
        <ele>1073.000000</ele>
        <time>2019-05-09T07:11:35Z</time>
      </trkpt>
      <trkpt lat="37.311063" lon="-3.097635">
        <ele>1073.000000</ele>
        <time>2019-05-09T07:11:36Z</time>
      </trkpt>
      <trkpt lat="37.311070" lon="-3.097629">
        <ele>1073.000000</ele>
        <time>2019-05-09T07:11:37Z</time>
      </trkpt>
      <trkpt lat="37.311080" lon="-3.097621">
        <ele>1073.000000</ele>
        <time>2019-05-09T07:11:38Z</time>
      </trkpt>
      <trkpt lat="37.311092" lon="-3.097611">
        <ele>1073.000000</ele>
        <time>2019-05-09T07:11:39Z</time>
      </trkpt>
      <trkpt lat="37.311105" lon="-3.097599">
        <ele>1073.000000</ele>
        <time>2019-05-09T07:11:40Z</time>
      </trkpt>
      <trkpt lat="37.311117" lon="-3.097589">
        <ele>1073.000000</ele>
        <time>2019-05-09T07:11:41Z</time>
      </trkpt>
      <trkpt lat="37.311125" lon="-3.097582">
        <ele>1073.000000</ele>
        <time>2019-05-09T07:11:42Z</time>
      </trkpt>
      <trkpt lat="37.311137" lon="-3.097572">
        <ele>1073.000000</ele>
        <time>2019-05-09T07:11:43Z</time>
      </trkpt>
      <trkpt lat="37.311147" lon="-3.097562">
        <ele>1073.000000</ele>
        <time>2019-05-09T07:11:44Z</time>
      </trkpt>
      <trkpt lat="37.311157" lon="-3.097554">
        <ele>1073.000000</ele>
        <time>2019-05-09T07:11:45Z</time>
      </trkpt>
      <trkpt lat="37.311163" lon="-3.097546">
        <ele>1073.000000</ele>
        <time>2019-05-09T07:11:46Z</time>
      </trkpt>
      <trkpt lat="37.311173" lon="-3.097536">
        <ele>1073.000000</ele>
        <time>2019-05-09T07:11:47Z</time>
      </trkpt>
      <trkpt lat="37.311185" lon="-3.097524">
        <ele>1073.000000</ele>
        <time>2019-05-09T07:11:48Z</time>
      </trkpt>
      <trkpt lat="37.311198" lon="-3.097512">
        <ele>1073.000000</ele>
        <time>2019-05-09T07:11:49Z</time>
      </trkpt>
      <trkpt lat="37.311212" lon="-3.097499">
        <ele>1073.000000</ele>
        <time>2019-05-09T07:11:50Z</time>
      </trkpt>
      <trkpt lat="37.311222" lon="-3.097489">
        <ele>1073.000000</ele>
        <time>2019-05-09T07:11:51Z</time>
      </trkpt>
      <trkpt lat="37.311233" lon="-3.097477">
        <ele>1073.000000</ele>
        <time>2019-05-09T07:11:52Z</time>
      </trkpt>
      <trkpt lat="37.311245" lon="-3.097465">
        <ele>1073.000000</ele>
        <time>2019-05-09T07:11:53Z</time>
      </trkpt>
      <trkpt lat="37.311257" lon="-3.097454">
        <ele>1073.000000</ele>
        <time>2019-05-09T07:11:54Z</time>
      </trkpt>
      <trkpt lat="37.311267" lon="-3.097444">
        <ele>1073.000000</ele>
        <time>2019-05-09T07:11:55Z</time>
      </trkpt>
      <trkpt lat="37.311278" lon="-3.097431">
        <ele>1073.000000</ele>
        <time>2019-05-09T07:11:56Z</time>
      </trkpt>
      <trkpt lat="37.311288" lon="-3.097419">
        <ele>1073.000000</ele>
        <time>2019-05-09T07:12:00Z</time>
      </trkpt>
      <trkpt lat="37.311303" lon="-3.097404">
        <ele>1073.000000</ele>
        <time>2019-05-09T07:12:01Z</time>
      </trkpt>
      <trkpt lat="37.311317" lon="-3.097390">
        <ele>1073.000000</ele>
        <time>2019-05-09T07:12:02Z</time>
      </trkpt>
      <trkpt lat="37.311328" lon="-3.097377">
        <ele>1073.000000</ele>
        <time>2019-05-09T07:12:03Z</time>
      </trkpt>
      <trkpt lat="37.311340" lon="-3.097364">
        <ele>1073.000000</ele>
        <time>2019-05-09T07:12:04Z</time>
      </trkpt>
      <trkpt lat="37.311350" lon="-3.097352">
        <ele>1073.000000</ele>
        <time>2019-05-09T07:12:05Z</time>
      </trkpt>
      <trkpt lat="37.311358" lon="-3.097340">
        <ele>1073.000000</ele>
        <time>2019-05-09T07:12:06Z</time>
      </trkpt>
      <trkpt lat="37.311368" lon="-3.097328">
        <ele>1073.000000</ele>
        <time>2019-05-09T07:12:08Z</time>
      </trkpt>
      <trkpt lat="37.311378" lon="-3.097315">
        <ele>1073.000000</ele>
        <time>2019-05-09T07:12:08Z</time>
      </trkpt>
      <trkpt lat="37.311390" lon="-3.097300">
        <ele>1073.000000</ele>
        <time>2019-05-09T07:12:09Z</time>
      </trkpt>
      <trkpt lat="37.311402" lon="-3.097286">
        <ele>1073.000000</ele>
        <time>2019-05-09T07:12:10Z</time>
      </trkpt>
      <trkpt lat="37.311415" lon="-3.097270">
        <ele>1073.000000</ele>
        <time>2019-05-09T07:12:11Z</time>
      </trkpt>
      <trkpt lat="37.311428" lon="-3.097254">
        <ele>1073.000000</ele>
        <time>2019-05-09T07:12:12Z</time>
      </trkpt>
      <trkpt lat="37.311440" lon="-3.097240">
        <ele>1074.000000</ele>
        <time>2019-05-09T07:12:13Z</time>
      </trkpt>
      <trkpt lat="37.311453" lon="-3.097223">
        <ele>1074.000000</ele>
        <time>2019-05-09T07:12:14Z</time>
      </trkpt>
      <trkpt lat="37.311465" lon="-3.097209">
        <ele>1074.000000</ele>
        <time>2019-05-09T07:12:15Z</time>
      </trkpt>
      <trkpt lat="37.311477" lon="-3.097195">
        <ele>1074.000000</ele>
        <time>2019-05-09T07:12:16Z</time>
      </trkpt>
      <trkpt lat="37.311490" lon="-3.097180">
        <ele>1074.000000</ele>
        <time>2019-05-09T07:12:17Z</time>
      </trkpt>
      <trkpt lat="37.311502" lon="-3.097165">
        <ele>1074.000000</ele>
        <time>2019-05-09T07:12:18Z</time>
      </trkpt>
      <trkpt lat="37.311515" lon="-3.097151">
        <ele>1074.000000</ele>
        <time>2019-05-09T07:12:19Z</time>
      </trkpt>
      <trkpt lat="37.311528" lon="-3.097138">
        <ele>1074.000000</ele>
        <time>2019-05-09T07:12:20Z</time>
      </trkpt>
      <trkpt lat="37.311540" lon="-3.097127">
        <ele>1074.000000</ele>
        <time>2019-05-09T07:12:21Z</time>
      </trkpt>
      <trkpt lat="37.311550" lon="-3.097118">
        <ele>1074.000000</ele>
        <time>2019-05-09T07:12:22Z</time>
      </trkpt>
      <trkpt lat="37.311562" lon="-3.097109">
        <ele>1074.000000</ele>
        <time>2019-05-09T07:12:23Z</time>
      </trkpt>
      <trkpt lat="37.311572" lon="-3.097100">
        <ele>1074.000000</ele>
        <time>2019-05-09T07:12:24Z</time>
      </trkpt>
      <trkpt lat="37.311580" lon="-3.097093">
        <ele>1074.000000</ele>
        <time>2019-05-09T07:12:25Z</time>
      </trkpt>
      <trkpt lat="37.311590" lon="-3.097085">
        <ele>1074.000000</ele>
        <time>2019-05-09T07:12:27Z</time>
      </trkpt>
      <trkpt lat="37.311603" lon="-3.097073">
        <ele>1074.000000</ele>
        <time>2019-05-09T07:12:28Z</time>
      </trkpt>
      <trkpt lat="37.311615" lon="-3.097063">
        <ele>1074.000000</ele>
        <time>2019-05-09T07:12:28Z</time>
      </trkpt>
      <trkpt lat="37.311625" lon="-3.097055">
        <ele>1074.000000</ele>
        <time>2019-05-09T07:12:29Z</time>
      </trkpt>
      <trkpt lat="37.311637" lon="-3.097045">
        <ele>1074.000000</ele>
        <time>2019-05-09T07:12:31Z</time>
      </trkpt>
      <trkpt lat="37.311647" lon="-3.097037">
        <ele>1074.000000</ele>
        <time>2019-05-09T07:12:31Z</time>
      </trkpt>
      <trkpt lat="37.311655" lon="-3.097029">
        <ele>1074.000000</ele>
        <time>2019-05-09T07:12:32Z</time>
      </trkpt>
      <trkpt lat="37.311667" lon="-3.097019">
        <ele>1074.000000</ele>
        <time>2019-05-09T07:12:33Z</time>
      </trkpt>
      <trkpt lat="37.311677" lon="-3.097010">
        <ele>1074.000000</ele>
        <time>2019-05-09T07:12:34Z</time>
      </trkpt>
      <trkpt lat="37.311687" lon="-3.097001">
        <ele>1074.000000</ele>
        <time>2019-05-09T07:12:35Z</time>
      </trkpt>
      <trkpt lat="37.311697" lon="-3.096992">
        <ele>1074.000000</ele>
        <time>2019-05-09T07:12:36Z</time>
      </trkpt>
      <trkpt lat="37.311707" lon="-3.096983">
        <ele>1074.000000</ele>
        <time>2019-05-09T07:12:37Z</time>
      </trkpt>
      <trkpt lat="37.311718" lon="-3.096972">
        <ele>1074.000000</ele>
        <time>2019-05-09T07:12:38Z</time>
      </trkpt>
      <trkpt lat="37.311730" lon="-3.096962">
        <ele>1074.000000</ele>
        <time>2019-05-09T07:12:39Z</time>
      </trkpt>
      <trkpt lat="37.311738" lon="-3.096955">
        <ele>1074.000000</ele>
        <time>2019-05-09T07:12:40Z</time>
      </trkpt>
      <trkpt lat="37.311747" lon="-3.096946">
        <ele>1074.000000</ele>
        <time>2019-05-09T07:12:41Z</time>
      </trkpt>
      <trkpt lat="37.311757" lon="-3.096937">
        <ele>1074.000000</ele>
        <time>2019-05-09T07:12:42Z</time>
      </trkpt>
      <trkpt lat="37.311767" lon="-3.096929">
        <ele>1074.000000</ele>
        <time>2019-05-09T07:12:43Z</time>
      </trkpt>
      <trkpt lat="37.311777" lon="-3.096919">
        <ele>1074.000000</ele>
        <time>2019-05-09T07:12:44Z</time>
      </trkpt>
      <trkpt lat="37.311788" lon="-3.096907">
        <ele>1074.000000</ele>
        <time>2019-05-09T07:12:45Z</time>
      </trkpt>
      <trkpt lat="37.311798" lon="-3.096896">
        <ele>1074.000000</ele>
        <time>2019-05-09T07:12:46Z</time>
      </trkpt>
      <trkpt lat="37.311810" lon="-3.096884">
        <ele>1074.000000</ele>
        <time>2019-05-09T07:12:47Z</time>
      </trkpt>
      <trkpt lat="37.311822" lon="-3.096871">
        <ele>1074.000000</ele>
        <time>2019-05-09T07:12:48Z</time>
      </trkpt>
      <trkpt lat="37.311832" lon="-3.096832">
        <ele>1074.000000</ele>
        <time>2019-05-09T07:12:49Z</time>
      </trkpt>
      <trkpt lat="37.311842" lon="-3.096818">
        <ele>1074.000000</ele>
        <time>2019-05-09T07:12:50Z</time>
      </trkpt>
      <trkpt lat="37.311851" lon="-3.096800">
        <ele>1074.000000</ele>
        <time>2019-05-09T07:12:51Z</time>
      </trkpt>
      <trkpt lat="37.311859" lon="-3.096787">
        <ele>1074.000000</ele>
        <time>2019-05-09T07:12:52Z</time>
      </trkpt>
      <trkpt lat="37.311871" lon="-3.096773">
        <ele>1074.000000</ele>
        <time>2019-05-09T07:12:53Z</time>
      </trkpt>
      <trkpt lat="37.311881" lon="-3.096758">
        <ele>1074.000000</ele>
        <time>2019-05-09T07:12:55Z</time>
      </trkpt>
      <trkpt lat="37.311892" lon="-3.096743">
        <ele>1074.000000</ele>
        <time>2019-05-09T07:12:56Z</time>
      </trkpt>
      <trkpt lat="37.311901" lon="-3.096732">
        <ele>1074.000000</ele>
        <time>2019-05-09T07:12:57Z</time>
      </trkpt>
      <trkpt lat="37.311913" lon="-3.096715">
        <ele>1074.000000</ele>
        <time>2019-05-09T07:12:58Z</time>
      </trkpt>
      <trkpt lat="37.311923" lon="-3.096700">
        <ele>1074.000000</ele>
        <time>2019-05-09T07:12:58Z</time>
      </trkpt>
      <trkpt lat="37.311935" lon="-3.096683">
        <ele>1074.000000</ele>
        <time>2019-05-09T07:13:00Z</time>
      </trkpt>
      <trkpt lat="37.311948" lon="-3.096673">
        <ele>1074.000000</ele>
        <time>2019-05-09T07:13:00Z</time>
      </trkpt>
      <trkpt lat="37.311958" lon="-3.096660">
        <ele>1074.000000</ele>
        <time>2019-05-09T07:13:01Z</time>
      </trkpt>
      <trkpt lat="37.311972" lon="-3.096649">
        <ele>1074.000000</ele>
        <time>2019-05-09T07:13:02Z</time>
      </trkpt>
      <trkpt lat="37.311983" lon="-3.096638">
        <ele>1074.000000</ele>
        <time>2019-05-09T07:13:03Z</time>
      </trkpt>
      <trkpt lat="37.311993" lon="-3.096627">
        <ele>1074.000000</ele>
        <time>2019-05-09T07:13:04Z</time>
      </trkpt>
      <trkpt lat="37.312005" lon="-3.096616">
        <ele>1074.000000</ele>
        <time>2019-05-09T07:13:05Z</time>
      </trkpt>
      <trkpt lat="37.312017" lon="-3.096605">
        <ele>1074.000000</ele>
        <time>2019-05-09T07:13:06Z</time>
      </trkpt>
      <trkpt lat="37.312030" lon="-3.096594">
        <ele>1074.000000</ele>
        <time>2019-05-09T07:13:07Z</time>
      </trkpt>
      <trkpt lat="37.312040" lon="-3.096584">
        <ele>1074.000000</ele>
        <time>2019-05-09T07:13:08Z</time>
      </trkpt>
      <trkpt lat="37.312050" lon="-3.096576">
        <ele>1074.000000</ele>
        <time>2019-05-09T07:13:09Z</time>
      </trkpt>
      <trkpt lat="37.312062" lon="-3.096564">
        <ele>1074.000000</ele>
        <time>2019-05-09T07:13:10Z</time>
      </trkpt>
      <trkpt lat="37.312075" lon="-3.096552">
        <ele>1074.000000</ele>
        <time>2019-05-09T07:13:11Z</time>
      </trkpt>
      <trkpt lat="37.312087" lon="-3.096540">
        <ele>1074.000000</ele>
        <time>2019-05-09T07:13:12Z</time>
      </trkpt>
      <trkpt lat="37.312102" lon="-3.096527">
        <ele>1074.000000</ele>
        <time>2019-05-09T07:13:13Z</time>
      </trkpt>
      <trkpt lat="37.312117" lon="-3.096516">
        <ele>1074.000000</ele>
        <time>2019-05-09T07:13:14Z</time>
      </trkpt>
      <trkpt lat="37.312133" lon="-3.096507">
        <ele>1074.000000</ele>
        <time>2019-05-09T07:13:16Z</time>
      </trkpt>
      <trkpt lat="37.312148" lon="-3.096501">
        <ele>1074.000000</ele>
        <time>2019-05-09T07:13:17Z</time>
      </trkpt>
      <trkpt lat="37.312162" lon="-3.096496">
        <ele>1074.000000</ele>
        <time>2019-05-09T07:13:18Z</time>
      </trkpt>
      <trkpt lat="37.312175" lon="-3.096494">
        <ele>1074.000000</ele>
        <time>2019-05-09T07:13:19Z</time>
      </trkpt>
      <trkpt lat="37.312190" lon="-3.096490">
        <ele>1074.000000</ele>
        <time>2019-05-09T07:13:20Z</time>
      </trkpt>
      <trkpt lat="37.312205" lon="-3.096523">
        <ele>1074.000000</ele>
        <time>2019-05-09T07:13:20Z</time>
      </trkpt>
      <trkpt lat="37.312222" lon="-3.096523">
        <ele>1074.000000</ele>
        <time>2019-05-09T07:13:21Z</time>
      </trkpt>
      <trkpt lat="37.312240" lon="-3.096522">
        <ele>1074.000000</ele>
        <time>2019-05-09T07:13:22Z</time>
      </trkpt>
      <trkpt lat="37.312257" lon="-3.096520">
        <ele>1074.000000</ele>
        <time>2019-05-09T07:13:23Z</time>
      </trkpt>
      <trkpt lat="37.312273" lon="-3.096521">
        <ele>1074.000000</ele>
        <time>2019-05-09T07:13:24Z</time>
      </trkpt>
      <trkpt lat="37.312290" lon="-3.096520">
        <ele>1074.000000</ele>
        <time>2019-05-09T07:13:25Z</time>
      </trkpt>
      <trkpt lat="37.312307" lon="-3.096520">
        <ele>1074.000000</ele>
        <time>2019-05-09T07:13:26Z</time>
      </trkpt>
      <trkpt lat="37.312320" lon="-3.096518">
        <ele>1074.000000</ele>
        <time>2019-05-09T07:13:27Z</time>
      </trkpt>
      <trkpt lat="37.312335" lon="-3.096516">
        <ele>1074.000000</ele>
        <time>2019-05-09T07:13:28Z</time>
      </trkpt>
      <trkpt lat="37.312350" lon="-3.096514">
        <ele>1074.000000</ele>
        <time>2019-05-09T07:13:29Z</time>
      </trkpt>
      <trkpt lat="37.312365" lon="-3.096512">
        <ele>1074.000000</ele>
        <time>2019-05-09T07:13:30Z</time>
      </trkpt>
      <trkpt lat="37.312378" lon="-3.096510">
        <ele>1074.000000</ele>
        <time>2019-05-09T07:13:31Z</time>
      </trkpt>
      <trkpt lat="37.312390" lon="-3.096508">
        <ele>1074.000000</ele>
        <time>2019-05-09T07:13:32Z</time>
      </trkpt>
      <trkpt lat="37.312403" lon="-3.096506">
        <ele>1074.000000</ele>
        <time>2019-05-09T07:13:33Z</time>
      </trkpt>
      <trkpt lat="37.312418" lon="-3.096502">
        <ele>1074.000000</ele>
        <time>2019-05-09T07:13:34Z</time>
      </trkpt>
      <trkpt lat="37.312433" lon="-3.096498">
        <ele>1074.000000</ele>
        <time>2019-05-09T07:13:35Z</time>
      </trkpt>
      <trkpt lat="37.312450" lon="-3.096494">
        <ele>1074.000000</ele>
        <time>2019-05-09T07:13:36Z</time>
      </trkpt>
      <trkpt lat="37.312463" lon="-3.096490">
        <ele>1074.000000</ele>
        <time>2019-05-09T07:13:37Z</time>
      </trkpt>
      <trkpt lat="37.312478" lon="-3.096485">
        <ele>1074.000000</ele>
        <time>2019-05-09T07:13:39Z</time>
      </trkpt>
      <trkpt lat="37.312493" lon="-3.096481">
        <ele>1074.000000</ele>
        <time>2019-05-09T07:13:39Z</time>
      </trkpt>
      <trkpt lat="37.312507" lon="-3.096477">
        <ele>1074.000000</ele>
        <time>2019-05-09T07:13:40Z</time>
      </trkpt>
      <trkpt lat="37.312522" lon="-3.096474">
        <ele>1074.000000</ele>
        <time>2019-05-09T07:13:41Z</time>
      </trkpt>
      <trkpt lat="37.312537" lon="-3.096470">
        <ele>1074.000000</ele>
        <time>2019-05-09T07:13:42Z</time>
      </trkpt>
      <trkpt lat="37.312553" lon="-3.096466">
        <ele>1074.000000</ele>
        <time>2019-05-09T07:13:43Z</time>
      </trkpt>
      <trkpt lat="37.312570" lon="-3.096462">
        <ele>1074.000000</ele>
        <time>2019-05-09T07:13:44Z</time>
      </trkpt>
      <trkpt lat="37.312585" lon="-3.096459">
        <ele>1074.000000</ele>
        <time>2019-05-09T07:13:45Z</time>
      </trkpt>
      <trkpt lat="37.312600" lon="-3.096456">
        <ele>1074.000000</ele>
        <time>2019-05-09T07:13:46Z</time>
      </trkpt>
      <trkpt lat="37.312615" lon="-3.096453">
        <ele>1074.000000</ele>
        <time>2019-05-09T07:13:47Z</time>
      </trkpt>
      <trkpt lat="37.312630" lon="-3.096451">
        <ele>1074.000000</ele>
        <time>2019-05-09T07:13:48Z</time>
      </trkpt>
      <trkpt lat="37.312645" lon="-3.096449">
        <ele>1074.000000</ele>
        <time>2019-05-09T07:13:49Z</time>
      </trkpt>
      <trkpt lat="37.312658" lon="-3.096449">
        <ele>1074.000000</ele>
        <time>2019-05-09T07:13:50Z</time>
      </trkpt>
      <trkpt lat="37.312673" lon="-3.096448">
        <ele>1074.000000</ele>
        <time>2019-05-09T07:13:51Z</time>
      </trkpt>
      <trkpt lat="37.312687" lon="-3.096450">
        <ele>1074.000000</ele>
        <time>2019-05-09T07:13:52Z</time>
      </trkpt>
      <trkpt lat="37.312702" lon="-3.096451">
        <ele>1074.000000</ele>
        <time>2019-05-09T07:13:53Z</time>
      </trkpt>
      <trkpt lat="37.312715" lon="-3.096453">
        <ele>1074.000000</ele>
        <time>2019-05-09T07:13:54Z</time>
      </trkpt>
      <trkpt lat="37.312728" lon="-3.096456">
        <ele>1074.000000</ele>
        <time>2019-05-09T07:13:55Z</time>
      </trkpt>
      <trkpt lat="37.312742" lon="-3.096459">
        <ele>1074.000000</ele>
        <time>2019-05-09T07:13:56Z</time>
      </trkpt>
      <trkpt lat="37.312753" lon="-3.096464">
        <ele>1074.000000</ele>
        <time>2019-05-09T07:13:57Z</time>
      </trkpt>
      <trkpt lat="37.312767" lon="-3.096468">
        <ele>1074.000000</ele>
        <time>2019-05-09T07:13:58Z</time>
      </trkpt>
      <trkpt lat="37.312782" lon="-3.096474">
        <ele>1074.000000</ele>
        <time>2019-05-09T07:13:59Z</time>
      </trkpt>
      <trkpt lat="37.312798" lon="-3.096480">
        <ele>1074.000000</ele>
        <time>2019-05-09T07:14:00Z</time>
      </trkpt>
      <trkpt lat="37.312810" lon="-3.096487">
        <ele>1074.000000</ele>
        <time>2019-05-09T07:14:01Z</time>
      </trkpt>
      <trkpt lat="37.312822" lon="-3.096493">
        <ele>1074.000000</ele>
        <time>2019-05-09T07:14:02Z</time>
      </trkpt>
      <trkpt lat="37.312835" lon="-3.096498">
        <ele>1074.000000</ele>
        <time>2019-05-09T07:14:04Z</time>
      </trkpt>
      <trkpt lat="37.312848" lon="-3.096506">
        <ele>1074.000000</ele>
        <time>2019-05-09T07:14:04Z</time>
      </trkpt>
      <trkpt lat="37.312862" lon="-3.096514">
        <ele>1074.000000</ele>
        <time>2019-05-09T07:14:05Z</time>
      </trkpt>
      <trkpt lat="37.312877" lon="-3.096521">
        <ele>1074.000000</ele>
        <time>2019-05-09T07:14:06Z</time>
      </trkpt>
      <trkpt lat="37.312890" lon="-3.096529">
        <ele>1074.000000</ele>
        <time>2019-05-09T07:14:07Z</time>
      </trkpt>
      <trkpt lat="37.312903" lon="-3.096535">
        <ele>1074.000000</ele>
        <time>2019-05-09T07:14:08Z</time>
      </trkpt>
      <trkpt lat="37.312918" lon="-3.096543">
        <ele>1074.000000</ele>
        <time>2019-05-09T07:14:09Z</time>
      </trkpt>
      <trkpt lat="37.312932" lon="-3.096552">
        <ele>1074.000000</ele>
        <time>2019-05-09T07:14:10Z</time>
      </trkpt>
      <trkpt lat="37.312947" lon="-3.096563">
        <ele>1074.000000</ele>
        <time>2019-05-09T07:14:11Z</time>
      </trkpt>
      <trkpt lat="37.312962" lon="-3.096572">
        <ele>1074.000000</ele>
        <time>2019-05-09T07:14:12Z</time>
      </trkpt>
      <trkpt lat="37.312978" lon="-3.096583">
        <ele>1074.000000</ele>
        <time>2019-05-09T07:14:13Z</time>
      </trkpt>
      <trkpt lat="37.312993" lon="-3.096594">
        <ele>1074.000000</ele>
        <time>2019-05-09T07:14:14Z</time>
      </trkpt>
      <trkpt lat="37.313008" lon="-3.096604">
        <ele>1074.000000</ele>
        <time>2019-05-09T07:14:15Z</time>
      </trkpt>
      <trkpt lat="37.313022" lon="-3.096614">
        <ele>1073.000000</ele>
        <time>2019-05-09T07:14:16Z</time>
      </trkpt>
      <trkpt lat="37.313037" lon="-3.096626">
        <ele>1073.000000</ele>
        <time>2019-05-09T07:14:17Z</time>
      </trkpt>
      <trkpt lat="37.313050" lon="-3.096636">
        <ele>1073.000000</ele>
        <time>2019-05-09T07:14:18Z</time>
      </trkpt>
      <trkpt lat="37.313065" lon="-3.096648">
        <ele>1073.000000</ele>
        <time>2019-05-09T07:14:19Z</time>
      </trkpt>
      <trkpt lat="37.313077" lon="-3.096659">
        <ele>1073.000000</ele>
        <time>2019-05-09T07:14:20Z</time>
      </trkpt>
      <trkpt lat="37.313092" lon="-3.096671">
        <ele>1073.000000</ele>
        <time>2019-05-09T07:14:21Z</time>
      </trkpt>
      <trkpt lat="37.313102" lon="-3.096682">
        <ele>1073.000000</ele>
        <time>2019-05-09T07:14:22Z</time>
      </trkpt>
      <trkpt lat="37.313110" lon="-3.096693">
        <ele>1073.000000</ele>
        <time>2019-05-09T07:14:24Z</time>
      </trkpt>
      <trkpt lat="37.313120" lon="-3.096704">
        <ele>1073.000000</ele>
        <time>2019-05-09T07:14:24Z</time>
      </trkpt>
      <trkpt lat="37.313130" lon="-3.096716">
        <ele>1073.000000</ele>
        <time>2019-05-09T07:14:24Z</time>
      </trkpt>
      <trkpt lat="37.313140" lon="-3.096728">
        <ele>1073.000000</ele>
        <time>2019-05-09T07:14:25Z</time>
      </trkpt>
      <trkpt lat="37.313150" lon="-3.096738">
        <ele>1073.000000</ele>
        <time>2019-05-09T07:14:26Z</time>
      </trkpt>
      <trkpt lat="37.313160" lon="-3.096750">
        <ele>1073.000000</ele>
        <time>2019-05-09T07:14:27Z</time>
      </trkpt>
      <trkpt lat="37.313172" lon="-3.096763">
        <ele>1073.000000</ele>
        <time>2019-05-09T07:14:28Z</time>
      </trkpt>
      <trkpt lat="37.313182" lon="-3.096775">
        <ele>1073.000000</ele>
        <time>2019-05-09T07:14:29Z</time>
      </trkpt>
      <trkpt lat="37.313192" lon="-3.096787">
        <ele>1073.000000</ele>
        <time>2019-05-09T07:14:30Z</time>
      </trkpt>
      <trkpt lat="37.313198" lon="-3.096797">
        <ele>1073.000000</ele>
        <time>2019-05-09T07:14:31Z</time>
      </trkpt>
      <trkpt lat="37.313208" lon="-3.096809">
        <ele>1073.000000</ele>
        <time>2019-05-09T07:14:32Z</time>
      </trkpt>
      <trkpt lat="37.313220" lon="-3.096822">
        <ele>1073.000000</ele>
        <time>2019-05-09T07:14:33Z</time>
      </trkpt>
      <trkpt lat="37.313232" lon="-3.096834">
        <ele>1073.000000</ele>
        <time>2019-05-09T07:14:34Z</time>
      </trkpt>
      <trkpt lat="37.313245" lon="-3.096848">
        <ele>1073.000000</ele>
        <time>2019-05-09T07:14:35Z</time>
      </trkpt>
      <trkpt lat="37.313257" lon="-3.096861">
        <ele>1073.000000</ele>
        <time>2019-05-09T07:14:36Z</time>
      </trkpt>
      <trkpt lat="37.313268" lon="-3.096873">
        <ele>1073.000000</ele>
        <time>2019-05-09T07:14:37Z</time>
      </trkpt>
      <trkpt lat="37.313282" lon="-3.096886">
        <ele>1073.000000</ele>
        <time>2019-05-09T07:14:38Z</time>
      </trkpt>
      <trkpt lat="37.313295" lon="-3.096900">
        <ele>1073.000000</ele>
        <time>2019-05-09T07:14:39Z</time>
      </trkpt>
      <trkpt lat="37.313305" lon="-3.096911">
        <ele>1073.000000</ele>
        <time>2019-05-09T07:14:40Z</time>
      </trkpt>
      <trkpt lat="37.313318" lon="-3.096925">
        <ele>1073.000000</ele>
        <time>2019-05-09T07:14:41Z</time>
      </trkpt>
      <trkpt lat="37.313332" lon="-3.096939">
        <ele>1073.000000</ele>
        <time>2019-05-09T07:14:42Z</time>
      </trkpt>
      <trkpt lat="37.313343" lon="-3.096951">
        <ele>1073.000000</ele>
        <time>2019-05-09T07:14:43Z</time>
      </trkpt>
      <trkpt lat="37.313355" lon="-3.096964">
        <ele>1073.000000</ele>
        <time>2019-05-09T07:14:44Z</time>
      </trkpt>
      <trkpt lat="37.313367" lon="-3.096977">
        <ele>1073.000000</ele>
        <time>2019-05-09T07:14:45Z</time>
      </trkpt>
      <trkpt lat="37.313380" lon="-3.096992">
        <ele>1072.000000</ele>
        <time>2019-05-09T07:14:46Z</time>
      </trkpt>
      <trkpt lat="37.313390" lon="-3.097004">
        <ele>1072.000000</ele>
        <time>2019-05-09T07:14:47Z</time>
      </trkpt>
      <trkpt lat="37.313402" lon="-3.097019">
        <ele>1072.000000</ele>
        <time>2019-05-09T07:14:49Z</time>
      </trkpt>
      <trkpt lat="37.313412" lon="-3.097031">
        <ele>1072.000000</ele>
        <time>2019-05-09T07:14:49Z</time>
      </trkpt>
      <trkpt lat="37.313428" lon="-3.097051">
        <ele>1072.000000</ele>
        <time>2019-05-09T07:14:50Z</time>
      </trkpt>
      <trkpt lat="37.313438" lon="-3.097065">
        <ele>1072.000000</ele>
        <time>2019-05-09T07:14:52Z</time>
      </trkpt>
      <trkpt lat="37.313445" lon="-3.097076">
        <ele>1072.000000</ele>
        <time>2019-05-09T07:14:53Z</time>
      </trkpt>
      <trkpt lat="37.313455" lon="-3.097133">
        <ele>1072.000000</ele>
        <time>2019-05-09T07:14:54Z</time>
      </trkpt>
      <trkpt lat="37.313462" lon="-3.097147">
        <ele>1072.000000</ele>
        <time>2019-05-09T07:14:54Z</time>
      </trkpt>
      <trkpt lat="37.313469" lon="-3.097158">
        <ele>1072.000000</ele>
        <time>2019-05-09T07:14:55Z</time>
      </trkpt>
      <trkpt lat="37.313477" lon="-3.097173">
        <ele>1071.000000</ele>
        <time>2019-05-09T07:14:56Z</time>
      </trkpt>
      <trkpt lat="37.313484" lon="-3.097190">
        <ele>1071.000000</ele>
        <time>2019-05-09T07:14:57Z</time>
      </trkpt>
      <trkpt lat="37.313492" lon="-3.097208">
        <ele>1071.000000</ele>
        <time>2019-05-09T07:14:58Z</time>
      </trkpt>
      <trkpt lat="37.313500" lon="-3.097227">
        <ele>1071.000000</ele>
        <time>2019-05-09T07:14:59Z</time>
      </trkpt>
      <trkpt lat="37.313506" lon="-3.097245">
        <ele>1071.000000</ele>
        <time>2019-05-09T07:15:00Z</time>
      </trkpt>
      <trkpt lat="37.313513" lon="-3.097265">
        <ele>1071.000000</ele>
        <time>2019-05-09T07:15:01Z</time>
      </trkpt>
      <trkpt lat="37.313519" lon="-3.097283">
        <ele>1071.000000</ele>
        <time>2019-05-09T07:15:02Z</time>
      </trkpt>
      <trkpt lat="37.313527" lon="-3.097305">
        <ele>1071.000000</ele>
        <time>2019-05-09T07:15:03Z</time>
      </trkpt>
      <trkpt lat="37.313533" lon="-3.097322">
        <ele>1071.000000</ele>
        <time>2019-05-09T07:15:04Z</time>
      </trkpt>
      <trkpt lat="37.313539" lon="-3.097338">
        <ele>1071.000000</ele>
        <time>2019-05-09T07:15:05Z</time>
      </trkpt>
      <trkpt lat="37.313545" lon="-3.097353">
        <ele>1071.000000</ele>
        <time>2019-05-09T07:15:06Z</time>
      </trkpt>
      <trkpt lat="37.313552" lon="-3.097370">
        <ele>1071.000000</ele>
        <time>2019-05-09T07:15:07Z</time>
      </trkpt>
      <trkpt lat="37.313558" lon="-3.097388">
        <ele>1071.000000</ele>
        <time>2019-05-09T07:15:09Z</time>
      </trkpt>
      <trkpt lat="37.313565" lon="-3.097405">
        <ele>1071.000000</ele>
        <time>2019-05-09T07:15:09Z</time>
      </trkpt>
      <trkpt lat="37.313572" lon="-3.097422">
        <ele>1071.000000</ele>
        <time>2019-05-09T07:15:10Z</time>
      </trkpt>
      <trkpt lat="37.313578" lon="-3.097438">
        <ele>1071.000000</ele>
        <time>2019-05-09T07:15:11Z</time>
      </trkpt>
      <trkpt lat="37.313585" lon="-3.097455">
        <ele>1071.000000</ele>
        <time>2019-05-09T07:15:12Z</time>
      </trkpt>
      <trkpt lat="37.313592" lon="-3.097473">
        <ele>1071.000000</ele>
        <time>2019-05-09T07:15:13Z</time>
      </trkpt>
      <trkpt lat="37.313599" lon="-3.097488">
        <ele>1071.000000</ele>
        <time>2019-05-09T07:15:14Z</time>
      </trkpt>
      <trkpt lat="37.313605" lon="-3.097503">
        <ele>1070.000000</ele>
        <time>2019-05-09T07:15:15Z</time>
      </trkpt>
      <trkpt lat="37.313613" lon="-3.097520">
        <ele>1070.000000</ele>
        <time>2019-05-09T07:15:16Z</time>
      </trkpt>
      <trkpt lat="37.313620" lon="-3.097537">
        <ele>1070.000000</ele>
        <time>2019-05-09T07:15:17Z</time>
      </trkpt>
      <trkpt lat="37.313628" lon="-3.097552">
        <ele>1070.000000</ele>
        <time>2019-05-09T07:15:18Z</time>
      </trkpt>
      <trkpt lat="37.313636" lon="-3.097568">
        <ele>1070.000000</ele>
        <time>2019-05-09T07:15:19Z</time>
      </trkpt>
      <trkpt lat="37.313643" lon="-3.097583">
        <ele>1070.000000</ele>
        <time>2019-05-09T07:15:20Z</time>
      </trkpt>
      <trkpt lat="37.313650" lon="-3.097598">
        <ele>1070.000000</ele>
        <time>2019-05-09T07:15:21Z</time>
      </trkpt>
      <trkpt lat="37.313659" lon="-3.097615">
        <ele>1070.000000</ele>
        <time>2019-05-09T07:15:22Z</time>
      </trkpt>
      <trkpt lat="37.313667" lon="-3.097630">
        <ele>1070.000000</ele>
        <time>2019-05-09T07:15:23Z</time>
      </trkpt>
      <trkpt lat="37.313675" lon="-3.097647">
        <ele>1070.000000</ele>
        <time>2019-05-09T07:15:24Z</time>
      </trkpt>
      <trkpt lat="37.313685" lon="-3.097663">
        <ele>1070.000000</ele>
        <time>2019-05-09T07:15:25Z</time>
      </trkpt>
      <trkpt lat="37.313694" lon="-3.097680">
        <ele>1070.000000</ele>
        <time>2019-05-09T07:15:26Z</time>
      </trkpt>
      <trkpt lat="37.313703" lon="-3.097698">
        <ele>1070.000000</ele>
        <time>2019-05-09T07:15:27Z</time>
      </trkpt>
      <trkpt lat="37.313712" lon="-3.097713">
        <ele>1070.000000</ele>
        <time>2019-05-09T07:15:28Z</time>
      </trkpt>
      <trkpt lat="37.313721" lon="-3.097730">
        <ele>1070.000000</ele>
        <time>2019-05-09T07:15:29Z</time>
      </trkpt>
      <trkpt lat="37.313730" lon="-3.097747">
        <ele>1070.000000</ele>
        <time>2019-05-09T07:15:30Z</time>
      </trkpt>
      <trkpt lat="37.313738" lon="-3.097760">
        <ele>1070.000000</ele>
        <time>2019-05-09T07:15:31Z</time>
      </trkpt>
      <trkpt lat="37.313746" lon="-3.097775">
        <ele>1070.000000</ele>
        <time>2019-05-09T07:15:32Z</time>
      </trkpt>
      <trkpt lat="37.313754" lon="-3.097792">
        <ele>1070.000000</ele>
        <time>2019-05-09T07:15:34Z</time>
      </trkpt>
      <trkpt lat="37.313763" lon="-3.097808">
        <ele>1069.000000</ele>
        <time>2019-05-09T07:15:34Z</time>
      </trkpt>
      <trkpt lat="37.313771" lon="-3.097825">
        <ele>1069.000000</ele>
        <time>2019-05-09T07:15:35Z</time>
      </trkpt>
      <trkpt lat="37.313779" lon="-3.097842">
        <ele>1069.000000</ele>
        <time>2019-05-09T07:15:36Z</time>
      </trkpt>
      <trkpt lat="37.313789" lon="-3.097858">
        <ele>1069.000000</ele>
        <time>2019-05-09T07:15:37Z</time>
      </trkpt>
      <trkpt lat="37.313797" lon="-3.097875">
        <ele>1069.000000</ele>
        <time>2019-05-09T07:15:38Z</time>
      </trkpt>
      <trkpt lat="37.313804" lon="-3.097890">
        <ele>1069.000000</ele>
        <time>2019-05-09T07:15:39Z</time>
      </trkpt>
      <trkpt lat="37.313812" lon="-3.097907">
        <ele>1069.000000</ele>
        <time>2019-05-09T07:15:40Z</time>
      </trkpt>
      <trkpt lat="37.313820" lon="-3.097923">
        <ele>1069.000000</ele>
        <time>2019-05-09T07:15:41Z</time>
      </trkpt>
      <trkpt lat="37.313829" lon="-3.097943">
        <ele>1069.000000</ele>
        <time>2019-05-09T07:15:42Z</time>
      </trkpt>
      <trkpt lat="37.313836" lon="-3.097960">
        <ele>1069.000000</ele>
        <time>2019-05-09T07:15:43Z</time>
      </trkpt>
      <trkpt lat="37.313845" lon="-3.097978">
        <ele>1069.000000</ele>
        <time>2019-05-09T07:15:44Z</time>
      </trkpt>
      <trkpt lat="37.313851" lon="-3.097993">
        <ele>1069.000000</ele>
        <time>2019-05-09T07:15:45Z</time>
      </trkpt>
      <trkpt lat="37.313858" lon="-3.098008">
        <ele>1068.000000</ele>
        <time>2019-05-09T07:15:46Z</time>
      </trkpt>
      <trkpt lat="37.313865" lon="-3.098025">
        <ele>1068.000000</ele>
        <time>2019-05-09T07:15:47Z</time>
      </trkpt>
      <trkpt lat="37.313875" lon="-3.098042">
        <ele>1068.000000</ele>
        <time>2019-05-09T07:15:48Z</time>
      </trkpt>
      <trkpt lat="37.313883" lon="-3.098060">
        <ele>1068.000000</ele>
        <time>2019-05-09T07:15:49Z</time>
      </trkpt>
      <trkpt lat="37.313889" lon="-3.098078">
        <ele>1068.000000</ele>
        <time>2019-05-09T07:15:50Z</time>
      </trkpt>
      <trkpt lat="37.313898" lon="-3.098097">
        <ele>1068.000000</ele>
        <time>2019-05-09T07:15:51Z</time>
      </trkpt>
      <trkpt lat="37.313904" lon="-3.098115">
        <ele>1068.000000</ele>
        <time>2019-05-09T07:15:52Z</time>
      </trkpt>
      <trkpt lat="37.313910" lon="-3.098132">
        <ele>1068.000000</ele>
        <time>2019-05-09T07:15:53Z</time>
      </trkpt>
      <trkpt lat="37.313916" lon="-3.098150">
        <ele>1068.000000</ele>
        <time>2019-05-09T07:15:54Z</time>
      </trkpt>
      <trkpt lat="37.313923" lon="-3.098168">
        <ele>1068.000000</ele>
        <time>2019-05-09T07:15:55Z</time>
      </trkpt>
      <trkpt lat="37.313927" lon="-3.098183">
        <ele>1068.000000</ele>
        <time>2019-05-09T07:15:56Z</time>
      </trkpt>
      <trkpt lat="37.313932" lon="-3.098202">
        <ele>1068.000000</ele>
        <time>2019-05-09T07:15:58Z</time>
      </trkpt>
      <trkpt lat="37.313938" lon="-3.098220">
        <ele>1068.000000</ele>
        <time>2019-05-09T07:15:58Z</time>
      </trkpt>
      <trkpt lat="37.313943" lon="-3.098238">
        <ele>1068.000000</ele>
        <time>2019-05-09T07:15:59Z</time>
      </trkpt>
      <trkpt lat="37.313947" lon="-3.098255">
        <ele>1068.000000</ele>
        <time>2019-05-09T07:16:00Z</time>
      </trkpt>
      <trkpt lat="37.313951" lon="-3.098273">
        <ele>1067.000000</ele>
        <time>2019-05-09T07:16:01Z</time>
      </trkpt>
      <trkpt lat="37.313956" lon="-3.098290">
        <ele>1067.000000</ele>
        <time>2019-05-09T07:16:02Z</time>
      </trkpt>
      <trkpt lat="37.313960" lon="-3.098308">
        <ele>1067.000000</ele>
        <time>2019-05-09T07:16:03Z</time>
      </trkpt>
      <trkpt lat="37.313963" lon="-3.098325">
        <ele>1067.000000</ele>
        <time>2019-05-09T07:16:04Z</time>
      </trkpt>
      <trkpt lat="37.313968" lon="-3.098343">
        <ele>1067.000000</ele>
        <time>2019-05-09T07:16:05Z</time>
      </trkpt>
      <trkpt lat="37.313971" lon="-3.098360">
        <ele>1067.000000</ele>
        <time>2019-05-09T07:16:06Z</time>
      </trkpt>
      <trkpt lat="37.313975" lon="-3.098378">
        <ele>1067.000000</ele>
        <time>2019-05-09T07:16:07Z</time>
      </trkpt>
      <trkpt lat="37.313979" lon="-3.098398">
        <ele>1067.000000</ele>
        <time>2019-05-09T07:16:08Z</time>
      </trkpt>
      <trkpt lat="37.313982" lon="-3.098415">
        <ele>1067.000000</ele>
        <time>2019-05-09T07:16:09Z</time>
      </trkpt>
      <trkpt lat="37.313985" lon="-3.098433">
        <ele>1067.000000</ele>
        <time>2019-05-09T07:16:10Z</time>
      </trkpt>
      <trkpt lat="37.313988" lon="-3.098450">
        <ele>1067.000000</ele>
        <time>2019-05-09T07:16:11Z</time>
      </trkpt>
      <trkpt lat="37.313992" lon="-3.098470">
        <ele>1067.000000</ele>
        <time>2019-05-09T07:16:12Z</time>
      </trkpt>
      <trkpt lat="37.313995" lon="-3.098490">
        <ele>1067.000000</ele>
        <time>2019-05-09T07:16:13Z</time>
      </trkpt>
      <trkpt lat="37.313998" lon="-3.098508">
        <ele>1067.000000</ele>
        <time>2019-05-09T07:16:15Z</time>
      </trkpt>
      <trkpt lat="37.314001" lon="-3.098527">
        <ele>1067.000000</ele>
        <time>2019-05-09T07:16:15Z</time>
      </trkpt>
      <trkpt lat="37.314003" lon="-3.098545">
        <ele>1067.000000</ele>
        <time>2019-05-09T07:16:16Z</time>
      </trkpt>
      <trkpt lat="37.314007" lon="-3.098562">
        <ele>1066.000000</ele>
        <time>2019-05-09T07:16:17Z</time>
      </trkpt>
      <trkpt lat="37.314008" lon="-3.098578">
        <ele>1066.000000</ele>
        <time>2019-05-09T07:16:19Z</time>
      </trkpt>
      <trkpt lat="37.314011" lon="-3.098593">
        <ele>1066.000000</ele>
        <time>2019-05-09T07:16:19Z</time>
      </trkpt>
      <trkpt lat="37.314015" lon="-3.098610">
        <ele>1066.000000</ele>
        <time>2019-05-09T07:16:20Z</time>
      </trkpt>
      <trkpt lat="37.314018" lon="-3.098627">
        <ele>1066.000000</ele>
        <time>2019-05-09T07:16:21Z</time>
      </trkpt>
      <trkpt lat="37.314021" lon="-3.098643">
        <ele>1066.000000</ele>
        <time>2019-05-09T07:16:22Z</time>
      </trkpt>
      <trkpt lat="37.314025" lon="-3.098660">
        <ele>1066.000000</ele>
        <time>2019-05-09T07:16:23Z</time>
      </trkpt>
      <trkpt lat="37.314030" lon="-3.098678">
        <ele>1065.000000</ele>
        <time>2019-05-09T07:16:24Z</time>
      </trkpt>
      <trkpt lat="37.314034" lon="-3.098697">
        <ele>1065.000000</ele>
        <time>2019-05-09T07:16:25Z</time>
      </trkpt>
      <trkpt lat="37.314039" lon="-3.098713">
        <ele>1065.000000</ele>
        <time>2019-05-09T07:16:26Z</time>
      </trkpt>
      <trkpt lat="37.314044" lon="-3.098730">
        <ele>1065.000000</ele>
        <time>2019-05-09T07:16:27Z</time>
      </trkpt>
      <trkpt lat="37.314048" lon="-3.098743">
        <ele>1065.000000</ele>
        <time>2019-05-09T07:16:28Z</time>
      </trkpt>
      <trkpt lat="37.314053" lon="-3.098760">
        <ele>1065.000000</ele>
        <time>2019-05-09T07:16:29Z</time>
      </trkpt>
      <trkpt lat="37.314058" lon="-3.098777">
        <ele>1065.000000</ele>
        <time>2019-05-09T07:16:30Z</time>
      </trkpt>
      <trkpt lat="37.314064" lon="-3.098792">
        <ele>1065.000000</ele>
        <time>2019-05-09T07:16:31Z</time>
      </trkpt>
      <trkpt lat="37.314070" lon="-3.098810">
        <ele>1065.000000</ele>
        <time>2019-05-09T07:16:32Z</time>
      </trkpt>
      <trkpt lat="37.314074" lon="-3.098825">
        <ele>1065.000000</ele>
        <time>2019-05-09T07:16:33Z</time>
      </trkpt>
      <trkpt lat="37.314081" lon="-3.098842">
        <ele>1065.000000</ele>
        <time>2019-05-09T07:16:34Z</time>
      </trkpt>
      <trkpt lat="37.314086" lon="-3.098857">
        <ele>1065.000000</ele>
        <time>2019-05-09T07:16:35Z</time>
      </trkpt>
      <trkpt lat="37.314092" lon="-3.098872">
        <ele>1065.000000</ele>
        <time>2019-05-09T07:16:36Z</time>
      </trkpt>
      <trkpt lat="37.314098" lon="-3.098888">
        <ele>1065.000000</ele>
        <time>2019-05-09T07:16:37Z</time>
      </trkpt>
      <trkpt lat="37.314105" lon="-3.098905">
        <ele>1065.000000</ele>
        <time>2019-05-09T07:16:38Z</time>
      </trkpt>
      <trkpt lat="37.314112" lon="-3.098920">
        <ele>1065.000000</ele>
        <time>2019-05-09T07:16:39Z</time>
      </trkpt>
      <trkpt lat="37.314118" lon="-3.098937">
        <ele>1065.000000</ele>
        <time>2019-05-09T07:16:40Z</time>
      </trkpt>
      <trkpt lat="37.314125" lon="-3.098952">
        <ele>1065.000000</ele>
        <time>2019-05-09T07:16:41Z</time>
      </trkpt>
      <trkpt lat="37.314132" lon="-3.098965">
        <ele>1065.000000</ele>
        <time>2019-05-09T07:16:42Z</time>
      </trkpt>
      <trkpt lat="37.314138" lon="-3.098980">
        <ele>1065.000000</ele>
        <time>2019-05-09T07:16:44Z</time>
      </trkpt>
      <trkpt lat="37.314145" lon="-3.098997">
        <ele>1064.000000</ele>
        <time>2019-05-09T07:16:44Z</time>
      </trkpt>
      <trkpt lat="37.314152" lon="-3.099012">
        <ele>1064.000000</ele>
        <time>2019-05-09T07:16:45Z</time>
      </trkpt>
      <trkpt lat="37.314159" lon="-3.099025">
        <ele>1064.000000</ele>
        <time>2019-05-09T07:16:46Z</time>
      </trkpt>
      <trkpt lat="37.314166" lon="-3.099038">
        <ele>1064.000000</ele>
        <time>2019-05-09T07:16:47Z</time>
      </trkpt>
      <trkpt lat="37.314174" lon="-3.099053">
        <ele>1064.000000</ele>
        <time>2019-05-09T07:16:48Z</time>
      </trkpt>
      <trkpt lat="37.314181" lon="-3.099070">
        <ele>1064.000000</ele>
        <time>2019-05-09T07:16:49Z</time>
      </trkpt>
      <trkpt lat="37.314190" lon="-3.099087">
        <ele>1064.000000</ele>
        <time>2019-05-09T07:16:50Z</time>
      </trkpt>
      <trkpt lat="37.314197" lon="-3.099102">
        <ele>1064.000000</ele>
        <time>2019-05-09T07:16:51Z</time>
      </trkpt>
      <trkpt lat="37.314205" lon="-3.099117">
        <ele>1064.000000</ele>
        <time>2019-05-09T07:16:52Z</time>
      </trkpt>
      <trkpt lat="37.314215" lon="-3.099133">
        <ele>1064.000000</ele>
        <time>2019-05-09T07:16:53Z</time>
      </trkpt>
      <trkpt lat="37.314223" lon="-3.099148">
        <ele>1064.000000</ele>
        <time>2019-05-09T07:16:54Z</time>
      </trkpt>
      <trkpt lat="37.314230" lon="-3.099163">
        <ele>1064.000000</ele>
        <time>2019-05-09T07:16:55Z</time>
      </trkpt>
      <trkpt lat="37.314239" lon="-3.099178">
        <ele>1064.000000</ele>
        <time>2019-05-09T07:16:56Z</time>
      </trkpt>
      <trkpt lat="37.314247" lon="-3.099193">
        <ele>1064.000000</ele>
        <time>2019-05-09T07:16:57Z</time>
      </trkpt>
      <trkpt lat="37.314255" lon="-3.099210">
        <ele>1063.000000</ele>
        <time>2019-05-09T07:16:58Z</time>
      </trkpt>
      <trkpt lat="37.314265" lon="-3.099227">
        <ele>1063.000000</ele>
        <time>2019-05-09T07:16:59Z</time>
      </trkpt>
      <trkpt lat="37.314273" lon="-3.099243">
        <ele>1063.000000</ele>
        <time>2019-05-09T07:17:00Z</time>
      </trkpt>
      <trkpt lat="37.314283" lon="-3.099262">
        <ele>1063.000000</ele>
        <time>2019-05-09T07:17:01Z</time>
      </trkpt>
      <trkpt lat="37.314290" lon="-3.099277">
        <ele>1063.000000</ele>
        <time>2019-05-09T07:17:02Z</time>
      </trkpt>
      <trkpt lat="37.314299" lon="-3.099293">
        <ele>1063.000000</ele>
        <time>2019-05-09T07:17:03Z</time>
      </trkpt>
      <trkpt lat="37.314307" lon="-3.099310">
        <ele>1063.000000</ele>
        <time>2019-05-09T07:17:04Z</time>
      </trkpt>
      <trkpt lat="37.314313" lon="-3.099325">
        <ele>1063.000000</ele>
        <time>2019-05-09T07:17:05Z</time>
      </trkpt>
      <trkpt lat="37.314320" lon="-3.099342">
        <ele>1063.000000</ele>
        <time>2019-05-09T07:17:06Z</time>
      </trkpt>
      <trkpt lat="37.314328" lon="-3.099357">
        <ele>1063.000000</ele>
        <time>2019-05-09T07:17:07Z</time>
      </trkpt>
      <trkpt lat="37.314336" lon="-3.099375">
        <ele>1063.000000</ele>
        <time>2019-05-09T07:17:08Z</time>
      </trkpt>
      <trkpt lat="37.314341" lon="-3.099390">
        <ele>1063.000000</ele>
        <time>2019-05-09T07:17:09Z</time>
      </trkpt>
      <trkpt lat="37.314350" lon="-3.099407">
        <ele>1063.000000</ele>
        <time>2019-05-09T07:17:10Z</time>
      </trkpt>
      <trkpt lat="37.314357" lon="-3.099423">
        <ele>1063.000000</ele>
        <time>2019-05-09T07:17:11Z</time>
      </trkpt>
      <trkpt lat="37.314364" lon="-3.099440">
        <ele>1063.000000</ele>
        <time>2019-05-09T07:17:12Z</time>
      </trkpt>
      <trkpt lat="37.314372" lon="-3.099463">
        <ele>1062.000000</ele>
        <time>2019-05-09T07:17:13Z</time>
      </trkpt>
      <trkpt lat="37.314378" lon="-3.099477">
        <ele>1062.000000</ele>
        <time>2019-05-09T07:17:14Z</time>
      </trkpt>
      <trkpt lat="37.314385" lon="-3.099493">
        <ele>1062.000000</ele>
        <time>2019-05-09T07:17:15Z</time>
      </trkpt>
      <trkpt lat="37.314392" lon="-3.099510">
        <ele>1062.000000</ele>
        <time>2019-05-09T07:17:16Z</time>
      </trkpt>
      <trkpt lat="37.314400" lon="-3.099528">
        <ele>1062.000000</ele>
        <time>2019-05-09T07:17:17Z</time>
      </trkpt>
      <trkpt lat="37.314406" lon="-3.099547">
        <ele>1062.000000</ele>
        <time>2019-05-09T07:17:18Z</time>
      </trkpt>
      <trkpt lat="37.314415" lon="-3.099572">
        <ele>1062.000000</ele>
        <time>2019-05-09T07:17:19Z</time>
      </trkpt>
      <trkpt lat="37.314421" lon="-3.099587">
        <ele>1062.000000</ele>
        <time>2019-05-09T07:17:20Z</time>
      </trkpt>
      <trkpt lat="37.314429" lon="-3.099610">
        <ele>1062.000000</ele>
        <time>2019-05-09T07:17:21Z</time>
      </trkpt>
      <trkpt lat="37.314436" lon="-3.099632">
        <ele>1062.000000</ele>
        <time>2019-05-09T07:17:22Z</time>
      </trkpt>
      <trkpt lat="37.314443" lon="-3.099653">
        <ele>1062.000000</ele>
        <time>2019-05-09T07:17:23Z</time>
      </trkpt>
      <trkpt lat="37.314449" lon="-3.099675">
        <ele>1062.000000</ele>
        <time>2019-05-09T07:17:24Z</time>
      </trkpt>
      <trkpt lat="37.314452" lon="-3.099688">
        <ele>1061.000000</ele>
        <time>2019-05-09T07:17:25Z</time>
      </trkpt>
      <trkpt lat="37.314458" lon="-3.099707">
        <ele>1061.000000</ele>
        <time>2019-05-09T07:17:26Z</time>
      </trkpt>
      <trkpt lat="37.314463" lon="-3.099725">
        <ele>1061.000000</ele>
        <time>2019-05-09T07:17:27Z</time>
      </trkpt>
      <trkpt lat="37.314466" lon="-3.099742">
        <ele>1061.000000</ele>
        <time>2019-05-09T07:17:29Z</time>
      </trkpt>
      <trkpt lat="37.314473" lon="-3.099763">
        <ele>1061.000000</ele>
        <time>2019-05-09T07:17:29Z</time>
      </trkpt>
      <trkpt lat="37.314477" lon="-3.099785">
        <ele>1061.000000</ele>
        <time>2019-05-09T07:17:30Z</time>
      </trkpt>
      <trkpt lat="37.314483" lon="-3.099805">
        <ele>1060.000000</ele>
        <time>2019-05-09T07:17:31Z</time>
      </trkpt>
      <trkpt lat="37.314487" lon="-3.099827">
        <ele>1060.000000</ele>
        <time>2019-05-09T07:17:32Z</time>
      </trkpt>
      <trkpt lat="37.314495" lon="-3.099852">
        <ele>1060.000000</ele>
        <time>2019-05-09T07:17:33Z</time>
      </trkpt>
      <trkpt lat="37.314497" lon="-3.099868">
        <ele>1060.000000</ele>
        <time>2019-05-09T07:17:34Z</time>
      </trkpt>
      <trkpt lat="37.314501" lon="-3.099892">
        <ele>1060.000000</ele>
        <time>2019-05-09T07:17:35Z</time>
      </trkpt>
      <trkpt lat="37.314504" lon="-3.099908">
        <ele>1060.000000</ele>
        <time>2019-05-09T07:17:36Z</time>
      </trkpt>
      <trkpt lat="37.314507" lon="-3.099930">
        <ele>1060.000000</ele>
        <time>2019-05-09T07:17:37Z</time>
      </trkpt>
      <trkpt lat="37.314512" lon="-3.099950">
        <ele>1060.000000</ele>
        <time>2019-05-09T07:17:38Z</time>
      </trkpt>
      <trkpt lat="37.314516" lon="-3.099975">
        <ele>1060.000000</ele>
        <time>2019-05-09T07:17:39Z</time>
      </trkpt>
      <trkpt lat="37.314519" lon="-3.099997">
        <ele>1060.000000</ele>
        <time>2019-05-09T07:17:40Z</time>
      </trkpt>
      <trkpt lat="37.314522" lon="-3.100018">
        <ele>1060.000000</ele>
        <time>2019-05-09T07:17:41Z</time>
      </trkpt>
      <trkpt lat="37.314523" lon="-3.100035">
        <ele>1060.000000</ele>
        <time>2019-05-09T07:17:42Z</time>
      </trkpt>
      <trkpt lat="37.314527" lon="-3.100057">
        <ele>1060.000000</ele>
        <time>2019-05-09T07:17:43Z</time>
      </trkpt>
      <trkpt lat="37.314530" lon="-3.100078">
        <ele>1060.000000</ele>
        <time>2019-05-09T07:17:44Z</time>
      </trkpt>
      <trkpt lat="37.314531" lon="-3.100098">
        <ele>1059.000000</ele>
        <time>2019-05-09T07:17:45Z</time>
      </trkpt>
      <trkpt lat="37.314534" lon="-3.100117">
        <ele>1059.000000</ele>
        <time>2019-05-09T07:17:46Z</time>
      </trkpt>
      <trkpt lat="37.314536" lon="-3.100138">
        <ele>1059.000000</ele>
        <time>2019-05-09T07:17:47Z</time>
      </trkpt>
      <trkpt lat="37.314540" lon="-3.100158">
        <ele>1059.000000</ele>
        <time>2019-05-09T07:17:48Z</time>
      </trkpt>
      <trkpt lat="37.314542" lon="-3.100182">
        <ele>1059.000000</ele>
        <time>2019-05-09T07:17:49Z</time>
      </trkpt>
      <trkpt lat="37.314546" lon="-3.100205">
        <ele>1059.000000</ele>
        <time>2019-05-09T07:17:50Z</time>
      </trkpt>
      <trkpt lat="37.314546" lon="-3.100222">
        <ele>1059.000000</ele>
        <time>2019-05-09T07:17:51Z</time>
      </trkpt>
      <trkpt lat="37.314550" lon="-3.100243">
        <ele>1059.000000</ele>
        <time>2019-05-09T07:17:52Z</time>
      </trkpt>
      <trkpt lat="37.314553" lon="-3.100267">
        <ele>1059.000000</ele>
        <time>2019-05-09T07:17:54Z</time>
      </trkpt>
      <trkpt lat="37.314555" lon="-3.100292">
        <ele>1059.000000</ele>
        <time>2019-05-09T07:17:54Z</time>
      </trkpt>
      <trkpt lat="37.314559" lon="-3.100317">
        <ele>1059.000000</ele>
        <time>2019-05-09T07:17:55Z</time>
      </trkpt>
      <trkpt lat="37.314561" lon="-3.100335">
        <ele>1059.000000</ele>
        <time>2019-05-09T07:17:56Z</time>
      </trkpt>
      <trkpt lat="37.314563" lon="-3.100350">
        <ele>1059.000000</ele>
        <time>2019-05-09T07:17:57Z</time>
      </trkpt>
      <trkpt lat="37.314566" lon="-3.100372">
        <ele>1058.000000</ele>
        <time>2019-05-09T07:17:58Z</time>
      </trkpt>
      <trkpt lat="37.314568" lon="-3.100387">
        <ele>1058.000000</ele>
        <time>2019-05-09T07:17:59Z</time>
      </trkpt>
      <trkpt lat="37.314569" lon="-3.100403">
        <ele>1058.000000</ele>
        <time>2019-05-09T07:18:00Z</time>
      </trkpt>
      <trkpt lat="37.314573" lon="-3.100422">
        <ele>1058.000000</ele>
        <time>2019-05-09T07:18:01Z</time>
      </trkpt>
      <trkpt lat="37.314576" lon="-3.100440">
        <ele>1058.000000</ele>
        <time>2019-05-09T07:18:02Z</time>
      </trkpt>
      <trkpt lat="37.314578" lon="-3.100460">
        <ele>1058.000000</ele>
        <time>2019-05-09T07:18:03Z</time>
      </trkpt>
      <trkpt lat="37.314582" lon="-3.100478">
        <ele>1058.000000</ele>
        <time>2019-05-09T07:18:04Z</time>
      </trkpt>
      <trkpt lat="37.314586" lon="-3.100498">
        <ele>1058.000000</ele>
        <time>2019-05-09T07:18:05Z</time>
      </trkpt>
      <trkpt lat="37.314589" lon="-3.100523">
        <ele>1058.000000</ele>
        <time>2019-05-09T07:18:06Z</time>
      </trkpt>
      <trkpt lat="37.314593" lon="-3.100542">
        <ele>1058.000000</ele>
        <time>2019-05-09T07:18:07Z</time>
      </trkpt>
      <trkpt lat="37.314599" lon="-3.100557">
        <ele>1058.000000</ele>
        <time>2019-05-09T07:18:08Z</time>
      </trkpt>
      <trkpt lat="37.314603" lon="-3.100577">
        <ele>1058.000000</ele>
        <time>2019-05-09T07:18:09Z</time>
      </trkpt>
      <trkpt lat="37.314609" lon="-3.100597">
        <ele>1058.000000</ele>
        <time>2019-05-09T07:18:10Z</time>
      </trkpt>
      <trkpt lat="37.314614" lon="-3.100615">
        <ele>1058.000000</ele>
        <time>2019-05-09T07:18:11Z</time>
      </trkpt>
      <trkpt lat="37.314620" lon="-3.100635">
        <ele>1058.000000</ele>
        <time>2019-05-09T07:18:12Z</time>
      </trkpt>
      <trkpt lat="37.314626" lon="-3.100650">
        <ele>1057.000000</ele>
        <time>2019-05-09T07:18:13Z</time>
      </trkpt>
      <trkpt lat="37.314632" lon="-3.100670">
        <ele>1057.000000</ele>
        <time>2019-05-09T07:18:15Z</time>
      </trkpt>
      <trkpt lat="37.314638" lon="-3.100685">
        <ele>1057.000000</ele>
        <time>2019-05-09T07:18:15Z</time>
      </trkpt>
      <trkpt lat="37.314643" lon="-3.100697">
        <ele>1057.000000</ele>
        <time>2019-05-09T07:18:16Z</time>
      </trkpt>
      <trkpt lat="37.314650" lon="-3.100712">
        <ele>1057.000000</ele>
        <time>2019-05-09T07:18:17Z</time>
      </trkpt>
      <trkpt lat="37.314656" lon="-3.100728">
        <ele>1057.000000</ele>
        <time>2019-05-09T07:18:18Z</time>
      </trkpt>
      <trkpt lat="37.314664" lon="-3.100745">
        <ele>1057.000000</ele>
        <time>2019-05-09T07:18:19Z</time>
      </trkpt>
      <trkpt lat="37.314672" lon="-3.100762">
        <ele>1057.000000</ele>
        <time>2019-05-09T07:18:20Z</time>
      </trkpt>
      <trkpt lat="37.314680" lon="-3.100778">
        <ele>1056.000000</ele>
        <time>2019-05-09T07:18:21Z</time>
      </trkpt>
      <trkpt lat="37.314689" lon="-3.100798">
        <ele>1056.000000</ele>
        <time>2019-05-09T07:18:22Z</time>
      </trkpt>
      <trkpt lat="37.314698" lon="-3.100818">
        <ele>1056.000000</ele>
        <time>2019-05-09T07:18:23Z</time>
      </trkpt>
      <trkpt lat="37.314708" lon="-3.100840">
        <ele>1056.000000</ele>
        <time>2019-05-09T07:18:24Z</time>
      </trkpt>
      <trkpt lat="37.314717" lon="-3.100860">
        <ele>1056.000000</ele>
        <time>2019-05-09T07:18:25Z</time>
      </trkpt>
      <trkpt lat="37.314726" lon="-3.100880">
        <ele>1056.000000</ele>
        <time>2019-05-09T07:18:26Z</time>
      </trkpt>
      <trkpt lat="37.314736" lon="-3.100902">
        <ele>1056.000000</ele>
        <time>2019-05-09T07:18:27Z</time>
      </trkpt>
      <trkpt lat="37.314746" lon="-3.100923">
        <ele>1056.000000</ele>
        <time>2019-05-09T07:18:28Z</time>
      </trkpt>
      <trkpt lat="37.314756" lon="-3.100943">
        <ele>1056.000000</ele>
        <time>2019-05-09T07:18:29Z</time>
      </trkpt>
      <trkpt lat="37.314765" lon="-3.100962">
        <ele>1056.000000</ele>
        <time>2019-05-09T07:18:30Z</time>
      </trkpt>
      <trkpt lat="37.314774" lon="-3.100980">
        <ele>1056.000000</ele>
        <time>2019-05-09T07:18:31Z</time>
      </trkpt>
      <trkpt lat="37.314783" lon="-3.101000">
        <ele>1056.000000</ele>
        <time>2019-05-09T07:18:32Z</time>
      </trkpt>
      <trkpt lat="37.314792" lon="-3.101018">
        <ele>1056.000000</ele>
        <time>2019-05-09T07:18:33Z</time>
      </trkpt>
      <trkpt lat="37.314800" lon="-3.101033">
        <ele>1056.000000</ele>
        <time>2019-05-09T07:18:34Z</time>
      </trkpt>
      <trkpt lat="37.314808" lon="-3.101050">
        <ele>1056.000000</ele>
        <time>2019-05-09T07:18:35Z</time>
      </trkpt>
      <trkpt lat="37.314814" lon="-3.101065">
        <ele>1056.000000</ele>
        <time>2019-05-09T07:18:36Z</time>
      </trkpt>
      <trkpt lat="37.314823" lon="-3.101082">
        <ele>1056.000000</ele>
        <time>2019-05-09T07:18:37Z</time>
      </trkpt>
      <trkpt lat="37.314830" lon="-3.101098">
        <ele>1055.000000</ele>
        <time>2019-05-09T07:18:39Z</time>
      </trkpt>
      <trkpt lat="37.314838" lon="-3.101115">
        <ele>1055.000000</ele>
        <time>2019-05-09T07:18:39Z</time>
      </trkpt>
      <trkpt lat="37.314845" lon="-3.101132">
        <ele>1055.000000</ele>
        <time>2019-05-09T07:18:39Z</time>
      </trkpt>
      <trkpt lat="37.314850" lon="-3.101148">
        <ele>1055.000000</ele>
        <time>2019-05-09T07:18:40Z</time>
      </trkpt>
      <trkpt lat="37.314858" lon="-3.101165">
        <ele>1055.000000</ele>
        <time>2019-05-09T07:18:41Z</time>
      </trkpt>
      <trkpt lat="37.314863" lon="-3.101182">
        <ele>1055.000000</ele>
        <time>2019-05-09T07:18:42Z</time>
      </trkpt>
      <trkpt lat="37.314872" lon="-3.101200">
        <ele>1055.000000</ele>
        <time>2019-05-09T07:18:44Z</time>
      </trkpt>
      <trkpt lat="37.314879" lon="-3.101222">
        <ele>1055.000000</ele>
        <time>2019-05-09T07:18:44Z</time>
      </trkpt>
      <trkpt lat="37.314885" lon="-3.101237">
        <ele>1055.000000</ele>
        <time>2019-05-09T07:18:45Z</time>
      </trkpt>
      <trkpt lat="37.314891" lon="-3.101253">
        <ele>1055.000000</ele>
        <time>2019-05-09T07:18:46Z</time>
      </trkpt>
      <trkpt lat="37.314898" lon="-3.101273">
        <ele>1055.000000</ele>
        <time>2019-05-09T07:18:47Z</time>
      </trkpt>
      <trkpt lat="37.314906" lon="-3.101293">
        <ele>1055.000000</ele>
        <time>2019-05-09T07:18:48Z</time>
      </trkpt>
      <trkpt lat="37.314912" lon="-3.101312">
        <ele>1055.000000</ele>
        <time>2019-05-09T07:18:49Z</time>
      </trkpt>
      <trkpt lat="37.314919" lon="-3.101330">
        <ele>1055.000000</ele>
        <time>2019-05-09T07:18:50Z</time>
      </trkpt>
      <trkpt lat="37.314924" lon="-3.101348">
        <ele>1055.000000</ele>
        <time>2019-05-09T07:18:51Z</time>
      </trkpt>
      <trkpt lat="37.314931" lon="-3.101367">
        <ele>1055.000000</ele>
        <time>2019-05-09T07:18:52Z</time>
      </trkpt>
      <trkpt lat="37.314938" lon="-3.101388">
        <ele>1055.000000</ele>
        <time>2019-05-09T07:18:53Z</time>
      </trkpt>
      <trkpt lat="37.314942" lon="-3.101403">
        <ele>1055.000000</ele>
        <time>2019-05-09T07:18:54Z</time>
      </trkpt>
      <trkpt lat="37.314948" lon="-3.101423">
        <ele>1055.000000</ele>
        <time>2019-05-09T07:18:55Z</time>
      </trkpt>
      <trkpt lat="37.314953" lon="-3.101442">
        <ele>1055.000000</ele>
        <time>2019-05-09T07:18:56Z</time>
      </trkpt>
      <trkpt lat="37.314958" lon="-3.101460">
        <ele>1055.000000</ele>
        <time>2019-05-09T07:18:58Z</time>
      </trkpt>
      <trkpt lat="37.314962" lon="-3.101477">
        <ele>1055.000000</ele>
        <time>2019-05-09T07:18:58Z</time>
      </trkpt>
      <trkpt lat="37.314967" lon="-3.101495">
        <ele>1055.000000</ele>
        <time>2019-05-09T07:18:59Z</time>
      </trkpt>
      <trkpt lat="37.314972" lon="-3.101513">
        <ele>1055.000000</ele>
        <time>2019-05-09T07:19:01Z</time>
      </trkpt>
      <trkpt lat="37.314976" lon="-3.101532">
        <ele>1055.000000</ele>
        <time>2019-05-09T07:19:01Z</time>
      </trkpt>
      <trkpt lat="37.314981" lon="-3.101550">
        <ele>1055.000000</ele>
        <time>2019-05-09T07:19:02Z</time>
      </trkpt>
      <trkpt lat="37.314986" lon="-3.101570">
        <ele>1055.000000</ele>
        <time>2019-05-09T07:19:03Z</time>
      </trkpt>
      <trkpt lat="37.314990" lon="-3.101587">
        <ele>1055.000000</ele>
        <time>2019-05-09T07:19:04Z</time>
      </trkpt>
      <trkpt lat="37.314995" lon="-3.101605">
        <ele>1055.000000</ele>
        <time>2019-05-09T07:19:05Z</time>
      </trkpt>
      <trkpt lat="37.314999" lon="-3.101623">
        <ele>1054.000000</ele>
        <time>2019-05-09T07:19:06Z</time>
      </trkpt>
      <trkpt lat="37.315005" lon="-3.101640">
        <ele>1054.000000</ele>
        <time>2019-05-09T07:19:07Z</time>
      </trkpt>
      <trkpt lat="37.315009" lon="-3.101657">
        <ele>1054.000000</ele>
        <time>2019-05-09T07:19:08Z</time>
      </trkpt>
      <trkpt lat="37.315014" lon="-3.101672">
        <ele>1054.000000</ele>
        <time>2019-05-09T07:19:09Z</time>
      </trkpt>
      <trkpt lat="37.315019" lon="-3.101687">
        <ele>1054.000000</ele>
        <time>2019-05-09T07:19:10Z</time>
      </trkpt>
      <trkpt lat="37.315023" lon="-3.101705">
        <ele>1054.000000</ele>
        <time>2019-05-09T07:19:11Z</time>
      </trkpt>
      <trkpt lat="37.315029" lon="-3.101723">
        <ele>1054.000000</ele>
        <time>2019-05-09T07:19:12Z</time>
      </trkpt>
      <trkpt lat="37.315034" lon="-3.101738">
        <ele>1054.000000</ele>
        <time>2019-05-09T07:19:13Z</time>
      </trkpt>
      <trkpt lat="37.315039" lon="-3.101755">
        <ele>1054.000000</ele>
        <time>2019-05-09T07:19:14Z</time>
      </trkpt>
      <trkpt lat="37.315045" lon="-3.101772">
        <ele>1054.000000</ele>
        <time>2019-05-09T07:19:15Z</time>
      </trkpt>
      <trkpt lat="37.315050" lon="-3.101790">
        <ele>1054.000000</ele>
        <time>2019-05-09T07:19:16Z</time>
      </trkpt>
      <trkpt lat="37.315056" lon="-3.101807">
        <ele>1054.000000</ele>
        <time>2019-05-09T07:19:17Z</time>
      </trkpt>
      <trkpt lat="37.315062" lon="-3.101825">
        <ele>1054.000000</ele>
        <time>2019-05-09T07:19:18Z</time>
      </trkpt>
      <trkpt lat="37.315068" lon="-3.101843">
        <ele>1054.000000</ele>
        <time>2019-05-09T07:19:19Z</time>
      </trkpt>
      <trkpt lat="37.315074" lon="-3.101863">
        <ele>1054.000000</ele>
        <time>2019-05-09T07:19:20Z</time>
      </trkpt>
      <trkpt lat="37.315080" lon="-3.101882">
        <ele>1054.000000</ele>
        <time>2019-05-09T07:19:22Z</time>
      </trkpt>
      <trkpt lat="37.315088" lon="-3.101900">
        <ele>1054.000000</ele>
        <time>2019-05-09T07:19:22Z</time>
      </trkpt>
      <trkpt lat="37.315094" lon="-3.101917">
        <ele>1054.000000</ele>
        <time>2019-05-09T07:19:23Z</time>
      </trkpt>
      <trkpt lat="37.315098" lon="-3.101932">
        <ele>1054.000000</ele>
        <time>2019-05-09T07:19:24Z</time>
      </trkpt>
      <trkpt lat="37.315103" lon="-3.101947">
        <ele>1054.000000</ele>
        <time>2019-05-09T07:19:25Z</time>
      </trkpt>
      <trkpt lat="37.315109" lon="-3.101963">
        <ele>1054.000000</ele>
        <time>2019-05-09T07:19:26Z</time>
      </trkpt>
      <trkpt lat="37.315114" lon="-3.101982">
        <ele>1054.000000</ele>
        <time>2019-05-09T07:19:27Z</time>
      </trkpt>
      <trkpt lat="37.315119" lon="-3.101995">
        <ele>1054.000000</ele>
        <time>2019-05-09T07:19:28Z</time>
      </trkpt>
      <trkpt lat="37.315124" lon="-3.102012">
        <ele>1054.000000</ele>
        <time>2019-05-09T07:19:29Z</time>
      </trkpt>
      <trkpt lat="37.315129" lon="-3.102028">
        <ele>1054.000000</ele>
        <time>2019-05-09T07:19:30Z</time>
      </trkpt>
      <trkpt lat="37.315135" lon="-3.102045">
        <ele>1054.000000</ele>
        <time>2019-05-09T07:19:31Z</time>
      </trkpt>
      <trkpt lat="37.315141" lon="-3.102062">
        <ele>1054.000000</ele>
        <time>2019-05-09T07:19:32Z</time>
      </trkpt>
      <trkpt lat="37.315146" lon="-3.102078">
        <ele>1054.000000</ele>
        <time>2019-05-09T07:19:33Z</time>
      </trkpt>
      <trkpt lat="37.315151" lon="-3.102095">
        <ele>1054.000000</ele>
        <time>2019-05-09T07:19:34Z</time>
      </trkpt>
      <trkpt lat="37.315157" lon="-3.102113">
        <ele>1054.000000</ele>
        <time>2019-05-09T07:19:35Z</time>
      </trkpt>
      <trkpt lat="37.315165" lon="-3.102130">
        <ele>1054.000000</ele>
        <time>2019-05-09T07:19:36Z</time>
      </trkpt>
      <trkpt lat="37.315172" lon="-3.102152">
        <ele>1054.000000</ele>
        <time>2019-05-09T07:19:37Z</time>
      </trkpt>
      <trkpt lat="37.315178" lon="-3.102172">
        <ele>1054.000000</ele>
        <time>2019-05-09T07:19:38Z</time>
      </trkpt>
      <trkpt lat="37.315185" lon="-3.102188">
        <ele>1054.000000</ele>
        <time>2019-05-09T07:19:39Z</time>
      </trkpt>
      <trkpt lat="37.315192" lon="-3.102210">
        <ele>1054.000000</ele>
        <time>2019-05-09T07:19:40Z</time>
      </trkpt>
      <trkpt lat="37.315199" lon="-3.102230">
        <ele>1054.000000</ele>
        <time>2019-05-09T07:19:41Z</time>
      </trkpt>
      <trkpt lat="37.315207" lon="-3.102250">
        <ele>1054.000000</ele>
        <time>2019-05-09T07:19:42Z</time>
      </trkpt>
      <trkpt lat="37.315213" lon="-3.102268">
        <ele>1054.000000</ele>
        <time>2019-05-09T07:19:43Z</time>
      </trkpt>
      <trkpt lat="37.315220" lon="-3.102285">
        <ele>1054.000000</ele>
        <time>2019-05-09T07:19:44Z</time>
      </trkpt>
      <trkpt lat="37.315227" lon="-3.102300">
        <ele>1054.000000</ele>
        <time>2019-05-09T07:19:46Z</time>
      </trkpt>
      <trkpt lat="37.315233" lon="-3.102317">
        <ele>1054.000000</ele>
        <time>2019-05-09T07:19:46Z</time>
      </trkpt>
      <trkpt lat="37.315240" lon="-3.102332">
        <ele>1054.000000</ele>
        <time>2019-05-09T07:19:47Z</time>
      </trkpt>
      <trkpt lat="37.315247" lon="-3.102345">
        <ele>1054.000000</ele>
        <time>2019-05-09T07:19:48Z</time>
      </trkpt>
      <trkpt lat="37.315254" lon="-3.102360">
        <ele>1054.000000</ele>
        <time>2019-05-09T07:19:49Z</time>
      </trkpt>
      <trkpt lat="37.315261" lon="-3.102375">
        <ele>1054.000000</ele>
        <time>2019-05-09T07:19:50Z</time>
      </trkpt>
      <trkpt lat="37.315269" lon="-3.102392">
        <ele>1054.000000</ele>
        <time>2019-05-09T07:19:51Z</time>
      </trkpt>
      <trkpt lat="37.315276" lon="-3.102405">
        <ele>1053.000000</ele>
        <time>2019-05-09T07:19:52Z</time>
      </trkpt>
      <trkpt lat="37.315284" lon="-3.102422">
        <ele>1053.000000</ele>
        <time>2019-05-09T07:19:53Z</time>
      </trkpt>
      <trkpt lat="37.315292" lon="-3.102437">
        <ele>1053.000000</ele>
        <time>2019-05-09T07:19:54Z</time>
      </trkpt>
      <trkpt lat="37.315300" lon="-3.102453">
        <ele>1053.000000</ele>
        <time>2019-05-09T07:19:55Z</time>
      </trkpt>
      <trkpt lat="37.315309" lon="-3.102468">
        <ele>1053.000000</ele>
        <time>2019-05-09T07:19:56Z</time>
      </trkpt>
      <trkpt lat="37.315317" lon="-3.102483">
        <ele>1053.000000</ele>
        <time>2019-05-09T07:19:57Z</time>
      </trkpt>
      <trkpt lat="37.315323" lon="-3.102495">
        <ele>1053.000000</ele>
        <time>2019-05-09T07:19:58Z</time>
      </trkpt>
      <trkpt lat="37.315330" lon="-3.102508">
        <ele>1053.000000</ele>
        <time>2019-05-09T07:19:59Z</time>
      </trkpt>
      <trkpt lat="37.315339" lon="-3.102522">
        <ele>1053.000000</ele>
        <time>2019-05-09T07:20:00Z</time>
      </trkpt>
      <trkpt lat="37.315347" lon="-3.102537">
        <ele>1053.000000</ele>
        <time>2019-05-09T07:20:01Z</time>
      </trkpt>
      <trkpt lat="37.315354" lon="-3.102550">
        <ele>1053.000000</ele>
        <time>2019-05-09T07:20:02Z</time>
      </trkpt>
      <trkpt lat="37.315360" lon="-3.102562">
        <ele>1052.000000</ele>
        <time>2019-05-09T07:20:03Z</time>
      </trkpt>
      <trkpt lat="37.315368" lon="-3.102573">
        <ele>1052.000000</ele>
        <time>2019-05-09T07:20:04Z</time>
      </trkpt>
      <trkpt lat="37.315374" lon="-3.102583">
        <ele>1052.000000</ele>
        <time>2019-05-09T07:20:05Z</time>
      </trkpt>
      <trkpt lat="37.315383" lon="-3.102597">
        <ele>1052.000000</ele>
        <time>2019-05-09T07:20:07Z</time>
      </trkpt>
      <trkpt lat="37.315392" lon="-3.102612">
        <ele>1052.000000</ele>
        <time>2019-05-09T07:20:07Z</time>
      </trkpt>
      <trkpt lat="37.315400" lon="-3.102627">
        <ele>1052.000000</ele>
        <time>2019-05-09T07:20:08Z</time>
      </trkpt>
      <trkpt lat="37.315408" lon="-3.102638">
        <ele>1052.000000</ele>
        <time>2019-05-09T07:20:09Z</time>
      </trkpt>
      <trkpt lat="37.315418" lon="-3.102652">
        <ele>1052.000000</ele>
        <time>2019-05-09T07:20:10Z</time>
      </trkpt>
      <trkpt lat="37.315427" lon="-3.102667">
        <ele>1052.000000</ele>
        <time>2019-05-09T07:20:11Z</time>
      </trkpt>
      <trkpt lat="37.315436" lon="-3.102680">
        <ele>1051.000000</ele>
        <time>2019-05-09T07:20:12Z</time>
      </trkpt>
      <trkpt lat="37.315446" lon="-3.102693">
        <ele>1051.000000</ele>
        <time>2019-05-09T07:20:13Z</time>
      </trkpt>
      <trkpt lat="37.315455" lon="-3.102707">
        <ele>1051.000000</ele>
        <time>2019-05-09T07:20:14Z</time>
      </trkpt>
      <trkpt lat="37.315465" lon="-3.102722">
        <ele>1051.000000</ele>
        <time>2019-05-09T07:20:15Z</time>
      </trkpt>
      <trkpt lat="37.315475" lon="-3.102735">
        <ele>1051.000000</ele>
        <time>2019-05-09T07:20:16Z</time>
      </trkpt>
      <trkpt lat="37.315485" lon="-3.102748">
        <ele>1051.000000</ele>
        <time>2019-05-09T07:20:17Z</time>
      </trkpt>
      <trkpt lat="37.315497" lon="-3.102763">
        <ele>1051.000000</ele>
        <time>2019-05-09T07:20:18Z</time>
      </trkpt>
      <trkpt lat="37.315507" lon="-3.102777">
        <ele>1051.000000</ele>
        <time>2019-05-09T07:20:19Z</time>
      </trkpt>
      <trkpt lat="37.315520" lon="-3.102793">
        <ele>1051.000000</ele>
        <time>2019-05-09T07:20:20Z</time>
      </trkpt>
      <trkpt lat="37.315530" lon="-3.102807">
        <ele>1051.000000</ele>
        <time>2019-05-09T07:20:21Z</time>
      </trkpt>
      <trkpt lat="37.315543" lon="-3.102823">
        <ele>1051.000000</ele>
        <time>2019-05-09T07:20:22Z</time>
      </trkpt>
      <trkpt lat="37.315553" lon="-3.102837">
        <ele>1051.000000</ele>
        <time>2019-05-09T07:20:23Z</time>
      </trkpt>
      <trkpt lat="37.315566" lon="-3.102852">
        <ele>1051.000000</ele>
        <time>2019-05-09T07:20:24Z</time>
      </trkpt>
      <trkpt lat="37.315576" lon="-3.102863">
        <ele>1051.000000</ele>
        <time>2019-05-09T07:20:25Z</time>
      </trkpt>
      <trkpt lat="37.315587" lon="-3.102877">
        <ele>1051.000000</ele>
        <time>2019-05-09T07:20:26Z</time>
      </trkpt>
      <trkpt lat="37.315597" lon="-3.102888">
        <ele>1051.000000</ele>
        <time>2019-05-09T07:20:27Z</time>
      </trkpt>
      <trkpt lat="37.315608" lon="-3.102900">
        <ele>1051.000000</ele>
        <time>2019-05-09T07:20:28Z</time>
      </trkpt>
      <trkpt lat="37.315618" lon="-3.102912">
        <ele>1051.000000</ele>
        <time>2019-05-09T07:20:29Z</time>
      </trkpt>
      <trkpt lat="37.315628" lon="-3.102923">
        <ele>1051.000000</ele>
        <time>2019-05-09T07:20:30Z</time>
      </trkpt>
      <trkpt lat="37.315636" lon="-3.102933">
        <ele>1051.000000</ele>
        <time>2019-05-09T07:20:32Z</time>
      </trkpt>
      <trkpt lat="37.315667" lon="-3.102943">
        <ele>1051.000000</ele>
        <time>2019-05-09T07:20:32Z</time>
      </trkpt>
      <trkpt lat="37.315675" lon="-3.102954">
        <ele>1051.000000</ele>
        <time>2019-05-09T07:20:33Z</time>
      </trkpt>
      <trkpt lat="37.315687" lon="-3.102968">
        <ele>1050.000000</ele>
        <time>2019-05-09T07:20:34Z</time>
      </trkpt>
      <trkpt lat="37.315698" lon="-3.102983">
        <ele>1050.000000</ele>
        <time>2019-05-09T07:20:35Z</time>
      </trkpt>
      <trkpt lat="37.315710" lon="-3.102997">
        <ele>1050.000000</ele>
        <time>2019-05-09T07:20:36Z</time>
      </trkpt>
      <trkpt lat="37.315720" lon="-3.103009">
        <ele>1050.000000</ele>
        <time>2019-05-09T07:20:37Z</time>
      </trkpt>
      <trkpt lat="37.315732" lon="-3.103023">
        <ele>1050.000000</ele>
        <time>2019-05-09T07:20:38Z</time>
      </trkpt>
      <trkpt lat="37.315743" lon="-3.103039">
        <ele>1050.000000</ele>
        <time>2019-05-09T07:20:39Z</time>
      </trkpt>
      <trkpt lat="37.315757" lon="-3.103054">
        <ele>1050.000000</ele>
        <time>2019-05-09T07:20:40Z</time>
      </trkpt>
      <trkpt lat="37.315768" lon="-3.103068">
        <ele>1050.000000</ele>
        <time>2019-05-09T07:20:41Z</time>
      </trkpt>
      <trkpt lat="37.315780" lon="-3.103080">
        <ele>1050.000000</ele>
        <time>2019-05-09T07:20:42Z</time>
      </trkpt>
      <trkpt lat="37.315790" lon="-3.103092">
        <ele>1050.000000</ele>
        <time>2019-05-09T07:20:43Z</time>
      </trkpt>
      <trkpt lat="37.315800" lon="-3.103102">
        <ele>1050.000000</ele>
        <time>2019-05-09T07:20:44Z</time>
      </trkpt>
      <trkpt lat="37.315810" lon="-3.103110">
        <ele>1050.000000</ele>
        <time>2019-05-09T07:20:45Z</time>
      </trkpt>
      <trkpt lat="37.315822" lon="-3.103124">
        <ele>1050.000000</ele>
        <time>2019-05-09T07:20:46Z</time>
      </trkpt>
      <trkpt lat="37.315835" lon="-3.103140">
        <ele>1050.000000</ele>
        <time>2019-05-09T07:20:47Z</time>
      </trkpt>
      <trkpt lat="37.315843" lon="-3.103155">
        <ele>1050.000000</ele>
        <time>2019-05-09T07:20:48Z</time>
      </trkpt>
      <trkpt lat="37.315853" lon="-3.103177">
        <ele>1050.000000</ele>
        <time>2019-05-09T07:20:49Z</time>
      </trkpt>
      <trkpt lat="37.315863" lon="-3.103193">
        <ele>1050.000000</ele>
        <time>2019-05-09T07:20:50Z</time>
      </trkpt>
      <trkpt lat="37.315871" lon="-3.103212">
        <ele>1050.000000</ele>
        <time>2019-05-09T07:20:51Z</time>
      </trkpt>
      <trkpt lat="37.315877" lon="-3.103230">
        <ele>1050.000000</ele>
        <time>2019-05-09T07:20:52Z</time>
      </trkpt>
      <trkpt lat="37.315885" lon="-3.103248">
        <ele>1050.000000</ele>
        <time>2019-05-09T07:20:53Z</time>
      </trkpt>
      <trkpt lat="37.315893" lon="-3.103263">
        <ele>1049.000000</ele>
        <time>2019-05-09T07:20:54Z</time>
      </trkpt>
      <trkpt lat="37.315901" lon="-3.103278">
        <ele>1049.000000</ele>
        <time>2019-05-09T07:20:56Z</time>
      </trkpt>
      <trkpt lat="37.315908" lon="-3.103295">
        <ele>1049.000000</ele>
        <time>2019-05-09T07:20:56Z</time>
      </trkpt>
      <trkpt lat="37.315916" lon="-3.103313">
        <ele>1049.000000</ele>
        <time>2019-05-09T07:20:57Z</time>
      </trkpt>
      <trkpt lat="37.315924" lon="-3.103333">
        <ele>1049.000000</ele>
        <time>2019-05-09T07:20:58Z</time>
      </trkpt>
      <trkpt lat="37.315933" lon="-3.103357">
        <ele>1049.000000</ele>
        <time>2019-05-09T07:20:59Z</time>
      </trkpt>
      <trkpt lat="37.315940" lon="-3.103380">
        <ele>1048.000000</ele>
        <time>2019-05-09T07:21:00Z</time>
      </trkpt>
      <trkpt lat="37.315947" lon="-3.103403">
        <ele>1048.000000</ele>
        <time>2019-05-09T07:21:01Z</time>
      </trkpt>
      <trkpt lat="37.315954" lon="-3.103427">
        <ele>1048.000000</ele>
        <time>2019-05-09T07:21:02Z</time>
      </trkpt>
      <trkpt lat="37.315959" lon="-3.103450">
        <ele>1048.000000</ele>
        <time>2019-05-09T07:21:03Z</time>
      </trkpt>
      <trkpt lat="37.315966" lon="-3.103473">
        <ele>1048.000000</ele>
        <time>2019-05-09T07:21:04Z</time>
      </trkpt>
      <trkpt lat="37.315971" lon="-3.103495">
        <ele>1048.000000</ele>
        <time>2019-05-09T07:21:05Z</time>
      </trkpt>
      <trkpt lat="37.315975" lon="-3.103517">
        <ele>1048.000000</ele>
        <time>2019-05-09T07:21:06Z</time>
      </trkpt>
      <trkpt lat="37.315978" lon="-3.103535">
        <ele>1048.000000</ele>
        <time>2019-05-09T07:21:07Z</time>
      </trkpt>
      <trkpt lat="37.315982" lon="-3.103557">
        <ele>1047.000000</ele>
        <time>2019-05-09T07:21:08Z</time>
      </trkpt>
      <trkpt lat="37.315986" lon="-3.103577">
        <ele>1047.000000</ele>
        <time>2019-05-09T07:21:09Z</time>
      </trkpt>
      <trkpt lat="37.315988" lon="-3.103593">
        <ele>1047.000000</ele>
        <time>2019-05-09T07:21:10Z</time>
      </trkpt>
      <trkpt lat="37.315991" lon="-3.103612">
        <ele>1047.000000</ele>
        <time>2019-05-09T07:21:11Z</time>
      </trkpt>
      <trkpt lat="37.315993" lon="-3.103628">
        <ele>1047.000000</ele>
        <time>2019-05-09T07:21:12Z</time>
      </trkpt>
      <trkpt lat="37.315995" lon="-3.103645">
        <ele>1047.000000</ele>
        <time>2019-05-09T07:21:13Z</time>
      </trkpt>
      <trkpt lat="37.315997" lon="-3.103662">
        <ele>1047.000000</ele>
        <time>2019-05-09T07:21:14Z</time>
      </trkpt>
      <trkpt lat="37.316000" lon="-3.103682">
        <ele>1046.000000</ele>
        <time>2019-05-09T07:21:15Z</time>
      </trkpt>
      <trkpt lat="37.316000" lon="-3.103700">
        <ele>1046.000000</ele>
        <time>2019-05-09T07:21:17Z</time>
      </trkpt>
      <trkpt lat="37.316002" lon="-3.103722">
        <ele>1046.000000</ele>
        <time>2019-05-09T07:21:17Z</time>
      </trkpt>
      <trkpt lat="37.316006" lon="-3.103747">
        <ele>1046.000000</ele>
        <time>2019-05-09T07:21:18Z</time>
      </trkpt>
      <trkpt lat="37.316009" lon="-3.103770">
        <ele>1046.000000</ele>
        <time>2019-05-09T07:21:19Z</time>
      </trkpt>
      <trkpt lat="37.316012" lon="-3.103792">
        <ele>1046.000000</ele>
        <time>2019-05-09T07:21:20Z</time>
      </trkpt>
      <trkpt lat="37.316014" lon="-3.103812">
        <ele>1045.000000</ele>
        <time>2019-05-09T07:21:21Z</time>
      </trkpt>
      <trkpt lat="37.316019" lon="-3.103832">
        <ele>1045.000000</ele>
        <time>2019-05-09T07:21:22Z</time>
      </trkpt>
      <trkpt lat="37.316023" lon="-3.103853">
        <ele>1045.000000</ele>
        <time>2019-05-09T07:21:23Z</time>
      </trkpt>
      <trkpt lat="37.316027" lon="-3.103875">
        <ele>1045.000000</ele>
        <time>2019-05-09T07:21:24Z</time>
      </trkpt>
      <trkpt lat="37.316031" lon="-3.103897">
        <ele>1045.000000</ele>
        <time>2019-05-09T07:21:25Z</time>
      </trkpt>
      <trkpt lat="37.316034" lon="-3.103913">
        <ele>1044.000000</ele>
        <time>2019-05-09T07:21:26Z</time>
      </trkpt>
      <trkpt lat="37.316038" lon="-3.103932">
        <ele>1044.000000</ele>
        <time>2019-05-09T07:21:27Z</time>
      </trkpt>
      <trkpt lat="37.316043" lon="-3.103948">
        <ele>1044.000000</ele>
        <time>2019-05-09T07:21:28Z</time>
      </trkpt>
      <trkpt lat="37.316046" lon="-3.103963">
        <ele>1044.000000</ele>
        <time>2019-05-09T07:21:29Z</time>
      </trkpt>
      <trkpt lat="37.316050" lon="-3.103978">
        <ele>1044.000000</ele>
        <time>2019-05-09T07:21:30Z</time>
      </trkpt>
      <trkpt lat="37.316053" lon="-3.103995">
        <ele>1044.000000</ele>
        <time>2019-05-09T07:21:31Z</time>
      </trkpt>
      <trkpt lat="37.316059" lon="-3.104012">
        <ele>1044.000000</ele>
        <time>2019-05-09T07:21:32Z</time>
      </trkpt>
      <trkpt lat="37.316062" lon="-3.104028">
        <ele>1044.000000</ele>
        <time>2019-05-09T07:21:33Z</time>
      </trkpt>
      <trkpt lat="37.316067" lon="-3.104047">
        <ele>1044.000000</ele>
        <time>2019-05-09T07:21:34Z</time>
      </trkpt>
      <trkpt lat="37.316071" lon="-3.104067">
        <ele>1044.000000</ele>
        <time>2019-05-09T07:21:35Z</time>
      </trkpt>
      <trkpt lat="37.316076" lon="-3.104088">
        <ele>1044.000000</ele>
        <time>2019-05-09T07:21:36Z</time>
      </trkpt>
      <trkpt lat="37.316083" lon="-3.104112">
        <ele>1044.000000</ele>
        <time>2019-05-09T07:21:37Z</time>
      </trkpt>
      <trkpt lat="37.316088" lon="-3.104135">
        <ele>1044.000000</ele>
        <time>2019-05-09T07:21:38Z</time>
      </trkpt>
      <trkpt lat="37.316092" lon="-3.104158">
        <ele>1044.000000</ele>
        <time>2019-05-09T07:21:39Z</time>
      </trkpt>
      <trkpt lat="37.316098" lon="-3.104182">
        <ele>1044.000000</ele>
        <time>2019-05-09T07:21:40Z</time>
      </trkpt>
      <trkpt lat="37.316103" lon="-3.104203">
        <ele>1044.000000</ele>
        <time>2019-05-09T07:21:42Z</time>
      </trkpt>
      <trkpt lat="37.316108" lon="-3.104223">
        <ele>1044.000000</ele>
        <time>2019-05-09T07:21:42Z</time>
      </trkpt>
      <trkpt lat="37.316112" lon="-3.104242">
        <ele>1044.000000</ele>
        <time>2019-05-09T07:21:43Z</time>
      </trkpt>
      <trkpt lat="37.316116" lon="-3.104258">
        <ele>1044.000000</ele>
        <time>2019-05-09T07:21:44Z</time>
      </trkpt>
      <trkpt lat="37.316120" lon="-3.104277">
        <ele>1044.000000</ele>
        <time>2019-05-09T07:21:45Z</time>
      </trkpt>
      <trkpt lat="37.316125" lon="-3.104297">
        <ele>1044.000000</ele>
        <time>2019-05-09T07:21:46Z</time>
      </trkpt>
      <trkpt lat="37.316132" lon="-3.104318">
        <ele>1044.000000</ele>
        <time>2019-05-09T07:21:47Z</time>
      </trkpt>
      <trkpt lat="37.316136" lon="-3.104340">
        <ele>1044.000000</ele>
        <time>2019-05-09T07:21:48Z</time>
      </trkpt>
      <trkpt lat="37.316141" lon="-3.104363">
        <ele>1044.000000</ele>
        <time>2019-05-09T07:21:49Z</time>
      </trkpt>
      <trkpt lat="37.316146" lon="-3.104387">
        <ele>1043.000000</ele>
        <time>2019-05-09T07:21:50Z</time>
      </trkpt>
      <trkpt lat="37.316153" lon="-3.104410">
        <ele>1043.000000</ele>
        <time>2019-05-09T07:21:51Z</time>
      </trkpt>
      <trkpt lat="37.316158" lon="-3.104435">
        <ele>1043.000000</ele>
        <time>2019-05-09T07:21:52Z</time>
      </trkpt>
      <trkpt lat="37.316162" lon="-3.104457">
        <ele>1043.000000</ele>
        <time>2019-05-09T07:21:53Z</time>
      </trkpt>
      <trkpt lat="37.316165" lon="-3.104482">
        <ele>1043.000000</ele>
        <time>2019-05-09T07:21:54Z</time>
      </trkpt>
      <trkpt lat="37.316168" lon="-3.104500">
        <ele>1043.000000</ele>
        <time>2019-05-09T07:21:55Z</time>
      </trkpt>
      <trkpt lat="37.316172" lon="-3.104520">
        <ele>1042.000000</ele>
        <time>2019-05-09T07:21:56Z</time>
      </trkpt>
      <trkpt lat="37.316173" lon="-3.104538">
        <ele>1042.000000</ele>
        <time>2019-05-09T07:21:57Z</time>
      </trkpt>
      <trkpt lat="37.316176" lon="-3.104555">
        <ele>1042.000000</ele>
        <time>2019-05-09T07:21:58Z</time>
      </trkpt>
      <trkpt lat="37.316178" lon="-3.104575">
        <ele>1042.000000</ele>
        <time>2019-05-09T07:21:59Z</time>
      </trkpt>
      <trkpt lat="37.316181" lon="-3.104593">
        <ele>1042.000000</ele>
        <time>2019-05-09T07:22:00Z</time>
      </trkpt>
      <trkpt lat="37.316183" lon="-3.104613">
        <ele>1042.000000</ele>
        <time>2019-05-09T07:22:01Z</time>
      </trkpt>
      <trkpt lat="37.316187" lon="-3.104635">
        <ele>1042.000000</ele>
        <time>2019-05-09T07:22:02Z</time>
      </trkpt>
      <trkpt lat="37.316190" lon="-3.104657">
        <ele>1042.000000</ele>
        <time>2019-05-09T07:22:03Z</time>
      </trkpt>
      <trkpt lat="37.316192" lon="-3.104678">
        <ele>1042.000000</ele>
        <time>2019-05-09T07:22:04Z</time>
      </trkpt>
      <trkpt lat="37.316196" lon="-3.104702">
        <ele>1042.000000</ele>
        <time>2019-05-09T07:22:05Z</time>
      </trkpt>
      <trkpt lat="37.316199" lon="-3.104725">
        <ele>1042.000000</ele>
        <time>2019-05-09T07:22:06Z</time>
      </trkpt>
      <trkpt lat="37.316204" lon="-3.104748">
        <ele>1041.000000</ele>
        <time>2019-05-09T07:22:07Z</time>
      </trkpt>
      <trkpt lat="37.316207" lon="-3.104770">
        <ele>1041.000000</ele>
        <time>2019-05-09T07:22:08Z</time>
      </trkpt>
      <trkpt lat="37.316210" lon="-3.104792">
        <ele>1041.000000</ele>
        <time>2019-05-09T07:22:09Z</time>
      </trkpt>
      <trkpt lat="37.316215" lon="-3.104813">
        <ele>1041.000000</ele>
        <time>2019-05-09T07:22:10Z</time>
      </trkpt>
      <trkpt lat="37.316218" lon="-3.104832">
        <ele>1041.000000</ele>
        <time>2019-05-09T07:22:11Z</time>
      </trkpt>
      <trkpt lat="37.316220" lon="-3.104850">
        <ele>1041.000000</ele>
        <time>2019-05-09T07:22:12Z</time>
      </trkpt>
      <trkpt lat="37.316224" lon="-3.104867">
        <ele>1040.000000</ele>
        <time>2019-05-09T07:22:13Z</time>
      </trkpt>
      <trkpt lat="37.316227" lon="-3.104883">
        <ele>1040.000000</ele>
        <time>2019-05-09T07:22:14Z</time>
      </trkpt>
      <trkpt lat="37.316230" lon="-3.104905">
        <ele>1040.000000</ele>
        <time>2019-05-09T07:22:15Z</time>
      </trkpt>
      <trkpt lat="37.316234" lon="-3.104925">
        <ele>1040.000000</ele>
        <time>2019-05-09T07:22:16Z</time>
      </trkpt>
      <trkpt lat="37.316239" lon="-3.104948">
        <ele>1040.000000</ele>
        <time>2019-05-09T07:22:17Z</time>
      </trkpt>
      <trkpt lat="37.316243" lon="-3.104972">
        <ele>1040.000000</ele>
        <time>2019-05-09T07:22:18Z</time>
      </trkpt>
      <trkpt lat="37.316246" lon="-3.104997">
        <ele>1040.000000</ele>
        <time>2019-05-09T07:22:19Z</time>
      </trkpt>
      <trkpt lat="37.316250" lon="-3.105022">
        <ele>1040.000000</ele>
        <time>2019-05-09T07:22:20Z</time>
      </trkpt>
      <trkpt lat="37.316254" lon="-3.105045">
        <ele>1040.000000</ele>
        <time>2019-05-09T07:22:21Z</time>
      </trkpt>
      <trkpt lat="37.316256" lon="-3.105067">
        <ele>1040.000000</ele>
        <time>2019-05-09T07:22:22Z</time>
      </trkpt>
      <trkpt lat="37.316260" lon="-3.105085">
        <ele>1040.000000</ele>
        <time>2019-05-09T07:22:23Z</time>
      </trkpt>
      <trkpt lat="37.316261" lon="-3.105107">
        <ele>1040.000000</ele>
        <time>2019-05-09T07:22:24Z</time>
      </trkpt>
      <trkpt lat="37.316265" lon="-3.105125">
        <ele>1040.000000</ele>
        <time>2019-05-09T07:22:26Z</time>
      </trkpt>
      <trkpt lat="37.316267" lon="-3.105143">
        <ele>1039.000000</ele>
        <time>2019-05-09T07:22:26Z</time>
      </trkpt>
      <trkpt lat="37.316269" lon="-3.105165">
        <ele>1039.000000</ele>
        <time>2019-05-09T07:22:27Z</time>
      </trkpt>
      <trkpt lat="37.316272" lon="-3.105187">
        <ele>1039.000000</ele>
        <time>2019-05-09T07:22:28Z</time>
      </trkpt>
      <trkpt lat="37.316274" lon="-3.105210">
        <ele>1039.000000</ele>
        <time>2019-05-09T07:22:29Z</time>
      </trkpt>
      <trkpt lat="37.316277" lon="-3.105233">
        <ele>1039.000000</ele>
        <time>2019-05-09T07:22:30Z</time>
      </trkpt>
      <trkpt lat="37.316279" lon="-3.105258">
        <ele>1039.000000</ele>
        <time>2019-05-09T07:22:31Z</time>
      </trkpt>
      <trkpt lat="37.316280" lon="-3.105282">
        <ele>1039.000000</ele>
        <time>2019-05-09T07:22:32Z</time>
      </trkpt>
      <trkpt lat="37.316282" lon="-3.105302">
        <ele>1039.000000</ele>
        <time>2019-05-09T07:22:33Z</time>
      </trkpt>
      <trkpt lat="37.316282" lon="-3.105320">
        <ele>1039.000000</ele>
        <time>2019-05-09T07:22:34Z</time>
      </trkpt>
      <trkpt lat="37.316282" lon="-3.105338">
        <ele>1039.000000</ele>
        <time>2019-05-09T07:22:35Z</time>
      </trkpt>
      <trkpt lat="37.316282" lon="-3.105355">
        <ele>1039.000000</ele>
        <time>2019-05-09T07:22:36Z</time>
      </trkpt>
      <trkpt lat="37.316284" lon="-3.105373">
        <ele>1039.000000</ele>
        <time>2019-05-09T07:22:37Z</time>
      </trkpt>
      <trkpt lat="37.316284" lon="-3.105390">
        <ele>1039.000000</ele>
        <time>2019-05-09T07:22:38Z</time>
      </trkpt>
      <trkpt lat="37.316284" lon="-3.105410">
        <ele>1039.000000</ele>
        <time>2019-05-09T07:22:39Z</time>
      </trkpt>
      <trkpt lat="37.316286" lon="-3.105428">
        <ele>1039.000000</ele>
        <time>2019-05-09T07:22:40Z</time>
      </trkpt>
      <trkpt lat="37.316286" lon="-3.105450">
        <ele>1039.000000</ele>
        <time>2019-05-09T07:22:41Z</time>
      </trkpt>
      <trkpt lat="37.316287" lon="-3.105473">
        <ele>1039.000000</ele>
        <time>2019-05-09T07:22:42Z</time>
      </trkpt>
      <trkpt lat="37.316286" lon="-3.105498">
        <ele>1039.000000</ele>
        <time>2019-05-09T07:22:43Z</time>
      </trkpt>
      <trkpt lat="37.316287" lon="-3.105522">
        <ele>1039.000000</ele>
        <time>2019-05-09T07:22:44Z</time>
      </trkpt>
      <trkpt lat="37.316288" lon="-3.105547">
        <ele>1039.000000</ele>
        <time>2019-05-09T07:22:45Z</time>
      </trkpt>
      <trkpt lat="37.316288" lon="-3.105568">
        <ele>1039.000000</ele>
        <time>2019-05-09T07:22:46Z</time>
      </trkpt>
      <trkpt lat="37.316287" lon="-3.105588">
        <ele>1038.000000</ele>
        <time>2019-05-09T07:22:47Z</time>
      </trkpt>
      <trkpt lat="37.316287" lon="-3.105608">
        <ele>1038.000000</ele>
        <time>2019-05-09T07:22:48Z</time>
      </trkpt>
      <trkpt lat="37.316287" lon="-3.105625">
        <ele>1038.000000</ele>
        <time>2019-05-09T07:22:49Z</time>
      </trkpt>
      <trkpt lat="37.316287" lon="-3.105640">
        <ele>1038.000000</ele>
        <time>2019-05-09T07:22:51Z</time>
      </trkpt>
      <trkpt lat="37.316287" lon="-3.105655">
        <ele>1038.000000</ele>
        <time>2019-05-09T07:22:51Z</time>
      </trkpt>
      <trkpt lat="37.316287" lon="-3.105672">
        <ele>1038.000000</ele>
        <time>2019-05-09T07:22:52Z</time>
      </trkpt>
      <trkpt lat="37.316288" lon="-3.105688">
        <ele>1038.000000</ele>
        <time>2019-05-09T07:22:53Z</time>
      </trkpt>
      <trkpt lat="37.316290" lon="-3.105705">
        <ele>1038.000000</ele>
        <time>2019-05-09T07:22:54Z</time>
      </trkpt>
      <trkpt lat="37.316293" lon="-3.105725">
        <ele>1038.000000</ele>
        <time>2019-05-09T07:22:54Z</time>
      </trkpt>
      <trkpt lat="37.316295" lon="-3.105747">
        <ele>1038.000000</ele>
        <time>2019-05-09T07:22:55Z</time>
      </trkpt>
      <trkpt lat="37.316298" lon="-3.105770">
        <ele>1038.000000</ele>
        <time>2019-05-09T07:22:56Z</time>
      </trkpt>
      <trkpt lat="37.316300" lon="-3.105792">
        <ele>1037.000000</ele>
        <time>2019-05-09T07:22:57Z</time>
      </trkpt>
      <trkpt lat="37.316305" lon="-3.105815">
        <ele>1037.000000</ele>
        <time>2019-05-09T07:22:58Z</time>
      </trkpt>
      <trkpt lat="37.316309" lon="-3.105838">
        <ele>1037.000000</ele>
        <time>2019-05-09T07:22:59Z</time>
      </trkpt>
      <trkpt lat="37.316314" lon="-3.105862">
        <ele>1037.000000</ele>
        <time>2019-05-09T07:23:00Z</time>
      </trkpt>
      <trkpt lat="37.316318" lon="-3.105882">
        <ele>1037.000000</ele>
        <time>2019-05-09T07:23:01Z</time>
      </trkpt>
      <trkpt lat="37.316323" lon="-3.105900">
        <ele>1037.000000</ele>
        <time>2019-05-09T07:23:02Z</time>
      </trkpt>
      <trkpt lat="37.316329" lon="-3.105920">
        <ele>1037.000000</ele>
        <time>2019-05-09T07:23:03Z</time>
      </trkpt>
      <trkpt lat="37.316333" lon="-3.105940">
        <ele>1037.000000</ele>
        <time>2019-05-09T07:23:04Z</time>
      </trkpt>
      <trkpt lat="37.316340" lon="-3.105958">
        <ele>1037.000000</ele>
        <time>2019-05-09T07:23:05Z</time>
      </trkpt>
      <trkpt lat="37.316344" lon="-3.105977">
        <ele>1037.000000</ele>
        <time>2019-05-09T07:23:06Z</time>
      </trkpt>
      <trkpt lat="37.316348" lon="-3.105997">
        <ele>1037.000000</ele>
        <time>2019-05-09T07:23:07Z</time>
      </trkpt>
      <trkpt lat="37.316355" lon="-3.106017">
        <ele>1037.000000</ele>
        <time>2019-05-09T07:23:08Z</time>
      </trkpt>
      <trkpt lat="37.316360" lon="-3.106038">
        <ele>1037.000000</ele>
        <time>2019-05-09T07:23:09Z</time>
      </trkpt>
      <trkpt lat="37.316364" lon="-3.106060">
        <ele>1037.000000</ele>
        <time>2019-05-09T07:23:11Z</time>
      </trkpt>
      <trkpt lat="37.316371" lon="-3.106083">
        <ele>1037.000000</ele>
        <time>2019-05-09T07:23:11Z</time>
      </trkpt>
      <trkpt lat="37.316376" lon="-3.106108">
        <ele>1037.000000</ele>
        <time>2019-05-09T07:23:12Z</time>
      </trkpt>
      <trkpt lat="37.316382" lon="-3.106133">
        <ele>1037.000000</ele>
        <time>2019-05-09T07:23:13Z</time>
      </trkpt>
      <trkpt lat="37.316386" lon="-3.106157">
        <ele>1037.000000</ele>
        <time>2019-05-09T07:23:14Z</time>
      </trkpt>
      <trkpt lat="37.316391" lon="-3.106180">
        <ele>1037.000000</ele>
        <time>2019-05-09T07:23:15Z</time>
      </trkpt>
      <trkpt lat="37.316394" lon="-3.106202">
        <ele>1037.000000</ele>
        <time>2019-05-09T07:23:16Z</time>
      </trkpt>
      <trkpt lat="37.316398" lon="-3.106223">
        <ele>1037.000000</ele>
        <time>2019-05-09T07:23:17Z</time>
      </trkpt>
      <trkpt lat="37.316401" lon="-3.106243">
        <ele>1037.000000</ele>
        <time>2019-05-09T07:23:18Z</time>
      </trkpt>
      <trkpt lat="37.316403" lon="-3.106262">
        <ele>1037.000000</ele>
        <time>2019-05-09T07:23:19Z</time>
      </trkpt>
      <trkpt lat="37.316405" lon="-3.106280">
        <ele>1037.000000</ele>
        <time>2019-05-09T07:23:20Z</time>
      </trkpt>
      <trkpt lat="37.316407" lon="-3.106297">
        <ele>1037.000000</ele>
        <time>2019-05-09T07:23:21Z</time>
      </trkpt>
      <trkpt lat="37.316406" lon="-3.106312">
        <ele>1037.000000</ele>
        <time>2019-05-09T07:23:22Z</time>
      </trkpt>
      <trkpt lat="37.316407" lon="-3.106330">
        <ele>1037.000000</ele>
        <time>2019-05-09T07:23:23Z</time>
      </trkpt>
      <trkpt lat="37.316409" lon="-3.106348">
        <ele>1037.000000</ele>
        <time>2019-05-09T07:23:24Z</time>
      </trkpt>
      <trkpt lat="37.316409" lon="-3.106368">
        <ele>1037.000000</ele>
        <time>2019-05-09T07:23:25Z</time>
      </trkpt>
      <trkpt lat="37.316410" lon="-3.106388">
        <ele>1037.000000</ele>
        <time>2019-05-09T07:23:26Z</time>
      </trkpt>
      <trkpt lat="37.316411" lon="-3.106408">
        <ele>1037.000000</ele>
        <time>2019-05-09T07:23:27Z</time>
      </trkpt>
      <trkpt lat="37.316414" lon="-3.106432">
        <ele>1037.000000</ele>
        <time>2019-05-09T07:23:28Z</time>
      </trkpt>
      <trkpt lat="37.316414" lon="-3.106452">
        <ele>1037.000000</ele>
        <time>2019-05-09T07:23:29Z</time>
      </trkpt>
      <trkpt lat="37.316414" lon="-3.106470">
        <ele>1037.000000</ele>
        <time>2019-05-09T07:23:30Z</time>
      </trkpt>
      <trkpt lat="37.316416" lon="-3.106493">
        <ele>1037.000000</ele>
        <time>2019-05-09T07:23:31Z</time>
      </trkpt>
      <trkpt lat="37.316415" lon="-3.106513">
        <ele>1036.000000</ele>
        <time>2019-05-09T07:23:32Z</time>
      </trkpt>
      <trkpt lat="37.316416" lon="-3.106537">
        <ele>1036.000000</ele>
        <time>2019-05-09T07:23:33Z</time>
      </trkpt>
      <trkpt lat="37.316416" lon="-3.106557">
        <ele>1036.000000</ele>
        <time>2019-05-09T07:23:35Z</time>
      </trkpt>
      <trkpt lat="37.316417" lon="-3.106577">
        <ele>1036.000000</ele>
        <time>2019-05-09T07:23:35Z</time>
      </trkpt>
      <trkpt lat="37.316418" lon="-3.106597">
        <ele>1036.000000</ele>
        <time>2019-05-09T07:23:36Z</time>
      </trkpt>
      <trkpt lat="37.316417" lon="-3.106617">
        <ele>1035.000000</ele>
        <time>2019-05-09T07:23:37Z</time>
      </trkpt>
      <trkpt lat="37.316417" lon="-3.106633">
        <ele>1035.000000</ele>
        <time>2019-05-09T07:23:38Z</time>
      </trkpt>
      <trkpt lat="37.316417" lon="-3.106652">
        <ele>1035.000000</ele>
        <time>2019-05-09T07:23:39Z</time>
      </trkpt>
      <trkpt lat="37.316418" lon="-3.106675">
        <ele>1035.000000</ele>
        <time>2019-05-09T07:23:40Z</time>
      </trkpt>
      <trkpt lat="37.316416" lon="-3.106698">
        <ele>1034.000000</ele>
        <time>2019-05-09T07:23:41Z</time>
      </trkpt>
      <trkpt lat="37.316417" lon="-3.106725">
        <ele>1034.000000</ele>
        <time>2019-05-09T07:23:42Z</time>
      </trkpt>
      <trkpt lat="37.316417" lon="-3.106750">
        <ele>1034.000000</ele>
        <time>2019-05-09T07:23:43Z</time>
      </trkpt>
      <trkpt lat="37.316415" lon="-3.106772">
        <ele>1034.000000</ele>
        <time>2019-05-09T07:23:44Z</time>
      </trkpt>
      <trkpt lat="37.316415" lon="-3.106793">
        <ele>1033.000000</ele>
        <time>2019-05-09T07:23:45Z</time>
      </trkpt>
      <trkpt lat="37.316414" lon="-3.106813">
        <ele>1033.000000</ele>
        <time>2019-05-09T07:23:46Z</time>
      </trkpt>
      <trkpt lat="37.316414" lon="-3.106833">
        <ele>1033.000000</ele>
        <time>2019-05-09T07:23:47Z</time>
      </trkpt>
      <trkpt lat="37.316413" lon="-3.106852">
        <ele>1033.000000</ele>
        <time>2019-05-09T07:23:48Z</time>
      </trkpt>
      <trkpt lat="37.316412" lon="-3.106872">
        <ele>1033.000000</ele>
        <time>2019-05-09T07:23:49Z</time>
      </trkpt>
      <trkpt lat="37.316411" lon="-3.106893">
        <ele>1033.000000</ele>
        <time>2019-05-09T07:23:50Z</time>
      </trkpt>
      <trkpt lat="37.316413" lon="-3.106917">
        <ele>1033.000000</ele>
        <time>2019-05-09T07:23:51Z</time>
      </trkpt>
      <trkpt lat="37.316412" lon="-3.106942">
        <ele>1033.000000</ele>
        <time>2019-05-09T07:23:52Z</time>
      </trkpt>
      <trkpt lat="37.316413" lon="-3.106965">
        <ele>1032.000000</ele>
        <time>2019-05-09T07:23:53Z</time>
      </trkpt>
      <trkpt lat="37.316412" lon="-3.106987">
        <ele>1032.000000</ele>
        <time>2019-05-09T07:23:54Z</time>
      </trkpt>
      <trkpt lat="37.316412" lon="-3.107007">
        <ele>1032.000000</ele>
        <time>2019-05-09T07:23:55Z</time>
      </trkpt>
      <trkpt lat="37.316413" lon="-3.107027">
        <ele>1032.000000</ele>
        <time>2019-05-09T07:23:56Z</time>
      </trkpt>
      <trkpt lat="37.316412" lon="-3.107050">
        <ele>1031.000000</ele>
        <time>2019-05-09T07:23:57Z</time>
      </trkpt>
      <trkpt lat="37.316412" lon="-3.107075">
        <ele>1031.000000</ele>
        <time>2019-05-09T07:23:58Z</time>
      </trkpt>
      <trkpt lat="37.316411" lon="-3.107098">
        <ele>1031.000000</ele>
        <time>2019-05-09T07:24:00Z</time>
      </trkpt>
      <trkpt lat="37.316411" lon="-3.107118">
        <ele>1030.000000</ele>
        <time>2019-05-09T07:24:00Z</time>
      </trkpt>
      <trkpt lat="37.316411" lon="-3.107138">
        <ele>1030.000000</ele>
        <time>2019-05-09T07:24:01Z</time>
      </trkpt>
      <trkpt lat="37.316410" lon="-3.107157">
        <ele>1030.000000</ele>
        <time>2019-05-09T07:24:02Z</time>
      </trkpt>
      <trkpt lat="37.316410" lon="-3.107175">
        <ele>1030.000000</ele>
        <time>2019-05-09T07:24:03Z</time>
      </trkpt>
      <trkpt lat="37.316410" lon="-3.107193">
        <ele>1030.000000</ele>
        <time>2019-05-09T07:24:04Z</time>
      </trkpt>
      <trkpt lat="37.316411" lon="-3.107212">
        <ele>1029.000000</ele>
        <time>2019-05-09T07:24:05Z</time>
      </trkpt>
      <trkpt lat="37.316411" lon="-3.107232">
        <ele>1029.000000</ele>
        <time>2019-05-09T07:24:06Z</time>
      </trkpt>
      <trkpt lat="37.316412" lon="-3.107255">
        <ele>1029.000000</ele>
        <time>2019-05-09T07:24:07Z</time>
      </trkpt>
      <trkpt lat="37.316410" lon="-3.107277">
        <ele>1029.000000</ele>
        <time>2019-05-09T07:24:08Z</time>
      </trkpt>
      <trkpt lat="37.316411" lon="-3.107300">
        <ele>1029.000000</ele>
        <time>2019-05-09T07:24:09Z</time>
      </trkpt>
      <trkpt lat="37.316410" lon="-3.107325">
        <ele>1029.000000</ele>
        <time>2019-05-09T07:24:10Z</time>
      </trkpt>
      <trkpt lat="37.316410" lon="-3.107347">
        <ele>1029.000000</ele>
        <time>2019-05-09T07:24:11Z</time>
      </trkpt>
      <trkpt lat="37.316408" lon="-3.107370">
        <ele>1028.000000</ele>
        <time>2019-05-09T07:24:12Z</time>
      </trkpt>
      <trkpt lat="37.316407" lon="-3.107390">
        <ele>1028.000000</ele>
        <time>2019-05-09T07:24:13Z</time>
      </trkpt>
      <trkpt lat="37.316405" lon="-3.107408">
        <ele>1028.000000</ele>
        <time>2019-05-09T07:24:14Z</time>
      </trkpt>
      <trkpt lat="37.316403" lon="-3.107428">
        <ele>1028.000000</ele>
        <time>2019-05-09T07:24:15Z</time>
      </trkpt>
      <trkpt lat="37.316403" lon="-3.107447">
        <ele>1028.000000</ele>
        <time>2019-05-09T07:24:16Z</time>
      </trkpt>
      <trkpt lat="37.316403" lon="-3.107467">
        <ele>1028.000000</ele>
        <time>2019-05-09T07:24:17Z</time>
      </trkpt>
      <trkpt lat="37.316401" lon="-3.107488">
        <ele>1028.000000</ele>
        <time>2019-05-09T07:24:18Z</time>
      </trkpt>
      <trkpt lat="37.316399" lon="-3.107508">
        <ele>1028.000000</ele>
        <time>2019-05-09T07:24:19Z</time>
      </trkpt>
      <trkpt lat="37.316399" lon="-3.107532">
        <ele>1028.000000</ele>
        <time>2019-05-09T07:24:21Z</time>
      </trkpt>
      <trkpt lat="37.316397" lon="-3.107557">
        <ele>1028.000000</ele>
        <time>2019-05-09T07:24:21Z</time>
      </trkpt>
      <trkpt lat="37.316397" lon="-3.107580">
        <ele>1028.000000</ele>
        <time>2019-05-09T07:24:22Z</time>
      </trkpt>
      <trkpt lat="37.316396" lon="-3.107602">
        <ele>1028.000000</ele>
        <time>2019-05-09T07:24:23Z</time>
      </trkpt>
      <trkpt lat="37.316396" lon="-3.107620">
        <ele>1027.000000</ele>
        <time>2019-05-09T07:24:24Z</time>
      </trkpt>
      <trkpt lat="37.316396" lon="-3.107637">
        <ele>1027.000000</ele>
        <time>2019-05-09T07:24:25Z</time>
      </trkpt>
      <trkpt lat="37.316399" lon="-3.107652">
        <ele>1027.000000</ele>
        <time>2019-05-09T07:24:26Z</time>
      </trkpt>
      <trkpt lat="37.316401" lon="-3.107663">
        <ele>1027.000000</ele>
        <time>2019-05-09T07:24:27Z</time>
      </trkpt>
      <trkpt lat="37.316435" lon="-3.107678">
        <ele>1027.000000</ele>
        <time>2019-05-09T07:24:28Z</time>
      </trkpt>
      <trkpt lat="37.316443" lon="-3.107695">
        <ele>1027.000000</ele>
        <time>2019-05-09T07:24:29Z</time>
      </trkpt>
      <trkpt lat="37.316450" lon="-3.107712">
        <ele>1027.000000</ele>
        <time>2019-05-09T07:24:30Z</time>
      </trkpt>
      <trkpt lat="37.316455" lon="-3.107733">
        <ele>1027.000000</ele>
        <time>2019-05-09T07:24:31Z</time>
      </trkpt>
      <trkpt lat="37.316458" lon="-3.107755">
        <ele>1027.000000</ele>
        <time>2019-05-09T07:24:32Z</time>
      </trkpt>
      <trkpt lat="37.316461" lon="-3.107777">
        <ele>1027.000000</ele>
        <time>2019-05-09T07:24:33Z</time>
      </trkpt>
      <trkpt lat="37.316465" lon="-3.107802">
        <ele>1027.000000</ele>
        <time>2019-05-09T07:24:34Z</time>
      </trkpt>
      <trkpt lat="37.316468" lon="-3.107823">
        <ele>1027.000000</ele>
        <time>2019-05-09T07:24:35Z</time>
      </trkpt>
      <trkpt lat="37.316471" lon="-3.107845">
        <ele>1027.000000</ele>
        <time>2019-05-09T07:24:36Z</time>
      </trkpt>
      <trkpt lat="37.316473" lon="-3.107868">
        <ele>1026.000000</ele>
        <time>2019-05-09T07:24:37Z</time>
      </trkpt>
      <trkpt lat="37.316475" lon="-3.107890">
        <ele>1026.000000</ele>
        <time>2019-05-09T07:24:38Z</time>
      </trkpt>
      <trkpt lat="37.316476" lon="-3.107912">
        <ele>1026.000000</ele>
        <time>2019-05-09T07:24:39Z</time>
      </trkpt>
      <trkpt lat="37.316477" lon="-3.107928">
        <ele>1026.000000</ele>
        <time>2019-05-09T07:24:40Z</time>
      </trkpt>
      <trkpt lat="37.316479" lon="-3.107945">
        <ele>1026.000000</ele>
        <time>2019-05-09T07:24:41Z</time>
      </trkpt>
      <trkpt lat="37.316481" lon="-3.107963">
        <ele>1026.000000</ele>
        <time>2019-05-09T07:24:42Z</time>
      </trkpt>
      <trkpt lat="37.316482" lon="-3.107983">
        <ele>1026.000000</ele>
        <time>2019-05-09T07:24:43Z</time>
      </trkpt>
      <trkpt lat="37.316484" lon="-3.108003">
        <ele>1026.000000</ele>
        <time>2019-05-09T07:24:45Z</time>
      </trkpt>
      <trkpt lat="37.316486" lon="-3.108028">
        <ele>1026.000000</ele>
        <time>2019-05-09T07:24:45Z</time>
      </trkpt>
      <trkpt lat="37.316487" lon="-3.108052">
        <ele>1026.000000</ele>
        <time>2019-05-09T07:24:46Z</time>
      </trkpt>
      <trkpt lat="37.316487" lon="-3.108077">
        <ele>1026.000000</ele>
        <time>2019-05-09T07:24:47Z</time>
      </trkpt>
      <trkpt lat="37.316487" lon="-3.108102">
        <ele>1026.000000</ele>
        <time>2019-05-09T07:24:48Z</time>
      </trkpt>
      <trkpt lat="37.316485" lon="-3.108125">
        <ele>1026.000000</ele>
        <time>2019-05-09T07:24:49Z</time>
      </trkpt>
      <trkpt lat="37.316483" lon="-3.108145">
        <ele>1026.000000</ele>
        <time>2019-05-09T07:24:50Z</time>
      </trkpt>
      <trkpt lat="37.316479" lon="-3.108163">
        <ele>1026.000000</ele>
        <time>2019-05-09T07:24:51Z</time>
      </trkpt>
      <trkpt lat="37.316447" lon="-3.108180">
        <ele>1026.000000</ele>
        <time>2019-05-09T07:24:52Z</time>
      </trkpt>
      <trkpt lat="37.316441" lon="-3.108198">
        <ele>1026.000000</ele>
        <time>2019-05-09T07:24:53Z</time>
      </trkpt>
      <trkpt lat="37.316435" lon="-3.108213">
        <ele>1026.000000</ele>
        <time>2019-05-09T07:24:54Z</time>
      </trkpt>
      <trkpt lat="37.316430" lon="-3.108228">
        <ele>1026.000000</ele>
        <time>2019-05-09T07:24:55Z</time>
      </trkpt>
      <trkpt lat="37.316425" lon="-3.108243">
        <ele>1026.000000</ele>
        <time>2019-05-09T07:24:56Z</time>
      </trkpt>
      <trkpt lat="37.316420" lon="-3.108260">
        <ele>1026.000000</ele>
        <time>2019-05-09T07:24:57Z</time>
      </trkpt>
      <trkpt lat="37.316418" lon="-3.108282">
        <ele>1026.000000</ele>
        <time>2019-05-09T07:24:58Z</time>
      </trkpt>
      <trkpt lat="37.316417" lon="-3.108303">
        <ele>1026.000000</ele>
        <time>2019-05-09T07:24:59Z</time>
      </trkpt>
      <trkpt lat="37.316417" lon="-3.108327">
        <ele>1026.000000</ele>
        <time>2019-05-09T07:25:00Z</time>
      </trkpt>
      <trkpt lat="37.316417" lon="-3.108352">
        <ele>1026.000000</ele>
        <time>2019-05-09T07:25:01Z</time>
      </trkpt>
      <trkpt lat="37.316417" lon="-3.108373">
        <ele>1026.000000</ele>
        <time>2019-05-09T07:25:02Z</time>
      </trkpt>
      <trkpt lat="37.316416" lon="-3.108395">
        <ele>1026.000000</ele>
        <time>2019-05-09T07:25:03Z</time>
      </trkpt>
      <trkpt lat="37.316415" lon="-3.108415">
        <ele>1026.000000</ele>
        <time>2019-05-09T07:25:04Z</time>
      </trkpt>
      <trkpt lat="37.316413" lon="-3.108432">
        <ele>1026.000000</ele>
        <time>2019-05-09T07:25:06Z</time>
      </trkpt>
      <trkpt lat="37.316410" lon="-3.108452">
        <ele>1026.000000</ele>
        <time>2019-05-09T07:25:07Z</time>
      </trkpt>
      <trkpt lat="37.316407" lon="-3.108473">
        <ele>1026.000000</ele>
        <time>2019-05-09T07:25:07Z</time>
      </trkpt>
      <trkpt lat="37.316404" lon="-3.108492">
        <ele>1026.000000</ele>
        <time>2019-05-09T07:25:09Z</time>
      </trkpt>
      <trkpt lat="37.316402" lon="-3.108508">
        <ele>1025.000000</ele>
        <time>2019-05-09T07:25:09Z</time>
      </trkpt>
      <trkpt lat="37.316400" lon="-3.108528">
        <ele>1025.000000</ele>
        <time>2019-05-09T07:25:10Z</time>
      </trkpt>
      <trkpt lat="37.316398" lon="-3.108547">
        <ele>1025.000000</ele>
        <time>2019-05-09T07:25:11Z</time>
      </trkpt>
      <trkpt lat="37.316398" lon="-3.108563">
        <ele>1025.000000</ele>
        <time>2019-05-09T07:25:12Z</time>
      </trkpt>
      <trkpt lat="37.316397" lon="-3.108583">
        <ele>1025.000000</ele>
        <time>2019-05-09T07:25:13Z</time>
      </trkpt>
      <trkpt lat="37.316398" lon="-3.108600">
        <ele>1025.000000</ele>
        <time>2019-05-09T07:25:14Z</time>
      </trkpt>
      <trkpt lat="37.316401" lon="-3.108617">
        <ele>1025.000000</ele>
        <time>2019-05-09T07:25:16Z</time>
      </trkpt>
      <trkpt lat="37.316433" lon="-3.108632">
        <ele>1025.000000</ele>
        <time>2019-05-09T07:25:17Z</time>
      </trkpt>
      <trkpt lat="37.316445" lon="-3.108640">
        <ele>1025.000000</ele>
        <time>2019-05-09T07:25:17Z</time>
      </trkpt>
      <trkpt lat="37.316460" lon="-3.108648">
        <ele>1025.000000</ele>
        <time>2019-05-09T07:25:18Z</time>
      </trkpt>
      <trkpt lat="37.316473" lon="-3.108662">
        <ele>1024.000000</ele>
        <time>2019-05-09T07:25:19Z</time>
      </trkpt>
      <trkpt lat="37.316488" lon="-3.108672">
        <ele>1024.000000</ele>
        <time>2019-05-09T07:25:20Z</time>
      </trkpt>
      <trkpt lat="37.316502" lon="-3.108680">
        <ele>1024.000000</ele>
        <time>2019-05-09T07:25:21Z</time>
      </trkpt>
      <trkpt lat="37.316522" lon="-3.108692">
        <ele>1024.000000</ele>
        <time>2019-05-09T07:25:22Z</time>
      </trkpt>
      <trkpt lat="37.316535" lon="-3.108703">
        <ele>1024.000000</ele>
        <time>2019-05-09T07:25:23Z</time>
      </trkpt>
      <trkpt lat="37.316545" lon="-3.108715">
        <ele>1024.000000</ele>
        <time>2019-05-09T07:25:24Z</time>
      </trkpt>
      <trkpt lat="37.316555" lon="-3.108726">
        <ele>1023.000000</ele>
        <time>2019-05-09T07:25:25Z</time>
      </trkpt>
      <trkpt lat="37.316563" lon="-3.108738">
        <ele>1023.000000</ele>
        <time>2019-05-09T07:25:26Z</time>
      </trkpt>
      <trkpt lat="37.316568" lon="-3.108758">
        <ele>1023.000000</ele>
        <time>2019-05-09T07:25:27Z</time>
      </trkpt>
      <trkpt lat="37.316570" lon="-3.108778">
        <ele>1023.000000</ele>
        <time>2019-05-09T07:25:28Z</time>
      </trkpt>
      <trkpt lat="37.316570" lon="-3.108802">
        <ele>1023.000000</ele>
        <time>2019-05-09T07:25:30Z</time>
      </trkpt>
      <trkpt lat="37.316568" lon="-3.108822">
        <ele>1023.000000</ele>
        <time>2019-05-09T07:25:31Z</time>
      </trkpt>
      <trkpt lat="37.316563" lon="-3.108845">
        <ele>1023.000000</ele>
        <time>2019-05-09T07:25:32Z</time>
      </trkpt>
      <trkpt lat="37.316557" lon="-3.108868">
        <ele>1023.000000</ele>
        <time>2019-05-09T07:25:32Z</time>
      </trkpt>
      <trkpt lat="37.316550" lon="-3.108895">
        <ele>1023.000000</ele>
        <time>2019-05-09T07:25:33Z</time>
      </trkpt>
      <trkpt lat="37.316542" lon="-3.108918">
        <ele>1023.000000</ele>
        <time>2019-05-09T07:25:34Z</time>
      </trkpt>
      <trkpt lat="37.316533" lon="-3.108938">
        <ele>1023.000000</ele>
        <time>2019-05-09T07:25:35Z</time>
      </trkpt>
      <trkpt lat="37.316525" lon="-3.108962">
        <ele>1023.000000</ele>
        <time>2019-05-09T07:25:37Z</time>
      </trkpt>
      <trkpt lat="37.316517" lon="-3.108980">
        <ele>1023.000000</ele>
        <time>2019-05-09T07:25:37Z</time>
      </trkpt>
      <trkpt lat="37.316510" lon="-3.109000">
        <ele>1023.000000</ele>
        <time>2019-05-09T07:25:38Z</time>
      </trkpt>
      <trkpt lat="37.316502" lon="-3.109020">
        <ele>1023.000000</ele>
        <time>2019-05-09T07:25:39Z</time>
      </trkpt>
      <trkpt lat="37.316496" lon="-3.109038">
        <ele>1023.000000</ele>
        <time>2019-05-09T07:25:40Z</time>
      </trkpt>
      <trkpt lat="37.316493" lon="-3.109055">
        <ele>1023.000000</ele>
        <time>2019-05-09T07:25:41Z</time>
      </trkpt>
      <trkpt lat="37.316491" lon="-3.109072">
        <ele>1023.000000</ele>
        <time>2019-05-09T07:25:42Z</time>
      </trkpt>
      <trkpt lat="37.316492" lon="-3.109087">
        <ele>1023.000000</ele>
        <time>2019-05-09T07:25:43Z</time>
      </trkpt>
      <trkpt lat="37.316492" lon="-3.109102">
        <ele>1023.000000</ele>
        <time>2019-05-09T07:25:44Z</time>
      </trkpt>
      <trkpt lat="37.316493" lon="-3.109117">
        <ele>1022.000000</ele>
        <time>2019-05-09T07:25:45Z</time>
      </trkpt>
      <trkpt lat="37.316496" lon="-3.109133">
        <ele>1022.000000</ele>
        <time>2019-05-09T07:25:46Z</time>
      </trkpt>
      <trkpt lat="37.316510" lon="-3.109150">
        <ele>1022.000000</ele>
        <time>2019-05-09T07:25:47Z</time>
      </trkpt>
      <trkpt lat="37.316517" lon="-3.109168">
        <ele>1022.000000</ele>
        <time>2019-05-09T07:25:48Z</time>
      </trkpt>
      <trkpt lat="37.316525" lon="-3.109187">
        <ele>1022.000000</ele>
        <time>2019-05-09T07:25:49Z</time>
      </trkpt>
      <trkpt lat="37.316533" lon="-3.109208">
        <ele>1022.000000</ele>
        <time>2019-05-09T07:25:50Z</time>
      </trkpt>
      <trkpt lat="37.316539" lon="-3.109232">
        <ele>1022.000000</ele>
        <time>2019-05-09T07:25:51Z</time>
      </trkpt>
      <trkpt lat="37.316543" lon="-3.109257">
        <ele>1022.000000</ele>
        <time>2019-05-09T07:25:52Z</time>
      </trkpt>
      <trkpt lat="37.316546" lon="-3.109285">
        <ele>1022.000000</ele>
        <time>2019-05-09T07:25:53Z</time>
      </trkpt>
      <trkpt lat="37.316545" lon="-3.109312">
        <ele>1022.000000</ele>
        <time>2019-05-09T07:25:55Z</time>
      </trkpt>
      <trkpt lat="37.316543" lon="-3.109337">
        <ele>1022.000000</ele>
        <time>2019-05-09T07:25:55Z</time>
      </trkpt>
      <trkpt lat="37.316528" lon="-3.109357">
        <ele>1022.000000</ele>
        <time>2019-05-09T07:25:56Z</time>
      </trkpt>
      <trkpt lat="37.316520" lon="-3.109385">
        <ele>1021.000000</ele>
        <time>2019-05-09T07:25:57Z</time>
      </trkpt>
      <trkpt lat="37.316505" lon="-3.109400">
        <ele>1021.000000</ele>
        <time>2019-05-09T07:25:58Z</time>
      </trkpt>
      <trkpt lat="37.316495" lon="-3.109420">
        <ele>1021.000000</ele>
        <time>2019-05-09T07:25:59Z</time>
      </trkpt>
      <trkpt lat="37.316487" lon="-3.109435">
        <ele>1021.000000</ele>
        <time>2019-05-09T07:26:00Z</time>
      </trkpt>
      <trkpt lat="37.316477" lon="-3.109448">
        <ele>1021.000000</ele>
        <time>2019-05-09T07:26:01Z</time>
      </trkpt>
      <trkpt lat="37.316468" lon="-3.109462">
        <ele>1021.000000</ele>
        <time>2019-05-09T07:26:02Z</time>
      </trkpt>
      <trkpt lat="37.316460" lon="-3.109478">
        <ele>1020.000000</ele>
        <time>2019-05-09T07:26:03Z</time>
      </trkpt>
      <trkpt lat="37.316456" lon="-3.109495">
        <ele>1020.000000</ele>
        <time>2019-05-09T07:26:04Z</time>
      </trkpt>
      <trkpt lat="37.316454" lon="-3.109512">
        <ele>1020.000000</ele>
        <time>2019-05-09T07:26:05Z</time>
      </trkpt>
      <trkpt lat="37.316450" lon="-3.109530">
        <ele>1020.000000</ele>
        <time>2019-05-09T07:26:06Z</time>
      </trkpt>
      <trkpt lat="37.316446" lon="-3.109550">
        <ele>1020.000000</ele>
        <time>2019-05-09T07:26:07Z</time>
      </trkpt>
      <trkpt lat="37.316443" lon="-3.109572">
        <ele>1020.000000</ele>
        <time>2019-05-09T07:26:08Z</time>
      </trkpt>
      <trkpt lat="37.316442" lon="-3.109592">
        <ele>1020.000000</ele>
        <time>2019-05-09T07:26:09Z</time>
      </trkpt>
      <trkpt lat="37.316442" lon="-3.109610">
        <ele>1020.000000</ele>
        <time>2019-05-09T07:26:10Z</time>
      </trkpt>
      <trkpt lat="37.316444" lon="-3.109632">
        <ele>1020.000000</ele>
        <time>2019-05-09T07:26:11Z</time>
      </trkpt>
      <trkpt lat="37.316462" lon="-3.109650">
        <ele>1020.000000</ele>
        <time>2019-05-09T07:26:12Z</time>
      </trkpt>
      <trkpt lat="37.316472" lon="-3.109665">
        <ele>1020.000000</ele>
        <time>2019-05-09T07:26:13Z</time>
      </trkpt>
      <trkpt lat="37.316485" lon="-3.109678">
        <ele>1020.000000</ele>
        <time>2019-05-09T07:26:14Z</time>
      </trkpt>
      <trkpt lat="37.316498" lon="-3.109687">
        <ele>1020.000000</ele>
        <time>2019-05-09T07:26:16Z</time>
      </trkpt>
      <trkpt lat="37.316513" lon="-3.109695">
        <ele>1019.000000</ele>
        <time>2019-05-09T07:26:16Z</time>
      </trkpt>
      <trkpt lat="37.316528" lon="-3.109702">
        <ele>1019.000000</ele>
        <time>2019-05-09T07:26:17Z</time>
      </trkpt>
      <trkpt lat="37.316547" lon="-3.109708">
        <ele>1019.000000</ele>
        <time>2019-05-09T07:26:19Z</time>
      </trkpt>
      <trkpt lat="37.316563" lon="-3.109712">
        <ele>1019.000000</ele>
        <time>2019-05-09T07:26:19Z</time>
      </trkpt>
      <trkpt lat="37.316578" lon="-3.109710">
        <ele>1019.000000</ele>
        <time>2019-05-09T07:26:20Z</time>
      </trkpt>
      <trkpt lat="37.316595" lon="-3.109707">
        <ele>1019.000000</ele>
        <time>2019-05-09T07:26:21Z</time>
      </trkpt>
      <trkpt lat="37.316610" lon="-3.109708">
        <ele>1019.000000</ele>
        <time>2019-05-09T07:26:22Z</time>
      </trkpt>
      <trkpt lat="37.316623" lon="-3.109713">
        <ele>1019.000000</ele>
        <time>2019-05-09T07:26:23Z</time>
      </trkpt>
      <trkpt lat="37.316640" lon="-3.109714">
        <ele>1019.000000</ele>
        <time>2019-05-09T07:26:24Z</time>
      </trkpt>
      <trkpt lat="37.316657" lon="-3.109715">
        <ele>1019.000000</ele>
        <time>2019-05-09T07:26:25Z</time>
      </trkpt>
      <trkpt lat="37.316670" lon="-3.109719">
        <ele>1019.000000</ele>
        <time>2019-05-09T07:26:26Z</time>
      </trkpt>
      <trkpt lat="37.316685" lon="-3.109725">
        <ele>1018.000000</ele>
        <time>2019-05-09T07:26:27Z</time>
      </trkpt>
      <trkpt lat="37.316703" lon="-3.109732">
        <ele>1018.000000</ele>
        <time>2019-05-09T07:26:28Z</time>
      </trkpt>
      <trkpt lat="37.316722" lon="-3.109744">
        <ele>1018.000000</ele>
        <time>2019-05-09T07:26:29Z</time>
      </trkpt>
      <trkpt lat="37.316740" lon="-3.109758">
        <ele>1018.000000</ele>
        <time>2019-05-09T07:26:30Z</time>
      </trkpt>
      <trkpt lat="37.316755" lon="-3.109774">
        <ele>1018.000000</ele>
        <time>2019-05-09T07:26:31Z</time>
      </trkpt>
      <trkpt lat="37.316768" lon="-3.109810">
        <ele>1018.000000</ele>
        <time>2019-05-09T07:26:32Z</time>
      </trkpt>
      <trkpt lat="37.316777" lon="-3.109833">
        <ele>1017.000000</ele>
        <time>2019-05-09T07:26:33Z</time>
      </trkpt>
      <trkpt lat="37.316785" lon="-3.109853">
        <ele>1017.000000</ele>
        <time>2019-05-09T07:26:34Z</time>
      </trkpt>
      <trkpt lat="37.316795" lon="-3.109873">
        <ele>1017.000000</ele>
        <time>2019-05-09T07:26:35Z</time>
      </trkpt>
      <trkpt lat="37.316802" lon="-3.109893">
        <ele>1017.000000</ele>
        <time>2019-05-09T07:26:36Z</time>
      </trkpt>
      <trkpt lat="37.316807" lon="-3.109915">
        <ele>1017.000000</ele>
        <time>2019-05-09T07:26:37Z</time>
      </trkpt>
      <trkpt lat="37.316812" lon="-3.109933">
        <ele>1017.000000</ele>
        <time>2019-05-09T07:26:38Z</time>
      </trkpt>
      <trkpt lat="37.316813" lon="-3.109953">
        <ele>1017.000000</ele>
        <time>2019-05-09T07:26:39Z</time>
      </trkpt>
      <trkpt lat="37.316812" lon="-3.109972">
        <ele>1016.000000</ele>
        <time>2019-05-09T07:26:41Z</time>
      </trkpt>
      <trkpt lat="37.316812" lon="-3.109992">
        <ele>1016.000000</ele>
        <time>2019-05-09T07:26:41Z</time>
      </trkpt>
      <trkpt lat="37.316810" lon="-3.110010">
        <ele>1016.000000</ele>
        <time>2019-05-09T07:26:42Z</time>
      </trkpt>
      <trkpt lat="37.316810" lon="-3.110030">
        <ele>1016.000000</ele>
        <time>2019-05-09T07:26:43Z</time>
      </trkpt>
      <trkpt lat="37.316810" lon="-3.110053">
        <ele>1016.000000</ele>
        <time>2019-05-09T07:26:44Z</time>
      </trkpt>
      <trkpt lat="37.316810" lon="-3.110075">
        <ele>1016.000000</ele>
        <time>2019-05-09T07:26:45Z</time>
      </trkpt>
      <trkpt lat="37.316810" lon="-3.110098">
        <ele>1016.000000</ele>
        <time>2019-05-09T07:26:46Z</time>
      </trkpt>
      <trkpt lat="37.316810" lon="-3.110122">
        <ele>1016.000000</ele>
        <time>2019-05-09T07:26:47Z</time>
      </trkpt>
      <trkpt lat="37.316810" lon="-3.110147">
        <ele>1016.000000</ele>
        <time>2019-05-09T07:26:48Z</time>
      </trkpt>
      <trkpt lat="37.316808" lon="-3.110172">
        <ele>1016.000000</ele>
        <time>2019-05-09T07:26:49Z</time>
      </trkpt>
      <trkpt lat="37.316806" lon="-3.110200">
        <ele>1016.000000</ele>
        <time>2019-05-09T07:26:50Z</time>
      </trkpt>
      <trkpt lat="37.316803" lon="-3.110222">
        <ele>1016.000000</ele>
        <time>2019-05-09T07:26:51Z</time>
      </trkpt>
      <trkpt lat="37.316798" lon="-3.110242">
        <ele>1016.000000</ele>
        <time>2019-05-09T07:26:52Z</time>
      </trkpt>
      <trkpt lat="37.316793" lon="-3.110262">
        <ele>1015.000000</ele>
        <time>2019-05-09T07:26:53Z</time>
      </trkpt>
      <trkpt lat="37.316787" lon="-3.110282">
        <ele>1015.000000</ele>
        <time>2019-05-09T07:26:54Z</time>
      </trkpt>
      <trkpt lat="37.316781" lon="-3.110300">
        <ele>1015.000000</ele>
        <time>2019-05-09T07:26:55Z</time>
      </trkpt>
      <trkpt lat="37.316774" lon="-3.110318">
        <ele>1015.000000</ele>
        <time>2019-05-09T07:26:56Z</time>
      </trkpt>
      <trkpt lat="37.316768" lon="-3.110338">
        <ele>1015.000000</ele>
        <time>2019-05-09T07:26:57Z</time>
      </trkpt>
      <trkpt lat="37.316763" lon="-3.110355">
        <ele>1015.000000</ele>
        <time>2019-05-09T07:26:58Z</time>
      </trkpt>
      <trkpt lat="37.316758" lon="-3.110370">
        <ele>1015.000000</ele>
        <time>2019-05-09T07:26:59Z</time>
      </trkpt>
      <trkpt lat="37.316752" lon="-3.110387">
        <ele>1015.000000</ele>
        <time>2019-05-09T07:27:01Z</time>
      </trkpt>
      <trkpt lat="37.316747" lon="-3.110402">
        <ele>1015.000000</ele>
        <time>2019-05-09T07:27:01Z</time>
      </trkpt>
      <trkpt lat="37.316740" lon="-3.110418">
        <ele>1015.000000</ele>
        <time>2019-05-09T07:27:02Z</time>
      </trkpt>
      <trkpt lat="37.316734" lon="-3.110437">
        <ele>1015.000000</ele>
        <time>2019-05-09T07:27:03Z</time>
      </trkpt>
      <trkpt lat="37.316729" lon="-3.110453">
        <ele>1015.000000</ele>
        <time>2019-05-09T07:27:04Z</time>
      </trkpt>
      <trkpt lat="37.316722" lon="-3.110473">
        <ele>1015.000000</ele>
        <time>2019-05-09T07:27:06Z</time>
      </trkpt>
      <trkpt lat="37.316716" lon="-3.110493">
        <ele>1015.000000</ele>
        <time>2019-05-09T07:27:06Z</time>
      </trkpt>
      <trkpt lat="37.316710" lon="-3.110515">
        <ele>1015.000000</ele>
        <time>2019-05-09T07:27:07Z</time>
      </trkpt>
      <trkpt lat="37.316702" lon="-3.110540">
        <ele>1015.000000</ele>
        <time>2019-05-09T07:27:08Z</time>
      </trkpt>
      <trkpt lat="37.316697" lon="-3.110562">
        <ele>1015.000000</ele>
        <time>2019-05-09T07:27:09Z</time>
      </trkpt>
      <trkpt lat="37.316693" lon="-3.110585">
        <ele>1015.000000</ele>
        <time>2019-05-09T07:27:09Z</time>
      </trkpt>
      <trkpt lat="37.316688" lon="-3.110607">
        <ele>1015.000000</ele>
        <time>2019-05-09T07:27:10Z</time>
      </trkpt>
      <trkpt lat="37.316685" lon="-3.110628">
        <ele>1014.000000</ele>
        <time>2019-05-09T07:27:11Z</time>
      </trkpt>
      <trkpt lat="37.316682" lon="-3.110650">
        <ele>1014.000000</ele>
        <time>2019-05-09T07:27:12Z</time>
      </trkpt>
      <trkpt lat="37.316680" lon="-3.110672">
        <ele>1014.000000</ele>
        <time>2019-05-09T07:27:13Z</time>
      </trkpt>
      <trkpt lat="37.316680" lon="-3.110688">
        <ele>1014.000000</ele>
        <time>2019-05-09T07:27:14Z</time>
      </trkpt>
      <trkpt lat="37.316680" lon="-3.110707">
        <ele>1014.000000</ele>
        <time>2019-05-09T07:27:15Z</time>
      </trkpt>
      <trkpt lat="37.316680" lon="-3.110723">
        <ele>1014.000000</ele>
        <time>2019-05-09T07:27:16Z</time>
      </trkpt>
      <trkpt lat="37.316679" lon="-3.110738">
        <ele>1014.000000</ele>
        <time>2019-05-09T07:27:17Z</time>
      </trkpt>
      <trkpt lat="37.316680" lon="-3.110755">
        <ele>1014.000000</ele>
        <time>2019-05-09T07:27:18Z</time>
      </trkpt>
      <trkpt lat="37.316680" lon="-3.110773">
        <ele>1014.000000</ele>
        <time>2019-05-09T07:27:19Z</time>
      </trkpt>
      <trkpt lat="37.316681" lon="-3.110790">
        <ele>1014.000000</ele>
        <time>2019-05-09T07:27:20Z</time>
      </trkpt>
      <trkpt lat="37.316682" lon="-3.110808">
        <ele>1014.000000</ele>
        <time>2019-05-09T07:27:21Z</time>
      </trkpt>
      <trkpt lat="37.316681" lon="-3.110827">
        <ele>1014.000000</ele>
        <time>2019-05-09T07:27:22Z</time>
      </trkpt>
      <trkpt lat="37.316680" lon="-3.110847">
        <ele>1014.000000</ele>
        <time>2019-05-09T07:27:23Z</time>
      </trkpt>
      <trkpt lat="37.316681" lon="-3.110865">
        <ele>1014.000000</ele>
        <time>2019-05-09T07:27:25Z</time>
      </trkpt>
      <trkpt lat="37.316679" lon="-3.110885">
        <ele>1014.000000</ele>
        <time>2019-05-09T07:27:26Z</time>
      </trkpt>
      <trkpt lat="37.316690" lon="-3.110908">
        <ele>1014.000000</ele>
        <time>2019-05-09T07:27:27Z</time>
      </trkpt>
      <trkpt lat="37.316678" lon="-3.110930">
        <ele>1014.000000</ele>
        <time>2019-05-09T07:27:28Z</time>
      </trkpt>
      <trkpt lat="37.316668" lon="-3.110952">
        <ele>1014.000000</ele>
        <time>2019-05-09T07:27:29Z</time>
      </trkpt>
      <trkpt lat="37.316652" lon="-3.110968">
        <ele>1013.000000</ele>
        <time>2019-05-09T07:27:29Z</time>
      </trkpt>
      <trkpt lat="37.316640" lon="-3.110985">
        <ele>1013.000000</ele>
        <time>2019-05-09T07:27:30Z</time>
      </trkpt>
      <trkpt lat="37.316628" lon="-3.110998">
        <ele>1013.000000</ele>
        <time>2019-05-09T07:27:32Z</time>
      </trkpt>
      <trkpt lat="37.316615" lon="-3.111013">
        <ele>1013.000000</ele>
        <time>2019-05-09T07:27:32Z</time>
      </trkpt>
      <trkpt lat="37.316602" lon="-3.111028">
        <ele>1013.000000</ele>
        <time>2019-05-09T07:27:34Z</time>
      </trkpt>
      <trkpt lat="37.316588" lon="-3.111042">
        <ele>1013.000000</ele>
        <time>2019-05-09T07:27:35Z</time>
      </trkpt>
      <trkpt lat="37.316577" lon="-3.111052">
        <ele>1013.000000</ele>
        <time>2019-05-09T07:27:36Z</time>
      </trkpt>
      <trkpt lat="37.316563" lon="-3.111070">
        <ele>1013.000000</ele>
        <time>2019-05-09T07:27:37Z</time>
      </trkpt>
      <trkpt lat="37.316552" lon="-3.111088">
        <ele>1013.000000</ele>
        <time>2019-05-09T07:27:38Z</time>
      </trkpt>
      <trkpt lat="37.316540" lon="-3.111112">
        <ele>1013.000000</ele>
        <time>2019-05-09T07:27:39Z</time>
      </trkpt>
      <trkpt lat="37.316532" lon="-3.111128">
        <ele>1013.000000</ele>
        <time>2019-05-09T07:27:40Z</time>
      </trkpt>
      <trkpt lat="37.316523" lon="-3.111148">
        <ele>1012.000000</ele>
        <time>2019-05-09T07:27:41Z</time>
      </trkpt>
      <trkpt lat="37.316513" lon="-3.111168">
        <ele>1012.000000</ele>
        <time>2019-05-09T07:27:42Z</time>
      </trkpt>
      <trkpt lat="37.316507" lon="-3.111183">
        <ele>1012.000000</ele>
        <time>2019-05-09T07:27:42Z</time>
      </trkpt>
      <trkpt lat="37.316499" lon="-3.111205">
        <ele>1011.000000</ele>
        <time>2019-05-09T07:27:43Z</time>
      </trkpt>
      <trkpt lat="37.316493" lon="-3.111227">
        <ele>1011.000000</ele>
        <time>2019-05-09T07:27:44Z</time>
      </trkpt>
      <trkpt lat="37.316487" lon="-3.111248">
        <ele>1011.000000</ele>
        <time>2019-05-09T07:27:45Z</time>
      </trkpt>
      <trkpt lat="37.316482" lon="-3.111272">
        <ele>1010.000000</ele>
        <time>2019-05-09T07:27:46Z</time>
      </trkpt>
      <trkpt lat="37.316478" lon="-3.111295">
        <ele>1010.000000</ele>
        <time>2019-05-09T07:27:47Z</time>
      </trkpt>
      <trkpt lat="37.316477" lon="-3.111317">
        <ele>1010.000000</ele>
        <time>2019-05-09T07:27:48Z</time>
      </trkpt>
      <trkpt lat="37.316503" lon="-3.111338">
        <ele>1010.000000</ele>
        <time>2019-05-09T07:27:50Z</time>
      </trkpt>
      <trkpt lat="37.316507" lon="-3.111357">
        <ele>1009.000000</ele>
        <time>2019-05-09T07:27:50Z</time>
      </trkpt>
      <trkpt lat="37.316512" lon="-3.111375">
        <ele>1009.000000</ele>
        <time>2019-05-09T07:27:51Z</time>
      </trkpt>
      <trkpt lat="37.316517" lon="-3.111392">
        <ele>1009.000000</ele>
        <time>2019-05-09T07:27:52Z</time>
      </trkpt>
      <trkpt lat="37.316525" lon="-3.111405">
        <ele>1009.000000</ele>
        <time>2019-05-09T07:27:53Z</time>
      </trkpt>
      <trkpt lat="37.316533" lon="-3.111418">
        <ele>1009.000000</ele>
        <time>2019-05-09T07:27:54Z</time>
      </trkpt>
      <trkpt lat="37.316543" lon="-3.111430">
        <ele>1009.000000</ele>
        <time>2019-05-09T07:27:55Z</time>
      </trkpt>
      <trkpt lat="37.316553" lon="-3.111442">
        <ele>1009.000000</ele>
        <time>2019-05-09T07:27:56Z</time>
      </trkpt>
      <trkpt lat="37.316563" lon="-3.111453">
        <ele>1009.000000</ele>
        <time>2019-05-09T07:27:57Z</time>
      </trkpt>
      <trkpt lat="37.316573" lon="-3.111467">
        <ele>1009.000000</ele>
        <time>2019-05-09T07:27:58Z</time>
      </trkpt>
      <trkpt lat="37.316582" lon="-3.111480">
        <ele>1009.000000</ele>
        <time>2019-05-09T07:27:59Z</time>
      </trkpt>
      <trkpt lat="37.316594" lon="-3.111495">
        <ele>1009.000000</ele>
        <time>2019-05-09T07:28:00Z</time>
      </trkpt>
      <trkpt lat="37.316608" lon="-3.111510">
        <ele>1008.000000</ele>
        <time>2019-05-09T07:28:01Z</time>
      </trkpt>
      <trkpt lat="37.316623" lon="-3.111527">
        <ele>1008.000000</ele>
        <time>2019-05-09T07:28:02Z</time>
      </trkpt>
      <trkpt lat="37.316638" lon="-3.111547">
        <ele>1008.000000</ele>
        <time>2019-05-09T07:28:04Z</time>
      </trkpt>
      <trkpt lat="37.316650" lon="-3.111562">
        <ele>1008.000000</ele>
        <time>2019-05-09T07:28:04Z</time>
      </trkpt>
      <trkpt lat="37.316664" lon="-3.111580">
        <ele>1008.000000</ele>
        <time>2019-05-09T07:28:05Z</time>
      </trkpt>
      <trkpt lat="37.316676" lon="-3.111597">
        <ele>1008.000000</ele>
        <time>2019-05-09T07:28:06Z</time>
      </trkpt>
      <trkpt lat="37.316687" lon="-3.111613">
        <ele>1008.000000</ele>
        <time>2019-05-09T07:28:07Z</time>
      </trkpt>
      <trkpt lat="37.316700" lon="-3.111632">
        <ele>1007.000000</ele>
        <time>2019-05-09T07:28:08Z</time>
      </trkpt>
      <trkpt lat="37.316711" lon="-3.111648">
        <ele>1007.000000</ele>
        <time>2019-05-09T07:28:10Z</time>
      </trkpt>
      <trkpt lat="37.316723" lon="-3.111667">
        <ele>1007.000000</ele>
        <time>2019-05-09T07:28:10Z</time>
      </trkpt>
      <trkpt lat="37.316734" lon="-3.111683">
        <ele>1007.000000</ele>
        <time>2019-05-09T07:28:11Z</time>
      </trkpt>
      <trkpt lat="37.316745" lon="-3.111700">
        <ele>1007.000000</ele>
        <time>2019-05-09T07:28:12Z</time>
      </trkpt>
      <trkpt lat="37.316755" lon="-3.111715">
        <ele>1007.000000</ele>
        <time>2019-05-09T07:28:13Z</time>
      </trkpt>
      <trkpt lat="37.316764" lon="-3.111727">
        <ele>1007.000000</ele>
        <time>2019-05-09T07:28:14Z</time>
      </trkpt>
      <trkpt lat="37.316772" lon="-3.111738">
        <ele>1006.000000</ele>
        <time>2019-05-09T07:28:15Z</time>
      </trkpt>
      <trkpt lat="37.316782" lon="-3.111752">
        <ele>1006.000000</ele>
        <time>2019-05-09T07:28:16Z</time>
      </trkpt>
      <trkpt lat="37.316790" lon="-3.111763">
        <ele>1006.000000</ele>
        <time>2019-05-09T07:28:17Z</time>
      </trkpt>
      <trkpt lat="37.316800" lon="-3.111777">
        <ele>1006.000000</ele>
        <time>2019-05-09T07:28:18Z</time>
      </trkpt>
      <trkpt lat="37.316808" lon="-3.111790">
        <ele>1006.000000</ele>
        <time>2019-05-09T07:28:19Z</time>
      </trkpt>
      <trkpt lat="37.316819" lon="-3.111807">
        <ele>1006.000000</ele>
        <time>2019-05-09T07:28:20Z</time>
      </trkpt>
      <trkpt lat="37.316827" lon="-3.111822">
        <ele>1006.000000</ele>
        <time>2019-05-09T07:28:21Z</time>
      </trkpt>
      <trkpt lat="37.316838" lon="-3.111840">
        <ele>1006.000000</ele>
        <time>2019-05-09T07:28:22Z</time>
      </trkpt>
      <trkpt lat="37.316848" lon="-3.111860">
        <ele>1006.000000</ele>
        <time>2019-05-09T07:28:23Z</time>
      </trkpt>
      <trkpt lat="37.316859" lon="-3.111882">
        <ele>1006.000000</ele>
        <time>2019-05-09T07:28:25Z</time>
      </trkpt>
      <trkpt lat="37.316869" lon="-3.111905">
        <ele>1005.000000</ele>
        <time>2019-05-09T07:28:25Z</time>
      </trkpt>
      <trkpt lat="37.316877" lon="-3.111928">
        <ele>1005.000000</ele>
        <time>2019-05-09T07:28:26Z</time>
      </trkpt>
      <trkpt lat="37.316884" lon="-3.111950">
        <ele>1005.000000</ele>
        <time>2019-05-09T07:28:27Z</time>
      </trkpt>
      <trkpt lat="37.316890" lon="-3.111972">
        <ele>1004.000000</ele>
        <time>2019-05-09T07:28:28Z</time>
      </trkpt>
      <trkpt lat="37.316894" lon="-3.111992">
        <ele>1004.000000</ele>
        <time>2019-05-09T07:28:29Z</time>
      </trkpt>
      <trkpt lat="37.316898" lon="-3.112012">
        <ele>1004.000000</ele>
        <time>2019-05-09T07:28:30Z</time>
      </trkpt>
      <trkpt lat="37.316902" lon="-3.112032">
        <ele>1004.000000</ele>
        <time>2019-05-09T07:28:31Z</time>
      </trkpt>
      <trkpt lat="37.316904" lon="-3.112052">
        <ele>1003.000000</ele>
        <time>2019-05-09T07:28:32Z</time>
      </trkpt>
      <trkpt lat="37.316909" lon="-3.112073">
        <ele>1003.000000</ele>
        <time>2019-05-09T07:28:33Z</time>
      </trkpt>
      <trkpt lat="37.316911" lon="-3.112093">
        <ele>1003.000000</ele>
        <time>2019-05-09T07:28:35Z</time>
      </trkpt>
      <trkpt lat="37.316913" lon="-3.112115">
        <ele>1003.000000</ele>
        <time>2019-05-09T07:28:35Z</time>
      </trkpt>
      <trkpt lat="37.316918" lon="-3.112138">
        <ele>1003.000000</ele>
        <time>2019-05-09T07:28:36Z</time>
      </trkpt>
      <trkpt lat="37.316920" lon="-3.112160">
        <ele>1003.000000</ele>
        <time>2019-05-09T07:28:37Z</time>
      </trkpt>
      <trkpt lat="37.316924" lon="-3.112183">
        <ele>1002.000000</ele>
        <time>2019-05-09T07:28:38Z</time>
      </trkpt>
      <trkpt lat="37.316926" lon="-3.112207">
        <ele>1002.000000</ele>
        <time>2019-05-09T07:28:39Z</time>
      </trkpt>
      <trkpt lat="37.316929" lon="-3.112232">
        <ele>1002.000000</ele>
        <time>2019-05-09T07:28:40Z</time>
      </trkpt>
      <trkpt lat="37.316930" lon="-3.112255">
        <ele>1002.000000</ele>
        <time>2019-05-09T07:28:41Z</time>
      </trkpt>
      <trkpt lat="37.316932" lon="-3.112278">
        <ele>1002.000000</ele>
        <time>2019-05-09T07:28:42Z</time>
      </trkpt>
      <trkpt lat="37.316934" lon="-3.112298">
        <ele>1002.000000</ele>
        <time>2019-05-09T07:28:43Z</time>
      </trkpt>
      <trkpt lat="37.316935" lon="-3.112318">
        <ele>1001.000000</ele>
        <time>2019-05-09T07:28:44Z</time>
      </trkpt>
      <trkpt lat="37.316936" lon="-3.112337">
        <ele>1001.000000</ele>
        <time>2019-05-09T07:28:45Z</time>
      </trkpt>
      <trkpt lat="37.316938" lon="-3.112357">
        <ele>1001.000000</ele>
        <time>2019-05-09T07:28:46Z</time>
      </trkpt>
      <trkpt lat="37.316935" lon="-3.112377">
        <ele>1001.000000</ele>
        <time>2019-05-09T07:28:47Z</time>
      </trkpt>
      <trkpt lat="37.316933" lon="-3.112393">
        <ele>1001.000000</ele>
        <time>2019-05-09T07:28:48Z</time>
      </trkpt>
      <trkpt lat="37.316929" lon="-3.112410">
        <ele>1001.000000</ele>
        <time>2019-05-09T07:28:49Z</time>
      </trkpt>
      <trkpt lat="37.316927" lon="-3.112427">
        <ele>1000.000000</ele>
        <time>2019-05-09T07:28:50Z</time>
      </trkpt>
      <trkpt lat="37.316928" lon="-3.112447">
        <ele>1000.000000</ele>
        <time>2019-05-09T07:28:51Z</time>
      </trkpt>
      <trkpt lat="37.316925" lon="-3.112463">
        <ele>1000.000000</ele>
        <time>2019-05-09T07:28:52Z</time>
      </trkpt>
      <trkpt lat="37.316924" lon="-3.112478">
        <ele>1000.000000</ele>
        <time>2019-05-09T07:28:53Z</time>
      </trkpt>
      <trkpt lat="37.316922" lon="-3.112488">
        <ele>1000.000000</ele>
        <time>2019-05-09T07:28:54Z</time>
      </trkpt>
      <trkpt lat="37.316920" lon="-3.112503">
        <ele>1000.000000</ele>
        <time>2019-05-09T07:28:55Z</time>
      </trkpt>
      <trkpt lat="37.316920" lon="-3.112517">
        <ele>1000.000000</ele>
        <time>2019-05-09T07:28:56Z</time>
      </trkpt>
      <trkpt lat="37.317055" lon="-3.113350">
        <ele>997.000000</ele>
        <time>2019-05-09T07:29:37Z</time>
      </trkpt>
      <trkpt lat="37.317058" lon="-3.113370">
        <ele>997.000000</ele>
        <time>2019-05-09T07:29:37Z</time>
      </trkpt>
      <trkpt lat="37.317063" lon="-3.113392">
        <ele>997.000000</ele>
        <time>2019-05-09T07:29:38Z</time>
      </trkpt>
      <trkpt lat="37.317067" lon="-3.113415">
        <ele>997.000000</ele>
        <time>2019-05-09T07:29:39Z</time>
      </trkpt>
      <trkpt lat="37.317068" lon="-3.113437">
        <ele>997.000000</ele>
        <time>2019-05-09T07:29:40Z</time>
      </trkpt>
      <trkpt lat="37.317071" lon="-3.113460">
        <ele>997.000000</ele>
        <time>2019-05-09T07:29:41Z</time>
      </trkpt>
      <trkpt lat="37.317075" lon="-3.113485">
        <ele>997.000000</ele>
        <time>2019-05-09T07:29:42Z</time>
      </trkpt>
      <trkpt lat="37.317079" lon="-3.113510">
        <ele>996.000000</ele>
        <time>2019-05-09T07:29:43Z</time>
      </trkpt>
      <trkpt lat="37.317082" lon="-3.113530">
        <ele>996.000000</ele>
        <time>2019-05-09T07:29:44Z</time>
      </trkpt>
      <trkpt lat="37.317086" lon="-3.113552">
        <ele>996.000000</ele>
        <time>2019-05-09T07:29:45Z</time>
      </trkpt>
      <trkpt lat="37.317088" lon="-3.113570">
        <ele>996.000000</ele>
        <time>2019-05-09T07:29:46Z</time>
      </trkpt>
      <trkpt lat="37.317093" lon="-3.113595">
        <ele>996.000000</ele>
        <time>2019-05-09T07:29:47Z</time>
      </trkpt>
      <trkpt lat="37.317096" lon="-3.113613">
        <ele>995.000000</ele>
        <time>2019-05-09T07:29:48Z</time>
      </trkpt>
      <trkpt lat="37.317099" lon="-3.113628">
        <ele>995.000000</ele>
        <time>2019-05-09T07:29:49Z</time>
      </trkpt>
      <trkpt lat="37.317103" lon="-3.113650">
        <ele>995.000000</ele>
        <time>2019-05-09T07:29:50Z</time>
      </trkpt>
      <trkpt lat="37.317106" lon="-3.113667">
        <ele>995.000000</ele>
        <time>2019-05-09T07:29:51Z</time>
      </trkpt>
      <trkpt lat="37.317108" lon="-3.113682">
        <ele>995.000000</ele>
        <time>2019-05-09T07:29:52Z</time>
      </trkpt>
      <trkpt lat="37.317111" lon="-3.113698">
        <ele>995.000000</ele>
        <time>2019-05-09T07:29:54Z</time>
      </trkpt>
      <trkpt lat="37.317113" lon="-3.113715">
        <ele>995.000000</ele>
        <time>2019-05-09T07:29:54Z</time>
      </trkpt>
      <trkpt lat="37.317115" lon="-3.113730">
        <ele>995.000000</ele>
        <time>2019-05-09T07:29:55Z</time>
      </trkpt>
      <trkpt lat="37.317118" lon="-3.113748">
        <ele>994.000000</ele>
        <time>2019-05-09T07:29:56Z</time>
      </trkpt>
      <trkpt lat="37.317120" lon="-3.113765">
        <ele>994.000000</ele>
        <time>2019-05-09T07:29:57Z</time>
      </trkpt>
      <trkpt lat="37.317123" lon="-3.113785">
        <ele>994.000000</ele>
        <time>2019-05-09T07:29:58Z</time>
      </trkpt>
      <trkpt lat="37.317126" lon="-3.113803">
        <ele>994.000000</ele>
        <time>2019-05-09T07:29:59Z</time>
      </trkpt>
      <trkpt lat="37.317129" lon="-3.113822">
        <ele>994.000000</ele>
        <time>2019-05-09T07:30:00Z</time>
      </trkpt>
      <trkpt lat="37.317130" lon="-3.113838">
        <ele>994.000000</ele>
        <time>2019-05-09T07:30:02Z</time>
      </trkpt>
      <trkpt lat="37.317135" lon="-3.113867">
        <ele>994.000000</ele>
        <time>2019-05-09T07:30:02Z</time>
      </trkpt>
      <trkpt lat="37.317137" lon="-3.113890">
        <ele>994.000000</ele>
        <time>2019-05-09T07:30:03Z</time>
      </trkpt>
      <trkpt lat="37.317140" lon="-3.113912">
        <ele>994.000000</ele>
        <time>2019-05-09T07:30:04Z</time>
      </trkpt>
      <trkpt lat="37.317142" lon="-3.113933">
        <ele>994.000000</ele>
        <time>2019-05-09T07:30:05Z</time>
      </trkpt>
      <trkpt lat="37.317142" lon="-3.113947">
        <ele>994.000000</ele>
        <time>2019-05-09T07:30:06Z</time>
      </trkpt>
      <trkpt lat="37.317145" lon="-3.113962">
        <ele>994.000000</ele>
        <time>2019-05-09T07:30:07Z</time>
      </trkpt>
      <trkpt lat="37.317147" lon="-3.113982">
        <ele>994.000000</ele>
        <time>2019-05-09T07:30:08Z</time>
      </trkpt>
      <trkpt lat="37.317149" lon="-3.114003">
        <ele>994.000000</ele>
        <time>2019-05-09T07:30:09Z</time>
      </trkpt>
      <trkpt lat="37.317152" lon="-3.114027">
        <ele>994.000000</ele>
        <time>2019-05-09T07:30:10Z</time>
      </trkpt>
      <trkpt lat="37.317153" lon="-3.114048">
        <ele>994.000000</ele>
        <time>2019-05-09T07:30:11Z</time>
      </trkpt>
      <trkpt lat="37.317156" lon="-3.114072">
        <ele>994.000000</ele>
        <time>2019-05-09T07:30:12Z</time>
      </trkpt>
      <trkpt lat="37.317158" lon="-3.114100">
        <ele>994.000000</ele>
        <time>2019-05-09T07:30:13Z</time>
      </trkpt>
      <trkpt lat="37.317161" lon="-3.114120">
        <ele>994.000000</ele>
        <time>2019-05-09T07:30:14Z</time>
      </trkpt>
      <trkpt lat="37.317164" lon="-3.114147">
        <ele>994.000000</ele>
        <time>2019-05-09T07:30:15Z</time>
      </trkpt>
      <trkpt lat="37.317165" lon="-3.114165">
        <ele>994.000000</ele>
        <time>2019-05-09T07:30:16Z</time>
      </trkpt>
      <trkpt lat="37.317167" lon="-3.114185">
        <ele>994.000000</ele>
        <time>2019-05-09T07:30:17Z</time>
      </trkpt>
      <trkpt lat="37.317169" lon="-3.114203">
        <ele>994.000000</ele>
        <time>2019-05-09T07:30:18Z</time>
      </trkpt>
      <trkpt lat="37.317170" lon="-3.114225">
        <ele>994.000000</ele>
        <time>2019-05-09T07:30:19Z</time>
      </trkpt>
      <trkpt lat="37.317172" lon="-3.114245">
        <ele>994.000000</ele>
        <time>2019-05-09T07:30:20Z</time>
      </trkpt>
      <trkpt lat="37.317174" lon="-3.114265">
        <ele>994.000000</ele>
        <time>2019-05-09T07:30:21Z</time>
      </trkpt>
      <trkpt lat="37.317175" lon="-3.114285">
        <ele>994.000000</ele>
        <time>2019-05-09T07:30:23Z</time>
      </trkpt>
      <trkpt lat="37.317177" lon="-3.114303">
        <ele>993.000000</ele>
        <time>2019-05-09T07:30:23Z</time>
      </trkpt>
      <trkpt lat="37.317179" lon="-3.114322">
        <ele>993.000000</ele>
        <time>2019-05-09T07:30:24Z</time>
      </trkpt>
      <trkpt lat="37.317178" lon="-3.114337">
        <ele>993.000000</ele>
        <time>2019-05-09T07:30:25Z</time>
      </trkpt>
      <trkpt lat="37.317180" lon="-3.114353">
        <ele>993.000000</ele>
        <time>2019-05-09T07:30:26Z</time>
      </trkpt>
      <trkpt lat="37.317180" lon="-3.114370">
        <ele>993.000000</ele>
        <time>2019-05-09T07:30:27Z</time>
      </trkpt>
      <trkpt lat="37.317180" lon="-3.114387">
        <ele>993.000000</ele>
        <time>2019-05-09T07:30:28Z</time>
      </trkpt>
      <trkpt lat="37.317180" lon="-3.114403">
        <ele>993.000000</ele>
        <time>2019-05-09T07:30:29Z</time>
      </trkpt>
      <trkpt lat="37.317180" lon="-3.114422">
        <ele>993.000000</ele>
        <time>2019-05-09T07:30:30Z</time>
      </trkpt>
      <trkpt lat="37.317181" lon="-3.114438">
        <ele>993.000000</ele>
        <time>2019-05-09T07:30:31Z</time>
      </trkpt>
      <trkpt lat="37.317182" lon="-3.114457">
        <ele>993.000000</ele>
        <time>2019-05-09T07:30:32Z</time>
      </trkpt>
      <trkpt lat="37.317181" lon="-3.114475">
        <ele>993.000000</ele>
        <time>2019-05-09T07:30:33Z</time>
      </trkpt>
      <trkpt lat="37.317181" lon="-3.114495">
        <ele>993.000000</ele>
        <time>2019-05-09T07:30:34Z</time>
      </trkpt>
      <trkpt lat="37.317181" lon="-3.114515">
        <ele>993.000000</ele>
        <time>2019-05-09T07:30:35Z</time>
      </trkpt>
      <trkpt lat="37.317183" lon="-3.114533">
        <ele>993.000000</ele>
        <time>2019-05-09T07:30:36Z</time>
      </trkpt>
      <trkpt lat="37.317183" lon="-3.114553">
        <ele>993.000000</ele>
        <time>2019-05-09T07:30:37Z</time>
      </trkpt>
      <trkpt lat="37.317185" lon="-3.114575">
        <ele>993.000000</ele>
        <time>2019-05-09T07:30:38Z</time>
      </trkpt>
      <trkpt lat="37.317185" lon="-3.114597">
        <ele>993.000000</ele>
        <time>2019-05-09T07:30:39Z</time>
      </trkpt>
      <trkpt lat="37.317187" lon="-3.114618">
        <ele>993.000000</ele>
        <time>2019-05-09T07:30:40Z</time>
      </trkpt>
      <trkpt lat="37.317191" lon="-3.114642">
        <ele>992.000000</ele>
        <time>2019-05-09T07:30:41Z</time>
      </trkpt>
      <trkpt lat="37.317193" lon="-3.114663">
        <ele>992.000000</ele>
        <time>2019-05-09T07:30:42Z</time>
      </trkpt>
      <trkpt lat="37.317195" lon="-3.114682">
        <ele>992.000000</ele>
        <time>2019-05-09T07:30:43Z</time>
      </trkpt>
      <trkpt lat="37.317199" lon="-3.114697">
        <ele>992.000000</ele>
        <time>2019-05-09T07:30:44Z</time>
      </trkpt>
      <trkpt lat="37.317202" lon="-3.114712">
        <ele>992.000000</ele>
        <time>2019-05-09T07:30:45Z</time>
      </trkpt>
      <trkpt lat="37.317207" lon="-3.114727">
        <ele>991.000000</ele>
        <time>2019-05-09T07:30:46Z</time>
      </trkpt>
      <trkpt lat="37.317210" lon="-3.114740">
        <ele>991.000000</ele>
        <time>2019-05-09T07:30:48Z</time>
      </trkpt>
      <trkpt lat="37.317214" lon="-3.114753">
        <ele>991.000000</ele>
        <time>2019-05-09T07:30:48Z</time>
      </trkpt>
      <trkpt lat="37.317220" lon="-3.114770">
        <ele>991.000000</ele>
        <time>2019-05-09T07:30:49Z</time>
      </trkpt>
      <trkpt lat="37.317224" lon="-3.114787">
        <ele>991.000000</ele>
        <time>2019-05-09T07:30:50Z</time>
      </trkpt>
      <trkpt lat="37.317231" lon="-3.114807">
        <ele>990.000000</ele>
        <time>2019-05-09T07:30:51Z</time>
      </trkpt>
      <trkpt lat="37.317238" lon="-3.114825">
        <ele>990.000000</ele>
        <time>2019-05-09T07:30:52Z</time>
      </trkpt>
      <trkpt lat="37.317246" lon="-3.114840">
        <ele>990.000000</ele>
        <time>2019-05-09T07:30:53Z</time>
      </trkpt>
      <trkpt lat="37.317254" lon="-3.114850">
        <ele>989.000000</ele>
        <time>2019-05-09T07:30:54Z</time>
      </trkpt>
      <trkpt lat="37.317261" lon="-3.114858">
        <ele>989.000000</ele>
        <time>2019-05-09T07:30:55Z</time>
      </trkpt>
      <trkpt lat="37.317358" lon="-3.114865">
        <ele>989.000000</ele>
        <time>2019-05-09T07:30:56Z</time>
      </trkpt>
      <trkpt lat="37.317377" lon="-3.114870">
        <ele>989.000000</ele>
        <time>2019-05-09T07:30:57Z</time>
      </trkpt>
      <trkpt lat="37.317392" lon="-3.114875">
        <ele>989.000000</ele>
        <time>2019-05-09T07:30:58Z</time>
      </trkpt>
      <trkpt lat="37.317407" lon="-3.114882">
        <ele>988.000000</ele>
        <time>2019-05-09T07:30:59Z</time>
      </trkpt>
      <trkpt lat="37.317423" lon="-3.114888">
        <ele>988.000000</ele>
        <time>2019-05-09T07:31:00Z</time>
      </trkpt>
      <trkpt lat="37.317437" lon="-3.114893">
        <ele>988.000000</ele>
        <time>2019-05-09T07:31:01Z</time>
      </trkpt>
      <trkpt lat="37.317450" lon="-3.114898">
        <ele>988.000000</ele>
        <time>2019-05-09T07:31:02Z</time>
      </trkpt>
      <trkpt lat="37.317462" lon="-3.114902">
        <ele>988.000000</ele>
        <time>2019-05-09T07:31:03Z</time>
      </trkpt>
      <trkpt lat="37.317475" lon="-3.114907">
        <ele>988.000000</ele>
        <time>2019-05-09T07:31:04Z</time>
      </trkpt>
      <trkpt lat="37.317485" lon="-3.114910">
        <ele>988.000000</ele>
        <time>2019-05-09T07:31:05Z</time>
      </trkpt>
      <trkpt lat="37.317502" lon="-3.114918">
        <ele>987.000000</ele>
        <time>2019-05-09T07:31:06Z</time>
      </trkpt>
      <trkpt lat="37.317518" lon="-3.114925">
        <ele>987.000000</ele>
        <time>2019-05-09T07:31:07Z</time>
      </trkpt>
      <trkpt lat="37.317538" lon="-3.114935">
        <ele>987.000000</ele>
        <time>2019-05-09T07:31:09Z</time>
      </trkpt>
      <trkpt lat="37.317555" lon="-3.114944">
        <ele>987.000000</ele>
        <time>2019-05-09T07:31:09Z</time>
      </trkpt>
      <trkpt lat="37.317572" lon="-3.114953">
        <ele>987.000000</ele>
        <time>2019-05-09T07:31:10Z</time>
      </trkpt>
      <trkpt lat="37.317590" lon="-3.114966">
        <ele>987.000000</ele>
        <time>2019-05-09T07:31:11Z</time>
      </trkpt>
      <trkpt lat="37.317605" lon="-3.114977">
        <ele>987.000000</ele>
        <time>2019-05-09T07:31:12Z</time>
      </trkpt>
      <trkpt lat="37.317620" lon="-3.114988">
        <ele>987.000000</ele>
        <time>2019-05-09T07:31:13Z</time>
      </trkpt>
      <trkpt lat="37.317635" lon="-3.114999">
        <ele>987.000000</ele>
        <time>2019-05-09T07:31:14Z</time>
      </trkpt>
      <trkpt lat="37.317650" lon="-3.115011">
        <ele>987.000000</ele>
        <time>2019-05-09T07:31:15Z</time>
      </trkpt>
      <trkpt lat="37.317663" lon="-3.115022">
        <ele>987.000000</ele>
        <time>2019-05-09T07:31:16Z</time>
      </trkpt>
      <trkpt lat="37.317675" lon="-3.115033">
        <ele>987.000000</ele>
        <time>2019-05-09T07:31:18Z</time>
      </trkpt>
      <trkpt lat="37.317687" lon="-3.115044">
        <ele>987.000000</ele>
        <time>2019-05-09T07:31:19Z</time>
      </trkpt>
      <trkpt lat="37.317703" lon="-3.115058">
        <ele>986.000000</ele>
        <time>2019-05-09T07:31:20Z</time>
      </trkpt>
      <trkpt lat="37.317717" lon="-3.115070">
        <ele>986.000000</ele>
        <time>2019-05-09T07:31:21Z</time>
      </trkpt>
      <trkpt lat="37.317727" lon="-3.115080">
        <ele>986.000000</ele>
        <time>2019-05-09T07:31:22Z</time>
      </trkpt>
      <trkpt lat="37.317735" lon="-3.115088">
        <ele>986.000000</ele>
        <time>2019-05-09T07:31:22Z</time>
      </trkpt>
      <trkpt lat="37.317747" lon="-3.115099">
        <ele>986.000000</ele>
        <time>2019-05-09T07:31:24Z</time>
      </trkpt>
      <trkpt lat="37.317758" lon="-3.115110">
        <ele>986.000000</ele>
        <time>2019-05-09T07:31:24Z</time>
      </trkpt>
      <trkpt lat="37.317768" lon="-3.115120">
        <ele>986.000000</ele>
        <time>2019-05-09T07:31:25Z</time>
      </trkpt>
      <trkpt lat="37.317782" lon="-3.115133">
        <ele>986.000000</ele>
        <time>2019-05-09T07:31:26Z</time>
      </trkpt>
      <trkpt lat="37.317800" lon="-3.115149">
        <ele>985.000000</ele>
        <time>2019-05-09T07:31:27Z</time>
      </trkpt>
      <trkpt lat="37.317818" lon="-3.115163">
        <ele>985.000000</ele>
        <time>2019-05-09T07:31:28Z</time>
      </trkpt>
      <trkpt lat="37.317835" lon="-3.115178">
        <ele>985.000000</ele>
        <time>2019-05-09T07:31:29Z</time>
      </trkpt>
      <trkpt lat="37.317850" lon="-3.115193">
        <ele>985.000000</ele>
        <time>2019-05-09T07:31:30Z</time>
      </trkpt>
      <trkpt lat="37.317865" lon="-3.115207">
        <ele>985.000000</ele>
        <time>2019-05-09T07:31:31Z</time>
      </trkpt>
      <trkpt lat="37.317880" lon="-3.115221">
        <ele>985.000000</ele>
        <time>2019-05-09T07:31:32Z</time>
      </trkpt>
      <trkpt lat="37.317893" lon="-3.115235">
        <ele>985.000000</ele>
        <time>2019-05-09T07:31:33Z</time>
      </trkpt>
      <trkpt lat="37.317905" lon="-3.115247">
        <ele>985.000000</ele>
        <time>2019-05-09T07:31:34Z</time>
      </trkpt>
      <trkpt lat="37.317918" lon="-3.115261">
        <ele>985.000000</ele>
        <time>2019-05-09T07:31:35Z</time>
      </trkpt>
      <trkpt lat="37.317925" lon="-3.115269">
        <ele>985.000000</ele>
        <time>2019-05-09T07:31:36Z</time>
      </trkpt>
      <trkpt lat="37.317937" lon="-3.115281">
        <ele>984.000000</ele>
        <time>2019-05-09T07:31:36Z</time>
      </trkpt>
      <trkpt lat="37.317945" lon="-3.115291">
        <ele>984.000000</ele>
        <time>2019-05-09T07:31:38Z</time>
      </trkpt>
      <trkpt lat="37.317957" lon="-3.115302">
        <ele>984.000000</ele>
        <time>2019-05-09T07:31:38Z</time>
      </trkpt>
      <trkpt lat="37.317968" lon="-3.115314">
        <ele>984.000000</ele>
        <time>2019-05-09T07:31:39Z</time>
      </trkpt>
      <trkpt lat="37.317980" lon="-3.115326">
        <ele>984.000000</ele>
        <time>2019-05-09T07:31:40Z</time>
      </trkpt>
      <trkpt lat="37.317992" lon="-3.115337">
        <ele>984.000000</ele>
        <time>2019-05-09T07:31:41Z</time>
      </trkpt>
      <trkpt lat="37.318005" lon="-3.115350">
        <ele>984.000000</ele>
        <time>2019-05-09T07:31:42Z</time>
      </trkpt>
      <trkpt lat="37.318017" lon="-3.115362">
        <ele>984.000000</ele>
        <time>2019-05-09T07:31:43Z</time>
      </trkpt>
      <trkpt lat="37.318028" lon="-3.115374">
        <ele>984.000000</ele>
        <time>2019-05-09T07:31:44Z</time>
      </trkpt>
      <trkpt lat="37.318040" lon="-3.115387">
        <ele>984.000000</ele>
        <time>2019-05-09T07:31:45Z</time>
      </trkpt>
      <trkpt lat="37.318053" lon="-3.115400">
        <ele>984.000000</ele>
        <time>2019-05-09T07:31:46Z</time>
      </trkpt>
      <trkpt lat="37.318067" lon="-3.115417">
        <ele>984.000000</ele>
        <time>2019-05-09T07:31:47Z</time>
      </trkpt>
      <trkpt lat="37.318080" lon="-3.115477">
        <ele>984.000000</ele>
        <time>2019-05-09T07:31:48Z</time>
      </trkpt>
      <trkpt lat="37.318093" lon="-3.115498">
        <ele>983.000000</ele>
        <time>2019-05-09T07:31:49Z</time>
      </trkpt>
      <trkpt lat="37.318103" lon="-3.115520">
        <ele>983.000000</ele>
        <time>2019-05-09T07:31:50Z</time>
      </trkpt>
      <trkpt lat="37.318111" lon="-3.115540">
        <ele>983.000000</ele>
        <time>2019-05-09T07:31:51Z</time>
      </trkpt>
      <trkpt lat="37.318119" lon="-3.115560">
        <ele>983.000000</ele>
        <time>2019-05-09T07:31:52Z</time>
      </trkpt>
      <trkpt lat="37.318126" lon="-3.115577">
        <ele>983.000000</ele>
        <time>2019-05-09T07:31:54Z</time>
      </trkpt>
      <trkpt lat="37.318133" lon="-3.115595">
        <ele>983.000000</ele>
        <time>2019-05-09T07:31:55Z</time>
      </trkpt>
      <trkpt lat="37.318141" lon="-3.115613">
        <ele>982.000000</ele>
        <time>2019-05-09T07:31:56Z</time>
      </trkpt>
      <trkpt lat="37.318150" lon="-3.115632">
        <ele>982.000000</ele>
        <time>2019-05-09T07:31:56Z</time>
      </trkpt>
      <trkpt lat="37.318157" lon="-3.115645">
        <ele>982.000000</ele>
        <time>2019-05-09T07:31:57Z</time>
      </trkpt>
      <trkpt lat="37.318166" lon="-3.115660">
        <ele>982.000000</ele>
        <time>2019-05-09T07:31:58Z</time>
      </trkpt>
      <trkpt lat="37.318176" lon="-3.115677">
        <ele>982.000000</ele>
        <time>2019-05-09T07:31:59Z</time>
      </trkpt>
      <trkpt lat="37.318185" lon="-3.115692">
        <ele>982.000000</ele>
        <time>2019-05-09T07:32:00Z</time>
      </trkpt>
      <trkpt lat="37.318197" lon="-3.115708">
        <ele>982.000000</ele>
        <time>2019-05-09T07:32:01Z</time>
      </trkpt>
      <trkpt lat="37.318208" lon="-3.115725">
        <ele>982.000000</ele>
        <time>2019-05-09T07:32:02Z</time>
      </trkpt>
      <trkpt lat="37.318219" lon="-3.115743">
        <ele>982.000000</ele>
        <time>2019-05-09T07:32:03Z</time>
      </trkpt>
      <trkpt lat="37.318232" lon="-3.115762">
        <ele>982.000000</ele>
        <time>2019-05-09T07:32:04Z</time>
      </trkpt>
      <trkpt lat="37.318244" lon="-3.115780">
        <ele>982.000000</ele>
        <time>2019-05-09T07:32:05Z</time>
      </trkpt>
      <trkpt lat="37.318255" lon="-3.115797">
        <ele>982.000000</ele>
        <time>2019-05-09T07:32:06Z</time>
      </trkpt>
      <trkpt lat="37.318268" lon="-3.115815">
        <ele>982.000000</ele>
        <time>2019-05-09T07:32:07Z</time>
      </trkpt>
      <trkpt lat="37.318278" lon="-3.115830">
        <ele>982.000000</ele>
        <time>2019-05-09T07:32:09Z</time>
      </trkpt>
      <trkpt lat="37.318289" lon="-3.115848">
        <ele>982.000000</ele>
        <time>2019-05-09T07:32:09Z</time>
      </trkpt>
      <trkpt lat="37.318298" lon="-3.115860">
        <ele>982.000000</ele>
        <time>2019-05-09T07:32:10Z</time>
      </trkpt>
      <trkpt lat="37.318307" lon="-3.115875">
        <ele>981.000000</ele>
        <time>2019-05-09T07:32:11Z</time>
      </trkpt>
      <trkpt lat="37.318317" lon="-3.115888">
        <ele>981.000000</ele>
        <time>2019-05-09T07:32:12Z</time>
      </trkpt>
      <trkpt lat="37.318325" lon="-3.115900">
        <ele>981.000000</ele>
        <time>2019-05-09T07:32:13Z</time>
      </trkpt>
      <trkpt lat="37.318333" lon="-3.115912">
        <ele>981.000000</ele>
        <time>2019-05-09T07:32:14Z</time>
      </trkpt>
      <trkpt lat="37.318343" lon="-3.115923">
        <ele>981.000000</ele>
        <time>2019-05-09T07:32:15Z</time>
      </trkpt>
      <trkpt lat="37.318352" lon="-3.115937">
        <ele>981.000000</ele>
        <time>2019-05-09T07:32:17Z</time>
      </trkpt>
      <trkpt lat="37.318364" lon="-3.115952">
        <ele>981.000000</ele>
        <time>2019-05-09T07:32:17Z</time>
      </trkpt>
      <trkpt lat="37.318375" lon="-3.115967">
        <ele>981.000000</ele>
        <time>2019-05-09T07:32:18Z</time>
      </trkpt>
      <trkpt lat="37.318388" lon="-3.115983">
        <ele>981.000000</ele>
        <time>2019-05-09T07:32:19Z</time>
      </trkpt>
      <trkpt lat="37.318402" lon="-3.116002">
        <ele>981.000000</ele>
        <time>2019-05-09T07:32:20Z</time>
      </trkpt>
      <trkpt lat="37.318416" lon="-3.116022">
        <ele>980.000000</ele>
        <time>2019-05-09T07:32:21Z</time>
      </trkpt>
      <trkpt lat="37.318429" lon="-3.116042">
        <ele>980.000000</ele>
        <time>2019-05-09T07:32:22Z</time>
      </trkpt>
      <trkpt lat="37.318443" lon="-3.116063">
        <ele>980.000000</ele>
        <time>2019-05-09T07:32:23Z</time>
      </trkpt>
      <trkpt lat="37.318456" lon="-3.116083">
        <ele>980.000000</ele>
        <time>2019-05-09T07:32:24Z</time>
      </trkpt>
      <trkpt lat="37.318467" lon="-3.116103">
        <ele>980.000000</ele>
        <time>2019-05-09T07:32:25Z</time>
      </trkpt>
      <trkpt lat="37.318480" lon="-3.116123">
        <ele>979.000000</ele>
        <time>2019-05-09T07:32:26Z</time>
      </trkpt>
      <trkpt lat="37.318491" lon="-3.116143">
        <ele>979.000000</ele>
        <time>2019-05-09T07:32:27Z</time>
      </trkpt>
      <trkpt lat="37.318500" lon="-3.116162">
        <ele>979.000000</ele>
        <time>2019-05-09T07:32:28Z</time>
      </trkpt>
      <trkpt lat="37.318510" lon="-3.116180">
        <ele>979.000000</ele>
        <time>2019-05-09T07:32:29Z</time>
      </trkpt>
      <trkpt lat="37.318517" lon="-3.116197">
        <ele>979.000000</ele>
        <time>2019-05-09T07:32:30Z</time>
      </trkpt>
      <trkpt lat="37.318522" lon="-3.116212">
        <ele>978.000000</ele>
        <time>2019-05-09T07:32:31Z</time>
      </trkpt>
      <trkpt lat="37.318529" lon="-3.116228">
        <ele>978.000000</ele>
        <time>2019-05-09T07:32:32Z</time>
      </trkpt>
      <trkpt lat="37.318535" lon="-3.116245">
        <ele>978.000000</ele>
        <time>2019-05-09T07:32:33Z</time>
      </trkpt>
      <trkpt lat="37.318542" lon="-3.116263">
        <ele>978.000000</ele>
        <time>2019-05-09T07:32:34Z</time>
      </trkpt>
      <trkpt lat="37.318549" lon="-3.116282">
        <ele>978.000000</ele>
        <time>2019-05-09T07:32:35Z</time>
      </trkpt>
      <trkpt lat="37.318556" lon="-3.116302">
        <ele>978.000000</ele>
        <time>2019-05-09T07:32:36Z</time>
      </trkpt>
      <trkpt lat="37.318562" lon="-3.116322">
        <ele>978.000000</ele>
        <time>2019-05-09T07:32:37Z</time>
      </trkpt>
      <trkpt lat="37.318569" lon="-3.116343">
        <ele>978.000000</ele>
        <time>2019-05-09T07:32:38Z</time>
      </trkpt>
      <trkpt lat="37.318574" lon="-3.116363">
        <ele>978.000000</ele>
        <time>2019-05-09T07:32:39Z</time>
      </trkpt>
      <trkpt lat="37.318581" lon="-3.116387">
        <ele>977.000000</ele>
        <time>2019-05-09T07:32:40Z</time>
      </trkpt>
      <trkpt lat="37.318588" lon="-3.116412">
        <ele>977.000000</ele>
        <time>2019-05-09T07:32:42Z</time>
      </trkpt>
      <trkpt lat="37.318594" lon="-3.116435">
        <ele>977.000000</ele>
        <time>2019-05-09T07:32:42Z</time>
      </trkpt>
      <trkpt lat="37.318597" lon="-3.116457">
        <ele>977.000000</ele>
        <time>2019-05-09T07:32:43Z</time>
      </trkpt>
      <trkpt lat="37.318601" lon="-3.116477">
        <ele>976.000000</ele>
        <time>2019-05-09T07:32:44Z</time>
      </trkpt>
      <trkpt lat="37.318603" lon="-3.116495">
        <ele>976.000000</ele>
        <time>2019-05-09T07:32:45Z</time>
      </trkpt>
      <trkpt lat="37.318604" lon="-3.116510">
        <ele>976.000000</ele>
        <time>2019-05-09T07:32:46Z</time>
      </trkpt>
      <trkpt lat="37.318606" lon="-3.116525">
        <ele>976.000000</ele>
        <time>2019-05-09T07:32:47Z</time>
      </trkpt>
      <trkpt lat="37.318608" lon="-3.116542">
        <ele>976.000000</ele>
        <time>2019-05-09T07:32:48Z</time>
      </trkpt>
      <trkpt lat="37.318611" lon="-3.116558">
        <ele>976.000000</ele>
        <time>2019-05-09T07:32:49Z</time>
      </trkpt>
      <trkpt lat="37.318613" lon="-3.116575">
        <ele>976.000000</ele>
        <time>2019-05-09T07:32:50Z</time>
      </trkpt>
      <trkpt lat="37.318618" lon="-3.116593">
        <ele>976.000000</ele>
        <time>2019-05-09T07:32:51Z</time>
      </trkpt>
      <trkpt lat="37.318622" lon="-3.116612">
        <ele>976.000000</ele>
        <time>2019-05-09T07:32:52Z</time>
      </trkpt>
      <trkpt lat="37.318626" lon="-3.116633">
        <ele>976.000000</ele>
        <time>2019-05-09T07:32:53Z</time>
      </trkpt>
      <trkpt lat="37.318631" lon="-3.116653">
        <ele>976.000000</ele>
        <time>2019-05-09T07:32:54Z</time>
      </trkpt>
      <trkpt lat="37.318637" lon="-3.116672">
        <ele>975.000000</ele>
        <time>2019-05-09T07:32:55Z</time>
      </trkpt>
      <trkpt lat="37.318641" lon="-3.116688">
        <ele>975.000000</ele>
        <time>2019-05-09T07:32:56Z</time>
      </trkpt>
      <trkpt lat="37.318648" lon="-3.116708">
        <ele>975.000000</ele>
        <time>2019-05-09T07:32:57Z</time>
      </trkpt>
      <trkpt lat="37.318653" lon="-3.116727">
        <ele>975.000000</ele>
        <time>2019-05-09T07:32:58Z</time>
      </trkpt>
      <trkpt lat="37.318660" lon="-3.116745">
        <ele>975.000000</ele>
        <time>2019-05-09T07:32:59Z</time>
      </trkpt>
      <trkpt lat="37.318664" lon="-3.116760">
        <ele>975.000000</ele>
        <time>2019-05-09T07:33:00Z</time>
      </trkpt>
      <trkpt lat="37.318669" lon="-3.116775">
        <ele>974.000000</ele>
        <time>2019-05-09T07:33:01Z</time>
      </trkpt>
      <trkpt lat="37.318673" lon="-3.116788">
        <ele>974.000000</ele>
        <time>2019-05-09T07:33:02Z</time>
      </trkpt>
      <trkpt lat="37.318678" lon="-3.116802">
        <ele>974.000000</ele>
        <time>2019-05-09T07:33:04Z</time>
      </trkpt>
      <trkpt lat="37.318681" lon="-3.116813">
        <ele>974.000000</ele>
        <time>2019-05-09T07:33:04Z</time>
      </trkpt>
      <trkpt lat="37.318687" lon="-3.116828">
        <ele>974.000000</ele>
        <time>2019-05-09T07:33:05Z</time>
      </trkpt>
      <trkpt lat="37.318693" lon="-3.116842">
        <ele>974.000000</ele>
        <time>2019-05-09T07:33:06Z</time>
      </trkpt>
      <trkpt lat="37.318701" lon="-3.116857">
        <ele>974.000000</ele>
        <time>2019-05-09T07:33:07Z</time>
      </trkpt>
      <trkpt lat="37.318708" lon="-3.116872">
        <ele>973.000000</ele>
        <time>2019-05-09T07:33:08Z</time>
      </trkpt>
      <trkpt lat="37.318716" lon="-3.116887">
        <ele>973.000000</ele>
        <time>2019-05-09T07:33:09Z</time>
      </trkpt>
      <trkpt lat="37.318725" lon="-3.116900">
        <ele>973.000000</ele>
        <time>2019-05-09T07:33:10Z</time>
      </trkpt>
      <trkpt lat="37.318734" lon="-3.116915">
        <ele>973.000000</ele>
        <time>2019-05-09T07:33:11Z</time>
      </trkpt>
      <trkpt lat="37.318743" lon="-3.116930">
        <ele>973.000000</ele>
        <time>2019-05-09T07:33:12Z</time>
      </trkpt>
      <trkpt lat="37.318753" lon="-3.116947">
        <ele>972.000000</ele>
        <time>2019-05-09T07:33:13Z</time>
      </trkpt>
      <trkpt lat="37.318765" lon="-3.116963">
        <ele>972.000000</ele>
        <time>2019-05-09T07:33:14Z</time>
      </trkpt>
      <trkpt lat="37.318774" lon="-3.116978">
        <ele>972.000000</ele>
        <time>2019-05-09T07:33:15Z</time>
      </trkpt>
      <trkpt lat="37.318786" lon="-3.116995">
        <ele>972.000000</ele>
        <time>2019-05-09T07:33:16Z</time>
      </trkpt>
      <trkpt lat="37.318798" lon="-3.117013">
        <ele>972.000000</ele>
        <time>2019-05-09T07:33:17Z</time>
      </trkpt>
      <trkpt lat="37.318811" lon="-3.117028">
        <ele>972.000000</ele>
        <time>2019-05-09T07:33:18Z</time>
      </trkpt>
      <trkpt lat="37.318822" lon="-3.117043">
        <ele>971.000000</ele>
        <time>2019-05-09T07:33:19Z</time>
      </trkpt>
      <trkpt lat="37.318834" lon="-3.117058">
        <ele>971.000000</ele>
        <time>2019-05-09T07:33:20Z</time>
      </trkpt>
      <trkpt lat="37.318844" lon="-3.117072">
        <ele>971.000000</ele>
        <time>2019-05-09T07:33:21Z</time>
      </trkpt>
      <trkpt lat="37.318857" lon="-3.117088">
        <ele>971.000000</ele>
        <time>2019-05-09T07:33:22Z</time>
      </trkpt>
      <trkpt lat="37.318869" lon="-3.117105">
        <ele>971.000000</ele>
        <time>2019-05-09T07:33:23Z</time>
      </trkpt>
      <trkpt lat="37.318882" lon="-3.117118">
        <ele>970.000000</ele>
        <time>2019-05-09T07:33:24Z</time>
      </trkpt>
      <trkpt lat="37.318895" lon="-3.117135">
        <ele>970.000000</ele>
        <time>2019-05-09T07:33:25Z</time>
      </trkpt>
      <trkpt lat="37.318908" lon="-3.117152">
        <ele>970.000000</ele>
        <time>2019-05-09T07:33:26Z</time>
      </trkpt>
      <trkpt lat="37.318920" lon="-3.117167">
        <ele>970.000000</ele>
        <time>2019-05-09T07:33:27Z</time>
      </trkpt>
      <trkpt lat="37.318931" lon="-3.117182">
        <ele>970.000000</ele>
        <time>2019-05-09T07:33:29Z</time>
      </trkpt>
      <trkpt lat="37.318943" lon="-3.117195">
        <ele>970.000000</ele>
        <time>2019-05-09T07:33:29Z</time>
      </trkpt>
      <trkpt lat="37.318953" lon="-3.117208">
        <ele>970.000000</ele>
        <time>2019-05-09T07:33:30Z</time>
      </trkpt>
      <trkpt lat="37.318964" lon="-3.117223">
        <ele>970.000000</ele>
        <time>2019-05-09T07:33:31Z</time>
      </trkpt>
      <trkpt lat="37.318977" lon="-3.117238">
        <ele>970.000000</ele>
        <time>2019-05-09T07:33:32Z</time>
      </trkpt>
      <trkpt lat="37.318990" lon="-3.117255">
        <ele>970.000000</ele>
        <time>2019-05-09T07:33:33Z</time>
      </trkpt>
      <trkpt lat="37.319002" lon="-3.117270">
        <ele>970.000000</ele>
        <time>2019-05-09T07:33:34Z</time>
      </trkpt>
      <trkpt lat="37.319014" lon="-3.117285">
        <ele>970.000000</ele>
        <time>2019-05-09T07:33:35Z</time>
      </trkpt>
      <trkpt lat="37.319025" lon="-3.117300">
        <ele>970.000000</ele>
        <time>2019-05-09T07:33:36Z</time>
      </trkpt>
      <trkpt lat="37.319038" lon="-3.117317">
        <ele>969.000000</ele>
        <time>2019-05-09T07:33:37Z</time>
      </trkpt>
      <trkpt lat="37.319049" lon="-3.117330">
        <ele>969.000000</ele>
        <time>2019-05-09T07:33:38Z</time>
      </trkpt>
      <trkpt lat="37.319060" lon="-3.117343">
        <ele>969.000000</ele>
        <time>2019-05-09T07:33:39Z</time>
      </trkpt>
      <trkpt lat="37.319071" lon="-3.117355">
        <ele>969.000000</ele>
        <time>2019-05-09T07:33:40Z</time>
      </trkpt>
      <trkpt lat="37.319082" lon="-3.117368">
        <ele>969.000000</ele>
        <time>2019-05-09T07:33:41Z</time>
      </trkpt>
      <trkpt lat="37.319113" lon="-3.117383">
        <ele>969.000000</ele>
        <time>2019-05-09T07:33:42Z</time>
      </trkpt>
      <trkpt lat="37.319127" lon="-3.117397">
        <ele>969.000000</ele>
        <time>2019-05-09T07:33:43Z</time>
      </trkpt>
      <trkpt lat="37.319142" lon="-3.117406">
        <ele>968.000000</ele>
        <time>2019-05-09T07:33:44Z</time>
      </trkpt>
      <trkpt lat="37.319155" lon="-3.117415">
        <ele>968.000000</ele>
        <time>2019-05-09T07:33:45Z</time>
      </trkpt>
      <trkpt lat="37.319167" lon="-3.117423">
        <ele>968.000000</ele>
        <time>2019-05-09T07:33:46Z</time>
      </trkpt>
      <trkpt lat="37.319177" lon="-3.117431">
        <ele>968.000000</ele>
        <time>2019-05-09T07:33:47Z</time>
      </trkpt>
      <trkpt lat="37.319190" lon="-3.117443">
        <ele>968.000000</ele>
        <time>2019-05-09T07:33:48Z</time>
      </trkpt>
      <trkpt lat="37.319200" lon="-3.117453">
        <ele>968.000000</ele>
        <time>2019-05-09T07:33:49Z</time>
      </trkpt>
      <trkpt lat="37.319212" lon="-3.117465">
        <ele>967.000000</ele>
        <time>2019-05-09T07:33:50Z</time>
      </trkpt>
      <trkpt lat="37.319223" lon="-3.117477">
        <ele>967.000000</ele>
        <time>2019-05-09T07:33:51Z</time>
      </trkpt>
      <trkpt lat="37.319237" lon="-3.117489">
        <ele>967.000000</ele>
        <time>2019-05-09T07:33:52Z</time>
      </trkpt>
      <trkpt lat="37.319247" lon="-3.117499">
        <ele>967.000000</ele>
        <time>2019-05-09T07:33:54Z</time>
      </trkpt>
      <trkpt lat="37.319258" lon="-3.117512">
        <ele>967.000000</ele>
        <time>2019-05-09T07:33:54Z</time>
      </trkpt>
      <trkpt lat="37.319270" lon="-3.117525">
        <ele>967.000000</ele>
        <time>2019-05-09T07:33:55Z</time>
      </trkpt>
      <trkpt lat="37.319282" lon="-3.117538">
        <ele>967.000000</ele>
        <time>2019-05-09T07:33:56Z</time>
      </trkpt>
      <trkpt lat="37.319292" lon="-3.117551">
        <ele>966.000000</ele>
        <time>2019-05-09T07:33:57Z</time>
      </trkpt>
      <trkpt lat="37.319305" lon="-3.117567">
        <ele>966.000000</ele>
        <time>2019-05-09T07:33:58Z</time>
      </trkpt>
      <trkpt lat="37.319317" lon="-3.117582">
        <ele>966.000000</ele>
        <time>2019-05-09T07:33:59Z</time>
      </trkpt>
      <trkpt lat="37.319327" lon="-3.117612">
        <ele>966.000000</ele>
        <time>2019-05-09T07:34:00Z</time>
      </trkpt>
      <trkpt lat="37.319337" lon="-3.117627">
        <ele>966.000000</ele>
        <time>2019-05-09T07:34:01Z</time>
      </trkpt>
      <trkpt lat="37.319345" lon="-3.117643">
        <ele>966.000000</ele>
        <time>2019-05-09T07:34:02Z</time>
      </trkpt>
      <trkpt lat="37.319355" lon="-3.117660">
        <ele>965.000000</ele>
        <time>2019-05-09T07:34:03Z</time>
      </trkpt>
      <trkpt lat="37.319366" lon="-3.117677">
        <ele>965.000000</ele>
        <time>2019-05-09T07:34:04Z</time>
      </trkpt>
      <trkpt lat="37.319379" lon="-3.117695">
        <ele>965.000000</ele>
        <time>2019-05-09T07:34:05Z</time>
      </trkpt>
      <trkpt lat="37.319394" lon="-3.117715">
        <ele>965.000000</ele>
        <time>2019-05-09T07:34:06Z</time>
      </trkpt>
      <trkpt lat="37.319403" lon="-3.117733">
        <ele>965.000000</ele>
        <time>2019-05-09T07:34:07Z</time>
      </trkpt>
      <trkpt lat="37.319414" lon="-3.117755">
        <ele>965.000000</ele>
        <time>2019-05-09T07:34:08Z</time>
      </trkpt>
      <trkpt lat="37.319421" lon="-3.117773">
        <ele>964.000000</ele>
        <time>2019-05-09T07:34:09Z</time>
      </trkpt>
      <trkpt lat="37.319427" lon="-3.117788">
        <ele>964.000000</ele>
        <time>2019-05-09T07:34:10Z</time>
      </trkpt>
      <trkpt lat="37.319434" lon="-3.117805">
        <ele>964.000000</ele>
        <time>2019-05-09T07:34:11Z</time>
      </trkpt>
      <trkpt lat="37.319441" lon="-3.117822">
        <ele>964.000000</ele>
        <time>2019-05-09T07:34:12Z</time>
      </trkpt>
      <trkpt lat="37.319449" lon="-3.117837">
        <ele>964.000000</ele>
        <time>2019-05-09T07:34:13Z</time>
      </trkpt>
      <trkpt lat="37.319458" lon="-3.117853">
        <ele>964.000000</ele>
        <time>2019-05-09T07:34:15Z</time>
      </trkpt>
      <trkpt lat="37.319465" lon="-3.117868">
        <ele>964.000000</ele>
        <time>2019-05-09T07:34:15Z</time>
      </trkpt>
      <trkpt lat="37.319474" lon="-3.117887">
        <ele>964.000000</ele>
        <time>2019-05-09T07:34:16Z</time>
      </trkpt>
      <trkpt lat="37.319482" lon="-3.117903">
        <ele>964.000000</ele>
        <time>2019-05-09T07:34:17Z</time>
      </trkpt>
      <trkpt lat="37.319489" lon="-3.117922">
        <ele>964.000000</ele>
        <time>2019-05-09T07:34:18Z</time>
      </trkpt>
      <trkpt lat="37.319495" lon="-3.117938">
        <ele>964.000000</ele>
        <time>2019-05-09T07:34:19Z</time>
      </trkpt>
      <trkpt lat="37.319503" lon="-3.117955">
        <ele>964.000000</ele>
        <time>2019-05-09T07:34:20Z</time>
      </trkpt>
      <trkpt lat="37.319508" lon="-3.117968">
        <ele>964.000000</ele>
        <time>2019-05-09T07:34:21Z</time>
      </trkpt>
      <trkpt lat="37.319515" lon="-3.117985">
        <ele>964.000000</ele>
        <time>2019-05-09T07:34:22Z</time>
      </trkpt>
      <trkpt lat="37.319522" lon="-3.117998">
        <ele>964.000000</ele>
        <time>2019-05-09T07:34:23Z</time>
      </trkpt>
      <trkpt lat="37.319527" lon="-3.118007">
        <ele>963.000000</ele>
        <time>2019-05-09T07:34:24Z</time>
      </trkpt>
      <trkpt lat="37.319532" lon="-3.118013">
        <ele>963.000000</ele>
        <time>2019-05-09T07:34:25Z</time>
      </trkpt>
      <trkpt lat="37.319563" lon="-3.118020">
        <ele>963.000000</ele>
        <time>2019-05-09T07:34:26Z</time>
      </trkpt>
      <trkpt lat="37.319578" lon="-3.118028">
        <ele>963.000000</ele>
        <time>2019-05-09T07:34:27Z</time>
      </trkpt>
      <trkpt lat="37.319592" lon="-3.118040">
        <ele>963.000000</ele>
        <time>2019-05-09T07:34:28Z</time>
      </trkpt>
      <trkpt lat="37.319607" lon="-3.118048">
        <ele>963.000000</ele>
        <time>2019-05-09T07:34:29Z</time>
      </trkpt>
      <trkpt lat="37.319618" lon="-3.118054">
        <ele>963.000000</ele>
        <time>2019-05-09T07:34:30Z</time>
      </trkpt>
      <trkpt lat="37.319628" lon="-3.118055">
        <ele>962.000000</ele>
        <time>2019-05-09T07:34:31Z</time>
      </trkpt>
      <trkpt lat="37.319640" lon="-3.118051">
        <ele>962.000000</ele>
        <time>2019-05-09T07:34:32Z</time>
      </trkpt>
      <trkpt lat="37.319650" lon="-3.118030">
        <ele>962.000000</ele>
        <time>2019-05-09T07:34:33Z</time>
      </trkpt>
      <trkpt lat="37.319658" lon="-3.118020">
        <ele>962.000000</ele>
        <time>2019-05-09T07:34:34Z</time>
      </trkpt>
      <trkpt lat="37.319668" lon="-3.118005">
        <ele>962.000000</ele>
        <time>2019-05-09T07:34:35Z</time>
      </trkpt>
      <trkpt lat="37.319678" lon="-3.117993">
        <ele>961.000000</ele>
        <time>2019-05-09T07:34:36Z</time>
      </trkpt>
      <trkpt lat="37.319688" lon="-3.117980">
        <ele>961.000000</ele>
        <time>2019-05-09T07:34:37Z</time>
      </trkpt>
      <trkpt lat="37.319700" lon="-3.117967">
        <ele>961.000000</ele>
        <time>2019-05-09T07:34:38Z</time>
      </trkpt>
      <trkpt lat="37.319710" lon="-3.117950">
        <ele>961.000000</ele>
        <time>2019-05-09T07:34:40Z</time>
      </trkpt>
      <trkpt lat="37.319715" lon="-3.117933">
        <ele>961.000000</ele>
        <time>2019-05-09T07:34:40Z</time>
      </trkpt>
      <trkpt lat="37.319723" lon="-3.117920">
        <ele>961.000000</ele>
        <time>2019-05-09T07:34:41Z</time>
      </trkpt>
      <trkpt lat="37.319730" lon="-3.117906">
        <ele>961.000000</ele>
        <time>2019-05-09T07:34:42Z</time>
      </trkpt>
      <trkpt lat="37.319738" lon="-3.117889">
        <ele>961.000000</ele>
        <time>2019-05-09T07:34:43Z</time>
      </trkpt>
      <trkpt lat="37.319745" lon="-3.117872">
        <ele>961.000000</ele>
        <time>2019-05-09T07:34:44Z</time>
      </trkpt>
      <trkpt lat="37.319753" lon="-3.117853">
        <ele>961.000000</ele>
        <time>2019-05-09T07:34:45Z</time>
      </trkpt>
      <trkpt lat="37.319760" lon="-3.117832">
        <ele>961.000000</ele>
        <time>2019-05-09T07:34:46Z</time>
      </trkpt>
      <trkpt lat="37.319769" lon="-3.117812">
        <ele>961.000000</ele>
        <time>2019-05-09T07:34:47Z</time>
      </trkpt>
      <trkpt lat="37.319775" lon="-3.117795">
        <ele>961.000000</ele>
        <time>2019-05-09T07:34:48Z</time>
      </trkpt>
      <trkpt lat="37.319781" lon="-3.117780">
        <ele>961.000000</ele>
        <time>2019-05-09T07:34:49Z</time>
      </trkpt>
      <trkpt lat="37.319788" lon="-3.117763">
        <ele>961.000000</ele>
        <time>2019-05-09T07:34:50Z</time>
      </trkpt>
      <trkpt lat="37.319795" lon="-3.117745">
        <ele>961.000000</ele>
        <time>2019-05-09T07:34:51Z</time>
      </trkpt>
      <trkpt lat="37.319803" lon="-3.117723">
        <ele>961.000000</ele>
        <time>2019-05-09T07:34:52Z</time>
      </trkpt>
      <trkpt lat="37.319808" lon="-3.117708">
        <ele>961.000000</ele>
        <time>2019-05-09T07:34:53Z</time>
      </trkpt>
      <trkpt lat="37.319813" lon="-3.117695">
        <ele>961.000000</ele>
        <time>2019-05-09T07:34:54Z</time>
      </trkpt>
      <trkpt lat="37.319818" lon="-3.117678">
        <ele>961.000000</ele>
        <time>2019-05-09T07:34:55Z</time>
      </trkpt>
      <trkpt lat="37.319825" lon="-3.117658">
        <ele>961.000000</ele>
        <time>2019-05-09T07:34:56Z</time>
      </trkpt>
      <trkpt lat="37.319829" lon="-3.117642">
        <ele>961.000000</ele>
        <time>2019-05-09T07:34:57Z</time>
      </trkpt>
      <trkpt lat="37.319834" lon="-3.117622">
        <ele>961.000000</ele>
        <time>2019-05-09T07:34:58Z</time>
      </trkpt>
      <trkpt lat="37.319838" lon="-3.117603">
        <ele>961.000000</ele>
        <time>2019-05-09T07:34:59Z</time>
      </trkpt>
      <trkpt lat="37.319841" lon="-3.117583">
        <ele>961.000000</ele>
        <time>2019-05-09T07:35:00Z</time>
      </trkpt>
      <trkpt lat="37.319844" lon="-3.117563">
        <ele>961.000000</ele>
        <time>2019-05-09T07:35:01Z</time>
      </trkpt>
      <trkpt lat="37.319845" lon="-3.117543">
        <ele>961.000000</ele>
        <time>2019-05-09T07:35:03Z</time>
      </trkpt>
      <trkpt lat="37.319847" lon="-3.117523">
        <ele>961.000000</ele>
        <time>2019-05-09T07:35:03Z</time>
      </trkpt>
      <trkpt lat="37.319847" lon="-3.117507">
        <ele>961.000000</ele>
        <time>2019-05-09T07:35:04Z</time>
      </trkpt>
      <trkpt lat="37.319848" lon="-3.117490">
        <ele>961.000000</ele>
        <time>2019-05-09T07:35:05Z</time>
      </trkpt>
      <trkpt lat="37.319849" lon="-3.117473">
        <ele>961.000000</ele>
        <time>2019-05-09T07:35:06Z</time>
      </trkpt>
      <trkpt lat="37.319850" lon="-3.117453">
        <ele>962.000000</ele>
        <time>2019-05-09T07:35:07Z</time>
      </trkpt>
      <trkpt lat="37.319852" lon="-3.117433">
        <ele>962.000000</ele>
        <time>2019-05-09T07:35:08Z</time>
      </trkpt>
      <trkpt lat="37.319854" lon="-3.117412">
        <ele>962.000000</ele>
        <time>2019-05-09T07:35:09Z</time>
      </trkpt>
      <trkpt lat="37.319856" lon="-3.117392">
        <ele>962.000000</ele>
        <time>2019-05-09T07:35:10Z</time>
      </trkpt>
      <trkpt lat="37.319858" lon="-3.117375">
        <ele>962.000000</ele>
        <time>2019-05-09T07:35:11Z</time>
      </trkpt>
      <trkpt lat="37.319860" lon="-3.117357">
        <ele>962.000000</ele>
        <time>2019-05-09T07:35:12Z</time>
      </trkpt>
      <trkpt lat="37.319864" lon="-3.117337">
        <ele>962.000000</ele>
        <time>2019-05-09T07:35:13Z</time>
      </trkpt>
      <trkpt lat="37.319868" lon="-3.117315">
        <ele>962.000000</ele>
        <time>2019-05-09T07:35:14Z</time>
      </trkpt>
      <trkpt lat="37.319870" lon="-3.117295">
        <ele>962.000000</ele>
        <time>2019-05-09T07:35:15Z</time>
      </trkpt>
      <trkpt lat="37.319873" lon="-3.117277">
        <ele>962.000000</ele>
        <time>2019-05-09T07:35:16Z</time>
      </trkpt>
      <trkpt lat="37.319876" lon="-3.117260">
        <ele>962.000000</ele>
        <time>2019-05-09T07:35:17Z</time>
      </trkpt>
      <trkpt lat="37.319881" lon="-3.117243">
        <ele>962.000000</ele>
        <time>2019-05-09T07:35:18Z</time>
      </trkpt>
      <trkpt lat="37.319884" lon="-3.117227">
        <ele>962.000000</ele>
        <time>2019-05-09T07:35:19Z</time>
      </trkpt>
      <trkpt lat="37.319888" lon="-3.117213">
        <ele>962.000000</ele>
        <time>2019-05-09T07:35:20Z</time>
      </trkpt>
      <trkpt lat="37.319892" lon="-3.117198">
        <ele>962.000000</ele>
        <time>2019-05-09T07:35:21Z</time>
      </trkpt>
      <trkpt lat="37.319897" lon="-3.117183">
        <ele>962.000000</ele>
        <time>2019-05-09T07:35:22Z</time>
      </trkpt>
      <trkpt lat="37.319903" lon="-3.117163">
        <ele>962.000000</ele>
        <time>2019-05-09T07:35:23Z</time>
      </trkpt>
      <trkpt lat="37.319909" lon="-3.117143">
        <ele>962.000000</ele>
        <time>2019-05-09T07:35:24Z</time>
      </trkpt>
      <trkpt lat="37.319914" lon="-3.117128">
        <ele>962.000000</ele>
        <time>2019-05-09T07:35:25Z</time>
      </trkpt>
      <trkpt lat="37.319919" lon="-3.117112">
        <ele>963.000000</ele>
        <time>2019-05-09T07:35:26Z</time>
      </trkpt>
      <trkpt lat="37.319925" lon="-3.117095">
        <ele>963.000000</ele>
        <time>2019-05-09T07:35:28Z</time>
      </trkpt>
      <trkpt lat="37.319931" lon="-3.117077">
        <ele>963.000000</ele>
        <time>2019-05-09T07:35:28Z</time>
      </trkpt>
      <trkpt lat="37.319939" lon="-3.117055">
        <ele>963.000000</ele>
        <time>2019-05-09T07:35:29Z</time>
      </trkpt>
      <trkpt lat="37.319946" lon="-3.117035">
        <ele>963.000000</ele>
        <time>2019-05-09T07:35:30Z</time>
      </trkpt>
      <trkpt lat="37.319952" lon="-3.117018">
        <ele>963.000000</ele>
        <time>2019-05-09T07:35:31Z</time>
      </trkpt>
      <trkpt lat="37.319957" lon="-3.116998">
        <ele>963.000000</ele>
        <time>2019-05-09T07:35:32Z</time>
      </trkpt>
      <trkpt lat="37.319964" lon="-3.116977">
        <ele>963.000000</ele>
        <time>2019-05-09T07:35:33Z</time>
      </trkpt>
      <trkpt lat="37.319971" lon="-3.116960">
        <ele>963.000000</ele>
        <time>2019-05-09T07:35:34Z</time>
      </trkpt>
      <trkpt lat="37.319978" lon="-3.116942">
        <ele>963.000000</ele>
        <time>2019-05-09T07:35:35Z</time>
      </trkpt>
      <trkpt lat="37.319984" lon="-3.116927">
        <ele>964.000000</ele>
        <time>2019-05-09T07:35:36Z</time>
      </trkpt>
      <trkpt lat="37.319991" lon="-3.116908">
        <ele>964.000000</ele>
        <time>2019-05-09T07:35:37Z</time>
      </trkpt>
      <trkpt lat="37.319997" lon="-3.116892">
        <ele>964.000000</ele>
        <time>2019-05-09T07:35:38Z</time>
      </trkpt>
      <trkpt lat="37.320003" lon="-3.116875">
        <ele>964.000000</ele>
        <time>2019-05-09T07:35:39Z</time>
      </trkpt>
      <trkpt lat="37.320010" lon="-3.116862">
        <ele>964.000000</ele>
        <time>2019-05-09T07:35:39Z</time>
      </trkpt>
      <trkpt lat="37.320017" lon="-3.116843">
        <ele>964.000000</ele>
        <time>2019-05-09T07:35:40Z</time>
      </trkpt>
      <trkpt lat="37.320025" lon="-3.116828">
        <ele>964.000000</ele>
        <time>2019-05-09T07:35:41Z</time>
      </trkpt>
      <trkpt lat="37.320032" lon="-3.116813">
        <ele>964.000000</ele>
        <time>2019-05-09T07:35:42Z</time>
      </trkpt>
      <trkpt lat="37.320040" lon="-3.116798">
        <ele>964.000000</ele>
        <time>2019-05-09T07:35:43Z</time>
      </trkpt>
      <trkpt lat="37.320048" lon="-3.116782">
        <ele>964.000000</ele>
        <time>2019-05-09T07:35:44Z</time>
      </trkpt>
      <trkpt lat="37.320055" lon="-3.116767">
        <ele>964.000000</ele>
        <time>2019-05-09T07:35:45Z</time>
      </trkpt>
      <trkpt lat="37.320064" lon="-3.116747">
        <ele>964.000000</ele>
        <time>2019-05-09T07:35:46Z</time>
      </trkpt>
      <trkpt lat="37.320071" lon="-3.116728">
        <ele>964.000000</ele>
        <time>2019-05-09T07:35:47Z</time>
      </trkpt>
      <trkpt lat="37.320080" lon="-3.116710">
        <ele>964.000000</ele>
        <time>2019-05-09T07:35:48Z</time>
      </trkpt>
      <trkpt lat="37.320088" lon="-3.116693">
        <ele>964.000000</ele>
        <time>2019-05-09T07:35:49Z</time>
      </trkpt>
      <trkpt lat="37.320095" lon="-3.116677">
        <ele>964.000000</ele>
        <time>2019-05-09T07:35:50Z</time>
      </trkpt>
      <trkpt lat="37.320102" lon="-3.116658">
        <ele>964.000000</ele>
        <time>2019-05-09T07:35:52Z</time>
      </trkpt>
      <trkpt lat="37.320110" lon="-3.116638">
        <ele>964.000000</ele>
        <time>2019-05-09T07:35:52Z</time>
      </trkpt>
      <trkpt lat="37.320117" lon="-3.116622">
        <ele>964.000000</ele>
        <time>2019-05-09T07:35:53Z</time>
      </trkpt>
      <trkpt lat="37.320124" lon="-3.116607">
        <ele>965.000000</ele>
        <time>2019-05-09T07:35:54Z</time>
      </trkpt>
      <trkpt lat="37.320130" lon="-3.116592">
        <ele>965.000000</ele>
        <time>2019-05-09T07:35:55Z</time>
      </trkpt>
      <trkpt lat="37.320136" lon="-3.116578">
        <ele>965.000000</ele>
        <time>2019-05-09T07:35:56Z</time>
      </trkpt>
      <trkpt lat="37.320144" lon="-3.116562">
        <ele>965.000000</ele>
        <time>2019-05-09T07:35:57Z</time>
      </trkpt>
      <trkpt lat="37.320149" lon="-3.116547">
        <ele>965.000000</ele>
        <time>2019-05-09T07:35:58Z</time>
      </trkpt>
      <trkpt lat="37.320155" lon="-3.116530">
        <ele>965.000000</ele>
        <time>2019-05-09T07:35:59Z</time>
      </trkpt>
      <trkpt lat="37.320163" lon="-3.116515">
        <ele>965.000000</ele>
        <time>2019-05-09T07:36:00Z</time>
      </trkpt>
      <trkpt lat="37.320169" lon="-3.116497">
        <ele>965.000000</ele>
        <time>2019-05-09T07:36:01Z</time>
      </trkpt>
      <trkpt lat="37.320175" lon="-3.116480">
        <ele>965.000000</ele>
        <time>2019-05-09T07:36:02Z</time>
      </trkpt>
      <trkpt lat="37.320184" lon="-3.116462">
        <ele>965.000000</ele>
        <time>2019-05-09T07:36:03Z</time>
      </trkpt>
      <trkpt lat="37.320191" lon="-3.116443">
        <ele>965.000000</ele>
        <time>2019-05-09T07:36:04Z</time>
      </trkpt>
      <trkpt lat="37.320198" lon="-3.116427">
        <ele>965.000000</ele>
        <time>2019-05-09T07:36:05Z</time>
      </trkpt>
      <trkpt lat="37.320207" lon="-3.116408">
        <ele>966.000000</ele>
        <time>2019-05-09T07:36:06Z</time>
      </trkpt>
      <trkpt lat="37.320213" lon="-3.116392">
        <ele>966.000000</ele>
        <time>2019-05-09T07:36:07Z</time>
      </trkpt>
      <trkpt lat="37.320221" lon="-3.116377">
        <ele>966.000000</ele>
        <time>2019-05-09T07:36:08Z</time>
      </trkpt>
      <trkpt lat="37.320231" lon="-3.116357">
        <ele>966.000000</ele>
        <time>2019-05-09T07:36:09Z</time>
      </trkpt>
      <trkpt lat="37.320241" lon="-3.116337">
        <ele>966.000000</ele>
        <time>2019-05-09T07:36:10Z</time>
      </trkpt>
      <trkpt lat="37.320252" lon="-3.116315">
        <ele>966.000000</ele>
        <time>2019-05-09T07:36:11Z</time>
      </trkpt>
      <trkpt lat="37.320262" lon="-3.116293">
        <ele>966.000000</ele>
        <time>2019-05-09T07:36:12Z</time>
      </trkpt>
      <trkpt lat="37.320270" lon="-3.116280">
        <ele>966.000000</ele>
        <time>2019-05-09T07:36:14Z</time>
      </trkpt>
      <trkpt lat="37.320276" lon="-3.116268">
        <ele>966.000000</ele>
        <time>2019-05-09T07:36:14Z</time>
      </trkpt>
      <trkpt lat="37.320284" lon="-3.116255">
        <ele>966.000000</ele>
        <time>2019-05-09T07:36:15Z</time>
      </trkpt>
      <trkpt lat="37.320292" lon="-3.116243">
        <ele>966.000000</ele>
        <time>2019-05-09T07:36:16Z</time>
      </trkpt>
      <trkpt lat="37.320300" lon="-3.116227">
        <ele>966.000000</ele>
        <time>2019-05-09T07:36:17Z</time>
      </trkpt>
      <trkpt lat="37.320309" lon="-3.116210">
        <ele>966.000000</ele>
        <time>2019-05-09T07:36:18Z</time>
      </trkpt>
      <trkpt lat="37.320321" lon="-3.116192">
        <ele>966.000000</ele>
        <time>2019-05-09T07:36:19Z</time>
      </trkpt>
      <trkpt lat="37.320332" lon="-3.116170">
        <ele>966.000000</ele>
        <time>2019-05-09T07:36:20Z</time>
      </trkpt>
      <trkpt lat="37.320343" lon="-3.116153">
        <ele>966.000000</ele>
        <time>2019-05-09T07:36:21Z</time>
      </trkpt>
      <trkpt lat="37.320353" lon="-3.116135">
        <ele>966.000000</ele>
        <time>2019-05-09T07:36:22Z</time>
      </trkpt>
      <trkpt lat="37.320364" lon="-3.116118">
        <ele>966.000000</ele>
        <time>2019-05-09T07:36:23Z</time>
      </trkpt>
      <trkpt lat="37.320375" lon="-3.116102">
        <ele>966.000000</ele>
        <time>2019-05-09T07:36:24Z</time>
      </trkpt>
      <trkpt lat="37.320387" lon="-3.116083">
        <ele>966.000000</ele>
        <time>2019-05-09T07:36:25Z</time>
      </trkpt>
      <trkpt lat="37.320399" lon="-3.116065">
        <ele>966.000000</ele>
        <time>2019-05-09T07:36:26Z</time>
      </trkpt>
      <trkpt lat="37.320410" lon="-3.116050">
        <ele>966.000000</ele>
        <time>2019-05-09T07:36:27Z</time>
      </trkpt>
      <trkpt lat="37.320421" lon="-3.116035">
        <ele>966.000000</ele>
        <time>2019-05-09T07:36:28Z</time>
      </trkpt>
      <trkpt lat="37.320431" lon="-3.116020">
        <ele>966.000000</ele>
        <time>2019-05-09T07:36:29Z</time>
      </trkpt>
      <trkpt lat="37.320439" lon="-3.116010">
        <ele>966.000000</ele>
        <time>2019-05-09T07:36:30Z</time>
      </trkpt>
      <trkpt lat="37.320450" lon="-3.115992">
        <ele>966.000000</ele>
        <time>2019-05-09T07:36:31Z</time>
      </trkpt>
      <trkpt lat="37.320462" lon="-3.115975">
        <ele>967.000000</ele>
        <time>2019-05-09T07:36:32Z</time>
      </trkpt>
      <trkpt lat="37.320473" lon="-3.115958">
        <ele>967.000000</ele>
        <time>2019-05-09T07:36:33Z</time>
      </trkpt>
      <trkpt lat="37.320483" lon="-3.115943">
        <ele>967.000000</ele>
        <time>2019-05-09T07:36:34Z</time>
      </trkpt>
      <trkpt lat="37.320493" lon="-3.115930">
        <ele>967.000000</ele>
        <time>2019-05-09T07:36:35Z</time>
      </trkpt>
      <trkpt lat="37.320501" lon="-3.115917">
        <ele>967.000000</ele>
        <time>2019-05-09T07:36:36Z</time>
      </trkpt>
      <trkpt lat="37.320509" lon="-3.115903">
        <ele>967.000000</ele>
        <time>2019-05-09T07:36:37Z</time>
      </trkpt>
      <trkpt lat="37.320518" lon="-3.115890">
        <ele>967.000000</ele>
        <time>2019-05-09T07:36:39Z</time>
      </trkpt>
      <trkpt lat="37.320525" lon="-3.115878">
        <ele>967.000000</ele>
        <time>2019-05-09T07:36:39Z</time>
      </trkpt>
      <trkpt lat="37.320535" lon="-3.115863">
        <ele>967.000000</ele>
        <time>2019-05-09T07:36:40Z</time>
      </trkpt>
      <trkpt lat="37.320543" lon="-3.115848">
        <ele>967.000000</ele>
        <time>2019-05-09T07:36:41Z</time>
      </trkpt>
      <trkpt lat="37.320554" lon="-3.115832">
        <ele>967.000000</ele>
        <time>2019-05-09T07:36:42Z</time>
      </trkpt>
      <trkpt lat="37.320561" lon="-3.115818">
        <ele>968.000000</ele>
        <time>2019-05-09T07:36:43Z</time>
      </trkpt>
      <trkpt lat="37.320572" lon="-3.115802">
        <ele>968.000000</ele>
        <time>2019-05-09T07:36:44Z</time>
      </trkpt>
      <trkpt lat="37.320579" lon="-3.115788">
        <ele>968.000000</ele>
        <time>2019-05-09T07:36:45Z</time>
      </trkpt>
      <trkpt lat="37.320591" lon="-3.115770">
        <ele>968.000000</ele>
        <time>2019-05-09T07:36:46Z</time>
      </trkpt>
      <trkpt lat="37.320602" lon="-3.115753">
        <ele>968.000000</ele>
        <time>2019-05-09T07:36:47Z</time>
      </trkpt>
      <trkpt lat="37.320612" lon="-3.115735">
        <ele>968.000000</ele>
        <time>2019-05-09T07:36:48Z</time>
      </trkpt>
      <trkpt lat="37.320623" lon="-3.115717">
        <ele>968.000000</ele>
        <time>2019-05-09T07:36:49Z</time>
      </trkpt>
      <trkpt lat="37.320634" lon="-3.115700">
        <ele>968.000000</ele>
        <time>2019-05-09T07:36:50Z</time>
      </trkpt>
      <trkpt lat="37.320645" lon="-3.115682">
        <ele>968.000000</ele>
        <time>2019-05-09T07:36:51Z</time>
      </trkpt>
      <trkpt lat="37.320654" lon="-3.115665">
        <ele>968.000000</ele>
        <time>2019-05-09T07:36:52Z</time>
      </trkpt>
      <trkpt lat="37.320665" lon="-3.115647">
        <ele>968.000000</ele>
        <time>2019-05-09T07:36:53Z</time>
      </trkpt>
      <trkpt lat="37.320677" lon="-3.115630">
        <ele>968.000000</ele>
        <time>2019-05-09T07:36:54Z</time>
      </trkpt>
      <trkpt lat="37.320686" lon="-3.115613">
        <ele>968.000000</ele>
        <time>2019-05-09T07:36:55Z</time>
      </trkpt>
      <trkpt lat="37.320696" lon="-3.115600">
        <ele>968.000000</ele>
        <time>2019-05-09T07:36:56Z</time>
      </trkpt>
      <trkpt lat="37.320706" lon="-3.115587">
        <ele>968.000000</ele>
        <time>2019-05-09T07:36:57Z</time>
      </trkpt>
      <trkpt lat="37.320715" lon="-3.115572">
        <ele>968.000000</ele>
        <time>2019-05-09T07:36:58Z</time>
      </trkpt>
      <trkpt lat="37.320725" lon="-3.115560">
        <ele>968.000000</ele>
        <time>2019-05-09T07:36:59Z</time>
      </trkpt>
      <trkpt lat="37.320735" lon="-3.115547">
        <ele>968.000000</ele>
        <time>2019-05-09T07:37:00Z</time>
      </trkpt>
      <trkpt lat="37.320745" lon="-3.115533">
        <ele>968.000000</ele>
        <time>2019-05-09T07:37:01Z</time>
      </trkpt>
      <trkpt lat="37.320755" lon="-3.115518">
        <ele>968.000000</ele>
        <time>2019-05-09T07:37:02Z</time>
      </trkpt>
      <trkpt lat="37.320765" lon="-3.115503">
        <ele>969.000000</ele>
        <time>2019-05-09T07:37:03Z</time>
      </trkpt>
      <trkpt lat="37.320776" lon="-3.115488">
        <ele>969.000000</ele>
        <time>2019-05-09T07:37:04Z</time>
      </trkpt>
      <trkpt lat="37.320788" lon="-3.115470">
        <ele>969.000000</ele>
        <time>2019-05-09T07:37:05Z</time>
      </trkpt>
      <trkpt lat="37.320799" lon="-3.115452">
        <ele>969.000000</ele>
        <time>2019-05-09T07:37:06Z</time>
      </trkpt>
      <trkpt lat="37.320808" lon="-3.115437">
        <ele>969.000000</ele>
        <time>2019-05-09T07:37:07Z</time>
      </trkpt>
      <trkpt lat="37.320818" lon="-3.115420">
        <ele>969.000000</ele>
        <time>2019-05-09T07:37:08Z</time>
      </trkpt>
      <trkpt lat="37.320828" lon="-3.115403">
        <ele>970.000000</ele>
        <time>2019-05-09T07:37:09Z</time>
      </trkpt>
      <trkpt lat="37.320837" lon="-3.115387">
        <ele>970.000000</ele>
        <time>2019-05-09T07:37:10Z</time>
      </trkpt>
      <trkpt lat="37.320848" lon="-3.115368">
        <ele>970.000000</ele>
        <time>2019-05-09T07:37:11Z</time>
      </trkpt>
      <trkpt lat="37.320857" lon="-3.115350">
        <ele>970.000000</ele>
        <time>2019-05-09T07:37:12Z</time>
      </trkpt>
      <trkpt lat="37.320867" lon="-3.115330">
        <ele>970.000000</ele>
        <time>2019-05-09T07:37:13Z</time>
      </trkpt>
      <trkpt lat="37.320875" lon="-3.115313">
        <ele>970.000000</ele>
        <time>2019-05-09T07:37:14Z</time>
      </trkpt>
      <trkpt lat="37.320883" lon="-3.115297">
        <ele>970.000000</ele>
        <time>2019-05-09T07:37:15Z</time>
      </trkpt>
      <trkpt lat="37.320892" lon="-3.115277">
        <ele>970.000000</ele>
        <time>2019-05-09T07:37:16Z</time>
      </trkpt>
      <trkpt lat="37.320901" lon="-3.115255">
        <ele>970.000000</ele>
        <time>2019-05-09T07:37:17Z</time>
      </trkpt>
      <trkpt lat="37.320910" lon="-3.115235">
        <ele>970.000000</ele>
        <time>2019-05-09T07:37:18Z</time>
      </trkpt>
      <trkpt lat="37.320917" lon="-3.115217">
        <ele>970.000000</ele>
        <time>2019-05-09T07:37:19Z</time>
      </trkpt>
      <trkpt lat="37.320926" lon="-3.115197">
        <ele>970.000000</ele>
        <time>2019-05-09T07:37:20Z</time>
      </trkpt>
      <trkpt lat="37.320932" lon="-3.115178">
        <ele>970.000000</ele>
        <time>2019-05-09T07:37:21Z</time>
      </trkpt>
      <trkpt lat="37.320939" lon="-3.115158">
        <ele>970.000000</ele>
        <time>2019-05-09T07:37:22Z</time>
      </trkpt>
      <trkpt lat="37.320947" lon="-3.115138">
        <ele>971.000000</ele>
        <time>2019-05-09T07:37:23Z</time>
      </trkpt>
      <trkpt lat="37.320954" lon="-3.115118">
        <ele>971.000000</ele>
        <time>2019-05-09T07:37:24Z</time>
      </trkpt>
      <trkpt lat="37.320961" lon="-3.115098">
        <ele>971.000000</ele>
        <time>2019-05-09T07:37:26Z</time>
      </trkpt>
      <trkpt lat="37.320962" lon="-3.115085">
        <ele>971.000000</ele>
        <time>2019-05-09T07:37:26Z</time>
      </trkpt>
      <trkpt lat="37.320969" lon="-3.115068">
        <ele>971.000000</ele>
        <time>2019-05-09T07:37:27Z</time>
      </trkpt>
      <trkpt lat="37.320976" lon="-3.115050">
        <ele>971.000000</ele>
        <time>2019-05-09T07:37:28Z</time>
      </trkpt>
      <trkpt lat="37.320981" lon="-3.115033">
        <ele>971.000000</ele>
        <time>2019-05-09T07:37:29Z</time>
      </trkpt>
      <trkpt lat="37.320986" lon="-3.115017">
        <ele>971.000000</ele>
        <time>2019-05-09T07:37:30Z</time>
      </trkpt>
      <trkpt lat="37.320992" lon="-3.114997">
        <ele>971.000000</ele>
        <time>2019-05-09T07:37:31Z</time>
      </trkpt>
      <trkpt lat="37.320997" lon="-3.114977">
        <ele>971.000000</ele>
        <time>2019-05-09T07:37:32Z</time>
      </trkpt>
      <trkpt lat="37.321004" lon="-3.114955">
        <ele>971.000000</ele>
        <time>2019-05-09T07:37:33Z</time>
      </trkpt>
      <trkpt lat="37.321008" lon="-3.114940">
        <ele>971.000000</ele>
        <time>2019-05-09T07:37:34Z</time>
      </trkpt>
      <trkpt lat="37.321013" lon="-3.114923">
        <ele>972.000000</ele>
        <time>2019-05-09T07:37:35Z</time>
      </trkpt>
      <trkpt lat="37.321017" lon="-3.114907">
        <ele>972.000000</ele>
        <time>2019-05-09T07:37:36Z</time>
      </trkpt>
      <trkpt lat="37.321023" lon="-3.114888">
        <ele>972.000000</ele>
        <time>2019-05-09T07:37:37Z</time>
      </trkpt>
      <trkpt lat="37.321027" lon="-3.114875">
        <ele>972.000000</ele>
        <time>2019-05-09T07:37:38Z</time>
      </trkpt>
      <trkpt lat="37.321031" lon="-3.114862">
        <ele>972.000000</ele>
        <time>2019-05-09T07:37:39Z</time>
      </trkpt>
      <trkpt lat="37.321034" lon="-3.114847">
        <ele>972.000000</ele>
        <time>2019-05-09T07:37:40Z</time>
      </trkpt>
      <trkpt lat="37.321038" lon="-3.114830">
        <ele>972.000000</ele>
        <time>2019-05-09T07:37:41Z</time>
      </trkpt>
      <trkpt lat="37.321043" lon="-3.114817">
        <ele>972.000000</ele>
        <time>2019-05-09T07:37:42Z</time>
      </trkpt>
      <trkpt lat="37.321047" lon="-3.114800">
        <ele>972.000000</ele>
        <time>2019-05-09T07:37:43Z</time>
      </trkpt>
      <trkpt lat="37.321052" lon="-3.114785">
        <ele>973.000000</ele>
        <time>2019-05-09T07:37:44Z</time>
      </trkpt>
      <trkpt lat="37.321057" lon="-3.114767">
        <ele>973.000000</ele>
        <time>2019-05-09T07:37:45Z</time>
      </trkpt>
      <trkpt lat="37.321063" lon="-3.114750">
        <ele>973.000000</ele>
        <time>2019-05-09T07:37:46Z</time>
      </trkpt>
      <trkpt lat="37.321068" lon="-3.114733">
        <ele>973.000000</ele>
        <time>2019-05-09T07:37:47Z</time>
      </trkpt>
      <trkpt lat="37.321072" lon="-3.114720">
        <ele>973.000000</ele>
        <time>2019-05-09T07:37:48Z</time>
      </trkpt>
      <trkpt lat="37.321077" lon="-3.114705">
        <ele>973.000000</ele>
        <time>2019-05-09T07:37:49Z</time>
      </trkpt>
      <trkpt lat="37.321081" lon="-3.114692">
        <ele>973.000000</ele>
        <time>2019-05-09T07:37:50Z</time>
      </trkpt>
      <trkpt lat="37.321087" lon="-3.114675">
        <ele>973.000000</ele>
        <time>2019-05-09T07:37:52Z</time>
      </trkpt>
      <trkpt lat="37.321093" lon="-3.114658">
        <ele>973.000000</ele>
        <time>2019-05-09T07:37:52Z</time>
      </trkpt>
      <trkpt lat="37.321099" lon="-3.114638">
        <ele>973.000000</ele>
        <time>2019-05-09T07:37:53Z</time>
      </trkpt>
      <trkpt lat="37.321105" lon="-3.114620">
        <ele>974.000000</ele>
        <time>2019-05-09T07:37:54Z</time>
      </trkpt>
      <trkpt lat="37.321111" lon="-3.114603">
        <ele>974.000000</ele>
        <time>2019-05-09T07:37:55Z</time>
      </trkpt>
      <trkpt lat="37.321118" lon="-3.114583">
        <ele>974.000000</ele>
        <time>2019-05-09T07:37:56Z</time>
      </trkpt>
      <trkpt lat="37.321123" lon="-3.114565">
        <ele>974.000000</ele>
        <time>2019-05-09T07:37:57Z</time>
      </trkpt>
      <trkpt lat="37.321129" lon="-3.114548">
        <ele>974.000000</ele>
        <time>2019-05-09T07:37:58Z</time>
      </trkpt>
      <trkpt lat="37.321133" lon="-3.114530">
        <ele>974.000000</ele>
        <time>2019-05-09T07:37:59Z</time>
      </trkpt>
      <trkpt lat="37.321140" lon="-3.114510">
        <ele>974.000000</ele>
        <time>2019-05-09T07:38:00Z</time>
      </trkpt>
      <trkpt lat="37.321146" lon="-3.114488">
        <ele>974.000000</ele>
        <time>2019-05-09T07:38:01Z</time>
      </trkpt>
      <trkpt lat="37.321151" lon="-3.114470">
        <ele>974.000000</ele>
        <time>2019-05-09T07:38:02Z</time>
      </trkpt>
      <trkpt lat="37.321156" lon="-3.114453">
        <ele>974.000000</ele>
        <time>2019-05-09T07:38:04Z</time>
      </trkpt>
      <trkpt lat="37.321161" lon="-3.114435">
        <ele>974.000000</ele>
        <time>2019-05-09T07:38:05Z</time>
      </trkpt>
      <trkpt lat="37.321168" lon="-3.114415">
        <ele>974.000000</ele>
        <time>2019-05-09T07:38:05Z</time>
      </trkpt>
      <trkpt lat="37.321175" lon="-3.114397">
        <ele>974.000000</ele>
        <time>2019-05-09T07:38:07Z</time>
      </trkpt>
      <trkpt lat="37.321179" lon="-3.114378">
        <ele>974.000000</ele>
        <time>2019-05-09T07:38:07Z</time>
      </trkpt>
      <trkpt lat="37.321184" lon="-3.114365">
        <ele>974.000000</ele>
        <time>2019-05-09T07:38:08Z</time>
      </trkpt>
      <trkpt lat="37.321189" lon="-3.114348">
        <ele>974.000000</ele>
        <time>2019-05-09T07:38:09Z</time>
      </trkpt>
      <trkpt lat="37.321196" lon="-3.114330">
        <ele>974.000000</ele>
        <time>2019-05-09T07:38:10Z</time>
      </trkpt>
      <trkpt lat="37.321203" lon="-3.114308">
        <ele>975.000000</ele>
        <time>2019-05-09T07:38:12Z</time>
      </trkpt>
      <trkpt lat="37.321211" lon="-3.114287">
        <ele>975.000000</ele>
        <time>2019-05-09T07:38:13Z</time>
      </trkpt>
      <trkpt lat="37.321218" lon="-3.114268">
        <ele>975.000000</ele>
        <time>2019-05-09T07:38:14Z</time>
      </trkpt>
      <trkpt lat="37.321226" lon="-3.114245">
        <ele>975.000000</ele>
        <time>2019-05-09T07:38:14Z</time>
      </trkpt>
      <trkpt lat="37.321232" lon="-3.114225">
        <ele>975.000000</ele>
        <time>2019-05-09T07:38:15Z</time>
      </trkpt>
      <trkpt lat="37.321239" lon="-3.114203">
        <ele>975.000000</ele>
        <time>2019-05-09T07:38:17Z</time>
      </trkpt>
      <trkpt lat="37.321247" lon="-3.114182">
        <ele>975.000000</ele>
        <time>2019-05-09T07:38:17Z</time>
      </trkpt>
      <trkpt lat="37.321254" lon="-3.114160">
        <ele>975.000000</ele>
        <time>2019-05-09T07:38:18Z</time>
      </trkpt>
      <trkpt lat="37.321261" lon="-3.114138">
        <ele>976.000000</ele>
        <time>2019-05-09T07:38:19Z</time>
      </trkpt>
      <trkpt lat="37.321267" lon="-3.114117">
        <ele>976.000000</ele>
        <time>2019-05-09T07:38:20Z</time>
      </trkpt>
      <trkpt lat="37.321273" lon="-3.114097">
        <ele>976.000000</ele>
        <time>2019-05-09T07:38:21Z</time>
      </trkpt>
      <trkpt lat="37.321278" lon="-3.114077">
        <ele>976.000000</ele>
        <time>2019-05-09T07:38:22Z</time>
      </trkpt>
      <trkpt lat="37.321285" lon="-3.114055">
        <ele>976.000000</ele>
        <time>2019-05-09T07:38:23Z</time>
      </trkpt>
      <trkpt lat="37.321290" lon="-3.114033">
        <ele>976.000000</ele>
        <time>2019-05-09T07:38:24Z</time>
      </trkpt>
      <trkpt lat="37.321296" lon="-3.114013">
        <ele>976.000000</ele>
        <time>2019-05-09T07:38:25Z</time>
      </trkpt>
      <trkpt lat="37.321300" lon="-3.113995">
        <ele>976.000000</ele>
        <time>2019-05-09T07:38:26Z</time>
      </trkpt>
      <trkpt lat="37.321306" lon="-3.113977">
        <ele>977.000000</ele>
        <time>2019-05-09T07:38:27Z</time>
      </trkpt>
      <trkpt lat="37.321310" lon="-3.113958">
        <ele>977.000000</ele>
        <time>2019-05-09T07:38:28Z</time>
      </trkpt>
      <trkpt lat="37.321316" lon="-3.113940">
        <ele>977.000000</ele>
        <time>2019-05-09T07:38:29Z</time>
      </trkpt>
      <trkpt lat="37.321320" lon="-3.113927">
        <ele>977.000000</ele>
        <time>2019-05-09T07:38:30Z</time>
      </trkpt>
      <trkpt lat="37.321324" lon="-3.113912">
        <ele>977.000000</ele>
        <time>2019-05-09T07:38:31Z</time>
      </trkpt>
      <trkpt lat="37.321329" lon="-3.113897">
        <ele>977.000000</ele>
        <time>2019-05-09T07:38:32Z</time>
      </trkpt>
      <trkpt lat="37.321336" lon="-3.113877">
        <ele>977.000000</ele>
        <time>2019-05-09T07:38:33Z</time>
      </trkpt>
      <trkpt lat="37.321342" lon="-3.113857">
        <ele>978.000000</ele>
        <time>2019-05-09T07:38:34Z</time>
      </trkpt>
      <trkpt lat="37.321350" lon="-3.113837">
        <ele>978.000000</ele>
        <time>2019-05-09T07:38:35Z</time>
      </trkpt>
      <trkpt lat="37.321357" lon="-3.113815">
        <ele>978.000000</ele>
        <time>2019-05-09T07:38:36Z</time>
      </trkpt>
      <trkpt lat="37.321364" lon="-3.113795">
        <ele>978.000000</ele>
        <time>2019-05-09T07:38:37Z</time>
      </trkpt>
      <trkpt lat="37.321369" lon="-3.113777">
        <ele>978.000000</ele>
        <time>2019-05-09T07:38:39Z</time>
      </trkpt>
      <trkpt lat="37.321376" lon="-3.113757">
        <ele>978.000000</ele>
        <time>2019-05-09T07:38:40Z</time>
      </trkpt>
      <trkpt lat="37.321382" lon="-3.113737">
        <ele>978.000000</ele>
        <time>2019-05-09T07:38:40Z</time>
      </trkpt>
      <trkpt lat="37.321386" lon="-3.113718">
        <ele>978.000000</ele>
        <time>2019-05-09T07:38:41Z</time>
      </trkpt>
      <trkpt lat="37.321392" lon="-3.113698">
        <ele>978.000000</ele>
        <time>2019-05-09T07:38:42Z</time>
      </trkpt>
      <trkpt lat="37.321398" lon="-3.113680">
        <ele>978.000000</ele>
        <time>2019-05-09T07:38:43Z</time>
      </trkpt>
      <trkpt lat="37.321402" lon="-3.113660">
        <ele>978.000000</ele>
        <time>2019-05-09T07:38:44Z</time>
      </trkpt>
      <trkpt lat="37.321409" lon="-3.113638">
        <ele>978.000000</ele>
        <time>2019-05-09T07:38:45Z</time>
      </trkpt>
      <trkpt lat="37.321414" lon="-3.113617">
        <ele>978.000000</ele>
        <time>2019-05-09T07:38:46Z</time>
      </trkpt>
      <trkpt lat="37.321418" lon="-3.113597">
        <ele>978.000000</ele>
        <time>2019-05-09T07:38:47Z</time>
      </trkpt>
      <trkpt lat="37.321421" lon="-3.113578">
        <ele>978.000000</ele>
        <time>2019-05-09T07:38:48Z</time>
      </trkpt>
      <trkpt lat="37.321425" lon="-3.113560">
        <ele>978.000000</ele>
        <time>2019-05-09T07:38:49Z</time>
      </trkpt>
      <trkpt lat="37.321428" lon="-3.113543">
        <ele>978.000000</ele>
        <time>2019-05-09T07:38:50Z</time>
      </trkpt>
      <trkpt lat="37.321434" lon="-3.113525">
        <ele>979.000000</ele>
        <time>2019-05-09T07:38:51Z</time>
      </trkpt>
      <trkpt lat="37.321438" lon="-3.113507">
        <ele>979.000000</ele>
        <time>2019-05-09T07:38:52Z</time>
      </trkpt>
      <trkpt lat="37.321442" lon="-3.113485">
        <ele>979.000000</ele>
        <time>2019-05-09T07:38:53Z</time>
      </trkpt>
      <trkpt lat="37.321445" lon="-3.113470">
        <ele>979.000000</ele>
        <time>2019-05-09T07:38:54Z</time>
      </trkpt>
      <trkpt lat="37.321447" lon="-3.113455">
        <ele>979.000000</ele>
        <time>2019-05-09T07:38:55Z</time>
      </trkpt>
      <trkpt lat="37.321449" lon="-3.113440">
        <ele>979.000000</ele>
        <time>2019-05-09T07:38:56Z</time>
      </trkpt>
      <trkpt lat="37.321453" lon="-3.113422">
        <ele>979.000000</ele>
        <time>2019-05-09T07:38:57Z</time>
      </trkpt>
      <trkpt lat="37.321456" lon="-3.113403">
        <ele>979.000000</ele>
        <time>2019-05-09T07:38:58Z</time>
      </trkpt>
      <trkpt lat="37.321459" lon="-3.113385">
        <ele>979.000000</ele>
        <time>2019-05-09T07:38:59Z</time>
      </trkpt>
      <trkpt lat="37.321462" lon="-3.113365">
        <ele>979.000000</ele>
        <time>2019-05-09T07:39:01Z</time>
      </trkpt>
      <trkpt lat="37.321465" lon="-3.113343">
        <ele>979.000000</ele>
        <time>2019-05-09T07:39:01Z</time>
      </trkpt>
      <trkpt lat="37.321468" lon="-3.113325">
        <ele>979.000000</ele>
        <time>2019-05-09T07:39:03Z</time>
      </trkpt>
      <trkpt lat="37.321471" lon="-3.113303">
        <ele>979.000000</ele>
        <time>2019-05-09T07:39:04Z</time>
      </trkpt>
      <trkpt lat="37.321473" lon="-3.113285">
        <ele>979.000000</ele>
        <time>2019-05-09T07:39:04Z</time>
      </trkpt>
      <trkpt lat="37.321472" lon="-3.113268">
        <ele>979.000000</ele>
        <time>2019-05-09T07:39:05Z</time>
      </trkpt>
      <trkpt lat="37.321474" lon="-3.113252">
        <ele>980.000000</ele>
        <time>2019-05-09T07:39:06Z</time>
      </trkpt>
      <trkpt lat="37.321476" lon="-3.113235">
        <ele>980.000000</ele>
        <time>2019-05-09T07:39:07Z</time>
      </trkpt>
      <trkpt lat="37.321476" lon="-3.113215">
        <ele>980.000000</ele>
        <time>2019-05-09T07:39:08Z</time>
      </trkpt>
      <trkpt lat="37.321476" lon="-3.113197">
        <ele>980.000000</ele>
        <time>2019-05-09T07:39:09Z</time>
      </trkpt>
      <trkpt lat="37.321478" lon="-3.113182">
        <ele>980.000000</ele>
        <time>2019-05-09T07:39:10Z</time>
      </trkpt>
      <trkpt lat="37.321477" lon="-3.113167">
        <ele>980.000000</ele>
        <time>2019-05-09T07:39:11Z</time>
      </trkpt>
      <trkpt lat="37.321477" lon="-3.113148">
        <ele>980.000000</ele>
        <time>2019-05-09T07:39:12Z</time>
      </trkpt>
      <trkpt lat="37.321475" lon="-3.113130">
        <ele>980.000000</ele>
        <time>2019-05-09T07:39:13Z</time>
      </trkpt>
      <trkpt lat="37.321474" lon="-3.113115">
        <ele>980.000000</ele>
        <time>2019-05-09T07:39:14Z</time>
      </trkpt>
      <trkpt lat="37.321472" lon="-3.113097">
        <ele>980.000000</ele>
        <time>2019-05-09T07:39:15Z</time>
      </trkpt>
      <trkpt lat="37.321471" lon="-3.113080">
        <ele>980.000000</ele>
        <time>2019-05-09T07:39:16Z</time>
      </trkpt>
      <trkpt lat="37.321471" lon="-3.113060">
        <ele>981.000000</ele>
        <time>2019-05-09T07:39:17Z</time>
      </trkpt>
      <trkpt lat="37.321468" lon="-3.113043">
        <ele>981.000000</ele>
        <time>2019-05-09T07:39:18Z</time>
      </trkpt>
      <trkpt lat="37.321467" lon="-3.113025">
        <ele>981.000000</ele>
        <time>2019-05-09T07:39:19Z</time>
      </trkpt>
      <trkpt lat="37.321464" lon="-3.113008">
        <ele>981.000000</ele>
        <time>2019-05-09T07:39:20Z</time>
      </trkpt>
      <trkpt lat="37.321460" lon="-3.112992">
        <ele>981.000000</ele>
        <time>2019-05-09T07:39:21Z</time>
      </trkpt>
      <trkpt lat="37.321459" lon="-3.112973">
        <ele>982.000000</ele>
        <time>2019-05-09T07:39:22Z</time>
      </trkpt>
      <trkpt lat="37.321455" lon="-3.112957">
        <ele>982.000000</ele>
        <time>2019-05-09T07:39:23Z</time>
      </trkpt>
      <trkpt lat="37.321453" lon="-3.112938">
        <ele>982.000000</ele>
        <time>2019-05-09T07:39:24Z</time>
      </trkpt>
      <trkpt lat="37.321449" lon="-3.112920">
        <ele>982.000000</ele>
        <time>2019-05-09T07:39:26Z</time>
      </trkpt>
      <trkpt lat="37.321444" lon="-3.112897">
        <ele>982.000000</ele>
        <time>2019-05-09T07:39:26Z</time>
      </trkpt>
      <trkpt lat="37.321438" lon="-3.112875">
        <ele>982.000000</ele>
        <time>2019-05-09T07:39:27Z</time>
      </trkpt>
      <trkpt lat="37.321433" lon="-3.112853">
        <ele>982.000000</ele>
        <time>2019-05-09T07:39:28Z</time>
      </trkpt>
      <trkpt lat="37.321428" lon="-3.112832">
        <ele>982.000000</ele>
        <time>2019-05-09T07:39:29Z</time>
      </trkpt>
      <trkpt lat="37.321422" lon="-3.112812">
        <ele>982.000000</ele>
        <time>2019-05-09T07:39:30Z</time>
      </trkpt>
      <trkpt lat="37.321417" lon="-3.112792">
        <ele>982.000000</ele>
        <time>2019-05-09T07:39:31Z</time>
      </trkpt>
      <trkpt lat="37.321409" lon="-3.112773">
        <ele>982.000000</ele>
        <time>2019-05-09T07:39:32Z</time>
      </trkpt>
      <trkpt lat="37.321403" lon="-3.112755">
        <ele>982.000000</ele>
        <time>2019-05-09T07:39:33Z</time>
      </trkpt>
      <trkpt lat="37.321395" lon="-3.112738">
        <ele>982.000000</ele>
        <time>2019-05-09T07:39:34Z</time>
      </trkpt>
      <trkpt lat="37.321387" lon="-3.112723">
        <ele>982.000000</ele>
        <time>2019-05-09T07:39:35Z</time>
      </trkpt>
      <trkpt lat="37.321380" lon="-3.112708">
        <ele>982.000000</ele>
        <time>2019-05-09T07:39:36Z</time>
      </trkpt>
      <trkpt lat="37.321374" lon="-3.112693">
        <ele>982.000000</ele>
        <time>2019-05-09T07:39:37Z</time>
      </trkpt>
      <trkpt lat="37.321366" lon="-3.112678">
        <ele>982.000000</ele>
        <time>2019-05-09T07:39:38Z</time>
      </trkpt>
      <trkpt lat="37.321359" lon="-3.112662">
        <ele>982.000000</ele>
        <time>2019-05-09T07:39:39Z</time>
      </trkpt>
      <trkpt lat="37.321352" lon="-3.112648">
        <ele>982.000000</ele>
        <time>2019-05-09T07:39:40Z</time>
      </trkpt>
      <trkpt lat="37.321343" lon="-3.112632">
        <ele>983.000000</ele>
        <time>2019-05-09T07:39:41Z</time>
      </trkpt>
      <trkpt lat="37.321337" lon="-3.112615">
        <ele>983.000000</ele>
        <time>2019-05-09T07:39:42Z</time>
      </trkpt>
      <trkpt lat="37.321329" lon="-3.112597">
        <ele>983.000000</ele>
        <time>2019-05-09T07:39:43Z</time>
      </trkpt>
      <trkpt lat="37.321321" lon="-3.112578">
        <ele>983.000000</ele>
        <time>2019-05-09T07:39:44Z</time>
      </trkpt>
      <trkpt lat="37.321312" lon="-3.112558">
        <ele>983.000000</ele>
        <time>2019-05-09T07:39:45Z</time>
      </trkpt>
      <trkpt lat="37.321303" lon="-3.112538">
        <ele>983.000000</ele>
        <time>2019-05-09T07:39:46Z</time>
      </trkpt>
      <trkpt lat="37.321294" lon="-3.112517">
        <ele>983.000000</ele>
        <time>2019-05-09T07:39:47Z</time>
      </trkpt>
      <trkpt lat="37.321285" lon="-3.112493">
        <ele>983.000000</ele>
        <time>2019-05-09T07:39:48Z</time>
      </trkpt>
      <trkpt lat="37.321275" lon="-3.112470">
        <ele>983.000000</ele>
        <time>2019-05-09T07:39:49Z</time>
      </trkpt>
      <trkpt lat="37.321267" lon="-3.112447">
        <ele>983.000000</ele>
        <time>2019-05-09T07:39:51Z</time>
      </trkpt>
      <trkpt lat="37.321258" lon="-3.112423">
        <ele>983.000000</ele>
        <time>2019-05-09T07:39:51Z</time>
      </trkpt>
      <trkpt lat="37.321249" lon="-3.112400">
        <ele>983.000000</ele>
        <time>2019-05-09T07:39:52Z</time>
      </trkpt>
      <trkpt lat="37.321243" lon="-3.112380">
        <ele>984.000000</ele>
        <time>2019-05-09T07:39:53Z</time>
      </trkpt>
      <trkpt lat="37.321237" lon="-3.112360">
        <ele>984.000000</ele>
        <time>2019-05-09T07:39:54Z</time>
      </trkpt>
      <trkpt lat="37.321228" lon="-3.112340">
        <ele>984.000000</ele>
        <time>2019-05-09T07:39:54Z</time>
      </trkpt>
      <trkpt lat="37.321223" lon="-3.112322">
        <ele>984.000000</ele>
        <time>2019-05-09T07:39:55Z</time>
      </trkpt>
      <trkpt lat="37.321218" lon="-3.112302">
        <ele>984.000000</ele>
        <time>2019-05-09T07:39:56Z</time>
      </trkpt>
      <trkpt lat="37.321213" lon="-3.112282">
        <ele>984.000000</ele>
        <time>2019-05-09T07:39:57Z</time>
      </trkpt>
      <trkpt lat="37.321208" lon="-3.112265">
        <ele>984.000000</ele>
        <time>2019-05-09T07:39:58Z</time>
      </trkpt>
      <trkpt lat="37.321204" lon="-3.112250">
        <ele>984.000000</ele>
        <time>2019-05-09T07:39:59Z</time>
      </trkpt>
      <trkpt lat="37.321200" lon="-3.112233">
        <ele>984.000000</ele>
        <time>2019-05-09T07:40:00Z</time>
      </trkpt>
      <trkpt lat="37.321198" lon="-3.112217">
        <ele>984.000000</ele>
        <time>2019-05-09T07:40:01Z</time>
      </trkpt>
      <trkpt lat="37.321194" lon="-3.112200">
        <ele>984.000000</ele>
        <time>2019-05-09T07:40:02Z</time>
      </trkpt>
      <trkpt lat="37.321192" lon="-3.112183">
        <ele>984.000000</ele>
        <time>2019-05-09T07:40:03Z</time>
      </trkpt>
      <trkpt lat="37.321191" lon="-3.112168">
        <ele>984.000000</ele>
        <time>2019-05-09T07:40:04Z</time>
      </trkpt>
      <trkpt lat="37.321186" lon="-3.112152">
        <ele>984.000000</ele>
        <time>2019-05-09T07:40:05Z</time>
      </trkpt>
      <trkpt lat="37.321184" lon="-3.112135">
        <ele>984.000000</ele>
        <time>2019-05-09T07:40:06Z</time>
      </trkpt>
      <trkpt lat="37.321182" lon="-3.112113">
        <ele>984.000000</ele>
        <time>2019-05-09T07:40:07Z</time>
      </trkpt>
      <trkpt lat="37.321180" lon="-3.112095">
        <ele>984.000000</ele>
        <time>2019-05-09T07:40:08Z</time>
      </trkpt>
      <trkpt lat="37.321177" lon="-3.112077">
        <ele>984.000000</ele>
        <time>2019-05-09T07:40:09Z</time>
      </trkpt>
      <trkpt lat="37.321176" lon="-3.112057">
        <ele>984.000000</ele>
        <time>2019-05-09T07:40:11Z</time>
      </trkpt>
      <trkpt lat="37.321174" lon="-3.112037">
        <ele>984.000000</ele>
        <time>2019-05-09T07:40:11Z</time>
      </trkpt>
      <trkpt lat="37.321172" lon="-3.112020">
        <ele>984.000000</ele>
        <time>2019-05-09T07:40:12Z</time>
      </trkpt>
      <trkpt lat="37.321169" lon="-3.112000">
        <ele>984.000000</ele>
        <time>2019-05-09T07:40:13Z</time>
      </trkpt>
      <trkpt lat="37.321168" lon="-3.111982">
        <ele>984.000000</ele>
        <time>2019-05-09T07:40:14Z</time>
      </trkpt>
      <trkpt lat="37.321166" lon="-3.111963">
        <ele>984.000000</ele>
        <time>2019-05-09T07:40:15Z</time>
      </trkpt>
      <trkpt lat="37.321163" lon="-3.111945">
        <ele>984.000000</ele>
        <time>2019-05-09T07:40:16Z</time>
      </trkpt>
      <trkpt lat="37.321160" lon="-3.111927">
        <ele>984.000000</ele>
        <time>2019-05-09T07:40:17Z</time>
      </trkpt>
      <trkpt lat="37.321156" lon="-3.111908">
        <ele>984.000000</ele>
        <time>2019-05-09T07:40:18Z</time>
      </trkpt>
      <trkpt lat="37.321153" lon="-3.111890">
        <ele>984.000000</ele>
        <time>2019-05-09T07:40:19Z</time>
      </trkpt>
      <trkpt lat="37.321149" lon="-3.111872">
        <ele>984.000000</ele>
        <time>2019-05-09T07:40:20Z</time>
      </trkpt>
      <trkpt lat="37.321147" lon="-3.111855">
        <ele>984.000000</ele>
        <time>2019-05-09T07:40:21Z</time>
      </trkpt>
      <trkpt lat="37.321142" lon="-3.111838">
        <ele>984.000000</ele>
        <time>2019-05-09T07:40:22Z</time>
      </trkpt>
      <trkpt lat="37.321139" lon="-3.111825">
        <ele>984.000000</ele>
        <time>2019-05-09T07:40:23Z</time>
      </trkpt>
      <trkpt lat="37.321135" lon="-3.111812">
        <ele>984.000000</ele>
        <time>2019-05-09T07:40:24Z</time>
      </trkpt>
      <trkpt lat="37.321130" lon="-3.111800">
        <ele>984.000000</ele>
        <time>2019-05-09T07:40:25Z</time>
      </trkpt>
      <trkpt lat="37.321126" lon="-3.111787">
        <ele>984.000000</ele>
        <time>2019-05-09T07:40:26Z</time>
      </trkpt>
      <trkpt lat="37.321072" lon="-3.111775">
        <ele>984.000000</ele>
        <time>2019-05-09T07:40:27Z</time>
      </trkpt>
      <trkpt lat="37.321060" lon="-3.111762">
        <ele>984.000000</ele>
        <time>2019-05-09T07:40:28Z</time>
      </trkpt>
      <trkpt lat="37.321047" lon="-3.111747">
        <ele>984.000000</ele>
        <time>2019-05-09T07:40:29Z</time>
      </trkpt>
      <trkpt lat="37.321036" lon="-3.111733">
        <ele>984.000000</ele>
        <time>2019-05-09T07:40:30Z</time>
      </trkpt>
      <trkpt lat="37.321025" lon="-3.111717">
        <ele>984.000000</ele>
        <time>2019-05-09T07:40:31Z</time>
      </trkpt>
      <trkpt lat="37.321014" lon="-3.111697">
        <ele>985.000000</ele>
        <time>2019-05-09T07:40:32Z</time>
      </trkpt>
      <trkpt lat="37.321003" lon="-3.111678">
        <ele>985.000000</ele>
        <time>2019-05-09T07:40:33Z</time>
      </trkpt>
      <trkpt lat="37.320991" lon="-3.111658">
        <ele>985.000000</ele>
        <time>2019-05-09T07:40:34Z</time>
      </trkpt>
      <trkpt lat="37.320981" lon="-3.111640">
        <ele>985.000000</ele>
        <time>2019-05-09T07:40:36Z</time>
      </trkpt>
      <trkpt lat="37.320970" lon="-3.111622">
        <ele>985.000000</ele>
        <time>2019-05-09T07:40:36Z</time>
      </trkpt>
      <trkpt lat="37.320960" lon="-3.111605">
        <ele>985.000000</ele>
        <time>2019-05-09T07:40:37Z</time>
      </trkpt>
      <trkpt lat="37.320951" lon="-3.111590">
        <ele>985.000000</ele>
        <time>2019-05-09T07:40:38Z</time>
      </trkpt>
      <trkpt lat="37.320940" lon="-3.111573">
        <ele>985.000000</ele>
        <time>2019-05-09T07:40:39Z</time>
      </trkpt>
      <trkpt lat="37.320932" lon="-3.111560">
        <ele>985.000000</ele>
        <time>2019-05-09T07:40:40Z</time>
      </trkpt>
      <trkpt lat="37.320922" lon="-3.111545">
        <ele>985.000000</ele>
        <time>2019-05-09T07:40:41Z</time>
      </trkpt>
      <trkpt lat="37.320914" lon="-3.111532">
        <ele>985.000000</ele>
        <time>2019-05-09T07:40:42Z</time>
      </trkpt>
      <trkpt lat="37.320906" lon="-3.111518">
        <ele>986.000000</ele>
        <time>2019-05-09T07:40:43Z</time>
      </trkpt>
      <trkpt lat="37.320898" lon="-3.111505">
        <ele>986.000000</ele>
        <time>2019-05-09T07:40:44Z</time>
      </trkpt>
      <trkpt lat="37.320890" lon="-3.111492">
        <ele>986.000000</ele>
        <time>2019-05-09T07:40:45Z</time>
      </trkpt>
      <trkpt lat="37.320882" lon="-3.111477">
        <ele>986.000000</ele>
        <time>2019-05-09T07:40:46Z</time>
      </trkpt>
      <trkpt lat="37.320875" lon="-3.111463">
        <ele>986.000000</ele>
        <time>2019-05-09T07:40:47Z</time>
      </trkpt>
      <trkpt lat="37.320867" lon="-3.111448">
        <ele>986.000000</ele>
        <time>2019-05-09T07:40:48Z</time>
      </trkpt>
      <trkpt lat="37.320858" lon="-3.111432">
        <ele>986.000000</ele>
        <time>2019-05-09T07:40:49Z</time>
      </trkpt>
      <trkpt lat="37.320850" lon="-3.111415">
        <ele>986.000000</ele>
        <time>2019-05-09T07:40:50Z</time>
      </trkpt>
      <trkpt lat="37.320840" lon="-3.111395">
        <ele>987.000000</ele>
        <time>2019-05-09T07:40:51Z</time>
      </trkpt>
      <trkpt lat="37.320831" lon="-3.111377">
        <ele>987.000000</ele>
        <time>2019-05-09T07:40:52Z</time>
      </trkpt>
      <trkpt lat="37.320823" lon="-3.111358">
        <ele>987.000000</ele>
        <time>2019-05-09T07:40:53Z</time>
      </trkpt>
      <trkpt lat="37.320813" lon="-3.111338">
        <ele>987.000000</ele>
        <time>2019-05-09T07:40:54Z</time>
      </trkpt>
      <trkpt lat="37.320804" lon="-3.111318">
        <ele>987.000000</ele>
        <time>2019-05-09T07:40:55Z</time>
      </trkpt>
      <trkpt lat="37.320794" lon="-3.111297">
        <ele>987.000000</ele>
        <time>2019-05-09T07:40:56Z</time>
      </trkpt>
      <trkpt lat="37.320783" lon="-3.111275">
        <ele>987.000000</ele>
        <time>2019-05-09T07:40:57Z</time>
      </trkpt>
      <trkpt lat="37.320773" lon="-3.111255">
        <ele>987.000000</ele>
        <time>2019-05-09T07:40:58Z</time>
      </trkpt>
      <trkpt lat="37.320763" lon="-3.111233">
        <ele>987.000000</ele>
        <time>2019-05-09T07:40:59Z</time>
      </trkpt>
      <trkpt lat="37.320753" lon="-3.111212">
        <ele>987.000000</ele>
        <time>2019-05-09T07:41:00Z</time>
      </trkpt>
      <trkpt lat="37.320744" lon="-3.111190">
        <ele>987.000000</ele>
        <time>2019-05-09T07:41:01Z</time>
      </trkpt>
      <trkpt lat="37.320735" lon="-3.111168">
        <ele>987.000000</ele>
        <time>2019-05-09T07:41:02Z</time>
      </trkpt>
      <trkpt lat="37.320727" lon="-3.111150">
        <ele>987.000000</ele>
        <time>2019-05-09T07:41:03Z</time>
      </trkpt>
      <trkpt lat="37.320719" lon="-3.111132">
        <ele>987.000000</ele>
        <time>2019-05-09T07:41:04Z</time>
      </trkpt>
      <trkpt lat="37.320711" lon="-3.111113">
        <ele>987.000000</ele>
        <time>2019-05-09T07:41:05Z</time>
      </trkpt>
      <trkpt lat="37.320705" lon="-3.111098">
        <ele>987.000000</ele>
        <time>2019-05-09T07:41:06Z</time>
      </trkpt>
      <trkpt lat="37.320698" lon="-3.111083">
        <ele>987.000000</ele>
        <time>2019-05-09T07:41:07Z</time>
      </trkpt>
      <trkpt lat="37.320690" lon="-3.111068">
        <ele>987.000000</ele>
        <time>2019-05-09T07:41:08Z</time>
      </trkpt>
      <trkpt lat="37.320682" lon="-3.111053">
        <ele>987.000000</ele>
        <time>2019-05-09T07:41:09Z</time>
      </trkpt>
      <trkpt lat="37.320676" lon="-3.111040">
        <ele>987.000000</ele>
        <time>2019-05-09T07:41:10Z</time>
      </trkpt>
      <trkpt lat="37.320670" lon="-3.111028">
        <ele>988.000000</ele>
        <time>2019-05-09T07:41:11Z</time>
      </trkpt>
      <trkpt lat="37.320664" lon="-3.111017">
        <ele>988.000000</ele>
        <time>2019-05-09T07:41:12Z</time>
      </trkpt>
      <trkpt lat="37.320655" lon="-3.111003">
        <ele>988.000000</ele>
        <time>2019-05-09T07:41:13Z</time>
      </trkpt>
      <trkpt lat="37.320647" lon="-3.110988">
        <ele>988.000000</ele>
        <time>2019-05-09T07:41:14Z</time>
      </trkpt>
      <trkpt lat="37.320640" lon="-3.110978">
        <ele>988.000000</ele>
        <time>2019-05-09T07:41:15Z</time>
      </trkpt>
      <trkpt lat="37.320636" lon="-3.110972">
        <ele>988.000000</ele>
        <time>2019-05-09T07:41:16Z</time>
      </trkpt>
      <trkpt lat="37.320600" lon="-3.110965">
        <ele>988.000000</ele>
        <time>2019-05-09T07:41:17Z</time>
      </trkpt>
      <trkpt lat="37.320585" lon="-3.110960">
        <ele>988.000000</ele>
        <time>2019-05-09T07:41:18Z</time>
      </trkpt>
      <trkpt lat="37.320572" lon="-3.110957">
        <ele>988.000000</ele>
        <time>2019-05-09T07:41:19Z</time>
      </trkpt>
      <trkpt lat="37.320558" lon="-3.110952">
        <ele>988.000000</ele>
        <time>2019-05-09T07:41:20Z</time>
      </trkpt>
      <trkpt lat="37.320545" lon="-3.110948">
        <ele>988.000000</ele>
        <time>2019-05-09T07:41:22Z</time>
      </trkpt>
      <trkpt lat="37.320530" lon="-3.110945">
        <ele>988.000000</ele>
        <time>2019-05-09T07:41:23Z</time>
      </trkpt>
      <trkpt lat="37.320515" lon="-3.110942">
        <ele>989.000000</ele>
        <time>2019-05-09T07:41:23Z</time>
      </trkpt>
      <trkpt lat="37.320502" lon="-3.110937">
        <ele>989.000000</ele>
        <time>2019-05-09T07:41:24Z</time>
      </trkpt>
      <trkpt lat="37.320488" lon="-3.110933">
        <ele>989.000000</ele>
        <time>2019-05-09T07:41:25Z</time>
      </trkpt>
      <trkpt lat="37.320475" lon="-3.110929">
        <ele>989.000000</ele>
        <time>2019-05-09T07:41:26Z</time>
      </trkpt>
      <trkpt lat="37.320460" lon="-3.110924">
        <ele>989.000000</ele>
        <time>2019-05-09T07:41:27Z</time>
      </trkpt>
      <trkpt lat="37.320447" lon="-3.110919">
        <ele>989.000000</ele>
        <time>2019-05-09T07:41:28Z</time>
      </trkpt>
      <trkpt lat="37.320433" lon="-3.110914">
        <ele>989.000000</ele>
        <time>2019-05-09T07:41:29Z</time>
      </trkpt>
      <trkpt lat="37.320417" lon="-3.110909">
        <ele>989.000000</ele>
        <time>2019-05-09T07:41:30Z</time>
      </trkpt>
      <trkpt lat="37.320400" lon="-3.110905">
        <ele>989.000000</ele>
        <time>2019-05-09T07:41:31Z</time>
      </trkpt>
      <trkpt lat="37.320385" lon="-3.110901">
        <ele>989.000000</ele>
        <time>2019-05-09T07:41:32Z</time>
      </trkpt>
      <trkpt lat="37.320368" lon="-3.110896">
        <ele>989.000000</ele>
        <time>2019-05-09T07:41:33Z</time>
      </trkpt>
      <trkpt lat="37.320352" lon="-3.110890">
        <ele>989.000000</ele>
        <time>2019-05-09T07:41:34Z</time>
      </trkpt>
      <trkpt lat="37.320335" lon="-3.110884">
        <ele>989.000000</ele>
        <time>2019-05-09T07:41:35Z</time>
      </trkpt>
      <trkpt lat="37.320317" lon="-3.110876">
        <ele>989.000000</ele>
        <time>2019-05-09T07:41:36Z</time>
      </trkpt>
      <trkpt lat="37.320302" lon="-3.110870">
        <ele>989.000000</ele>
        <time>2019-05-09T07:41:37Z</time>
      </trkpt>
      <trkpt lat="37.320287" lon="-3.110863">
        <ele>989.000000</ele>
        <time>2019-05-09T07:41:38Z</time>
      </trkpt>
      <trkpt lat="37.320273" lon="-3.110857">
        <ele>989.000000</ele>
        <time>2019-05-09T07:41:39Z</time>
      </trkpt>
      <trkpt lat="37.320258" lon="-3.110850">
        <ele>989.000000</ele>
        <time>2019-05-09T07:41:40Z</time>
      </trkpt>
      <trkpt lat="37.320243" lon="-3.110843">
        <ele>989.000000</ele>
        <time>2019-05-09T07:41:41Z</time>
      </trkpt>
      <trkpt lat="37.320227" lon="-3.110835">
        <ele>989.000000</ele>
        <time>2019-05-09T07:41:42Z</time>
      </trkpt>
      <trkpt lat="37.320212" lon="-3.110828">
        <ele>989.000000</ele>
        <time>2019-05-09T07:41:43Z</time>
      </trkpt>
      <trkpt lat="37.320198" lon="-3.110821">
        <ele>989.000000</ele>
        <time>2019-05-09T07:41:44Z</time>
      </trkpt>
      <trkpt lat="37.320183" lon="-3.110813">
        <ele>989.000000</ele>
        <time>2019-05-09T07:41:46Z</time>
      </trkpt>
      <trkpt lat="37.320168" lon="-3.110806">
        <ele>989.000000</ele>
        <time>2019-05-09T07:41:46Z</time>
      </trkpt>
      <trkpt lat="37.320155" lon="-3.110798">
        <ele>989.000000</ele>
        <time>2019-05-09T07:41:47Z</time>
      </trkpt>
      <trkpt lat="37.320142" lon="-3.110791">
        <ele>989.000000</ele>
        <time>2019-05-09T07:41:48Z</time>
      </trkpt>
      <trkpt lat="37.320128" lon="-3.110784">
        <ele>989.000000</ele>
        <time>2019-05-09T07:41:49Z</time>
      </trkpt>
      <trkpt lat="37.320113" lon="-3.110776">
        <ele>989.000000</ele>
        <time>2019-05-09T07:41:50Z</time>
      </trkpt>
      <trkpt lat="37.320098" lon="-3.110767">
        <ele>989.000000</ele>
        <time>2019-05-09T07:41:51Z</time>
      </trkpt>
      <trkpt lat="37.320080" lon="-3.110758">
        <ele>989.000000</ele>
        <time>2019-05-09T07:41:52Z</time>
      </trkpt>
      <trkpt lat="37.320065" lon="-3.110750">
        <ele>989.000000</ele>
        <time>2019-05-09T07:41:53Z</time>
      </trkpt>
      <trkpt lat="37.320052" lon="-3.110742">
        <ele>989.000000</ele>
        <time>2019-05-09T07:41:54Z</time>
      </trkpt>
      <trkpt lat="37.320038" lon="-3.110734">
        <ele>989.000000</ele>
        <time>2019-05-09T07:41:55Z</time>
      </trkpt>
      <trkpt lat="37.320023" lon="-3.110724">
        <ele>989.000000</ele>
        <time>2019-05-09T07:41:56Z</time>
      </trkpt>
      <trkpt lat="37.320012" lon="-3.110716">
        <ele>989.000000</ele>
        <time>2019-05-09T07:41:57Z</time>
      </trkpt>
      <trkpt lat="37.320002" lon="-3.110708">
        <ele>989.000000</ele>
        <time>2019-05-09T07:41:58Z</time>
      </trkpt>
      <trkpt lat="37.319990" lon="-3.110698">
        <ele>989.000000</ele>
        <time>2019-05-09T07:41:59Z</time>
      </trkpt>
      <trkpt lat="37.319980" lon="-3.110688">
        <ele>989.000000</ele>
        <time>2019-05-09T07:42:00Z</time>
      </trkpt>
      <trkpt lat="37.319968" lon="-3.110679">
        <ele>989.000000</ele>
        <time>2019-05-09T07:42:01Z</time>
      </trkpt>
      <trkpt lat="37.319957" lon="-3.110668">
        <ele>989.000000</ele>
        <time>2019-05-09T07:42:02Z</time>
      </trkpt>
      <trkpt lat="37.319947" lon="-3.110658">
        <ele>989.000000</ele>
        <time>2019-05-09T07:42:03Z</time>
      </trkpt>
      <trkpt lat="37.319935" lon="-3.110647">
        <ele>989.000000</ele>
        <time>2019-05-09T07:42:04Z</time>
      </trkpt>
      <trkpt lat="37.319925" lon="-3.110637">
        <ele>989.000000</ele>
        <time>2019-05-09T07:42:05Z</time>
      </trkpt>
      <trkpt lat="37.319912" lon="-3.110624">
        <ele>989.000000</ele>
        <time>2019-05-09T07:42:06Z</time>
      </trkpt>
      <trkpt lat="37.319903" lon="-3.110540">
        <ele>989.000000</ele>
        <time>2019-05-09T07:42:08Z</time>
      </trkpt>
      <trkpt lat="37.319895" lon="-3.110522">
        <ele>989.000000</ele>
        <time>2019-05-09T07:42:08Z</time>
      </trkpt>
      <trkpt lat="37.319888" lon="-3.110503">
        <ele>989.000000</ele>
        <time>2019-05-09T07:42:09Z</time>
      </trkpt>
      <trkpt lat="37.319882" lon="-3.110487">
        <ele>989.000000</ele>
        <time>2019-05-09T07:42:10Z</time>
      </trkpt>
      <trkpt lat="37.319874" lon="-3.110470">
        <ele>989.000000</ele>
        <time>2019-05-09T07:42:11Z</time>
      </trkpt>
      <trkpt lat="37.319867" lon="-3.110453">
        <ele>989.000000</ele>
        <time>2019-05-09T07:42:12Z</time>
      </trkpt>
      <trkpt lat="37.319859" lon="-3.110435">
        <ele>989.000000</ele>
        <time>2019-05-09T07:42:13Z</time>
      </trkpt>
      <trkpt lat="37.319851" lon="-3.110418">
        <ele>989.000000</ele>
        <time>2019-05-09T07:42:14Z</time>
      </trkpt>
      <trkpt lat="37.319843" lon="-3.110402">
        <ele>989.000000</ele>
        <time>2019-05-09T07:42:15Z</time>
      </trkpt>
      <trkpt lat="37.319835" lon="-3.110385">
        <ele>989.000000</ele>
        <time>2019-05-09T07:42:16Z</time>
      </trkpt>
      <trkpt lat="37.319827" lon="-3.110370">
        <ele>989.000000</ele>
        <time>2019-05-09T07:42:17Z</time>
      </trkpt>
      <trkpt lat="37.319818" lon="-3.110355">
        <ele>989.000000</ele>
        <time>2019-05-09T07:42:18Z</time>
      </trkpt>
      <trkpt lat="37.319809" lon="-3.110338">
        <ele>990.000000</ele>
        <time>2019-05-09T07:42:19Z</time>
      </trkpt>
      <trkpt lat="37.319802" lon="-3.110327">
        <ele>990.000000</ele>
        <time>2019-05-09T07:42:20Z</time>
      </trkpt>
      <trkpt lat="37.319793" lon="-3.110312">
        <ele>990.000000</ele>
        <time>2019-05-09T07:42:21Z</time>
      </trkpt>
      <trkpt lat="37.319785" lon="-3.110300">
        <ele>990.000000</ele>
        <time>2019-05-09T07:42:22Z</time>
      </trkpt>
      <trkpt lat="37.319777" lon="-3.110290">
        <ele>990.000000</ele>
        <time>2019-05-09T07:42:23Z</time>
      </trkpt>
      <trkpt lat="37.319768" lon="-3.110278">
        <ele>990.000000</ele>
        <time>2019-05-09T07:42:24Z</time>
      </trkpt>
      <trkpt lat="37.319761" lon="-3.110268">
        <ele>990.000000</ele>
        <time>2019-05-09T07:42:25Z</time>
      </trkpt>
      <trkpt lat="37.319738" lon="-3.110257">
        <ele>990.000000</ele>
        <time>2019-05-09T07:42:26Z</time>
      </trkpt>
      <trkpt lat="37.319727" lon="-3.110244">
        <ele>990.000000</ele>
        <time>2019-05-09T07:42:27Z</time>
      </trkpt>
      <trkpt lat="37.319715" lon="-3.110230">
        <ele>990.000000</ele>
        <time>2019-05-09T07:42:28Z</time>
      </trkpt>
      <trkpt lat="37.319705" lon="-3.110218">
        <ele>990.000000</ele>
        <time>2019-05-09T07:42:29Z</time>
      </trkpt>
      <trkpt lat="37.319693" lon="-3.110204">
        <ele>991.000000</ele>
        <time>2019-05-09T07:42:30Z</time>
      </trkpt>
      <trkpt lat="37.319680" lon="-3.110192">
        <ele>991.000000</ele>
        <time>2019-05-09T07:42:31Z</time>
      </trkpt>
      <trkpt lat="37.319665" lon="-3.110181">
        <ele>991.000000</ele>
        <time>2019-05-09T07:42:33Z</time>
      </trkpt>
      <trkpt lat="37.319650" lon="-3.110171">
        <ele>991.000000</ele>
        <time>2019-05-09T07:42:33Z</time>
      </trkpt>
      <trkpt lat="37.319635" lon="-3.110161">
        <ele>991.000000</ele>
        <time>2019-05-09T07:42:34Z</time>
      </trkpt>
      <trkpt lat="37.319622" lon="-3.110152">
        <ele>991.000000</ele>
        <time>2019-05-09T07:42:35Z</time>
      </trkpt>
      <trkpt lat="37.319607" lon="-3.110141">
        <ele>991.000000</ele>
        <time>2019-05-09T07:42:36Z</time>
      </trkpt>
      <trkpt lat="37.319593" lon="-3.110130">
        <ele>991.000000</ele>
        <time>2019-05-09T07:42:37Z</time>
      </trkpt>
      <trkpt lat="37.319580" lon="-3.110118">
        <ele>991.000000</ele>
        <time>2019-05-09T07:42:38Z</time>
      </trkpt>
      <trkpt lat="37.319568" lon="-3.110107">
        <ele>991.000000</ele>
        <time>2019-05-09T07:42:39Z</time>
      </trkpt>
      <trkpt lat="37.319557" lon="-3.110094">
        <ele>991.000000</ele>
        <time>2019-05-09T07:42:40Z</time>
      </trkpt>
      <trkpt lat="37.319545" lon="-3.110081">
        <ele>991.000000</ele>
        <time>2019-05-09T07:42:41Z</time>
      </trkpt>
      <trkpt lat="37.319532" lon="-3.110067">
        <ele>991.000000</ele>
        <time>2019-05-09T07:42:42Z</time>
      </trkpt>
      <trkpt lat="37.319518" lon="-3.110052">
        <ele>991.000000</ele>
        <time>2019-05-09T07:42:43Z</time>
      </trkpt>
      <trkpt lat="37.319503" lon="-3.110037">
        <ele>991.000000</ele>
        <time>2019-05-09T07:42:44Z</time>
      </trkpt>
      <trkpt lat="37.319492" lon="-3.110024">
        <ele>991.000000</ele>
        <time>2019-05-09T07:42:45Z</time>
      </trkpt>
      <trkpt lat="37.319477" lon="-3.110008">
        <ele>992.000000</ele>
        <time>2019-05-09T07:42:46Z</time>
      </trkpt>
      <trkpt lat="37.319463" lon="-3.109994">
        <ele>992.000000</ele>
        <time>2019-05-09T07:42:47Z</time>
      </trkpt>
      <trkpt lat="37.319452" lon="-3.109981">
        <ele>992.000000</ele>
        <time>2019-05-09T07:42:48Z</time>
      </trkpt>
      <trkpt lat="37.319438" lon="-3.109965">
        <ele>992.000000</ele>
        <time>2019-05-09T07:42:49Z</time>
      </trkpt>
      <trkpt lat="37.319427" lon="-3.109952">
        <ele>992.000000</ele>
        <time>2019-05-09T07:42:50Z</time>
      </trkpt>
      <trkpt lat="37.319418" lon="-3.109942">
        <ele>992.000000</ele>
        <time>2019-05-09T07:42:51Z</time>
      </trkpt>
      <trkpt lat="37.319410" lon="-3.109931">
        <ele>992.000000</ele>
        <time>2019-05-09T07:42:52Z</time>
      </trkpt>
      <trkpt lat="37.319402" lon="-3.109920">
        <ele>992.000000</ele>
        <time>2019-05-09T07:42:53Z</time>
      </trkpt>
      <trkpt lat="37.319395" lon="-3.109890">
        <ele>992.000000</ele>
        <time>2019-05-09T07:42:54Z</time>
      </trkpt>
      <trkpt lat="37.319385" lon="-3.109878">
        <ele>992.000000</ele>
        <time>2019-05-09T07:42:55Z</time>
      </trkpt>
      <trkpt lat="37.319376" lon="-3.109863">
        <ele>992.000000</ele>
        <time>2019-05-09T07:42:56Z</time>
      </trkpt>
      <trkpt lat="37.319369" lon="-3.109848">
        <ele>992.000000</ele>
        <time>2019-05-09T07:42:58Z</time>
      </trkpt>
      <trkpt lat="37.319362" lon="-3.109833">
        <ele>992.000000</ele>
        <time>2019-05-09T07:42:58Z</time>
      </trkpt>
      <trkpt lat="37.319355" lon="-3.109818">
        <ele>992.000000</ele>
        <time>2019-05-09T07:42:59Z</time>
      </trkpt>
      <trkpt lat="37.319348" lon="-3.109805">
        <ele>992.000000</ele>
        <time>2019-05-09T07:43:00Z</time>
      </trkpt>
      <trkpt lat="37.319341" lon="-3.109792">
        <ele>992.000000</ele>
        <time>2019-05-09T07:43:01Z</time>
      </trkpt>
      <trkpt lat="37.319334" lon="-3.109777">
        <ele>992.000000</ele>
        <time>2019-05-09T07:43:02Z</time>
      </trkpt>
      <trkpt lat="37.319328" lon="-3.109762">
        <ele>992.000000</ele>
        <time>2019-05-09T07:43:03Z</time>
      </trkpt>
      <trkpt lat="37.319322" lon="-3.109743">
        <ele>992.000000</ele>
        <time>2019-05-09T07:43:04Z</time>
      </trkpt>
      <trkpt lat="37.319317" lon="-3.109727">
        <ele>992.000000</ele>
        <time>2019-05-09T07:43:05Z</time>
      </trkpt>
      <trkpt lat="37.319313" lon="-3.109710">
        <ele>992.000000</ele>
        <time>2019-05-09T07:43:06Z</time>
      </trkpt>
      <trkpt lat="37.319309" lon="-3.109695">
        <ele>992.000000</ele>
        <time>2019-05-09T07:43:07Z</time>
      </trkpt>
      <trkpt lat="37.319304" lon="-3.109675">
        <ele>993.000000</ele>
        <time>2019-05-09T07:43:08Z</time>
      </trkpt>
      <trkpt lat="37.319300" lon="-3.109658">
        <ele>993.000000</ele>
        <time>2019-05-09T07:43:09Z</time>
      </trkpt>
      <trkpt lat="37.319296" lon="-3.109640">
        <ele>993.000000</ele>
        <time>2019-05-09T07:43:10Z</time>
      </trkpt>
      <trkpt lat="37.319291" lon="-3.109618">
        <ele>993.000000</ele>
        <time>2019-05-09T07:43:11Z</time>
      </trkpt>
      <trkpt lat="37.319287" lon="-3.109595">
        <ele>993.000000</ele>
        <time>2019-05-09T07:43:12Z</time>
      </trkpt>
      <trkpt lat="37.319284" lon="-3.109572">
        <ele>993.000000</ele>
        <time>2019-05-09T07:43:13Z</time>
      </trkpt>
      <trkpt lat="37.319282" lon="-3.109552">
        <ele>994.000000</ele>
        <time>2019-05-09T07:43:14Z</time>
      </trkpt>
      <trkpt lat="37.319279" lon="-3.109535">
        <ele>994.000000</ele>
        <time>2019-05-09T07:43:15Z</time>
      </trkpt>
      <trkpt lat="37.319275" lon="-3.109518">
        <ele>994.000000</ele>
        <time>2019-05-09T07:43:16Z</time>
      </trkpt>
      <trkpt lat="37.319269" lon="-3.109500">
        <ele>994.000000</ele>
        <time>2019-05-09T07:43:18Z</time>
      </trkpt>
      <trkpt lat="37.319263" lon="-3.109480">
        <ele>994.000000</ele>
        <time>2019-05-09T07:43:19Z</time>
      </trkpt>
      <trkpt lat="37.319255" lon="-3.109462">
        <ele>994.000000</ele>
        <time>2019-05-09T07:43:19Z</time>
      </trkpt>
      <trkpt lat="37.319247" lon="-3.109442">
        <ele>994.000000</ele>
        <time>2019-05-09T07:43:20Z</time>
      </trkpt>
      <trkpt lat="37.319239" lon="-3.109423">
        <ele>994.000000</ele>
        <time>2019-05-09T07:43:21Z</time>
      </trkpt>
      <trkpt lat="37.319231" lon="-3.109403">
        <ele>994.000000</ele>
        <time>2019-05-09T07:43:22Z</time>
      </trkpt>
      <trkpt lat="37.319222" lon="-3.109382">
        <ele>994.000000</ele>
        <time>2019-05-09T07:43:23Z</time>
      </trkpt>
      <trkpt lat="37.319214" lon="-3.109365">
        <ele>994.000000</ele>
        <time>2019-05-09T07:43:24Z</time>
      </trkpt>
      <trkpt lat="37.319208" lon="-3.109350">
        <ele>994.000000</ele>
        <time>2019-05-09T07:43:25Z</time>
      </trkpt>
      <trkpt lat="37.319201" lon="-3.109333">
        <ele>995.000000</ele>
        <time>2019-05-09T07:43:27Z</time>
      </trkpt>
      <trkpt lat="37.319195" lon="-3.109325">
        <ele>995.000000</ele>
        <time>2019-05-09T07:43:28Z</time>
      </trkpt>
      <trkpt lat="37.319191" lon="-3.109317">
        <ele>995.000000</ele>
        <time>2019-05-09T07:43:29Z</time>
      </trkpt>
      <trkpt lat="37.319184" lon="-3.109308">
        <ele>995.000000</ele>
        <time>2019-05-09T07:43:30Z</time>
      </trkpt>
      <trkpt lat="37.319142" lon="-3.109300">
        <ele>995.000000</ele>
        <time>2019-05-09T07:43:30Z</time>
      </trkpt>
      <trkpt lat="37.319133" lon="-3.109288">
        <ele>995.000000</ele>
        <time>2019-05-09T07:43:31Z</time>
      </trkpt>
      <trkpt lat="37.319126" lon="-3.109275">
        <ele>995.000000</ele>
        <time>2019-05-09T07:43:32Z</time>
      </trkpt>
      <trkpt lat="37.319119" lon="-3.109263">
        <ele>995.000000</ele>
        <time>2019-05-09T07:43:33Z</time>
      </trkpt>
      <trkpt lat="37.319110" lon="-3.109252">
        <ele>995.000000</ele>
        <time>2019-05-09T07:43:34Z</time>
      </trkpt>
      <trkpt lat="37.319098" lon="-3.109243">
        <ele>995.000000</ele>
        <time>2019-05-09T07:43:35Z</time>
      </trkpt>
      <trkpt lat="37.319085" lon="-3.109231">
        <ele>995.000000</ele>
        <time>2019-05-09T07:43:36Z</time>
      </trkpt>
      <trkpt lat="37.319078" lon="-3.109222">
        <ele>995.000000</ele>
        <time>2019-05-09T07:43:37Z</time>
      </trkpt>
      <trkpt lat="37.319068" lon="-3.109210">
        <ele>995.000000</ele>
        <time>2019-05-09T07:43:38Z</time>
      </trkpt>
      <trkpt lat="37.319055" lon="-3.109199">
        <ele>995.000000</ele>
        <time>2019-05-09T07:43:40Z</time>
      </trkpt>
      <trkpt lat="37.319040" lon="-3.109188">
        <ele>995.000000</ele>
        <time>2019-05-09T07:43:40Z</time>
      </trkpt>
      <trkpt lat="37.319023" lon="-3.109174">
        <ele>995.000000</ele>
        <time>2019-05-09T07:43:41Z</time>
      </trkpt>
      <trkpt lat="37.319012" lon="-3.109160">
        <ele>995.000000</ele>
        <time>2019-05-09T07:43:43Z</time>
      </trkpt>
      <trkpt lat="37.319005" lon="-3.109147">
        <ele>995.000000</ele>
        <time>2019-05-09T07:43:43Z</time>
      </trkpt>
      <trkpt lat="37.318998" lon="-3.109113">
        <ele>995.000000</ele>
        <time>2019-05-09T07:43:44Z</time>
      </trkpt>
      <trkpt lat="37.318995" lon="-3.109095">
        <ele>995.000000</ele>
        <time>2019-05-09T07:43:45Z</time>
      </trkpt>
      <trkpt lat="37.318992" lon="-3.109075">
        <ele>995.000000</ele>
        <time>2019-05-09T07:43:46Z</time>
      </trkpt>
      <trkpt lat="37.318993" lon="-3.109057">
        <ele>995.000000</ele>
        <time>2019-05-09T07:43:47Z</time>
      </trkpt>
      <trkpt lat="37.318995" lon="-3.109037">
        <ele>995.000000</ele>
        <time>2019-05-09T07:43:48Z</time>
      </trkpt>
      <trkpt lat="37.318997" lon="-3.109018">
        <ele>996.000000</ele>
        <time>2019-05-09T07:43:49Z</time>
      </trkpt>
      <trkpt lat="37.319000" lon="-3.109002">
        <ele>996.000000</ele>
        <time>2019-05-09T07:43:50Z</time>
      </trkpt>
      <trkpt lat="37.319000" lon="-3.108982">
        <ele>996.000000</ele>
        <time>2019-05-09T07:43:51Z</time>
      </trkpt>
      <trkpt lat="37.319000" lon="-3.108963">
        <ele>996.000000</ele>
        <time>2019-05-09T07:43:52Z</time>
      </trkpt>
      <trkpt lat="37.319000" lon="-3.108945">
        <ele>996.000000</ele>
        <time>2019-05-09T07:43:53Z</time>
      </trkpt>
      <trkpt lat="37.319000" lon="-3.108923">
        <ele>997.000000</ele>
        <time>2019-05-09T07:43:54Z</time>
      </trkpt>
      <trkpt lat="37.318999" lon="-3.108902">
        <ele>997.000000</ele>
        <time>2019-05-09T07:43:55Z</time>
      </trkpt>
      <trkpt lat="37.318995" lon="-3.108880">
        <ele>997.000000</ele>
        <time>2019-05-09T07:43:56Z</time>
      </trkpt>
      <trkpt lat="37.318992" lon="-3.108858">
        <ele>998.000000</ele>
        <time>2019-05-09T07:43:57Z</time>
      </trkpt>
      <trkpt lat="37.318987" lon="-3.108842">
        <ele>998.000000</ele>
        <time>2019-05-09T07:43:58Z</time>
      </trkpt>
      <trkpt lat="37.318980" lon="-3.108823">
        <ele>998.000000</ele>
        <time>2019-05-09T07:43:59Z</time>
      </trkpt>
      <trkpt lat="37.318972" lon="-3.108802">
        <ele>998.000000</ele>
        <time>2019-05-09T07:44:00Z</time>
      </trkpt>
      <trkpt lat="37.318964" lon="-3.108780">
        <ele>998.000000</ele>
        <time>2019-05-09T07:44:01Z</time>
      </trkpt>
      <trkpt lat="37.318956" lon="-3.108762">
        <ele>998.000000</ele>
        <time>2019-05-09T07:44:03Z</time>
      </trkpt>
      <trkpt lat="37.318949" lon="-3.108745">
        <ele>998.000000</ele>
        <time>2019-05-09T07:44:03Z</time>
      </trkpt>
      <trkpt lat="37.318943" lon="-3.108730">
        <ele>999.000000</ele>
        <time>2019-05-09T07:44:04Z</time>
      </trkpt>
      <trkpt lat="37.318936" lon="-3.108715">
        <ele>999.000000</ele>
        <time>2019-05-09T07:44:05Z</time>
      </trkpt>
      <trkpt lat="37.318929" lon="-3.108700">
        <ele>999.000000</ele>
        <time>2019-05-09T07:44:06Z</time>
      </trkpt>
      <trkpt lat="37.318922" lon="-3.108687">
        <ele>999.000000</ele>
        <time>2019-05-09T07:44:08Z</time>
      </trkpt>
      <trkpt lat="37.318914" lon="-3.108672">
        <ele>999.000000</ele>
        <time>2019-05-09T07:44:08Z</time>
      </trkpt>
      <trkpt lat="37.318908" lon="-3.108657">
        <ele>999.000000</ele>
        <time>2019-05-09T07:44:09Z</time>
      </trkpt>
      <trkpt lat="37.318901" lon="-3.108642">
        <ele>999.000000</ele>
        <time>2019-05-09T07:44:09Z</time>
      </trkpt>
      <trkpt lat="37.318895" lon="-3.108627">
        <ele>999.000000</ele>
        <time>2019-05-09T07:44:10Z</time>
      </trkpt>
      <trkpt lat="37.318889" lon="-3.108610">
        <ele>999.000000</ele>
        <time>2019-05-09T07:44:11Z</time>
      </trkpt>
      <trkpt lat="37.318884" lon="-3.108595">
        <ele>999.000000</ele>
        <time>2019-05-09T07:44:12Z</time>
      </trkpt>
      <trkpt lat="37.318877" lon="-3.108575">
        <ele>999.000000</ele>
        <time>2019-05-09T07:44:13Z</time>
      </trkpt>
      <trkpt lat="37.318871" lon="-3.108557">
        <ele>999.000000</ele>
        <time>2019-05-09T07:44:14Z</time>
      </trkpt>
      <trkpt lat="37.318865" lon="-3.108537">
        <ele>1000.000000</ele>
        <time>2019-05-09T07:44:15Z</time>
      </trkpt>
      <trkpt lat="37.318859" lon="-3.108515">
        <ele>1000.000000</ele>
        <time>2019-05-09T07:44:16Z</time>
      </trkpt>
      <trkpt lat="37.318855" lon="-3.108497">
        <ele>1000.000000</ele>
        <time>2019-05-09T07:44:17Z</time>
      </trkpt>
      <trkpt lat="37.318850" lon="-3.108473">
        <ele>1000.000000</ele>
        <time>2019-05-09T07:44:18Z</time>
      </trkpt>
      <trkpt lat="37.318847" lon="-3.108450">
        <ele>1000.000000</ele>
        <time>2019-05-09T07:44:19Z</time>
      </trkpt>
      <trkpt lat="37.318843" lon="-3.108425">
        <ele>1000.000000</ele>
        <time>2019-05-09T07:44:20Z</time>
      </trkpt>
      <trkpt lat="37.318841" lon="-3.108402">
        <ele>1000.000000</ele>
        <time>2019-05-09T07:44:21Z</time>
      </trkpt>
      <trkpt lat="37.318840" lon="-3.108378">
        <ele>1000.000000</ele>
        <time>2019-05-09T07:44:22Z</time>
      </trkpt>
      <trkpt lat="37.318839" lon="-3.108358">
        <ele>1000.000000</ele>
        <time>2019-05-09T07:44:23Z</time>
      </trkpt>
      <trkpt lat="37.318838" lon="-3.108338">
        <ele>1000.000000</ele>
        <time>2019-05-09T07:44:24Z</time>
      </trkpt>
      <trkpt lat="37.318838" lon="-3.108322">
        <ele>1000.000000</ele>
        <time>2019-05-09T07:44:26Z</time>
      </trkpt>
      <trkpt lat="37.318839" lon="-3.108308">
        <ele>1000.000000</ele>
        <time>2019-05-09T07:44:26Z</time>
      </trkpt>
      <trkpt lat="37.318838" lon="-3.108295">
        <ele>1000.000000</ele>
        <time>2019-05-09T07:44:27Z</time>
      </trkpt>
      <trkpt lat="37.318838" lon="-3.108282">
        <ele>1001.000000</ele>
        <time>2019-05-09T07:44:28Z</time>
      </trkpt>
      <trkpt lat="37.318837" lon="-3.108268">
        <ele>1001.000000</ele>
        <time>2019-05-09T07:44:29Z</time>
      </trkpt>
      <trkpt lat="37.318837" lon="-3.108260">
        <ele>1001.000000</ele>
        <time>2019-05-09T07:44:30Z</time>
      </trkpt>
      <trkpt lat="37.318836" lon="-3.108247">
        <ele>1001.000000</ele>
        <time>2019-05-09T07:44:31Z</time>
      </trkpt>
      <trkpt lat="37.318835" lon="-3.108232">
        <ele>1002.000000</ele>
        <time>2019-05-09T07:44:32Z</time>
      </trkpt>
      <trkpt lat="37.318834" lon="-3.108215">
        <ele>1002.000000</ele>
        <time>2019-05-09T07:44:33Z</time>
      </trkpt>
      <trkpt lat="37.318834" lon="-3.108198">
        <ele>1002.000000</ele>
        <time>2019-05-09T07:44:35Z</time>
      </trkpt>
      <trkpt lat="37.318834" lon="-3.108185">
        <ele>1003.000000</ele>
        <time>2019-05-09T07:44:35Z</time>
      </trkpt>
      <trkpt lat="37.318832" lon="-3.108167">
        <ele>1003.000000</ele>
        <time>2019-05-09T07:44:36Z</time>
      </trkpt>
      <trkpt lat="37.318833" lon="-3.108148">
        <ele>1003.000000</ele>
        <time>2019-05-09T07:44:38Z</time>
      </trkpt>
      <trkpt lat="37.318833" lon="-3.108135">
        <ele>1004.000000</ele>
        <time>2019-05-09T07:44:39Z</time>
      </trkpt>
      <trkpt lat="37.318834" lon="-3.108118">
        <ele>1004.000000</ele>
        <time>2019-05-09T07:44:39Z</time>
      </trkpt>
      <trkpt lat="37.318835" lon="-3.108098">
        <ele>1004.000000</ele>
        <time>2019-05-09T07:44:40Z</time>
      </trkpt>
      <trkpt lat="37.318837" lon="-3.108080">
        <ele>1004.000000</ele>
        <time>2019-05-09T07:44:41Z</time>
      </trkpt>
      <trkpt lat="37.318838" lon="-3.108060">
        <ele>1004.000000</ele>
        <time>2019-05-09T07:44:42Z</time>
      </trkpt>
      <trkpt lat="37.318842" lon="-3.108040">
        <ele>1004.000000</ele>
        <time>2019-05-09T07:44:43Z</time>
      </trkpt>
      <trkpt lat="37.318844" lon="-3.108022">
        <ele>1005.000000</ele>
        <time>2019-05-09T07:44:44Z</time>
      </trkpt>
      <trkpt lat="37.318847" lon="-3.108007">
        <ele>1005.000000</ele>
        <time>2019-05-09T07:44:45Z</time>
      </trkpt>
      <trkpt lat="37.318850" lon="-3.107993">
        <ele>1005.000000</ele>
        <time>2019-05-09T07:44:46Z</time>
      </trkpt>
      <trkpt lat="37.318853" lon="-3.107975">
        <ele>1005.000000</ele>
        <time>2019-05-09T07:44:47Z</time>
      </trkpt>
      <trkpt lat="37.318856" lon="-3.107962">
        <ele>1005.000000</ele>
        <time>2019-05-09T07:44:48Z</time>
      </trkpt>
      <trkpt lat="37.318860" lon="-3.107947">
        <ele>1006.000000</ele>
        <time>2019-05-09T07:44:49Z</time>
      </trkpt>
      <trkpt lat="37.318861" lon="-3.107930">
        <ele>1006.000000</ele>
        <time>2019-05-09T07:44:51Z</time>
      </trkpt>
      <trkpt lat="37.318865" lon="-3.107908">
        <ele>1006.000000</ele>
        <time>2019-05-09T07:44:51Z</time>
      </trkpt>
      <trkpt lat="37.318867" lon="-3.107885">
        <ele>1006.000000</ele>
        <time>2019-05-09T07:44:52Z</time>
      </trkpt>
      <trkpt lat="37.318869" lon="-3.107860">
        <ele>1007.000000</ele>
        <time>2019-05-09T07:44:53Z</time>
      </trkpt>
      <trkpt lat="37.318873" lon="-3.107838">
        <ele>1007.000000</ele>
        <time>2019-05-09T07:44:54Z</time>
      </trkpt>
      <trkpt lat="37.318876" lon="-3.107817">
        <ele>1007.000000</ele>
        <time>2019-05-09T07:44:55Z</time>
      </trkpt>
      <trkpt lat="37.318878" lon="-3.107798">
        <ele>1008.000000</ele>
        <time>2019-05-09T07:44:56Z</time>
      </trkpt>
      <trkpt lat="37.318881" lon="-3.107783">
        <ele>1008.000000</ele>
        <time>2019-05-09T07:44:57Z</time>
      </trkpt>
      <trkpt lat="37.318887" lon="-3.107777">
        <ele>1008.000000</ele>
        <time>2019-05-09T07:44:58Z</time>
      </trkpt>
      <trkpt lat="37.318928" lon="-3.107768">
        <ele>1009.000000</ele>
        <time>2019-05-09T07:44:59Z</time>
      </trkpt>
      <trkpt lat="37.318935" lon="-3.107760">
        <ele>1009.000000</ele>
        <time>2019-05-09T07:45:00Z</time>
      </trkpt>
      <trkpt lat="37.318940" lon="-3.107753">
        <ele>1009.000000</ele>
        <time>2019-05-09T07:45:01Z</time>
      </trkpt>
      <trkpt lat="37.318947" lon="-3.107743">
        <ele>1009.000000</ele>
        <time>2019-05-09T07:45:02Z</time>
      </trkpt>
      <trkpt lat="37.318952" lon="-3.107733">
        <ele>1010.000000</ele>
        <time>2019-05-09T07:45:03Z</time>
      </trkpt>
      <trkpt lat="37.318957" lon="-3.107722">
        <ele>1010.000000</ele>
        <time>2019-05-09T07:45:04Z</time>
      </trkpt>
      <trkpt lat="37.318962" lon="-3.107710">
        <ele>1010.000000</ele>
        <time>2019-05-09T07:45:05Z</time>
      </trkpt>
      <trkpt lat="37.318968" lon="-3.107695">
        <ele>1011.000000</ele>
        <time>2019-05-09T07:45:06Z</time>
      </trkpt>
      <trkpt lat="37.318974" lon="-3.107680">
        <ele>1011.000000</ele>
        <time>2019-05-09T07:45:07Z</time>
      </trkpt>
      <trkpt lat="37.318982" lon="-3.107667">
        <ele>1011.000000</ele>
        <time>2019-05-09T07:45:08Z</time>
      </trkpt>
      <trkpt lat="37.318991" lon="-3.107655">
        <ele>1011.000000</ele>
        <time>2019-05-09T07:45:09Z</time>
      </trkpt>
      <trkpt lat="37.319000" lon="-3.107645">
        <ele>1011.000000</ele>
        <time>2019-05-09T07:45:10Z</time>
      </trkpt>
      <trkpt lat="37.319022" lon="-3.107632">
        <ele>1012.000000</ele>
        <time>2019-05-09T07:45:12Z</time>
      </trkpt>
      <trkpt lat="37.319035" lon="-3.107618">
        <ele>1012.000000</ele>
        <time>2019-05-09T07:45:12Z</time>
      </trkpt>
      <trkpt lat="37.319047" lon="-3.107605">
        <ele>1012.000000</ele>
        <time>2019-05-09T07:45:13Z</time>
      </trkpt>
      <trkpt lat="37.319062" lon="-3.107592">
        <ele>1013.000000</ele>
        <time>2019-05-09T07:45:14Z</time>
      </trkpt>
      <trkpt lat="37.319075" lon="-3.107579">
        <ele>1013.000000</ele>
        <time>2019-05-09T07:45:15Z</time>
      </trkpt>
      <trkpt lat="37.319090" lon="-3.107563">
        <ele>1013.000000</ele>
        <time>2019-05-09T07:45:16Z</time>
      </trkpt>
      <trkpt lat="37.319107" lon="-3.107547">
        <ele>1013.000000</ele>
        <time>2019-05-09T07:45:17Z</time>
      </trkpt>
      <trkpt lat="37.319120" lon="-3.107533">
        <ele>1013.000000</ele>
        <time>2019-05-09T07:45:18Z</time>
      </trkpt>
      <trkpt lat="37.319133" lon="-3.107516">
        <ele>1013.000000</ele>
        <time>2019-05-09T07:45:19Z</time>
      </trkpt>
      <trkpt lat="37.319147" lon="-3.107501">
        <ele>1013.000000</ele>
        <time>2019-05-09T07:45:20Z</time>
      </trkpt>
      <trkpt lat="37.319157" lon="-3.107489">
        <ele>1013.000000</ele>
        <time>2019-05-09T07:45:21Z</time>
      </trkpt>
      <trkpt lat="37.319168" lon="-3.107478">
        <ele>1013.000000</ele>
        <time>2019-05-09T07:45:22Z</time>
      </trkpt>
      <trkpt lat="37.319180" lon="-3.107467">
        <ele>1013.000000</ele>
        <time>2019-05-09T07:45:24Z</time>
      </trkpt>
      <trkpt lat="37.319193" lon="-3.107456">
        <ele>1013.000000</ele>
        <time>2019-05-09T07:45:25Z</time>
      </trkpt>
      <trkpt lat="37.319210" lon="-3.107445">
        <ele>1013.000000</ele>
        <time>2019-05-09T07:45:25Z</time>
      </trkpt>
      <trkpt lat="37.319228" lon="-3.107436">
        <ele>1013.000000</ele>
        <time>2019-05-09T07:45:26Z</time>
      </trkpt>
      <trkpt lat="37.319245" lon="-3.107430">
        <ele>1013.000000</ele>
        <time>2019-05-09T07:45:27Z</time>
      </trkpt>
      <trkpt lat="37.319258" lon="-3.107425">
        <ele>1013.000000</ele>
        <time>2019-05-09T07:45:28Z</time>
      </trkpt>
      <trkpt lat="37.319270" lon="-3.107422">
        <ele>1014.000000</ele>
        <time>2019-05-09T07:45:29Z</time>
      </trkpt>
      <trkpt lat="37.319280" lon="-3.107419">
        <ele>1014.000000</ele>
        <time>2019-05-09T07:45:30Z</time>
      </trkpt>
      <trkpt lat="37.319288" lon="-3.107417">
        <ele>1014.000000</ele>
        <time>2019-05-09T07:45:31Z</time>
      </trkpt>
      <trkpt lat="37.319298" lon="-3.107414">
        <ele>1015.000000</ele>
        <time>2019-05-09T07:45:32Z</time>
      </trkpt>
      <trkpt lat="37.319305" lon="-3.107412">
        <ele>1015.000000</ele>
        <time>2019-05-09T07:45:33Z</time>
      </trkpt>
      <trkpt lat="37.319312" lon="-3.107410">
        <ele>1015.000000</ele>
        <time>2019-05-09T07:45:34Z</time>
      </trkpt>
      <trkpt lat="37.319320" lon="-3.107406">
        <ele>1016.000000</ele>
        <time>2019-05-09T07:45:35Z</time>
      </trkpt>
      <trkpt lat="37.319330" lon="-3.107401">
        <ele>1016.000000</ele>
        <time>2019-05-09T07:45:37Z</time>
      </trkpt>
      <trkpt lat="37.319338" lon="-3.107398">
        <ele>1017.000000</ele>
        <time>2019-05-09T07:45:37Z</time>
      </trkpt>
      <trkpt lat="37.319347" lon="-3.107395">
        <ele>1017.000000</ele>
        <time>2019-05-09T07:45:38Z</time>
      </trkpt>
      <trkpt lat="37.319357" lon="-3.107392">
        <ele>1018.000000</ele>
        <time>2019-05-09T07:45:39Z</time>
      </trkpt>
      <trkpt lat="37.319365" lon="-3.107390">
        <ele>1018.000000</ele>
        <time>2019-05-09T07:45:40Z</time>
      </trkpt>
      <trkpt lat="37.319373" lon="-3.107388">
        <ele>1019.000000</ele>
        <time>2019-05-09T07:45:41Z</time>
      </trkpt>
      <trkpt lat="37.319382" lon="-3.107386">
        <ele>1019.000000</ele>
        <time>2019-05-09T07:45:42Z</time>
      </trkpt>
      <trkpt lat="37.319390" lon="-3.107385">
        <ele>1019.000000</ele>
        <time>2019-05-09T07:45:43Z</time>
      </trkpt>
      <trkpt lat="37.319398" lon="-3.107384">
        <ele>1019.000000</ele>
        <time>2019-05-09T07:45:44Z</time>
      </trkpt>
      <trkpt lat="37.319407" lon="-3.107383">
        <ele>1019.000000</ele>
        <time>2019-05-09T07:45:45Z</time>
      </trkpt>
      <trkpt lat="37.319413" lon="-3.107383">
        <ele>1021.000000</ele>
        <time>2019-05-09T07:45:46Z</time>
      </trkpt>
      <trkpt lat="37.319420" lon="-3.107382">
        <ele>1021.000000</ele>
        <time>2019-05-09T07:45:47Z</time>
      </trkpt>
      <trkpt lat="37.319427" lon="-3.107381">
        <ele>1021.000000</ele>
        <time>2019-05-09T07:45:48Z</time>
      </trkpt>
      <trkpt lat="37.319435" lon="-3.107380">
        <ele>1021.000000</ele>
        <time>2019-05-09T07:45:49Z</time>
      </trkpt>
      <trkpt lat="37.319442" lon="-3.107379">
        <ele>1022.000000</ele>
        <time>2019-05-09T07:45:50Z</time>
      </trkpt>
      <trkpt lat="37.319448" lon="-3.107379">
        <ele>1022.000000</ele>
        <time>2019-05-09T07:45:51Z</time>
      </trkpt>
      <trkpt lat="37.319457" lon="-3.107377">
        <ele>1023.000000</ele>
        <time>2019-05-09T07:45:52Z</time>
      </trkpt>
      <trkpt lat="37.319465" lon="-3.107376">
        <ele>1023.000000</ele>
        <time>2019-05-09T07:45:53Z</time>
      </trkpt>
      <trkpt lat="37.319472" lon="-3.107376">
        <ele>1024.000000</ele>
        <time>2019-05-09T07:45:54Z</time>
      </trkpt>
      <trkpt lat="37.319478" lon="-3.107375">
        <ele>1024.000000</ele>
        <time>2019-05-09T07:45:55Z</time>
      </trkpt>
      <trkpt lat="37.319485" lon="-3.107374">
        <ele>1025.000000</ele>
        <time>2019-05-09T07:45:56Z</time>
      </trkpt>
      <trkpt lat="37.319493" lon="-3.107373">
        <ele>1025.000000</ele>
        <time>2019-05-09T07:45:57Z</time>
      </trkpt>
      <trkpt lat="37.319502" lon="-3.107372">
        <ele>1026.000000</ele>
        <time>2019-05-09T07:45:58Z</time>
      </trkpt>
      <trkpt lat="37.319508" lon="-3.107372">
        <ele>1026.000000</ele>
        <time>2019-05-09T07:45:59Z</time>
      </trkpt>
      <trkpt lat="37.319515" lon="-3.107372">
        <ele>1027.000000</ele>
        <time>2019-05-09T07:46:00Z</time>
      </trkpt>
      <trkpt lat="37.319527" lon="-3.107369">
        <ele>1027.000000</ele>
        <time>2019-05-09T07:46:01Z</time>
      </trkpt>
      <trkpt lat="37.319535" lon="-3.107367">
        <ele>1027.000000</ele>
        <time>2019-05-09T07:46:02Z</time>
      </trkpt>
      <trkpt lat="37.319548" lon="-3.107368">
        <ele>1028.000000</ele>
        <time>2019-05-09T07:46:03Z</time>
      </trkpt>
      <trkpt lat="37.319560" lon="-3.107368">
        <ele>1028.000000</ele>
        <time>2019-05-09T07:46:04Z</time>
      </trkpt>
      <trkpt lat="37.319573" lon="-3.107368">
        <ele>1029.000000</ele>
        <time>2019-05-09T07:46:05Z</time>
      </trkpt>
      <trkpt lat="37.319585" lon="-3.107369">
        <ele>1029.000000</ele>
        <time>2019-05-09T07:46:06Z</time>
      </trkpt>
      <trkpt lat="37.319603" lon="-3.107369">
        <ele>1030.000000</ele>
        <time>2019-05-09T07:46:07Z</time>
      </trkpt>
      <trkpt lat="37.319618" lon="-3.107369">
        <ele>1030.000000</ele>
        <time>2019-05-09T07:46:08Z</time>
      </trkpt>
      <trkpt lat="37.319635" lon="-3.107370">
        <ele>1030.000000</ele>
        <time>2019-05-09T07:46:09Z</time>
      </trkpt>
      <trkpt lat="37.319652" lon="-3.107369">
        <ele>1031.000000</ele>
        <time>2019-05-09T07:46:10Z</time>
      </trkpt>
      <trkpt lat="37.319668" lon="-3.107370">
        <ele>1031.000000</ele>
        <time>2019-05-09T07:46:11Z</time>
      </trkpt>
      <trkpt lat="37.319683" lon="-3.107371">
        <ele>1031.000000</ele>
        <time>2019-05-09T07:46:12Z</time>
      </trkpt>
      <trkpt lat="37.319700" lon="-3.107371">
        <ele>1031.000000</ele>
        <time>2019-05-09T07:46:13Z</time>
      </trkpt>
      <trkpt lat="37.319717" lon="-3.107371">
        <ele>1031.000000</ele>
        <time>2019-05-09T07:46:14Z</time>
      </trkpt>
      <trkpt lat="37.319732" lon="-3.107370">
        <ele>1031.000000</ele>
        <time>2019-05-09T07:46:15Z</time>
      </trkpt>
      <trkpt lat="37.319747" lon="-3.107370">
        <ele>1031.000000</ele>
        <time>2019-05-09T07:46:16Z</time>
      </trkpt>
      <trkpt lat="37.319760" lon="-3.107369">
        <ele>1032.000000</ele>
        <time>2019-05-09T07:46:17Z</time>
      </trkpt>
      <trkpt lat="37.319772" lon="-3.107369">
        <ele>1032.000000</ele>
        <time>2019-05-09T07:46:18Z</time>
      </trkpt>
      <trkpt lat="37.319782" lon="-3.107368">
        <ele>1032.000000</ele>
        <time>2019-05-09T07:46:19Z</time>
      </trkpt>
      <trkpt lat="37.319792" lon="-3.107368">
        <ele>1033.000000</ele>
        <time>2019-05-09T07:46:20Z</time>
      </trkpt>
      <trkpt lat="37.319803" lon="-3.107366">
        <ele>1033.000000</ele>
        <time>2019-05-09T07:46:22Z</time>
      </trkpt>
      <trkpt lat="37.319815" lon="-3.107366">
        <ele>1033.000000</ele>
        <time>2019-05-09T07:46:22Z</time>
      </trkpt>
      <trkpt lat="37.319827" lon="-3.107365">
        <ele>1034.000000</ele>
        <time>2019-05-09T07:46:23Z</time>
      </trkpt>
      <trkpt lat="37.319837" lon="-3.107362">
        <ele>1034.000000</ele>
        <time>2019-05-09T07:46:24Z</time>
      </trkpt>
      <trkpt lat="37.319847" lon="-3.107361">
        <ele>1034.000000</ele>
        <time>2019-05-09T07:46:25Z</time>
      </trkpt>
      <trkpt lat="37.319858" lon="-3.107358">
        <ele>1035.000000</ele>
        <time>2019-05-09T07:46:26Z</time>
      </trkpt>
      <trkpt lat="37.319873" lon="-3.107355">
        <ele>1035.000000</ele>
        <time>2019-05-09T07:46:27Z</time>
      </trkpt>
      <trkpt lat="37.319885" lon="-3.107353">
        <ele>1035.000000</ele>
        <time>2019-05-09T07:46:28Z</time>
      </trkpt>
      <trkpt lat="37.319900" lon="-3.107351">
        <ele>1036.000000</ele>
        <time>2019-05-09T07:46:29Z</time>
      </trkpt>
      <trkpt lat="37.319915" lon="-3.107349">
        <ele>1036.000000</ele>
        <time>2019-05-09T07:46:30Z</time>
      </trkpt>
      <trkpt lat="37.319928" lon="-3.107347">
        <ele>1036.000000</ele>
        <time>2019-05-09T07:46:31Z</time>
      </trkpt>
      <trkpt lat="37.319943" lon="-3.107344">
        <ele>1037.000000</ele>
        <time>2019-05-09T07:46:32Z</time>
      </trkpt>
      <trkpt lat="37.319958" lon="-3.107343">
        <ele>1037.000000</ele>
        <time>2019-05-09T07:46:33Z</time>
      </trkpt>
      <trkpt lat="37.319972" lon="-3.107341">
        <ele>1037.000000</ele>
        <time>2019-05-09T07:46:34Z</time>
      </trkpt>
      <trkpt lat="37.319983" lon="-3.107339">
        <ele>1037.000000</ele>
        <time>2019-05-09T07:46:35Z</time>
      </trkpt>
      <trkpt lat="37.319995" lon="-3.107338">
        <ele>1038.000000</ele>
        <time>2019-05-09T07:46:36Z</time>
      </trkpt>
      <trkpt lat="37.320003" lon="-3.107335">
        <ele>1038.000000</ele>
        <time>2019-05-09T07:46:37Z</time>
      </trkpt>
      <trkpt lat="37.320012" lon="-3.107333">
        <ele>1038.000000</ele>
        <time>2019-05-09T07:46:38Z</time>
      </trkpt>
      <trkpt lat="37.320018" lon="-3.107332">
        <ele>1039.000000</ele>
        <time>2019-05-09T07:46:39Z</time>
      </trkpt>
      <trkpt lat="37.320025" lon="-3.107329">
        <ele>1039.000000</ele>
        <time>2019-05-09T07:46:40Z</time>
      </trkpt>
      <trkpt lat="37.320032" lon="-3.107327">
        <ele>1039.000000</ele>
        <time>2019-05-09T07:46:41Z</time>
      </trkpt>
      <trkpt lat="37.320040" lon="-3.107326">
        <ele>1040.000000</ele>
        <time>2019-05-09T07:46:42Z</time>
      </trkpt>
      <trkpt lat="37.320053" lon="-3.107323">
        <ele>1040.000000</ele>
        <time>2019-05-09T07:46:43Z</time>
      </trkpt>
      <trkpt lat="37.320063" lon="-3.107321">
        <ele>1040.000000</ele>
        <time>2019-05-09T07:46:44Z</time>
      </trkpt>
      <trkpt lat="37.320073" lon="-3.107320">
        <ele>1041.000000</ele>
        <time>2019-05-09T07:46:46Z</time>
      </trkpt>
      <trkpt lat="37.320087" lon="-3.107316">
        <ele>1041.000000</ele>
        <time>2019-05-09T07:46:46Z</time>
      </trkpt>
      <trkpt lat="37.320103" lon="-3.107314">
        <ele>1042.000000</ele>
        <time>2019-05-09T07:46:47Z</time>
      </trkpt>
      <trkpt lat="37.320118" lon="-3.107312">
        <ele>1042.000000</ele>
        <time>2019-05-09T07:46:48Z</time>
      </trkpt>
      <trkpt lat="37.320133" lon="-3.107309">
        <ele>1042.000000</ele>
        <time>2019-05-09T07:46:49Z</time>
      </trkpt>
      <trkpt lat="37.320145" lon="-3.107308">
        <ele>1043.000000</ele>
        <time>2019-05-09T07:46:50Z</time>
      </trkpt>
      <trkpt lat="37.320157" lon="-3.107306">
        <ele>1043.000000</ele>
        <time>2019-05-09T07:46:51Z</time>
      </trkpt>
      <trkpt lat="37.320165" lon="-3.107306">
        <ele>1043.000000</ele>
        <time>2019-05-09T07:46:52Z</time>
      </trkpt>
      <trkpt lat="37.320172" lon="-3.107305">
        <ele>1044.000000</ele>
        <time>2019-05-09T07:46:53Z</time>
      </trkpt>
      <trkpt lat="37.320180" lon="-3.107305">
        <ele>1044.000000</ele>
        <time>2019-05-09T07:46:54Z</time>
      </trkpt>
      <trkpt lat="37.320192" lon="-3.107303">
        <ele>1044.000000</ele>
        <time>2019-05-09T07:46:55Z</time>
      </trkpt>
      <trkpt lat="37.320207" lon="-3.107301">
        <ele>1045.000000</ele>
        <time>2019-05-09T07:46:56Z</time>
      </trkpt>
      <trkpt lat="37.320220" lon="-3.107299">
        <ele>1045.000000</ele>
        <time>2019-05-09T07:46:57Z</time>
      </trkpt>
      <trkpt lat="37.320237" lon="-3.107297">
        <ele>1045.000000</ele>
        <time>2019-05-09T07:46:58Z</time>
      </trkpt>
      <trkpt lat="37.320253" lon="-3.107295">
        <ele>1045.000000</ele>
        <time>2019-05-09T07:46:59Z</time>
      </trkpt>
      <trkpt lat="37.320270" lon="-3.107294">
        <ele>1045.000000</ele>
        <time>2019-05-09T07:47:00Z</time>
      </trkpt>
      <trkpt lat="37.320290" lon="-3.107294">
        <ele>1045.000000</ele>
        <time>2019-05-09T07:47:01Z</time>
      </trkpt>
      <trkpt lat="37.320308" lon="-3.107293">
        <ele>1045.000000</ele>
        <time>2019-05-09T07:47:02Z</time>
      </trkpt>
      <trkpt lat="37.320327" lon="-3.107294">
        <ele>1045.000000</ele>
        <time>2019-05-09T07:47:03Z</time>
      </trkpt>
      <trkpt lat="37.320343" lon="-3.107297">
        <ele>1045.000000</ele>
        <time>2019-05-09T07:47:04Z</time>
      </trkpt>
      <trkpt lat="37.320358" lon="-3.107298">
        <ele>1045.000000</ele>
        <time>2019-05-09T07:47:05Z</time>
      </trkpt>
      <trkpt lat="37.320372" lon="-3.107301">
        <ele>1045.000000</ele>
        <time>2019-05-09T07:47:07Z</time>
      </trkpt>
      <trkpt lat="37.320385" lon="-3.107304">
        <ele>1045.000000</ele>
        <time>2019-05-09T07:47:07Z</time>
      </trkpt>
      <trkpt lat="37.320400" lon="-3.107306">
        <ele>1045.000000</ele>
        <time>2019-05-09T07:47:08Z</time>
      </trkpt>
      <trkpt lat="37.320413" lon="-3.107307">
        <ele>1045.000000</ele>
        <time>2019-05-09T07:47:09Z</time>
      </trkpt>
      <trkpt lat="37.320427" lon="-3.107310">
        <ele>1045.000000</ele>
        <time>2019-05-09T07:47:10Z</time>
      </trkpt>
      <trkpt lat="37.320440" lon="-3.107311">
        <ele>1046.000000</ele>
        <time>2019-05-09T07:47:11Z</time>
      </trkpt>
      <trkpt lat="37.320455" lon="-3.107312">
        <ele>1046.000000</ele>
        <time>2019-05-09T07:47:12Z</time>
      </trkpt>
      <trkpt lat="37.320472" lon="-3.107311">
        <ele>1046.000000</ele>
        <time>2019-05-09T07:47:13Z</time>
      </trkpt>
      <trkpt lat="37.320488" lon="-3.107295">
        <ele>1046.000000</ele>
        <time>2019-05-09T07:47:14Z</time>
      </trkpt>
      <trkpt lat="37.320502" lon="-3.107282">
        <ele>1046.000000</ele>
        <time>2019-05-09T07:47:15Z</time>
      </trkpt>
      <trkpt lat="37.320515" lon="-3.107267">
        <ele>1046.000000</ele>
        <time>2019-05-09T07:47:16Z</time>
      </trkpt>
      <trkpt lat="37.320528" lon="-3.107253">
        <ele>1046.000000</ele>
        <time>2019-05-09T07:47:17Z</time>
      </trkpt>
      <trkpt lat="37.320542" lon="-3.107240">
        <ele>1046.000000</ele>
        <time>2019-05-09T07:47:18Z</time>
      </trkpt>
      <trkpt lat="37.320555" lon="-3.107227">
        <ele>1046.000000</ele>
        <time>2019-05-09T07:47:19Z</time>
      </trkpt>
      <trkpt lat="37.320565" lon="-3.107215">
        <ele>1046.000000</ele>
        <time>2019-05-09T07:47:20Z</time>
      </trkpt>
      <trkpt lat="37.320575" lon="-3.107203">
        <ele>1046.000000</ele>
        <time>2019-05-09T07:47:21Z</time>
      </trkpt>
      <trkpt lat="37.320583" lon="-3.107191">
        <ele>1046.000000</ele>
        <time>2019-05-09T07:47:22Z</time>
      </trkpt>
      <trkpt lat="37.320593" lon="-3.107177">
        <ele>1046.000000</ele>
        <time>2019-05-09T07:47:23Z</time>
      </trkpt>
      <trkpt lat="37.320607" lon="-3.107161">
        <ele>1046.000000</ele>
        <time>2019-05-09T07:47:24Z</time>
      </trkpt>
      <trkpt lat="37.320617" lon="-3.107148">
        <ele>1046.000000</ele>
        <time>2019-05-09T07:47:25Z</time>
      </trkpt>
      <trkpt lat="37.320628" lon="-3.107132">
        <ele>1046.000000</ele>
        <time>2019-05-09T07:47:26Z</time>
      </trkpt>
      <trkpt lat="37.320640" lon="-3.107117">
        <ele>1046.000000</ele>
        <time>2019-05-09T07:47:27Z</time>
      </trkpt>
      <trkpt lat="37.320653" lon="-3.107099">
        <ele>1046.000000</ele>
        <time>2019-05-09T07:47:28Z</time>
      </trkpt>
      <trkpt lat="37.320667" lon="-3.107081">
        <ele>1046.000000</ele>
        <time>2019-05-09T07:47:29Z</time>
      </trkpt>
      <trkpt lat="37.320678" lon="-3.107065">
        <ele>1046.000000</ele>
        <time>2019-05-09T07:47:30Z</time>
      </trkpt>
      <trkpt lat="37.320688" lon="-3.107043">
        <ele>1046.000000</ele>
        <time>2019-05-09T07:47:32Z</time>
      </trkpt>
      <trkpt lat="37.320697" lon="-3.107030">
        <ele>1046.000000</ele>
        <time>2019-05-09T07:47:32Z</time>
      </trkpt>
      <trkpt lat="37.320704" lon="-3.107015">
        <ele>1046.000000</ele>
        <time>2019-05-09T07:47:33Z</time>
      </trkpt>
      <trkpt lat="37.320710" lon="-3.106998">
        <ele>1046.000000</ele>
        <time>2019-05-09T07:47:34Z</time>
      </trkpt>
      <trkpt lat="37.320718" lon="-3.106982">
        <ele>1046.000000</ele>
        <time>2019-05-09T07:47:35Z</time>
      </trkpt>
      <trkpt lat="37.320725" lon="-3.106963">
        <ele>1046.000000</ele>
        <time>2019-05-09T07:47:36Z</time>
      </trkpt>
      <trkpt lat="37.320734" lon="-3.106943">
        <ele>1046.000000</ele>
        <time>2019-05-09T07:47:37Z</time>
      </trkpt>
      <trkpt lat="37.320743" lon="-3.106923">
        <ele>1046.000000</ele>
        <time>2019-05-09T07:47:38Z</time>
      </trkpt>
      <trkpt lat="37.320752" lon="-3.106900">
        <ele>1046.000000</ele>
        <time>2019-05-09T07:47:39Z</time>
      </trkpt>
      <trkpt lat="37.320758" lon="-3.106882">
        <ele>1046.000000</ele>
        <time>2019-05-09T07:47:40Z</time>
      </trkpt>
      <trkpt lat="37.320766" lon="-3.106862">
        <ele>1046.000000</ele>
        <time>2019-05-09T07:47:41Z</time>
      </trkpt>
      <trkpt lat="37.320774" lon="-3.106840">
        <ele>1046.000000</ele>
        <time>2019-05-09T07:47:42Z</time>
      </trkpt>
      <trkpt lat="37.320781" lon="-3.106818">
        <ele>1045.000000</ele>
        <time>2019-05-09T07:47:43Z</time>
      </trkpt>
      <trkpt lat="37.320789" lon="-3.106795">
        <ele>1045.000000</ele>
        <time>2019-05-09T07:47:44Z</time>
      </trkpt>
      <trkpt lat="37.320795" lon="-3.106775">
        <ele>1045.000000</ele>
        <time>2019-05-09T07:47:45Z</time>
      </trkpt>
      <trkpt lat="37.320800" lon="-3.106757">
        <ele>1045.000000</ele>
        <time>2019-05-09T07:47:46Z</time>
      </trkpt>
      <trkpt lat="37.320805" lon="-3.106737">
        <ele>1045.000000</ele>
        <time>2019-05-09T07:47:47Z</time>
      </trkpt>
      <trkpt lat="37.320810" lon="-3.106717">
        <ele>1045.000000</ele>
        <time>2019-05-09T07:47:48Z</time>
      </trkpt>
      <trkpt lat="37.320817" lon="-3.106692">
        <ele>1045.000000</ele>
        <time>2019-05-09T07:47:49Z</time>
      </trkpt>
      <trkpt lat="37.320824" lon="-3.106663">
        <ele>1045.000000</ele>
        <time>2019-05-09T07:47:50Z</time>
      </trkpt>
      <trkpt lat="37.320829" lon="-3.106637">
        <ele>1045.000000</ele>
        <time>2019-05-09T07:47:51Z</time>
      </trkpt>
      <trkpt lat="37.320834" lon="-3.106613">
        <ele>1045.000000</ele>
        <time>2019-05-09T07:47:52Z</time>
      </trkpt>
      <trkpt lat="37.320837" lon="-3.106595">
        <ele>1045.000000</ele>
        <time>2019-05-09T07:47:53Z</time>
      </trkpt>
      <trkpt lat="37.320839" lon="-3.106578">
        <ele>1045.000000</ele>
        <time>2019-05-09T07:47:54Z</time>
      </trkpt>
      <trkpt lat="37.320841" lon="-3.106563">
        <ele>1045.000000</ele>
        <time>2019-05-09T07:47:56Z</time>
      </trkpt>
      <trkpt lat="37.320844" lon="-3.106547">
        <ele>1045.000000</ele>
        <time>2019-05-09T07:47:56Z</time>
      </trkpt>
      <trkpt lat="37.320846" lon="-3.106530">
        <ele>1045.000000</ele>
        <time>2019-05-09T07:47:57Z</time>
      </trkpt>
      <trkpt lat="37.320851" lon="-3.106508">
        <ele>1045.000000</ele>
        <time>2019-05-09T07:47:58Z</time>
      </trkpt>
      <trkpt lat="37.320853" lon="-3.106488">
        <ele>1045.000000</ele>
        <time>2019-05-09T07:47:59Z</time>
      </trkpt>
      <trkpt lat="37.320856" lon="-3.106465">
        <ele>1045.000000</ele>
        <time>2019-05-09T07:48:00Z</time>
      </trkpt>
      <trkpt lat="37.320861" lon="-3.106442">
        <ele>1045.000000</ele>
        <time>2019-05-09T07:48:01Z</time>
      </trkpt>
      <trkpt lat="37.320863" lon="-3.106418">
        <ele>1045.000000</ele>
        <time>2019-05-09T07:48:02Z</time>
      </trkpt>
      <trkpt lat="37.320867" lon="-3.106395">
        <ele>1045.000000</ele>
        <time>2019-05-09T07:48:03Z</time>
      </trkpt>
      <trkpt lat="37.320870" lon="-3.106372">
        <ele>1045.000000</ele>
        <time>2019-05-09T07:48:04Z</time>
      </trkpt>
      <trkpt lat="37.320871" lon="-3.106352">
        <ele>1045.000000</ele>
        <time>2019-05-09T07:48:05Z</time>
      </trkpt>
      <trkpt lat="37.320873" lon="-3.106333">
        <ele>1045.000000</ele>
        <time>2019-05-09T07:48:06Z</time>
      </trkpt>
      <trkpt lat="37.320874" lon="-3.106313">
        <ele>1045.000000</ele>
        <time>2019-05-09T07:48:07Z</time>
      </trkpt>
      <trkpt lat="37.320876" lon="-3.106295">
        <ele>1045.000000</ele>
        <time>2019-05-09T07:48:08Z</time>
      </trkpt>
      <trkpt lat="37.320877" lon="-3.106278">
        <ele>1045.000000</ele>
        <time>2019-05-09T07:48:09Z</time>
      </trkpt>
      <trkpt lat="37.320879" lon="-3.106263">
        <ele>1045.000000</ele>
        <time>2019-05-09T07:48:10Z</time>
      </trkpt>
      <trkpt lat="37.320880" lon="-3.106245">
        <ele>1045.000000</ele>
        <time>2019-05-09T07:48:11Z</time>
      </trkpt>
      <trkpt lat="37.320881" lon="-3.106230">
        <ele>1045.000000</ele>
        <time>2019-05-09T07:48:12Z</time>
      </trkpt>
      <trkpt lat="37.320882" lon="-3.106212">
        <ele>1045.000000</ele>
        <time>2019-05-09T07:48:13Z</time>
      </trkpt>
      <trkpt lat="37.320884" lon="-3.106190">
        <ele>1045.000000</ele>
        <time>2019-05-09T07:48:14Z</time>
      </trkpt>
      <trkpt lat="37.320885" lon="-3.106173">
        <ele>1045.000000</ele>
        <time>2019-05-09T07:48:15Z</time>
      </trkpt>
      <trkpt lat="37.320889" lon="-3.106150">
        <ele>1045.000000</ele>
        <time>2019-05-09T07:48:17Z</time>
      </trkpt>
      <trkpt lat="37.320891" lon="-3.106127">
        <ele>1045.000000</ele>
        <time>2019-05-09T07:48:17Z</time>
      </trkpt>
      <trkpt lat="37.320893" lon="-3.106102">
        <ele>1045.000000</ele>
        <time>2019-05-09T07:48:18Z</time>
      </trkpt>
      <trkpt lat="37.320897" lon="-3.106077">
        <ele>1045.000000</ele>
        <time>2019-05-09T07:48:19Z</time>
      </trkpt>
      <trkpt lat="37.320898" lon="-3.106058">
        <ele>1045.000000</ele>
        <time>2019-05-09T07:48:20Z</time>
      </trkpt>
      <trkpt lat="37.320898" lon="-3.106040">
        <ele>1045.000000</ele>
        <time>2019-05-09T07:48:21Z</time>
      </trkpt>
      <trkpt lat="37.320899" lon="-3.106022">
        <ele>1045.000000</ele>
        <time>2019-05-09T07:48:22Z</time>
      </trkpt>
      <trkpt lat="37.320899" lon="-3.106003">
        <ele>1045.000000</ele>
        <time>2019-05-09T07:48:23Z</time>
      </trkpt>
      <trkpt lat="37.320901" lon="-3.105980">
        <ele>1045.000000</ele>
        <time>2019-05-09T07:48:24Z</time>
      </trkpt>
      <trkpt lat="37.320902" lon="-3.105967">
        <ele>1045.000000</ele>
        <time>2019-05-09T07:48:24Z</time>
      </trkpt>
      <trkpt lat="37.320903" lon="-3.105938">
        <ele>1045.000000</ele>
        <time>2019-05-09T07:48:25Z</time>
      </trkpt>
      <trkpt lat="37.320905" lon="-3.105912">
        <ele>1045.000000</ele>
        <time>2019-05-09T07:48:26Z</time>
      </trkpt>
      <trkpt lat="37.320909" lon="-3.105888">
        <ele>1045.000000</ele>
        <time>2019-05-09T07:48:27Z</time>
      </trkpt>
      <trkpt lat="37.320910" lon="-3.105863">
        <ele>1046.000000</ele>
        <time>2019-05-09T07:48:28Z</time>
      </trkpt>
      <trkpt lat="37.320912" lon="-3.105840">
        <ele>1046.000000</ele>
        <time>2019-05-09T07:48:29Z</time>
      </trkpt>
      <trkpt lat="37.320915" lon="-3.105822">
        <ele>1046.000000</ele>
        <time>2019-05-09T07:48:30Z</time>
      </trkpt>
      <trkpt lat="37.320917" lon="-3.105812">
        <ele>1046.000000</ele>
        <time>2019-05-09T07:48:31Z</time>
      </trkpt>
      <trkpt lat="37.320920" lon="-3.105795">
        <ele>1046.000000</ele>
        <time>2019-05-09T07:48:32Z</time>
      </trkpt>
      <trkpt lat="37.320925" lon="-3.105778">
        <ele>1046.000000</ele>
        <time>2019-05-09T07:48:33Z</time>
      </trkpt>
      <trkpt lat="37.320927" lon="-3.105762">
        <ele>1046.000000</ele>
        <time>2019-05-09T07:48:34Z</time>
      </trkpt>
      <trkpt lat="37.320930" lon="-3.105743">
        <ele>1046.000000</ele>
        <time>2019-05-09T07:48:35Z</time>
      </trkpt>
      <trkpt lat="37.320934" lon="-3.105725">
        <ele>1046.000000</ele>
        <time>2019-05-09T07:48:36Z</time>
      </trkpt>
      <trkpt lat="37.320938" lon="-3.105705">
        <ele>1046.000000</ele>
        <time>2019-05-09T07:48:37Z</time>
      </trkpt>
      <trkpt lat="37.320943" lon="-3.105682">
        <ele>1046.000000</ele>
        <time>2019-05-09T07:48:38Z</time>
      </trkpt>
      <trkpt lat="37.320948" lon="-3.105660">
        <ele>1046.000000</ele>
        <time>2019-05-09T07:48:39Z</time>
      </trkpt>
      <trkpt lat="37.320954" lon="-3.105633">
        <ele>1046.000000</ele>
        <time>2019-05-09T07:48:41Z</time>
      </trkpt>
      <trkpt lat="37.320959" lon="-3.105613">
        <ele>1046.000000</ele>
        <time>2019-05-09T07:48:41Z</time>
      </trkpt>
      <trkpt lat="37.320963" lon="-3.105592">
        <ele>1046.000000</ele>
        <time>2019-05-09T07:48:42Z</time>
      </trkpt>
      <trkpt lat="37.320968" lon="-3.105573">
        <ele>1046.000000</ele>
        <time>2019-05-09T07:48:43Z</time>
      </trkpt>
      <trkpt lat="37.320975" lon="-3.105552">
        <ele>1046.000000</ele>
        <time>2019-05-09T07:48:44Z</time>
      </trkpt>
      <trkpt lat="37.320980" lon="-3.105533">
        <ele>1046.000000</ele>
        <time>2019-05-09T07:48:45Z</time>
      </trkpt>
      <trkpt lat="37.320984" lon="-3.105518">
        <ele>1046.000000</ele>
        <time>2019-05-09T07:48:46Z</time>
      </trkpt>
      <trkpt lat="37.320989" lon="-3.105500">
        <ele>1046.000000</ele>
        <time>2019-05-09T07:48:47Z</time>
      </trkpt>
      <trkpt lat="37.320995" lon="-3.105482">
        <ele>1046.000000</ele>
        <time>2019-05-09T07:48:48Z</time>
      </trkpt>
      <trkpt lat="37.321000" lon="-3.105458">
        <ele>1046.000000</ele>
        <time>2019-05-09T07:48:49Z</time>
      </trkpt>
      <trkpt lat="37.321007" lon="-3.105433">
        <ele>1046.000000</ele>
        <time>2019-05-09T07:48:50Z</time>
      </trkpt>
      <trkpt lat="37.321013" lon="-3.105418">
        <ele>1046.000000</ele>
        <time>2019-05-09T07:48:51Z</time>
      </trkpt>
      <trkpt lat="37.321020" lon="-3.105397">
        <ele>1046.000000</ele>
        <time>2019-05-09T07:48:52Z</time>
      </trkpt>
      <trkpt lat="37.321025" lon="-3.105377">
        <ele>1046.000000</ele>
        <time>2019-05-09T07:48:53Z</time>
      </trkpt>
      <trkpt lat="37.321034" lon="-3.105355">
        <ele>1046.000000</ele>
        <time>2019-05-09T07:48:54Z</time>
      </trkpt>
      <trkpt lat="37.321040" lon="-3.105332">
        <ele>1046.000000</ele>
        <time>2019-05-09T07:48:55Z</time>
      </trkpt>
      <trkpt lat="37.321046" lon="-3.105315">
        <ele>1046.000000</ele>
        <time>2019-05-09T07:48:56Z</time>
      </trkpt>
      <trkpt lat="37.321052" lon="-3.105298">
        <ele>1046.000000</ele>
        <time>2019-05-09T07:48:57Z</time>
      </trkpt>
      <trkpt lat="37.321059" lon="-3.105275">
        <ele>1046.000000</ele>
        <time>2019-05-09T07:48:58Z</time>
      </trkpt>
      <trkpt lat="37.321064" lon="-3.105262">
        <ele>1046.000000</ele>
        <time>2019-05-09T07:48:59Z</time>
      </trkpt>
      <trkpt lat="37.321070" lon="-3.105243">
        <ele>1046.000000</ele>
        <time>2019-05-09T07:49:00Z</time>
      </trkpt>
      <trkpt lat="37.321079" lon="-3.105222">
        <ele>1046.000000</ele>
        <time>2019-05-09T07:49:02Z</time>
      </trkpt>
      <trkpt lat="37.321085" lon="-3.105202">
        <ele>1046.000000</ele>
        <time>2019-05-09T07:49:02Z</time>
      </trkpt>
      <trkpt lat="37.321091" lon="-3.105185">
        <ele>1046.000000</ele>
        <time>2019-05-09T07:49:03Z</time>
      </trkpt>
      <trkpt lat="37.321099" lon="-3.105168">
        <ele>1046.000000</ele>
        <time>2019-05-09T07:49:04Z</time>
      </trkpt>
      <trkpt lat="37.321106" lon="-3.105150">
        <ele>1046.000000</ele>
        <time>2019-05-09T07:49:05Z</time>
      </trkpt>
      <trkpt lat="37.321112" lon="-3.105135">
        <ele>1046.000000</ele>
        <time>2019-05-09T07:49:06Z</time>
      </trkpt>
      <trkpt lat="37.321118" lon="-3.105118">
        <ele>1046.000000</ele>
        <time>2019-05-09T07:49:07Z</time>
      </trkpt>
      <trkpt lat="37.321123" lon="-3.105105">
        <ele>1046.000000</ele>
        <time>2019-05-09T07:49:08Z</time>
      </trkpt>
      <trkpt lat="37.321130" lon="-3.105087">
        <ele>1046.000000</ele>
        <time>2019-05-09T07:49:09Z</time>
      </trkpt>
      <trkpt lat="37.321139" lon="-3.105068">
        <ele>1046.000000</ele>
        <time>2019-05-09T07:49:10Z</time>
      </trkpt>
      <trkpt lat="37.321146" lon="-3.105048">
        <ele>1046.000000</ele>
        <time>2019-05-09T07:49:11Z</time>
      </trkpt>
      <trkpt lat="37.321154" lon="-3.105028">
        <ele>1046.000000</ele>
        <time>2019-05-09T07:49:12Z</time>
      </trkpt>
      <trkpt lat="37.321160" lon="-3.105013">
        <ele>1046.000000</ele>
        <time>2019-05-09T07:49:13Z</time>
      </trkpt>
      <trkpt lat="37.321166" lon="-3.105000">
        <ele>1046.000000</ele>
        <time>2019-05-09T07:49:14Z</time>
      </trkpt>
      <trkpt lat="37.321174" lon="-3.104980">
        <ele>1046.000000</ele>
        <time>2019-05-09T07:49:15Z</time>
      </trkpt>
      <trkpt lat="37.321180" lon="-3.104967">
        <ele>1046.000000</ele>
        <time>2019-05-09T07:49:16Z</time>
      </trkpt>
      <trkpt lat="37.321190" lon="-3.104945">
        <ele>1047.000000</ele>
        <time>2019-05-09T07:49:17Z</time>
      </trkpt>
      <trkpt lat="37.321198" lon="-3.104927">
        <ele>1047.000000</ele>
        <time>2019-05-09T07:49:18Z</time>
      </trkpt>
      <trkpt lat="37.321203" lon="-3.104917">
        <ele>1047.000000</ele>
        <time>2019-05-09T07:49:19Z</time>
      </trkpt>
      <trkpt lat="37.321209" lon="-3.104907">
        <ele>1047.000000</ele>
        <time>2019-05-09T07:49:20Z</time>
      </trkpt>
      <trkpt lat="37.321216" lon="-3.104895">
        <ele>1047.000000</ele>
        <time>2019-05-09T07:49:21Z</time>
      </trkpt>
      <trkpt lat="37.321225" lon="-3.104878">
        <ele>1047.000000</ele>
        <time>2019-05-09T07:49:22Z</time>
      </trkpt>
      <trkpt lat="37.321233" lon="-3.104867">
        <ele>1047.000000</ele>
        <time>2019-05-09T07:49:23Z</time>
      </trkpt>
      <trkpt lat="37.321242" lon="-3.104852">
        <ele>1047.000000</ele>
        <time>2019-05-09T07:49:24Z</time>
      </trkpt>
      <trkpt lat="37.321252" lon="-3.104837">
        <ele>1047.000000</ele>
        <time>2019-05-09T07:49:25Z</time>
      </trkpt>
      <trkpt lat="37.321262" lon="-3.104822">
        <ele>1047.000000</ele>
        <time>2019-05-09T07:49:27Z</time>
      </trkpt>
      <trkpt lat="37.321272" lon="-3.104807">
        <ele>1047.000000</ele>
        <time>2019-05-09T07:49:27Z</time>
      </trkpt>
      <trkpt lat="37.321283" lon="-3.104788">
        <ele>1047.000000</ele>
        <time>2019-05-09T07:49:28Z</time>
      </trkpt>
      <trkpt lat="37.321293" lon="-3.104777">
        <ele>1047.000000</ele>
        <time>2019-05-09T07:49:29Z</time>
      </trkpt>
      <trkpt lat="37.321306" lon="-3.104758">
        <ele>1047.000000</ele>
        <time>2019-05-09T07:49:30Z</time>
      </trkpt>
      <trkpt lat="37.321315" lon="-3.104745">
        <ele>1048.000000</ele>
        <time>2019-05-09T07:49:31Z</time>
      </trkpt>
      <trkpt lat="37.321326" lon="-3.104730">
        <ele>1048.000000</ele>
        <time>2019-05-09T07:49:32Z</time>
      </trkpt>
      <trkpt lat="37.321338" lon="-3.104713">
        <ele>1048.000000</ele>
        <time>2019-05-09T07:49:33Z</time>
      </trkpt>
      <trkpt lat="37.321349" lon="-3.104702">
        <ele>1048.000000</ele>
        <time>2019-05-09T07:49:34Z</time>
      </trkpt>
      <trkpt lat="37.321360" lon="-3.104688">
        <ele>1048.000000</ele>
        <time>2019-05-09T07:49:35Z</time>
      </trkpt>
      <trkpt lat="37.321372" lon="-3.104673">
        <ele>1048.000000</ele>
        <time>2019-05-09T07:49:36Z</time>
      </trkpt>
      <trkpt lat="37.321386" lon="-3.104657">
        <ele>1048.000000</ele>
        <time>2019-05-09T07:49:37Z</time>
      </trkpt>
      <trkpt lat="37.321400" lon="-3.104638">
        <ele>1048.000000</ele>
        <time>2019-05-09T07:49:38Z</time>
      </trkpt>
      <trkpt lat="37.321416" lon="-3.104617">
        <ele>1048.000000</ele>
        <time>2019-05-09T07:49:39Z</time>
      </trkpt>
      <trkpt lat="37.321428" lon="-3.104602">
        <ele>1048.000000</ele>
        <time>2019-05-09T07:49:40Z</time>
      </trkpt>
      <trkpt lat="37.321442" lon="-3.104587">
        <ele>1048.000000</ele>
        <time>2019-05-09T07:49:41Z</time>
      </trkpt>
      <trkpt lat="37.321453" lon="-3.104575">
        <ele>1048.000000</ele>
        <time>2019-05-09T07:49:42Z</time>
      </trkpt>
      <trkpt lat="37.321465" lon="-3.104562">
        <ele>1048.000000</ele>
        <time>2019-05-09T07:49:43Z</time>
      </trkpt>
      <trkpt lat="37.321481" lon="-3.104545">
        <ele>1048.000000</ele>
        <time>2019-05-09T07:49:44Z</time>
      </trkpt>
      <trkpt lat="37.321495" lon="-3.104528">
        <ele>1048.000000</ele>
        <time>2019-05-09T07:49:45Z</time>
      </trkpt>
      <trkpt lat="37.321505" lon="-3.104518">
        <ele>1049.000000</ele>
        <time>2019-05-09T07:49:46Z</time>
      </trkpt>
      <trkpt lat="37.321520" lon="-3.104502">
        <ele>1049.000000</ele>
        <time>2019-05-09T07:49:47Z</time>
      </trkpt>
      <trkpt lat="37.321530" lon="-3.104488">
        <ele>1049.000000</ele>
        <time>2019-05-09T07:49:48Z</time>
      </trkpt>
      <trkpt lat="37.321543" lon="-3.104475">
        <ele>1049.000000</ele>
        <time>2019-05-09T07:49:49Z</time>
      </trkpt>
      <trkpt lat="37.321556" lon="-3.104460">
        <ele>1049.000000</ele>
        <time>2019-05-09T07:49:51Z</time>
      </trkpt>
      <trkpt lat="37.321571" lon="-3.104442">
        <ele>1049.000000</ele>
        <time>2019-05-09T07:49:51Z</time>
      </trkpt>
      <trkpt lat="37.321584" lon="-3.104428">
        <ele>1049.000000</ele>
        <time>2019-05-09T07:49:52Z</time>
      </trkpt>
      <trkpt lat="37.321598" lon="-3.104413">
        <ele>1050.000000</ele>
        <time>2019-05-09T07:49:53Z</time>
      </trkpt>
      <trkpt lat="37.321627" lon="-3.104400">
        <ele>1050.000000</ele>
        <time>2019-05-09T07:49:54Z</time>
      </trkpt>
      <trkpt lat="37.321640" lon="-3.104387">
        <ele>1050.000000</ele>
        <time>2019-05-09T07:49:55Z</time>
      </trkpt>
      <trkpt lat="37.321652" lon="-3.104372">
        <ele>1050.000000</ele>
        <time>2019-05-09T07:49:56Z</time>
      </trkpt>
      <trkpt lat="37.321662" lon="-3.104358">
        <ele>1050.000000</ele>
        <time>2019-05-09T07:49:57Z</time>
      </trkpt>
      <trkpt lat="37.321673" lon="-3.104343">
        <ele>1050.000000</ele>
        <time>2019-05-09T07:49:58Z</time>
      </trkpt>
      <trkpt lat="37.321683" lon="-3.104328">
        <ele>1050.000000</ele>
        <time>2019-05-09T07:49:59Z</time>
      </trkpt>
      <trkpt lat="37.321693" lon="-3.104312">
        <ele>1050.000000</ele>
        <time>2019-05-09T07:50:00Z</time>
      </trkpt>
      <trkpt lat="37.321703" lon="-3.104297">
        <ele>1050.000000</ele>
        <time>2019-05-09T07:50:01Z</time>
      </trkpt>
      <trkpt lat="37.321717" lon="-3.104277">
        <ele>1050.000000</ele>
        <time>2019-05-09T07:50:02Z</time>
      </trkpt>
      <trkpt lat="37.321729" lon="-3.104258">
        <ele>1050.000000</ele>
        <time>2019-05-09T07:50:03Z</time>
      </trkpt>
      <trkpt lat="37.321744" lon="-3.104238">
        <ele>1050.000000</ele>
        <time>2019-05-09T07:50:04Z</time>
      </trkpt>
      <trkpt lat="37.321758" lon="-3.104218">
        <ele>1050.000000</ele>
        <time>2019-05-09T07:50:05Z</time>
      </trkpt>
      <trkpt lat="37.321772" lon="-3.104198">
        <ele>1050.000000</ele>
        <time>2019-05-09T07:50:06Z</time>
      </trkpt>
      <trkpt lat="37.321783" lon="-3.104182">
        <ele>1050.000000</ele>
        <time>2019-05-09T07:50:07Z</time>
      </trkpt>
      <trkpt lat="37.321793" lon="-3.104167">
        <ele>1050.000000</ele>
        <time>2019-05-09T07:50:08Z</time>
      </trkpt>
      <trkpt lat="37.321801" lon="-3.104152">
        <ele>1050.000000</ele>
        <time>2019-05-09T07:50:09Z</time>
      </trkpt>
      <trkpt lat="37.321809" lon="-3.104137">
        <ele>1050.000000</ele>
        <time>2019-05-09T07:50:10Z</time>
      </trkpt>
      <trkpt lat="37.321817" lon="-3.104118">
        <ele>1050.000000</ele>
        <time>2019-05-09T07:50:12Z</time>
      </trkpt>
      <trkpt lat="37.321824" lon="-3.104102">
        <ele>1050.000000</ele>
        <time>2019-05-09T07:50:12Z</time>
      </trkpt>
      <trkpt lat="37.321831" lon="-3.104085">
        <ele>1050.000000</ele>
        <time>2019-05-09T07:50:13Z</time>
      </trkpt>
      <trkpt lat="37.321839" lon="-3.104063">
        <ele>1050.000000</ele>
        <time>2019-05-09T07:50:14Z</time>
      </trkpt>
      <trkpt lat="37.321846" lon="-3.104040">
        <ele>1050.000000</ele>
        <time>2019-05-09T07:50:15Z</time>
      </trkpt>
      <trkpt lat="37.321847" lon="-3.104025">
        <ele>1050.000000</ele>
        <time>2019-05-09T07:50:16Z</time>
      </trkpt>
      <trkpt lat="37.321825" lon="-3.104003">
        <ele>1050.000000</ele>
        <time>2019-05-09T07:50:17Z</time>
      </trkpt>
      <trkpt lat="37.321825" lon="-3.103985">
        <ele>1050.000000</ele>
        <time>2019-05-09T07:50:18Z</time>
      </trkpt>
      <trkpt lat="37.321826" lon="-3.103967">
        <ele>1050.000000</ele>
        <time>2019-05-09T07:50:19Z</time>
      </trkpt>
      <trkpt lat="37.321827" lon="-3.103945">
        <ele>1050.000000</ele>
        <time>2019-05-09T07:50:20Z</time>
      </trkpt>
      <trkpt lat="37.321826" lon="-3.103927">
        <ele>1050.000000</ele>
        <time>2019-05-09T07:50:21Z</time>
      </trkpt>
      <trkpt lat="37.321824" lon="-3.103910">
        <ele>1050.000000</ele>
        <time>2019-05-09T07:50:22Z</time>
      </trkpt>
      <trkpt lat="37.321823" lon="-3.103890">
        <ele>1050.000000</ele>
        <time>2019-05-09T07:50:23Z</time>
      </trkpt>
      <trkpt lat="37.321821" lon="-3.103868">
        <ele>1050.000000</ele>
        <time>2019-05-09T07:50:24Z</time>
      </trkpt>
      <trkpt lat="37.321818" lon="-3.103847">
        <ele>1050.000000</ele>
        <time>2019-05-09T07:50:25Z</time>
      </trkpt>
      <trkpt lat="37.321815" lon="-3.103823">
        <ele>1050.000000</ele>
        <time>2019-05-09T07:50:26Z</time>
      </trkpt>
      <trkpt lat="37.321811" lon="-3.103800">
        <ele>1050.000000</ele>
        <time>2019-05-09T07:50:27Z</time>
      </trkpt>
      <trkpt lat="37.321807" lon="-3.103775">
        <ele>1050.000000</ele>
        <time>2019-05-09T07:50:28Z</time>
      </trkpt>
      <trkpt lat="37.321804" lon="-3.103753">
        <ele>1050.000000</ele>
        <time>2019-05-09T07:50:29Z</time>
      </trkpt>
      <trkpt lat="37.321799" lon="-3.103733">
        <ele>1050.000000</ele>
        <time>2019-05-09T07:50:30Z</time>
      </trkpt>
      <trkpt lat="37.321795" lon="-3.103715">
        <ele>1050.000000</ele>
        <time>2019-05-09T07:50:31Z</time>
      </trkpt>
      <trkpt lat="37.321790" lon="-3.103698">
        <ele>1050.000000</ele>
        <time>2019-05-09T07:50:32Z</time>
      </trkpt>
      <trkpt lat="37.321785" lon="-3.103683">
        <ele>1050.000000</ele>
        <time>2019-05-09T07:50:33Z</time>
      </trkpt>
      <trkpt lat="37.321781" lon="-3.103667">
        <ele>1050.000000</ele>
        <time>2019-05-09T07:50:35Z</time>
      </trkpt>
      <trkpt lat="37.321777" lon="-3.103650">
        <ele>1050.000000</ele>
        <time>2019-05-09T07:50:35Z</time>
      </trkpt>
      <trkpt lat="37.321772" lon="-3.103627">
        <ele>1050.000000</ele>
        <time>2019-05-09T07:50:36Z</time>
      </trkpt>
      <trkpt lat="37.321769" lon="-3.103613">
        <ele>1050.000000</ele>
        <time>2019-05-09T07:50:37Z</time>
      </trkpt>
      <trkpt lat="37.321765" lon="-3.103595">
        <ele>1050.000000</ele>
        <time>2019-05-09T07:50:38Z</time>
      </trkpt>
      <trkpt lat="37.321759" lon="-3.103570">
        <ele>1051.000000</ele>
        <time>2019-05-09T07:50:39Z</time>
      </trkpt>
      <trkpt lat="37.321756" lon="-3.103553">
        <ele>1051.000000</ele>
        <time>2019-05-09T07:50:40Z</time>
      </trkpt>
      <trkpt lat="37.321752" lon="-3.103532">
        <ele>1051.000000</ele>
        <time>2019-05-09T07:50:41Z</time>
      </trkpt>
      <trkpt lat="37.321748" lon="-3.103508">
        <ele>1051.000000</ele>
        <time>2019-05-09T07:50:42Z</time>
      </trkpt>
      <trkpt lat="37.321744" lon="-3.103485">
        <ele>1051.000000</ele>
        <time>2019-05-09T07:50:43Z</time>
      </trkpt>
      <trkpt lat="37.321741" lon="-3.103467">
        <ele>1051.000000</ele>
        <time>2019-05-09T07:50:44Z</time>
      </trkpt>
      <trkpt lat="37.321737" lon="-3.103447">
        <ele>1051.000000</ele>
        <time>2019-05-09T07:50:45Z</time>
      </trkpt>
      <trkpt lat="37.321733" lon="-3.103423">
        <ele>1051.000000</ele>
        <time>2019-05-09T07:50:46Z</time>
      </trkpt>
      <trkpt lat="37.321729" lon="-3.103403">
        <ele>1051.000000</ele>
        <time>2019-05-09T07:50:47Z</time>
      </trkpt>
      <trkpt lat="37.321726" lon="-3.103383">
        <ele>1051.000000</ele>
        <time>2019-05-09T07:50:48Z</time>
      </trkpt>
      <trkpt lat="37.321723" lon="-3.103367">
        <ele>1051.000000</ele>
        <time>2019-05-09T07:50:49Z</time>
      </trkpt>
      <trkpt lat="37.321720" lon="-3.103352">
        <ele>1051.000000</ele>
        <time>2019-05-09T07:50:50Z</time>
      </trkpt>
      <trkpt lat="37.321718" lon="-3.103333">
        <ele>1052.000000</ele>
        <time>2019-05-09T07:50:51Z</time>
      </trkpt>
      <trkpt lat="37.321715" lon="-3.103315">
        <ele>1052.000000</ele>
        <time>2019-05-09T07:50:52Z</time>
      </trkpt>
      <trkpt lat="37.321713" lon="-3.103300">
        <ele>1052.000000</ele>
        <time>2019-05-09T07:50:53Z</time>
      </trkpt>
      <trkpt lat="37.321709" lon="-3.103280">
        <ele>1052.000000</ele>
        <time>2019-05-09T07:50:54Z</time>
      </trkpt>
      <trkpt lat="37.321706" lon="-3.103262">
        <ele>1052.000000</ele>
        <time>2019-05-09T07:50:55Z</time>
      </trkpt>
      <trkpt lat="37.321704" lon="-3.103238">
        <ele>1052.000000</ele>
        <time>2019-05-09T07:50:56Z</time>
      </trkpt>
      <trkpt lat="37.321700" lon="-3.103215">
        <ele>1053.000000</ele>
        <time>2019-05-09T07:50:57Z</time>
      </trkpt>
      <trkpt lat="37.321698" lon="-3.103190">
        <ele>1053.000000</ele>
        <time>2019-05-09T07:50:58Z</time>
      </trkpt>
      <trkpt lat="37.321695" lon="-3.103165">
        <ele>1053.000000</ele>
        <time>2019-05-09T07:50:59Z</time>
      </trkpt>
      <trkpt lat="37.321692" lon="-3.103143">
        <ele>1053.000000</ele>
        <time>2019-05-09T07:51:00Z</time>
      </trkpt>
      <trkpt lat="37.321690" lon="-3.103120">
        <ele>1053.000000</ele>
        <time>2019-05-09T07:51:01Z</time>
      </trkpt>
      <trkpt lat="37.321689" lon="-3.103095">
        <ele>1053.000000</ele>
        <time>2019-05-09T07:51:02Z</time>
      </trkpt>
      <trkpt lat="37.321688" lon="-3.103073">
        <ele>1053.000000</ele>
        <time>2019-05-09T07:51:03Z</time>
      </trkpt>
      <trkpt lat="37.321688" lon="-3.103055">
        <ele>1053.000000</ele>
        <time>2019-05-09T07:51:04Z</time>
      </trkpt>
      <trkpt lat="37.321687" lon="-3.103035">
        <ele>1053.000000</ele>
        <time>2019-05-09T07:51:05Z</time>
      </trkpt>
      <trkpt lat="37.321687" lon="-3.103017">
        <ele>1053.000000</ele>
        <time>2019-05-09T07:51:06Z</time>
      </trkpt>
      <trkpt lat="37.321687" lon="-3.102998">
        <ele>1053.000000</ele>
        <time>2019-05-09T07:51:07Z</time>
      </trkpt>
      <trkpt lat="37.321687" lon="-3.102978">
        <ele>1053.000000</ele>
        <time>2019-05-09T07:51:08Z</time>
      </trkpt>
      <trkpt lat="37.321686" lon="-3.102960">
        <ele>1053.000000</ele>
        <time>2019-05-09T07:51:09Z</time>
      </trkpt>
      <trkpt lat="37.321686" lon="-3.102938">
        <ele>1053.000000</ele>
        <time>2019-05-09T07:51:10Z</time>
      </trkpt>
      <trkpt lat="37.321687" lon="-3.102913">
        <ele>1054.000000</ele>
        <time>2019-05-09T07:51:11Z</time>
      </trkpt>
      <trkpt lat="37.321689" lon="-3.102890">
        <ele>1054.000000</ele>
        <time>2019-05-09T07:51:12Z</time>
      </trkpt>
      <trkpt lat="37.321691" lon="-3.102867">
        <ele>1054.000000</ele>
        <time>2019-05-09T07:51:13Z</time>
      </trkpt>
      <trkpt lat="37.321693" lon="-3.102843">
        <ele>1054.000000</ele>
        <time>2019-05-09T07:51:14Z</time>
      </trkpt>
      <trkpt lat="37.321695" lon="-3.102827">
        <ele>1054.000000</ele>
        <time>2019-05-09T07:51:15Z</time>
      </trkpt>
      <trkpt lat="37.321700" lon="-3.102807">
        <ele>1054.000000</ele>
        <time>2019-05-09T07:51:16Z</time>
      </trkpt>
      <trkpt lat="37.321703" lon="-3.102788">
        <ele>1054.000000</ele>
        <time>2019-05-09T07:51:17Z</time>
      </trkpt>
      <trkpt lat="37.321708" lon="-3.102770">
        <ele>1054.000000</ele>
        <time>2019-05-09T07:51:18Z</time>
      </trkpt>
      <trkpt lat="37.321711" lon="-3.102750">
        <ele>1054.000000</ele>
        <time>2019-05-09T07:51:19Z</time>
      </trkpt>
      <trkpt lat="37.321716" lon="-3.102730">
        <ele>1054.000000</ele>
        <time>2019-05-09T07:51:21Z</time>
      </trkpt>
      <trkpt lat="37.321720" lon="-3.102708">
        <ele>1054.000000</ele>
        <time>2019-05-09T07:51:21Z</time>
      </trkpt>
      <trkpt lat="37.321725" lon="-3.102688">
        <ele>1054.000000</ele>
        <time>2019-05-09T07:51:22Z</time>
      </trkpt>
      <trkpt lat="37.321729" lon="-3.102672">
        <ele>1054.000000</ele>
        <time>2019-05-09T07:51:23Z</time>
      </trkpt>
      <trkpt lat="37.321733" lon="-3.102652">
        <ele>1054.000000</ele>
        <time>2019-05-09T07:51:24Z</time>
      </trkpt>
      <trkpt lat="37.321737" lon="-3.102630">
        <ele>1054.000000</ele>
        <time>2019-05-09T07:51:25Z</time>
      </trkpt>
      <trkpt lat="37.321741" lon="-3.102608">
        <ele>1054.000000</ele>
        <time>2019-05-09T07:51:26Z</time>
      </trkpt>
      <trkpt lat="37.321747" lon="-3.102585">
        <ele>1054.000000</ele>
        <time>2019-05-09T07:51:27Z</time>
      </trkpt>
      <trkpt lat="37.321752" lon="-3.102558">
        <ele>1054.000000</ele>
        <time>2019-05-09T07:51:28Z</time>
      </trkpt>
      <trkpt lat="37.321757" lon="-3.102537">
        <ele>1054.000000</ele>
        <time>2019-05-09T07:51:29Z</time>
      </trkpt>
      <trkpt lat="37.321764" lon="-3.102513">
        <ele>1054.000000</ele>
        <time>2019-05-09T07:51:30Z</time>
      </trkpt>
      <trkpt lat="37.321769" lon="-3.102493">
        <ele>1054.000000</ele>
        <time>2019-05-09T07:51:31Z</time>
      </trkpt>
      <trkpt lat="37.321774" lon="-3.102472">
        <ele>1054.000000</ele>
        <time>2019-05-09T07:51:32Z</time>
      </trkpt>
      <trkpt lat="37.321780" lon="-3.102452">
        <ele>1054.000000</ele>
        <time>2019-05-09T07:51:33Z</time>
      </trkpt>
      <trkpt lat="37.321785" lon="-3.102430">
        <ele>1054.000000</ele>
        <time>2019-05-09T07:51:34Z</time>
      </trkpt>
      <trkpt lat="37.321790" lon="-3.102415">
        <ele>1054.000000</ele>
        <time>2019-05-09T07:51:35Z</time>
      </trkpt>
      <trkpt lat="37.321795" lon="-3.102397">
        <ele>1054.000000</ele>
        <time>2019-05-09T07:51:36Z</time>
      </trkpt>
      <trkpt lat="37.321800" lon="-3.102380">
        <ele>1054.000000</ele>
        <time>2019-05-09T07:51:37Z</time>
      </trkpt>
      <trkpt lat="37.321804" lon="-3.102362">
        <ele>1054.000000</ele>
        <time>2019-05-09T07:51:38Z</time>
      </trkpt>
      <trkpt lat="37.321808" lon="-3.102342">
        <ele>1055.000000</ele>
        <time>2019-05-09T07:51:39Z</time>
      </trkpt>
      <trkpt lat="37.321814" lon="-3.102320">
        <ele>1055.000000</ele>
        <time>2019-05-09T07:51:40Z</time>
      </trkpt>
      <trkpt lat="37.321818" lon="-3.102297">
        <ele>1055.000000</ele>
        <time>2019-05-09T07:51:41Z</time>
      </trkpt>
      <trkpt lat="37.321823" lon="-3.102273">
        <ele>1055.000000</ele>
        <time>2019-05-09T07:51:42Z</time>
      </trkpt>
      <trkpt lat="37.321828" lon="-3.102247">
        <ele>1055.000000</ele>
        <time>2019-05-09T07:51:43Z</time>
      </trkpt>
      <trkpt lat="37.321833" lon="-3.102222">
        <ele>1055.000000</ele>
        <time>2019-05-09T07:51:44Z</time>
      </trkpt>
      <trkpt lat="37.321838" lon="-3.102200">
        <ele>1055.000000</ele>
        <time>2019-05-09T07:51:46Z</time>
      </trkpt>
      <trkpt lat="37.321842" lon="-3.102178">
        <ele>1055.000000</ele>
        <time>2019-05-09T07:51:46Z</time>
      </trkpt>
      <trkpt lat="37.321845" lon="-3.102160">
        <ele>1055.000000</ele>
        <time>2019-05-09T07:51:47Z</time>
      </trkpt>
      <trkpt lat="37.321849" lon="-3.102140">
        <ele>1055.000000</ele>
        <time>2019-05-09T07:51:48Z</time>
      </trkpt>
      <trkpt lat="37.321852" lon="-3.102120">
        <ele>1055.000000</ele>
        <time>2019-05-09T07:51:49Z</time>
      </trkpt>
      <trkpt lat="37.321854" lon="-3.102103">
        <ele>1055.000000</ele>
        <time>2019-05-09T07:51:50Z</time>
      </trkpt>
      <trkpt lat="37.321858" lon="-3.102090">
        <ele>1055.000000</ele>
        <time>2019-05-09T07:51:51Z</time>
      </trkpt>
      <trkpt lat="37.321861" lon="-3.102068">
        <ele>1055.000000</ele>
        <time>2019-05-09T07:51:52Z</time>
      </trkpt>
      <trkpt lat="37.321864" lon="-3.102045">
        <ele>1055.000000</ele>
        <time>2019-05-09T07:51:53Z</time>
      </trkpt>
      <trkpt lat="37.321868" lon="-3.102020">
        <ele>1055.000000</ele>
        <time>2019-05-09T07:51:54Z</time>
      </trkpt>
      <trkpt lat="37.321871" lon="-3.101997">
        <ele>1055.000000</ele>
        <time>2019-05-09T07:51:55Z</time>
      </trkpt>
      <trkpt lat="37.321873" lon="-3.101972">
        <ele>1055.000000</ele>
        <time>2019-05-09T07:51:56Z</time>
      </trkpt>
      <trkpt lat="37.321876" lon="-3.101950">
        <ele>1055.000000</ele>
        <time>2019-05-09T07:51:57Z</time>
      </trkpt>
      <trkpt lat="37.321880" lon="-3.101928">
        <ele>1055.000000</ele>
        <time>2019-05-09T07:51:58Z</time>
      </trkpt>
      <trkpt lat="37.321881" lon="-3.101907">
        <ele>1055.000000</ele>
        <time>2019-05-09T07:51:59Z</time>
      </trkpt>
      <trkpt lat="37.321882" lon="-3.101885">
        <ele>1055.000000</ele>
        <time>2019-05-09T07:52:00Z</time>
      </trkpt>
      <trkpt lat="37.321885" lon="-3.101865">
        <ele>1055.000000</ele>
        <time>2019-05-09T07:52:01Z</time>
      </trkpt>
      <trkpt lat="37.321885" lon="-3.101847">
        <ele>1055.000000</ele>
        <time>2019-05-09T07:52:02Z</time>
      </trkpt>
      <trkpt lat="37.321886" lon="-3.101828">
        <ele>1055.000000</ele>
        <time>2019-05-09T07:52:03Z</time>
      </trkpt>
      <trkpt lat="37.321886" lon="-3.101810">
        <ele>1055.000000</ele>
        <time>2019-05-09T07:52:04Z</time>
      </trkpt>
      <trkpt lat="37.321887" lon="-3.101793">
        <ele>1055.000000</ele>
        <time>2019-05-09T07:52:06Z</time>
      </trkpt>
      <trkpt lat="37.321887" lon="-3.101777">
        <ele>1055.000000</ele>
        <time>2019-05-09T07:52:06Z</time>
      </trkpt>
      <trkpt lat="37.321889" lon="-3.101760">
        <ele>1055.000000</ele>
        <time>2019-05-09T07:52:07Z</time>
      </trkpt>
      <trkpt lat="37.321889" lon="-3.101743">
        <ele>1055.000000</ele>
        <time>2019-05-09T07:52:08Z</time>
      </trkpt>
      <trkpt lat="37.321889" lon="-3.101727">
        <ele>1055.000000</ele>
        <time>2019-05-09T07:52:09Z</time>
      </trkpt>
      <trkpt lat="37.321889" lon="-3.101707">
        <ele>1055.000000</ele>
        <time>2019-05-09T07:52:10Z</time>
      </trkpt>
      <trkpt lat="37.321889" lon="-3.101687">
        <ele>1055.000000</ele>
        <time>2019-05-09T07:52:11Z</time>
      </trkpt>
      <trkpt lat="37.321890" lon="-3.101667">
        <ele>1055.000000</ele>
        <time>2019-05-09T07:52:12Z</time>
      </trkpt>
      <trkpt lat="37.321890" lon="-3.101648">
        <ele>1055.000000</ele>
        <time>2019-05-09T07:52:13Z</time>
      </trkpt>
      <trkpt lat="37.321891" lon="-3.101628">
        <ele>1055.000000</ele>
        <time>2019-05-09T07:52:14Z</time>
      </trkpt>
      <trkpt lat="37.321892" lon="-3.101608">
        <ele>1055.000000</ele>
        <time>2019-05-09T07:52:15Z</time>
      </trkpt>
      <trkpt lat="37.321892" lon="-3.101587">
        <ele>1055.000000</ele>
        <time>2019-05-09T07:52:16Z</time>
      </trkpt>
      <trkpt lat="37.321892" lon="-3.101563">
        <ele>1055.000000</ele>
        <time>2019-05-09T07:52:17Z</time>
      </trkpt>
      <trkpt lat="37.321892" lon="-3.101540">
        <ele>1055.000000</ele>
        <time>2019-05-09T07:52:18Z</time>
      </trkpt>
      <trkpt lat="37.321892" lon="-3.101520">
        <ele>1055.000000</ele>
        <time>2019-05-09T07:52:19Z</time>
      </trkpt>
      <trkpt lat="37.321892" lon="-3.101500">
        <ele>1055.000000</ele>
        <time>2019-05-09T07:52:20Z</time>
      </trkpt>
      <trkpt lat="37.321894" lon="-3.101480">
        <ele>1055.000000</ele>
        <time>2019-05-09T07:52:21Z</time>
      </trkpt>
      <trkpt lat="37.321893" lon="-3.101460">
        <ele>1055.000000</ele>
        <time>2019-05-09T07:52:22Z</time>
      </trkpt>
      <trkpt lat="37.321892" lon="-3.101443">
        <ele>1055.000000</ele>
        <time>2019-05-09T07:52:23Z</time>
      </trkpt>
      <trkpt lat="37.321891" lon="-3.101425">
        <ele>1055.000000</ele>
        <time>2019-05-09T07:52:24Z</time>
      </trkpt>
      <trkpt lat="37.321891" lon="-3.101407">
        <ele>1055.000000</ele>
        <time>2019-05-09T07:52:25Z</time>
      </trkpt>
      <trkpt lat="37.321890" lon="-3.101393">
        <ele>1055.000000</ele>
        <time>2019-05-09T07:52:26Z</time>
      </trkpt>
      <trkpt lat="37.321888" lon="-3.101380">
        <ele>1055.000000</ele>
        <time>2019-05-09T07:52:27Z</time>
      </trkpt>
      <trkpt lat="37.321888" lon="-3.101365">
        <ele>1055.000000</ele>
        <time>2019-05-09T07:52:28Z</time>
      </trkpt>
      <trkpt lat="37.321887" lon="-3.101348">
        <ele>1055.000000</ele>
        <time>2019-05-09T07:52:29Z</time>
      </trkpt>
      <trkpt lat="37.321886" lon="-3.101330">
        <ele>1055.000000</ele>
        <time>2019-05-09T07:52:31Z</time>
      </trkpt>
      <trkpt lat="37.321887" lon="-3.101312">
        <ele>1055.000000</ele>
        <time>2019-05-09T07:52:31Z</time>
      </trkpt>
      <trkpt lat="37.321887" lon="-3.101293">
        <ele>1055.000000</ele>
        <time>2019-05-09T07:52:32Z</time>
      </trkpt>
      <trkpt lat="37.321888" lon="-3.101273">
        <ele>1055.000000</ele>
        <time>2019-05-09T07:52:33Z</time>
      </trkpt>
      <trkpt lat="37.321889" lon="-3.101253">
        <ele>1055.000000</ele>
        <time>2019-05-09T07:52:34Z</time>
      </trkpt>
      <trkpt lat="37.321891" lon="-3.101232">
        <ele>1055.000000</ele>
        <time>2019-05-09T07:52:35Z</time>
      </trkpt>
      <trkpt lat="37.321892" lon="-3.101217">
        <ele>1055.000000</ele>
        <time>2019-05-09T07:52:36Z</time>
      </trkpt>
      <trkpt lat="37.321894" lon="-3.101200">
        <ele>1056.000000</ele>
        <time>2019-05-09T07:52:37Z</time>
      </trkpt>
      <trkpt lat="37.321897" lon="-3.101180">
        <ele>1056.000000</ele>
        <time>2019-05-09T07:52:38Z</time>
      </trkpt>
      <trkpt lat="37.321901" lon="-3.101158">
        <ele>1056.000000</ele>
        <time>2019-05-09T07:52:39Z</time>
      </trkpt>
      <trkpt lat="37.321904" lon="-3.101137">
        <ele>1056.000000</ele>
        <time>2019-05-09T07:52:39Z</time>
      </trkpt>
      <trkpt lat="37.321908" lon="-3.101110">
        <ele>1056.000000</ele>
        <time>2019-05-09T07:52:40Z</time>
      </trkpt>
      <trkpt lat="37.321914" lon="-3.101087">
        <ele>1056.000000</ele>
        <time>2019-05-09T07:52:41Z</time>
      </trkpt>
      <trkpt lat="37.321918" lon="-3.101068">
        <ele>1056.000000</ele>
        <time>2019-05-09T07:52:42Z</time>
      </trkpt>
      <trkpt lat="37.321923" lon="-3.101050">
        <ele>1056.000000</ele>
        <time>2019-05-09T07:52:43Z</time>
      </trkpt>
      <trkpt lat="37.321927" lon="-3.101028">
        <ele>1056.000000</ele>
        <time>2019-05-09T07:52:44Z</time>
      </trkpt>
      <trkpt lat="37.321933" lon="-3.101010">
        <ele>1056.000000</ele>
        <time>2019-05-09T07:52:45Z</time>
      </trkpt>
      <trkpt lat="37.321939" lon="-3.100993">
        <ele>1056.000000</ele>
        <time>2019-05-09T07:52:46Z</time>
      </trkpt>
      <trkpt lat="37.321944" lon="-3.100978">
        <ele>1056.000000</ele>
        <time>2019-05-09T07:52:47Z</time>
      </trkpt>
      <trkpt lat="37.321950" lon="-3.100963">
        <ele>1057.000000</ele>
        <time>2019-05-09T07:52:48Z</time>
      </trkpt>
      <trkpt lat="37.321956" lon="-3.100947">
        <ele>1057.000000</ele>
        <time>2019-05-09T07:52:49Z</time>
      </trkpt>
      <trkpt lat="37.321961" lon="-3.100935">
        <ele>1057.000000</ele>
        <time>2019-05-09T07:52:50Z</time>
      </trkpt>
      <trkpt lat="37.321969" lon="-3.100917">
        <ele>1057.000000</ele>
        <time>2019-05-09T07:52:51Z</time>
      </trkpt>
      <trkpt lat="37.321976" lon="-3.100893">
        <ele>1058.000000</ele>
        <time>2019-05-09T07:52:52Z</time>
      </trkpt>
      <trkpt lat="37.321982" lon="-3.100875">
        <ele>1058.000000</ele>
        <time>2019-05-09T07:52:54Z</time>
      </trkpt>
      <trkpt lat="37.321988" lon="-3.100858">
        <ele>1058.000000</ele>
        <time>2019-05-09T07:52:54Z</time>
      </trkpt>
      <trkpt lat="37.321997" lon="-3.100838">
        <ele>1058.000000</ele>
        <time>2019-05-09T07:52:55Z</time>
      </trkpt>
      <trkpt lat="37.322004" lon="-3.100817">
        <ele>1058.000000</ele>
        <time>2019-05-09T07:52:56Z</time>
      </trkpt>
      <trkpt lat="37.322011" lon="-3.100800">
        <ele>1058.000000</ele>
        <time>2019-05-09T07:52:57Z</time>
      </trkpt>
      <trkpt lat="37.322021" lon="-3.100780">
        <ele>1058.000000</ele>
        <time>2019-05-09T07:52:58Z</time>
      </trkpt>
      <trkpt lat="37.322028" lon="-3.100760">
        <ele>1058.000000</ele>
        <time>2019-05-09T07:52:59Z</time>
      </trkpt>
      <trkpt lat="37.322038" lon="-3.100740">
        <ele>1058.000000</ele>
        <time>2019-05-09T07:53:00Z</time>
      </trkpt>
      <trkpt lat="37.322045" lon="-3.100722">
        <ele>1058.000000</ele>
        <time>2019-05-09T07:53:01Z</time>
      </trkpt>
      <trkpt lat="37.322055" lon="-3.100700">
        <ele>1058.000000</ele>
        <time>2019-05-09T07:53:02Z</time>
      </trkpt>
      <trkpt lat="37.322065" lon="-3.100680">
        <ele>1058.000000</ele>
        <time>2019-05-09T07:53:03Z</time>
      </trkpt>
      <trkpt lat="37.322072" lon="-3.100665">
        <ele>1058.000000</ele>
        <time>2019-05-09T07:53:04Z</time>
      </trkpt>
      <trkpt lat="37.322082" lon="-3.100647">
        <ele>1058.000000</ele>
        <time>2019-05-09T07:53:05Z</time>
      </trkpt>
      <trkpt lat="37.322090" lon="-3.100630">
        <ele>1058.000000</ele>
        <time>2019-05-09T07:53:06Z</time>
      </trkpt>
      <trkpt lat="37.322098" lon="-3.100613">
        <ele>1058.000000</ele>
        <time>2019-05-09T07:53:07Z</time>
      </trkpt>
      <trkpt lat="37.322105" lon="-3.100597">
        <ele>1058.000000</ele>
        <time>2019-05-09T07:53:08Z</time>
      </trkpt>
      <trkpt lat="37.322113" lon="-3.100582">
        <ele>1058.000000</ele>
        <time>2019-05-09T07:53:09Z</time>
      </trkpt>
      <trkpt lat="37.322120" lon="-3.100567">
        <ele>1059.000000</ele>
        <time>2019-05-09T07:53:10Z</time>
      </trkpt>
      <trkpt lat="37.322126" lon="-3.100553">
        <ele>1059.000000</ele>
        <time>2019-05-09T07:53:11Z</time>
      </trkpt>
      <trkpt lat="37.322133" lon="-3.100537">
        <ele>1059.000000</ele>
        <time>2019-05-09T07:53:12Z</time>
      </trkpt>
      <trkpt lat="37.322141" lon="-3.100520">
        <ele>1059.000000</ele>
        <time>2019-05-09T07:53:14Z</time>
      </trkpt>
      <trkpt lat="37.322147" lon="-3.100500">
        <ele>1059.000000</ele>
        <time>2019-05-09T07:53:15Z</time>
      </trkpt>
      <trkpt lat="37.322154" lon="-3.100482">
        <ele>1059.000000</ele>
        <time>2019-05-09T07:53:15Z</time>
      </trkpt>
      <trkpt lat="37.322161" lon="-3.100460">
        <ele>1059.000000</ele>
        <time>2019-05-09T07:53:16Z</time>
      </trkpt>
      <trkpt lat="37.322170" lon="-3.100437">
        <ele>1059.000000</ele>
        <time>2019-05-09T07:53:17Z</time>
      </trkpt>
      <trkpt lat="37.322178" lon="-3.100413">
        <ele>1059.000000</ele>
        <time>2019-05-09T07:53:18Z</time>
      </trkpt>
      <trkpt lat="37.322184" lon="-3.100392">
        <ele>1059.000000</ele>
        <time>2019-05-09T07:53:19Z</time>
      </trkpt>
      <trkpt lat="37.322190" lon="-3.100367">
        <ele>1059.000000</ele>
        <time>2019-05-09T07:53:20Z</time>
      </trkpt>
      <trkpt lat="37.322194" lon="-3.100353">
        <ele>1059.000000</ele>
        <time>2019-05-09T07:53:21Z</time>
      </trkpt>
      <trkpt lat="37.322198" lon="-3.100333">
        <ele>1059.000000</ele>
        <time>2019-05-09T07:53:22Z</time>
      </trkpt>
      <trkpt lat="37.322202" lon="-3.100315">
        <ele>1059.000000</ele>
        <time>2019-05-09T07:53:23Z</time>
      </trkpt>
      <trkpt lat="37.322207" lon="-3.100292">
        <ele>1059.000000</ele>
        <time>2019-05-09T07:53:24Z</time>
      </trkpt>
      <trkpt lat="37.322211" lon="-3.100270">
        <ele>1059.000000</ele>
        <time>2019-05-09T07:53:25Z</time>
      </trkpt>
      <trkpt lat="37.322215" lon="-3.100250">
        <ele>1059.000000</ele>
        <time>2019-05-09T07:53:26Z</time>
      </trkpt>
      <trkpt lat="37.322216" lon="-3.100233">
        <ele>1059.000000</ele>
        <time>2019-05-09T07:53:27Z</time>
      </trkpt>
      <trkpt lat="37.322219" lon="-3.100217">
        <ele>1059.000000</ele>
        <time>2019-05-09T07:53:28Z</time>
      </trkpt>
      <trkpt lat="37.322222" lon="-3.100200">
        <ele>1059.000000</ele>
        <time>2019-05-09T07:53:29Z</time>
      </trkpt>
      <trkpt lat="37.322224" lon="-3.100183">
        <ele>1059.000000</ele>
        <time>2019-05-09T07:53:30Z</time>
      </trkpt>
      <trkpt lat="37.322228" lon="-3.100165">
        <ele>1059.000000</ele>
        <time>2019-05-09T07:53:31Z</time>
      </trkpt>
      <trkpt lat="37.322229" lon="-3.100147">
        <ele>1059.000000</ele>
        <time>2019-05-09T07:53:32Z</time>
      </trkpt>
      <trkpt lat="37.322232" lon="-3.100128">
        <ele>1059.000000</ele>
        <time>2019-05-09T07:53:33Z</time>
      </trkpt>
      <trkpt lat="37.322238" lon="-3.100103">
        <ele>1059.000000</ele>
        <time>2019-05-09T07:53:34Z</time>
      </trkpt>
      <trkpt lat="37.322242" lon="-3.100083">
        <ele>1059.000000</ele>
        <time>2019-05-09T07:53:35Z</time>
      </trkpt>
      <trkpt lat="37.322246" lon="-3.100058">
        <ele>1059.000000</ele>
        <time>2019-05-09T07:53:36Z</time>
      </trkpt>
      <trkpt lat="37.322253" lon="-3.100035">
        <ele>1059.000000</ele>
        <time>2019-05-09T07:53:37Z</time>
      </trkpt>
      <trkpt lat="37.322257" lon="-3.100015">
        <ele>1058.000000</ele>
        <time>2019-05-09T07:53:38Z</time>
      </trkpt>
      <trkpt lat="37.322263" lon="-3.099993">
        <ele>1058.000000</ele>
        <time>2019-05-09T07:53:40Z</time>
      </trkpt>
      <trkpt lat="37.322267" lon="-3.099973">
        <ele>1058.000000</ele>
        <time>2019-05-09T07:53:40Z</time>
      </trkpt>
      <trkpt lat="37.322273" lon="-3.099953">
        <ele>1057.000000</ele>
        <time>2019-05-09T07:53:41Z</time>
      </trkpt>
      <trkpt lat="37.322277" lon="-3.099942">
        <ele>1057.000000</ele>
        <time>2019-05-09T07:53:42Z</time>
      </trkpt>
      <trkpt lat="37.322283" lon="-3.099928">
        <ele>1057.000000</ele>
        <time>2019-05-09T07:53:43Z</time>
      </trkpt>
      <trkpt lat="37.322288" lon="-3.099913">
        <ele>1057.000000</ele>
        <time>2019-05-09T07:53:44Z</time>
      </trkpt>
      <trkpt lat="37.322296" lon="-3.099895">
        <ele>1057.000000</ele>
        <time>2019-05-09T07:53:45Z</time>
      </trkpt>
      <trkpt lat="37.322303" lon="-3.099880">
        <ele>1057.000000</ele>
        <time>2019-05-09T07:53:46Z</time>
      </trkpt>
      <trkpt lat="37.322312" lon="-3.099867">
        <ele>1057.000000</ele>
        <time>2019-05-09T07:53:47Z</time>
      </trkpt>
      <trkpt lat="37.322385" lon="-3.099855">
        <ele>1057.000000</ele>
        <time>2019-05-09T07:53:48Z</time>
      </trkpt>
      <trkpt lat="37.322402" lon="-3.099845">
        <ele>1057.000000</ele>
        <time>2019-05-09T07:53:49Z</time>
      </trkpt>
      <trkpt lat="37.322418" lon="-3.099840">
        <ele>1058.000000</ele>
        <time>2019-05-09T07:53:50Z</time>
      </trkpt>
      <trkpt lat="37.322432" lon="-3.099835">
        <ele>1058.000000</ele>
        <time>2019-05-09T07:53:51Z</time>
      </trkpt>
      <trkpt lat="37.322450" lon="-3.099827">
        <ele>1058.000000</ele>
        <time>2019-05-09T07:53:52Z</time>
      </trkpt>
      <trkpt lat="37.322460" lon="-3.099827">
        <ele>1058.000000</ele>
        <time>2019-05-09T07:53:53Z</time>
      </trkpt>
      <trkpt lat="37.322473" lon="-3.099827">
        <ele>1059.000000</ele>
        <time>2019-05-09T07:53:54Z</time>
      </trkpt>
      <trkpt lat="37.322488" lon="-3.099827">
        <ele>1059.000000</ele>
        <time>2019-05-09T07:53:55Z</time>
      </trkpt>
      <trkpt lat="37.322503" lon="-3.099823">
        <ele>1059.000000</ele>
        <time>2019-05-09T07:53:56Z</time>
      </trkpt>
      <trkpt lat="37.322520" lon="-3.099824">
        <ele>1059.000000</ele>
        <time>2019-05-09T07:53:57Z</time>
      </trkpt>
      <trkpt lat="37.322540" lon="-3.099825">
        <ele>1059.000000</ele>
        <time>2019-05-09T07:53:58Z</time>
      </trkpt>
      <trkpt lat="37.322560" lon="-3.099828">
        <ele>1059.000000</ele>
        <time>2019-05-09T07:54:00Z</time>
      </trkpt>
      <trkpt lat="37.322580" lon="-3.099829">
        <ele>1059.000000</ele>
        <time>2019-05-09T07:54:00Z</time>
      </trkpt>
      <trkpt lat="37.322598" lon="-3.099830">
        <ele>1059.000000</ele>
        <time>2019-05-09T07:54:01Z</time>
      </trkpt>
      <trkpt lat="37.322615" lon="-3.099830">
        <ele>1059.000000</ele>
        <time>2019-05-09T07:54:02Z</time>
      </trkpt>
      <trkpt lat="37.322632" lon="-3.099831">
        <ele>1058.000000</ele>
        <time>2019-05-09T07:54:03Z</time>
      </trkpt>
      <trkpt lat="37.322645" lon="-3.099830">
        <ele>1058.000000</ele>
        <time>2019-05-09T07:54:04Z</time>
      </trkpt>
      <trkpt lat="37.322660" lon="-3.099830">
        <ele>1058.000000</ele>
        <time>2019-05-09T07:54:05Z</time>
      </trkpt>
      <trkpt lat="37.322675" lon="-3.099830">
        <ele>1058.000000</ele>
        <time>2019-05-09T07:54:06Z</time>
      </trkpt>
      <trkpt lat="37.322692" lon="-3.099831">
        <ele>1058.000000</ele>
        <time>2019-05-09T07:54:07Z</time>
      </trkpt>
      <trkpt lat="37.322710" lon="-3.099832">
        <ele>1058.000000</ele>
        <time>2019-05-09T07:54:08Z</time>
      </trkpt>
      <trkpt lat="37.322732" lon="-3.099835">
        <ele>1058.000000</ele>
        <time>2019-05-09T07:54:09Z</time>
      </trkpt>
      <trkpt lat="37.322748" lon="-3.099837">
        <ele>1058.000000</ele>
        <time>2019-05-09T07:54:10Z</time>
      </trkpt>
      <trkpt lat="37.322765" lon="-3.099839">
        <ele>1058.000000</ele>
        <time>2019-05-09T07:54:11Z</time>
      </trkpt>
      <trkpt lat="37.322778" lon="-3.099841">
        <ele>1059.000000</ele>
        <time>2019-05-09T07:54:12Z</time>
      </trkpt>
      <trkpt lat="37.322792" lon="-3.099842">
        <ele>1059.000000</ele>
        <time>2019-05-09T07:54:13Z</time>
      </trkpt>
      <trkpt lat="37.322805" lon="-3.099844">
        <ele>1059.000000</ele>
        <time>2019-05-09T07:54:14Z</time>
      </trkpt>
      <trkpt lat="37.322818" lon="-3.099844">
        <ele>1059.000000</ele>
        <time>2019-05-09T07:54:15Z</time>
      </trkpt>
      <trkpt lat="37.322833" lon="-3.099844">
        <ele>1059.000000</ele>
        <time>2019-05-09T07:54:16Z</time>
      </trkpt>
      <trkpt lat="37.322850" lon="-3.099845">
        <ele>1059.000000</ele>
        <time>2019-05-09T07:54:17Z</time>
      </trkpt>
      <trkpt lat="37.322863" lon="-3.099846">
        <ele>1060.000000</ele>
        <time>2019-05-09T07:54:18Z</time>
      </trkpt>
      <trkpt lat="37.322880" lon="-3.099847">
        <ele>1060.000000</ele>
        <time>2019-05-09T07:54:19Z</time>
      </trkpt>
      <trkpt lat="37.322895" lon="-3.099849">
        <ele>1060.000000</ele>
        <time>2019-05-09T07:54:20Z</time>
      </trkpt>
      <trkpt lat="37.322912" lon="-3.099852">
        <ele>1060.000000</ele>
        <time>2019-05-09T07:54:21Z</time>
      </trkpt>
      <trkpt lat="37.322930" lon="-3.099855">
        <ele>1060.000000</ele>
        <time>2019-05-09T07:54:22Z</time>
      </trkpt>
      <trkpt lat="37.322948" lon="-3.099859">
        <ele>1060.000000</ele>
        <time>2019-05-09T07:54:23Z</time>
      </trkpt>
      <trkpt lat="37.322960" lon="-3.099862">
        <ele>1060.000000</ele>
        <time>2019-05-09T07:54:25Z</time>
      </trkpt>
      <trkpt lat="37.322975" lon="-3.099866">
        <ele>1060.000000</ele>
        <time>2019-05-09T07:54:25Z</time>
      </trkpt>
      <trkpt lat="37.322990" lon="-3.099870">
        <ele>1060.000000</ele>
        <time>2019-05-09T07:54:26Z</time>
      </trkpt>
      <trkpt lat="37.323005" lon="-3.099875">
        <ele>1060.000000</ele>
        <time>2019-05-09T07:54:27Z</time>
      </trkpt>
      <trkpt lat="37.323020" lon="-3.099879">
        <ele>1060.000000</ele>
        <time>2019-05-09T07:54:28Z</time>
      </trkpt>
      <trkpt lat="37.323037" lon="-3.099884">
        <ele>1060.000000</ele>
        <time>2019-05-09T07:54:29Z</time>
      </trkpt>
      <trkpt lat="37.323050" lon="-3.099889">
        <ele>1060.000000</ele>
        <time>2019-05-09T07:54:30Z</time>
      </trkpt>
      <trkpt lat="37.323063" lon="-3.099895">
        <ele>1060.000000</ele>
        <time>2019-05-09T07:54:31Z</time>
      </trkpt>
      <trkpt lat="37.323078" lon="-3.099901">
        <ele>1060.000000</ele>
        <time>2019-05-09T07:54:32Z</time>
      </trkpt>
      <trkpt lat="37.323090" lon="-3.099907">
        <ele>1060.000000</ele>
        <time>2019-05-09T07:54:33Z</time>
      </trkpt>
      <trkpt lat="37.323102" lon="-3.099912">
        <ele>1060.000000</ele>
        <time>2019-05-09T07:54:34Z</time>
      </trkpt>
      <trkpt lat="37.323113" lon="-3.099918">
        <ele>1060.000000</ele>
        <time>2019-05-09T07:54:35Z</time>
      </trkpt>
      <trkpt lat="37.323127" lon="-3.099924">
        <ele>1060.000000</ele>
        <time>2019-05-09T07:54:36Z</time>
      </trkpt>
      <trkpt lat="37.323140" lon="-3.099930">
        <ele>1059.000000</ele>
        <time>2019-05-09T07:54:37Z</time>
      </trkpt>
      <trkpt lat="37.323153" lon="-3.099937">
        <ele>1059.000000</ele>
        <time>2019-05-09T07:54:38Z</time>
      </trkpt>
      <trkpt lat="37.323168" lon="-3.099943">
        <ele>1059.000000</ele>
        <time>2019-05-09T07:54:39Z</time>
      </trkpt>
      <trkpt lat="37.323183" lon="-3.099950">
        <ele>1059.000000</ele>
        <time>2019-05-09T07:54:40Z</time>
      </trkpt>
      <trkpt lat="37.323200" lon="-3.099957">
        <ele>1059.000000</ele>
        <time>2019-05-09T07:54:41Z</time>
      </trkpt>
      <trkpt lat="37.323218" lon="-3.099965">
        <ele>1059.000000</ele>
        <time>2019-05-09T07:54:42Z</time>
      </trkpt>
      <trkpt lat="37.323238" lon="-3.099972">
        <ele>1059.000000</ele>
        <time>2019-05-09T07:54:43Z</time>
      </trkpt>
      <trkpt lat="37.323257" lon="-3.099978">
        <ele>1059.000000</ele>
        <time>2019-05-09T07:54:44Z</time>
      </trkpt>
      <trkpt lat="37.323278" lon="-3.099988">
        <ele>1059.000000</ele>
        <time>2019-05-09T07:54:45Z</time>
      </trkpt>
      <trkpt lat="37.323292" lon="-3.099996">
        <ele>1059.000000</ele>
        <time>2019-05-09T07:54:46Z</time>
      </trkpt>
      <trkpt lat="37.323310" lon="-3.100005">
        <ele>1059.000000</ele>
        <time>2019-05-09T07:54:47Z</time>
      </trkpt>
      <trkpt lat="37.323327" lon="-3.100012">
        <ele>1059.000000</ele>
        <time>2019-05-09T07:54:49Z</time>
      </trkpt>
      <trkpt lat="37.323345" lon="-3.100020">
        <ele>1059.000000</ele>
        <time>2019-05-09T07:54:49Z</time>
      </trkpt>
      <trkpt lat="37.323362" lon="-3.100027">
        <ele>1059.000000</ele>
        <time>2019-05-09T07:54:50Z</time>
      </trkpt>
      <trkpt lat="37.323377" lon="-3.100034">
        <ele>1059.000000</ele>
        <time>2019-05-09T07:54:51Z</time>
      </trkpt>
      <trkpt lat="37.323392" lon="-3.100041">
        <ele>1058.000000</ele>
        <time>2019-05-09T07:54:52Z</time>
      </trkpt>
      <trkpt lat="37.323407" lon="-3.100047">
        <ele>1058.000000</ele>
        <time>2019-05-09T07:54:53Z</time>
      </trkpt>
      <trkpt lat="37.323420" lon="-3.100052">
        <ele>1058.000000</ele>
        <time>2019-05-09T07:54:54Z</time>
      </trkpt>
      <trkpt lat="37.323435" lon="-3.100058">
        <ele>1058.000000</ele>
        <time>2019-05-09T07:54:55Z</time>
      </trkpt>
      <trkpt lat="37.323455" lon="-3.100065">
        <ele>1058.000000</ele>
        <time>2019-05-09T07:54:56Z</time>
      </trkpt>
      <trkpt lat="37.323473" lon="-3.100070">
        <ele>1058.000000</ele>
        <time>2019-05-09T07:54:57Z</time>
      </trkpt>
      <trkpt lat="37.323487" lon="-3.100074">
        <ele>1057.000000</ele>
        <time>2019-05-09T07:54:58Z</time>
      </trkpt>
      <trkpt lat="37.323508" lon="-3.100081">
        <ele>1057.000000</ele>
        <time>2019-05-09T07:54:59Z</time>
      </trkpt>
      <trkpt lat="37.323530" lon="-3.100087">
        <ele>1056.000000</ele>
        <time>2019-05-09T07:55:00Z</time>
      </trkpt>
      <trkpt lat="37.323545" lon="-3.100092">
        <ele>1056.000000</ele>
        <time>2019-05-09T07:55:01Z</time>
      </trkpt>
      <trkpt lat="37.323563" lon="-3.100095">
        <ele>1055.000000</ele>
        <time>2019-05-09T07:55:02Z</time>
      </trkpt>
      <trkpt lat="37.323582" lon="-3.100101">
        <ele>1055.000000</ele>
        <time>2019-05-09T07:55:03Z</time>
      </trkpt>
      <trkpt lat="37.323598" lon="-3.100104">
        <ele>1055.000000</ele>
        <time>2019-05-09T07:55:04Z</time>
      </trkpt>
      <trkpt lat="37.323617" lon="-3.100108">
        <ele>1055.000000</ele>
        <time>2019-05-09T07:55:05Z</time>
      </trkpt>
      <trkpt lat="37.323630" lon="-3.100109">
        <ele>1054.000000</ele>
        <time>2019-05-09T07:55:06Z</time>
      </trkpt>
      <trkpt lat="37.323643" lon="-3.100112">
        <ele>1054.000000</ele>
        <time>2019-05-09T07:55:07Z</time>
      </trkpt>
      <trkpt lat="37.323657" lon="-3.100112">
        <ele>1054.000000</ele>
        <time>2019-05-09T07:55:08Z</time>
      </trkpt>
      <trkpt lat="37.323670" lon="-3.100112">
        <ele>1054.000000</ele>
        <time>2019-05-09T07:55:10Z</time>
      </trkpt>
      <trkpt lat="37.323685" lon="-3.100113">
        <ele>1054.000000</ele>
        <time>2019-05-09T07:55:10Z</time>
      </trkpt>
      <trkpt lat="37.323702" lon="-3.100114">
        <ele>1054.000000</ele>
        <time>2019-05-09T07:55:11Z</time>
      </trkpt>
      <trkpt lat="37.323718" lon="-3.100116">
        <ele>1054.000000</ele>
        <time>2019-05-09T07:55:12Z</time>
      </trkpt>
      <trkpt lat="37.323738" lon="-3.100117">
        <ele>1054.000000</ele>
        <time>2019-05-09T07:55:13Z</time>
      </trkpt>
      <trkpt lat="37.323758" lon="-3.100119">
        <ele>1054.000000</ele>
        <time>2019-05-09T07:55:14Z</time>
      </trkpt>
      <trkpt lat="37.323777" lon="-3.100119">
        <ele>1054.000000</ele>
        <time>2019-05-09T07:55:15Z</time>
      </trkpt>
      <trkpt lat="37.323795" lon="-3.100119">
        <ele>1054.000000</ele>
        <time>2019-05-09T07:55:16Z</time>
      </trkpt>
      <trkpt lat="37.323813" lon="-3.100120">
        <ele>1054.000000</ele>
        <time>2019-05-09T07:55:17Z</time>
      </trkpt>
      <trkpt lat="37.323828" lon="-3.100118">
        <ele>1054.000000</ele>
        <time>2019-05-09T07:55:18Z</time>
      </trkpt>
      <trkpt lat="37.323842" lon="-3.100116">
        <ele>1054.000000</ele>
        <time>2019-05-09T07:55:19Z</time>
      </trkpt>
      <trkpt lat="37.323857" lon="-3.100116">
        <ele>1054.000000</ele>
        <time>2019-05-09T07:55:20Z</time>
      </trkpt>
      <trkpt lat="37.323868" lon="-3.100114">
        <ele>1054.000000</ele>
        <time>2019-05-09T07:55:21Z</time>
      </trkpt>
      <trkpt lat="37.323883" lon="-3.100113">
        <ele>1054.000000</ele>
        <time>2019-05-09T07:55:22Z</time>
      </trkpt>
      <trkpt lat="37.323898" lon="-3.100113">
        <ele>1054.000000</ele>
        <time>2019-05-09T07:55:24Z</time>
      </trkpt>
      <trkpt lat="37.323915" lon="-3.100113">
        <ele>1054.000000</ele>
        <time>2019-05-09T07:55:24Z</time>
      </trkpt>
      <trkpt lat="37.323933" lon="-3.100113">
        <ele>1054.000000</ele>
        <time>2019-05-09T07:55:25Z</time>
      </trkpt>
      <trkpt lat="37.323950" lon="-3.100115">
        <ele>1054.000000</ele>
        <time>2019-05-09T07:55:26Z</time>
      </trkpt>
      <trkpt lat="37.323963" lon="-3.100116">
        <ele>1054.000000</ele>
        <time>2019-05-09T07:55:27Z</time>
      </trkpt>
      <trkpt lat="37.323978" lon="-3.100118">
        <ele>1054.000000</ele>
        <time>2019-05-09T07:55:28Z</time>
      </trkpt>
      <trkpt lat="37.323992" lon="-3.100121">
        <ele>1054.000000</ele>
        <time>2019-05-09T07:55:29Z</time>
      </trkpt>
      <trkpt lat="37.324007" lon="-3.100124">
        <ele>1054.000000</ele>
        <time>2019-05-09T07:55:30Z</time>
      </trkpt>
      <trkpt lat="37.324018" lon="-3.100128">
        <ele>1054.000000</ele>
        <time>2019-05-09T07:55:31Z</time>
      </trkpt>
      <trkpt lat="37.324030" lon="-3.100133">
        <ele>1054.000000</ele>
        <time>2019-05-09T07:55:33Z</time>
      </trkpt>
      <trkpt lat="37.324043" lon="-3.100138">
        <ele>1054.000000</ele>
        <time>2019-05-09T07:55:33Z</time>
      </trkpt>
      <trkpt lat="37.324053" lon="-3.100143">
        <ele>1054.000000</ele>
        <time>2019-05-09T07:55:34Z</time>
      </trkpt>
      <trkpt lat="37.324063" lon="-3.100149">
        <ele>1054.000000</ele>
        <time>2019-05-09T07:55:35Z</time>
      </trkpt>
      <trkpt lat="37.324072" lon="-3.100155">
        <ele>1056.000000</ele>
        <time>2019-05-09T07:55:36Z</time>
      </trkpt>
      <trkpt lat="37.324078" lon="-3.100162">
        <ele>1056.000000</ele>
        <time>2019-05-09T07:55:37Z</time>
      </trkpt>
      <trkpt lat="37.324087" lon="-3.100258">
        <ele>1056.000000</ele>
        <time>2019-05-09T07:55:38Z</time>
      </trkpt>
      <trkpt lat="37.324093" lon="-3.100280">
        <ele>1056.000000</ele>
        <time>2019-05-09T07:55:39Z</time>
      </trkpt>
      <trkpt lat="37.324100" lon="-3.100302">
        <ele>1056.000000</ele>
        <time>2019-05-09T07:55:40Z</time>
      </trkpt>
      <trkpt lat="37.324107" lon="-3.100325">
        <ele>1056.000000</ele>
        <time>2019-05-09T07:55:41Z</time>
      </trkpt>
      <trkpt lat="37.324115" lon="-3.100347">
        <ele>1056.000000</ele>
        <time>2019-05-09T07:55:42Z</time>
      </trkpt>
      <trkpt lat="37.324122" lon="-3.100365">
        <ele>1056.000000</ele>
        <time>2019-05-09T07:55:43Z</time>
      </trkpt>
      <trkpt lat="37.324127" lon="-3.100382">
        <ele>1056.000000</ele>
        <time>2019-05-09T07:55:44Z</time>
      </trkpt>
      <trkpt lat="37.324133" lon="-3.100397">
        <ele>1056.000000</ele>
        <time>2019-05-09T07:55:45Z</time>
      </trkpt>
      <trkpt lat="37.324139" lon="-3.100413">
        <ele>1056.000000</ele>
        <time>2019-05-09T07:55:46Z</time>
      </trkpt>
      <trkpt lat="37.324146" lon="-3.100428">
        <ele>1056.000000</ele>
        <time>2019-05-09T07:55:47Z</time>
      </trkpt>
      <trkpt lat="37.324152" lon="-3.100443">
        <ele>1056.000000</ele>
        <time>2019-05-09T07:55:48Z</time>
      </trkpt>
      <trkpt lat="37.324159" lon="-3.100460">
        <ele>1056.000000</ele>
        <time>2019-05-09T07:55:49Z</time>
      </trkpt>
      <trkpt lat="37.324167" lon="-3.100478">
        <ele>1056.000000</ele>
        <time>2019-05-09T07:55:50Z</time>
      </trkpt>
      <trkpt lat="37.324174" lon="-3.100495">
        <ele>1056.000000</ele>
        <time>2019-05-09T07:55:51Z</time>
      </trkpt>
      <trkpt lat="37.324182" lon="-3.100515">
        <ele>1056.000000</ele>
        <time>2019-05-09T07:55:52Z</time>
      </trkpt>
      <trkpt lat="37.324193" lon="-3.100538">
        <ele>1056.000000</ele>
        <time>2019-05-09T07:55:53Z</time>
      </trkpt>
      <trkpt lat="37.324201" lon="-3.100558">
        <ele>1056.000000</ele>
        <time>2019-05-09T07:55:54Z</time>
      </trkpt>
      <trkpt lat="37.324210" lon="-3.100577">
        <ele>1056.000000</ele>
        <time>2019-05-09T07:55:55Z</time>
      </trkpt>
      <trkpt lat="37.324220" lon="-3.100598">
        <ele>1056.000000</ele>
        <time>2019-05-09T07:55:57Z</time>
      </trkpt>
      <trkpt lat="37.324230" lon="-3.100618">
        <ele>1056.000000</ele>
        <time>2019-05-09T07:55:57Z</time>
      </trkpt>
      <trkpt lat="37.324240" lon="-3.100637">
        <ele>1056.000000</ele>
        <time>2019-05-09T07:55:58Z</time>
      </trkpt>
      <trkpt lat="37.324251" lon="-3.100657">
        <ele>1056.000000</ele>
        <time>2019-05-09T07:55:59Z</time>
      </trkpt>
      <trkpt lat="37.324259" lon="-3.100672">
        <ele>1056.000000</ele>
        <time>2019-05-09T07:56:00Z</time>
      </trkpt>
      <trkpt lat="37.324266" lon="-3.100685">
        <ele>1056.000000</ele>
        <time>2019-05-09T07:56:01Z</time>
      </trkpt>
      <trkpt lat="37.324275" lon="-3.100700">
        <ele>1056.000000</ele>
        <time>2019-05-09T07:56:02Z</time>
      </trkpt>
      <trkpt lat="37.324283" lon="-3.100713">
        <ele>1055.000000</ele>
        <time>2019-05-09T07:56:03Z</time>
      </trkpt>
      <trkpt lat="37.324291" lon="-3.100727">
        <ele>1055.000000</ele>
        <time>2019-05-09T07:56:04Z</time>
      </trkpt>
      <trkpt lat="37.324299" lon="-3.100738">
        <ele>1055.000000</ele>
        <time>2019-05-09T07:56:05Z</time>
      </trkpt>
      <trkpt lat="37.324306" lon="-3.100750">
        <ele>1055.000000</ele>
        <time>2019-05-09T07:56:06Z</time>
      </trkpt>
      <trkpt lat="37.324314" lon="-3.100763">
        <ele>1055.000000</ele>
        <time>2019-05-09T07:56:07Z</time>
      </trkpt>
      <trkpt lat="37.324322" lon="-3.100778">
        <ele>1055.000000</ele>
        <time>2019-05-09T07:56:08Z</time>
      </trkpt>
      <trkpt lat="37.324331" lon="-3.100793">
        <ele>1055.000000</ele>
        <time>2019-05-09T07:56:09Z</time>
      </trkpt>
      <trkpt lat="37.324342" lon="-3.100812">
        <ele>1054.000000</ele>
        <time>2019-05-09T07:56:10Z</time>
      </trkpt>
      <trkpt lat="37.324353" lon="-3.100832">
        <ele>1054.000000</ele>
        <time>2019-05-09T07:56:11Z</time>
      </trkpt>
      <trkpt lat="37.324365" lon="-3.100850">
        <ele>1054.000000</ele>
        <time>2019-05-09T07:56:12Z</time>
      </trkpt>
      <trkpt lat="37.324376" lon="-3.100870">
        <ele>1053.000000</ele>
        <time>2019-05-09T07:56:13Z</time>
      </trkpt>
      <trkpt lat="37.324387" lon="-3.100890">
        <ele>1053.000000</ele>
        <time>2019-05-09T07:56:14Z</time>
      </trkpt>
      <trkpt lat="37.324400" lon="-3.100912">
        <ele>1052.000000</ele>
        <time>2019-05-09T07:56:15Z</time>
      </trkpt>
      <trkpt lat="37.324410" lon="-3.100930">
        <ele>1052.000000</ele>
        <time>2019-05-09T07:56:17Z</time>
      </trkpt>
      <trkpt lat="37.324419" lon="-3.100945">
        <ele>1051.000000</ele>
        <time>2019-05-09T07:56:17Z</time>
      </trkpt>
      <trkpt lat="37.324430" lon="-3.100963">
        <ele>1051.000000</ele>
        <time>2019-05-09T07:56:18Z</time>
      </trkpt>
      <trkpt lat="37.324441" lon="-3.100982">
        <ele>1051.000000</ele>
        <time>2019-05-09T07:56:19Z</time>
      </trkpt>
      <trkpt lat="37.324451" lon="-3.100998">
        <ele>1051.000000</ele>
        <time>2019-05-09T07:56:20Z</time>
      </trkpt>
      <trkpt lat="37.324460" lon="-3.101013">
        <ele>1050.000000</ele>
        <time>2019-05-09T07:56:21Z</time>
      </trkpt>
      <trkpt lat="37.324469" lon="-3.101030">
        <ele>1050.000000</ele>
        <time>2019-05-09T07:56:22Z</time>
      </trkpt>
      <trkpt lat="37.324480" lon="-3.101050">
        <ele>1050.000000</ele>
        <time>2019-05-09T07:56:23Z</time>
      </trkpt>
      <trkpt lat="37.324487" lon="-3.101063">
        <ele>1050.000000</ele>
        <time>2019-05-09T07:56:24Z</time>
      </trkpt>
      <trkpt lat="37.324495" lon="-3.101078">
        <ele>1049.000000</ele>
        <time>2019-05-09T07:56:25Z</time>
      </trkpt>
      <trkpt lat="37.324503" lon="-3.101093">
        <ele>1049.000000</ele>
        <time>2019-05-09T07:56:26Z</time>
      </trkpt>
      <trkpt lat="37.324515" lon="-3.101112">
        <ele>1049.000000</ele>
        <time>2019-05-09T07:56:27Z</time>
      </trkpt>
      <trkpt lat="37.324525" lon="-3.101132">
        <ele>1049.000000</ele>
        <time>2019-05-09T07:56:28Z</time>
      </trkpt>
      <trkpt lat="37.324535" lon="-3.101148">
        <ele>1049.000000</ele>
        <time>2019-05-09T07:56:29Z</time>
      </trkpt>
      <trkpt lat="37.324544" lon="-3.101165">
        <ele>1048.000000</ele>
        <time>2019-05-09T07:56:30Z</time>
      </trkpt>
      <trkpt lat="37.324551" lon="-3.101180">
        <ele>1048.000000</ele>
        <time>2019-05-09T07:56:31Z</time>
      </trkpt>
      <trkpt lat="37.324561" lon="-3.101195">
        <ele>1048.000000</ele>
        <time>2019-05-09T07:56:32Z</time>
      </trkpt>
      <trkpt lat="37.324569" lon="-3.101207">
        <ele>1047.000000</ele>
        <time>2019-05-09T07:56:33Z</time>
      </trkpt>
      <trkpt lat="37.324574" lon="-3.101213">
        <ele>1047.000000</ele>
        <time>2019-05-09T07:56:34Z</time>
      </trkpt>
      <trkpt lat="37.324583" lon="-3.101227">
        <ele>1047.000000</ele>
        <time>2019-05-09T07:56:35Z</time>
      </trkpt>
      <trkpt lat="37.324595" lon="-3.101245">
        <ele>1047.000000</ele>
        <time>2019-05-09T07:56:36Z</time>
      </trkpt>
      <trkpt lat="37.324606" lon="-3.101265">
        <ele>1047.000000</ele>
        <time>2019-05-09T07:56:37Z</time>
      </trkpt>
      <trkpt lat="37.324617" lon="-3.101287">
        <ele>1047.000000</ele>
        <time>2019-05-09T07:56:38Z</time>
      </trkpt>
      <trkpt lat="37.324629" lon="-3.101308">
        <ele>1047.000000</ele>
        <time>2019-05-09T07:56:39Z</time>
      </trkpt>
      <trkpt lat="37.324639" lon="-3.101327">
        <ele>1047.000000</ele>
        <time>2019-05-09T07:56:40Z</time>
      </trkpt>
      <trkpt lat="37.324650" lon="-3.101345">
        <ele>1046.000000</ele>
        <time>2019-05-09T07:56:42Z</time>
      </trkpt>
      <trkpt lat="37.324658" lon="-3.101360">
        <ele>1046.000000</ele>
        <time>2019-05-09T07:56:42Z</time>
      </trkpt>
      <trkpt lat="37.324667" lon="-3.101375">
        <ele>1046.000000</ele>
        <time>2019-05-09T07:56:43Z</time>
      </trkpt>
      <trkpt lat="37.324674" lon="-3.101388">
        <ele>1046.000000</ele>
        <time>2019-05-09T07:56:44Z</time>
      </trkpt>
      <trkpt lat="37.324683" lon="-3.101403">
        <ele>1046.000000</ele>
        <time>2019-05-09T07:56:45Z</time>
      </trkpt>
      <trkpt lat="37.324692" lon="-3.101417">
        <ele>1046.000000</ele>
        <time>2019-05-09T07:56:46Z</time>
      </trkpt>
      <trkpt lat="37.324700" lon="-3.101430">
        <ele>1046.000000</ele>
        <time>2019-05-09T07:56:47Z</time>
      </trkpt>
      <trkpt lat="37.324708" lon="-3.101443">
        <ele>1046.000000</ele>
        <time>2019-05-09T07:56:48Z</time>
      </trkpt>
      <trkpt lat="37.324719" lon="-3.101458">
        <ele>1046.000000</ele>
        <time>2019-05-09T07:56:49Z</time>
      </trkpt>
      <trkpt lat="37.324729" lon="-3.101475">
        <ele>1046.000000</ele>
        <time>2019-05-09T07:56:50Z</time>
      </trkpt>
      <trkpt lat="37.324740" lon="-3.101495">
        <ele>1046.000000</ele>
        <time>2019-05-09T07:56:51Z</time>
      </trkpt>
      <trkpt lat="37.324753" lon="-3.101513">
        <ele>1046.000000</ele>
        <time>2019-05-09T07:56:52Z</time>
      </trkpt>
      <trkpt lat="37.324765" lon="-3.101533">
        <ele>1046.000000</ele>
        <time>2019-05-09T07:56:53Z</time>
      </trkpt>
      <trkpt lat="37.324778" lon="-3.101553">
        <ele>1046.000000</ele>
        <time>2019-05-09T07:56:54Z</time>
      </trkpt>
      <trkpt lat="37.324787" lon="-3.101568">
        <ele>1046.000000</ele>
        <time>2019-05-09T07:56:54Z</time>
      </trkpt>
      <trkpt lat="37.324798" lon="-3.101585">
        <ele>1046.000000</ele>
        <time>2019-05-09T07:56:55Z</time>
      </trkpt>
      <trkpt lat="37.324809" lon="-3.101600">
        <ele>1046.000000</ele>
        <time>2019-05-09T07:56:56Z</time>
      </trkpt>
      <trkpt lat="37.324818" lon="-3.101613">
        <ele>1046.000000</ele>
        <time>2019-05-09T07:56:57Z</time>
      </trkpt>
      <trkpt lat="37.324826" lon="-3.101623">
        <ele>1046.000000</ele>
        <time>2019-05-09T07:56:58Z</time>
      </trkpt>
      <trkpt lat="37.324834" lon="-3.101637">
        <ele>1045.000000</ele>
        <time>2019-05-09T07:56:59Z</time>
      </trkpt>
      <trkpt lat="37.324842" lon="-3.101648">
        <ele>1045.000000</ele>
        <time>2019-05-09T07:57:01Z</time>
      </trkpt>
      <trkpt lat="37.324852" lon="-3.101662">
        <ele>1045.000000</ele>
        <time>2019-05-09T07:57:01Z</time>
      </trkpt>
      <trkpt lat="37.324862" lon="-3.101675">
        <ele>1045.000000</ele>
        <time>2019-05-09T07:57:02Z</time>
      </trkpt>
      <trkpt lat="37.324873" lon="-3.101692">
        <ele>1045.000000</ele>
        <time>2019-05-09T07:57:03Z</time>
      </trkpt>
      <trkpt lat="37.324885" lon="-3.101708">
        <ele>1045.000000</ele>
        <time>2019-05-09T07:57:04Z</time>
      </trkpt>
      <trkpt lat="37.324896" lon="-3.101727">
        <ele>1045.000000</ele>
        <time>2019-05-09T07:57:05Z</time>
      </trkpt>
      <trkpt lat="37.324908" lon="-3.101745">
        <ele>1045.000000</ele>
        <time>2019-05-09T07:57:06Z</time>
      </trkpt>
      <trkpt lat="37.324919" lon="-3.101763">
        <ele>1045.000000</ele>
        <time>2019-05-09T07:57:07Z</time>
      </trkpt>
      <trkpt lat="37.324932" lon="-3.101782">
        <ele>1045.000000</ele>
        <time>2019-05-09T07:57:08Z</time>
      </trkpt>
      <trkpt lat="37.324943" lon="-3.101797">
        <ele>1044.000000</ele>
        <time>2019-05-09T07:57:09Z</time>
      </trkpt>
      <trkpt lat="37.324953" lon="-3.101812">
        <ele>1044.000000</ele>
        <time>2019-05-09T07:57:10Z</time>
      </trkpt>
      <trkpt lat="37.324962" lon="-3.101825">
        <ele>1044.000000</ele>
        <time>2019-05-09T07:57:11Z</time>
      </trkpt>
      <trkpt lat="37.324970" lon="-3.101837">
        <ele>1044.000000</ele>
        <time>2019-05-09T07:57:12Z</time>
      </trkpt>
      <trkpt lat="37.324977" lon="-3.101845">
        <ele>1044.000000</ele>
        <time>2019-05-09T07:57:13Z</time>
      </trkpt>
      <trkpt lat="37.324983" lon="-3.101852">
        <ele>1044.000000</ele>
        <time>2019-05-09T07:57:14Z</time>
      </trkpt>
      <trkpt lat="37.325012" lon="-3.101852">
        <ele>1044.000000</ele>
        <time>2019-05-09T07:57:15Z</time>
      </trkpt>
      <trkpt lat="37.325023" lon="-3.101845">
        <ele>1044.000000</ele>
        <time>2019-05-09T07:57:16Z</time>
      </trkpt>
      <trkpt lat="37.325037" lon="-3.101837">
        <ele>1044.000000</ele>
        <time>2019-05-09T07:57:17Z</time>
      </trkpt>
      <trkpt lat="37.325048" lon="-3.101827">
        <ele>1044.000000</ele>
        <time>2019-05-09T07:57:18Z</time>
      </trkpt>
      <trkpt lat="37.325062" lon="-3.101815">
        <ele>1044.000000</ele>
        <time>2019-05-09T07:57:19Z</time>
      </trkpt>
      <trkpt lat="37.325072" lon="-3.101800">
        <ele>1044.000000</ele>
        <time>2019-05-09T07:57:20Z</time>
      </trkpt>
      <trkpt lat="37.325083" lon="-3.101783">
        <ele>1044.000000</ele>
        <time>2019-05-09T07:57:21Z</time>
      </trkpt>
      <trkpt lat="37.325095" lon="-3.101773">
        <ele>1044.000000</ele>
        <time>2019-05-09T07:57:22Z</time>
      </trkpt>
      <trkpt lat="37.325107" lon="-3.101762">
        <ele>1044.000000</ele>
        <time>2019-05-09T07:57:23Z</time>
      </trkpt>
      <trkpt lat="37.325118" lon="-3.101747">
        <ele>1044.000000</ele>
        <time>2019-05-09T07:57:24Z</time>
      </trkpt>
      <trkpt lat="37.325132" lon="-3.101733">
        <ele>1044.000000</ele>
        <time>2019-05-09T07:57:26Z</time>
      </trkpt>
      <trkpt lat="37.325142" lon="-3.101713">
        <ele>1044.000000</ele>
        <time>2019-05-09T07:57:26Z</time>
      </trkpt>
      <trkpt lat="37.325155" lon="-3.101695">
        <ele>1044.000000</ele>
        <time>2019-05-09T07:57:27Z</time>
      </trkpt>
      <trkpt lat="37.325170" lon="-3.101680">
        <ele>1044.000000</ele>
        <time>2019-05-09T07:57:28Z</time>
      </trkpt>
      <trkpt lat="37.325183" lon="-3.101667">
        <ele>1044.000000</ele>
        <time>2019-05-09T07:57:29Z</time>
      </trkpt>
      <trkpt lat="37.325195" lon="-3.101654">
        <ele>1044.000000</ele>
        <time>2019-05-09T07:57:30Z</time>
      </trkpt>
      <trkpt lat="37.325207" lon="-3.101640">
        <ele>1044.000000</ele>
        <time>2019-05-09T07:57:31Z</time>
      </trkpt>
      <trkpt lat="37.325217" lon="-3.101620">
        <ele>1044.000000</ele>
        <time>2019-05-09T07:57:32Z</time>
      </trkpt>
      <trkpt lat="37.325225" lon="-3.101600">
        <ele>1045.000000</ele>
        <time>2019-05-09T07:57:33Z</time>
      </trkpt>
      <trkpt lat="37.325234" lon="-3.101582">
        <ele>1045.000000</ele>
        <time>2019-05-09T07:57:34Z</time>
      </trkpt>
      <trkpt lat="37.325244" lon="-3.101567">
        <ele>1045.000000</ele>
        <time>2019-05-09T07:57:35Z</time>
      </trkpt>
      <trkpt lat="37.325253" lon="-3.101550">
        <ele>1045.000000</ele>
        <time>2019-05-09T07:57:36Z</time>
      </trkpt>
      <trkpt lat="37.325261" lon="-3.101537">
        <ele>1045.000000</ele>
        <time>2019-05-09T07:57:37Z</time>
      </trkpt>
      <trkpt lat="37.325269" lon="-3.101525">
        <ele>1045.000000</ele>
        <time>2019-05-09T07:57:38Z</time>
      </trkpt>
      <trkpt lat="37.325277" lon="-3.101513">
        <ele>1045.000000</ele>
        <time>2019-05-09T07:57:39Z</time>
      </trkpt>
      <trkpt lat="37.325284" lon="-3.101502">
        <ele>1045.000000</ele>
        <time>2019-05-09T07:57:40Z</time>
      </trkpt>
      <trkpt lat="37.325294" lon="-3.101483">
        <ele>1045.000000</ele>
        <time>2019-05-09T07:57:41Z</time>
      </trkpt>
      <trkpt lat="37.325304" lon="-3.101465">
        <ele>1045.000000</ele>
        <time>2019-05-09T07:57:42Z</time>
      </trkpt>
      <trkpt lat="37.325315" lon="-3.101447">
        <ele>1045.000000</ele>
        <time>2019-05-09T07:57:43Z</time>
      </trkpt>
      <trkpt lat="37.325325" lon="-3.101430">
        <ele>1045.000000</ele>
        <time>2019-05-09T07:57:44Z</time>
      </trkpt>
      <trkpt lat="37.325336" lon="-3.101417">
        <ele>1045.000000</ele>
        <time>2019-05-09T07:57:45Z</time>
      </trkpt>
      <trkpt lat="37.325350" lon="-3.101398">
        <ele>1045.000000</ele>
        <time>2019-05-09T07:57:46Z</time>
      </trkpt>
      <trkpt lat="37.325364" lon="-3.101382">
        <ele>1045.000000</ele>
        <time>2019-05-09T07:57:47Z</time>
      </trkpt>
      <trkpt lat="37.325378" lon="-3.101363">
        <ele>1045.000000</ele>
        <time>2019-05-09T07:57:48Z</time>
      </trkpt>
      <trkpt lat="37.325405" lon="-3.101357">
        <ele>1045.000000</ele>
        <time>2019-05-09T07:57:50Z</time>
      </trkpt>
      <trkpt lat="37.325420" lon="-3.101350">
        <ele>1045.000000</ele>
        <time>2019-05-09T07:57:50Z</time>
      </trkpt>
      <trkpt lat="37.325433" lon="-3.101345">
        <ele>1045.000000</ele>
        <time>2019-05-09T07:57:51Z</time>
      </trkpt>
      <trkpt lat="37.325447" lon="-3.101341">
        <ele>1045.000000</ele>
        <time>2019-05-09T07:57:52Z</time>
      </trkpt>
      <trkpt lat="37.325457" lon="-3.101337">
        <ele>1045.000000</ele>
        <time>2019-05-09T07:57:53Z</time>
      </trkpt>
      <trkpt lat="37.325467" lon="-3.101332">
        <ele>1045.000000</ele>
        <time>2019-05-09T07:57:54Z</time>
      </trkpt>
      <trkpt lat="37.325478" lon="-3.101324">
        <ele>1045.000000</ele>
        <time>2019-05-09T07:57:55Z</time>
      </trkpt>
      <trkpt lat="37.325490" lon="-3.101317">
        <ele>1045.000000</ele>
        <time>2019-05-09T07:57:56Z</time>
      </trkpt>
      <trkpt lat="37.325502" lon="-3.101306">
        <ele>1046.000000</ele>
        <time>2019-05-09T07:57:57Z</time>
      </trkpt>
      <trkpt lat="37.325513" lon="-3.101295">
        <ele>1046.000000</ele>
        <time>2019-05-09T07:57:58Z</time>
      </trkpt>
      <trkpt lat="37.325525" lon="-3.101282">
        <ele>1046.000000</ele>
        <time>2019-05-09T07:57:59Z</time>
      </trkpt>
      <trkpt lat="37.325540" lon="-3.101267">
        <ele>1046.000000</ele>
        <time>2019-05-09T07:58:00Z</time>
      </trkpt>
      <trkpt lat="37.325553" lon="-3.101251">
        <ele>1046.000000</ele>
        <time>2019-05-09T07:58:01Z</time>
      </trkpt>
      <trkpt lat="37.325565" lon="-3.101235">
        <ele>1046.000000</ele>
        <time>2019-05-09T07:58:02Z</time>
      </trkpt>
      <trkpt lat="37.325577" lon="-3.101220">
        <ele>1047.000000</ele>
        <time>2019-05-09T07:58:03Z</time>
      </trkpt>
      <trkpt lat="37.325590" lon="-3.101203">
        <ele>1047.000000</ele>
        <time>2019-05-09T07:58:04Z</time>
      </trkpt>
      <trkpt lat="37.325600" lon="-3.101190">
        <ele>1047.000000</ele>
        <time>2019-05-09T07:58:05Z</time>
      </trkpt>
      <trkpt lat="37.325612" lon="-3.101157">
        <ele>1047.000000</ele>
        <time>2019-05-09T07:58:06Z</time>
      </trkpt>
      <trkpt lat="37.325622" lon="-3.101142">
        <ele>1047.000000</ele>
        <time>2019-05-09T07:58:07Z</time>
      </trkpt>
      <trkpt lat="37.325630" lon="-3.101128">
        <ele>1047.000000</ele>
        <time>2019-05-09T07:58:08Z</time>
      </trkpt>
      <trkpt lat="37.325639" lon="-3.101113">
        <ele>1048.000000</ele>
        <time>2019-05-09T07:58:09Z</time>
      </trkpt>
      <trkpt lat="37.325647" lon="-3.101103">
        <ele>1048.000000</ele>
        <time>2019-05-09T07:58:11Z</time>
      </trkpt>
      <trkpt lat="37.325655" lon="-3.101095">
        <ele>1048.000000</ele>
        <time>2019-05-09T07:58:11Z</time>
      </trkpt>
      <trkpt lat="37.325667" lon="-3.101080">
        <ele>1048.000000</ele>
        <time>2019-05-09T07:58:12Z</time>
      </trkpt>
      <trkpt lat="37.325677" lon="-3.101068">
        <ele>1048.000000</ele>
        <time>2019-05-09T07:58:13Z</time>
      </trkpt>
      <trkpt lat="37.325690" lon="-3.101055">
        <ele>1049.000000</ele>
        <time>2019-05-09T07:58:14Z</time>
      </trkpt>
      <trkpt lat="37.325703" lon="-3.101040">
        <ele>1049.000000</ele>
        <time>2019-05-09T07:58:15Z</time>
      </trkpt>
      <trkpt lat="37.325716" lon="-3.101025">
        <ele>1049.000000</ele>
        <time>2019-05-09T07:58:16Z</time>
      </trkpt>
      <trkpt lat="37.325732" lon="-3.101008">
        <ele>1049.000000</ele>
        <time>2019-05-09T07:58:17Z</time>
      </trkpt>
      <trkpt lat="37.325745" lon="-3.100990">
        <ele>1049.000000</ele>
        <time>2019-05-09T07:58:18Z</time>
      </trkpt>
      <trkpt lat="37.325755" lon="-3.100975">
        <ele>1049.000000</ele>
        <time>2019-05-09T07:58:19Z</time>
      </trkpt>
      <trkpt lat="37.325768" lon="-3.100963">
        <ele>1049.000000</ele>
        <time>2019-05-09T07:58:20Z</time>
      </trkpt>
      <trkpt lat="37.325780" lon="-3.100952">
        <ele>1049.000000</ele>
        <time>2019-05-09T07:58:21Z</time>
      </trkpt>
      <trkpt lat="37.325791" lon="-3.100938">
        <ele>1050.000000</ele>
        <time>2019-05-09T07:58:22Z</time>
      </trkpt>
      <trkpt lat="37.325801" lon="-3.100927">
        <ele>1050.000000</ele>
        <time>2019-05-09T07:58:23Z</time>
      </trkpt>
      <trkpt lat="37.325812" lon="-3.100912">
        <ele>1050.000000</ele>
        <time>2019-05-09T07:58:24Z</time>
      </trkpt>
      <trkpt lat="37.325821" lon="-3.100900">
        <ele>1050.000000</ele>
        <time>2019-05-09T07:58:25Z</time>
      </trkpt>
      <trkpt lat="37.325831" lon="-3.100887">
        <ele>1050.000000</ele>
        <time>2019-05-09T07:58:26Z</time>
      </trkpt>
      <trkpt lat="37.325841" lon="-3.100873">
        <ele>1050.000000</ele>
        <time>2019-05-09T07:58:27Z</time>
      </trkpt>
      <trkpt lat="37.325853" lon="-3.100858">
        <ele>1050.000000</ele>
        <time>2019-05-09T07:58:28Z</time>
      </trkpt>
      <trkpt lat="37.325866" lon="-3.100838">
        <ele>1050.000000</ele>
        <time>2019-05-09T07:58:29Z</time>
      </trkpt>
      <trkpt lat="37.325876" lon="-3.100823">
        <ele>1050.000000</ele>
        <time>2019-05-09T07:58:30Z</time>
      </trkpt>
      <trkpt lat="37.325887" lon="-3.100808">
        <ele>1050.000000</ele>
        <time>2019-05-09T07:58:31Z</time>
      </trkpt>
      <trkpt lat="37.325901" lon="-3.100792">
        <ele>1050.000000</ele>
        <time>2019-05-09T07:58:32Z</time>
      </trkpt>
      <trkpt lat="37.325912" lon="-3.100778">
        <ele>1051.000000</ele>
        <time>2019-05-09T07:58:33Z</time>
      </trkpt>
      <trkpt lat="37.325924" lon="-3.100763">
        <ele>1051.000000</ele>
        <time>2019-05-09T07:58:35Z</time>
      </trkpt>
      <trkpt lat="37.325935" lon="-3.100748">
        <ele>1051.000000</ele>
        <time>2019-05-09T07:58:35Z</time>
      </trkpt>
      <trkpt lat="37.325947" lon="-3.100735">
        <ele>1051.000000</ele>
        <time>2019-05-09T07:58:36Z</time>
      </trkpt>
      <trkpt lat="37.325957" lon="-3.100722">
        <ele>1051.000000</ele>
        <time>2019-05-09T07:58:37Z</time>
      </trkpt>
      <trkpt lat="37.325963" lon="-3.100708">
        <ele>1051.000000</ele>
        <time>2019-05-09T07:58:38Z</time>
      </trkpt>
      <trkpt lat="37.325972" lon="-3.100695">
        <ele>1051.000000</ele>
        <time>2019-05-09T07:58:39Z</time>
      </trkpt>
      <trkpt lat="37.325980" lon="-3.100682">
        <ele>1052.000000</ele>
        <time>2019-05-09T07:58:40Z</time>
      </trkpt>
      <trkpt lat="37.325988" lon="-3.100668">
        <ele>1052.000000</ele>
        <time>2019-05-09T07:58:41Z</time>
      </trkpt>
      <trkpt lat="37.325998" lon="-3.100652">
        <ele>1052.000000</ele>
        <time>2019-05-09T07:58:42Z</time>
      </trkpt>
      <trkpt lat="37.326009" lon="-3.100635">
        <ele>1052.000000</ele>
        <time>2019-05-09T07:58:43Z</time>
      </trkpt>
      <trkpt lat="37.326020" lon="-3.100617">
        <ele>1052.000000</ele>
        <time>2019-05-09T07:58:44Z</time>
      </trkpt>
      <trkpt lat="37.326033" lon="-3.100598">
        <ele>1052.000000</ele>
        <time>2019-05-09T07:58:45Z</time>
      </trkpt>
      <trkpt lat="37.326045" lon="-3.100580">
        <ele>1052.000000</ele>
        <time>2019-05-09T07:58:46Z</time>
      </trkpt>
      <trkpt lat="37.326057" lon="-3.100563">
        <ele>1052.000000</ele>
        <time>2019-05-09T07:58:47Z</time>
      </trkpt>
      <trkpt lat="37.326071" lon="-3.100542">
        <ele>1052.000000</ele>
        <time>2019-05-09T07:58:48Z</time>
      </trkpt>
      <trkpt lat="37.326083" lon="-3.100525">
        <ele>1052.000000</ele>
        <time>2019-05-09T07:58:49Z</time>
      </trkpt>
      <trkpt lat="37.326095" lon="-3.100508">
        <ele>1052.000000</ele>
        <time>2019-05-09T07:58:50Z</time>
      </trkpt>
      <trkpt lat="37.326106" lon="-3.100493">
        <ele>1052.000000</ele>
        <time>2019-05-09T07:58:51Z</time>
      </trkpt>
      <trkpt lat="37.326117" lon="-3.100478">
        <ele>1052.000000</ele>
        <time>2019-05-09T07:58:52Z</time>
      </trkpt>
      <trkpt lat="37.326127" lon="-3.100463">
        <ele>1052.000000</ele>
        <time>2019-05-09T07:58:53Z</time>
      </trkpt>
      <trkpt lat="37.326136" lon="-3.100450">
        <ele>1052.000000</ele>
        <time>2019-05-09T07:58:54Z</time>
      </trkpt>
      <trkpt lat="37.326146" lon="-3.100435">
        <ele>1052.000000</ele>
        <time>2019-05-09T07:58:55Z</time>
      </trkpt>
      <trkpt lat="37.326155" lon="-3.100422">
        <ele>1052.000000</ele>
        <time>2019-05-09T07:58:56Z</time>
      </trkpt>
      <trkpt lat="37.326165" lon="-3.100407">
        <ele>1052.000000</ele>
        <time>2019-05-09T07:58:57Z</time>
      </trkpt>
      <trkpt lat="37.326173" lon="-3.100393">
        <ele>1053.000000</ele>
        <time>2019-05-09T07:58:58Z</time>
      </trkpt>
      <trkpt lat="37.326184" lon="-3.100377">
        <ele>1053.000000</ele>
        <time>2019-05-09T07:58:59Z</time>
      </trkpt>
      <trkpt lat="37.326196" lon="-3.100360">
        <ele>1053.000000</ele>
        <time>2019-05-09T07:59:00Z</time>
      </trkpt>
      <trkpt lat="37.326206" lon="-3.100347">
        <ele>1053.000000</ele>
        <time>2019-05-09T07:59:01Z</time>
      </trkpt>
      <trkpt lat="37.326217" lon="-3.100332">
        <ele>1053.000000</ele>
        <time>2019-05-09T07:59:02Z</time>
      </trkpt>
      <trkpt lat="37.326229" lon="-3.100315">
        <ele>1053.000000</ele>
        <time>2019-05-09T07:59:03Z</time>
      </trkpt>
      <trkpt lat="37.326242" lon="-3.100298">
        <ele>1053.000000</ele>
        <time>2019-05-09T07:59:04Z</time>
      </trkpt>
      <trkpt lat="37.326253" lon="-3.100283">
        <ele>1053.000000</ele>
        <time>2019-05-09T07:59:05Z</time>
      </trkpt>
      <trkpt lat="37.326265" lon="-3.100268">
        <ele>1053.000000</ele>
        <time>2019-05-09T07:59:06Z</time>
      </trkpt>
      <trkpt lat="37.326275" lon="-3.100253">
        <ele>1053.000000</ele>
        <time>2019-05-09T07:59:07Z</time>
      </trkpt>
      <trkpt lat="37.326284" lon="-3.100242">
        <ele>1053.000000</ele>
        <time>2019-05-09T07:59:08Z</time>
      </trkpt>
      <trkpt lat="37.326293" lon="-3.100230">
        <ele>1053.000000</ele>
        <time>2019-05-09T07:59:09Z</time>
      </trkpt>
      <trkpt lat="37.326302" lon="-3.100217">
        <ele>1053.000000</ele>
        <time>2019-05-09T07:59:10Z</time>
      </trkpt>
      <trkpt lat="37.326310" lon="-3.100205">
        <ele>1053.000000</ele>
        <time>2019-05-09T07:59:11Z</time>
      </trkpt>
      <trkpt lat="37.326319" lon="-3.100193">
        <ele>1053.000000</ele>
        <time>2019-05-09T07:59:12Z</time>
      </trkpt>
      <trkpt lat="37.326329" lon="-3.100180">
        <ele>1053.000000</ele>
        <time>2019-05-09T07:59:13Z</time>
      </trkpt>
      <trkpt lat="37.326340" lon="-3.100165">
        <ele>1053.000000</ele>
        <time>2019-05-09T07:59:14Z</time>
      </trkpt>
      <trkpt lat="37.326350" lon="-3.100152">
        <ele>1053.000000</ele>
        <time>2019-05-09T07:59:15Z</time>
      </trkpt>
      <trkpt lat="37.326362" lon="-3.100135">
        <ele>1053.000000</ele>
        <time>2019-05-09T07:59:16Z</time>
      </trkpt>
      <trkpt lat="37.326373" lon="-3.100120">
        <ele>1053.000000</ele>
        <time>2019-05-09T07:59:17Z</time>
      </trkpt>
      <trkpt lat="37.326384" lon="-3.100107">
        <ele>1053.000000</ele>
        <time>2019-05-09T07:59:18Z</time>
      </trkpt>
      <trkpt lat="37.326407" lon="-3.100090">
        <ele>1053.000000</ele>
        <time>2019-05-09T07:59:19Z</time>
      </trkpt>
      <trkpt lat="37.326418" lon="-3.100070">
        <ele>1053.000000</ele>
        <time>2019-05-09T07:59:21Z</time>
      </trkpt>
      <trkpt lat="37.326428" lon="-3.100057">
        <ele>1053.000000</ele>
        <time>2019-05-09T07:59:21Z</time>
      </trkpt>
      <trkpt lat="37.326439" lon="-3.100045">
        <ele>1053.000000</ele>
        <time>2019-05-09T07:59:22Z</time>
      </trkpt>
      <trkpt lat="37.326449" lon="-3.100032">
        <ele>1053.000000</ele>
        <time>2019-05-09T07:59:23Z</time>
      </trkpt>
      <trkpt lat="37.326458" lon="-3.100018">
        <ele>1053.000000</ele>
        <time>2019-05-09T07:59:24Z</time>
      </trkpt>
      <trkpt lat="37.326467" lon="-3.100002">
        <ele>1054.000000</ele>
        <time>2019-05-09T07:59:25Z</time>
      </trkpt>
      <trkpt lat="37.326477" lon="-3.099987">
        <ele>1054.000000</ele>
        <time>2019-05-09T07:59:26Z</time>
      </trkpt>
      <trkpt lat="37.326485" lon="-3.099973">
        <ele>1054.000000</ele>
        <time>2019-05-09T07:59:27Z</time>
      </trkpt>
      <trkpt lat="37.326496" lon="-3.099958">
        <ele>1054.000000</ele>
        <time>2019-05-09T07:59:28Z</time>
      </trkpt>
      <trkpt lat="37.326507" lon="-3.099940">
        <ele>1055.000000</ele>
        <time>2019-05-09T07:59:29Z</time>
      </trkpt>
      <trkpt lat="37.326519" lon="-3.099923">
        <ele>1055.000000</ele>
        <time>2019-05-09T07:59:30Z</time>
      </trkpt>
      <trkpt lat="37.326528" lon="-3.099910">
        <ele>1055.000000</ele>
        <time>2019-05-09T07:59:31Z</time>
      </trkpt>
      <trkpt lat="37.326541" lon="-3.099892">
        <ele>1055.000000</ele>
        <time>2019-05-09T07:59:32Z</time>
      </trkpt>
      <trkpt lat="37.326551" lon="-3.099877">
        <ele>1055.000000</ele>
        <time>2019-05-09T07:59:33Z</time>
      </trkpt>
      <trkpt lat="37.326561" lon="-3.099863">
        <ele>1055.000000</ele>
        <time>2019-05-09T07:59:34Z</time>
      </trkpt>
      <trkpt lat="37.326569" lon="-3.099852">
        <ele>1055.000000</ele>
        <time>2019-05-09T07:59:35Z</time>
      </trkpt>
      <trkpt lat="37.326577" lon="-3.099842">
        <ele>1055.000000</ele>
        <time>2019-05-09T07:59:36Z</time>
      </trkpt>
      <trkpt lat="37.326587" lon="-3.099830">
        <ele>1056.000000</ele>
        <time>2019-05-09T07:59:37Z</time>
      </trkpt>
      <trkpt lat="37.326595" lon="-3.099818">
        <ele>1056.000000</ele>
        <time>2019-05-09T07:59:38Z</time>
      </trkpt>
      <trkpt lat="37.326607" lon="-3.099803">
        <ele>1056.000000</ele>
        <time>2019-05-09T07:59:39Z</time>
      </trkpt>
      <trkpt lat="37.326618" lon="-3.099787">
        <ele>1056.000000</ele>
        <time>2019-05-09T07:59:40Z</time>
      </trkpt>
      <trkpt lat="37.326631" lon="-3.099768">
        <ele>1057.000000</ele>
        <time>2019-05-09T07:59:41Z</time>
      </trkpt>
      <trkpt lat="37.326639" lon="-3.099755">
        <ele>1057.000000</ele>
        <time>2019-05-09T07:59:42Z</time>
      </trkpt>
      <trkpt lat="37.326650" lon="-3.099740">
        <ele>1057.000000</ele>
        <time>2019-05-09T07:59:43Z</time>
      </trkpt>
      <trkpt lat="37.326661" lon="-3.099725">
        <ele>1057.000000</ele>
        <time>2019-05-09T07:59:45Z</time>
      </trkpt>
      <trkpt lat="37.326671" lon="-3.099712">
        <ele>1057.000000</ele>
        <time>2019-05-09T07:59:45Z</time>
      </trkpt>
      <trkpt lat="37.326684" lon="-3.099695">
        <ele>1058.000000</ele>
        <time>2019-05-09T07:59:46Z</time>
      </trkpt>
      <trkpt lat="37.326697" lon="-3.099678">
        <ele>1058.000000</ele>
        <time>2019-05-09T07:59:47Z</time>
      </trkpt>
      <trkpt lat="37.326706" lon="-3.099667">
        <ele>1058.000000</ele>
        <time>2019-05-09T07:59:48Z</time>
      </trkpt>
      <trkpt lat="37.326719" lon="-3.099650">
        <ele>1058.000000</ele>
        <time>2019-05-09T07:59:49Z</time>
      </trkpt>
      <trkpt lat="37.326729" lon="-3.099637">
        <ele>1058.000000</ele>
        <time>2019-05-09T07:59:50Z</time>
      </trkpt>
      <trkpt lat="37.326739" lon="-3.099625">
        <ele>1058.000000</ele>
        <time>2019-05-09T07:59:51Z</time>
      </trkpt>
      <trkpt lat="37.326748" lon="-3.099613">
        <ele>1058.000000</ele>
        <time>2019-05-09T07:59:52Z</time>
      </trkpt>
      <trkpt lat="37.326756" lon="-3.099603">
        <ele>1058.000000</ele>
        <time>2019-05-09T07:59:53Z</time>
      </trkpt>
      <trkpt lat="37.326765" lon="-3.099592">
        <ele>1058.000000</ele>
        <time>2019-05-09T07:59:54Z</time>
      </trkpt>
      <trkpt lat="37.326776" lon="-3.099577">
        <ele>1058.000000</ele>
        <time>2019-05-09T07:59:55Z</time>
      </trkpt>
      <trkpt lat="37.326788" lon="-3.099560">
        <ele>1058.000000</ele>
        <time>2019-05-09T07:59:56Z</time>
      </trkpt>
      <trkpt lat="37.326795" lon="-3.099550">
        <ele>1058.000000</ele>
        <time>2019-05-09T07:59:57Z</time>
      </trkpt>
      <trkpt lat="37.326806" lon="-3.099535">
        <ele>1058.000000</ele>
        <time>2019-05-09T07:59:58Z</time>
      </trkpt>
      <trkpt lat="37.326816" lon="-3.099522">
        <ele>1058.000000</ele>
        <time>2019-05-09T07:59:59Z</time>
      </trkpt>
      <trkpt lat="37.326828" lon="-3.099507">
        <ele>1058.000000</ele>
        <time>2019-05-09T08:00:00Z</time>
      </trkpt>
      <trkpt lat="37.326841" lon="-3.099490">
        <ele>1058.000000</ele>
        <time>2019-05-09T08:00:01Z</time>
      </trkpt>
      <trkpt lat="37.326852" lon="-3.099475">
        <ele>1058.000000</ele>
        <time>2019-05-09T08:00:02Z</time>
      </trkpt>
      <trkpt lat="37.326863" lon="-3.099462">
        <ele>1058.000000</ele>
        <time>2019-05-09T08:00:03Z</time>
      </trkpt>
      <trkpt lat="37.326876" lon="-3.099443">
        <ele>1058.000000</ele>
        <time>2019-05-09T08:00:05Z</time>
      </trkpt>
      <trkpt lat="37.326889" lon="-3.099428">
        <ele>1058.000000</ele>
        <time>2019-05-09T08:00:05Z</time>
      </trkpt>
      <trkpt lat="37.326901" lon="-3.099412">
        <ele>1058.000000</ele>
        <time>2019-05-09T08:00:06Z</time>
      </trkpt>
      <trkpt lat="37.326914" lon="-3.099395">
        <ele>1058.000000</ele>
        <time>2019-05-09T08:00:07Z</time>
      </trkpt>
      <trkpt lat="37.326924" lon="-3.099382">
        <ele>1058.000000</ele>
        <time>2019-05-09T08:00:08Z</time>
      </trkpt>
      <trkpt lat="37.326933" lon="-3.099370">
        <ele>1058.000000</ele>
        <time>2019-05-09T08:00:09Z</time>
      </trkpt>
      <trkpt lat="37.326941" lon="-3.099358">
        <ele>1058.000000</ele>
        <time>2019-05-09T08:00:10Z</time>
      </trkpt>
      <trkpt lat="37.326952" lon="-3.099345">
        <ele>1058.000000</ele>
        <time>2019-05-09T08:00:11Z</time>
      </trkpt>
      <trkpt lat="37.326963" lon="-3.099330">
        <ele>1059.000000</ele>
        <time>2019-05-09T08:00:12Z</time>
      </trkpt>
      <trkpt lat="37.326972" lon="-3.099318">
        <ele>1059.000000</ele>
        <time>2019-05-09T08:00:13Z</time>
      </trkpt>
      <trkpt lat="37.326982" lon="-3.099303">
        <ele>1059.000000</ele>
        <time>2019-05-09T08:00:14Z</time>
      </trkpt>
      <trkpt lat="37.326993" lon="-3.099288">
        <ele>1059.000000</ele>
        <time>2019-05-09T08:00:15Z</time>
      </trkpt>
      <trkpt lat="37.326999" lon="-3.099278">
        <ele>1060.000000</ele>
        <time>2019-05-09T08:00:16Z</time>
      </trkpt>
      <trkpt lat="37.327009" lon="-3.099265">
        <ele>1060.000000</ele>
        <time>2019-05-09T08:00:17Z</time>
      </trkpt>
      <trkpt lat="37.327022" lon="-3.099248">
        <ele>1060.000000</ele>
        <time>2019-05-09T08:00:18Z</time>
      </trkpt>
      <trkpt lat="37.327035" lon="-3.099230">
        <ele>1060.000000</ele>
        <time>2019-05-09T08:00:19Z</time>
      </trkpt>
      <trkpt lat="37.327049" lon="-3.099212">
        <ele>1060.000000</ele>
        <time>2019-05-09T08:00:20Z</time>
      </trkpt>
      <trkpt lat="37.327062" lon="-3.099193">
        <ele>1060.000000</ele>
        <time>2019-05-09T08:00:21Z</time>
      </trkpt>
      <trkpt lat="37.327071" lon="-3.099180">
        <ele>1060.000000</ele>
        <time>2019-05-09T08:00:22Z</time>
      </trkpt>
      <trkpt lat="37.327080" lon="-3.099167">
        <ele>1060.000000</ele>
        <time>2019-05-09T08:00:23Z</time>
      </trkpt>
      <trkpt lat="37.327090" lon="-3.099153">
        <ele>1060.000000</ele>
        <time>2019-05-09T08:00:24Z</time>
      </trkpt>
      <trkpt lat="37.327103" lon="-3.099137">
        <ele>1060.000000</ele>
        <time>2019-05-09T08:00:25Z</time>
      </trkpt>
      <trkpt lat="37.327112" lon="-3.099122">
        <ele>1060.000000</ele>
        <time>2019-05-09T08:00:26Z</time>
      </trkpt>
      <trkpt lat="37.327123" lon="-3.099107">
        <ele>1060.000000</ele>
        <time>2019-05-09T08:00:27Z</time>
      </trkpt>
      <trkpt lat="37.327131" lon="-3.099097">
        <ele>1060.000000</ele>
        <time>2019-05-09T08:00:28Z</time>
      </trkpt>
      <trkpt lat="37.327140" lon="-3.099083">
        <ele>1060.000000</ele>
        <time>2019-05-09T08:00:30Z</time>
      </trkpt>
      <trkpt lat="37.327151" lon="-3.099067">
        <ele>1060.000000</ele>
        <time>2019-05-09T08:00:30Z</time>
      </trkpt>
      <trkpt lat="37.327163" lon="-3.099050">
        <ele>1061.000000</ele>
        <time>2019-05-09T08:00:31Z</time>
      </trkpt>
      <trkpt lat="37.327176" lon="-3.099030">
        <ele>1061.000000</ele>
        <time>2019-05-09T08:00:32Z</time>
      </trkpt>
      <trkpt lat="37.327191" lon="-3.099008">
        <ele>1061.000000</ele>
        <time>2019-05-09T08:00:33Z</time>
      </trkpt>
      <trkpt lat="37.327200" lon="-3.098993">
        <ele>1061.000000</ele>
        <time>2019-05-09T08:00:34Z</time>
      </trkpt>
      <trkpt lat="37.327208" lon="-3.098980">
        <ele>1061.000000</ele>
        <time>2019-05-09T08:00:35Z</time>
      </trkpt>
      <trkpt lat="37.327217" lon="-3.098968">
        <ele>1061.000000</ele>
        <time>2019-05-09T08:00:36Z</time>
      </trkpt>
      <trkpt lat="37.327228" lon="-3.098953">
        <ele>1061.000000</ele>
        <time>2019-05-09T08:00:37Z</time>
      </trkpt>
      <trkpt lat="37.327238" lon="-3.098937">
        <ele>1061.000000</ele>
        <time>2019-05-09T08:00:38Z</time>
      </trkpt>
      <trkpt lat="37.327251" lon="-3.098918">
        <ele>1061.000000</ele>
        <time>2019-05-09T08:00:39Z</time>
      </trkpt>
      <trkpt lat="37.327259" lon="-3.098905">
        <ele>1061.000000</ele>
        <time>2019-05-09T08:00:40Z</time>
      </trkpt>
      <trkpt lat="37.327267" lon="-3.098893">
        <ele>1061.000000</ele>
        <time>2019-05-09T08:00:41Z</time>
      </trkpt>
      <trkpt lat="37.327277" lon="-3.098880">
        <ele>1062.000000</ele>
        <time>2019-05-09T08:00:42Z</time>
      </trkpt>
      <trkpt lat="37.327286" lon="-3.098865">
        <ele>1062.000000</ele>
        <time>2019-05-09T08:00:43Z</time>
      </trkpt>
      <trkpt lat="37.327295" lon="-3.098852">
        <ele>1062.000000</ele>
        <time>2019-05-09T08:00:44Z</time>
      </trkpt>
      <trkpt lat="37.327305" lon="-3.098837">
        <ele>1062.000000</ele>
        <time>2019-05-09T08:00:45Z</time>
      </trkpt>
      <trkpt lat="37.327317" lon="-3.098820">
        <ele>1062.000000</ele>
        <time>2019-05-09T08:00:46Z</time>
      </trkpt>
      <trkpt lat="37.327328" lon="-3.098802">
        <ele>1062.000000</ele>
        <time>2019-05-09T08:00:47Z</time>
      </trkpt>
      <trkpt lat="37.327341" lon="-3.098783">
        <ele>1062.000000</ele>
        <time>2019-05-09T08:00:48Z</time>
      </trkpt>
      <trkpt lat="37.327350" lon="-3.098768">
        <ele>1062.000000</ele>
        <time>2019-05-09T08:00:49Z</time>
      </trkpt>
      <trkpt lat="37.327363" lon="-3.098750">
        <ele>1062.000000</ele>
        <time>2019-05-09T08:00:50Z</time>
      </trkpt>
      <trkpt lat="37.327372" lon="-3.098737">
        <ele>1062.000000</ele>
        <time>2019-05-09T08:00:51Z</time>
      </trkpt>
      <trkpt lat="37.327383" lon="-3.098722">
        <ele>1062.000000</ele>
        <time>2019-05-09T08:00:52Z</time>
      </trkpt>
      <trkpt lat="37.327391" lon="-3.098710">
        <ele>1062.000000</ele>
        <time>2019-05-09T08:00:53Z</time>
      </trkpt>
      <trkpt lat="37.327399" lon="-3.098700">
        <ele>1062.000000</ele>
        <time>2019-05-09T08:00:55Z</time>
      </trkpt>
      <trkpt lat="37.327408" lon="-3.098688">
        <ele>1062.000000</ele>
        <time>2019-05-09T08:00:55Z</time>
      </trkpt>
      <trkpt lat="37.327416" lon="-3.098677">
        <ele>1062.000000</ele>
        <time>2019-05-09T08:00:56Z</time>
      </trkpt>
      <trkpt lat="37.327427" lon="-3.098663">
        <ele>1062.000000</ele>
        <time>2019-05-09T08:00:57Z</time>
      </trkpt>
      <trkpt lat="37.327436" lon="-3.098650">
        <ele>1063.000000</ele>
        <time>2019-05-09T08:00:58Z</time>
      </trkpt>
      <trkpt lat="37.327447" lon="-3.098635">
        <ele>1063.000000</ele>
        <time>2019-05-09T08:00:59Z</time>
      </trkpt>
      <trkpt lat="37.327458" lon="-3.098618">
        <ele>1063.000000</ele>
        <time>2019-05-09T08:01:00Z</time>
      </trkpt>
      <trkpt lat="37.327470" lon="-3.098603">
        <ele>1063.000000</ele>
        <time>2019-05-09T08:01:01Z</time>
      </trkpt>
      <trkpt lat="37.327483" lon="-3.098585">
        <ele>1063.000000</ele>
        <time>2019-05-09T08:01:02Z</time>
      </trkpt>
      <trkpt lat="37.327495" lon="-3.098568">
        <ele>1063.000000</ele>
        <time>2019-05-09T08:01:03Z</time>
      </trkpt>
      <trkpt lat="37.327506" lon="-3.098553">
        <ele>1063.000000</ele>
        <time>2019-05-09T08:01:04Z</time>
      </trkpt>
      <trkpt lat="37.327521" lon="-3.098532">
        <ele>1063.000000</ele>
        <time>2019-05-09T08:01:05Z</time>
      </trkpt>
      <trkpt lat="37.327531" lon="-3.098515">
        <ele>1063.000000</ele>
        <time>2019-05-09T08:01:06Z</time>
      </trkpt>
      <trkpt lat="37.327541" lon="-3.098502">
        <ele>1063.000000</ele>
        <time>2019-05-09T08:01:07Z</time>
      </trkpt>
      <trkpt lat="37.327551" lon="-3.098490">
        <ele>1063.000000</ele>
        <time>2019-05-09T08:01:08Z</time>
      </trkpt>
      <trkpt lat="37.327558" lon="-3.098480">
        <ele>1063.000000</ele>
        <time>2019-05-09T08:01:09Z</time>
      </trkpt>
      <trkpt lat="37.327565" lon="-3.098470">
        <ele>1063.000000</ele>
        <time>2019-05-09T08:01:09Z</time>
      </trkpt>
      <trkpt lat="37.327574" lon="-3.098460">
        <ele>1063.000000</ele>
        <time>2019-05-09T08:01:10Z</time>
      </trkpt>
      <trkpt lat="37.327585" lon="-3.098447">
        <ele>1064.000000</ele>
        <time>2019-05-09T08:01:11Z</time>
      </trkpt>
      <trkpt lat="37.327594" lon="-3.098433">
        <ele>1064.000000</ele>
        <time>2019-05-09T08:01:12Z</time>
      </trkpt>
      <trkpt lat="37.327606" lon="-3.098418">
        <ele>1064.000000</ele>
        <time>2019-05-09T08:01:13Z</time>
      </trkpt>
      <trkpt lat="37.327621" lon="-3.098400">
        <ele>1064.000000</ele>
        <time>2019-05-09T08:01:15Z</time>
      </trkpt>
      <trkpt lat="37.327633" lon="-3.098383">
        <ele>1064.000000</ele>
        <time>2019-05-09T08:01:15Z</time>
      </trkpt>
      <trkpt lat="37.327648" lon="-3.098365">
        <ele>1064.000000</ele>
        <time>2019-05-09T08:01:16Z</time>
      </trkpt>
      <trkpt lat="37.327658" lon="-3.098350">
        <ele>1064.000000</ele>
        <time>2019-05-09T08:01:17Z</time>
      </trkpt>
      <trkpt lat="37.327669" lon="-3.098337">
        <ele>1064.000000</ele>
        <time>2019-05-09T08:01:18Z</time>
      </trkpt>
      <trkpt lat="37.327681" lon="-3.098322">
        <ele>1064.000000</ele>
        <time>2019-05-09T08:01:19Z</time>
      </trkpt>
      <trkpt lat="37.327691" lon="-3.098308">
        <ele>1064.000000</ele>
        <time>2019-05-09T08:01:20Z</time>
      </trkpt>
      <trkpt lat="37.327703" lon="-3.098295">
        <ele>1064.000000</ele>
        <time>2019-05-09T08:01:21Z</time>
      </trkpt>
      <trkpt lat="37.327720" lon="-3.098283">
        <ele>1064.000000</ele>
        <time>2019-05-09T08:01:22Z</time>
      </trkpt>
      <trkpt lat="37.327732" lon="-3.098268">
        <ele>1064.000000</ele>
        <time>2019-05-09T08:01:23Z</time>
      </trkpt>
      <trkpt lat="37.327740" lon="-3.098258">
        <ele>1064.000000</ele>
        <time>2019-05-09T08:01:24Z</time>
      </trkpt>
      <trkpt lat="37.327748" lon="-3.098248">
        <ele>1064.000000</ele>
        <time>2019-05-09T08:01:25Z</time>
      </trkpt>
      <trkpt lat="37.327759" lon="-3.098233">
        <ele>1064.000000</ele>
        <time>2019-05-09T08:01:26Z</time>
      </trkpt>
      <trkpt lat="37.327768" lon="-3.098213">
        <ele>1064.000000</ele>
        <time>2019-05-09T08:01:27Z</time>
      </trkpt>
      <trkpt lat="37.327775" lon="-3.098197">
        <ele>1064.000000</ele>
        <time>2019-05-09T08:01:28Z</time>
      </trkpt>
      <trkpt lat="37.327784" lon="-3.098178">
        <ele>1064.000000</ele>
        <time>2019-05-09T08:01:29Z</time>
      </trkpt>
      <trkpt lat="37.327794" lon="-3.098160">
        <ele>1064.000000</ele>
        <time>2019-05-09T08:01:30Z</time>
      </trkpt>
      <trkpt lat="37.327803" lon="-3.098143">
        <ele>1064.000000</ele>
        <time>2019-05-09T08:01:31Z</time>
      </trkpt>
      <trkpt lat="37.327813" lon="-3.098128">
        <ele>1064.000000</ele>
        <time>2019-05-09T08:01:32Z</time>
      </trkpt>
      <trkpt lat="37.327824" lon="-3.098112">
        <ele>1064.000000</ele>
        <time>2019-05-09T08:01:33Z</time>
      </trkpt>
      <trkpt lat="37.327835" lon="-3.098097">
        <ele>1064.000000</ele>
        <time>2019-05-09T08:01:34Z</time>
      </trkpt>
      <trkpt lat="37.327847" lon="-3.098080">
        <ele>1064.000000</ele>
        <time>2019-05-09T08:01:35Z</time>
      </trkpt>
      <trkpt lat="37.327861" lon="-3.098062">
        <ele>1064.000000</ele>
        <time>2019-05-09T08:01:36Z</time>
      </trkpt>
      <trkpt lat="37.327872" lon="-3.098047">
        <ele>1064.000000</ele>
        <time>2019-05-09T08:01:37Z</time>
      </trkpt>
      <trkpt lat="37.327884" lon="-3.098030">
        <ele>1064.000000</ele>
        <time>2019-05-09T08:01:39Z</time>
      </trkpt>
      <trkpt lat="37.327894" lon="-3.098015">
        <ele>1064.000000</ele>
        <time>2019-05-09T08:01:39Z</time>
      </trkpt>
      <trkpt lat="37.327903" lon="-3.098002">
        <ele>1064.000000</ele>
        <time>2019-05-09T08:01:40Z</time>
      </trkpt>
      <trkpt lat="37.327912" lon="-3.097988">
        <ele>1064.000000</ele>
        <time>2019-05-09T08:01:41Z</time>
      </trkpt>
      <trkpt lat="37.327922" lon="-3.097975">
        <ele>1064.000000</ele>
        <time>2019-05-09T08:01:42Z</time>
      </trkpt>
      <trkpt lat="37.327930" lon="-3.097962">
        <ele>1064.000000</ele>
        <time>2019-05-09T08:01:43Z</time>
      </trkpt>
      <trkpt lat="37.327938" lon="-3.097950">
        <ele>1064.000000</ele>
        <time>2019-05-09T08:01:44Z</time>
      </trkpt>
      <trkpt lat="37.327947" lon="-3.097937">
        <ele>1064.000000</ele>
        <time>2019-05-09T08:01:45Z</time>
      </trkpt>
      <trkpt lat="37.327957" lon="-3.097922">
        <ele>1064.000000</ele>
        <time>2019-05-09T08:01:46Z</time>
      </trkpt>
      <trkpt lat="37.327968" lon="-3.097905">
        <ele>1064.000000</ele>
        <time>2019-05-09T08:01:47Z</time>
      </trkpt>
      <trkpt lat="37.327978" lon="-3.097890">
        <ele>1064.000000</ele>
        <time>2019-05-09T08:01:48Z</time>
      </trkpt>
      <trkpt lat="37.327992" lon="-3.097870">
        <ele>1064.000000</ele>
        <time>2019-05-09T08:01:49Z</time>
      </trkpt>
      <trkpt lat="37.328003" lon="-3.097853">
        <ele>1064.000000</ele>
        <time>2019-05-09T08:01:50Z</time>
      </trkpt>
      <trkpt lat="37.328013" lon="-3.097838">
        <ele>1064.000000</ele>
        <time>2019-05-09T08:01:51Z</time>
      </trkpt>
      <trkpt lat="37.328023" lon="-3.097825">
        <ele>1064.000000</ele>
        <time>2019-05-09T08:01:52Z</time>
      </trkpt>
      <trkpt lat="37.328034" lon="-3.097812">
        <ele>1064.000000</ele>
        <time>2019-05-09T08:01:53Z</time>
      </trkpt>
      <trkpt lat="37.328043" lon="-3.097802">
        <ele>1064.000000</ele>
        <time>2019-05-09T08:01:54Z</time>
      </trkpt>
      <trkpt lat="37.328072" lon="-3.097792">
        <ele>1064.000000</ele>
        <time>2019-05-09T08:01:55Z</time>
      </trkpt>
      <trkpt lat="37.328085" lon="-3.097783">
        <ele>1064.000000</ele>
        <time>2019-05-09T08:01:56Z</time>
      </trkpt>
      <trkpt lat="37.328098" lon="-3.097772">
        <ele>1064.000000</ele>
        <time>2019-05-09T08:01:57Z</time>
      </trkpt>
      <trkpt lat="37.328110" lon="-3.097761">
        <ele>1064.000000</ele>
        <time>2019-05-09T08:01:58Z</time>
      </trkpt>
      <trkpt lat="37.328118" lon="-3.097750">
        <ele>1064.000000</ele>
        <time>2019-05-09T08:02:00Z</time>
      </trkpt>
      <trkpt lat="37.328128" lon="-3.097739">
        <ele>1064.000000</ele>
        <time>2019-05-09T08:02:00Z</time>
      </trkpt>
      <trkpt lat="37.328138" lon="-3.097728">
        <ele>1064.000000</ele>
        <time>2019-05-09T08:02:01Z</time>
      </trkpt>
      <trkpt lat="37.328148" lon="-3.097716">
        <ele>1064.000000</ele>
        <time>2019-05-09T08:02:02Z</time>
      </trkpt>
      <trkpt lat="37.328160" lon="-3.097702">
        <ele>1064.000000</ele>
        <time>2019-05-09T08:02:03Z</time>
      </trkpt>
      <trkpt lat="37.328170" lon="-3.097690">
        <ele>1064.000000</ele>
        <time>2019-05-09T08:02:04Z</time>
      </trkpt>
      <trkpt lat="37.328182" lon="-3.097676">
        <ele>1064.000000</ele>
        <time>2019-05-09T08:02:05Z</time>
      </trkpt>
      <trkpt lat="37.328195" lon="-3.097661">
        <ele>1064.000000</ele>
        <time>2019-05-09T08:02:06Z</time>
      </trkpt>
      <trkpt lat="37.328210" lon="-3.097644">
        <ele>1064.000000</ele>
        <time>2019-05-09T08:02:07Z</time>
      </trkpt>
      <trkpt lat="37.328225" lon="-3.097627">
        <ele>1064.000000</ele>
        <time>2019-05-09T08:02:08Z</time>
      </trkpt>
      <trkpt lat="37.328240" lon="-3.097612">
        <ele>1064.000000</ele>
        <time>2019-05-09T08:02:09Z</time>
      </trkpt>
      <trkpt lat="37.328253" lon="-3.097597">
        <ele>1064.000000</ele>
        <time>2019-05-09T08:02:10Z</time>
      </trkpt>
      <trkpt lat="37.328267" lon="-3.097583">
        <ele>1064.000000</ele>
        <time>2019-05-09T08:02:11Z</time>
      </trkpt>
      <trkpt lat="37.328278" lon="-3.097571">
        <ele>1064.000000</ele>
        <time>2019-05-09T08:02:12Z</time>
      </trkpt>
      <trkpt lat="37.328290" lon="-3.097559">
        <ele>1064.000000</ele>
        <time>2019-05-09T08:02:13Z</time>
      </trkpt>
      <trkpt lat="37.328300" lon="-3.097549">
        <ele>1064.000000</ele>
        <time>2019-05-09T08:02:14Z</time>
      </trkpt>
      <trkpt lat="37.328308" lon="-3.097539">
        <ele>1064.000000</ele>
        <time>2019-05-09T08:02:15Z</time>
      </trkpt>
      <trkpt lat="37.328320" lon="-3.097526">
        <ele>1064.000000</ele>
        <time>2019-05-09T08:02:16Z</time>
      </trkpt>
      <trkpt lat="37.328332" lon="-3.097513">
        <ele>1064.000000</ele>
        <time>2019-05-09T08:02:17Z</time>
      </trkpt>
      <trkpt lat="37.328343" lon="-3.097500">
        <ele>1064.000000</ele>
        <time>2019-05-09T08:02:18Z</time>
      </trkpt>
      <trkpt lat="37.328357" lon="-3.097485">
        <ele>1065.000000</ele>
        <time>2019-05-09T08:02:19Z</time>
      </trkpt>
      <trkpt lat="37.328370" lon="-3.097471">
        <ele>1065.000000</ele>
        <time>2019-05-09T08:02:20Z</time>
      </trkpt>
      <trkpt lat="37.328383" lon="-3.097455">
        <ele>1065.000000</ele>
        <time>2019-05-09T08:02:21Z</time>
      </trkpt>
      <trkpt lat="37.328400" lon="-3.097438">
        <ele>1065.000000</ele>
        <time>2019-05-09T08:02:22Z</time>
      </trkpt>
      <trkpt lat="37.328415" lon="-3.097421">
        <ele>1065.000000</ele>
        <time>2019-05-09T08:02:24Z</time>
      </trkpt>
      <trkpt lat="37.328430" lon="-3.097406">
        <ele>1065.000000</ele>
        <time>2019-05-09T08:02:24Z</time>
      </trkpt>
      <trkpt lat="37.328438" lon="-3.097398">
        <ele>1065.000000</ele>
        <time>2019-05-09T08:02:25Z</time>
      </trkpt>
      <trkpt lat="37.328450" lon="-3.097384">
        <ele>1065.000000</ele>
        <time>2019-05-09T08:02:26Z</time>
      </trkpt>
      <trkpt lat="37.328462" lon="-3.097371">
        <ele>1065.000000</ele>
        <time>2019-05-09T08:02:27Z</time>
      </trkpt>
      <trkpt lat="37.328472" lon="-3.097360">
        <ele>1065.000000</ele>
        <time>2019-05-09T08:02:28Z</time>
      </trkpt>
      <trkpt lat="37.328485" lon="-3.097345">
        <ele>1065.000000</ele>
        <time>2019-05-09T08:02:29Z</time>
      </trkpt>
      <trkpt lat="37.328492" lon="-3.097336">
        <ele>1065.000000</ele>
        <time>2019-05-09T08:02:30Z</time>
      </trkpt>
      <trkpt lat="37.328502" lon="-3.097324">
        <ele>1065.000000</ele>
        <time>2019-05-09T08:02:31Z</time>
      </trkpt>
      <trkpt lat="37.328512" lon="-3.097312">
        <ele>1065.000000</ele>
        <time>2019-05-09T08:02:32Z</time>
      </trkpt>
      <trkpt lat="37.328522" lon="-3.097300">
        <ele>1065.000000</ele>
        <time>2019-05-09T08:02:33Z</time>
      </trkpt>
      <trkpt lat="37.328533" lon="-3.097285">
        <ele>1066.000000</ele>
        <time>2019-05-09T08:02:34Z</time>
      </trkpt>
      <trkpt lat="37.328545" lon="-3.097258">
        <ele>1066.000000</ele>
        <time>2019-05-09T08:02:35Z</time>
      </trkpt>
      <trkpt lat="37.328558" lon="-3.097242">
        <ele>1066.000000</ele>
        <time>2019-05-09T08:02:36Z</time>
      </trkpt>
      <trkpt lat="37.328570" lon="-3.097227">
        <ele>1066.000000</ele>
        <time>2019-05-09T08:02:37Z</time>
      </trkpt>
      <trkpt lat="37.328583" lon="-3.097215">
        <ele>1066.000000</ele>
        <time>2019-05-09T08:02:38Z</time>
      </trkpt>
      <trkpt lat="37.328598" lon="-3.097203">
        <ele>1066.000000</ele>
        <time>2019-05-09T08:02:39Z</time>
      </trkpt>
      <trkpt lat="37.328613" lon="-3.097190">
        <ele>1066.000000</ele>
        <time>2019-05-09T08:02:40Z</time>
      </trkpt>
      <trkpt lat="37.328625" lon="-3.097176">
        <ele>1066.000000</ele>
        <time>2019-05-09T08:02:41Z</time>
      </trkpt>
      <trkpt lat="37.328635" lon="-3.097164">
        <ele>1066.000000</ele>
        <time>2019-05-09T08:02:42Z</time>
      </trkpt>
      <trkpt lat="37.328645" lon="-3.097151">
        <ele>1066.000000</ele>
        <time>2019-05-09T08:02:43Z</time>
      </trkpt>
      <trkpt lat="37.328655" lon="-3.097137">
        <ele>1066.000000</ele>
        <time>2019-05-09T08:02:44Z</time>
      </trkpt>
      <trkpt lat="37.328670" lon="-3.097120">
        <ele>1066.000000</ele>
        <time>2019-05-09T08:02:45Z</time>
      </trkpt>
      <trkpt lat="37.328683" lon="-3.097105">
        <ele>1066.000000</ele>
        <time>2019-05-09T08:02:46Z</time>
      </trkpt>
      <trkpt lat="37.328698" lon="-3.097088">
        <ele>1066.000000</ele>
        <time>2019-05-09T08:02:47Z</time>
      </trkpt>
      <trkpt lat="37.328708" lon="-3.097075">
        <ele>1066.000000</ele>
        <time>2019-05-09T08:02:49Z</time>
      </trkpt>
      <trkpt lat="37.328720" lon="-3.097060">
        <ele>1066.000000</ele>
        <time>2019-05-09T08:02:49Z</time>
      </trkpt>
      <trkpt lat="37.328732" lon="-3.097043">
        <ele>1066.000000</ele>
        <time>2019-05-09T08:02:50Z</time>
      </trkpt>
      <trkpt lat="37.328740" lon="-3.097028">
        <ele>1066.000000</ele>
        <time>2019-05-09T08:02:51Z</time>
      </trkpt>
      <trkpt lat="37.328749" lon="-3.097015">
        <ele>1066.000000</ele>
        <time>2019-05-09T08:02:52Z</time>
      </trkpt>
      <trkpt lat="37.328759" lon="-3.097002">
        <ele>1066.000000</ele>
        <time>2019-05-09T08:02:53Z</time>
      </trkpt>
      <trkpt lat="37.328768" lon="-3.096990">
        <ele>1066.000000</ele>
        <time>2019-05-09T08:02:54Z</time>
      </trkpt>
      <trkpt lat="37.328778" lon="-3.096977">
        <ele>1066.000000</ele>
        <time>2019-05-09T08:02:55Z</time>
      </trkpt>
      <trkpt lat="37.328788" lon="-3.096963">
        <ele>1066.000000</ele>
        <time>2019-05-09T08:02:56Z</time>
      </trkpt>
      <trkpt lat="37.328801" lon="-3.096948">
        <ele>1066.000000</ele>
        <time>2019-05-09T08:02:57Z</time>
      </trkpt>
      <trkpt lat="37.328816" lon="-3.096928">
        <ele>1066.000000</ele>
        <time>2019-05-09T08:02:58Z</time>
      </trkpt>
      <trkpt lat="37.328827" lon="-3.096915">
        <ele>1066.000000</ele>
        <time>2019-05-09T08:02:59Z</time>
      </trkpt>
      <trkpt lat="37.328843" lon="-3.096895">
        <ele>1066.000000</ele>
        <time>2019-05-09T08:03:00Z</time>
      </trkpt>
      <trkpt lat="37.328855" lon="-3.096878">
        <ele>1066.000000</ele>
        <time>2019-05-09T08:03:01Z</time>
      </trkpt>
      <trkpt lat="37.328864" lon="-3.096867">
        <ele>1066.000000</ele>
        <time>2019-05-09T08:03:02Z</time>
      </trkpt>
      <trkpt lat="37.328874" lon="-3.096855">
        <ele>1066.000000</ele>
        <time>2019-05-09T08:03:03Z</time>
      </trkpt>
      <trkpt lat="37.328883" lon="-3.096843">
        <ele>1066.000000</ele>
        <time>2019-05-09T08:03:04Z</time>
      </trkpt>
      <trkpt lat="37.328893" lon="-3.096833">
        <ele>1066.000000</ele>
        <time>2019-05-09T08:03:05Z</time>
      </trkpt>
      <trkpt lat="37.328901" lon="-3.096823">
        <ele>1066.000000</ele>
        <time>2019-05-09T08:03:06Z</time>
      </trkpt>
      <trkpt lat="37.328914" lon="-3.096807">
        <ele>1066.000000</ele>
        <time>2019-05-09T08:03:07Z</time>
      </trkpt>
      <trkpt lat="37.328927" lon="-3.096788">
        <ele>1066.000000</ele>
        <time>2019-05-09T08:03:08Z</time>
      </trkpt>
      <trkpt lat="37.328938" lon="-3.096773">
        <ele>1066.000000</ele>
        <time>2019-05-09T08:03:10Z</time>
      </trkpt>
      <trkpt lat="37.328950" lon="-3.096757">
        <ele>1066.000000</ele>
        <time>2019-05-09T08:03:10Z</time>
      </trkpt>
      <trkpt lat="37.328964" lon="-3.096737">
        <ele>1066.000000</ele>
        <time>2019-05-09T08:03:11Z</time>
      </trkpt>
      <trkpt lat="37.328978" lon="-3.096717">
        <ele>1066.000000</ele>
        <time>2019-05-09T08:03:12Z</time>
      </trkpt>
      <trkpt lat="37.328991" lon="-3.096697">
        <ele>1066.000000</ele>
        <time>2019-05-09T08:03:13Z</time>
      </trkpt>
      <trkpt lat="37.329002" lon="-3.096680">
        <ele>1066.000000</ele>
        <time>2019-05-09T08:03:14Z</time>
      </trkpt>
      <trkpt lat="37.329009" lon="-3.096668">
        <ele>1066.000000</ele>
        <time>2019-05-09T08:03:15Z</time>
      </trkpt>
      <trkpt lat="37.329022" lon="-3.096648">
        <ele>1066.000000</ele>
        <time>2019-05-09T08:03:16Z</time>
      </trkpt>
      <trkpt lat="37.329030" lon="-3.096635">
        <ele>1066.000000</ele>
        <time>2019-05-09T08:03:17Z</time>
      </trkpt>
      <trkpt lat="37.329039" lon="-3.096618">
        <ele>1066.000000</ele>
        <time>2019-05-09T08:03:18Z</time>
      </trkpt>
      <trkpt lat="37.329050" lon="-3.096600">
        <ele>1066.000000</ele>
        <time>2019-05-09T08:03:19Z</time>
      </trkpt>
      <trkpt lat="37.329062" lon="-3.096582">
        <ele>1066.000000</ele>
        <time>2019-05-09T08:03:20Z</time>
      </trkpt>
      <trkpt lat="37.329070" lon="-3.096568">
        <ele>1067.000000</ele>
        <time>2019-05-09T08:03:21Z</time>
      </trkpt>
      <trkpt lat="37.329084" lon="-3.096547">
        <ele>1067.000000</ele>
        <time>2019-05-09T08:03:22Z</time>
      </trkpt>
      <trkpt lat="37.329096" lon="-3.096527">
        <ele>1067.000000</ele>
        <time>2019-05-09T08:03:23Z</time>
      </trkpt>
      <trkpt lat="37.329103" lon="-3.096515">
        <ele>1067.000000</ele>
        <time>2019-05-09T08:03:24Z</time>
      </trkpt>
      <trkpt lat="37.329112" lon="-3.096502">
        <ele>1067.000000</ele>
        <time>2019-05-09T08:03:25Z</time>
      </trkpt>
      <trkpt lat="37.329120" lon="-3.096490">
        <ele>1067.000000</ele>
        <time>2019-05-09T08:03:26Z</time>
      </trkpt>
      <trkpt lat="37.329129" lon="-3.096477">
        <ele>1067.000000</ele>
        <time>2019-05-09T08:03:27Z</time>
      </trkpt>
      <trkpt lat="37.329142" lon="-3.096458">
        <ele>1067.000000</ele>
        <time>2019-05-09T08:03:28Z</time>
      </trkpt>
      <trkpt lat="37.329152" lon="-3.096443">
        <ele>1067.000000</ele>
        <time>2019-05-09T08:03:29Z</time>
      </trkpt>
      <trkpt lat="37.329162" lon="-3.096427">
        <ele>1067.000000</ele>
        <time>2019-05-09T08:03:30Z</time>
      </trkpt>
      <trkpt lat="37.329174" lon="-3.096410">
        <ele>1067.000000</ele>
        <time>2019-05-09T08:03:31Z</time>
      </trkpt>
      <trkpt lat="37.329186" lon="-3.096392">
        <ele>1067.000000</ele>
        <time>2019-05-09T08:03:32Z</time>
      </trkpt>
      <trkpt lat="37.329194" lon="-3.096378">
        <ele>1067.000000</ele>
        <time>2019-05-09T08:03:33Z</time>
      </trkpt>
      <trkpt lat="37.329205" lon="-3.096362">
        <ele>1067.000000</ele>
        <time>2019-05-09T08:03:35Z</time>
      </trkpt>
      <trkpt lat="37.329214" lon="-3.096348">
        <ele>1067.000000</ele>
        <time>2019-05-09T08:03:35Z</time>
      </trkpt>
      <trkpt lat="37.329224" lon="-3.096333">
        <ele>1067.000000</ele>
        <time>2019-05-09T08:03:36Z</time>
      </trkpt>
      <trkpt lat="37.329236" lon="-3.096315">
        <ele>1067.000000</ele>
        <time>2019-05-09T08:03:37Z</time>
      </trkpt>
      <trkpt lat="37.329246" lon="-3.096300">
        <ele>1067.000000</ele>
        <time>2019-05-09T08:03:38Z</time>
      </trkpt>
      <trkpt lat="37.329255" lon="-3.096288">
        <ele>1067.000000</ele>
        <time>2019-05-09T08:03:39Z</time>
      </trkpt>
      <trkpt lat="37.329265" lon="-3.096273">
        <ele>1067.000000</ele>
        <time>2019-05-09T08:03:40Z</time>
      </trkpt>
      <trkpt lat="37.329275" lon="-3.096260">
        <ele>1067.000000</ele>
        <time>2019-05-09T08:03:41Z</time>
      </trkpt>
      <trkpt lat="37.329283" lon="-3.096248">
        <ele>1067.000000</ele>
        <time>2019-05-09T08:03:42Z</time>
      </trkpt>
      <trkpt lat="37.329289" lon="-3.096240">
        <ele>1067.000000</ele>
        <time>2019-05-09T08:03:43Z</time>
      </trkpt>
      <trkpt lat="37.329296" lon="-3.096232">
        <ele>1067.000000</ele>
        <time>2019-05-09T08:03:44Z</time>
      </trkpt>
      <trkpt lat="37.329305" lon="-3.096218">
        <ele>1067.000000</ele>
        <time>2019-05-09T08:03:45Z</time>
      </trkpt>
      <trkpt lat="37.329316" lon="-3.096203">
        <ele>1067.000000</ele>
        <time>2019-05-09T08:03:46Z</time>
      </trkpt>
      <trkpt lat="37.329326" lon="-3.096188">
        <ele>1067.000000</ele>
        <time>2019-05-09T08:03:47Z</time>
      </trkpt>
      <trkpt lat="37.329340" lon="-3.096168">
        <ele>1067.000000</ele>
        <time>2019-05-09T08:03:48Z</time>
      </trkpt>
      <trkpt lat="37.329352" lon="-3.096152">
        <ele>1067.000000</ele>
        <time>2019-05-09T08:03:49Z</time>
      </trkpt>
      <trkpt lat="37.329368" lon="-3.096130">
        <ele>1068.000000</ele>
        <time>2019-05-09T08:03:50Z</time>
      </trkpt>
      <trkpt lat="37.329381" lon="-3.096112">
        <ele>1068.000000</ele>
        <time>2019-05-09T08:03:51Z</time>
      </trkpt>
      <trkpt lat="37.329391" lon="-3.096097">
        <ele>1068.000000</ele>
        <time>2019-05-09T08:03:52Z</time>
      </trkpt>
      <trkpt lat="37.329399" lon="-3.096085">
        <ele>1068.000000</ele>
        <time>2019-05-09T08:03:53Z</time>
      </trkpt>
      <trkpt lat="37.329423" lon="-3.096073">
        <ele>1068.000000</ele>
        <time>2019-05-09T08:03:54Z</time>
      </trkpt>
      <trkpt lat="37.329433" lon="-3.096062">
        <ele>1068.000000</ele>
        <time>2019-05-09T08:03:56Z</time>
      </trkpt>
      <trkpt lat="37.329443" lon="-3.096051">
        <ele>1068.000000</ele>
        <time>2019-05-09T08:03:56Z</time>
      </trkpt>
      <trkpt lat="37.329453" lon="-3.096039">
        <ele>1068.000000</ele>
        <time>2019-05-09T08:03:57Z</time>
      </trkpt>
      <trkpt lat="37.329462" lon="-3.096028">
        <ele>1068.000000</ele>
        <time>2019-05-09T08:03:58Z</time>
      </trkpt>
      <trkpt lat="37.329468" lon="-3.096012">
        <ele>1068.000000</ele>
        <time>2019-05-09T08:03:59Z</time>
      </trkpt>
      <trkpt lat="37.329476" lon="-3.095993">
        <ele>1068.000000</ele>
        <time>2019-05-09T08:04:00Z</time>
      </trkpt>
      <trkpt lat="37.329486" lon="-3.095975">
        <ele>1068.000000</ele>
        <time>2019-05-09T08:04:01Z</time>
      </trkpt>
      <trkpt lat="37.329497" lon="-3.095960">
        <ele>1068.000000</ele>
        <time>2019-05-09T08:04:02Z</time>
      </trkpt>
      <trkpt lat="37.329508" lon="-3.095942">
        <ele>1068.000000</ele>
        <time>2019-05-09T08:04:03Z</time>
      </trkpt>
      <trkpt lat="37.329519" lon="-3.095923">
        <ele>1068.000000</ele>
        <time>2019-05-09T08:04:04Z</time>
      </trkpt>
      <trkpt lat="37.329532" lon="-3.095907">
        <ele>1068.000000</ele>
        <time>2019-05-09T08:04:05Z</time>
      </trkpt>
      <trkpt lat="37.329545" lon="-3.095890">
        <ele>1068.000000</ele>
        <time>2019-05-09T08:04:06Z</time>
      </trkpt>
      <trkpt lat="37.329560" lon="-3.095872">
        <ele>1068.000000</ele>
        <time>2019-05-09T08:04:07Z</time>
      </trkpt>
      <trkpt lat="37.329571" lon="-3.095857">
        <ele>1068.000000</ele>
        <time>2019-05-09T08:04:08Z</time>
      </trkpt>
      <trkpt lat="37.329581" lon="-3.095842">
        <ele>1068.000000</ele>
        <time>2019-05-09T08:04:09Z</time>
      </trkpt>
      <trkpt lat="37.329592" lon="-3.095825">
        <ele>1068.000000</ele>
        <time>2019-05-09T08:04:10Z</time>
      </trkpt>
      <trkpt lat="37.329602" lon="-3.095810">
        <ele>1068.000000</ele>
        <time>2019-05-09T08:04:11Z</time>
      </trkpt>
      <trkpt lat="37.329610" lon="-3.095795">
        <ele>1068.000000</ele>
        <time>2019-05-09T08:04:12Z</time>
      </trkpt>
      <trkpt lat="37.329618" lon="-3.095782">
        <ele>1068.000000</ele>
        <time>2019-05-09T08:04:13Z</time>
      </trkpt>
      <trkpt lat="37.329628" lon="-3.095765">
        <ele>1068.000000</ele>
        <time>2019-05-09T08:04:14Z</time>
      </trkpt>
      <trkpt lat="37.329638" lon="-3.095747">
        <ele>1068.000000</ele>
        <time>2019-05-09T08:04:15Z</time>
      </trkpt>
      <trkpt lat="37.329648" lon="-3.095727">
        <ele>1068.000000</ele>
        <time>2019-05-09T08:04:16Z</time>
      </trkpt>
      <trkpt lat="37.329657" lon="-3.095708">
        <ele>1068.000000</ele>
        <time>2019-05-09T08:04:17Z</time>
      </trkpt>
      <trkpt lat="37.329668" lon="-3.095687">
        <ele>1069.000000</ele>
        <time>2019-05-09T08:04:18Z</time>
      </trkpt>
      <trkpt lat="37.329679" lon="-3.095665">
        <ele>1069.000000</ele>
        <time>2019-05-09T08:04:20Z</time>
      </trkpt>
      <trkpt lat="37.329689" lon="-3.095643">
        <ele>1069.000000</ele>
        <time>2019-05-09T08:04:20Z</time>
      </trkpt>
      <trkpt lat="37.329699" lon="-3.095622">
        <ele>1069.000000</ele>
        <time>2019-05-09T08:04:21Z</time>
      </trkpt>
      <trkpt lat="37.329707" lon="-3.095603">
        <ele>1069.000000</ele>
        <time>2019-05-09T08:04:22Z</time>
      </trkpt>
      <trkpt lat="37.329717" lon="-3.095583">
        <ele>1069.000000</ele>
        <time>2019-05-09T08:04:23Z</time>
      </trkpt>
      <trkpt lat="37.329725" lon="-3.095568">
        <ele>1069.000000</ele>
        <time>2019-05-09T08:04:24Z</time>
      </trkpt>
      <trkpt lat="37.329735" lon="-3.095552">
        <ele>1069.000000</ele>
        <time>2019-05-09T08:04:25Z</time>
      </trkpt>
      <trkpt lat="37.329744" lon="-3.095535">
        <ele>1069.000000</ele>
        <time>2019-05-09T08:04:26Z</time>
      </trkpt>
      <trkpt lat="37.329753" lon="-3.095522">
        <ele>1069.000000</ele>
        <time>2019-05-09T08:04:27Z</time>
      </trkpt>
      <trkpt lat="37.329761" lon="-3.095510">
        <ele>1069.000000</ele>
        <time>2019-05-09T08:04:28Z</time>
      </trkpt>
      <trkpt lat="37.329768" lon="-3.095500">
        <ele>1069.000000</ele>
        <time>2019-05-09T08:04:29Z</time>
      </trkpt>
      <trkpt lat="37.329777" lon="-3.095488">
        <ele>1069.000000</ele>
        <time>2019-05-09T08:04:30Z</time>
      </trkpt>
      <trkpt lat="37.329808" lon="-3.095482">
        <ele>1069.000000</ele>
        <time>2019-05-09T08:04:31Z</time>
      </trkpt>
      <trkpt lat="37.329823" lon="-3.095480">
        <ele>1069.000000</ele>
        <time>2019-05-09T08:04:32Z</time>
      </trkpt>
      <trkpt lat="37.329840" lon="-3.095481">
        <ele>1069.000000</ele>
        <time>2019-05-09T08:04:33Z</time>
      </trkpt>
      <trkpt lat="37.329855" lon="-3.095483">
        <ele>1069.000000</ele>
        <time>2019-05-09T08:04:34Z</time>
      </trkpt>
      <trkpt lat="37.329873" lon="-3.095487">
        <ele>1069.000000</ele>
        <time>2019-05-09T08:04:35Z</time>
      </trkpt>
      <trkpt lat="37.329890" lon="-3.095492">
        <ele>1069.000000</ele>
        <time>2019-05-09T08:04:36Z</time>
      </trkpt>
      <trkpt lat="37.329907" lon="-3.095497">
        <ele>1069.000000</ele>
        <time>2019-05-09T08:04:37Z</time>
      </trkpt>
      <trkpt lat="37.329923" lon="-3.095508">
        <ele>1069.000000</ele>
        <time>2019-05-09T08:04:38Z</time>
      </trkpt>
      <trkpt lat="37.329942" lon="-3.095520">
        <ele>1069.000000</ele>
        <time>2019-05-09T08:04:39Z</time>
      </trkpt>
      <trkpt lat="37.329957" lon="-3.095528">
        <ele>1069.000000</ele>
        <time>2019-05-09T08:04:40Z</time>
      </trkpt>
      <trkpt lat="37.329973" lon="-3.095537">
        <ele>1069.000000</ele>
        <time>2019-05-09T08:04:41Z</time>
      </trkpt>
      <trkpt lat="37.329992" lon="-3.095548">
        <ele>1069.000000</ele>
        <time>2019-05-09T08:04:42Z</time>
      </trkpt>
      <trkpt lat="37.330012" lon="-3.095562">
        <ele>1069.000000</ele>
        <time>2019-05-09T08:04:44Z</time>
      </trkpt>
      <trkpt lat="37.330028" lon="-3.095573">
        <ele>1069.000000</ele>
        <time>2019-05-09T08:04:44Z</time>
      </trkpt>
      <trkpt lat="37.330043" lon="-3.095584">
        <ele>1069.000000</ele>
        <time>2019-05-09T08:04:45Z</time>
      </trkpt>
      <trkpt lat="37.330057" lon="-3.095595">
        <ele>1069.000000</ele>
        <time>2019-05-09T08:04:46Z</time>
      </trkpt>
      <trkpt lat="37.330070" lon="-3.095608">
        <ele>1069.000000</ele>
        <time>2019-05-09T08:04:47Z</time>
      </trkpt>
      <trkpt lat="37.330083" lon="-3.095622">
        <ele>1069.000000</ele>
        <time>2019-05-09T08:04:48Z</time>
      </trkpt>
      <trkpt lat="37.330097" lon="-3.095635">
        <ele>1069.000000</ele>
        <time>2019-05-09T08:04:49Z</time>
      </trkpt>
      <trkpt lat="37.330108" lon="-3.095648">
        <ele>1069.000000</ele>
        <time>2019-05-09T08:04:50Z</time>
      </trkpt>
      <trkpt lat="37.330118" lon="-3.095658">
        <ele>1069.000000</ele>
        <time>2019-05-09T08:04:51Z</time>
      </trkpt>
      <trkpt lat="37.330125" lon="-3.095666">
        <ele>1069.000000</ele>
        <time>2019-05-09T08:04:52Z</time>
      </trkpt>
      <trkpt lat="37.330135" lon="-3.095676">
        <ele>1069.000000</ele>
        <time>2019-05-09T08:04:53Z</time>
      </trkpt>
      <trkpt lat="37.330147" lon="-3.095688">
        <ele>1069.000000</ele>
        <time>2019-05-09T08:04:54Z</time>
      </trkpt>
      <trkpt lat="37.330160" lon="-3.095702">
        <ele>1069.000000</ele>
        <time>2019-05-09T08:04:55Z</time>
      </trkpt>
      <trkpt lat="37.330173" lon="-3.095717">
        <ele>1069.000000</ele>
        <time>2019-05-09T08:04:56Z</time>
      </trkpt>
      <trkpt lat="37.330187" lon="-3.095731">
        <ele>1068.000000</ele>
        <time>2019-05-09T08:04:57Z</time>
      </trkpt>
      <trkpt lat="37.330200" lon="-3.095745">
        <ele>1068.000000</ele>
        <time>2019-05-09T08:04:58Z</time>
      </trkpt>
      <trkpt lat="37.330212" lon="-3.095758">
        <ele>1067.000000</ele>
        <time>2019-05-09T08:04:59Z</time>
      </trkpt>
      <trkpt lat="37.330227" lon="-3.095774">
        <ele>1067.000000</ele>
        <time>2019-05-09T08:05:00Z</time>
      </trkpt>
      <trkpt lat="37.330240" lon="-3.095789">
        <ele>1067.000000</ele>
        <time>2019-05-09T08:05:01Z</time>
      </trkpt>
      <trkpt lat="37.330252" lon="-3.095801">
        <ele>1066.000000</ele>
        <time>2019-05-09T08:05:02Z</time>
      </trkpt>
      <trkpt lat="37.330265" lon="-3.095814">
        <ele>1066.000000</ele>
        <time>2019-05-09T08:05:03Z</time>
      </trkpt>
      <trkpt lat="37.330278" lon="-3.095826">
        <ele>1066.000000</ele>
        <time>2019-05-09T08:05:05Z</time>
      </trkpt>
      <trkpt lat="37.330288" lon="-3.095835">
        <ele>1066.000000</ele>
        <time>2019-05-09T08:05:05Z</time>
      </trkpt>
      <trkpt lat="37.330292" lon="-3.095840">
        <ele>1066.000000</ele>
        <time>2019-05-09T08:05:06Z</time>
      </trkpt>
      <trkpt lat="37.330297" lon="-3.095847">
        <ele>1066.000000</ele>
        <time>2019-05-09T08:05:07Z</time>
      </trkpt>
      <trkpt lat="37.330378" lon="-3.096268">
        <ele>1066.000000</ele>
        <time>2019-05-09T08:05:26Z</time>
      </trkpt>
      <trkpt lat="37.330407" lon="-3.096303">
        <ele>1066.000000</ele>
        <time>2019-05-09T08:05:27Z</time>
      </trkpt>
      <trkpt lat="37.330420" lon="-3.096327">
        <ele>1065.000000</ele>
        <time>2019-05-09T08:05:28Z</time>
      </trkpt>
      <trkpt lat="37.330423" lon="-3.096348">
        <ele>1065.000000</ele>
        <time>2019-05-09T08:05:29Z</time>
      </trkpt>
      <trkpt lat="37.330428" lon="-3.096367">
        <ele>1065.000000</ele>
        <time>2019-05-09T08:05:30Z</time>
      </trkpt>
      <trkpt lat="37.330442" lon="-3.096388">
        <ele>1065.000000</ele>
        <time>2019-05-09T08:05:31Z</time>
      </trkpt>
      <trkpt lat="37.330448" lon="-3.096407">
        <ele>1065.000000</ele>
        <time>2019-05-09T08:05:32Z</time>
      </trkpt>
      <trkpt lat="37.330449" lon="-3.096418">
        <ele>1065.000000</ele>
        <time>2019-05-09T08:05:33Z</time>
      </trkpt>
      <trkpt lat="37.330446" lon="-3.096430">
        <ele>1065.000000</ele>
        <time>2019-05-09T08:05:34Z</time>
      </trkpt>
      <trkpt lat="37.330443" lon="-3.096448">
        <ele>1065.000000</ele>
        <time>2019-05-09T08:05:35Z</time>
      </trkpt>
      <trkpt lat="37.330442" lon="-3.096463">
        <ele>1065.000000</ele>
        <time>2019-05-09T08:05:36Z</time>
      </trkpt>
      <trkpt lat="37.330441" lon="-3.096473">
        <ele>1065.000000</ele>
        <time>2019-05-09T08:05:37Z</time>
      </trkpt>
      <trkpt lat="37.330442" lon="-3.096492">
        <ele>1065.000000</ele>
        <time>2019-05-09T08:05:38Z</time>
      </trkpt>
      <trkpt lat="37.330442" lon="-3.096507">
        <ele>1065.000000</ele>
        <time>2019-05-09T08:05:39Z</time>
      </trkpt>
      <trkpt lat="37.330441" lon="-3.096522">
        <ele>1065.000000</ele>
        <time>2019-05-09T08:05:40Z</time>
      </trkpt>
      <trkpt lat="37.330440" lon="-3.096540">
        <ele>1065.000000</ele>
        <time>2019-05-09T08:05:42Z</time>
      </trkpt>
      <trkpt lat="37.330439" lon="-3.096560">
        <ele>1065.000000</ele>
        <time>2019-05-09T08:05:42Z</time>
      </trkpt>
      <trkpt lat="37.330437" lon="-3.096580">
        <ele>1065.000000</ele>
        <time>2019-05-09T08:05:43Z</time>
      </trkpt>
      <trkpt lat="37.330436" lon="-3.096603">
        <ele>1065.000000</ele>
        <time>2019-05-09T08:05:44Z</time>
      </trkpt>
      <trkpt lat="37.330435" lon="-3.096615">
        <ele>1065.000000</ele>
        <time>2019-05-09T08:05:45Z</time>
      </trkpt>
      <trkpt lat="37.330433" lon="-3.096635">
        <ele>1065.000000</ele>
        <time>2019-05-09T08:05:46Z</time>
      </trkpt>
      <trkpt lat="37.330430" lon="-3.096660">
        <ele>1065.000000</ele>
        <time>2019-05-09T08:05:47Z</time>
      </trkpt>
      <trkpt lat="37.330426" lon="-3.096683">
        <ele>1065.000000</ele>
        <time>2019-05-09T08:05:48Z</time>
      </trkpt>
      <trkpt lat="37.330422" lon="-3.096707">
        <ele>1065.000000</ele>
        <time>2019-05-09T08:05:49Z</time>
      </trkpt>
      <trkpt lat="37.330417" lon="-3.096727">
        <ele>1065.000000</ele>
        <time>2019-05-09T08:05:50Z</time>
      </trkpt>
      <trkpt lat="37.330413" lon="-3.096743">
        <ele>1065.000000</ele>
        <time>2019-05-09T08:05:51Z</time>
      </trkpt>
      <trkpt lat="37.330409" lon="-3.096762">
        <ele>1065.000000</ele>
        <time>2019-05-09T08:05:52Z</time>
      </trkpt>
      <trkpt lat="37.330403" lon="-3.096780">
        <ele>1065.000000</ele>
        <time>2019-05-09T08:05:53Z</time>
      </trkpt>
      <trkpt lat="37.330398" lon="-3.096795">
        <ele>1066.000000</ele>
        <time>2019-05-09T08:05:54Z</time>
      </trkpt>
      <trkpt lat="37.330392" lon="-3.096803">
        <ele>1066.000000</ele>
        <time>2019-05-09T08:05:55Z</time>
      </trkpt>
      <trkpt lat="37.330388" lon="-3.096807">
        <ele>1066.000000</ele>
        <time>2019-05-09T08:05:56Z</time>
      </trkpt>
      <trkpt lat="37.330347" lon="-3.096810">
        <ele>1066.000000</ele>
        <time>2019-05-09T08:05:57Z</time>
      </trkpt>
      <trkpt lat="37.330337" lon="-3.096812">
        <ele>1066.000000</ele>
        <time>2019-05-09T08:05:58Z</time>
      </trkpt>
      <trkpt lat="37.330323" lon="-3.096812">
        <ele>1066.000000</ele>
        <time>2019-05-09T08:05:59Z</time>
      </trkpt>
      <trkpt lat="37.330312" lon="-3.096810">
        <ele>1066.000000</ele>
        <time>2019-05-09T08:06:00Z</time>
      </trkpt>
      <trkpt lat="37.330298" lon="-3.096808">
        <ele>1067.000000</ele>
        <time>2019-05-09T08:06:02Z</time>
      </trkpt>
      <trkpt lat="37.330285" lon="-3.096805">
        <ele>1067.000000</ele>
        <time>2019-05-09T08:06:02Z</time>
      </trkpt>
      <trkpt lat="37.330273" lon="-3.096800">
        <ele>1067.000000</ele>
        <time>2019-05-09T08:06:03Z</time>
      </trkpt>
      <trkpt lat="37.330260" lon="-3.096795">
        <ele>1067.000000</ele>
        <time>2019-05-09T08:06:04Z</time>
      </trkpt>
      <trkpt lat="37.330243" lon="-3.096790">
        <ele>1067.000000</ele>
        <time>2019-05-09T08:06:05Z</time>
      </trkpt>
      <trkpt lat="37.330227" lon="-3.096785">
        <ele>1067.000000</ele>
        <time>2019-05-09T08:06:06Z</time>
      </trkpt>
      <trkpt lat="37.330207" lon="-3.096781">
        <ele>1068.000000</ele>
        <time>2019-05-09T08:06:07Z</time>
      </trkpt>
      <trkpt lat="37.330187" lon="-3.096776">
        <ele>1068.000000</ele>
        <time>2019-05-09T08:06:08Z</time>
      </trkpt>
      <trkpt lat="37.330168" lon="-3.096772">
        <ele>1068.000000</ele>
        <time>2019-05-09T08:06:09Z</time>
      </trkpt>
      <trkpt lat="37.330150" lon="-3.096767">
        <ele>1068.000000</ele>
        <time>2019-05-09T08:06:10Z</time>
      </trkpt>
      <trkpt lat="37.330132" lon="-3.096761">
        <ele>1068.000000</ele>
        <time>2019-05-09T08:06:11Z</time>
      </trkpt>
      <trkpt lat="37.330117" lon="-3.096754">
        <ele>1068.000000</ele>
        <time>2019-05-09T08:06:12Z</time>
      </trkpt>
      <trkpt lat="37.330100" lon="-3.096746">
        <ele>1068.000000</ele>
        <time>2019-05-09T08:06:13Z</time>
      </trkpt>
      <trkpt lat="37.330083" lon="-3.096740">
        <ele>1068.000000</ele>
        <time>2019-05-09T08:06:14Z</time>
      </trkpt>
      <trkpt lat="37.330068" lon="-3.096734">
        <ele>1068.000000</ele>
        <time>2019-05-09T08:06:15Z</time>
      </trkpt>
      <trkpt lat="37.330052" lon="-3.096729">
        <ele>1068.000000</ele>
        <time>2019-05-09T08:06:16Z</time>
      </trkpt>
      <trkpt lat="37.330035" lon="-3.096724">
        <ele>1068.000000</ele>
        <time>2019-05-09T08:06:17Z</time>
      </trkpt>
      <trkpt lat="37.330020" lon="-3.096720">
        <ele>1068.000000</ele>
        <time>2019-05-09T08:06:18Z</time>
      </trkpt>
      <trkpt lat="37.330007" lon="-3.096716">
        <ele>1068.000000</ele>
        <time>2019-05-09T08:06:19Z</time>
      </trkpt>
      <trkpt lat="37.329990" lon="-3.096713">
        <ele>1068.000000</ele>
        <time>2019-05-09T08:06:20Z</time>
      </trkpt>
      <trkpt lat="37.329975" lon="-3.096710">
        <ele>1068.000000</ele>
        <time>2019-05-09T08:06:21Z</time>
      </trkpt>
      <trkpt lat="37.329958" lon="-3.096708">
        <ele>1068.000000</ele>
        <time>2019-05-09T08:06:22Z</time>
      </trkpt>
      <trkpt lat="37.329940" lon="-3.096707">
        <ele>1068.000000</ele>
        <time>2019-05-09T08:06:23Z</time>
      </trkpt>
      <trkpt lat="37.329922" lon="-3.096706">
        <ele>1068.000000</ele>
        <time>2019-05-09T08:06:24Z</time>
      </trkpt>
      <trkpt lat="37.329902" lon="-3.096705">
        <ele>1068.000000</ele>
        <time>2019-05-09T08:06:26Z</time>
      </trkpt>
      <trkpt lat="37.329882" lon="-3.096705">
        <ele>1068.000000</ele>
        <time>2019-05-09T08:06:26Z</time>
      </trkpt>
      <trkpt lat="37.329863" lon="-3.096706">
        <ele>1068.000000</ele>
        <time>2019-05-09T08:06:27Z</time>
      </trkpt>
      <trkpt lat="37.329847" lon="-3.096707">
        <ele>1068.000000</ele>
        <time>2019-05-09T08:06:28Z</time>
      </trkpt>
      <trkpt lat="37.329827" lon="-3.096708">
        <ele>1068.000000</ele>
        <time>2019-05-09T08:06:29Z</time>
      </trkpt>
      <trkpt lat="37.329810" lon="-3.096710">
        <ele>1068.000000</ele>
        <time>2019-05-09T08:06:30Z</time>
      </trkpt>
      <trkpt lat="37.329790" lon="-3.096713">
        <ele>1068.000000</ele>
        <time>2019-05-09T08:06:31Z</time>
      </trkpt>
      <trkpt lat="37.329772" lon="-3.096715">
        <ele>1068.000000</ele>
        <time>2019-05-09T08:06:32Z</time>
      </trkpt>
      <trkpt lat="37.329762" lon="-3.096720">
        <ele>1068.000000</ele>
        <time>2019-05-09T08:06:33Z</time>
      </trkpt>
      <trkpt lat="37.329748" lon="-3.096724">
        <ele>1068.000000</ele>
        <time>2019-05-09T08:06:34Z</time>
      </trkpt>
      <trkpt lat="37.329733" lon="-3.096728">
        <ele>1068.000000</ele>
        <time>2019-05-09T08:06:35Z</time>
      </trkpt>
      <trkpt lat="37.329723" lon="-3.096733">
        <ele>1068.000000</ele>
        <time>2019-05-09T08:06:36Z</time>
      </trkpt>
      <trkpt lat="37.329708" lon="-3.096738">
        <ele>1068.000000</ele>
        <time>2019-05-09T08:06:37Z</time>
      </trkpt>
      <trkpt lat="37.329698" lon="-3.096743">
        <ele>1068.000000</ele>
        <time>2019-05-09T08:06:38Z</time>
      </trkpt>
      <trkpt lat="37.329688" lon="-3.096748">
        <ele>1068.000000</ele>
        <time>2019-05-09T08:06:39Z</time>
      </trkpt>
      <trkpt lat="37.329678" lon="-3.096753">
        <ele>1068.000000</ele>
        <time>2019-05-09T08:06:40Z</time>
      </trkpt>
      <trkpt lat="37.329665" lon="-3.096759">
        <ele>1068.000000</ele>
        <time>2019-05-09T08:06:41Z</time>
      </trkpt>
      <trkpt lat="37.329652" lon="-3.096764">
        <ele>1068.000000</ele>
        <time>2019-05-09T08:06:42Z</time>
      </trkpt>
      <trkpt lat="37.329638" lon="-3.096770">
        <ele>1068.000000</ele>
        <time>2019-05-09T08:06:43Z</time>
      </trkpt>
      <trkpt lat="37.329628" lon="-3.096776">
        <ele>1068.000000</ele>
        <time>2019-05-09T08:06:44Z</time>
      </trkpt>
      <trkpt lat="37.329617" lon="-3.096784">
        <ele>1068.000000</ele>
        <time>2019-05-09T08:06:45Z</time>
      </trkpt>
      <trkpt lat="37.329607" lon="-3.096791">
        <ele>1068.000000</ele>
        <time>2019-05-09T08:06:46Z</time>
      </trkpt>
      <trkpt lat="37.329597" lon="-3.096799">
        <ele>1068.000000</ele>
        <time>2019-05-09T08:06:47Z</time>
      </trkpt>
      <trkpt lat="37.329583" lon="-3.096807">
        <ele>1068.000000</ele>
        <time>2019-05-09T08:06:48Z</time>
      </trkpt>
      <trkpt lat="37.329570" lon="-3.096816">
        <ele>1068.000000</ele>
        <time>2019-05-09T08:06:49Z</time>
      </trkpt>
      <trkpt lat="37.329557" lon="-3.096824">
        <ele>1068.000000</ele>
        <time>2019-05-09T08:06:51Z</time>
      </trkpt>
      <trkpt lat="37.329543" lon="-3.096833">
        <ele>1068.000000</ele>
        <time>2019-05-09T08:06:51Z</time>
      </trkpt>
      <trkpt lat="37.329527" lon="-3.096843">
        <ele>1068.000000</ele>
        <time>2019-05-09T08:06:52Z</time>
      </trkpt>
      <trkpt lat="37.329513" lon="-3.096851">
        <ele>1068.000000</ele>
        <time>2019-05-09T08:06:53Z</time>
      </trkpt>
      <trkpt lat="37.329500" lon="-3.096865">
        <ele>1068.000000</ele>
        <time>2019-05-09T08:06:54Z</time>
      </trkpt>
      <trkpt lat="37.329487" lon="-3.096877">
        <ele>1068.000000</ele>
        <time>2019-05-09T08:06:55Z</time>
      </trkpt>
      <trkpt lat="37.329475" lon="-3.096891">
        <ele>1068.000000</ele>
        <time>2019-05-09T08:06:56Z</time>
      </trkpt>
      <trkpt lat="37.329460" lon="-3.096906">
        <ele>1068.000000</ele>
        <time>2019-05-09T08:06:57Z</time>
      </trkpt>
      <trkpt lat="37.329448" lon="-3.096919">
        <ele>1068.000000</ele>
        <time>2019-05-09T08:06:58Z</time>
      </trkpt>
      <trkpt lat="37.329437" lon="-3.096934">
        <ele>1068.000000</ele>
        <time>2019-05-09T08:06:59Z</time>
      </trkpt>
      <trkpt lat="37.329423" lon="-3.096948">
        <ele>1068.000000</ele>
        <time>2019-05-09T08:07:00Z</time>
      </trkpt>
      <trkpt lat="37.329412" lon="-3.096962">
        <ele>1068.000000</ele>
        <time>2019-05-09T08:07:01Z</time>
      </trkpt>
      <trkpt lat="37.329400" lon="-3.096977">
        <ele>1068.000000</ele>
        <time>2019-05-09T08:07:02Z</time>
      </trkpt>
      <trkpt lat="37.329388" lon="-3.096991">
        <ele>1068.000000</ele>
        <time>2019-05-09T08:07:03Z</time>
      </trkpt>
      <trkpt lat="37.329377" lon="-3.097005">
        <ele>1068.000000</ele>
        <time>2019-05-09T08:07:04Z</time>
      </trkpt>
      <trkpt lat="37.329365" lon="-3.097018">
        <ele>1068.000000</ele>
        <time>2019-05-09T08:07:05Z</time>
      </trkpt>
      <trkpt lat="37.329355" lon="-3.097031">
        <ele>1068.000000</ele>
        <time>2019-05-09T08:07:06Z</time>
      </trkpt>
      <trkpt lat="37.329343" lon="-3.097044">
        <ele>1068.000000</ele>
        <time>2019-05-09T08:07:07Z</time>
      </trkpt>
      <trkpt lat="37.329332" lon="-3.097058">
        <ele>1068.000000</ele>
        <time>2019-05-09T08:07:08Z</time>
      </trkpt>
      <trkpt lat="37.329318" lon="-3.097071">
        <ele>1068.000000</ele>
        <time>2019-05-09T08:07:09Z</time>
      </trkpt>
      <trkpt lat="37.329307" lon="-3.097085">
        <ele>1068.000000</ele>
        <time>2019-05-09T08:07:11Z</time>
      </trkpt>
      <trkpt lat="37.329293" lon="-3.097099">
        <ele>1068.000000</ele>
        <time>2019-05-09T08:07:11Z</time>
      </trkpt>
      <trkpt lat="37.329280" lon="-3.097113">
        <ele>1067.000000</ele>
        <time>2019-05-09T08:07:12Z</time>
      </trkpt>
      <trkpt lat="37.329265" lon="-3.097130">
        <ele>1067.000000</ele>
        <time>2019-05-09T08:07:13Z</time>
      </trkpt>
      <trkpt lat="37.329253" lon="-3.097142">
        <ele>1067.000000</ele>
        <time>2019-05-09T08:07:14Z</time>
      </trkpt>
      <trkpt lat="37.329242" lon="-3.097156">
        <ele>1067.000000</ele>
        <time>2019-05-09T08:07:15Z</time>
      </trkpt>
      <trkpt lat="37.329228" lon="-3.097169">
        <ele>1067.000000</ele>
        <time>2019-05-09T08:07:16Z</time>
      </trkpt>
      <trkpt lat="37.329215" lon="-3.097182">
        <ele>1067.000000</ele>
        <time>2019-05-09T08:07:17Z</time>
      </trkpt>
      <trkpt lat="37.329202" lon="-3.097195">
        <ele>1067.000000</ele>
        <time>2019-05-09T08:07:18Z</time>
      </trkpt>
      <trkpt lat="37.329188" lon="-3.097209">
        <ele>1067.000000</ele>
        <time>2019-05-09T08:07:19Z</time>
      </trkpt>
      <trkpt lat="37.329175" lon="-3.097222">
        <ele>1067.000000</ele>
        <time>2019-05-09T08:07:20Z</time>
      </trkpt>
      <trkpt lat="37.329163" lon="-3.097232">
        <ele>1067.000000</ele>
        <time>2019-05-09T08:07:21Z</time>
      </trkpt>
      <trkpt lat="37.329152" lon="-3.097244">
        <ele>1067.000000</ele>
        <time>2019-05-09T08:07:22Z</time>
      </trkpt>
      <trkpt lat="37.329142" lon="-3.097254">
        <ele>1067.000000</ele>
        <time>2019-05-09T08:07:23Z</time>
      </trkpt>
      <trkpt lat="37.329130" lon="-3.097264">
        <ele>1067.000000</ele>
        <time>2019-05-09T08:07:24Z</time>
      </trkpt>
      <trkpt lat="37.329120" lon="-3.097274">
        <ele>1067.000000</ele>
        <time>2019-05-09T08:07:25Z</time>
      </trkpt>
      <trkpt lat="37.329108" lon="-3.097285">
        <ele>1067.000000</ele>
        <time>2019-05-09T08:07:26Z</time>
      </trkpt>
      <trkpt lat="37.329097" lon="-3.097295">
        <ele>1067.000000</ele>
        <time>2019-05-09T08:07:27Z</time>
      </trkpt>
      <trkpt lat="37.329085" lon="-3.097306">
        <ele>1067.000000</ele>
        <time>2019-05-09T08:07:28Z</time>
      </trkpt>
      <trkpt lat="37.329073" lon="-3.097316">
        <ele>1067.000000</ele>
        <time>2019-05-09T08:07:29Z</time>
      </trkpt>
      <trkpt lat="37.329062" lon="-3.097325">
        <ele>1067.000000</ele>
        <time>2019-05-09T08:07:30Z</time>
      </trkpt>
      <trkpt lat="37.329050" lon="-3.097337">
        <ele>1067.000000</ele>
        <time>2019-05-09T08:07:31Z</time>
      </trkpt>
      <trkpt lat="37.329035" lon="-3.097350">
        <ele>1067.000000</ele>
        <time>2019-05-09T08:07:32Z</time>
      </trkpt>
      <trkpt lat="37.329023" lon="-3.097362">
        <ele>1067.000000</ele>
        <time>2019-05-09T08:07:33Z</time>
      </trkpt>
      <trkpt lat="37.329010" lon="-3.097373">
        <ele>1067.000000</ele>
        <time>2019-05-09T08:07:34Z</time>
      </trkpt>
      <trkpt lat="37.328998" lon="-3.097384">
        <ele>1067.000000</ele>
        <time>2019-05-09T08:07:36Z</time>
      </trkpt>
      <trkpt lat="37.328987" lon="-3.097395">
        <ele>1067.000000</ele>
        <time>2019-05-09T08:07:36Z</time>
      </trkpt>
      <trkpt lat="37.328977" lon="-3.097405">
        <ele>1067.000000</ele>
        <time>2019-05-09T08:07:37Z</time>
      </trkpt>
      <trkpt lat="37.328965" lon="-3.097417">
        <ele>1067.000000</ele>
        <time>2019-05-09T08:07:38Z</time>
      </trkpt>
      <trkpt lat="37.328957" lon="-3.097426">
        <ele>1067.000000</ele>
        <time>2019-05-09T08:07:39Z</time>
      </trkpt>
      <trkpt lat="37.328945" lon="-3.097438">
        <ele>1067.000000</ele>
        <time>2019-05-09T08:07:40Z</time>
      </trkpt>
      <trkpt lat="37.328933" lon="-3.097450">
        <ele>1067.000000</ele>
        <time>2019-05-09T08:07:41Z</time>
      </trkpt>
      <trkpt lat="37.328925" lon="-3.097459">
        <ele>1067.000000</ele>
        <time>2019-05-09T08:07:42Z</time>
      </trkpt>
      <trkpt lat="37.328913" lon="-3.097472">
        <ele>1066.000000</ele>
        <time>2019-05-09T08:07:43Z</time>
      </trkpt>
      <trkpt lat="37.328900" lon="-3.097487">
        <ele>1066.000000</ele>
        <time>2019-05-09T08:07:44Z</time>
      </trkpt>
      <trkpt lat="37.328888" lon="-3.097499">
        <ele>1066.000000</ele>
        <time>2019-05-09T08:07:45Z</time>
      </trkpt>
      <trkpt lat="37.328877" lon="-3.097511">
        <ele>1066.000000</ele>
        <time>2019-05-09T08:07:46Z</time>
      </trkpt>
      <trkpt lat="37.328863" lon="-3.097525">
        <ele>1066.000000</ele>
        <time>2019-05-09T08:07:47Z</time>
      </trkpt>
      <trkpt lat="37.328853" lon="-3.097536">
        <ele>1066.000000</ele>
        <time>2019-05-09T08:07:48Z</time>
      </trkpt>
      <trkpt lat="37.328843" lon="-3.097548">
        <ele>1066.000000</ele>
        <time>2019-05-09T08:07:49Z</time>
      </trkpt>
      <trkpt lat="37.328833" lon="-3.097559">
        <ele>1066.000000</ele>
        <time>2019-05-09T08:07:50Z</time>
      </trkpt>
      <trkpt lat="37.328822" lon="-3.097574">
        <ele>1066.000000</ele>
        <time>2019-05-09T08:07:51Z</time>
      </trkpt>
      <trkpt lat="37.328812" lon="-3.097586">
        <ele>1066.000000</ele>
        <time>2019-05-09T08:07:52Z</time>
      </trkpt>
      <trkpt lat="37.328802" lon="-3.097597">
        <ele>1066.000000</ele>
        <time>2019-05-09T08:07:53Z</time>
      </trkpt>
      <trkpt lat="37.328793" lon="-3.097609">
        <ele>1066.000000</ele>
        <time>2019-05-09T08:07:54Z</time>
      </trkpt>
      <trkpt lat="37.328785" lon="-3.097648">
        <ele>1066.000000</ele>
        <time>2019-05-09T08:07:56Z</time>
      </trkpt>
      <trkpt lat="37.328773" lon="-3.097658">
        <ele>1066.000000</ele>
        <time>2019-05-09T08:07:56Z</time>
      </trkpt>
      <trkpt lat="37.328761" lon="-3.097670">
        <ele>1066.000000</ele>
        <time>2019-05-09T08:07:57Z</time>
      </trkpt>
      <trkpt lat="37.328750" lon="-3.097682">
        <ele>1066.000000</ele>
        <time>2019-05-09T08:07:59Z</time>
      </trkpt>
      <trkpt lat="37.328738" lon="-3.097693">
        <ele>1065.000000</ele>
        <time>2019-05-09T08:07:59Z</time>
      </trkpt>
      <trkpt lat="37.328728" lon="-3.097707">
        <ele>1065.000000</ele>
        <time>2019-05-09T08:08:00Z</time>
      </trkpt>
      <trkpt lat="37.328720" lon="-3.097720">
        <ele>1065.000000</ele>
        <time>2019-05-09T08:08:01Z</time>
      </trkpt>
      <trkpt lat="37.328708" lon="-3.097732">
        <ele>1065.000000</ele>
        <time>2019-05-09T08:08:03Z</time>
      </trkpt>
      <trkpt lat="37.328697" lon="-3.097742">
        <ele>1065.000000</ele>
        <time>2019-05-09T08:08:03Z</time>
      </trkpt>
      <trkpt lat="37.328687" lon="-3.097752">
        <ele>1065.000000</ele>
        <time>2019-05-09T08:08:04Z</time>
      </trkpt>
      <trkpt lat="37.328675" lon="-3.097765">
        <ele>1065.000000</ele>
        <time>2019-05-09T08:08:05Z</time>
      </trkpt>
      <trkpt lat="37.328662" lon="-3.097776">
        <ele>1065.000000</ele>
        <time>2019-05-09T08:08:07Z</time>
      </trkpt>
      <trkpt lat="37.328650" lon="-3.097786">
        <ele>1065.000000</ele>
        <time>2019-05-09T08:08:07Z</time>
      </trkpt>
      <trkpt lat="37.328640" lon="-3.097796">
        <ele>1065.000000</ele>
        <time>2019-05-09T08:08:08Z</time>
      </trkpt>
      <trkpt lat="37.328630" lon="-3.097806">
        <ele>1065.000000</ele>
        <time>2019-05-09T08:08:09Z</time>
      </trkpt>
      <trkpt lat="37.328618" lon="-3.097818">
        <ele>1065.000000</ele>
        <time>2019-05-09T08:08:10Z</time>
      </trkpt>
      <trkpt lat="37.328605" lon="-3.097830">
        <ele>1065.000000</ele>
        <time>2019-05-09T08:08:11Z</time>
      </trkpt>
      <trkpt lat="37.328593" lon="-3.097840">
        <ele>1065.000000</ele>
        <time>2019-05-09T08:08:12Z</time>
      </trkpt>
      <trkpt lat="37.328582" lon="-3.097850">
        <ele>1065.000000</ele>
        <time>2019-05-09T08:08:13Z</time>
      </trkpt>
      <trkpt lat="37.328570" lon="-3.097860">
        <ele>1065.000000</ele>
        <time>2019-05-09T08:08:14Z</time>
      </trkpt>
      <trkpt lat="37.328558" lon="-3.097871">
        <ele>1065.000000</ele>
        <time>2019-05-09T08:08:15Z</time>
      </trkpt>
      <trkpt lat="37.328547" lon="-3.097882">
        <ele>1065.000000</ele>
        <time>2019-05-09T08:08:16Z</time>
      </trkpt>
      <trkpt lat="37.328537" lon="-3.097893">
        <ele>1065.000000</ele>
        <time>2019-05-09T08:08:17Z</time>
      </trkpt>
      <trkpt lat="37.328525" lon="-3.097905">
        <ele>1065.000000</ele>
        <time>2019-05-09T08:08:18Z</time>
      </trkpt>
      <trkpt lat="37.328513" lon="-3.097916">
        <ele>1065.000000</ele>
        <time>2019-05-09T08:08:20Z</time>
      </trkpt>
      <trkpt lat="37.328502" lon="-3.097929">
        <ele>1065.000000</ele>
        <time>2019-05-09T08:08:20Z</time>
      </trkpt>
      <trkpt lat="37.328490" lon="-3.097940">
        <ele>1065.000000</ele>
        <time>2019-05-09T08:08:21Z</time>
      </trkpt>
      <trkpt lat="37.328478" lon="-3.097952">
        <ele>1065.000000</ele>
        <time>2019-05-09T08:08:22Z</time>
      </trkpt>
      <trkpt lat="37.328467" lon="-3.097964">
        <ele>1065.000000</ele>
        <time>2019-05-09T08:08:23Z</time>
      </trkpt>
      <trkpt lat="37.328455" lon="-3.097977">
        <ele>1065.000000</ele>
        <time>2019-05-09T08:08:24Z</time>
      </trkpt>
      <trkpt lat="37.328445" lon="-3.097989">
        <ele>1065.000000</ele>
        <time>2019-05-09T08:08:25Z</time>
      </trkpt>
      <trkpt lat="37.328433" lon="-3.098002">
        <ele>1065.000000</ele>
        <time>2019-05-09T08:08:26Z</time>
      </trkpt>
      <trkpt lat="37.328423" lon="-3.098015">
        <ele>1065.000000</ele>
        <time>2019-05-09T08:08:27Z</time>
      </trkpt>
      <trkpt lat="37.328413" lon="-3.098047">
        <ele>1065.000000</ele>
        <time>2019-05-09T08:08:28Z</time>
      </trkpt>
      <trkpt lat="37.328402" lon="-3.098063">
        <ele>1065.000000</ele>
        <time>2019-05-09T08:08:29Z</time>
      </trkpt>
      <trkpt lat="37.328390" lon="-3.098080">
        <ele>1065.000000</ele>
        <time>2019-05-09T08:08:30Z</time>
      </trkpt>
      <trkpt lat="37.328378" lon="-3.098098">
        <ele>1065.000000</ele>
        <time>2019-05-09T08:08:31Z</time>
      </trkpt>
      <trkpt lat="37.328369" lon="-3.098115">
        <ele>1065.000000</ele>
        <time>2019-05-09T08:08:32Z</time>
      </trkpt>
      <trkpt lat="37.328359" lon="-3.098132">
        <ele>1064.000000</ele>
        <time>2019-05-09T08:08:33Z</time>
      </trkpt>
      <trkpt lat="37.328348" lon="-3.098148">
        <ele>1064.000000</ele>
        <time>2019-05-09T08:08:34Z</time>
      </trkpt>
      <trkpt lat="37.328339" lon="-3.098165">
        <ele>1064.000000</ele>
        <time>2019-05-09T08:08:35Z</time>
      </trkpt>
      <trkpt lat="37.328330" lon="-3.098183">
        <ele>1064.000000</ele>
        <time>2019-05-09T08:08:36Z</time>
      </trkpt>
      <trkpt lat="37.328322" lon="-3.098202">
        <ele>1064.000000</ele>
        <time>2019-05-09T08:08:37Z</time>
      </trkpt>
      <trkpt lat="37.328316" lon="-3.098222">
        <ele>1064.000000</ele>
        <time>2019-05-09T08:08:38Z</time>
      </trkpt>
      <trkpt lat="37.328312" lon="-3.098237">
        <ele>1064.000000</ele>
        <time>2019-05-09T08:08:39Z</time>
      </trkpt>
      <trkpt lat="37.328305" lon="-3.098252">
        <ele>1064.000000</ele>
        <time>2019-05-09T08:08:40Z</time>
      </trkpt>
      <trkpt lat="37.328297" lon="-3.098268">
        <ele>1064.000000</ele>
        <time>2019-05-09T08:08:41Z</time>
      </trkpt>
      <trkpt lat="37.328291" lon="-3.098278">
        <ele>1064.000000</ele>
        <time>2019-05-09T08:08:42Z</time>
      </trkpt>
      <trkpt lat="37.328284" lon="-3.098290">
        <ele>1064.000000</ele>
        <time>2019-05-09T08:08:44Z</time>
      </trkpt>
      <trkpt lat="37.328275" lon="-3.098302">
        <ele>1064.000000</ele>
        <time>2019-05-09T08:08:44Z</time>
      </trkpt>
      <trkpt lat="37.328265" lon="-3.098313">
        <ele>1064.000000</ele>
        <time>2019-05-09T08:08:45Z</time>
      </trkpt>
      <trkpt lat="37.328256" lon="-3.098327">
        <ele>1064.000000</ele>
        <time>2019-05-09T08:08:46Z</time>
      </trkpt>
      <trkpt lat="37.328245" lon="-3.098340">
        <ele>1064.000000</ele>
        <time>2019-05-09T08:08:47Z</time>
      </trkpt>
      <trkpt lat="37.328233" lon="-3.098355">
        <ele>1064.000000</ele>
        <time>2019-05-09T08:08:48Z</time>
      </trkpt>
      <trkpt lat="37.328221" lon="-3.098372">
        <ele>1064.000000</ele>
        <time>2019-05-09T08:08:49Z</time>
      </trkpt>
      <trkpt lat="37.328211" lon="-3.098385">
        <ele>1064.000000</ele>
        <time>2019-05-09T08:08:50Z</time>
      </trkpt>
      <trkpt lat="37.328200" lon="-3.098398">
        <ele>1064.000000</ele>
        <time>2019-05-09T08:08:51Z</time>
      </trkpt>
      <trkpt lat="37.328191" lon="-3.098410">
        <ele>1064.000000</ele>
        <time>2019-05-09T08:08:52Z</time>
      </trkpt>
      <trkpt lat="37.328180" lon="-3.098423">
        <ele>1064.000000</ele>
        <time>2019-05-09T08:08:53Z</time>
      </trkpt>
      <trkpt lat="37.328169" lon="-3.098437">
        <ele>1064.000000</ele>
        <time>2019-05-09T08:08:54Z</time>
      </trkpt>
      <trkpt lat="37.328158" lon="-3.098450">
        <ele>1064.000000</ele>
        <time>2019-05-09T08:08:55Z</time>
      </trkpt>
      <trkpt lat="37.328144" lon="-3.098467">
        <ele>1064.000000</ele>
        <time>2019-05-09T08:08:56Z</time>
      </trkpt>
      <trkpt lat="37.328131" lon="-3.098483">
        <ele>1064.000000</ele>
        <time>2019-05-09T08:08:57Z</time>
      </trkpt>
      <trkpt lat="37.328119" lon="-3.098498">
        <ele>1064.000000</ele>
        <time>2019-05-09T08:08:58Z</time>
      </trkpt>
      <trkpt lat="37.328107" lon="-3.098512">
        <ele>1064.000000</ele>
        <time>2019-05-09T08:08:59Z</time>
      </trkpt>
      <trkpt lat="37.328095" lon="-3.098528">
        <ele>1063.000000</ele>
        <time>2019-05-09T08:09:00Z</time>
      </trkpt>
      <trkpt lat="37.328082" lon="-3.098545">
        <ele>1063.000000</ele>
        <time>2019-05-09T08:09:01Z</time>
      </trkpt>
      <trkpt lat="37.328070" lon="-3.098560">
        <ele>1063.000000</ele>
        <time>2019-05-09T08:09:02Z</time>
      </trkpt>
      <trkpt lat="37.328060" lon="-3.098575">
        <ele>1063.000000</ele>
        <time>2019-05-09T08:09:03Z</time>
      </trkpt>
      <trkpt lat="37.328050" lon="-3.098585">
        <ele>1063.000000</ele>
        <time>2019-05-09T08:09:05Z</time>
      </trkpt>
      <trkpt lat="37.328040" lon="-3.098597">
        <ele>1063.000000</ele>
        <time>2019-05-09T08:09:05Z</time>
      </trkpt>
      <trkpt lat="37.328029" lon="-3.098610">
        <ele>1063.000000</ele>
        <time>2019-05-09T08:09:06Z</time>
      </trkpt>
      <trkpt lat="37.328019" lon="-3.098622">
        <ele>1063.000000</ele>
        <time>2019-05-09T08:09:07Z</time>
      </trkpt>
      <trkpt lat="37.328010" lon="-3.098632">
        <ele>1063.000000</ele>
        <time>2019-05-09T08:09:08Z</time>
      </trkpt>
      <trkpt lat="37.327999" lon="-3.098645">
        <ele>1063.000000</ele>
        <time>2019-05-09T08:09:09Z</time>
      </trkpt>
      <trkpt lat="37.327989" lon="-3.098657">
        <ele>1063.000000</ele>
        <time>2019-05-09T08:09:10Z</time>
      </trkpt>
      <trkpt lat="37.327965" lon="-3.098668">
        <ele>1063.000000</ele>
        <time>2019-05-09T08:09:11Z</time>
      </trkpt>
      <trkpt lat="37.327955" lon="-3.098683">
        <ele>1063.000000</ele>
        <time>2019-05-09T08:09:12Z</time>
      </trkpt>
      <trkpt lat="37.327943" lon="-3.098695">
        <ele>1063.000000</ele>
        <time>2019-05-09T08:09:13Z</time>
      </trkpt>
      <trkpt lat="37.327931" lon="-3.098710">
        <ele>1063.000000</ele>
        <time>2019-05-09T08:09:14Z</time>
      </trkpt>
      <trkpt lat="37.327919" lon="-3.098725">
        <ele>1063.000000</ele>
        <time>2019-05-09T08:09:15Z</time>
      </trkpt>
      <trkpt lat="37.327910" lon="-3.098742">
        <ele>1063.000000</ele>
        <time>2019-05-09T08:09:16Z</time>
      </trkpt>
      <trkpt lat="37.327899" lon="-3.098758">
        <ele>1063.000000</ele>
        <time>2019-05-09T08:09:17Z</time>
      </trkpt>
      <trkpt lat="37.327890" lon="-3.098775">
        <ele>1063.000000</ele>
        <time>2019-05-09T08:09:18Z</time>
      </trkpt>
      <trkpt lat="37.327882" lon="-3.098792">
        <ele>1063.000000</ele>
        <time>2019-05-09T08:09:19Z</time>
      </trkpt>
      <trkpt lat="37.327873" lon="-3.098808">
        <ele>1063.000000</ele>
        <time>2019-05-09T08:09:20Z</time>
      </trkpt>
      <trkpt lat="37.327863" lon="-3.098823">
        <ele>1063.000000</ele>
        <time>2019-05-09T08:09:21Z</time>
      </trkpt>
      <trkpt lat="37.327853" lon="-3.098837">
        <ele>1063.000000</ele>
        <time>2019-05-09T08:09:22Z</time>
      </trkpt>
      <trkpt lat="37.327843" lon="-3.098850">
        <ele>1063.000000</ele>
        <time>2019-05-09T08:09:23Z</time>
      </trkpt>
      <trkpt lat="37.327833" lon="-3.098863">
        <ele>1063.000000</ele>
        <time>2019-05-09T08:09:24Z</time>
      </trkpt>
      <trkpt lat="37.327824" lon="-3.098877">
        <ele>1063.000000</ele>
        <time>2019-05-09T08:09:25Z</time>
      </trkpt>
      <trkpt lat="37.327814" lon="-3.098892">
        <ele>1063.000000</ele>
        <time>2019-05-09T08:09:26Z</time>
      </trkpt>
      <trkpt lat="37.327805" lon="-3.098903">
        <ele>1063.000000</ele>
        <time>2019-05-09T08:09:27Z</time>
      </trkpt>
      <trkpt lat="37.327795" lon="-3.098917">
        <ele>1063.000000</ele>
        <time>2019-05-09T08:09:29Z</time>
      </trkpt>
      <trkpt lat="37.327785" lon="-3.098932">
        <ele>1063.000000</ele>
        <time>2019-05-09T08:09:29Z</time>
      </trkpt>
      <trkpt lat="37.327774" lon="-3.098947">
        <ele>1063.000000</ele>
        <time>2019-05-09T08:09:30Z</time>
      </trkpt>
      <trkpt lat="37.327765" lon="-3.098960">
        <ele>1063.000000</ele>
        <time>2019-05-09T08:09:31Z</time>
      </trkpt>
      <trkpt lat="37.327754" lon="-3.098977">
        <ele>1063.000000</ele>
        <time>2019-05-09T08:09:32Z</time>
      </trkpt>
      <trkpt lat="37.327746" lon="-3.098988">
        <ele>1063.000000</ele>
        <time>2019-05-09T08:09:33Z</time>
      </trkpt>
      <trkpt lat="37.327737" lon="-3.099000">
        <ele>1063.000000</ele>
        <time>2019-05-09T08:09:34Z</time>
      </trkpt>
      <trkpt lat="37.327727" lon="-3.099013">
        <ele>1063.000000</ele>
        <time>2019-05-09T08:09:35Z</time>
      </trkpt>
      <trkpt lat="37.327717" lon="-3.099027">
        <ele>1063.000000</ele>
        <time>2019-05-09T08:09:36Z</time>
      </trkpt>
      <trkpt lat="37.327707" lon="-3.099040">
        <ele>1062.000000</ele>
        <time>2019-05-09T08:09:37Z</time>
      </trkpt>
      <trkpt lat="37.327694" lon="-3.099058">
        <ele>1062.000000</ele>
        <time>2019-05-09T08:09:38Z</time>
      </trkpt>
      <trkpt lat="37.327683" lon="-3.099072">
        <ele>1062.000000</ele>
        <time>2019-05-09T08:09:38Z</time>
      </trkpt>
      <trkpt lat="37.327671" lon="-3.099090">
        <ele>1062.000000</ele>
        <time>2019-05-09T08:09:39Z</time>
      </trkpt>
      <trkpt lat="37.327659" lon="-3.099107">
        <ele>1062.000000</ele>
        <time>2019-05-09T08:09:40Z</time>
      </trkpt>
      <trkpt lat="37.327648" lon="-3.099122">
        <ele>1062.000000</ele>
        <time>2019-05-09T08:09:41Z</time>
      </trkpt>
      <trkpt lat="37.327638" lon="-3.099137">
        <ele>1062.000000</ele>
        <time>2019-05-09T08:09:42Z</time>
      </trkpt>
      <trkpt lat="37.327626" lon="-3.099153">
        <ele>1062.000000</ele>
        <time>2019-05-09T08:09:43Z</time>
      </trkpt>
      <trkpt lat="37.327619" lon="-3.099163">
        <ele>1062.000000</ele>
        <time>2019-05-09T08:09:44Z</time>
      </trkpt>
      <trkpt lat="37.327611" lon="-3.099175">
        <ele>1062.000000</ele>
        <time>2019-05-09T08:09:45Z</time>
      </trkpt>
      <trkpt lat="37.327602" lon="-3.099188">
        <ele>1062.000000</ele>
        <time>2019-05-09T08:09:46Z</time>
      </trkpt>
      <trkpt lat="37.327590" lon="-3.099203">
        <ele>1062.000000</ele>
        <time>2019-05-09T08:09:47Z</time>
      </trkpt>
      <trkpt lat="37.327578" lon="-3.099220">
        <ele>1062.000000</ele>
        <time>2019-05-09T08:09:48Z</time>
      </trkpt>
      <trkpt lat="37.327566" lon="-3.099237">
        <ele>1062.000000</ele>
        <time>2019-05-09T08:09:49Z</time>
      </trkpt>
      <trkpt lat="37.327551" lon="-3.099257">
        <ele>1062.000000</ele>
        <time>2019-05-09T08:09:50Z</time>
      </trkpt>
      <trkpt lat="37.327537" lon="-3.099277">
        <ele>1062.000000</ele>
        <time>2019-05-09T08:09:52Z</time>
      </trkpt>
      <trkpt lat="37.327525" lon="-3.099293">
        <ele>1062.000000</ele>
        <time>2019-05-09T08:09:52Z</time>
      </trkpt>
      <trkpt lat="37.327514" lon="-3.099308">
        <ele>1061.000000</ele>
        <time>2019-05-09T08:09:53Z</time>
      </trkpt>
      <trkpt lat="37.327502" lon="-3.099325">
        <ele>1061.000000</ele>
        <time>2019-05-09T08:09:54Z</time>
      </trkpt>
      <trkpt lat="37.327490" lon="-3.099343">
        <ele>1061.000000</ele>
        <time>2019-05-09T08:09:55Z</time>
      </trkpt>
      <trkpt lat="37.327479" lon="-3.099360">
        <ele>1061.000000</ele>
        <time>2019-05-09T08:09:56Z</time>
      </trkpt>
      <trkpt lat="37.327469" lon="-3.099375">
        <ele>1061.000000</ele>
        <time>2019-05-09T08:09:57Z</time>
      </trkpt>
      <trkpt lat="37.327461" lon="-3.099387">
        <ele>1061.000000</ele>
        <time>2019-05-09T08:09:58Z</time>
      </trkpt>
      <trkpt lat="37.327453" lon="-3.099400">
        <ele>1061.000000</ele>
        <time>2019-05-09T08:09:59Z</time>
      </trkpt>
      <trkpt lat="37.327444" lon="-3.099417">
        <ele>1061.000000</ele>
        <time>2019-05-09T08:10:00Z</time>
      </trkpt>
      <trkpt lat="37.327432" lon="-3.099433">
        <ele>1061.000000</ele>
        <time>2019-05-09T08:10:01Z</time>
      </trkpt>
      <trkpt lat="37.327425" lon="-3.099443">
        <ele>1061.000000</ele>
        <time>2019-05-09T08:10:02Z</time>
      </trkpt>
      <trkpt lat="37.327420" lon="-3.099453">
        <ele>1061.000000</ele>
        <time>2019-05-09T08:10:03Z</time>
      </trkpt>
      <trkpt lat="37.327413" lon="-3.099463">
        <ele>1061.000000</ele>
        <time>2019-05-09T08:10:04Z</time>
      </trkpt>
      <trkpt lat="37.327404" lon="-3.099477">
        <ele>1061.000000</ele>
        <time>2019-05-09T08:10:05Z</time>
      </trkpt>
      <trkpt lat="37.327393" lon="-3.099492">
        <ele>1061.000000</ele>
        <time>2019-05-09T08:10:06Z</time>
      </trkpt>
      <trkpt lat="37.327384" lon="-3.099505">
        <ele>1060.000000</ele>
        <time>2019-05-09T08:10:07Z</time>
      </trkpt>
      <trkpt lat="37.327378" lon="-3.099517">
        <ele>1060.000000</ele>
        <time>2019-05-09T08:10:08Z</time>
      </trkpt>
      <trkpt lat="37.327369" lon="-3.099530">
        <ele>1060.000000</ele>
        <time>2019-05-09T08:10:09Z</time>
      </trkpt>
      <trkpt lat="37.327362" lon="-3.099542">
        <ele>1060.000000</ele>
        <time>2019-05-09T08:10:10Z</time>
      </trkpt>
      <trkpt lat="37.327352" lon="-3.099557">
        <ele>1060.000000</ele>
        <time>2019-05-09T08:10:11Z</time>
      </trkpt>
      <trkpt lat="37.327341" lon="-3.099575">
        <ele>1060.000000</ele>
        <time>2019-05-09T08:10:13Z</time>
      </trkpt>
      <trkpt lat="37.327331" lon="-3.099592">
        <ele>1060.000000</ele>
        <time>2019-05-09T08:10:13Z</time>
      </trkpt>
      <trkpt lat="37.327323" lon="-3.099603">
        <ele>1060.000000</ele>
        <time>2019-05-09T08:10:14Z</time>
      </trkpt>
      <trkpt lat="37.327314" lon="-3.099617">
        <ele>1060.000000</ele>
        <time>2019-05-09T08:10:15Z</time>
      </trkpt>
      <trkpt lat="37.327304" lon="-3.099630">
        <ele>1059.000000</ele>
        <time>2019-05-09T08:10:16Z</time>
      </trkpt>
      <trkpt lat="37.327294" lon="-3.099645">
        <ele>1059.000000</ele>
        <time>2019-05-09T08:10:17Z</time>
      </trkpt>
      <trkpt lat="37.327282" lon="-3.099662">
        <ele>1059.000000</ele>
        <time>2019-05-09T08:10:18Z</time>
      </trkpt>
      <trkpt lat="37.327273" lon="-3.099675">
        <ele>1059.000000</ele>
        <time>2019-05-09T08:10:19Z</time>
      </trkpt>
      <trkpt lat="37.327266" lon="-3.099685">
        <ele>1059.000000</ele>
        <time>2019-05-09T08:10:20Z</time>
      </trkpt>
      <trkpt lat="37.327258" lon="-3.099695">
        <ele>1059.000000</ele>
        <time>2019-05-09T08:10:21Z</time>
      </trkpt>
      <trkpt lat="37.327249" lon="-3.099708">
        <ele>1059.000000</ele>
        <time>2019-05-09T08:10:22Z</time>
      </trkpt>
      <trkpt lat="37.327238" lon="-3.099722">
        <ele>1059.000000</ele>
        <time>2019-05-09T08:10:23Z</time>
      </trkpt>
      <trkpt lat="37.327229" lon="-3.099735">
        <ele>1059.000000</ele>
        <time>2019-05-09T08:10:24Z</time>
      </trkpt>
      <trkpt lat="37.327218" lon="-3.099748">
        <ele>1059.000000</ele>
        <time>2019-05-09T08:10:25Z</time>
      </trkpt>
      <trkpt lat="37.327210" lon="-3.099758">
        <ele>1059.000000</ele>
        <time>2019-05-09T08:10:26Z</time>
      </trkpt>
      <trkpt lat="37.327200" lon="-3.099772">
        <ele>1059.000000</ele>
        <time>2019-05-09T08:10:27Z</time>
      </trkpt>
      <trkpt lat="37.327191" lon="-3.099783">
        <ele>1059.000000</ele>
        <time>2019-05-09T08:10:28Z</time>
      </trkpt>
      <trkpt lat="37.327177" lon="-3.099800">
        <ele>1059.000000</ele>
        <time>2019-05-09T08:10:30Z</time>
      </trkpt>
      <trkpt lat="37.327164" lon="-3.099817">
        <ele>1058.000000</ele>
        <time>2019-05-09T08:10:30Z</time>
      </trkpt>
      <trkpt lat="37.327152" lon="-3.099835">
        <ele>1058.000000</ele>
        <time>2019-05-09T08:10:31Z</time>
      </trkpt>
      <trkpt lat="37.327139" lon="-3.099853">
        <ele>1058.000000</ele>
        <time>2019-05-09T08:10:32Z</time>
      </trkpt>
      <trkpt lat="37.327126" lon="-3.099872">
        <ele>1058.000000</ele>
        <time>2019-05-09T08:10:33Z</time>
      </trkpt>
      <trkpt lat="37.327111" lon="-3.099892">
        <ele>1058.000000</ele>
        <time>2019-05-09T08:10:34Z</time>
      </trkpt>
      <trkpt lat="37.327099" lon="-3.099908">
        <ele>1058.000000</ele>
        <time>2019-05-09T08:10:35Z</time>
      </trkpt>
      <trkpt lat="37.327087" lon="-3.099925">
        <ele>1058.000000</ele>
        <time>2019-05-09T08:10:37Z</time>
      </trkpt>
      <trkpt lat="37.327073" lon="-3.099943">
        <ele>1058.000000</ele>
        <time>2019-05-09T08:10:37Z</time>
      </trkpt>
      <trkpt lat="37.327060" lon="-3.099962">
        <ele>1058.000000</ele>
        <time>2019-05-09T08:10:38Z</time>
      </trkpt>
      <trkpt lat="37.327047" lon="-3.099978">
        <ele>1058.000000</ele>
        <time>2019-05-09T08:10:39Z</time>
      </trkpt>
      <trkpt lat="37.327037" lon="-3.099993">
        <ele>1058.000000</ele>
        <time>2019-05-09T08:10:40Z</time>
      </trkpt>
      <trkpt lat="37.327028" lon="-3.100007">
        <ele>1058.000000</ele>
        <time>2019-05-09T08:10:41Z</time>
      </trkpt>
      <trkpt lat="37.327018" lon="-3.100022">
        <ele>1058.000000</ele>
        <time>2019-05-09T08:10:42Z</time>
      </trkpt>
      <trkpt lat="37.327008" lon="-3.100037">
        <ele>1058.000000</ele>
        <time>2019-05-09T08:10:43Z</time>
      </trkpt>
      <trkpt lat="37.326995" lon="-3.100055">
        <ele>1058.000000</ele>
        <time>2019-05-09T08:10:44Z</time>
      </trkpt>
      <trkpt lat="37.326990" lon="-3.100063">
        <ele>1058.000000</ele>
        <time>2019-05-09T08:10:45Z</time>
      </trkpt>
      <trkpt lat="37.326982" lon="-3.100075">
        <ele>1058.000000</ele>
        <time>2019-05-09T08:10:46Z</time>
      </trkpt>
      <trkpt lat="37.326971" lon="-3.100090">
        <ele>1058.000000</ele>
        <time>2019-05-09T08:10:47Z</time>
      </trkpt>
      <trkpt lat="37.326962" lon="-3.100105">
        <ele>1058.000000</ele>
        <time>2019-05-09T08:10:48Z</time>
      </trkpt>
      <trkpt lat="37.326954" lon="-3.100117">
        <ele>1057.000000</ele>
        <time>2019-05-09T08:10:49Z</time>
      </trkpt>
      <trkpt lat="37.326946" lon="-3.100130">
        <ele>1057.000000</ele>
        <time>2019-05-09T08:10:50Z</time>
      </trkpt>
      <trkpt lat="37.326935" lon="-3.100145">
        <ele>1057.000000</ele>
        <time>2019-05-09T08:10:51Z</time>
      </trkpt>
      <trkpt lat="37.326927" lon="-3.100157">
        <ele>1057.000000</ele>
        <time>2019-05-09T08:10:52Z</time>
      </trkpt>
      <trkpt lat="37.326918" lon="-3.100172">
        <ele>1057.000000</ele>
        <time>2019-05-09T08:10:53Z</time>
      </trkpt>
      <trkpt lat="37.326908" lon="-3.100185">
        <ele>1057.000000</ele>
        <time>2019-05-09T08:10:54Z</time>
      </trkpt>
      <trkpt lat="37.326897" lon="-3.100202">
        <ele>1057.000000</ele>
        <time>2019-05-09T08:10:55Z</time>
      </trkpt>
      <trkpt lat="37.326885" lon="-3.100218">
        <ele>1057.000000</ele>
        <time>2019-05-09T08:10:56Z</time>
      </trkpt>
      <trkpt lat="37.326872" lon="-3.100237">
        <ele>1057.000000</ele>
        <time>2019-05-09T08:10:58Z</time>
      </trkpt>
      <trkpt lat="37.326860" lon="-3.100253">
        <ele>1057.000000</ele>
        <time>2019-05-09T08:10:58Z</time>
      </trkpt>
      <trkpt lat="37.326849" lon="-3.100268">
        <ele>1057.000000</ele>
        <time>2019-05-09T08:10:59Z</time>
      </trkpt>
      <trkpt lat="37.326835" lon="-3.100288">
        <ele>1057.000000</ele>
        <time>2019-05-09T08:11:00Z</time>
      </trkpt>
      <trkpt lat="37.326824" lon="-3.100305">
        <ele>1057.000000</ele>
        <time>2019-05-09T08:11:01Z</time>
      </trkpt>
      <trkpt lat="37.326813" lon="-3.100323">
        <ele>1056.000000</ele>
        <time>2019-05-09T08:11:02Z</time>
      </trkpt>
      <trkpt lat="37.326799" lon="-3.100342">
        <ele>1056.000000</ele>
        <time>2019-05-09T08:11:03Z</time>
      </trkpt>
      <trkpt lat="37.326789" lon="-3.100358">
        <ele>1056.000000</ele>
        <time>2019-05-09T08:11:04Z</time>
      </trkpt>
      <trkpt lat="37.326778" lon="-3.100377">
        <ele>1056.000000</ele>
        <time>2019-05-09T08:11:05Z</time>
      </trkpt>
      <trkpt lat="37.326768" lon="-3.100392">
        <ele>1056.000000</ele>
        <time>2019-05-09T08:11:06Z</time>
      </trkpt>
      <trkpt lat="37.326757" lon="-3.100410">
        <ele>1056.000000</ele>
        <time>2019-05-09T08:11:07Z</time>
      </trkpt>
      <trkpt lat="37.326746" lon="-3.100427">
        <ele>1056.000000</ele>
        <time>2019-05-09T08:11:08Z</time>
      </trkpt>
      <trkpt lat="37.326739" lon="-3.100438">
        <ele>1056.000000</ele>
        <time>2019-05-09T08:11:09Z</time>
      </trkpt>
      <trkpt lat="37.326732" lon="-3.100452">
        <ele>1055.000000</ele>
        <time>2019-05-09T08:11:10Z</time>
      </trkpt>
      <trkpt lat="37.326726" lon="-3.100463">
        <ele>1055.000000</ele>
        <time>2019-05-09T08:11:11Z</time>
      </trkpt>
      <trkpt lat="37.326717" lon="-3.100477">
        <ele>1055.000000</ele>
        <time>2019-05-09T08:11:12Z</time>
      </trkpt>
      <trkpt lat="37.326709" lon="-3.100490">
        <ele>1055.000000</ele>
        <time>2019-05-09T08:11:13Z</time>
      </trkpt>
      <trkpt lat="37.326698" lon="-3.100507">
        <ele>1055.000000</ele>
        <time>2019-05-09T08:11:14Z</time>
      </trkpt>
      <trkpt lat="37.326687" lon="-3.100523">
        <ele>1055.000000</ele>
        <time>2019-05-09T08:11:15Z</time>
      </trkpt>
      <trkpt lat="37.326679" lon="-3.100538">
        <ele>1055.000000</ele>
        <time>2019-05-09T08:11:16Z</time>
      </trkpt>
      <trkpt lat="37.326668" lon="-3.100555">
        <ele>1055.000000</ele>
        <time>2019-05-09T08:11:17Z</time>
      </trkpt>
      <trkpt lat="37.326662" lon="-3.100567">
        <ele>1055.000000</ele>
        <time>2019-05-09T08:11:19Z</time>
      </trkpt>
      <trkpt lat="37.326652" lon="-3.100583">
        <ele>1055.000000</ele>
        <time>2019-05-09T08:11:20Z</time>
      </trkpt>
      <trkpt lat="37.326642" lon="-3.100598">
        <ele>1055.000000</ele>
        <time>2019-05-09T08:11:21Z</time>
      </trkpt>
      <trkpt lat="37.326630" lon="-3.100617">
        <ele>1055.000000</ele>
        <time>2019-05-09T08:11:22Z</time>
      </trkpt>
      <trkpt lat="37.326616" lon="-3.100638">
        <ele>1055.000000</ele>
        <time>2019-05-09T08:11:23Z</time>
      </trkpt>
      <trkpt lat="37.326606" lon="-3.100655">
        <ele>1054.000000</ele>
        <time>2019-05-09T08:11:24Z</time>
      </trkpt>
      <trkpt lat="37.326597" lon="-3.100668">
        <ele>1054.000000</ele>
        <time>2019-05-09T08:11:25Z</time>
      </trkpt>
      <trkpt lat="37.326586" lon="-3.100683">
        <ele>1054.000000</ele>
        <time>2019-05-09T08:11:25Z</time>
      </trkpt>
      <trkpt lat="37.326574" lon="-3.100702">
        <ele>1054.000000</ele>
        <time>2019-05-09T08:11:26Z</time>
      </trkpt>
      <trkpt lat="37.326564" lon="-3.100715">
        <ele>1054.000000</ele>
        <time>2019-05-09T08:11:27Z</time>
      </trkpt>
      <trkpt lat="37.326553" lon="-3.100730">
        <ele>1054.000000</ele>
        <time>2019-05-09T08:11:28Z</time>
      </trkpt>
      <trkpt lat="37.326540" lon="-3.100748">
        <ele>1054.000000</ele>
        <time>2019-05-09T08:11:29Z</time>
      </trkpt>
      <trkpt lat="37.326528" lon="-3.100765">
        <ele>1054.000000</ele>
        <time>2019-05-09T08:11:30Z</time>
      </trkpt>
      <trkpt lat="37.326517" lon="-3.100780">
        <ele>1054.000000</ele>
        <time>2019-05-09T08:11:31Z</time>
      </trkpt>
      <trkpt lat="37.326506" lon="-3.100797">
        <ele>1054.000000</ele>
        <time>2019-05-09T08:11:32Z</time>
      </trkpt>
      <trkpt lat="37.326496" lon="-3.100812">
        <ele>1054.000000</ele>
        <time>2019-05-09T08:11:33Z</time>
      </trkpt>
      <trkpt lat="37.326483" lon="-3.100830">
        <ele>1054.000000</ele>
        <time>2019-05-09T08:11:34Z</time>
      </trkpt>
      <trkpt lat="37.326472" lon="-3.100847">
        <ele>1053.000000</ele>
        <time>2019-05-09T08:11:35Z</time>
      </trkpt>
      <trkpt lat="37.326461" lon="-3.100865">
        <ele>1053.000000</ele>
        <time>2019-05-09T08:11:36Z</time>
      </trkpt>
      <trkpt lat="37.326451" lon="-3.100880">
        <ele>1053.000000</ele>
        <time>2019-05-09T08:11:37Z</time>
      </trkpt>
      <trkpt lat="37.326446" lon="-3.100888">
        <ele>1053.000000</ele>
        <time>2019-05-09T08:11:38Z</time>
      </trkpt>
      <trkpt lat="37.326438" lon="-3.100902">
        <ele>1053.000000</ele>
        <time>2019-05-09T08:11:39Z</time>
      </trkpt>
      <trkpt lat="37.326429" lon="-3.100915">
        <ele>1053.000000</ele>
        <time>2019-05-09T08:11:41Z</time>
      </trkpt>
      <trkpt lat="37.326419" lon="-3.100930">
        <ele>1053.000000</ele>
        <time>2019-05-09T08:11:42Z</time>
      </trkpt>
      <trkpt lat="37.326408" lon="-3.100947">
        <ele>1053.000000</ele>
        <time>2019-05-09T08:11:42Z</time>
      </trkpt>
      <trkpt lat="37.326399" lon="-3.100962">
        <ele>1053.000000</ele>
        <time>2019-05-09T08:11:43Z</time>
      </trkpt>
      <trkpt lat="37.326391" lon="-3.100973">
        <ele>1053.000000</ele>
        <time>2019-05-09T08:11:44Z</time>
      </trkpt>
      <trkpt lat="37.326382" lon="-3.100987">
        <ele>1053.000000</ele>
        <time>2019-05-09T08:11:46Z</time>
      </trkpt>
      <trkpt lat="37.326376" lon="-3.100997">
        <ele>1053.000000</ele>
        <time>2019-05-09T08:11:46Z</time>
      </trkpt>
      <trkpt lat="37.326366" lon="-3.101012">
        <ele>1053.000000</ele>
        <time>2019-05-09T08:11:47Z</time>
      </trkpt>
      <trkpt lat="37.326351" lon="-3.101032">
        <ele>1053.000000</ele>
        <time>2019-05-09T08:11:48Z</time>
      </trkpt>
      <trkpt lat="37.326338" lon="-3.101050">
        <ele>1053.000000</ele>
        <time>2019-05-09T08:11:49Z</time>
      </trkpt>
      <trkpt lat="37.326326" lon="-3.101068">
        <ele>1052.000000</ele>
        <time>2019-05-09T08:11:51Z</time>
      </trkpt>
      <trkpt lat="37.326312" lon="-3.101088">
        <ele>1052.000000</ele>
        <time>2019-05-09T08:11:52Z</time>
      </trkpt>
      <trkpt lat="37.326301" lon="-3.101105">
        <ele>1052.000000</ele>
        <time>2019-05-09T08:11:52Z</time>
      </trkpt>
      <trkpt lat="37.326287" lon="-3.101123">
        <ele>1051.000000</ele>
        <time>2019-05-09T08:11:54Z</time>
      </trkpt>
      <trkpt lat="37.326274" lon="-3.101140">
        <ele>1051.000000</ele>
        <time>2019-05-09T08:11:54Z</time>
      </trkpt>
      <trkpt lat="37.326262" lon="-3.101158">
        <ele>1051.000000</ele>
        <time>2019-05-09T08:11:55Z</time>
      </trkpt>
      <trkpt lat="37.326249" lon="-3.101175">
        <ele>1051.000000</ele>
        <time>2019-05-09T08:11:56Z</time>
      </trkpt>
      <trkpt lat="37.326239" lon="-3.101190">
        <ele>1051.000000</ele>
        <time>2019-05-09T08:11:57Z</time>
      </trkpt>
      <trkpt lat="37.326229" lon="-3.101205">
        <ele>1051.000000</ele>
        <time>2019-05-09T08:11:58Z</time>
      </trkpt>
      <trkpt lat="37.326220" lon="-3.101218">
        <ele>1051.000000</ele>
        <time>2019-05-09T08:11:59Z</time>
      </trkpt>
      <trkpt lat="37.326210" lon="-3.101230">
        <ele>1050.000000</ele>
        <time>2019-05-09T08:12:00Z</time>
      </trkpt>
      <trkpt lat="37.326201" lon="-3.101243">
        <ele>1050.000000</ele>
        <time>2019-05-09T08:12:01Z</time>
      </trkpt>
      <trkpt lat="37.326194" lon="-3.101253">
        <ele>1050.000000</ele>
        <time>2019-05-09T08:12:02Z</time>
      </trkpt>
      <trkpt lat="37.326187" lon="-3.101263">
        <ele>1050.000000</ele>
        <time>2019-05-09T08:12:03Z</time>
      </trkpt>
      <trkpt lat="37.326177" lon="-3.101278">
        <ele>1050.000000</ele>
        <time>2019-05-09T08:12:04Z</time>
      </trkpt>
      <trkpt lat="37.326170" lon="-3.101288">
        <ele>1050.000000</ele>
        <time>2019-05-09T08:12:05Z</time>
      </trkpt>
      <trkpt lat="37.326158" lon="-3.101305">
        <ele>1050.000000</ele>
        <time>2019-05-09T08:12:07Z</time>
      </trkpt>
      <trkpt lat="37.326148" lon="-3.101322">
        <ele>1050.000000</ele>
        <time>2019-05-09T08:12:08Z</time>
      </trkpt>
      <trkpt lat="37.326137" lon="-3.101338">
        <ele>1050.000000</ele>
        <time>2019-05-09T08:12:08Z</time>
      </trkpt>
      <trkpt lat="37.326124" lon="-3.101357">
        <ele>1050.000000</ele>
        <time>2019-05-09T08:12:09Z</time>
      </trkpt>
      <trkpt lat="37.326114" lon="-3.101373">
        <ele>1050.000000</ele>
        <time>2019-05-09T08:12:10Z</time>
      </trkpt>
      <trkpt lat="37.326102" lon="-3.101392">
        <ele>1050.000000</ele>
        <time>2019-05-09T08:12:11Z</time>
      </trkpt>
      <trkpt lat="37.326090" lon="-3.101410">
        <ele>1050.000000</ele>
        <time>2019-05-09T08:12:13Z</time>
      </trkpt>
      <trkpt lat="37.326080" lon="-3.101425">
        <ele>1050.000000</ele>
        <time>2019-05-09T08:12:14Z</time>
      </trkpt>
      <trkpt lat="37.326069" lon="-3.101442">
        <ele>1050.000000</ele>
        <time>2019-05-09T08:12:15Z</time>
      </trkpt>
      <trkpt lat="37.326056" lon="-3.101460">
        <ele>1050.000000</ele>
        <time>2019-05-09T08:12:16Z</time>
      </trkpt>
      <trkpt lat="37.326040" lon="-3.101482">
        <ele>1050.000000</ele>
        <time>2019-05-09T08:12:17Z</time>
      </trkpt>
      <trkpt lat="37.326031" lon="-3.101495">
        <ele>1050.000000</ele>
        <time>2019-05-09T08:12:18Z</time>
      </trkpt>
      <trkpt lat="37.326021" lon="-3.101508">
        <ele>1050.000000</ele>
        <time>2019-05-09T08:12:19Z</time>
      </trkpt>
      <trkpt lat="37.326003" lon="-3.101518">
        <ele>1050.000000</ele>
        <time>2019-05-09T08:12:20Z</time>
      </trkpt>
      <trkpt lat="37.325992" lon="-3.101530">
        <ele>1050.000000</ele>
        <time>2019-05-09T08:12:21Z</time>
      </trkpt>
      <trkpt lat="37.325975" lon="-3.101548">
        <ele>1050.000000</ele>
        <time>2019-05-09T08:12:22Z</time>
      </trkpt>
      <trkpt lat="37.325963" lon="-3.101564">
        <ele>1050.000000</ele>
        <time>2019-05-09T08:12:23Z</time>
      </trkpt>
      <trkpt lat="37.325953" lon="-3.101580">
        <ele>1050.000000</ele>
        <time>2019-05-09T08:12:24Z</time>
      </trkpt>
      <trkpt lat="37.325945" lon="-3.101595">
        <ele>1050.000000</ele>
        <time>2019-05-09T08:12:25Z</time>
      </trkpt>
      <trkpt lat="37.325935" lon="-3.101622">
        <ele>1050.000000</ele>
        <time>2019-05-09T08:12:26Z</time>
      </trkpt>
      <trkpt lat="37.325925" lon="-3.101640">
        <ele>1050.000000</ele>
        <time>2019-05-09T08:12:27Z</time>
      </trkpt>
      <trkpt lat="37.325916" lon="-3.101650">
        <ele>1050.000000</ele>
        <time>2019-05-09T08:12:28Z</time>
      </trkpt>
      <trkpt lat="37.325906" lon="-3.101662">
        <ele>1050.000000</ele>
        <time>2019-05-09T08:12:29Z</time>
      </trkpt>
      <trkpt lat="37.325899" lon="-3.101672">
        <ele>1050.000000</ele>
        <time>2019-05-09T08:12:30Z</time>
      </trkpt>
      <trkpt lat="37.325891" lon="-3.101683">
        <ele>1050.000000</ele>
        <time>2019-05-09T08:12:31Z</time>
      </trkpt>
      <trkpt lat="37.325882" lon="-3.101695">
        <ele>1050.000000</ele>
        <time>2019-05-09T08:12:32Z</time>
      </trkpt>
      <trkpt lat="37.325872" lon="-3.101708">
        <ele>1050.000000</ele>
        <time>2019-05-09T08:12:33Z</time>
      </trkpt>
      <trkpt lat="37.325864" lon="-3.101718">
        <ele>1050.000000</ele>
        <time>2019-05-09T08:12:34Z</time>
      </trkpt>
      <trkpt lat="37.325853" lon="-3.101735">
        <ele>1050.000000</ele>
        <time>2019-05-09T08:12:35Z</time>
      </trkpt>
      <trkpt lat="37.325844" lon="-3.101748">
        <ele>1050.000000</ele>
        <time>2019-05-09T08:12:36Z</time>
      </trkpt>
      <trkpt lat="37.325835" lon="-3.101760">
        <ele>1050.000000</ele>
        <time>2019-05-09T08:12:37Z</time>
      </trkpt>
      <trkpt lat="37.325827" lon="-3.101770">
        <ele>1050.000000</ele>
        <time>2019-05-09T08:12:38Z</time>
      </trkpt>
      <trkpt lat="37.325818" lon="-3.101782">
        <ele>1050.000000</ele>
        <time>2019-05-09T08:12:39Z</time>
      </trkpt>
      <trkpt lat="37.325808" lon="-3.101793">
        <ele>1050.000000</ele>
        <time>2019-05-09T08:12:40Z</time>
      </trkpt>
      <trkpt lat="37.325800" lon="-3.101803">
        <ele>1050.000000</ele>
        <time>2019-05-09T08:12:41Z</time>
      </trkpt>
      <trkpt lat="37.325791" lon="-3.101815">
        <ele>1050.000000</ele>
        <time>2019-05-09T08:12:42Z</time>
      </trkpt>
      <trkpt lat="37.325780" lon="-3.101828">
        <ele>1050.000000</ele>
        <time>2019-05-09T08:12:43Z</time>
      </trkpt>
      <trkpt lat="37.325765" lon="-3.101838">
        <ele>1050.000000</ele>
        <time>2019-05-09T08:12:44Z</time>
      </trkpt>
      <trkpt lat="37.325753" lon="-3.101853">
        <ele>1050.000000</ele>
        <time>2019-05-09T08:12:45Z</time>
      </trkpt>
      <trkpt lat="37.325742" lon="-3.101865">
        <ele>1050.000000</ele>
        <time>2019-05-09T08:12:46Z</time>
      </trkpt>
      <trkpt lat="37.325737" lon="-3.101874">
        <ele>1050.000000</ele>
        <time>2019-05-09T08:12:47Z</time>
      </trkpt>
      <trkpt lat="37.325728" lon="-3.101892">
        <ele>1050.000000</ele>
        <time>2019-05-09T08:12:47Z</time>
      </trkpt>
      <trkpt lat="37.325720" lon="-3.101907">
        <ele>1050.000000</ele>
        <time>2019-05-09T08:12:48Z</time>
      </trkpt>
      <trkpt lat="37.325710" lon="-3.101920">
        <ele>1050.000000</ele>
        <time>2019-05-09T08:12:49Z</time>
      </trkpt>
      <trkpt lat="37.325698" lon="-3.101933">
        <ele>1050.000000</ele>
        <time>2019-05-09T08:12:50Z</time>
      </trkpt>
      <trkpt lat="37.325687" lon="-3.101948">
        <ele>1050.000000</ele>
        <time>2019-05-09T08:12:51Z</time>
      </trkpt>
      <trkpt lat="37.325677" lon="-3.101967">
        <ele>1050.000000</ele>
        <time>2019-05-09T08:12:52Z</time>
      </trkpt>
      <trkpt lat="37.325667" lon="-3.101983">
        <ele>1050.000000</ele>
        <time>2019-05-09T08:12:53Z</time>
      </trkpt>
      <trkpt lat="37.325653" lon="-3.102002">
        <ele>1050.000000</ele>
        <time>2019-05-09T08:12:55Z</time>
      </trkpt>
      <trkpt lat="37.325641" lon="-3.102018">
        <ele>1050.000000</ele>
        <time>2019-05-09T08:12:55Z</time>
      </trkpt>
      <trkpt lat="37.325627" lon="-3.102037">
        <ele>1050.000000</ele>
        <time>2019-05-09T08:12:56Z</time>
      </trkpt>
      <trkpt lat="37.325614" lon="-3.102055">
        <ele>1050.000000</ele>
        <time>2019-05-09T08:12:57Z</time>
      </trkpt>
      <trkpt lat="37.325601" lon="-3.102073">
        <ele>1050.000000</ele>
        <time>2019-05-09T08:12:58Z</time>
      </trkpt>
      <trkpt lat="37.325590" lon="-3.102090">
        <ele>1050.000000</ele>
        <time>2019-05-09T08:12:59Z</time>
      </trkpt>
      <trkpt lat="37.325576" lon="-3.102108">
        <ele>1049.000000</ele>
        <time>2019-05-09T08:13:00Z</time>
      </trkpt>
      <trkpt lat="37.325560" lon="-3.102125">
        <ele>1049.000000</ele>
        <time>2019-05-09T08:13:01Z</time>
      </trkpt>
      <trkpt lat="37.325548" lon="-3.102143">
        <ele>1049.000000</ele>
        <time>2019-05-09T08:13:02Z</time>
      </trkpt>
      <trkpt lat="37.325537" lon="-3.102162">
        <ele>1049.000000</ele>
        <time>2019-05-09T08:13:03Z</time>
      </trkpt>
      <trkpt lat="37.325525" lon="-3.102177">
        <ele>1049.000000</ele>
        <time>2019-05-09T08:13:04Z</time>
      </trkpt>
      <trkpt lat="37.325514" lon="-3.102193">
        <ele>1049.000000</ele>
        <time>2019-05-09T08:13:05Z</time>
      </trkpt>
      <trkpt lat="37.325503" lon="-3.102210">
        <ele>1049.000000</ele>
        <time>2019-05-09T08:13:06Z</time>
      </trkpt>
      <trkpt lat="37.325492" lon="-3.102227">
        <ele>1048.000000</ele>
        <time>2019-05-09T08:13:07Z</time>
      </trkpt>
      <trkpt lat="37.325479" lon="-3.102245">
        <ele>1048.000000</ele>
        <time>2019-05-09T08:13:08Z</time>
      </trkpt>
      <trkpt lat="37.325467" lon="-3.102262">
        <ele>1048.000000</ele>
        <time>2019-05-09T08:13:09Z</time>
      </trkpt>
      <trkpt lat="37.325456" lon="-3.102278">
        <ele>1048.000000</ele>
        <time>2019-05-09T08:13:10Z</time>
      </trkpt>
      <trkpt lat="37.325446" lon="-3.102293">
        <ele>1048.000000</ele>
        <time>2019-05-09T08:13:11Z</time>
      </trkpt>
      <trkpt lat="37.325435" lon="-3.102312">
        <ele>1048.000000</ele>
        <time>2019-05-09T08:13:13Z</time>
      </trkpt>
      <trkpt lat="37.325424" lon="-3.102328">
        <ele>1048.000000</ele>
        <time>2019-05-09T08:13:13Z</time>
      </trkpt>
      <trkpt lat="37.325413" lon="-3.102345">
        <ele>1048.000000</ele>
        <time>2019-05-09T08:13:14Z</time>
      </trkpt>
      <trkpt lat="37.325403" lon="-3.102360">
        <ele>1048.000000</ele>
        <time>2019-05-09T08:13:15Z</time>
      </trkpt>
      <trkpt lat="37.325394" lon="-3.102375">
        <ele>1048.000000</ele>
        <time>2019-05-09T08:13:16Z</time>
      </trkpt>
      <trkpt lat="37.325383" lon="-3.102392">
        <ele>1048.000000</ele>
        <time>2019-05-09T08:13:17Z</time>
      </trkpt>
      <trkpt lat="37.325372" lon="-3.102410">
        <ele>1048.000000</ele>
        <time>2019-05-09T08:13:18Z</time>
      </trkpt>
      <trkpt lat="37.325362" lon="-3.102427">
        <ele>1048.000000</ele>
        <time>2019-05-09T08:13:19Z</time>
      </trkpt>
      <trkpt lat="37.325353" lon="-3.102442">
        <ele>1048.000000</ele>
        <time>2019-05-09T08:13:20Z</time>
      </trkpt>
      <trkpt lat="37.325345" lon="-3.102455">
        <ele>1048.000000</ele>
        <time>2019-05-09T08:13:21Z</time>
      </trkpt>
      <trkpt lat="37.325337" lon="-3.102468">
        <ele>1048.000000</ele>
        <time>2019-05-09T08:13:22Z</time>
      </trkpt>
      <trkpt lat="37.325328" lon="-3.102483">
        <ele>1048.000000</ele>
        <time>2019-05-09T08:13:23Z</time>
      </trkpt>
      <trkpt lat="37.325319" lon="-3.102495">
        <ele>1048.000000</ele>
        <time>2019-05-09T08:13:24Z</time>
      </trkpt>
      <trkpt lat="37.325310" lon="-3.102510">
        <ele>1048.000000</ele>
        <time>2019-05-09T08:13:26Z</time>
      </trkpt>
      <trkpt lat="37.325301" lon="-3.102525">
        <ele>1048.000000</ele>
        <time>2019-05-09T08:13:27Z</time>
      </trkpt>
      <trkpt lat="37.325293" lon="-3.102538">
        <ele>1047.000000</ele>
        <time>2019-05-09T08:13:28Z</time>
      </trkpt>
      <trkpt lat="37.325283" lon="-3.102555">
        <ele>1047.000000</ele>
        <time>2019-05-09T08:13:29Z</time>
      </trkpt>
      <trkpt lat="37.325276" lon="-3.102570">
        <ele>1047.000000</ele>
        <time>2019-05-09T08:13:30Z</time>
      </trkpt>
      <trkpt lat="37.325270" lon="-3.102583">
        <ele>1047.000000</ele>
        <time>2019-05-09T08:13:31Z</time>
      </trkpt>
      <trkpt lat="37.325263" lon="-3.102598">
        <ele>1047.000000</ele>
        <time>2019-05-09T08:13:32Z</time>
      </trkpt>
      <trkpt lat="37.325256" lon="-3.102613">
        <ele>1047.000000</ele>
        <time>2019-05-09T08:13:32Z</time>
      </trkpt>
      <trkpt lat="37.325249" lon="-3.102632">
        <ele>1047.000000</ele>
        <time>2019-05-09T08:13:33Z</time>
      </trkpt>
      <trkpt lat="37.325241" lon="-3.102650">
        <ele>1047.000000</ele>
        <time>2019-05-09T08:13:34Z</time>
      </trkpt>
      <trkpt lat="37.325232" lon="-3.102673">
        <ele>1047.000000</ele>
        <time>2019-05-09T08:13:35Z</time>
      </trkpt>
      <trkpt lat="37.325227" lon="-3.102692">
        <ele>1047.000000</ele>
        <time>2019-05-09T08:13:36Z</time>
      </trkpt>
      <trkpt lat="37.325221" lon="-3.102712">
        <ele>1047.000000</ele>
        <time>2019-05-09T08:13:38Z</time>
      </trkpt>
      <trkpt lat="37.325213" lon="-3.102737">
        <ele>1047.000000</ele>
        <time>2019-05-09T08:13:38Z</time>
      </trkpt>
      <trkpt lat="37.325206" lon="-3.102762">
        <ele>1047.000000</ele>
        <time>2019-05-09T08:13:39Z</time>
      </trkpt>
      <trkpt lat="37.325199" lon="-3.102785">
        <ele>1047.000000</ele>
        <time>2019-05-09T08:13:40Z</time>
      </trkpt>
      <trkpt lat="37.325193" lon="-3.102808">
        <ele>1047.000000</ele>
        <time>2019-05-09T08:13:41Z</time>
      </trkpt>
      <trkpt lat="37.325187" lon="-3.102830">
        <ele>1046.000000</ele>
        <time>2019-05-09T08:13:42Z</time>
      </trkpt>
      <trkpt lat="37.325182" lon="-3.102852">
        <ele>1046.000000</ele>
        <time>2019-05-09T08:13:43Z</time>
      </trkpt>
      <trkpt lat="37.325177" lon="-3.102872">
        <ele>1046.000000</ele>
        <time>2019-05-09T08:13:44Z</time>
      </trkpt>
      <trkpt lat="37.325171" lon="-3.102893">
        <ele>1046.000000</ele>
        <time>2019-05-09T08:13:45Z</time>
      </trkpt>
      <trkpt lat="37.325169" lon="-3.102912">
        <ele>1046.000000</ele>
        <time>2019-05-09T08:13:46Z</time>
      </trkpt>
      <trkpt lat="37.325165" lon="-3.102932">
        <ele>1046.000000</ele>
        <time>2019-05-09T08:13:47Z</time>
      </trkpt>
      <trkpt lat="37.325160" lon="-3.102947">
        <ele>1046.000000</ele>
        <time>2019-05-09T08:13:48Z</time>
      </trkpt>
      <trkpt lat="37.325158" lon="-3.102963">
        <ele>1046.000000</ele>
        <time>2019-05-09T08:13:49Z</time>
      </trkpt>
      <trkpt lat="37.325156" lon="-3.102977">
        <ele>1046.000000</ele>
        <time>2019-05-09T08:13:50Z</time>
      </trkpt>
      <trkpt lat="37.325152" lon="-3.102993">
        <ele>1046.000000</ele>
        <time>2019-05-09T08:13:51Z</time>
      </trkpt>
      <trkpt lat="37.325147" lon="-3.103012">
        <ele>1046.000000</ele>
        <time>2019-05-09T08:13:52Z</time>
      </trkpt>
      <trkpt lat="37.325147" lon="-3.103028">
        <ele>1046.000000</ele>
        <time>2019-05-09T08:13:53Z</time>
      </trkpt>
      <trkpt lat="37.325145" lon="-3.103047">
        <ele>1046.000000</ele>
        <time>2019-05-09T08:13:53Z</time>
      </trkpt>
      <trkpt lat="37.325143" lon="-3.103065">
        <ele>1046.000000</ele>
        <time>2019-05-09T08:13:54Z</time>
      </trkpt>
      <trkpt lat="37.325140" lon="-3.103085">
        <ele>1046.000000</ele>
        <time>2019-05-09T08:13:55Z</time>
      </trkpt>
      <trkpt lat="37.325139" lon="-3.103103">
        <ele>1046.000000</ele>
        <time>2019-05-09T08:13:57Z</time>
      </trkpt>
      <trkpt lat="37.325137" lon="-3.103125">
        <ele>1046.000000</ele>
        <time>2019-05-09T08:13:57Z</time>
      </trkpt>
      <trkpt lat="37.325132" lon="-3.103148">
        <ele>1046.000000</ele>
        <time>2019-05-09T08:13:58Z</time>
      </trkpt>
      <trkpt lat="37.325130" lon="-3.103172">
        <ele>1046.000000</ele>
        <time>2019-05-09T08:13:59Z</time>
      </trkpt>
      <trkpt lat="37.325128" lon="-3.103195">
        <ele>1046.000000</ele>
        <time>2019-05-09T08:14:00Z</time>
      </trkpt>
      <trkpt lat="37.325126" lon="-3.103215">
        <ele>1046.000000</ele>
        <time>2019-05-09T08:14:02Z</time>
      </trkpt>
      <trkpt lat="37.325124" lon="-3.103237">
        <ele>1046.000000</ele>
        <time>2019-05-09T08:14:02Z</time>
      </trkpt>
      <trkpt lat="37.325122" lon="-3.103258">
        <ele>1045.000000</ele>
        <time>2019-05-09T08:14:03Z</time>
      </trkpt>
      <trkpt lat="37.325119" lon="-3.103283">
        <ele>1045.000000</ele>
        <time>2019-05-09T08:14:04Z</time>
      </trkpt>
      <trkpt lat="37.325116" lon="-3.103305">
        <ele>1045.000000</ele>
        <time>2019-05-09T08:14:05Z</time>
      </trkpt>
      <trkpt lat="37.325114" lon="-3.103328">
        <ele>1045.000000</ele>
        <time>2019-05-09T08:14:06Z</time>
      </trkpt>
      <trkpt lat="37.325112" lon="-3.103348">
        <ele>1045.000000</ele>
        <time>2019-05-09T08:14:07Z</time>
      </trkpt>
      <trkpt lat="37.325109" lon="-3.103368">
        <ele>1045.000000</ele>
        <time>2019-05-09T08:14:09Z</time>
      </trkpt>
      <trkpt lat="37.325108" lon="-3.103387">
        <ele>1045.000000</ele>
        <time>2019-05-09T08:14:09Z</time>
      </trkpt>
      <trkpt lat="37.325106" lon="-3.103403">
        <ele>1045.000000</ele>
        <time>2019-05-09T08:14:10Z</time>
      </trkpt>
      <trkpt lat="37.325104" lon="-3.103422">
        <ele>1045.000000</ele>
        <time>2019-05-09T08:14:11Z</time>
      </trkpt>
      <trkpt lat="37.325102" lon="-3.103437">
        <ele>1044.000000</ele>
        <time>2019-05-09T08:14:12Z</time>
      </trkpt>
      <trkpt lat="37.325101" lon="-3.103452">
        <ele>1044.000000</ele>
        <time>2019-05-09T08:14:13Z</time>
      </trkpt>
      <trkpt lat="37.325098" lon="-3.103472">
        <ele>1044.000000</ele>
        <time>2019-05-09T08:14:14Z</time>
      </trkpt>
      <trkpt lat="37.325094" lon="-3.103490">
        <ele>1044.000000</ele>
        <time>2019-05-09T08:14:15Z</time>
      </trkpt>
      <trkpt lat="37.325090" lon="-3.103510">
        <ele>1044.000000</ele>
        <time>2019-05-09T08:14:16Z</time>
      </trkpt>
      <trkpt lat="37.325088" lon="-3.103530">
        <ele>1044.000000</ele>
        <time>2019-05-09T08:14:17Z</time>
      </trkpt>
      <trkpt lat="37.325084" lon="-3.103552">
        <ele>1044.000000</ele>
        <time>2019-05-09T08:14:18Z</time>
      </trkpt>
      <trkpt lat="37.325079" lon="-3.103573">
        <ele>1044.000000</ele>
        <time>2019-05-09T08:14:19Z</time>
      </trkpt>
      <trkpt lat="37.325075" lon="-3.103595">
        <ele>1044.000000</ele>
        <time>2019-05-09T08:14:21Z</time>
      </trkpt>
      <trkpt lat="37.325071" lon="-3.103615">
        <ele>1044.000000</ele>
        <time>2019-05-09T08:14:21Z</time>
      </trkpt>
      <trkpt lat="37.325068" lon="-3.103635">
        <ele>1044.000000</ele>
        <time>2019-05-09T08:14:22Z</time>
      </trkpt>
      <trkpt lat="37.325064" lon="-3.103655">
        <ele>1044.000000</ele>
        <time>2019-05-09T08:14:23Z</time>
      </trkpt>
      <trkpt lat="37.325057" lon="-3.103677">
        <ele>1044.000000</ele>
        <time>2019-05-09T08:14:24Z</time>
      </trkpt>
      <trkpt lat="37.325053" lon="-3.103695">
        <ele>1044.000000</ele>
        <time>2019-05-09T08:14:25Z</time>
      </trkpt>
      <trkpt lat="37.325050" lon="-3.103712">
        <ele>1044.000000</ele>
        <time>2019-05-09T08:14:26Z</time>
      </trkpt>
      <trkpt lat="37.325046" lon="-3.103728">
        <ele>1044.000000</ele>
        <time>2019-05-09T08:14:27Z</time>
      </trkpt>
      <trkpt lat="37.325042" lon="-3.103745">
        <ele>1044.000000</ele>
        <time>2019-05-09T08:14:29Z</time>
      </trkpt>
      <trkpt lat="37.325038" lon="-3.103760">
        <ele>1044.000000</ele>
        <time>2019-05-09T08:14:30Z</time>
      </trkpt>
      <trkpt lat="37.325033" lon="-3.103777">
        <ele>1044.000000</ele>
        <time>2019-05-09T08:14:31Z</time>
      </trkpt>
      <trkpt lat="37.325028" lon="-3.103798">
        <ele>1044.000000</ele>
        <time>2019-05-09T08:14:32Z</time>
      </trkpt>
      <trkpt lat="37.325021" lon="-3.103822">
        <ele>1044.000000</ele>
        <time>2019-05-09T08:14:33Z</time>
      </trkpt>
      <trkpt lat="37.325017" lon="-3.103842">
        <ele>1044.000000</ele>
        <time>2019-05-09T08:14:34Z</time>
      </trkpt>
      <trkpt lat="37.325010" lon="-3.103863">
        <ele>1044.000000</ele>
        <time>2019-05-09T08:14:35Z</time>
      </trkpt>
      <trkpt lat="37.325005" lon="-3.103880">
        <ele>1044.000000</ele>
        <time>2019-05-09T08:14:36Z</time>
      </trkpt>
      <trkpt lat="37.324999" lon="-3.103905">
        <ele>1044.000000</ele>
        <time>2019-05-09T08:14:37Z</time>
      </trkpt>
      <trkpt lat="37.324992" lon="-3.103925">
        <ele>1044.000000</ele>
        <time>2019-05-09T08:14:38Z</time>
      </trkpt>
      <trkpt lat="37.324987" lon="-3.103940">
        <ele>1044.000000</ele>
        <time>2019-05-09T08:14:39Z</time>
      </trkpt>
      <trkpt lat="37.324981" lon="-3.103958">
        <ele>1044.000000</ele>
        <time>2019-05-09T08:14:40Z</time>
      </trkpt>
      <trkpt lat="37.324977" lon="-3.103975">
        <ele>1044.000000</ele>
        <time>2019-05-09T08:14:41Z</time>
      </trkpt>
      <trkpt lat="37.324971" lon="-3.103993">
        <ele>1044.000000</ele>
        <time>2019-05-09T08:14:42Z</time>
      </trkpt>
      <trkpt lat="37.324965" lon="-3.104012">
        <ele>1044.000000</ele>
        <time>2019-05-09T08:14:43Z</time>
      </trkpt>
      <trkpt lat="37.324959" lon="-3.104030">
        <ele>1044.000000</ele>
        <time>2019-05-09T08:14:44Z</time>
      </trkpt>
      <trkpt lat="37.324951" lon="-3.104057">
        <ele>1044.000000</ele>
        <time>2019-05-09T08:14:45Z</time>
      </trkpt>
      <trkpt lat="37.324944" lon="-3.104077">
        <ele>1044.000000</ele>
        <time>2019-05-09T08:14:46Z</time>
      </trkpt>
      <trkpt lat="37.324937" lon="-3.104100">
        <ele>1043.000000</ele>
        <time>2019-05-09T08:14:47Z</time>
      </trkpt>
      <trkpt lat="37.324929" lon="-3.104123">
        <ele>1043.000000</ele>
        <time>2019-05-09T08:14:48Z</time>
      </trkpt>
      <trkpt lat="37.324924" lon="-3.104147">
        <ele>1043.000000</ele>
        <time>2019-05-09T08:14:49Z</time>
      </trkpt>
      <trkpt lat="37.324917" lon="-3.104168">
        <ele>1043.000000</ele>
        <time>2019-05-09T08:14:50Z</time>
      </trkpt>
      <trkpt lat="37.324912" lon="-3.104188">
        <ele>1043.000000</ele>
        <time>2019-05-09T08:14:51Z</time>
      </trkpt>
      <trkpt lat="37.324906" lon="-3.104210">
        <ele>1043.000000</ele>
        <time>2019-05-09T08:14:52Z</time>
      </trkpt>
      <trkpt lat="37.324899" lon="-3.104232">
        <ele>1043.000000</ele>
        <time>2019-05-09T08:14:53Z</time>
      </trkpt>
      <trkpt lat="37.324890" lon="-3.104260">
        <ele>1043.000000</ele>
        <time>2019-05-09T08:14:55Z</time>
      </trkpt>
      <trkpt lat="37.324884" lon="-3.104283">
        <ele>1043.000000</ele>
        <time>2019-05-09T08:14:56Z</time>
      </trkpt>
      <trkpt lat="37.324879" lon="-3.104303">
        <ele>1043.000000</ele>
        <time>2019-05-09T08:14:57Z</time>
      </trkpt>
      <trkpt lat="37.324873" lon="-3.104325">
        <ele>1042.000000</ele>
        <time>2019-05-09T08:14:59Z</time>
      </trkpt>
      <trkpt lat="37.324867" lon="-3.104348">
        <ele>1042.000000</ele>
        <time>2019-05-09T08:14:59Z</time>
      </trkpt>
      <trkpt lat="37.324862" lon="-3.104370">
        <ele>1042.000000</ele>
        <time>2019-05-09T08:15:00Z</time>
      </trkpt>
      <trkpt lat="37.324856" lon="-3.104393">
        <ele>1042.000000</ele>
        <time>2019-05-09T08:15:02Z</time>
      </trkpt>
      <trkpt lat="37.324851" lon="-3.104413">
        <ele>1042.000000</ele>
        <time>2019-05-09T08:15:03Z</time>
      </trkpt>
      <trkpt lat="37.324848" lon="-3.104433">
        <ele>1042.000000</ele>
        <time>2019-05-09T08:15:04Z</time>
      </trkpt>
      <trkpt lat="37.324842" lon="-3.104455">
        <ele>1042.000000</ele>
        <time>2019-05-09T08:15:05Z</time>
      </trkpt>
      <trkpt lat="37.324839" lon="-3.104475">
        <ele>1041.000000</ele>
        <time>2019-05-09T08:15:06Z</time>
      </trkpt>
      <trkpt lat="37.324835" lon="-3.104492">
        <ele>1041.000000</ele>
        <time>2019-05-09T08:15:07Z</time>
      </trkpt>
      <trkpt lat="37.324833" lon="-3.104508">
        <ele>1041.000000</ele>
        <time>2019-05-09T08:15:08Z</time>
      </trkpt>
      <trkpt lat="37.324831" lon="-3.104525">
        <ele>1041.000000</ele>
        <time>2019-05-09T08:15:09Z</time>
      </trkpt>
      <trkpt lat="37.324829" lon="-3.104542">
        <ele>1041.000000</ele>
        <time>2019-05-09T08:15:10Z</time>
      </trkpt>
      <trkpt lat="37.324827" lon="-3.104557">
        <ele>1040.000000</ele>
        <time>2019-05-09T08:15:11Z</time>
      </trkpt>
      <trkpt lat="37.324823" lon="-3.104572">
        <ele>1040.000000</ele>
        <time>2019-05-09T08:15:12Z</time>
      </trkpt>
      <trkpt lat="37.324821" lon="-3.104588">
        <ele>1040.000000</ele>
        <time>2019-05-09T08:15:13Z</time>
      </trkpt>
      <trkpt lat="37.324820" lon="-3.104603">
        <ele>1040.000000</ele>
        <time>2019-05-09T08:15:14Z</time>
      </trkpt>
      <trkpt lat="37.324817" lon="-3.104620">
        <ele>1040.000000</ele>
        <time>2019-05-09T08:15:15Z</time>
      </trkpt>
      <trkpt lat="37.324813" lon="-3.104645">
        <ele>1040.000000</ele>
        <time>2019-05-09T08:15:16Z</time>
      </trkpt>
      <trkpt lat="37.324810" lon="-3.104660">
        <ele>1040.000000</ele>
        <time>2019-05-09T08:15:17Z</time>
      </trkpt>
      <trkpt lat="37.324806" lon="-3.104687">
        <ele>1040.000000</ele>
        <time>2019-05-09T08:15:18Z</time>
      </trkpt>
      <trkpt lat="37.324802" lon="-3.104710">
        <ele>1040.000000</ele>
        <time>2019-05-09T08:15:19Z</time>
      </trkpt>
      <trkpt lat="37.324800" lon="-3.104732">
        <ele>1040.000000</ele>
        <time>2019-05-09T08:15:20Z</time>
      </trkpt>
      <trkpt lat="37.324796" lon="-3.104755">
        <ele>1040.000000</ele>
        <time>2019-05-09T08:15:21Z</time>
      </trkpt>
      <trkpt lat="37.324793" lon="-3.104780">
        <ele>1039.000000</ele>
        <time>2019-05-09T08:15:22Z</time>
      </trkpt>
      <trkpt lat="37.324791" lon="-3.104798">
        <ele>1039.000000</ele>
        <time>2019-05-09T08:15:23Z</time>
      </trkpt>
      <trkpt lat="37.324786" lon="-3.104822">
        <ele>1038.000000</ele>
        <time>2019-05-09T08:15:24Z</time>
      </trkpt>
      <trkpt lat="37.324783" lon="-3.104848">
        <ele>1038.000000</ele>
        <time>2019-05-09T08:15:25Z</time>
      </trkpt>
      <trkpt lat="37.324779" lon="-3.104867">
        <ele>1037.000000</ele>
        <time>2019-05-09T08:15:26Z</time>
      </trkpt>
      <trkpt lat="37.324777" lon="-3.104885">
        <ele>1037.000000</ele>
        <time>2019-05-09T08:15:27Z</time>
      </trkpt>
      <trkpt lat="37.324773" lon="-3.104903">
        <ele>1037.000000</ele>
        <time>2019-05-09T08:15:28Z</time>
      </trkpt>
      <trkpt lat="37.324771" lon="-3.104920">
        <ele>1037.000000</ele>
        <time>2019-05-09T08:15:29Z</time>
      </trkpt>
      <trkpt lat="37.324768" lon="-3.104935">
        <ele>1037.000000</ele>
        <time>2019-05-09T08:15:30Z</time>
      </trkpt>
      <trkpt lat="37.324766" lon="-3.104957">
        <ele>1037.000000</ele>
        <time>2019-05-09T08:15:31Z</time>
      </trkpt>
      <trkpt lat="37.324763" lon="-3.104970">
        <ele>1037.000000</ele>
        <time>2019-05-09T08:15:32Z</time>
      </trkpt>
      <trkpt lat="37.324758" lon="-3.104993">
        <ele>1037.000000</ele>
        <time>2019-05-09T08:15:33Z</time>
      </trkpt>
      <trkpt lat="37.324753" lon="-3.105017">
        <ele>1037.000000</ele>
        <time>2019-05-09T08:15:34Z</time>
      </trkpt>
      <trkpt lat="37.324749" lon="-3.105038">
        <ele>1036.000000</ele>
        <time>2019-05-09T08:15:35Z</time>
      </trkpt>
      <trkpt lat="37.324744" lon="-3.105062">
        <ele>1036.000000</ele>
        <time>2019-05-09T08:15:36Z</time>
      </trkpt>
      <trkpt lat="37.324737" lon="-3.105083">
        <ele>1036.000000</ele>
        <time>2019-05-09T08:15:37Z</time>
      </trkpt>
      <trkpt lat="37.324733" lon="-3.105102">
        <ele>1036.000000</ele>
        <time>2019-05-09T08:15:38Z</time>
      </trkpt>
      <trkpt lat="37.324727" lon="-3.105122">
        <ele>1035.000000</ele>
        <time>2019-05-09T08:15:39Z</time>
      </trkpt>
      <trkpt lat="37.324721" lon="-3.105138">
        <ele>1035.000000</ele>
        <time>2019-05-09T08:15:40Z</time>
      </trkpt>
      <trkpt lat="37.324716" lon="-3.105155">
        <ele>1035.000000</ele>
        <time>2019-05-09T08:15:41Z</time>
      </trkpt>
      <trkpt lat="37.324709" lon="-3.105173">
        <ele>1035.000000</ele>
        <time>2019-05-09T08:15:42Z</time>
      </trkpt>
      <trkpt lat="37.324704" lon="-3.105187">
        <ele>1035.000000</ele>
        <time>2019-05-09T08:15:43Z</time>
      </trkpt>
      <trkpt lat="37.324698" lon="-3.105207">
        <ele>1035.000000</ele>
        <time>2019-05-09T08:15:44Z</time>
      </trkpt>
      <trkpt lat="37.324691" lon="-3.105228">
        <ele>1035.000000</ele>
        <time>2019-05-09T08:15:45Z</time>
      </trkpt>
      <trkpt lat="37.324684" lon="-3.105250">
        <ele>1035.000000</ele>
        <time>2019-05-09T08:15:46Z</time>
      </trkpt>
      <trkpt lat="37.324677" lon="-3.105272">
        <ele>1035.000000</ele>
        <time>2019-05-09T08:15:47Z</time>
      </trkpt>
      <trkpt lat="37.324671" lon="-3.105290">
        <ele>1035.000000</ele>
        <time>2019-05-09T08:15:48Z</time>
      </trkpt>
      <trkpt lat="37.324663" lon="-3.105308">
        <ele>1035.000000</ele>
        <time>2019-05-09T08:15:49Z</time>
      </trkpt>
      <trkpt lat="37.324655" lon="-3.105332">
        <ele>1034.000000</ele>
        <time>2019-05-09T08:15:50Z</time>
      </trkpt>
      <trkpt lat="37.324647" lon="-3.105348">
        <ele>1034.000000</ele>
        <time>2019-05-09T08:15:52Z</time>
      </trkpt>
      <trkpt lat="37.324638" lon="-3.105368">
        <ele>1034.000000</ele>
        <time>2019-05-09T08:15:53Z</time>
      </trkpt>
      <trkpt lat="37.324631" lon="-3.105385">
        <ele>1034.000000</ele>
        <time>2019-05-09T08:15:54Z</time>
      </trkpt>
      <trkpt lat="37.324623" lon="-3.105400">
        <ele>1034.000000</ele>
        <time>2019-05-09T08:15:55Z</time>
      </trkpt>
      <trkpt lat="37.324614" lon="-3.105420">
        <ele>1034.000000</ele>
        <time>2019-05-09T08:15:56Z</time>
      </trkpt>
      <trkpt lat="37.324608" lon="-3.105435">
        <ele>1034.000000</ele>
        <time>2019-05-09T08:15:57Z</time>
      </trkpt>
      <trkpt lat="37.324600" lon="-3.105448">
        <ele>1034.000000</ele>
        <time>2019-05-09T08:15:58Z</time>
      </trkpt>
      <trkpt lat="37.324593" lon="-3.105462">
        <ele>1034.000000</ele>
        <time>2019-05-09T08:15:59Z</time>
      </trkpt>
      <trkpt lat="37.324584" lon="-3.105485">
        <ele>1034.000000</ele>
        <time>2019-05-09T08:16:00Z</time>
      </trkpt>
      <trkpt lat="37.324574" lon="-3.105503">
        <ele>1033.000000</ele>
        <time>2019-05-09T08:16:01Z</time>
      </trkpt>
      <trkpt lat="37.324565" lon="-3.105522">
        <ele>1033.000000</ele>
        <time>2019-05-09T08:16:02Z</time>
      </trkpt>
      <trkpt lat="37.324556" lon="-3.105538">
        <ele>1033.000000</ele>
        <time>2019-05-09T08:16:03Z</time>
      </trkpt>
      <trkpt lat="37.324545" lon="-3.105563">
        <ele>1033.000000</ele>
        <time>2019-05-09T08:16:04Z</time>
      </trkpt>
      <trkpt lat="37.325137" lon="-3.120000">
        <ele>997.000000</ele>
        <time>2019-05-09T08:36:34Z</time>
      </trkpt>
      <trkpt lat="37.325137" lon="-3.120028">
        <ele>997.000000</ele>
        <time>2019-05-09T08:36:36Z</time>
      </trkpt>
      <trkpt lat="37.325135" lon="-3.120050">
        <ele>997.000000</ele>
        <time>2019-05-09T08:36:38Z</time>
      </trkpt>
      <trkpt lat="37.325133" lon="-3.120072">
        <ele>997.000000</ele>
        <time>2019-05-09T08:36:41Z</time>
      </trkpt>
      <trkpt lat="37.325132" lon="-3.120098">
        <ele>997.000000</ele>
        <time>2019-05-09T08:36:43Z</time>
      </trkpt>
      <trkpt lat="37.325132" lon="-3.120125">
        <ele>997.000000</ele>
        <time>2019-05-09T08:36:45Z</time>
      </trkpt>
      <trkpt lat="37.325135" lon="-3.120147">
        <ele>997.000000</ele>
        <time>2019-05-09T08:36:47Z</time>
      </trkpt>
      <trkpt lat="37.325135" lon="-3.120170">
        <ele>997.000000</ele>
        <time>2019-05-09T08:36:49Z</time>
      </trkpt>
      <trkpt lat="37.325138" lon="-3.120188">
        <ele>997.000000</ele>
        <time>2019-05-09T08:36:52Z</time>
      </trkpt>
      <trkpt lat="37.325138" lon="-3.120208">
        <ele>996.000000</ele>
        <time>2019-05-09T08:36:54Z</time>
      </trkpt>
      <trkpt lat="37.325142" lon="-3.120227">
        <ele>996.000000</ele>
        <time>2019-05-09T08:36:56Z</time>
      </trkpt>
      <trkpt lat="37.325145" lon="-3.120253">
        <ele>996.000000</ele>
        <time>2019-05-09T08:36:58Z</time>
      </trkpt>
      <trkpt lat="37.325145" lon="-3.120268">
        <ele>996.000000</ele>
        <time>2019-05-09T08:37:00Z</time>
      </trkpt>
      <trkpt lat="37.325145" lon="-3.120288">
        <ele>996.000000</ele>
        <time>2019-05-09T08:37:03Z</time>
      </trkpt>
      <trkpt lat="37.325145" lon="-3.120308">
        <ele>996.000000</ele>
        <time>2019-05-09T08:37:05Z</time>
      </trkpt>
      <trkpt lat="37.325145" lon="-3.120328">
        <ele>996.000000</ele>
        <time>2019-05-09T08:37:07Z</time>
      </trkpt>
      <trkpt lat="37.325143" lon="-3.120350">
        <ele>997.000000</ele>
        <time>2019-05-09T08:37:07Z</time>
      </trkpt>
      <trkpt lat="37.325138" lon="-3.120370">
        <ele>997.000000</ele>
        <time>2019-05-09T08:37:07Z</time>
      </trkpt>
      <trkpt lat="37.325137" lon="-3.120395">
        <ele>997.000000</ele>
        <time>2019-05-09T08:37:07Z</time>
      </trkpt>
      <trkpt lat="37.325135" lon="-3.120422">
        <ele>997.000000</ele>
        <time>2019-05-09T08:37:07Z</time>
      </trkpt>
      <trkpt lat="37.325132" lon="-3.120448">
        <ele>997.000000</ele>
        <time>2019-05-09T08:37:07Z</time>
      </trkpt>
      <trkpt lat="37.325127" lon="-3.120468">
        <ele>997.000000</ele>
        <time>2019-05-09T08:37:07Z</time>
      </trkpt>
      <trkpt lat="37.325123" lon="-3.120483">
        <ele>997.000000</ele>
        <time>2019-05-09T08:37:07Z</time>
      </trkpt>
      <trkpt lat="37.325117" lon="-3.120500">
        <ele>996.000000</ele>
        <time>2019-05-09T08:37:07Z</time>
      </trkpt>
      <trkpt lat="37.325113" lon="-3.120517">
        <ele>996.000000</ele>
        <time>2019-05-09T08:37:07Z</time>
      </trkpt>
      <trkpt lat="37.325113" lon="-3.120533">
        <ele>996.000000</ele>
        <time>2019-05-09T08:37:07Z</time>
      </trkpt>
      <trkpt lat="37.325112" lon="-3.120557">
        <ele>996.000000</ele>
        <time>2019-05-09T08:37:07Z</time>
      </trkpt>
      <trkpt lat="37.325110" lon="-3.120575">
        <ele>996.000000</ele>
        <time>2019-05-09T08:37:07Z</time>
      </trkpt>
      <trkpt lat="37.325107" lon="-3.120597">
        <ele>996.000000</ele>
        <time>2019-05-09T08:37:07Z</time>
      </trkpt>
      <trkpt lat="37.325102" lon="-3.120618">
        <ele>996.000000</ele>
        <time>2019-05-09T08:37:07Z</time>
      </trkpt>
      <trkpt lat="37.325098" lon="-3.120643">
        <ele>996.000000</ele>
        <time>2019-05-09T08:37:07Z</time>
      </trkpt>
      <trkpt lat="37.325093" lon="-3.120668">
        <ele>996.000000</ele>
        <time>2019-05-09T08:37:07Z</time>
      </trkpt>
      <trkpt lat="37.325091" lon="-3.120695">
        <ele>996.000000</ele>
        <time>2019-05-09T08:37:08Z</time>
      </trkpt>
      <trkpt lat="37.325090" lon="-3.120718">
        <ele>996.000000</ele>
        <time>2019-05-09T08:37:09Z</time>
      </trkpt>
      <trkpt lat="37.325089" lon="-3.120742">
        <ele>996.000000</ele>
        <time>2019-05-09T08:37:10Z</time>
      </trkpt>
      <trkpt lat="37.325089" lon="-3.120765">
        <ele>996.000000</ele>
        <time>2019-05-09T08:37:11Z</time>
      </trkpt>
      <trkpt lat="37.325088" lon="-3.120788">
        <ele>996.000000</ele>
        <time>2019-05-09T08:37:12Z</time>
      </trkpt>
      <trkpt lat="37.325086" lon="-3.120812">
        <ele>995.000000</ele>
        <time>2019-05-09T08:37:13Z</time>
      </trkpt>
      <trkpt lat="37.325086" lon="-3.120835">
        <ele>995.000000</ele>
        <time>2019-05-09T08:37:14Z</time>
      </trkpt>
      <trkpt lat="37.325087" lon="-3.120855">
        <ele>995.000000</ele>
        <time>2019-05-09T08:37:15Z</time>
      </trkpt>
      <trkpt lat="37.325087" lon="-3.120873">
        <ele>995.000000</ele>
        <time>2019-05-09T08:37:16Z</time>
      </trkpt>
      <trkpt lat="37.325087" lon="-3.120890">
        <ele>995.000000</ele>
        <time>2019-05-09T08:37:17Z</time>
      </trkpt>
      <trkpt lat="37.325088" lon="-3.120912">
        <ele>995.000000</ele>
        <time>2019-05-09T08:37:18Z</time>
      </trkpt>
      <trkpt lat="37.325089" lon="-3.120927">
        <ele>994.000000</ele>
        <time>2019-05-09T08:37:19Z</time>
      </trkpt>
      <trkpt lat="37.325090" lon="-3.120945">
        <ele>994.000000</ele>
        <time>2019-05-09T08:37:20Z</time>
      </trkpt>
      <trkpt lat="37.325091" lon="-3.120965">
        <ele>994.000000</ele>
        <time>2019-05-09T08:37:21Z</time>
      </trkpt>
      <trkpt lat="37.325093" lon="-3.120983">
        <ele>994.000000</ele>
        <time>2019-05-09T08:37:22Z</time>
      </trkpt>
      <trkpt lat="37.325095" lon="-3.121002">
        <ele>994.000000</ele>
        <time>2019-05-09T08:37:23Z</time>
      </trkpt>
      <trkpt lat="37.325097" lon="-3.121022">
        <ele>994.000000</ele>
        <time>2019-05-09T08:37:24Z</time>
      </trkpt>
      <trkpt lat="37.325100" lon="-3.121047">
        <ele>994.000000</ele>
        <time>2019-05-09T08:37:25Z</time>
      </trkpt>
      <trkpt lat="37.325104" lon="-3.121068">
        <ele>994.000000</ele>
        <time>2019-05-09T08:37:26Z</time>
      </trkpt>
      <trkpt lat="37.325107" lon="-3.121092">
        <ele>994.000000</ele>
        <time>2019-05-09T08:37:27Z</time>
      </trkpt>
      <trkpt lat="37.325111" lon="-3.121115">
        <ele>994.000000</ele>
        <time>2019-05-09T08:37:28Z</time>
      </trkpt>
      <trkpt lat="37.325115" lon="-3.121137">
        <ele>994.000000</ele>
        <time>2019-05-09T08:37:30Z</time>
      </trkpt>
      <trkpt lat="37.325119" lon="-3.121160">
        <ele>994.000000</ele>
        <time>2019-05-09T08:37:30Z</time>
      </trkpt>
      <trkpt lat="37.325125" lon="-3.121182">
        <ele>994.000000</ele>
        <time>2019-05-09T08:37:31Z</time>
      </trkpt>
      <trkpt lat="37.325128" lon="-3.121200">
        <ele>994.000000</ele>
        <time>2019-05-09T08:37:32Z</time>
      </trkpt>
      <trkpt lat="37.325133" lon="-3.121218">
        <ele>993.000000</ele>
        <time>2019-05-09T08:37:33Z</time>
      </trkpt>
      <trkpt lat="37.325137" lon="-3.121237">
        <ele>993.000000</ele>
        <time>2019-05-09T08:37:35Z</time>
      </trkpt>
      <trkpt lat="37.325141" lon="-3.121253">
        <ele>993.000000</ele>
        <time>2019-05-09T08:37:35Z</time>
      </trkpt>
      <trkpt lat="37.325145" lon="-3.121272">
        <ele>993.000000</ele>
        <time>2019-05-09T08:37:36Z</time>
      </trkpt>
      <trkpt lat="37.325149" lon="-3.121290">
        <ele>992.000000</ele>
        <time>2019-05-09T08:37:37Z</time>
      </trkpt>
      <trkpt lat="37.325154" lon="-3.121307">
        <ele>992.000000</ele>
        <time>2019-05-09T08:37:38Z</time>
      </trkpt>
      <trkpt lat="37.325157" lon="-3.121317">
        <ele>992.000000</ele>
        <time>2019-05-09T08:37:39Z</time>
      </trkpt>
      <trkpt lat="37.325162" lon="-3.121327">
        <ele>992.000000</ele>
        <time>2019-05-09T08:37:40Z</time>
      </trkpt>
      <trkpt lat="37.325168" lon="-3.121347">
        <ele>992.000000</ele>
        <time>2019-05-09T08:37:41Z</time>
      </trkpt>
      <trkpt lat="37.325172" lon="-3.121363">
        <ele>991.000000</ele>
        <time>2019-05-09T08:37:42Z</time>
      </trkpt>
      <trkpt lat="37.325180" lon="-3.121380">
        <ele>991.000000</ele>
        <time>2019-05-09T08:37:43Z</time>
      </trkpt>
      <trkpt lat="37.325187" lon="-3.121397">
        <ele>991.000000</ele>
        <time>2019-05-09T08:37:44Z</time>
      </trkpt>
      <trkpt lat="37.325193" lon="-3.121407">
        <ele>991.000000</ele>
        <time>2019-05-09T08:37:45Z</time>
      </trkpt>
      <trkpt lat="37.325200" lon="-3.121422">
        <ele>991.000000</ele>
        <time>2019-05-09T08:37:46Z</time>
      </trkpt>
      <trkpt lat="37.325209" lon="-3.121442">
        <ele>991.000000</ele>
        <time>2019-05-09T08:37:47Z</time>
      </trkpt>
      <trkpt lat="37.325217" lon="-3.121460">
        <ele>991.000000</ele>
        <time>2019-05-09T08:37:48Z</time>
      </trkpt>
      <trkpt lat="37.325226" lon="-3.121475">
        <ele>991.000000</ele>
        <time>2019-05-09T08:37:49Z</time>
      </trkpt>
      <trkpt lat="37.325236" lon="-3.121497">
        <ele>991.000000</ele>
        <time>2019-05-09T08:37:50Z</time>
      </trkpt>
      <trkpt lat="37.325247" lon="-3.121517">
        <ele>990.000000</ele>
        <time>2019-05-09T08:37:51Z</time>
      </trkpt>
      <trkpt lat="37.325255" lon="-3.121532">
        <ele>990.000000</ele>
        <time>2019-05-09T08:37:52Z</time>
      </trkpt>
      <trkpt lat="37.325264" lon="-3.121543">
        <ele>990.000000</ele>
        <time>2019-05-09T08:37:54Z</time>
      </trkpt>
      <trkpt lat="37.325273" lon="-3.121560">
        <ele>990.000000</ele>
        <time>2019-05-09T08:37:54Z</time>
      </trkpt>
      <trkpt lat="37.325282" lon="-3.121577">
        <ele>990.000000</ele>
        <time>2019-05-09T08:37:55Z</time>
      </trkpt>
      <trkpt lat="37.325296" lon="-3.121595">
        <ele>990.000000</ele>
        <time>2019-05-09T08:37:56Z</time>
      </trkpt>
      <trkpt lat="37.325310" lon="-3.121613">
        <ele>990.000000</ele>
        <time>2019-05-09T08:37:57Z</time>
      </trkpt>
      <trkpt lat="37.325322" lon="-3.121633">
        <ele>990.000000</ele>
        <time>2019-05-09T08:37:58Z</time>
      </trkpt>
      <trkpt lat="37.325334" lon="-3.121648">
        <ele>990.000000</ele>
        <time>2019-05-09T08:37:59Z</time>
      </trkpt>
      <trkpt lat="37.325349" lon="-3.121673">
        <ele>990.000000</ele>
        <time>2019-05-09T08:38:00Z</time>
      </trkpt>
      <trkpt lat="37.325362" lon="-3.121697">
        <ele>990.000000</ele>
        <time>2019-05-09T08:38:01Z</time>
      </trkpt>
      <trkpt lat="37.325372" lon="-3.121712">
        <ele>990.000000</ele>
        <time>2019-05-09T08:38:02Z</time>
      </trkpt>
      <trkpt lat="37.325386" lon="-3.121737">
        <ele>990.000000</ele>
        <time>2019-05-09T08:38:03Z</time>
      </trkpt>
      <trkpt lat="37.325397" lon="-3.121760">
        <ele>990.000000</ele>
        <time>2019-05-09T08:38:04Z</time>
      </trkpt>
      <trkpt lat="37.325407" lon="-3.121778">
        <ele>990.000000</ele>
        <time>2019-05-09T08:38:05Z</time>
      </trkpt>
      <trkpt lat="37.325419" lon="-3.121802">
        <ele>990.000000</ele>
        <time>2019-05-09T08:38:06Z</time>
      </trkpt>
      <trkpt lat="37.325429" lon="-3.121823">
        <ele>989.000000</ele>
        <time>2019-05-09T08:38:07Z</time>
      </trkpt>
      <trkpt lat="37.325440" lon="-3.121850">
        <ele>989.000000</ele>
        <time>2019-05-09T08:38:08Z</time>
      </trkpt>
      <trkpt lat="37.325450" lon="-3.121872">
        <ele>989.000000</ele>
        <time>2019-05-09T08:38:09Z</time>
      </trkpt>
      <trkpt lat="37.325458" lon="-3.121893">
        <ele>989.000000</ele>
        <time>2019-05-09T08:38:10Z</time>
      </trkpt>
      <trkpt lat="37.325464" lon="-3.121913">
        <ele>989.000000</ele>
        <time>2019-05-09T08:38:11Z</time>
      </trkpt>
      <trkpt lat="37.325470" lon="-3.121933">
        <ele>988.000000</ele>
        <time>2019-05-09T08:38:12Z</time>
      </trkpt>
      <trkpt lat="37.325471" lon="-3.121945">
        <ele>988.000000</ele>
        <time>2019-05-09T08:38:13Z</time>
      </trkpt>
      <trkpt lat="37.325476" lon="-3.121965">
        <ele>988.000000</ele>
        <time>2019-05-09T08:38:14Z</time>
      </trkpt>
      <trkpt lat="37.325484" lon="-3.121992">
        <ele>988.000000</ele>
        <time>2019-05-09T08:38:16Z</time>
      </trkpt>
      <trkpt lat="37.325488" lon="-3.122013">
        <ele>988.000000</ele>
        <time>2019-05-09T08:38:16Z</time>
      </trkpt>
      <trkpt lat="37.325492" lon="-3.122037">
        <ele>988.000000</ele>
        <time>2019-05-09T08:38:17Z</time>
      </trkpt>
      <trkpt lat="37.325491" lon="-3.122052">
        <ele>988.000000</ele>
        <time>2019-05-09T08:38:18Z</time>
      </trkpt>
      <trkpt lat="37.325493" lon="-3.122075">
        <ele>988.000000</ele>
        <time>2019-05-09T08:38:19Z</time>
      </trkpt>
      <trkpt lat="37.325495" lon="-3.122098">
        <ele>988.000000</ele>
        <time>2019-05-09T08:38:20Z</time>
      </trkpt>
      <trkpt lat="37.325497" lon="-3.122123">
        <ele>988.000000</ele>
        <time>2019-05-09T08:38:21Z</time>
      </trkpt>
      <trkpt lat="37.325496" lon="-3.122147">
        <ele>988.000000</ele>
        <time>2019-05-09T08:38:22Z</time>
      </trkpt>
      <trkpt lat="37.325497" lon="-3.122170">
        <ele>987.000000</ele>
        <time>2019-05-09T08:38:23Z</time>
      </trkpt>
      <trkpt lat="37.325494" lon="-3.122185">
        <ele>987.000000</ele>
        <time>2019-05-09T08:38:24Z</time>
      </trkpt>
      <trkpt lat="37.325493" lon="-3.122210">
        <ele>987.000000</ele>
        <time>2019-05-09T08:38:25Z</time>
      </trkpt>
      <trkpt lat="37.325490" lon="-3.122227">
        <ele>987.000000</ele>
        <time>2019-05-09T08:38:26Z</time>
      </trkpt>
      <trkpt lat="37.325488" lon="-3.122248">
        <ele>987.000000</ele>
        <time>2019-05-09T08:38:27Z</time>
      </trkpt>
      <trkpt lat="37.325485" lon="-3.122263">
        <ele>986.000000</ele>
        <time>2019-05-09T08:38:28Z</time>
      </trkpt>
      <trkpt lat="37.325481" lon="-3.122278">
        <ele>986.000000</ele>
        <time>2019-05-09T08:38:29Z</time>
      </trkpt>
      <trkpt lat="37.325479" lon="-3.122290">
        <ele>986.000000</ele>
        <time>2019-05-09T08:38:30Z</time>
      </trkpt>
      <trkpt lat="37.325476" lon="-3.122312">
        <ele>986.000000</ele>
        <time>2019-05-09T08:38:31Z</time>
      </trkpt>
      <trkpt lat="37.325473" lon="-3.122330">
        <ele>986.000000</ele>
        <time>2019-05-09T08:38:32Z</time>
      </trkpt>
      <trkpt lat="37.325472" lon="-3.122352">
        <ele>986.000000</ele>
        <time>2019-05-09T08:38:33Z</time>
      </trkpt>
      <trkpt lat="37.325469" lon="-3.122375">
        <ele>986.000000</ele>
        <time>2019-05-09T08:38:34Z</time>
      </trkpt>
      <trkpt lat="37.325467" lon="-3.122398">
        <ele>986.000000</ele>
        <time>2019-05-09T08:38:35Z</time>
      </trkpt>
      <trkpt lat="37.325466" lon="-3.122423">
        <ele>986.000000</ele>
        <time>2019-05-09T08:38:36Z</time>
      </trkpt>
      <trkpt lat="37.325464" lon="-3.122447">
        <ele>986.000000</ele>
        <time>2019-05-09T08:38:37Z</time>
      </trkpt>
      <trkpt lat="37.325461" lon="-3.122468">
        <ele>986.000000</ele>
        <time>2019-05-09T08:38:38Z</time>
      </trkpt>
      <trkpt lat="37.325461" lon="-3.122490">
        <ele>986.000000</ele>
        <time>2019-05-09T08:38:39Z</time>
      </trkpt>
      <trkpt lat="37.325460" lon="-3.122512">
        <ele>986.000000</ele>
        <time>2019-05-09T08:38:41Z</time>
      </trkpt>
      <trkpt lat="37.325458" lon="-3.122532">
        <ele>985.000000</ele>
        <time>2019-05-09T08:38:41Z</time>
      </trkpt>
      <trkpt lat="37.325457" lon="-3.122550">
        <ele>985.000000</ele>
        <time>2019-05-09T08:38:42Z</time>
      </trkpt>
      <trkpt lat="37.325457" lon="-3.122572">
        <ele>985.000000</ele>
        <time>2019-05-09T08:38:43Z</time>
      </trkpt>
      <trkpt lat="37.325458" lon="-3.122588">
        <ele>984.000000</ele>
        <time>2019-05-09T08:38:44Z</time>
      </trkpt>
      <trkpt lat="37.325458" lon="-3.122607">
        <ele>984.000000</ele>
        <time>2019-05-09T08:38:45Z</time>
      </trkpt>
      <trkpt lat="37.325458" lon="-3.122623">
        <ele>984.000000</ele>
        <time>2019-05-09T08:38:46Z</time>
      </trkpt>
      <trkpt lat="37.325459" lon="-3.122635">
        <ele>984.000000</ele>
        <time>2019-05-09T08:38:47Z</time>
      </trkpt>
      <trkpt lat="37.325461" lon="-3.122652">
        <ele>983.000000</ele>
        <time>2019-05-09T08:38:48Z</time>
      </trkpt>
      <trkpt lat="37.325463" lon="-3.122672">
        <ele>983.000000</ele>
        <time>2019-05-09T08:38:49Z</time>
      </trkpt>
      <trkpt lat="37.325467" lon="-3.122688">
        <ele>983.000000</ele>
        <time>2019-05-09T08:38:50Z</time>
      </trkpt>
      <trkpt lat="37.325471" lon="-3.122697">
        <ele>983.000000</ele>
        <time>2019-05-09T08:38:51Z</time>
      </trkpt>
      <trkpt lat="37.325474" lon="-3.122700">
        <ele>983.000000</ele>
        <time>2019-05-09T08:38:52Z</time>
      </trkpt>
      <trkpt lat="37.325527" lon="-3.122700">
        <ele>983.000000</ele>
        <time>2019-05-09T08:38:53Z</time>
      </trkpt>
      <trkpt lat="37.325534" lon="-3.122702">
        <ele>983.000000</ele>
        <time>2019-05-09T08:38:54Z</time>
      </trkpt>
      <trkpt lat="37.325542" lon="-3.122707">
        <ele>983.000000</ele>
        <time>2019-05-09T08:38:55Z</time>
      </trkpt>
      <trkpt lat="37.325558" lon="-3.122717">
        <ele>983.000000</ele>
        <time>2019-05-09T08:38:56Z</time>
      </trkpt>
      <trkpt lat="37.325574" lon="-3.122733">
        <ele>983.000000</ele>
        <time>2019-05-09T08:38:57Z</time>
      </trkpt>
      <trkpt lat="37.325585" lon="-3.122750">
        <ele>983.000000</ele>
        <time>2019-05-09T08:38:58Z</time>
      </trkpt>
      <trkpt lat="37.325596" lon="-3.122767">
        <ele>983.000000</ele>
        <time>2019-05-09T08:38:59Z</time>
      </trkpt>
      <trkpt lat="37.325608" lon="-3.122783">
        <ele>983.000000</ele>
        <time>2019-05-09T08:39:00Z</time>
      </trkpt>
      <trkpt lat="37.325617" lon="-3.122797">
        <ele>982.000000</ele>
        <time>2019-05-09T08:39:01Z</time>
      </trkpt>
      <trkpt lat="37.325626" lon="-3.122812">
        <ele>982.000000</ele>
        <time>2019-05-09T08:39:03Z</time>
      </trkpt>
      <trkpt lat="37.325634" lon="-3.122820">
        <ele>982.000000</ele>
        <time>2019-05-09T08:39:03Z</time>
      </trkpt>
      <trkpt lat="37.325643" lon="-3.122827">
        <ele>982.000000</ele>
        <time>2019-05-09T08:39:04Z</time>
      </trkpt>
      <trkpt lat="37.325668" lon="-3.122833">
        <ele>982.000000</ele>
        <time>2019-05-09T08:39:05Z</time>
      </trkpt>
      <trkpt lat="37.325687" lon="-3.122838">
        <ele>982.000000</ele>
        <time>2019-05-09T08:39:06Z</time>
      </trkpt>
      <trkpt lat="37.325702" lon="-3.122845">
        <ele>982.000000</ele>
        <time>2019-05-09T08:39:07Z</time>
      </trkpt>
      <trkpt lat="37.325713" lon="-3.122855">
        <ele>982.000000</ele>
        <time>2019-05-09T08:39:08Z</time>
      </trkpt>
      <trkpt lat="37.325723" lon="-3.122863">
        <ele>982.000000</ele>
        <time>2019-05-09T08:39:09Z</time>
      </trkpt>
      <trkpt lat="37.325735" lon="-3.122874">
        <ele>981.000000</ele>
        <time>2019-05-09T08:39:10Z</time>
      </trkpt>
      <trkpt lat="37.325752" lon="-3.122886">
        <ele>981.000000</ele>
        <time>2019-05-09T08:39:11Z</time>
      </trkpt>
      <trkpt lat="37.325768" lon="-3.122898">
        <ele>981.000000</ele>
        <time>2019-05-09T08:39:12Z</time>
      </trkpt>
      <trkpt lat="37.325783" lon="-3.122910">
        <ele>981.000000</ele>
        <time>2019-05-09T08:39:13Z</time>
      </trkpt>
      <trkpt lat="37.325798" lon="-3.122923">
        <ele>981.000000</ele>
        <time>2019-05-09T08:39:14Z</time>
      </trkpt>
      <trkpt lat="37.325813" lon="-3.122938">
        <ele>981.000000</ele>
        <time>2019-05-09T08:39:15Z</time>
      </trkpt>
      <trkpt lat="37.325830" lon="-3.122954">
        <ele>981.000000</ele>
        <time>2019-05-09T08:39:16Z</time>
      </trkpt>
      <trkpt lat="37.325843" lon="-3.122970">
        <ele>981.000000</ele>
        <time>2019-05-09T08:39:17Z</time>
      </trkpt>
      <trkpt lat="37.325857" lon="-3.122986">
        <ele>981.000000</ele>
        <time>2019-05-09T08:39:18Z</time>
      </trkpt>
      <trkpt lat="37.325873" lon="-3.123004">
        <ele>981.000000</ele>
        <time>2019-05-09T08:39:19Z</time>
      </trkpt>
      <trkpt lat="37.325890" lon="-3.123023">
        <ele>981.000000</ele>
        <time>2019-05-09T08:39:20Z</time>
      </trkpt>
      <trkpt lat="37.325902" lon="-3.123037">
        <ele>981.000000</ele>
        <time>2019-05-09T08:39:21Z</time>
      </trkpt>
      <trkpt lat="37.325915" lon="-3.123063">
        <ele>981.000000</ele>
        <time>2019-05-09T08:39:22Z</time>
      </trkpt>
      <trkpt lat="37.325930" lon="-3.123077">
        <ele>980.000000</ele>
        <time>2019-05-09T08:39:23Z</time>
      </trkpt>
      <trkpt lat="37.325943" lon="-3.123090">
        <ele>980.000000</ele>
        <time>2019-05-09T08:39:24Z</time>
      </trkpt>
      <trkpt lat="37.325958" lon="-3.123102">
        <ele>980.000000</ele>
        <time>2019-05-09T08:39:25Z</time>
      </trkpt>
      <trkpt lat="37.325973" lon="-3.123115">
        <ele>980.000000</ele>
        <time>2019-05-09T08:39:26Z</time>
      </trkpt>
      <trkpt lat="37.325987" lon="-3.123127">
        <ele>979.000000</ele>
        <time>2019-05-09T08:39:27Z</time>
      </trkpt>
      <trkpt lat="37.326000" lon="-3.123139">
        <ele>979.000000</ele>
        <time>2019-05-09T08:39:29Z</time>
      </trkpt>
      <trkpt lat="37.326015" lon="-3.123152">
        <ele>979.000000</ele>
        <time>2019-05-09T08:39:29Z</time>
      </trkpt>
      <trkpt lat="37.326028" lon="-3.123162">
        <ele>979.000000</ele>
        <time>2019-05-09T08:39:30Z</time>
      </trkpt>
      <trkpt lat="37.326042" lon="-3.123172">
        <ele>979.000000</ele>
        <time>2019-05-09T08:39:31Z</time>
      </trkpt>
      <trkpt lat="37.326057" lon="-3.123183">
        <ele>978.000000</ele>
        <time>2019-05-09T08:39:32Z</time>
      </trkpt>
      <trkpt lat="37.326065" lon="-3.123190">
        <ele>978.000000</ele>
        <time>2019-05-09T08:39:33Z</time>
      </trkpt>
      <trkpt lat="37.326070" lon="-3.123196">
        <ele>978.000000</ele>
        <time>2019-05-09T08:39:34Z</time>
      </trkpt>
      <trkpt lat="37.326078" lon="-3.123205">
        <ele>978.000000</ele>
        <time>2019-05-09T08:39:35Z</time>
      </trkpt>
      <trkpt lat="37.326087" lon="-3.123214">
        <ele>978.000000</ele>
        <time>2019-05-09T08:39:36Z</time>
      </trkpt>
      <trkpt lat="37.326093" lon="-3.123223">
        <ele>978.000000</ele>
        <time>2019-05-09T08:39:37Z</time>
      </trkpt>
      <trkpt lat="37.326100" lon="-3.123248">
        <ele>978.000000</ele>
        <time>2019-05-09T08:39:38Z</time>
      </trkpt>
      <trkpt lat="37.326108" lon="-3.123265">
        <ele>978.000000</ele>
        <time>2019-05-09T08:39:39Z</time>
      </trkpt>
      <trkpt lat="37.326115" lon="-3.123282">
        <ele>978.000000</ele>
        <time>2019-05-09T08:39:40Z</time>
      </trkpt>
      <trkpt lat="37.326122" lon="-3.123300">
        <ele>978.000000</ele>
        <time>2019-05-09T08:39:41Z</time>
      </trkpt>
      <trkpt lat="37.326127" lon="-3.123322">
        <ele>978.000000</ele>
        <time>2019-05-09T08:39:42Z</time>
      </trkpt>
      <trkpt lat="37.326132" lon="-3.123340">
        <ele>978.000000</ele>
        <time>2019-05-09T08:39:43Z</time>
      </trkpt>
      <trkpt lat="37.326139" lon="-3.123358">
        <ele>978.000000</ele>
        <time>2019-05-09T08:39:44Z</time>
      </trkpt>
      <trkpt lat="37.326147" lon="-3.123380">
        <ele>978.000000</ele>
        <time>2019-05-09T08:39:45Z</time>
      </trkpt>
      <trkpt lat="37.326155" lon="-3.123403">
        <ele>978.000000</ele>
        <time>2019-05-09T08:39:46Z</time>
      </trkpt>
      <trkpt lat="37.326163" lon="-3.123427">
        <ele>978.000000</ele>
        <time>2019-05-09T08:39:47Z</time>
      </trkpt>
      <trkpt lat="37.326170" lon="-3.123450">
        <ele>978.000000</ele>
        <time>2019-05-09T08:39:48Z</time>
      </trkpt>
      <trkpt lat="37.326178" lon="-3.123475">
        <ele>978.000000</ele>
        <time>2019-05-09T08:39:49Z</time>
      </trkpt>
      <trkpt lat="37.326186" lon="-3.123500">
        <ele>978.000000</ele>
        <time>2019-05-09T08:39:50Z</time>
      </trkpt>
      <trkpt lat="37.326192" lon="-3.123522">
        <ele>977.000000</ele>
        <time>2019-05-09T08:39:51Z</time>
      </trkpt>
      <trkpt lat="37.326199" lon="-3.123543">
        <ele>977.000000</ele>
        <time>2019-05-09T08:39:52Z</time>
      </trkpt>
      <trkpt lat="37.326206" lon="-3.123565">
        <ele>977.000000</ele>
        <time>2019-05-09T08:39:53Z</time>
      </trkpt>
      <trkpt lat="37.326212" lon="-3.123583">
        <ele>977.000000</ele>
        <time>2019-05-09T08:39:55Z</time>
      </trkpt>
      <trkpt lat="37.326218" lon="-3.123602">
        <ele>977.000000</ele>
        <time>2019-05-09T08:39:55Z</time>
      </trkpt>
      <trkpt lat="37.326224" lon="-3.123620">
        <ele>977.000000</ele>
        <time>2019-05-09T08:39:56Z</time>
      </trkpt>
      <trkpt lat="37.326230" lon="-3.123637">
        <ele>977.000000</ele>
        <time>2019-05-09T08:39:57Z</time>
      </trkpt>
      <trkpt lat="37.326234" lon="-3.123653">
        <ele>977.000000</ele>
        <time>2019-05-09T08:39:58Z</time>
      </trkpt>
      <trkpt lat="37.326238" lon="-3.123670">
        <ele>976.000000</ele>
        <time>2019-05-09T08:39:59Z</time>
      </trkpt>
      <trkpt lat="37.326241" lon="-3.123687">
        <ele>976.000000</ele>
        <time>2019-05-09T08:40:00Z</time>
      </trkpt>
      <trkpt lat="37.326245" lon="-3.123700">
        <ele>976.000000</ele>
        <time>2019-05-09T08:40:01Z</time>
      </trkpt>
      <trkpt lat="37.326249" lon="-3.123715">
        <ele>976.000000</ele>
        <time>2019-05-09T08:40:02Z</time>
      </trkpt>
      <trkpt lat="37.326253" lon="-3.123728">
        <ele>976.000000</ele>
        <time>2019-05-09T08:40:03Z</time>
      </trkpt>
      <trkpt lat="37.326258" lon="-3.123745">
        <ele>975.000000</ele>
        <time>2019-05-09T08:40:04Z</time>
      </trkpt>
      <trkpt lat="37.326264" lon="-3.123763">
        <ele>975.000000</ele>
        <time>2019-05-09T08:40:05Z</time>
      </trkpt>
      <trkpt lat="37.326270" lon="-3.123787">
        <ele>975.000000</ele>
        <time>2019-05-09T08:40:06Z</time>
      </trkpt>
      <trkpt lat="37.326276" lon="-3.123808">
        <ele>975.000000</ele>
        <time>2019-05-09T08:40:07Z</time>
      </trkpt>
      <trkpt lat="37.326281" lon="-3.123832">
        <ele>975.000000</ele>
        <time>2019-05-09T08:40:08Z</time>
      </trkpt>
      <trkpt lat="37.326286" lon="-3.123855">
        <ele>975.000000</ele>
        <time>2019-05-09T08:40:10Z</time>
      </trkpt>
      <trkpt lat="37.326291" lon="-3.123882">
        <ele>975.000000</ele>
        <time>2019-05-09T08:40:10Z</time>
      </trkpt>
      <trkpt lat="37.326296" lon="-3.123908">
        <ele>975.000000</ele>
        <time>2019-05-09T08:40:11Z</time>
      </trkpt>
      <trkpt lat="37.326300" lon="-3.123933">
        <ele>975.000000</ele>
        <time>2019-05-09T08:40:12Z</time>
      </trkpt>
      <trkpt lat="37.326304" lon="-3.123962">
        <ele>975.000000</ele>
        <time>2019-05-09T08:40:13Z</time>
      </trkpt>
      <trkpt lat="37.326307" lon="-3.123985">
        <ele>975.000000</ele>
        <time>2019-05-09T08:40:14Z</time>
      </trkpt>
      <trkpt lat="37.326309" lon="-3.124010">
        <ele>975.000000</ele>
        <time>2019-05-09T08:40:15Z</time>
      </trkpt>
      <trkpt lat="37.326311" lon="-3.124032">
        <ele>975.000000</ele>
        <time>2019-05-09T08:40:17Z</time>
      </trkpt>
      <trkpt lat="37.326312" lon="-3.124053">
        <ele>975.000000</ele>
        <time>2019-05-09T08:40:17Z</time>
      </trkpt>
      <trkpt lat="37.326315" lon="-3.124075">
        <ele>974.000000</ele>
        <time>2019-05-09T08:40:18Z</time>
      </trkpt>
      <trkpt lat="37.326314" lon="-3.124092">
        <ele>974.000000</ele>
        <time>2019-05-09T08:40:19Z</time>
      </trkpt>
      <trkpt lat="37.326315" lon="-3.124112">
        <ele>974.000000</ele>
        <time>2019-05-09T08:40:20Z</time>
      </trkpt>
      <trkpt lat="37.326314" lon="-3.124130">
        <ele>974.000000</ele>
        <time>2019-05-09T08:40:21Z</time>
      </trkpt>
      <trkpt lat="37.326316" lon="-3.124150">
        <ele>974.000000</ele>
        <time>2019-05-09T08:40:22Z</time>
      </trkpt>
      <trkpt lat="37.326315" lon="-3.124170">
        <ele>974.000000</ele>
        <time>2019-05-09T08:40:23Z</time>
      </trkpt>
      <trkpt lat="37.326315" lon="-3.124193">
        <ele>974.000000</ele>
        <time>2019-05-09T08:40:24Z</time>
      </trkpt>
      <trkpt lat="37.326315" lon="-3.124218">
        <ele>974.000000</ele>
        <time>2019-05-09T08:40:25Z</time>
      </trkpt>
      <trkpt lat="37.326315" lon="-3.124245">
        <ele>974.000000</ele>
        <time>2019-05-09T08:40:26Z</time>
      </trkpt>
      <trkpt lat="37.326314" lon="-3.124270">
        <ele>974.000000</ele>
        <time>2019-05-09T08:40:27Z</time>
      </trkpt>
      <trkpt lat="37.326311" lon="-3.124298">
        <ele>974.000000</ele>
        <time>2019-05-09T08:40:28Z</time>
      </trkpt>
      <trkpt lat="37.326309" lon="-3.124327">
        <ele>974.000000</ele>
        <time>2019-05-09T08:40:29Z</time>
      </trkpt>
      <trkpt lat="37.326307" lon="-3.124353">
        <ele>974.000000</ele>
        <time>2019-05-09T08:40:30Z</time>
      </trkpt>
      <trkpt lat="37.326303" lon="-3.124380">
        <ele>974.000000</ele>
        <time>2019-05-09T08:40:31Z</time>
      </trkpt>
      <trkpt lat="37.326296" lon="-3.124403">
        <ele>974.000000</ele>
        <time>2019-05-09T08:40:32Z</time>
      </trkpt>
      <trkpt lat="37.326289" lon="-3.124422">
        <ele>974.000000</ele>
        <time>2019-05-09T08:40:33Z</time>
      </trkpt>
      <trkpt lat="37.326282" lon="-3.124437">
        <ele>974.000000</ele>
        <time>2019-05-09T08:40:34Z</time>
      </trkpt>
      <trkpt lat="37.326276" lon="-3.124450">
        <ele>974.000000</ele>
        <time>2019-05-09T08:40:35Z</time>
      </trkpt>
      <trkpt lat="37.326269" lon="-3.124472">
        <ele>973.000000</ele>
        <time>2019-05-09T08:40:36Z</time>
      </trkpt>
      <trkpt lat="37.326261" lon="-3.124490">
        <ele>973.000000</ele>
        <time>2019-05-09T08:40:37Z</time>
      </trkpt>
      <trkpt lat="37.326253" lon="-3.124505">
        <ele>973.000000</ele>
        <time>2019-05-09T08:40:38Z</time>
      </trkpt>
      <trkpt lat="37.326247" lon="-3.124522">
        <ele>973.000000</ele>
        <time>2019-05-09T08:40:39Z</time>
      </trkpt>
      <trkpt lat="37.326238" lon="-3.124545">
        <ele>973.000000</ele>
        <time>2019-05-09T08:40:40Z</time>
      </trkpt>
      <trkpt lat="37.326232" lon="-3.124567">
        <ele>972.000000</ele>
        <time>2019-05-09T08:40:42Z</time>
      </trkpt>
      <trkpt lat="37.326223" lon="-3.124590">
        <ele>972.000000</ele>
        <time>2019-05-09T08:40:42Z</time>
      </trkpt>
      <trkpt lat="37.326215" lon="-3.124612">
        <ele>972.000000</ele>
        <time>2019-05-09T08:40:43Z</time>
      </trkpt>
      <trkpt lat="37.326206" lon="-3.124632">
        <ele>972.000000</ele>
        <time>2019-05-09T08:40:44Z</time>
      </trkpt>
      <trkpt lat="37.326197" lon="-3.124657">
        <ele>972.000000</ele>
        <time>2019-05-09T08:40:45Z</time>
      </trkpt>
      <trkpt lat="37.326188" lon="-3.124673">
        <ele>972.000000</ele>
        <time>2019-05-09T08:40:46Z</time>
      </trkpt>
      <trkpt lat="37.326179" lon="-3.124695">
        <ele>972.000000</ele>
        <time>2019-05-09T08:40:47Z</time>
      </trkpt>
      <trkpt lat="37.326169" lon="-3.124715">
        <ele>972.000000</ele>
        <time>2019-05-09T08:40:48Z</time>
      </trkpt>
      <trkpt lat="37.326160" lon="-3.124737">
        <ele>972.000000</ele>
        <time>2019-05-09T08:40:49Z</time>
      </trkpt>
      <trkpt lat="37.326148" lon="-3.124758">
        <ele>972.000000</ele>
        <time>2019-05-09T08:40:49Z</time>
      </trkpt>
      <trkpt lat="37.326139" lon="-3.124780">
        <ele>972.000000</ele>
        <time>2019-05-09T08:40:50Z</time>
      </trkpt>
      <trkpt lat="37.326128" lon="-3.124798">
        <ele>972.000000</ele>
        <time>2019-05-09T08:40:51Z</time>
      </trkpt>
      <trkpt lat="37.326119" lon="-3.124820">
        <ele>971.000000</ele>
        <time>2019-05-09T08:40:52Z</time>
      </trkpt>
      <trkpt lat="37.326109" lon="-3.124840">
        <ele>971.000000</ele>
        <time>2019-05-09T08:40:53Z</time>
      </trkpt>
      <trkpt lat="37.326100" lon="-3.124858">
        <ele>971.000000</ele>
        <time>2019-05-09T08:40:54Z</time>
      </trkpt>
      <trkpt lat="37.326091" lon="-3.124875">
        <ele>971.000000</ele>
        <time>2019-05-09T08:40:55Z</time>
      </trkpt>
      <trkpt lat="37.326082" lon="-3.124888">
        <ele>970.000000</ele>
        <time>2019-05-09T08:40:56Z</time>
      </trkpt>
      <trkpt lat="37.326073" lon="-3.124905">
        <ele>970.000000</ele>
        <time>2019-05-09T08:40:57Z</time>
      </trkpt>
      <trkpt lat="37.326066" lon="-3.124913">
        <ele>970.000000</ele>
        <time>2019-05-09T08:40:58Z</time>
      </trkpt>
      <trkpt lat="37.326060" lon="-3.124923">
        <ele>970.000000</ele>
        <time>2019-05-09T08:40:59Z</time>
      </trkpt>
      <trkpt lat="37.326051" lon="-3.124937">
        <ele>970.000000</ele>
        <time>2019-05-09T08:41:00Z</time>
      </trkpt>
      <trkpt lat="37.326044" lon="-3.124952">
        <ele>970.000000</ele>
        <time>2019-05-09T08:41:01Z</time>
      </trkpt>
      <trkpt lat="37.326033" lon="-3.124972">
        <ele>970.000000</ele>
        <time>2019-05-09T08:41:03Z</time>
      </trkpt>
      <trkpt lat="37.326026" lon="-3.124992">
        <ele>970.000000</ele>
        <time>2019-05-09T08:41:03Z</time>
      </trkpt>
      <trkpt lat="37.326017" lon="-3.125012">
        <ele>970.000000</ele>
        <time>2019-05-09T08:41:04Z</time>
      </trkpt>
      <trkpt lat="37.326006" lon="-3.125033">
        <ele>970.000000</ele>
        <time>2019-05-09T08:41:05Z</time>
      </trkpt>
      <trkpt lat="37.325997" lon="-3.125052">
        <ele>970.000000</ele>
        <time>2019-05-09T08:41:06Z</time>
      </trkpt>
      <trkpt lat="37.325989" lon="-3.125073">
        <ele>970.000000</ele>
        <time>2019-05-09T08:41:07Z</time>
      </trkpt>
      <trkpt lat="37.325980" lon="-3.125095">
        <ele>970.000000</ele>
        <time>2019-05-09T08:41:08Z</time>
      </trkpt>
      <trkpt lat="37.325970" lon="-3.125117">
        <ele>970.000000</ele>
        <time>2019-05-09T08:41:09Z</time>
      </trkpt>
      <trkpt lat="37.325960" lon="-3.125140">
        <ele>970.000000</ele>
        <time>2019-05-09T08:41:10Z</time>
      </trkpt>
      <trkpt lat="37.325952" lon="-3.125158">
        <ele>970.000000</ele>
        <time>2019-05-09T08:41:11Z</time>
      </trkpt>
      <trkpt lat="37.325943" lon="-3.125180">
        <ele>970.000000</ele>
        <time>2019-05-09T08:41:12Z</time>
      </trkpt>
      <trkpt lat="37.325935" lon="-3.125197">
        <ele>970.000000</ele>
        <time>2019-05-09T08:41:13Z</time>
      </trkpt>
      <trkpt lat="37.325927" lon="-3.125217">
        <ele>970.000000</ele>
        <time>2019-05-09T08:41:14Z</time>
      </trkpt>
      <trkpt lat="37.325920" lon="-3.125235">
        <ele>970.000000</ele>
        <time>2019-05-09T08:41:15Z</time>
      </trkpt>
      <trkpt lat="37.325914" lon="-3.125255">
        <ele>969.000000</ele>
        <time>2019-05-09T08:41:16Z</time>
      </trkpt>
      <trkpt lat="37.325907" lon="-3.125273">
        <ele>969.000000</ele>
        <time>2019-05-09T08:41:17Z</time>
      </trkpt>
      <trkpt lat="37.325903" lon="-3.125287">
        <ele>969.000000</ele>
        <time>2019-05-09T08:41:18Z</time>
      </trkpt>
      <trkpt lat="37.325898" lon="-3.125300">
        <ele>969.000000</ele>
        <time>2019-05-09T08:41:19Z</time>
      </trkpt>
      <trkpt lat="37.325894" lon="-3.125312">
        <ele>968.000000</ele>
        <time>2019-05-09T08:41:20Z</time>
      </trkpt>
      <trkpt lat="37.325890" lon="-3.125327">
        <ele>968.000000</ele>
        <time>2019-05-09T08:41:21Z</time>
      </trkpt>
      <trkpt lat="37.325886" lon="-3.125343">
        <ele>968.000000</ele>
        <time>2019-05-09T08:41:22Z</time>
      </trkpt>
      <trkpt lat="37.325881" lon="-3.125360">
        <ele>968.000000</ele>
        <time>2019-05-09T08:41:23Z</time>
      </trkpt>
      <trkpt lat="37.325876" lon="-3.125378">
        <ele>968.000000</ele>
        <time>2019-05-09T08:41:24Z</time>
      </trkpt>
      <trkpt lat="37.325871" lon="-3.125398">
        <ele>968.000000</ele>
        <time>2019-05-09T08:41:25Z</time>
      </trkpt>
      <trkpt lat="37.325866" lon="-3.125418">
        <ele>968.000000</ele>
        <time>2019-05-09T08:41:26Z</time>
      </trkpt>
      <trkpt lat="37.325861" lon="-3.125440">
        <ele>968.000000</ele>
        <time>2019-05-09T08:41:27Z</time>
      </trkpt>
      <trkpt lat="37.325855" lon="-3.125463">
        <ele>968.000000</ele>
        <time>2019-05-09T08:41:29Z</time>
      </trkpt>
      <trkpt lat="37.325849" lon="-3.125487">
        <ele>968.000000</ele>
        <time>2019-05-09T08:41:29Z</time>
      </trkpt>
      <trkpt lat="37.325844" lon="-3.125508">
        <ele>968.000000</ele>
        <time>2019-05-09T08:41:30Z</time>
      </trkpt>
      <trkpt lat="37.325839" lon="-3.125528">
        <ele>968.000000</ele>
        <time>2019-05-09T08:41:31Z</time>
      </trkpt>
      <trkpt lat="37.325835" lon="-3.125548">
        <ele>968.000000</ele>
        <time>2019-05-09T08:41:32Z</time>
      </trkpt>
      <trkpt lat="37.325830" lon="-3.125568">
        <ele>968.000000</ele>
        <time>2019-05-09T08:41:33Z</time>
      </trkpt>
      <trkpt lat="37.325826" lon="-3.125585">
        <ele>967.000000</ele>
        <time>2019-05-09T08:41:34Z</time>
      </trkpt>
      <trkpt lat="37.325821" lon="-3.125602">
        <ele>967.000000</ele>
        <time>2019-05-09T08:41:35Z</time>
      </trkpt>
      <trkpt lat="37.325818" lon="-3.125618">
        <ele>967.000000</ele>
        <time>2019-05-09T08:41:36Z</time>
      </trkpt>
      <trkpt lat="37.325812" lon="-3.125635">
        <ele>967.000000</ele>
        <time>2019-05-09T08:41:37Z</time>
      </trkpt>
      <trkpt lat="37.325809" lon="-3.125650">
        <ele>966.000000</ele>
        <time>2019-05-09T08:41:38Z</time>
      </trkpt>
      <trkpt lat="37.325805" lon="-3.125663">
        <ele>966.000000</ele>
        <time>2019-05-09T08:41:39Z</time>
      </trkpt>
      <trkpt lat="37.325803" lon="-3.125675">
        <ele>966.000000</ele>
        <time>2019-05-09T08:41:40Z</time>
      </trkpt>
      <trkpt lat="37.325798" lon="-3.125688">
        <ele>966.000000</ele>
        <time>2019-05-09T08:41:41Z</time>
      </trkpt>
      <trkpt lat="37.325796" lon="-3.125700">
        <ele>966.000000</ele>
        <time>2019-05-09T08:41:42Z</time>
      </trkpt>
      <trkpt lat="37.325791" lon="-3.125717">
        <ele>966.000000</ele>
        <time>2019-05-09T08:41:43Z</time>
      </trkpt>
      <trkpt lat="37.325787" lon="-3.125732">
        <ele>965.000000</ele>
        <time>2019-05-09T08:41:44Z</time>
      </trkpt>
      <trkpt lat="37.325783" lon="-3.125745">
        <ele>965.000000</ele>
        <time>2019-05-09T08:41:45Z</time>
      </trkpt>
      <trkpt lat="37.325778" lon="-3.125760">
        <ele>965.000000</ele>
        <time>2019-05-09T08:41:46Z</time>
      </trkpt>
      <trkpt lat="37.325772" lon="-3.125778">
        <ele>965.000000</ele>
        <time>2019-05-09T08:41:47Z</time>
      </trkpt>
      <trkpt lat="37.325768" lon="-3.125792">
        <ele>965.000000</ele>
        <time>2019-05-09T08:41:48Z</time>
      </trkpt>
      <trkpt lat="37.325762" lon="-3.125810">
        <ele>965.000000</ele>
        <time>2019-05-09T08:41:49Z</time>
      </trkpt>
      <trkpt lat="37.325757" lon="-3.125827">
        <ele>965.000000</ele>
        <time>2019-05-09T08:41:50Z</time>
      </trkpt>
      <trkpt lat="37.325750" lon="-3.125852">
        <ele>965.000000</ele>
        <time>2019-05-09T08:41:51Z</time>
      </trkpt>
      <trkpt lat="37.325744" lon="-3.125870">
        <ele>965.000000</ele>
        <time>2019-05-09T08:41:52Z</time>
      </trkpt>
      <trkpt lat="37.325738" lon="-3.125890">
        <ele>965.000000</ele>
        <time>2019-05-09T08:41:53Z</time>
      </trkpt>
      <trkpt lat="37.325732" lon="-3.125908">
        <ele>965.000000</ele>
        <time>2019-05-09T08:41:55Z</time>
      </trkpt>
      <trkpt lat="37.325726" lon="-3.125927">
        <ele>965.000000</ele>
        <time>2019-05-09T08:41:55Z</time>
      </trkpt>
      <trkpt lat="37.325718" lon="-3.125948">
        <ele>965.000000</ele>
        <time>2019-05-09T08:41:56Z</time>
      </trkpt>
      <trkpt lat="37.325711" lon="-3.125972">
        <ele>965.000000</ele>
        <time>2019-05-09T08:41:57Z</time>
      </trkpt>
      <trkpt lat="37.325706" lon="-3.125988">
        <ele>965.000000</ele>
        <time>2019-05-09T08:41:58Z</time>
      </trkpt>
      <trkpt lat="37.325700" lon="-3.126003">
        <ele>965.000000</ele>
        <time>2019-05-09T08:41:59Z</time>
      </trkpt>
      <trkpt lat="37.325694" lon="-3.126023">
        <ele>965.000000</ele>
        <time>2019-05-09T08:42:00Z</time>
      </trkpt>
      <trkpt lat="37.325686" lon="-3.126043">
        <ele>965.000000</ele>
        <time>2019-05-09T08:42:01Z</time>
      </trkpt>
      <trkpt lat="37.325681" lon="-3.126062">
        <ele>965.000000</ele>
        <time>2019-05-09T08:42:02Z</time>
      </trkpt>
      <trkpt lat="37.325673" lon="-3.126082">
        <ele>965.000000</ele>
        <time>2019-05-09T08:42:03Z</time>
      </trkpt>
      <trkpt lat="37.325665" lon="-3.126103">
        <ele>965.000000</ele>
        <time>2019-05-09T08:42:04Z</time>
      </trkpt>
      <trkpt lat="37.325661" lon="-3.126117">
        <ele>965.000000</ele>
        <time>2019-05-09T08:42:05Z</time>
      </trkpt>
      <trkpt lat="37.325654" lon="-3.126135">
        <ele>964.000000</ele>
        <time>2019-05-09T08:42:06Z</time>
      </trkpt>
      <trkpt lat="37.325648" lon="-3.126153">
        <ele>964.000000</ele>
        <time>2019-05-09T08:42:07Z</time>
      </trkpt>
      <trkpt lat="37.325645" lon="-3.126167">
        <ele>964.000000</ele>
        <time>2019-05-09T08:42:08Z</time>
      </trkpt>
      <trkpt lat="37.325640" lon="-3.126182">
        <ele>964.000000</ele>
        <time>2019-05-09T08:42:09Z</time>
      </trkpt>
      <trkpt lat="37.325635" lon="-3.126200">
        <ele>964.000000</ele>
        <time>2019-05-09T08:42:10Z</time>
      </trkpt>
      <trkpt lat="37.325630" lon="-3.126217">
        <ele>964.000000</ele>
        <time>2019-05-09T08:42:11Z</time>
      </trkpt>
      <trkpt lat="37.325626" lon="-3.126230">
        <ele>963.000000</ele>
        <time>2019-05-09T08:42:12Z</time>
      </trkpt>
      <trkpt lat="37.325621" lon="-3.126247">
        <ele>963.000000</ele>
        <time>2019-05-09T08:42:13Z</time>
      </trkpt>
      <trkpt lat="37.325618" lon="-3.126263">
        <ele>963.000000</ele>
        <time>2019-05-09T08:42:14Z</time>
      </trkpt>
      <trkpt lat="37.325614" lon="-3.126282">
        <ele>963.000000</ele>
        <time>2019-05-09T08:42:15Z</time>
      </trkpt>
      <trkpt lat="37.325608" lon="-3.126302">
        <ele>963.000000</ele>
        <time>2019-05-09T08:42:17Z</time>
      </trkpt>
      <trkpt lat="37.325605" lon="-3.126325">
        <ele>963.000000</ele>
        <time>2019-05-09T08:42:17Z</time>
      </trkpt>
      <trkpt lat="37.325601" lon="-3.126345">
        <ele>963.000000</ele>
        <time>2019-05-09T08:42:18Z</time>
      </trkpt>
      <trkpt lat="37.325597" lon="-3.126363">
        <ele>963.000000</ele>
        <time>2019-05-09T08:42:19Z</time>
      </trkpt>
      <trkpt lat="37.325591" lon="-3.126390">
        <ele>963.000000</ele>
        <time>2019-05-09T08:42:20Z</time>
      </trkpt>
      <trkpt lat="37.325587" lon="-3.126408">
        <ele>963.000000</ele>
        <time>2019-05-09T08:42:21Z</time>
      </trkpt>
      <trkpt lat="37.325580" lon="-3.126433">
        <ele>963.000000</ele>
        <time>2019-05-09T08:42:22Z</time>
      </trkpt>
      <trkpt lat="37.325577" lon="-3.126448">
        <ele>963.000000</ele>
        <time>2019-05-09T08:42:23Z</time>
      </trkpt>
      <trkpt lat="37.325571" lon="-3.126468">
        <ele>963.000000</ele>
        <time>2019-05-09T08:42:24Z</time>
      </trkpt>
      <trkpt lat="37.325565" lon="-3.126488">
        <ele>963.000000</ele>
        <time>2019-05-09T08:42:25Z</time>
      </trkpt>
      <trkpt lat="37.325560" lon="-3.126505">
        <ele>963.000000</ele>
        <time>2019-05-09T08:42:26Z</time>
      </trkpt>
      <trkpt lat="37.325552" lon="-3.126523">
        <ele>962.000000</ele>
        <time>2019-05-09T08:42:27Z</time>
      </trkpt>
      <trkpt lat="37.325547" lon="-3.126538">
        <ele>962.000000</ele>
        <time>2019-05-09T08:42:28Z</time>
      </trkpt>
      <trkpt lat="37.325543" lon="-3.126552">
        <ele>962.000000</ele>
        <time>2019-05-09T08:42:29Z</time>
      </trkpt>
      <trkpt lat="37.325536" lon="-3.126568">
        <ele>961.000000</ele>
        <time>2019-05-09T08:42:30Z</time>
      </trkpt>
      <trkpt lat="37.325529" lon="-3.126583">
        <ele>961.000000</ele>
        <time>2019-05-09T08:42:31Z</time>
      </trkpt>
      <trkpt lat="37.325523" lon="-3.126600">
        <ele>961.000000</ele>
        <time>2019-05-09T08:42:32Z</time>
      </trkpt>
      <trkpt lat="37.325516" lon="-3.126617">
        <ele>961.000000</ele>
        <time>2019-05-09T08:42:33Z</time>
      </trkpt>
      <trkpt lat="37.325509" lon="-3.126633">
        <ele>961.000000</ele>
        <time>2019-05-09T08:42:34Z</time>
      </trkpt>
      <trkpt lat="37.325502" lon="-3.126648">
        <ele>960.000000</ele>
        <time>2019-05-09T08:42:35Z</time>
      </trkpt>
      <trkpt lat="37.325493" lon="-3.126665">
        <ele>960.000000</ele>
        <time>2019-05-09T08:42:36Z</time>
      </trkpt>
      <trkpt lat="37.325483" lon="-3.126690">
        <ele>960.000000</ele>
        <time>2019-05-09T08:42:37Z</time>
      </trkpt>
      <trkpt lat="37.325476" lon="-3.126703">
        <ele>960.000000</ele>
        <time>2019-05-09T08:42:38Z</time>
      </trkpt>
      <trkpt lat="37.325468" lon="-3.126723">
        <ele>960.000000</ele>
        <time>2019-05-09T08:42:39Z</time>
      </trkpt>
      <trkpt lat="37.325460" lon="-3.126735">
        <ele>960.000000</ele>
        <time>2019-05-09T08:42:40Z</time>
      </trkpt>
      <trkpt lat="37.325452" lon="-3.126747">
        <ele>960.000000</ele>
        <time>2019-05-09T08:42:42Z</time>
      </trkpt>
      <trkpt lat="37.325443" lon="-3.126757">
        <ele>960.000000</ele>
        <time>2019-05-09T08:42:42Z</time>
      </trkpt>
      <trkpt lat="37.325372" lon="-3.126767">
        <ele>960.000000</ele>
        <time>2019-05-09T08:42:43Z</time>
      </trkpt>
      <trkpt lat="37.325352" lon="-3.126775">
        <ele>960.000000</ele>
        <time>2019-05-09T08:42:44Z</time>
      </trkpt>
      <trkpt lat="37.325333" lon="-3.126782">
        <ele>960.000000</ele>
        <time>2019-05-09T08:42:45Z</time>
      </trkpt>
      <trkpt lat="37.325312" lon="-3.126792">
        <ele>960.000000</ele>
        <time>2019-05-09T08:42:46Z</time>
      </trkpt>
      <trkpt lat="37.325292" lon="-3.126804">
        <ele>960.000000</ele>
        <time>2019-05-09T08:42:47Z</time>
      </trkpt>
      <trkpt lat="37.325280" lon="-3.126813">
        <ele>960.000000</ele>
        <time>2019-05-09T08:42:48Z</time>
      </trkpt>
      <trkpt lat="37.325265" lon="-3.126825">
        <ele>960.000000</ele>
        <time>2019-05-09T08:42:49Z</time>
      </trkpt>
      <trkpt lat="37.325250" lon="-3.126834">
        <ele>960.000000</ele>
        <time>2019-05-09T08:42:50Z</time>
      </trkpt>
      <trkpt lat="37.325238" lon="-3.126843">
        <ele>960.000000</ele>
        <time>2019-05-09T08:42:51Z</time>
      </trkpt>
      <trkpt lat="37.325225" lon="-3.126853">
        <ele>960.000000</ele>
        <time>2019-05-09T08:42:52Z</time>
      </trkpt>
      <trkpt lat="37.325215" lon="-3.126860">
        <ele>960.000000</ele>
        <time>2019-05-09T08:42:53Z</time>
      </trkpt>
      <trkpt lat="37.325203" lon="-3.126868">
        <ele>960.000000</ele>
        <time>2019-05-09T08:42:54Z</time>
      </trkpt>
      <trkpt lat="37.325193" lon="-3.126876">
        <ele>960.000000</ele>
        <time>2019-05-09T08:42:55Z</time>
      </trkpt>
      <trkpt lat="37.325183" lon="-3.126884">
        <ele>960.000000</ele>
        <time>2019-05-09T08:42:56Z</time>
      </trkpt>
      <trkpt lat="37.325170" lon="-3.126895">
        <ele>960.000000</ele>
        <time>2019-05-09T08:42:57Z</time>
      </trkpt>
      <trkpt lat="37.325158" lon="-3.126904">
        <ele>960.000000</ele>
        <time>2019-05-09T08:42:58Z</time>
      </trkpt>
      <trkpt lat="37.325143" lon="-3.126915">
        <ele>960.000000</ele>
        <time>2019-05-09T08:42:59Z</time>
      </trkpt>
      <trkpt lat="37.325130" lon="-3.126925">
        <ele>960.000000</ele>
        <time>2019-05-09T08:43:00Z</time>
      </trkpt>
      <trkpt lat="37.325113" lon="-3.126936">
        <ele>960.000000</ele>
        <time>2019-05-09T08:43:01Z</time>
      </trkpt>
      <trkpt lat="37.325098" lon="-3.126945">
        <ele>960.000000</ele>
        <time>2019-05-09T08:43:02Z</time>
      </trkpt>
      <trkpt lat="37.325083" lon="-3.126954">
        <ele>960.000000</ele>
        <time>2019-05-09T08:43:04Z</time>
      </trkpt>
      <trkpt lat="37.325070" lon="-3.126961">
        <ele>960.000000</ele>
        <time>2019-05-09T08:43:04Z</time>
      </trkpt>
      <trkpt lat="37.325055" lon="-3.126969">
        <ele>960.000000</ele>
        <time>2019-05-09T08:43:05Z</time>
      </trkpt>
      <trkpt lat="37.325040" lon="-3.126978">
        <ele>960.000000</ele>
        <time>2019-05-09T08:43:06Z</time>
      </trkpt>
      <trkpt lat="37.325025" lon="-3.126987">
        <ele>960.000000</ele>
        <time>2019-05-09T08:43:07Z</time>
      </trkpt>
      <trkpt lat="37.325008" lon="-3.126998">
        <ele>960.000000</ele>
        <time>2019-05-09T08:43:08Z</time>
      </trkpt>
      <trkpt lat="37.324992" lon="-3.127008">
        <ele>960.000000</ele>
        <time>2019-05-09T08:43:09Z</time>
      </trkpt>
      <trkpt lat="37.324972" lon="-3.127021">
        <ele>960.000000</ele>
        <time>2019-05-09T08:43:10Z</time>
      </trkpt>
      <trkpt lat="37.324950" lon="-3.127033">
        <ele>960.000000</ele>
        <time>2019-05-09T08:43:11Z</time>
      </trkpt>
      <trkpt lat="37.324930" lon="-3.127044">
        <ele>960.000000</ele>
        <time>2019-05-09T08:43:12Z</time>
      </trkpt>
      <trkpt lat="37.324913" lon="-3.127052">
        <ele>960.000000</ele>
        <time>2019-05-09T08:43:13Z</time>
      </trkpt>
      <trkpt lat="37.324897" lon="-3.127060">
        <ele>960.000000</ele>
        <time>2019-05-09T08:43:14Z</time>
      </trkpt>
      <trkpt lat="37.324878" lon="-3.127069">
        <ele>960.000000</ele>
        <time>2019-05-09T08:43:15Z</time>
      </trkpt>
      <trkpt lat="37.324862" lon="-3.127077">
        <ele>960.000000</ele>
        <time>2019-05-09T08:43:16Z</time>
      </trkpt>
      <trkpt lat="37.324843" lon="-3.127086">
        <ele>960.000000</ele>
        <time>2019-05-09T08:43:17Z</time>
      </trkpt>
      <trkpt lat="37.324830" lon="-3.127091">
        <ele>960.000000</ele>
        <time>2019-05-09T08:43:18Z</time>
      </trkpt>
      <trkpt lat="37.324815" lon="-3.127098">
        <ele>960.000000</ele>
        <time>2019-05-09T08:43:19Z</time>
      </trkpt>
      <trkpt lat="37.324805" lon="-3.127102">
        <ele>960.000000</ele>
        <time>2019-05-09T08:43:20Z</time>
      </trkpt>
      <trkpt lat="37.324790" lon="-3.127109">
        <ele>960.000000</ele>
        <time>2019-05-09T08:43:21Z</time>
      </trkpt>
      <trkpt lat="37.324775" lon="-3.127115">
        <ele>960.000000</ele>
        <time>2019-05-09T08:43:22Z</time>
      </trkpt>
      <trkpt lat="37.324757" lon="-3.127124">
        <ele>960.000000</ele>
        <time>2019-05-09T08:43:23Z</time>
      </trkpt>
      <trkpt lat="37.324743" lon="-3.127130">
        <ele>960.000000</ele>
        <time>2019-05-09T08:43:24Z</time>
      </trkpt>
      <trkpt lat="37.324727" lon="-3.127136">
        <ele>960.000000</ele>
        <time>2019-05-09T08:43:25Z</time>
      </trkpt>
      <trkpt lat="37.324712" lon="-3.127143">
        <ele>960.000000</ele>
        <time>2019-05-09T08:43:26Z</time>
      </trkpt>
      <trkpt lat="37.324697" lon="-3.127149">
        <ele>960.000000</ele>
        <time>2019-05-09T08:43:27Z</time>
      </trkpt>
      <trkpt lat="37.324682" lon="-3.127155">
        <ele>959.000000</ele>
        <time>2019-05-09T08:43:28Z</time>
      </trkpt>
      <trkpt lat="37.324672" lon="-3.127159">
        <ele>959.000000</ele>
        <time>2019-05-09T08:43:30Z</time>
      </trkpt>
      <trkpt lat="37.324652" lon="-3.127168">
        <ele>959.000000</ele>
        <time>2019-05-09T08:43:30Z</time>
      </trkpt>
      <trkpt lat="37.324635" lon="-3.127174">
        <ele>959.000000</ele>
        <time>2019-05-09T08:43:31Z</time>
      </trkpt>
      <trkpt lat="37.324615" lon="-3.127182">
        <ele>959.000000</ele>
        <time>2019-05-09T08:43:32Z</time>
      </trkpt>
      <trkpt lat="37.324595" lon="-3.127190">
        <ele>959.000000</ele>
        <time>2019-05-09T08:43:33Z</time>
      </trkpt>
      <trkpt lat="37.324580" lon="-3.127196">
        <ele>959.000000</ele>
        <time>2019-05-09T08:43:34Z</time>
      </trkpt>
      <trkpt lat="37.324563" lon="-3.127200">
        <ele>959.000000</ele>
        <time>2019-05-09T08:43:35Z</time>
      </trkpt>
      <trkpt lat="37.324550" lon="-3.127204">
        <ele>959.000000</ele>
        <time>2019-05-09T08:43:36Z</time>
      </trkpt>
      <trkpt lat="37.324530" lon="-3.127211">
        <ele>959.000000</ele>
        <time>2019-05-09T08:43:37Z</time>
      </trkpt>
      <trkpt lat="37.324513" lon="-3.127214">
        <ele>959.000000</ele>
        <time>2019-05-09T08:43:38Z</time>
      </trkpt>
      <trkpt lat="37.324497" lon="-3.127219">
        <ele>959.000000</ele>
        <time>2019-05-09T08:43:39Z</time>
      </trkpt>
      <trkpt lat="37.324483" lon="-3.127222">
        <ele>959.000000</ele>
        <time>2019-05-09T08:43:40Z</time>
      </trkpt>
      <trkpt lat="37.324467" lon="-3.127227">
        <ele>959.000000</ele>
        <time>2019-05-09T08:43:41Z</time>
      </trkpt>
      <trkpt lat="37.324450" lon="-3.127230">
        <ele>959.000000</ele>
        <time>2019-05-09T08:43:42Z</time>
      </trkpt>
      <trkpt lat="37.324432" lon="-3.127235">
        <ele>959.000000</ele>
        <time>2019-05-09T08:43:43Z</time>
      </trkpt>
      <trkpt lat="37.324415" lon="-3.127239">
        <ele>959.000000</ele>
        <time>2019-05-09T08:43:44Z</time>
      </trkpt>
      <trkpt lat="37.324403" lon="-3.127241">
        <ele>959.000000</ele>
        <time>2019-05-09T08:43:45Z</time>
      </trkpt>
      <trkpt lat="37.324388" lon="-3.127245">
        <ele>959.000000</ele>
        <time>2019-05-09T08:43:46Z</time>
      </trkpt>
      <trkpt lat="37.324377" lon="-3.127248">
        <ele>959.000000</ele>
        <time>2019-05-09T08:43:47Z</time>
      </trkpt>
      <trkpt lat="37.324363" lon="-3.127251">
        <ele>959.000000</ele>
        <time>2019-05-09T08:43:48Z</time>
      </trkpt>
      <trkpt lat="37.324347" lon="-3.127254">
        <ele>959.000000</ele>
        <time>2019-05-09T08:43:49Z</time>
      </trkpt>
      <trkpt lat="37.324333" lon="-3.127258">
        <ele>959.000000</ele>
        <time>2019-05-09T08:43:50Z</time>
      </trkpt>
      <trkpt lat="37.324318" lon="-3.127261">
        <ele>959.000000</ele>
        <time>2019-05-09T08:43:51Z</time>
      </trkpt>
      <trkpt lat="37.324305" lon="-3.127263">
        <ele>959.000000</ele>
        <time>2019-05-09T08:43:52Z</time>
      </trkpt>
      <trkpt lat="37.324290" lon="-3.127268">
        <ele>959.000000</ele>
        <time>2019-05-09T08:43:53Z</time>
      </trkpt>
      <trkpt lat="37.324272" lon="-3.127272">
        <ele>959.000000</ele>
        <time>2019-05-09T08:43:54Z</time>
      </trkpt>
      <trkpt lat="37.324258" lon="-3.127276">
        <ele>959.000000</ele>
        <time>2019-05-09T08:43:56Z</time>
      </trkpt>
      <trkpt lat="37.324247" lon="-3.127277">
        <ele>959.000000</ele>
        <time>2019-05-09T08:43:56Z</time>
      </trkpt>
      <trkpt lat="37.324233" lon="-3.127280">
        <ele>959.000000</ele>
        <time>2019-05-09T08:43:57Z</time>
      </trkpt>
      <trkpt lat="37.324218" lon="-3.127284">
        <ele>959.000000</ele>
        <time>2019-05-09T08:43:58Z</time>
      </trkpt>
      <trkpt lat="37.324205" lon="-3.127288">
        <ele>959.000000</ele>
        <time>2019-05-09T08:43:59Z</time>
      </trkpt>
      <trkpt lat="37.324190" lon="-3.127292">
        <ele>959.000000</ele>
        <time>2019-05-09T08:44:00Z</time>
      </trkpt>
      <trkpt lat="37.324175" lon="-3.127295">
        <ele>959.000000</ele>
        <time>2019-05-09T08:44:01Z</time>
      </trkpt>
      <trkpt lat="37.324160" lon="-3.127300">
        <ele>959.000000</ele>
        <time>2019-05-09T08:44:02Z</time>
      </trkpt>
      <trkpt lat="37.324143" lon="-3.127304">
        <ele>959.000000</ele>
        <time>2019-05-09T08:44:03Z</time>
      </trkpt>
      <trkpt lat="37.324128" lon="-3.127308">
        <ele>959.000000</ele>
        <time>2019-05-09T08:44:04Z</time>
      </trkpt>
      <trkpt lat="37.324110" lon="-3.127312">
        <ele>959.000000</ele>
        <time>2019-05-09T08:44:05Z</time>
      </trkpt>
      <trkpt lat="37.324092" lon="-3.127316">
        <ele>959.000000</ele>
        <time>2019-05-09T08:44:06Z</time>
      </trkpt>
      <trkpt lat="37.324073" lon="-3.127319">
        <ele>959.000000</ele>
        <time>2019-05-09T08:44:07Z</time>
      </trkpt>
      <trkpt lat="37.324055" lon="-3.127323">
        <ele>959.000000</ele>
        <time>2019-05-09T08:44:08Z</time>
      </trkpt>
      <trkpt lat="37.324035" lon="-3.127326">
        <ele>959.000000</ele>
        <time>2019-05-09T08:44:09Z</time>
      </trkpt>
      <trkpt lat="37.324018" lon="-3.127327">
        <ele>959.000000</ele>
        <time>2019-05-09T08:44:10Z</time>
      </trkpt>
      <trkpt lat="37.324005" lon="-3.127328">
        <ele>959.000000</ele>
        <time>2019-05-09T08:44:11Z</time>
      </trkpt>
      <trkpt lat="37.323988" lon="-3.127329">
        <ele>959.000000</ele>
        <time>2019-05-09T08:44:12Z</time>
      </trkpt>
      <trkpt lat="37.323972" lon="-3.127329">
        <ele>959.000000</ele>
        <time>2019-05-09T08:44:13Z</time>
      </trkpt>
      <trkpt lat="37.323953" lon="-3.127331">
        <ele>959.000000</ele>
        <time>2019-05-09T08:44:14Z</time>
      </trkpt>
      <trkpt lat="37.323933" lon="-3.127331">
        <ele>959.000000</ele>
        <time>2019-05-09T08:44:15Z</time>
      </trkpt>
      <trkpt lat="37.323913" lon="-3.127332">
        <ele>959.000000</ele>
        <time>2019-05-09T08:44:16Z</time>
      </trkpt>
      <trkpt lat="37.323893" lon="-3.127332">
        <ele>959.000000</ele>
        <time>2019-05-09T08:44:18Z</time>
      </trkpt>
      <trkpt lat="37.323875" lon="-3.127332">
        <ele>959.000000</ele>
        <time>2019-05-09T08:44:18Z</time>
      </trkpt>
      <trkpt lat="37.323857" lon="-3.127331">
        <ele>959.000000</ele>
        <time>2019-05-09T08:44:19Z</time>
      </trkpt>
      <trkpt lat="37.323840" lon="-3.127329">
        <ele>959.000000</ele>
        <time>2019-05-09T08:44:20Z</time>
      </trkpt>
      <trkpt lat="37.323822" lon="-3.127327">
        <ele>959.000000</ele>
        <time>2019-05-09T08:44:21Z</time>
      </trkpt>
      <trkpt lat="37.323805" lon="-3.127325">
        <ele>959.000000</ele>
        <time>2019-05-09T08:44:22Z</time>
      </trkpt>
      <trkpt lat="37.323790" lon="-3.127322">
        <ele>959.000000</ele>
        <time>2019-05-09T08:44:23Z</time>
      </trkpt>
      <trkpt lat="37.323775" lon="-3.127319">
        <ele>959.000000</ele>
        <time>2019-05-09T08:44:24Z</time>
      </trkpt>
      <trkpt lat="37.323763" lon="-3.127316">
        <ele>959.000000</ele>
        <time>2019-05-09T08:44:25Z</time>
      </trkpt>
      <trkpt lat="37.323752" lon="-3.127311">
        <ele>959.000000</ele>
        <time>2019-05-09T08:44:26Z</time>
      </trkpt>
      <trkpt lat="37.323738" lon="-3.127308">
        <ele>959.000000</ele>
        <time>2019-05-09T08:44:27Z</time>
      </trkpt>
      <trkpt lat="37.323725" lon="-3.127304">
        <ele>959.000000</ele>
        <time>2019-05-09T08:44:28Z</time>
      </trkpt>
      <trkpt lat="37.323710" lon="-3.127301">
        <ele>959.000000</ele>
        <time>2019-05-09T08:44:29Z</time>
      </trkpt>
      <trkpt lat="37.323695" lon="-3.127298">
        <ele>959.000000</ele>
        <time>2019-05-09T08:44:30Z</time>
      </trkpt>
      <trkpt lat="37.323683" lon="-3.127294">
        <ele>959.000000</ele>
        <time>2019-05-09T08:44:31Z</time>
      </trkpt>
      <trkpt lat="37.323670" lon="-3.127291">
        <ele>959.000000</ele>
        <time>2019-05-09T08:44:32Z</time>
      </trkpt>
      <trkpt lat="37.323658" lon="-3.127288">
        <ele>959.000000</ele>
        <time>2019-05-09T08:44:33Z</time>
      </trkpt>
      <trkpt lat="37.323643" lon="-3.127284">
        <ele>958.000000</ele>
        <time>2019-05-09T08:44:34Z</time>
      </trkpt>
      <trkpt lat="37.323630" lon="-3.127281">
        <ele>958.000000</ele>
        <time>2019-05-09T08:44:35Z</time>
      </trkpt>
      <trkpt lat="37.323618" lon="-3.127276">
        <ele>958.000000</ele>
        <time>2019-05-09T08:44:36Z</time>
      </trkpt>
      <trkpt lat="37.323605" lon="-3.127276">
        <ele>958.000000</ele>
        <time>2019-05-09T08:44:37Z</time>
      </trkpt>
      <trkpt lat="37.323593" lon="-3.127272">
        <ele>957.000000</ele>
        <time>2019-05-09T08:44:38Z</time>
      </trkpt>
      <trkpt lat="37.323582" lon="-3.127267">
        <ele>957.000000</ele>
        <time>2019-05-09T08:44:39Z</time>
      </trkpt>
      <trkpt lat="37.323568" lon="-3.127265">
        <ele>957.000000</ele>
        <time>2019-05-09T08:44:40Z</time>
      </trkpt>
      <trkpt lat="37.323550" lon="-3.127262">
        <ele>957.000000</ele>
        <time>2019-05-09T08:44:41Z</time>
      </trkpt>
      <trkpt lat="37.323533" lon="-3.127259">
        <ele>957.000000</ele>
        <time>2019-05-09T08:44:42Z</time>
      </trkpt>
      <trkpt lat="37.323520" lon="-3.127256">
        <ele>957.000000</ele>
        <time>2019-05-09T08:44:44Z</time>
      </trkpt>
      <trkpt lat="37.323503" lon="-3.127255">
        <ele>957.000000</ele>
        <time>2019-05-09T08:44:44Z</time>
      </trkpt>
      <trkpt lat="37.323487" lon="-3.127251">
        <ele>957.000000</ele>
        <time>2019-05-09T08:44:45Z</time>
      </trkpt>
      <trkpt lat="37.323467" lon="-3.127249">
        <ele>957.000000</ele>
        <time>2019-05-09T08:44:46Z</time>
      </trkpt>
      <trkpt lat="37.323448" lon="-3.127247">
        <ele>957.000000</ele>
        <time>2019-05-09T08:44:47Z</time>
      </trkpt>
      <trkpt lat="37.323430" lon="-3.127245">
        <ele>957.000000</ele>
        <time>2019-05-09T08:44:48Z</time>
      </trkpt>
      <trkpt lat="37.323412" lon="-3.127244">
        <ele>957.000000</ele>
        <time>2019-05-09T08:44:49Z</time>
      </trkpt>
      <trkpt lat="37.323392" lon="-3.127244">
        <ele>957.000000</ele>
        <time>2019-05-09T08:44:50Z</time>
      </trkpt>
      <trkpt lat="37.323373" lon="-3.127243">
        <ele>957.000000</ele>
        <time>2019-05-09T08:44:51Z</time>
      </trkpt>
      <trkpt lat="37.323355" lon="-3.127242">
        <ele>957.000000</ele>
        <time>2019-05-09T08:44:52Z</time>
      </trkpt>
      <trkpt lat="37.323337" lon="-3.127243">
        <ele>957.000000</ele>
        <time>2019-05-09T08:44:53Z</time>
      </trkpt>
      <trkpt lat="37.323318" lon="-3.127242">
        <ele>957.000000</ele>
        <time>2019-05-09T08:44:54Z</time>
      </trkpt>
      <trkpt lat="37.323302" lon="-3.127242">
        <ele>957.000000</ele>
        <time>2019-05-09T08:44:55Z</time>
      </trkpt>
      <trkpt lat="37.323287" lon="-3.127243">
        <ele>957.000000</ele>
        <time>2019-05-09T08:44:56Z</time>
      </trkpt>
      <trkpt lat="37.323272" lon="-3.127242">
        <ele>957.000000</ele>
        <time>2019-05-09T08:44:57Z</time>
      </trkpt>
      <trkpt lat="37.323255" lon="-3.127242">
        <ele>957.000000</ele>
        <time>2019-05-09T08:44:58Z</time>
      </trkpt>
      <trkpt lat="37.323240" lon="-3.127245">
        <ele>957.000000</ele>
        <time>2019-05-09T08:44:59Z</time>
      </trkpt>
      <trkpt lat="37.323223" lon="-3.127245">
        <ele>957.000000</ele>
        <time>2019-05-09T08:45:00Z</time>
      </trkpt>
      <trkpt lat="37.323210" lon="-3.127246">
        <ele>957.000000</ele>
        <time>2019-05-09T08:45:01Z</time>
      </trkpt>
      <trkpt lat="37.323190" lon="-3.127247">
        <ele>957.000000</ele>
        <time>2019-05-09T08:45:02Z</time>
      </trkpt>
      <trkpt lat="37.323177" lon="-3.127248">
        <ele>957.000000</ele>
        <time>2019-05-09T08:45:03Z</time>
      </trkpt>
      <trkpt lat="37.323165" lon="-3.127251">
        <ele>957.000000</ele>
        <time>2019-05-09T08:45:04Z</time>
      </trkpt>
      <trkpt lat="37.323153" lon="-3.127252">
        <ele>957.000000</ele>
        <time>2019-05-09T08:45:05Z</time>
      </trkpt>
      <trkpt lat="37.323140" lon="-3.127255">
        <ele>956.000000</ele>
        <time>2019-05-09T08:45:05Z</time>
      </trkpt>
      <trkpt lat="37.323127" lon="-3.127256">
        <ele>956.000000</ele>
        <time>2019-05-09T08:45:06Z</time>
      </trkpt>
      <trkpt lat="37.323113" lon="-3.127258">
        <ele>956.000000</ele>
        <time>2019-05-09T08:45:07Z</time>
      </trkpt>
      <trkpt lat="37.323098" lon="-3.127261">
        <ele>956.000000</ele>
        <time>2019-05-09T08:45:08Z</time>
      </trkpt>
      <trkpt lat="37.323085" lon="-3.127263">
        <ele>956.000000</ele>
        <time>2019-05-09T08:45:09Z</time>
      </trkpt>
      <trkpt lat="37.323070" lon="-3.127266">
        <ele>955.000000</ele>
        <time>2019-05-09T08:45:10Z</time>
      </trkpt>
      <trkpt lat="37.323055" lon="-3.127269">
        <ele>955.000000</ele>
        <time>2019-05-09T08:45:11Z</time>
      </trkpt>
      <trkpt lat="37.323038" lon="-3.127273">
        <ele>955.000000</ele>
        <time>2019-05-09T08:45:12Z</time>
      </trkpt>
      <trkpt lat="37.323022" lon="-3.127276">
        <ele>955.000000</ele>
        <time>2019-05-09T08:45:13Z</time>
      </trkpt>
      <trkpt lat="37.323007" lon="-3.127280">
        <ele>955.000000</ele>
        <time>2019-05-09T08:45:14Z</time>
      </trkpt>
      <trkpt lat="37.322990" lon="-3.127282">
        <ele>955.000000</ele>
        <time>2019-05-09T08:45:15Z</time>
      </trkpt>
      <trkpt lat="37.322975" lon="-3.127286">
        <ele>955.000000</ele>
        <time>2019-05-09T08:45:16Z</time>
      </trkpt>
      <trkpt lat="37.322960" lon="-3.127290">
        <ele>955.000000</ele>
        <time>2019-05-09T08:45:17Z</time>
      </trkpt>
      <trkpt lat="37.322942" lon="-3.127292">
        <ele>955.000000</ele>
        <time>2019-05-09T08:45:18Z</time>
      </trkpt>
      <trkpt lat="37.322927" lon="-3.127296">
        <ele>955.000000</ele>
        <time>2019-05-09T08:45:19Z</time>
      </trkpt>
      <trkpt lat="37.322910" lon="-3.127301">
        <ele>955.000000</ele>
        <time>2019-05-09T08:45:20Z</time>
      </trkpt>
      <trkpt lat="37.322892" lon="-3.127305">
        <ele>955.000000</ele>
        <time>2019-05-09T08:45:21Z</time>
      </trkpt>
      <trkpt lat="37.322873" lon="-3.127310">
        <ele>955.000000</ele>
        <time>2019-05-09T08:45:22Z</time>
      </trkpt>
      <trkpt lat="37.322857" lon="-3.127314">
        <ele>955.000000</ele>
        <time>2019-05-09T08:45:23Z</time>
      </trkpt>
      <trkpt lat="37.322837" lon="-3.127319">
        <ele>955.000000</ele>
        <time>2019-05-09T08:45:24Z</time>
      </trkpt>
      <trkpt lat="37.322820" lon="-3.127324">
        <ele>955.000000</ele>
        <time>2019-05-09T08:45:25Z</time>
      </trkpt>
      <trkpt lat="37.322802" lon="-3.127330">
        <ele>955.000000</ele>
        <time>2019-05-09T08:45:26Z</time>
      </trkpt>
      <trkpt lat="37.322782" lon="-3.127334">
        <ele>955.000000</ele>
        <time>2019-05-09T08:45:27Z</time>
      </trkpt>
      <trkpt lat="37.322762" lon="-3.127340">
        <ele>955.000000</ele>
        <time>2019-05-09T08:45:28Z</time>
      </trkpt>
      <trkpt lat="37.322743" lon="-3.127346">
        <ele>955.000000</ele>
        <time>2019-05-09T08:45:29Z</time>
      </trkpt>
      <trkpt lat="37.322725" lon="-3.127351">
        <ele>955.000000</ele>
        <time>2019-05-09T08:45:31Z</time>
      </trkpt>
      <trkpt lat="37.322707" lon="-3.127356">
        <ele>955.000000</ele>
        <time>2019-05-09T08:45:31Z</time>
      </trkpt>
      <trkpt lat="37.322692" lon="-3.127361">
        <ele>955.000000</ele>
        <time>2019-05-09T08:45:32Z</time>
      </trkpt>
      <trkpt lat="37.322677" lon="-3.127365">
        <ele>955.000000</ele>
        <time>2019-05-09T08:45:33Z</time>
      </trkpt>
      <trkpt lat="37.322662" lon="-3.127371">
        <ele>955.000000</ele>
        <time>2019-05-09T08:45:34Z</time>
      </trkpt>
      <trkpt lat="37.322648" lon="-3.127376">
        <ele>955.000000</ele>
        <time>2019-05-09T08:45:35Z</time>
      </trkpt>
      <trkpt lat="37.322633" lon="-3.127380">
        <ele>955.000000</ele>
        <time>2019-05-09T08:45:36Z</time>
      </trkpt>
      <trkpt lat="37.322620" lon="-3.127385">
        <ele>955.000000</ele>
        <time>2019-05-09T08:45:37Z</time>
      </trkpt>
      <trkpt lat="37.322607" lon="-3.127391">
        <ele>955.000000</ele>
        <time>2019-05-09T08:45:38Z</time>
      </trkpt>
      <trkpt lat="37.322593" lon="-3.127395">
        <ele>955.000000</ele>
        <time>2019-05-09T08:45:39Z</time>
      </trkpt>
      <trkpt lat="37.322578" lon="-3.127399">
        <ele>954.000000</ele>
        <time>2019-05-09T08:45:40Z</time>
      </trkpt>
      <trkpt lat="37.322568" lon="-3.127404">
        <ele>954.000000</ele>
        <time>2019-05-09T08:45:41Z</time>
      </trkpt>
      <trkpt lat="37.322555" lon="-3.127408">
        <ele>954.000000</ele>
        <time>2019-05-09T08:45:42Z</time>
      </trkpt>
      <trkpt lat="37.322543" lon="-3.127410">
        <ele>954.000000</ele>
        <time>2019-05-09T08:45:43Z</time>
      </trkpt>
      <trkpt lat="37.322533" lon="-3.127414">
        <ele>954.000000</ele>
        <time>2019-05-09T08:45:44Z</time>
      </trkpt>
      <trkpt lat="37.322527" lon="-3.127414">
        <ele>954.000000</ele>
        <time>2019-05-09T08:45:45Z</time>
      </trkpt>
      <trkpt lat="37.322522" lon="-3.127415">
        <ele>954.000000</ele>
        <time>2019-05-09T08:45:46Z</time>
      </trkpt>
      <trkpt lat="37.322525" lon="-3.127403">
        <ele>954.000000</ele>
        <time>2019-05-09T08:45:48Z</time>
      </trkpt>
      <trkpt lat="37.322528" lon="-3.127401">
        <ele>954.000000</ele>
        <time>2019-05-09T08:45:49Z</time>
      </trkpt>
      <trkpt lat="37.322530" lon="-3.127408">
        <ele>953.000000</ele>
        <time>2019-05-09T08:45:55Z</time>
      </trkpt>
      <trkpt lat="37.322555" lon="-3.127402">
        <ele>953.000000</ele>
        <time>2019-05-09T08:45:57Z</time>
      </trkpt>
      <trkpt lat="37.322543" lon="-3.127404">
        <ele>953.000000</ele>
        <time>2019-05-09T08:45:58Z</time>
      </trkpt>
      <trkpt lat="37.322535" lon="-3.127403">
        <ele>953.000000</ele>
        <time>2019-05-09T08:45:59Z</time>
      </trkpt>
      <trkpt lat="37.322518" lon="-3.127423">
        <ele>953.000000</ele>
        <time>2019-05-09T08:46:43Z</time>
      </trkpt>
      <trkpt lat="37.322507" lon="-3.127430">
        <ele>953.000000</ele>
        <time>2019-05-09T08:46:44Z</time>
      </trkpt>
      <trkpt lat="37.322492" lon="-3.127434">
        <ele>953.000000</ele>
        <time>2019-05-09T08:46:45Z</time>
      </trkpt>
      <trkpt lat="37.322480" lon="-3.127437">
        <ele>953.000000</ele>
        <time>2019-05-09T08:46:46Z</time>
      </trkpt>
      <trkpt lat="37.322463" lon="-3.127440">
        <ele>953.000000</ele>
        <time>2019-05-09T08:46:47Z</time>
      </trkpt>
      <trkpt lat="37.322448" lon="-3.127442">
        <ele>953.000000</ele>
        <time>2019-05-09T08:46:48Z</time>
      </trkpt>
      <trkpt lat="37.322437" lon="-3.127444">
        <ele>953.000000</ele>
        <time>2019-05-09T08:46:49Z</time>
      </trkpt>
      <trkpt lat="37.322423" lon="-3.127447">
        <ele>953.000000</ele>
        <time>2019-05-09T08:46:50Z</time>
      </trkpt>
      <trkpt lat="37.322410" lon="-3.127451">
        <ele>953.000000</ele>
        <time>2019-05-09T08:46:51Z</time>
      </trkpt>
      <trkpt lat="37.322398" lon="-3.127453">
        <ele>953.000000</ele>
        <time>2019-05-09T08:46:52Z</time>
      </trkpt>
      <trkpt lat="37.322385" lon="-3.127457">
        <ele>953.000000</ele>
        <time>2019-05-09T08:46:53Z</time>
      </trkpt>
      <trkpt lat="37.322368" lon="-3.127460">
        <ele>953.000000</ele>
        <time>2019-05-09T08:46:54Z</time>
      </trkpt>
      <trkpt lat="37.322348" lon="-3.127465">
        <ele>953.000000</ele>
        <time>2019-05-09T08:46:55Z</time>
      </trkpt>
      <trkpt lat="37.322330" lon="-3.127469">
        <ele>953.000000</ele>
        <time>2019-05-09T08:46:56Z</time>
      </trkpt>
      <trkpt lat="37.322312" lon="-3.127472">
        <ele>953.000000</ele>
        <time>2019-05-09T08:46:57Z</time>
      </trkpt>
      <trkpt lat="37.322295" lon="-3.127475">
        <ele>953.000000</ele>
        <time>2019-05-09T08:46:58Z</time>
      </trkpt>
      <trkpt lat="37.322280" lon="-3.127476">
        <ele>953.000000</ele>
        <time>2019-05-09T08:46:59Z</time>
      </trkpt>
      <trkpt lat="37.322263" lon="-3.127479">
        <ele>953.000000</ele>
        <time>2019-05-09T08:47:00Z</time>
      </trkpt>
      <trkpt lat="37.322247" lon="-3.127481">
        <ele>953.000000</ele>
        <time>2019-05-09T08:47:01Z</time>
      </trkpt>
      <trkpt lat="37.322228" lon="-3.127485">
        <ele>953.000000</ele>
        <time>2019-05-09T08:47:02Z</time>
      </trkpt>
      <trkpt lat="37.322210" lon="-3.127489">
        <ele>953.000000</ele>
        <time>2019-05-09T08:47:04Z</time>
      </trkpt>
      <trkpt lat="37.322192" lon="-3.127492">
        <ele>953.000000</ele>
        <time>2019-05-09T08:47:04Z</time>
      </trkpt>
      <trkpt lat="37.322173" lon="-3.127495">
        <ele>953.000000</ele>
        <time>2019-05-09T08:47:05Z</time>
      </trkpt>
      <trkpt lat="37.322155" lon="-3.127498">
        <ele>953.000000</ele>
        <time>2019-05-09T08:47:06Z</time>
      </trkpt>
      <trkpt lat="37.322137" lon="-3.127502">
        <ele>953.000000</ele>
        <time>2019-05-09T08:47:07Z</time>
      </trkpt>
      <trkpt lat="37.322115" lon="-3.127506">
        <ele>953.000000</ele>
        <time>2019-05-09T08:47:08Z</time>
      </trkpt>
      <trkpt lat="37.322095" lon="-3.127510">
        <ele>953.000000</ele>
        <time>2019-05-09T08:47:09Z</time>
      </trkpt>
      <trkpt lat="37.322077" lon="-3.127513">
        <ele>954.000000</ele>
        <time>2019-05-09T08:47:10Z</time>
      </trkpt>
      <trkpt lat="37.322060" lon="-3.127517">
        <ele>954.000000</ele>
        <time>2019-05-09T08:47:11Z</time>
      </trkpt>
      <trkpt lat="37.322040" lon="-3.127519">
        <ele>954.000000</ele>
        <time>2019-05-09T08:47:12Z</time>
      </trkpt>
      <trkpt lat="37.322022" lon="-3.127523">
        <ele>954.000000</ele>
        <time>2019-05-09T08:47:13Z</time>
      </trkpt>
      <trkpt lat="37.322005" lon="-3.127526">
        <ele>954.000000</ele>
        <time>2019-05-09T08:47:14Z</time>
      </trkpt>
      <trkpt lat="37.321988" lon="-3.127529">
        <ele>954.000000</ele>
        <time>2019-05-09T08:47:15Z</time>
      </trkpt>
      <trkpt lat="37.321972" lon="-3.127532">
        <ele>954.000000</ele>
        <time>2019-05-09T08:47:16Z</time>
      </trkpt>
      <trkpt lat="37.321957" lon="-3.127535">
        <ele>954.000000</ele>
        <time>2019-05-09T08:47:17Z</time>
      </trkpt>
      <trkpt lat="37.321942" lon="-3.127538">
        <ele>954.000000</ele>
        <time>2019-05-09T08:47:18Z</time>
      </trkpt>
      <trkpt lat="37.321927" lon="-3.127540">
        <ele>954.000000</ele>
        <time>2019-05-09T08:47:19Z</time>
      </trkpt>
      <trkpt lat="37.321913" lon="-3.127543">
        <ele>954.000000</ele>
        <time>2019-05-09T08:47:20Z</time>
      </trkpt>
      <trkpt lat="37.321898" lon="-3.127546">
        <ele>953.000000</ele>
        <time>2019-05-09T08:47:21Z</time>
      </trkpt>
      <trkpt lat="37.321882" lon="-3.127550">
        <ele>953.000000</ele>
        <time>2019-05-09T08:47:22Z</time>
      </trkpt>
      <trkpt lat="37.321867" lon="-3.127554">
        <ele>953.000000</ele>
        <time>2019-05-09T08:47:23Z</time>
      </trkpt>
      <trkpt lat="37.321852" lon="-3.127557">
        <ele>953.000000</ele>
        <time>2019-05-09T08:47:24Z</time>
      </trkpt>
      <trkpt lat="37.321838" lon="-3.127561">
        <ele>953.000000</ele>
        <time>2019-05-09T08:47:25Z</time>
      </trkpt>
      <trkpt lat="37.321825" lon="-3.127564">
        <ele>953.000000</ele>
        <time>2019-05-09T08:47:26Z</time>
      </trkpt>
      <trkpt lat="37.321812" lon="-3.127568">
        <ele>953.000000</ele>
        <time>2019-05-09T08:47:27Z</time>
      </trkpt>
      <trkpt lat="37.321795" lon="-3.127571">
        <ele>953.000000</ele>
        <time>2019-05-09T08:47:28Z</time>
      </trkpt>
      <trkpt lat="37.321780" lon="-3.127576">
        <ele>953.000000</ele>
        <time>2019-05-09T08:47:30Z</time>
      </trkpt>
      <trkpt lat="37.321765" lon="-3.127579">
        <ele>953.000000</ele>
        <time>2019-05-09T08:47:30Z</time>
      </trkpt>
      <trkpt lat="37.321748" lon="-3.127585">
        <ele>953.000000</ele>
        <time>2019-05-09T08:47:31Z</time>
      </trkpt>
      <trkpt lat="37.321732" lon="-3.127588">
        <ele>953.000000</ele>
        <time>2019-05-09T08:47:32Z</time>
      </trkpt>
      <trkpt lat="37.321713" lon="-3.127594">
        <ele>953.000000</ele>
        <time>2019-05-09T08:47:33Z</time>
      </trkpt>
      <trkpt lat="37.321693" lon="-3.127599">
        <ele>953.000000</ele>
        <time>2019-05-09T08:47:34Z</time>
      </trkpt>
      <trkpt lat="37.321677" lon="-3.127604">
        <ele>953.000000</ele>
        <time>2019-05-09T08:47:35Z</time>
      </trkpt>
      <trkpt lat="37.321660" lon="-3.127610">
        <ele>953.000000</ele>
        <time>2019-05-09T08:47:36Z</time>
      </trkpt>
      <trkpt lat="37.321643" lon="-3.127615">
        <ele>953.000000</ele>
        <time>2019-05-09T08:47:37Z</time>
      </trkpt>
      <trkpt lat="37.321627" lon="-3.127623">
        <ele>953.000000</ele>
        <time>2019-05-09T08:47:38Z</time>
      </trkpt>
      <trkpt lat="37.321613" lon="-3.127628">
        <ele>953.000000</ele>
        <time>2019-05-09T08:47:39Z</time>
      </trkpt>
      <trkpt lat="37.321600" lon="-3.127635">
        <ele>953.000000</ele>
        <time>2019-05-09T08:47:40Z</time>
      </trkpt>
      <trkpt lat="37.321590" lon="-3.127643">
        <ele>953.000000</ele>
        <time>2019-05-09T08:47:41Z</time>
      </trkpt>
      <trkpt lat="37.321582" lon="-3.127651">
        <ele>953.000000</ele>
        <time>2019-05-09T08:47:42Z</time>
      </trkpt>
      <trkpt lat="37.321575" lon="-3.127723">
        <ele>953.000000</ele>
        <time>2019-05-09T08:47:43Z</time>
      </trkpt>
      <trkpt lat="37.321573" lon="-3.127740">
        <ele>953.000000</ele>
        <time>2019-05-09T08:47:44Z</time>
      </trkpt>
      <trkpt lat="37.321572" lon="-3.127757">
        <ele>953.000000</ele>
        <time>2019-05-09T08:47:45Z</time>
      </trkpt>
      <trkpt lat="37.321568" lon="-3.127775">
        <ele>953.000000</ele>
        <time>2019-05-09T08:47:46Z</time>
      </trkpt>
      <trkpt lat="37.321567" lon="-3.127792">
        <ele>953.000000</ele>
        <time>2019-05-09T08:47:47Z</time>
      </trkpt>
      <trkpt lat="37.321567" lon="-3.127810">
        <ele>953.000000</ele>
        <time>2019-05-09T08:47:48Z</time>
      </trkpt>
      <trkpt lat="37.321567" lon="-3.127827">
        <ele>953.000000</ele>
        <time>2019-05-09T08:47:49Z</time>
      </trkpt>
      <trkpt lat="37.321567" lon="-3.127845">
        <ele>953.000000</ele>
        <time>2019-05-09T08:47:50Z</time>
      </trkpt>
      <trkpt lat="37.321563" lon="-3.127863">
        <ele>953.000000</ele>
        <time>2019-05-09T08:47:51Z</time>
      </trkpt>
      <trkpt lat="37.321559" lon="-3.127880">
        <ele>953.000000</ele>
        <time>2019-05-09T08:47:52Z</time>
      </trkpt>
      <trkpt lat="37.321554" lon="-3.127898">
        <ele>953.000000</ele>
        <time>2019-05-09T08:47:53Z</time>
      </trkpt>
      <trkpt lat="37.321547" lon="-3.127918">
        <ele>953.000000</ele>
        <time>2019-05-09T08:47:55Z</time>
      </trkpt>
      <trkpt lat="37.321544" lon="-3.127933">
        <ele>953.000000</ele>
        <time>2019-05-09T08:47:55Z</time>
      </trkpt>
      <trkpt lat="37.321540" lon="-3.127960">
        <ele>953.000000</ele>
        <time>2019-05-09T08:47:56Z</time>
      </trkpt>
      <trkpt lat="37.321540" lon="-3.127982">
        <ele>953.000000</ele>
        <time>2019-05-09T08:47:57Z</time>
      </trkpt>
      <trkpt lat="37.321541" lon="-3.128002">
        <ele>953.000000</ele>
        <time>2019-05-09T08:47:58Z</time>
      </trkpt>
      <trkpt lat="37.321544" lon="-3.128025">
        <ele>953.000000</ele>
        <time>2019-05-09T08:47:59Z</time>
      </trkpt>
      <trkpt lat="37.321546" lon="-3.128048">
        <ele>953.000000</ele>
        <time>2019-05-09T08:48:00Z</time>
      </trkpt>
      <trkpt lat="37.321549" lon="-3.128065">
        <ele>953.000000</ele>
        <time>2019-05-09T08:48:01Z</time>
      </trkpt>
      <trkpt lat="37.321553" lon="-3.128092">
        <ele>953.000000</ele>
        <time>2019-05-09T08:48:02Z</time>
      </trkpt>
      <trkpt lat="37.321556" lon="-3.128113">
        <ele>953.000000</ele>
        <time>2019-05-09T08:48:03Z</time>
      </trkpt>
      <trkpt lat="37.321561" lon="-3.128133">
        <ele>953.000000</ele>
        <time>2019-05-09T08:48:04Z</time>
      </trkpt>
      <trkpt lat="37.321564" lon="-3.128153">
        <ele>953.000000</ele>
        <time>2019-05-09T08:48:05Z</time>
      </trkpt>
      <trkpt lat="37.321567" lon="-3.128168">
        <ele>953.000000</ele>
        <time>2019-05-09T08:48:06Z</time>
      </trkpt>
      <trkpt lat="37.321571" lon="-3.128185">
        <ele>953.000000</ele>
        <time>2019-05-09T08:48:07Z</time>
      </trkpt>
      <trkpt lat="37.321576" lon="-3.128202">
        <ele>953.000000</ele>
        <time>2019-05-09T08:48:08Z</time>
      </trkpt>
      <trkpt lat="37.321580" lon="-3.128217">
        <ele>952.000000</ele>
        <time>2019-05-09T08:48:09Z</time>
      </trkpt>
      <trkpt lat="37.321585" lon="-3.128230">
        <ele>952.000000</ele>
        <time>2019-05-09T08:48:10Z</time>
      </trkpt>
      <trkpt lat="37.321589" lon="-3.128247">
        <ele>952.000000</ele>
        <time>2019-05-09T08:48:11Z</time>
      </trkpt>
      <trkpt lat="37.321594" lon="-3.128262">
        <ele>952.000000</ele>
        <time>2019-05-09T08:48:12Z</time>
      </trkpt>
      <trkpt lat="37.321598" lon="-3.128277">
        <ele>951.000000</ele>
        <time>2019-05-09T08:48:13Z</time>
      </trkpt>
      <trkpt lat="37.321602" lon="-3.128293">
        <ele>951.000000</ele>
        <time>2019-05-09T08:48:14Z</time>
      </trkpt>
      <trkpt lat="37.321607" lon="-3.128310">
        <ele>951.000000</ele>
        <time>2019-05-09T08:48:15Z</time>
      </trkpt>
      <trkpt lat="37.321611" lon="-3.128328">
        <ele>951.000000</ele>
        <time>2019-05-09T08:48:17Z</time>
      </trkpt>
      <trkpt lat="37.321615" lon="-3.128347">
        <ele>951.000000</ele>
        <time>2019-05-09T08:48:17Z</time>
      </trkpt>
      <trkpt lat="37.321620" lon="-3.128368">
        <ele>950.000000</ele>
        <time>2019-05-09T08:48:18Z</time>
      </trkpt>
      <trkpt lat="37.321623" lon="-3.128388">
        <ele>950.000000</ele>
        <time>2019-05-09T08:48:19Z</time>
      </trkpt>
      <trkpt lat="37.321627" lon="-3.128410">
        <ele>950.000000</ele>
        <time>2019-05-09T08:48:20Z</time>
      </trkpt>
      <trkpt lat="37.321631" lon="-3.128435">
        <ele>950.000000</ele>
        <time>2019-05-09T08:48:21Z</time>
      </trkpt>
      <trkpt lat="37.321634" lon="-3.128462">
        <ele>950.000000</ele>
        <time>2019-05-09T08:48:22Z</time>
      </trkpt>
      <trkpt lat="37.321637" lon="-3.128483">
        <ele>950.000000</ele>
        <time>2019-05-09T08:48:23Z</time>
      </trkpt>
      <trkpt lat="37.321639" lon="-3.128507">
        <ele>950.000000</ele>
        <time>2019-05-09T08:48:24Z</time>
      </trkpt>
      <trkpt lat="37.321642" lon="-3.128530">
        <ele>950.000000</ele>
        <time>2019-05-09T08:48:25Z</time>
      </trkpt>
      <trkpt lat="37.321646" lon="-3.128553">
        <ele>950.000000</ele>
        <time>2019-05-09T08:48:26Z</time>
      </trkpt>
      <trkpt lat="37.321647" lon="-3.128575">
        <ele>950.000000</ele>
        <time>2019-05-09T08:48:27Z</time>
      </trkpt>
      <trkpt lat="37.321650" lon="-3.128597">
        <ele>950.000000</ele>
        <time>2019-05-09T08:48:28Z</time>
      </trkpt>
      <trkpt lat="37.321652" lon="-3.128617">
        <ele>950.000000</ele>
        <time>2019-05-09T08:48:29Z</time>
      </trkpt>
      <trkpt lat="37.321655" lon="-3.128638">
        <ele>950.000000</ele>
        <time>2019-05-09T08:48:30Z</time>
      </trkpt>
      <trkpt lat="37.321656" lon="-3.128660">
        <ele>950.000000</ele>
        <time>2019-05-09T08:48:31Z</time>
      </trkpt>
      <trkpt lat="37.321656" lon="-3.128678">
        <ele>950.000000</ele>
        <time>2019-05-09T08:48:32Z</time>
      </trkpt>
      <trkpt lat="37.321656" lon="-3.128697">
        <ele>950.000000</ele>
        <time>2019-05-09T08:48:33Z</time>
      </trkpt>
      <trkpt lat="37.321656" lon="-3.128710">
        <ele>949.000000</ele>
        <time>2019-05-09T08:48:34Z</time>
      </trkpt>
      <trkpt lat="37.321655" lon="-3.128725">
        <ele>949.000000</ele>
        <time>2019-05-09T08:48:35Z</time>
      </trkpt>
      <trkpt lat="37.321653" lon="-3.128742">
        <ele>949.000000</ele>
        <time>2019-05-09T08:48:36Z</time>
      </trkpt>
      <trkpt lat="37.321652" lon="-3.128758">
        <ele>949.000000</ele>
        <time>2019-05-09T08:48:37Z</time>
      </trkpt>
      <trkpt lat="37.321651" lon="-3.128770">
        <ele>949.000000</ele>
        <time>2019-05-09T08:48:38Z</time>
      </trkpt>
      <trkpt lat="37.321648" lon="-3.128787">
        <ele>948.000000</ele>
        <time>2019-05-09T08:48:39Z</time>
      </trkpt>
      <trkpt lat="37.321647" lon="-3.128805">
        <ele>948.000000</ele>
        <time>2019-05-09T08:48:40Z</time>
      </trkpt>
      <trkpt lat="37.321646" lon="-3.128822">
        <ele>948.000000</ele>
        <time>2019-05-09T08:48:42Z</time>
      </trkpt>
      <trkpt lat="37.321645" lon="-3.128843">
        <ele>948.000000</ele>
        <time>2019-05-09T08:48:42Z</time>
      </trkpt>
      <trkpt lat="37.321642" lon="-3.128865">
        <ele>948.000000</ele>
        <time>2019-05-09T08:48:43Z</time>
      </trkpt>
      <trkpt lat="37.321638" lon="-3.128880">
        <ele>948.000000</ele>
        <time>2019-05-09T08:48:44Z</time>
      </trkpt>
      <trkpt lat="37.321635" lon="-3.128902">
        <ele>948.000000</ele>
        <time>2019-05-09T08:48:45Z</time>
      </trkpt>
      <trkpt lat="37.321630" lon="-3.128923">
        <ele>948.000000</ele>
        <time>2019-05-09T08:48:46Z</time>
      </trkpt>
      <trkpt lat="37.321628" lon="-3.128952">
        <ele>948.000000</ele>
        <time>2019-05-09T08:48:47Z</time>
      </trkpt>
      <trkpt lat="37.321600" lon="-3.128973">
        <ele>948.000000</ele>
        <time>2019-05-09T08:48:48Z</time>
      </trkpt>
      <trkpt lat="37.321607" lon="-3.128995">
        <ele>948.000000</ele>
        <time>2019-05-09T08:48:49Z</time>
      </trkpt>
      <trkpt lat="37.321613" lon="-3.129017">
        <ele>948.000000</ele>
        <time>2019-05-09T08:48:50Z</time>
      </trkpt>
      <trkpt lat="37.321618" lon="-3.129035">
        <ele>948.000000</ele>
        <time>2019-05-09T08:48:51Z</time>
      </trkpt>
      <trkpt lat="37.321626" lon="-3.129055">
        <ele>947.000000</ele>
        <time>2019-05-09T08:48:52Z</time>
      </trkpt>
      <trkpt lat="37.321635" lon="-3.129070">
        <ele>947.000000</ele>
        <time>2019-05-09T08:48:53Z</time>
      </trkpt>
      <trkpt lat="37.321643" lon="-3.129083">
        <ele>947.000000</ele>
        <time>2019-05-09T08:48:54Z</time>
      </trkpt>
      <trkpt lat="37.321650" lon="-3.129102">
        <ele>946.000000</ele>
        <time>2019-05-09T08:48:55Z</time>
      </trkpt>
      <trkpt lat="37.321657" lon="-3.129117">
        <ele>946.000000</ele>
        <time>2019-05-09T08:48:56Z</time>
      </trkpt>
      <trkpt lat="37.321664" lon="-3.129132">
        <ele>946.000000</ele>
        <time>2019-05-09T08:48:57Z</time>
      </trkpt>
      <trkpt lat="37.321671" lon="-3.129145">
        <ele>945.000000</ele>
        <time>2019-05-09T08:48:58Z</time>
      </trkpt>
      <trkpt lat="37.321677" lon="-3.129163">
        <ele>945.000000</ele>
        <time>2019-05-09T08:48:59Z</time>
      </trkpt>
      <trkpt lat="37.321681" lon="-3.129180">
        <ele>945.000000</ele>
        <time>2019-05-09T08:49:00Z</time>
      </trkpt>
      <trkpt lat="37.321684" lon="-3.129200">
        <ele>945.000000</ele>
        <time>2019-05-09T08:49:01Z</time>
      </trkpt>
      <trkpt lat="37.321685" lon="-3.129220">
        <ele>945.000000</ele>
        <time>2019-05-09T08:49:02Z</time>
      </trkpt>
      <trkpt lat="37.321685" lon="-3.129242">
        <ele>945.000000</ele>
        <time>2019-05-09T08:49:04Z</time>
      </trkpt>
      <trkpt lat="37.321684" lon="-3.129265">
        <ele>945.000000</ele>
        <time>2019-05-09T08:49:04Z</time>
      </trkpt>
      <trkpt lat="37.321683" lon="-3.129288">
        <ele>945.000000</ele>
        <time>2019-05-09T08:49:05Z</time>
      </trkpt>
      <trkpt lat="37.321670" lon="-3.129315">
        <ele>945.000000</ele>
        <time>2019-05-09T08:49:06Z</time>
      </trkpt>
      <trkpt lat="37.321667" lon="-3.129340">
        <ele>945.000000</ele>
        <time>2019-05-09T08:49:07Z</time>
      </trkpt>
      <trkpt lat="37.321659" lon="-3.129360">
        <ele>945.000000</ele>
        <time>2019-05-09T08:49:08Z</time>
      </trkpt>
      <trkpt lat="37.321651" lon="-3.129380">
        <ele>945.000000</ele>
        <time>2019-05-09T08:49:09Z</time>
      </trkpt>
      <trkpt lat="37.321643" lon="-3.129398">
        <ele>944.000000</ele>
        <time>2019-05-09T08:49:10Z</time>
      </trkpt>
      <trkpt lat="37.321638" lon="-3.129412">
        <ele>944.000000</ele>
        <time>2019-05-09T08:49:11Z</time>
      </trkpt>
      <trkpt lat="37.321627" lon="-3.129430">
        <ele>944.000000</ele>
        <time>2019-05-09T08:49:12Z</time>
      </trkpt>
      <trkpt lat="37.321617" lon="-3.129427">
        <ele>944.000000</ele>
        <time>2019-05-09T08:49:13Z</time>
      </trkpt>
      <trkpt lat="37.321440" lon="-3.129625">
        <ele>944.000000</ele>
        <time>2019-05-09T08:49:24Z</time>
      </trkpt>
      <trkpt lat="37.321437" lon="-3.129595">
        <ele>944.000000</ele>
        <time>2019-05-09T08:49:25Z</time>
      </trkpt>
      <trkpt lat="37.321438" lon="-3.129582">
        <ele>943.000000</ele>
        <time>2019-05-09T08:49:26Z</time>
      </trkpt>
      <trkpt lat="37.321428" lon="-3.129575">
        <ele>943.000000</ele>
        <time>2019-05-09T08:49:27Z</time>
      </trkpt>
      <trkpt lat="37.321405" lon="-3.129568">
        <ele>943.000000</ele>
        <time>2019-05-09T08:49:28Z</time>
      </trkpt>
      <trkpt lat="37.321385" lon="-3.129562">
        <ele>943.000000</ele>
        <time>2019-05-09T08:49:29Z</time>
      </trkpt>
      <trkpt lat="37.321368" lon="-3.129552">
        <ele>943.000000</ele>
        <time>2019-05-09T08:49:30Z</time>
      </trkpt>
      <trkpt lat="37.321358" lon="-3.129538">
        <ele>943.000000</ele>
        <time>2019-05-09T08:49:31Z</time>
      </trkpt>
      <trkpt lat="37.321353" lon="-3.129523">
        <ele>943.000000</ele>
        <time>2019-05-09T08:49:32Z</time>
      </trkpt>
      <trkpt lat="37.321338" lon="-3.129503">
        <ele>943.000000</ele>
        <time>2019-05-09T08:49:33Z</time>
      </trkpt>
      <trkpt lat="37.321327" lon="-3.129492">
        <ele>943.000000</ele>
        <time>2019-05-09T08:49:34Z</time>
      </trkpt>
      <trkpt lat="37.321313" lon="-3.129476">
        <ele>943.000000</ele>
        <time>2019-05-09T08:49:36Z</time>
      </trkpt>
      <trkpt lat="37.321300" lon="-3.129464">
        <ele>943.000000</ele>
        <time>2019-05-09T08:49:36Z</time>
      </trkpt>
      <trkpt lat="37.321287" lon="-3.129453">
        <ele>943.000000</ele>
        <time>2019-05-09T08:49:37Z</time>
      </trkpt>
      <trkpt lat="37.321275" lon="-3.129439">
        <ele>943.000000</ele>
        <time>2019-05-09T08:49:38Z</time>
      </trkpt>
      <trkpt lat="37.321262" lon="-3.129424">
        <ele>943.000000</ele>
        <time>2019-05-09T08:49:39Z</time>
      </trkpt>
      <trkpt lat="37.321250" lon="-3.129412">
        <ele>943.000000</ele>
        <time>2019-05-09T08:49:40Z</time>
      </trkpt>
      <trkpt lat="37.321240" lon="-3.129401">
        <ele>943.000000</ele>
        <time>2019-05-09T08:49:41Z</time>
      </trkpt>
      <trkpt lat="37.321230" lon="-3.129392">
        <ele>943.000000</ele>
        <time>2019-05-09T08:49:42Z</time>
      </trkpt>
      <trkpt lat="37.321218" lon="-3.129382">
        <ele>943.000000</ele>
        <time>2019-05-09T08:49:43Z</time>
      </trkpt>
      <trkpt lat="37.321208" lon="-3.129374">
        <ele>943.000000</ele>
        <time>2019-05-09T08:49:44Z</time>
      </trkpt>
      <trkpt lat="37.321197" lon="-3.129364">
        <ele>943.000000</ele>
        <time>2019-05-09T08:49:45Z</time>
      </trkpt>
      <trkpt lat="37.321185" lon="-3.129355">
        <ele>943.000000</ele>
        <time>2019-05-09T08:49:46Z</time>
      </trkpt>
      <trkpt lat="37.321175" lon="-3.129347">
        <ele>943.000000</ele>
        <time>2019-05-09T08:49:47Z</time>
      </trkpt>
      <trkpt lat="37.321167" lon="-3.129340">
        <ele>943.000000</ele>
        <time>2019-05-09T08:49:48Z</time>
      </trkpt>
      <trkpt lat="37.321155" lon="-3.129330">
        <ele>943.000000</ele>
        <time>2019-05-09T08:49:49Z</time>
      </trkpt>
      <trkpt lat="37.321145" lon="-3.129320">
        <ele>943.000000</ele>
        <time>2019-05-09T08:49:50Z</time>
      </trkpt>
      <trkpt lat="37.321137" lon="-3.129312">
        <ele>943.000000</ele>
        <time>2019-05-09T08:49:51Z</time>
      </trkpt>
      <trkpt lat="37.321128" lon="-3.129304">
        <ele>944.000000</ele>
        <time>2019-05-09T08:49:52Z</time>
      </trkpt>
      <trkpt lat="37.321120" lon="-3.129296">
        <ele>944.000000</ele>
        <time>2019-05-09T08:49:53Z</time>
      </trkpt>
      <trkpt lat="37.321110" lon="-3.129285">
        <ele>944.000000</ele>
        <time>2019-05-09T08:49:54Z</time>
      </trkpt>
      <trkpt lat="37.321103" lon="-3.129277">
        <ele>944.000000</ele>
        <time>2019-05-09T08:49:55Z</time>
      </trkpt>
      <trkpt lat="37.321095" lon="-3.129267">
        <ele>944.000000</ele>
        <time>2019-05-09T08:49:56Z</time>
      </trkpt>
      <trkpt lat="37.321087" lon="-3.129257">
        <ele>944.000000</ele>
        <time>2019-05-09T08:49:58Z</time>
      </trkpt>
      <trkpt lat="37.321075" lon="-3.129245">
        <ele>944.000000</ele>
        <time>2019-05-09T08:49:58Z</time>
      </trkpt>
      <trkpt lat="37.321065" lon="-3.129233">
        <ele>944.000000</ele>
        <time>2019-05-09T08:49:59Z</time>
      </trkpt>
      <trkpt lat="37.321057" lon="-3.129224">
        <ele>944.000000</ele>
        <time>2019-05-09T08:50:00Z</time>
      </trkpt>
      <trkpt lat="37.321047" lon="-3.129195">
        <ele>944.000000</ele>
        <time>2019-05-09T08:50:01Z</time>
      </trkpt>
      <trkpt lat="37.321033" lon="-3.129185">
        <ele>944.000000</ele>
        <time>2019-05-09T08:50:02Z</time>
      </trkpt>
      <trkpt lat="37.321018" lon="-3.129172">
        <ele>944.000000</ele>
        <time>2019-05-09T08:50:03Z</time>
      </trkpt>
      <trkpt lat="37.321007" lon="-3.129159">
        <ele>944.000000</ele>
        <time>2019-05-09T08:50:04Z</time>
      </trkpt>
      <trkpt lat="37.320990" lon="-3.129148">
        <ele>945.000000</ele>
        <time>2019-05-09T08:50:05Z</time>
      </trkpt>
      <trkpt lat="37.320972" lon="-3.129136">
        <ele>945.000000</ele>
        <time>2019-05-09T08:50:06Z</time>
      </trkpt>
      <trkpt lat="37.320955" lon="-3.129125">
        <ele>945.000000</ele>
        <time>2019-05-09T08:50:07Z</time>
      </trkpt>
      <trkpt lat="37.320938" lon="-3.129113">
        <ele>945.000000</ele>
        <time>2019-05-09T08:50:08Z</time>
      </trkpt>
      <trkpt lat="37.320922" lon="-3.129100">
        <ele>945.000000</ele>
        <time>2019-05-09T08:50:09Z</time>
      </trkpt>
      <trkpt lat="37.320907" lon="-3.129087">
        <ele>945.000000</ele>
        <time>2019-05-09T08:50:10Z</time>
      </trkpt>
      <trkpt lat="37.320892" lon="-3.129074">
        <ele>945.000000</ele>
        <time>2019-05-09T08:50:11Z</time>
      </trkpt>
      <trkpt lat="37.320875" lon="-3.129060">
        <ele>945.000000</ele>
        <time>2019-05-09T08:50:12Z</time>
      </trkpt>
      <trkpt lat="37.320860" lon="-3.129047">
        <ele>945.000000</ele>
        <time>2019-05-09T08:50:13Z</time>
      </trkpt>
      <trkpt lat="37.320847" lon="-3.129035">
        <ele>945.000000</ele>
        <time>2019-05-09T08:50:14Z</time>
      </trkpt>
      <trkpt lat="37.320832" lon="-3.129021">
        <ele>945.000000</ele>
        <time>2019-05-09T08:50:15Z</time>
      </trkpt>
      <trkpt lat="37.320815" lon="-3.129006">
        <ele>945.000000</ele>
        <time>2019-05-09T08:50:16Z</time>
      </trkpt>
      <trkpt lat="37.320800" lon="-3.128993">
        <ele>945.000000</ele>
        <time>2019-05-09T08:50:17Z</time>
      </trkpt>
      <trkpt lat="37.320788" lon="-3.128983">
        <ele>945.000000</ele>
        <time>2019-05-09T08:50:18Z</time>
      </trkpt>
      <trkpt lat="37.320777" lon="-3.128973">
        <ele>945.000000</ele>
        <time>2019-05-09T08:50:19Z</time>
      </trkpt>
      <trkpt lat="37.320762" lon="-3.128960">
        <ele>945.000000</ele>
        <time>2019-05-09T08:50:20Z</time>
      </trkpt>
      <trkpt lat="37.320752" lon="-3.128952">
        <ele>945.000000</ele>
        <time>2019-05-09T08:50:21Z</time>
      </trkpt>
      <trkpt lat="37.320738" lon="-3.128941">
        <ele>945.000000</ele>
        <time>2019-05-09T08:50:23Z</time>
      </trkpt>
      <trkpt lat="37.320728" lon="-3.128932">
        <ele>945.000000</ele>
        <time>2019-05-09T08:50:23Z</time>
      </trkpt>
      <trkpt lat="37.320717" lon="-3.128922">
        <ele>945.000000</ele>
        <time>2019-05-09T08:50:24Z</time>
      </trkpt>
      <trkpt lat="37.320705" lon="-3.128914">
        <ele>945.000000</ele>
        <time>2019-05-09T08:50:25Z</time>
      </trkpt>
      <trkpt lat="37.320695" lon="-3.128906">
        <ele>945.000000</ele>
        <time>2019-05-09T08:50:26Z</time>
      </trkpt>
      <trkpt lat="37.320682" lon="-3.128895">
        <ele>945.000000</ele>
        <time>2019-05-09T08:50:27Z</time>
      </trkpt>
      <trkpt lat="37.320668" lon="-3.128886">
        <ele>945.000000</ele>
        <time>2019-05-09T08:50:28Z</time>
      </trkpt>
      <trkpt lat="37.320658" lon="-3.128878">
        <ele>945.000000</ele>
        <time>2019-05-09T08:50:29Z</time>
      </trkpt>
      <trkpt lat="37.320647" lon="-3.128869">
        <ele>945.000000</ele>
        <time>2019-05-09T08:50:30Z</time>
      </trkpt>
      <trkpt lat="37.320638" lon="-3.128862">
        <ele>945.000000</ele>
        <time>2019-05-09T08:50:31Z</time>
      </trkpt>
      <trkpt lat="37.320627" lon="-3.128853">
        <ele>945.000000</ele>
        <time>2019-05-09T08:50:32Z</time>
      </trkpt>
      <trkpt lat="37.320613" lon="-3.128843">
        <ele>945.000000</ele>
        <time>2019-05-09T08:50:33Z</time>
      </trkpt>
      <trkpt lat="37.320600" lon="-3.128833">
        <ele>946.000000</ele>
        <time>2019-05-09T08:50:34Z</time>
      </trkpt>
      <trkpt lat="37.320583" lon="-3.128821">
        <ele>946.000000</ele>
        <time>2019-05-09T08:50:35Z</time>
      </trkpt>
      <trkpt lat="37.320570" lon="-3.128812">
        <ele>946.000000</ele>
        <time>2019-05-09T08:50:36Z</time>
      </trkpt>
      <trkpt lat="37.320560" lon="-3.128806">
        <ele>946.000000</ele>
        <time>2019-05-09T08:50:37Z</time>
      </trkpt>
      <trkpt lat="37.320548" lon="-3.128796">
        <ele>946.000000</ele>
        <time>2019-05-09T08:50:38Z</time>
      </trkpt>
      <trkpt lat="37.320538" lon="-3.128789">
        <ele>946.000000</ele>
        <time>2019-05-09T08:50:39Z</time>
      </trkpt>
      <trkpt lat="37.320525" lon="-3.128779">
        <ele>946.000000</ele>
        <time>2019-05-09T08:50:40Z</time>
      </trkpt>
      <trkpt lat="37.320513" lon="-3.128770">
        <ele>946.000000</ele>
        <time>2019-05-09T08:50:41Z</time>
      </trkpt>
      <trkpt lat="37.320500" lon="-3.128759">
        <ele>946.000000</ele>
        <time>2019-05-09T08:50:42Z</time>
      </trkpt>
      <trkpt lat="37.320488" lon="-3.128750">
        <ele>946.000000</ele>
        <time>2019-05-09T08:50:43Z</time>
      </trkpt>
      <trkpt lat="37.320477" lon="-3.128741">
        <ele>946.000000</ele>
        <time>2019-05-09T08:50:44Z</time>
      </trkpt>
      <trkpt lat="37.320465" lon="-3.128732">
        <ele>946.000000</ele>
        <time>2019-05-09T08:50:45Z</time>
      </trkpt>
      <trkpt lat="37.320453" lon="-3.128723">
        <ele>946.000000</ele>
        <time>2019-05-09T08:50:46Z</time>
      </trkpt>
      <trkpt lat="37.320440" lon="-3.128712">
        <ele>946.000000</ele>
        <time>2019-05-09T08:50:48Z</time>
      </trkpt>
      <trkpt lat="37.320425" lon="-3.128701">
        <ele>947.000000</ele>
        <time>2019-05-09T08:50:48Z</time>
      </trkpt>
      <trkpt lat="37.320415" lon="-3.128694">
        <ele>947.000000</ele>
        <time>2019-05-09T08:50:49Z</time>
      </trkpt>
      <trkpt lat="37.320403" lon="-3.128685">
        <ele>947.000000</ele>
        <time>2019-05-09T08:50:50Z</time>
      </trkpt>
      <trkpt lat="37.320392" lon="-3.128675">
        <ele>947.000000</ele>
        <time>2019-05-09T08:50:51Z</time>
      </trkpt>
      <trkpt lat="37.320377" lon="-3.128664">
        <ele>947.000000</ele>
        <time>2019-05-09T08:50:52Z</time>
      </trkpt>
      <trkpt lat="37.320365" lon="-3.128654">
        <ele>947.000000</ele>
        <time>2019-05-09T08:50:53Z</time>
      </trkpt>
      <trkpt lat="37.320357" lon="-3.128648">
        <ele>947.000000</ele>
        <time>2019-05-09T08:50:54Z</time>
      </trkpt>
      <trkpt lat="37.320343" lon="-3.128637">
        <ele>947.000000</ele>
        <time>2019-05-09T08:50:55Z</time>
      </trkpt>
      <trkpt lat="37.320332" lon="-3.128627">
        <ele>947.000000</ele>
        <time>2019-05-09T08:50:56Z</time>
      </trkpt>
      <trkpt lat="37.320320" lon="-3.128618">
        <ele>947.000000</ele>
        <time>2019-05-09T08:50:57Z</time>
      </trkpt>
      <trkpt lat="37.320305" lon="-3.128607">
        <ele>947.000000</ele>
        <time>2019-05-09T08:50:58Z</time>
      </trkpt>
      <trkpt lat="37.320295" lon="-3.128599">
        <ele>947.000000</ele>
        <time>2019-05-09T08:50:59Z</time>
      </trkpt>
      <trkpt lat="37.320285" lon="-3.128591">
        <ele>947.000000</ele>
        <time>2019-05-09T08:51:00Z</time>
      </trkpt>
      <trkpt lat="37.320270" lon="-3.128580">
        <ele>947.000000</ele>
        <time>2019-05-09T08:51:01Z</time>
      </trkpt>
      <trkpt lat="37.320258" lon="-3.128571">
        <ele>947.000000</ele>
        <time>2019-05-09T08:51:02Z</time>
      </trkpt>
      <trkpt lat="37.320245" lon="-3.128561">
        <ele>947.000000</ele>
        <time>2019-05-09T08:51:03Z</time>
      </trkpt>
      <trkpt lat="37.320235" lon="-3.128553">
        <ele>947.000000</ele>
        <time>2019-05-09T08:51:04Z</time>
      </trkpt>
      <trkpt lat="37.320220" lon="-3.128541">
        <ele>947.000000</ele>
        <time>2019-05-09T08:51:05Z</time>
      </trkpt>
      <trkpt lat="37.320207" lon="-3.128531">
        <ele>947.000000</ele>
        <time>2019-05-09T08:51:06Z</time>
      </trkpt>
      <trkpt lat="37.320197" lon="-3.128524">
        <ele>947.000000</ele>
        <time>2019-05-09T08:51:07Z</time>
      </trkpt>
      <trkpt lat="37.320185" lon="-3.128516">
        <ele>947.000000</ele>
        <time>2019-05-09T08:51:08Z</time>
      </trkpt>
      <trkpt lat="37.320173" lon="-3.128507">
        <ele>947.000000</ele>
        <time>2019-05-09T08:51:10Z</time>
      </trkpt>
      <trkpt lat="37.320162" lon="-3.128498">
        <ele>947.000000</ele>
        <time>2019-05-09T08:51:10Z</time>
      </trkpt>
      <trkpt lat="37.320147" lon="-3.128486">
        <ele>947.000000</ele>
        <time>2019-05-09T08:51:11Z</time>
      </trkpt>
      <trkpt lat="37.320133" lon="-3.128478">
        <ele>947.000000</ele>
        <time>2019-05-09T08:51:12Z</time>
      </trkpt>
      <trkpt lat="37.320123" lon="-3.128470">
        <ele>947.000000</ele>
        <time>2019-05-09T08:51:13Z</time>
      </trkpt>
      <trkpt lat="37.320107" lon="-3.128459">
        <ele>947.000000</ele>
        <time>2019-05-09T08:51:14Z</time>
      </trkpt>
      <trkpt lat="37.320093" lon="-3.128449">
        <ele>947.000000</ele>
        <time>2019-05-09T08:51:15Z</time>
      </trkpt>
      <trkpt lat="37.320080" lon="-3.128440">
        <ele>947.000000</ele>
        <time>2019-05-09T08:51:16Z</time>
      </trkpt>
      <trkpt lat="37.320067" lon="-3.128432">
        <ele>947.000000</ele>
        <time>2019-05-09T08:51:17Z</time>
      </trkpt>
      <trkpt lat="37.320053" lon="-3.128423">
        <ele>947.000000</ele>
        <time>2019-05-09T08:51:18Z</time>
      </trkpt>
      <trkpt lat="37.320042" lon="-3.128417">
        <ele>947.000000</ele>
        <time>2019-05-09T08:51:19Z</time>
      </trkpt>
      <trkpt lat="37.320030" lon="-3.128410">
        <ele>947.000000</ele>
        <time>2019-05-09T08:51:20Z</time>
      </trkpt>
      <trkpt lat="37.320018" lon="-3.128403">
        <ele>947.000000</ele>
        <time>2019-05-09T08:51:21Z</time>
      </trkpt>
      <trkpt lat="37.320007" lon="-3.128397">
        <ele>947.000000</ele>
        <time>2019-05-09T08:51:22Z</time>
      </trkpt>
      <trkpt lat="37.319993" lon="-3.128389">
        <ele>947.000000</ele>
        <time>2019-05-09T08:51:23Z</time>
      </trkpt>
      <trkpt lat="37.319978" lon="-3.128382">
        <ele>947.000000</ele>
        <time>2019-05-09T08:51:24Z</time>
      </trkpt>
      <trkpt lat="37.319967" lon="-3.128376">
        <ele>947.000000</ele>
        <time>2019-05-09T08:51:25Z</time>
      </trkpt>
      <trkpt lat="37.319952" lon="-3.128368">
        <ele>947.000000</ele>
        <time>2019-05-09T08:51:26Z</time>
      </trkpt>
      <trkpt lat="37.319938" lon="-3.128363">
        <ele>947.000000</ele>
        <time>2019-05-09T08:51:27Z</time>
      </trkpt>
      <trkpt lat="37.319923" lon="-3.128355">
        <ele>947.000000</ele>
        <time>2019-05-09T08:51:28Z</time>
      </trkpt>
      <trkpt lat="37.319908" lon="-3.128349">
        <ele>947.000000</ele>
        <time>2019-05-09T08:51:29Z</time>
      </trkpt>
      <trkpt lat="37.319893" lon="-3.128341">
        <ele>947.000000</ele>
        <time>2019-05-09T08:51:30Z</time>
      </trkpt>
      <trkpt lat="37.319877" lon="-3.128334">
        <ele>947.000000</ele>
        <time>2019-05-09T08:51:31Z</time>
      </trkpt>
      <trkpt lat="37.319862" lon="-3.128327">
        <ele>947.000000</ele>
        <time>2019-05-09T08:51:32Z</time>
      </trkpt>
      <trkpt lat="37.319847" lon="-3.128322">
        <ele>947.000000</ele>
        <time>2019-05-09T08:51:33Z</time>
      </trkpt>
      <trkpt lat="37.319832" lon="-3.128316">
        <ele>947.000000</ele>
        <time>2019-05-09T08:51:34Z</time>
      </trkpt>
      <trkpt lat="37.319817" lon="-3.128311">
        <ele>947.000000</ele>
        <time>2019-05-09T08:51:36Z</time>
      </trkpt>
      <trkpt lat="37.319805" lon="-3.128306">
        <ele>947.000000</ele>
        <time>2019-05-09T08:51:36Z</time>
      </trkpt>
      <trkpt lat="37.319792" lon="-3.128301">
        <ele>947.000000</ele>
        <time>2019-05-09T08:51:37Z</time>
      </trkpt>
      <trkpt lat="37.319778" lon="-3.128296">
        <ele>947.000000</ele>
        <time>2019-05-09T08:51:38Z</time>
      </trkpt>
      <trkpt lat="37.319765" lon="-3.128291">
        <ele>947.000000</ele>
        <time>2019-05-09T08:51:39Z</time>
      </trkpt>
      <trkpt lat="37.319750" lon="-3.128285">
        <ele>947.000000</ele>
        <time>2019-05-09T08:51:40Z</time>
      </trkpt>
      <trkpt lat="37.319735" lon="-3.128281">
        <ele>947.000000</ele>
        <time>2019-05-09T08:51:41Z</time>
      </trkpt>
      <trkpt lat="37.319723" lon="-3.128277">
        <ele>947.000000</ele>
        <time>2019-05-09T08:51:42Z</time>
      </trkpt>
      <trkpt lat="37.319710" lon="-3.128272">
        <ele>947.000000</ele>
        <time>2019-05-09T08:51:43Z</time>
      </trkpt>
      <trkpt lat="37.319698" lon="-3.128270">
        <ele>947.000000</ele>
        <time>2019-05-09T08:51:44Z</time>
      </trkpt>
      <trkpt lat="37.319683" lon="-3.128266">
        <ele>947.000000</ele>
        <time>2019-05-09T08:51:45Z</time>
      </trkpt>
      <trkpt lat="37.319667" lon="-3.128262">
        <ele>947.000000</ele>
        <time>2019-05-09T08:51:46Z</time>
      </trkpt>
      <trkpt lat="37.319652" lon="-3.128259">
        <ele>947.000000</ele>
        <time>2019-05-09T08:51:47Z</time>
      </trkpt>
      <trkpt lat="37.319640" lon="-3.128257">
        <ele>947.000000</ele>
        <time>2019-05-09T08:51:48Z</time>
      </trkpt>
      <trkpt lat="37.319623" lon="-3.128255">
        <ele>947.000000</ele>
        <time>2019-05-09T08:51:49Z</time>
      </trkpt>
      <trkpt lat="37.319607" lon="-3.128251">
        <ele>947.000000</ele>
        <time>2019-05-09T08:51:50Z</time>
      </trkpt>
      <trkpt lat="37.319593" lon="-3.128248">
        <ele>947.000000</ele>
        <time>2019-05-09T08:51:51Z</time>
      </trkpt>
      <trkpt lat="37.319582" lon="-3.128247">
        <ele>947.000000</ele>
        <time>2019-05-09T08:51:52Z</time>
      </trkpt>
      <trkpt lat="37.319567" lon="-3.128245">
        <ele>947.000000</ele>
        <time>2019-05-09T08:51:53Z</time>
      </trkpt>
      <trkpt lat="37.319557" lon="-3.128243">
        <ele>947.000000</ele>
        <time>2019-05-09T08:51:54Z</time>
      </trkpt>
      <trkpt lat="37.319545" lon="-3.128241">
        <ele>947.000000</ele>
        <time>2019-05-09T08:51:55Z</time>
      </trkpt>
      <trkpt lat="37.319530" lon="-3.128237">
        <ele>947.000000</ele>
        <time>2019-05-09T08:51:57Z</time>
      </trkpt>
      <trkpt lat="37.319517" lon="-3.128234">
        <ele>947.000000</ele>
        <time>2019-05-09T08:51:57Z</time>
      </trkpt>
      <trkpt lat="37.319502" lon="-3.128231">
        <ele>947.000000</ele>
        <time>2019-05-09T08:51:58Z</time>
      </trkpt>
      <trkpt lat="37.319490" lon="-3.128229">
        <ele>947.000000</ele>
        <time>2019-05-09T08:51:59Z</time>
      </trkpt>
      <trkpt lat="37.319470" lon="-3.128226">
        <ele>947.000000</ele>
        <time>2019-05-09T08:52:00Z</time>
      </trkpt>
      <trkpt lat="37.319455" lon="-3.128223">
        <ele>947.000000</ele>
        <time>2019-05-09T08:52:01Z</time>
      </trkpt>
      <trkpt lat="37.319442" lon="-3.128222">
        <ele>947.000000</ele>
        <time>2019-05-09T08:52:02Z</time>
      </trkpt>
      <trkpt lat="37.319427" lon="-3.128220">
        <ele>947.000000</ele>
        <time>2019-05-09T08:52:03Z</time>
      </trkpt>
      <trkpt lat="37.319415" lon="-3.128219">
        <ele>947.000000</ele>
        <time>2019-05-09T08:52:04Z</time>
      </trkpt>
      <trkpt lat="37.319397" lon="-3.128216">
        <ele>947.000000</ele>
        <time>2019-05-09T08:52:05Z</time>
      </trkpt>
      <trkpt lat="37.319382" lon="-3.128214">
        <ele>947.000000</ele>
        <time>2019-05-09T08:52:06Z</time>
      </trkpt>
      <trkpt lat="37.319362" lon="-3.128212">
        <ele>947.000000</ele>
        <time>2019-05-09T08:52:07Z</time>
      </trkpt>
      <trkpt lat="37.319347" lon="-3.128212">
        <ele>947.000000</ele>
        <time>2019-05-09T08:52:08Z</time>
      </trkpt>
      <trkpt lat="37.319335" lon="-3.128211">
        <ele>947.000000</ele>
        <time>2019-05-09T08:52:09Z</time>
      </trkpt>
      <trkpt lat="37.319322" lon="-3.128211">
        <ele>947.000000</ele>
        <time>2019-05-09T08:52:10Z</time>
      </trkpt>
      <trkpt lat="37.319308" lon="-3.128211">
        <ele>947.000000</ele>
        <time>2019-05-09T08:52:11Z</time>
      </trkpt>
      <trkpt lat="37.319297" lon="-3.128211">
        <ele>947.000000</ele>
        <time>2019-05-09T08:52:12Z</time>
      </trkpt>
      <trkpt lat="37.319282" lon="-3.128211">
        <ele>947.000000</ele>
        <time>2019-05-09T08:52:13Z</time>
      </trkpt>
      <trkpt lat="37.319262" lon="-3.128212">
        <ele>947.000000</ele>
        <time>2019-05-09T08:52:14Z</time>
      </trkpt>
      <trkpt lat="37.319247" lon="-3.128265">
        <ele>947.000000</ele>
        <time>2019-05-09T08:52:15Z</time>
      </trkpt>
      <trkpt lat="37.319232" lon="-3.128277">
        <ele>947.000000</ele>
        <time>2019-05-09T08:52:16Z</time>
      </trkpt>
      <trkpt lat="37.319215" lon="-3.128287">
        <ele>947.000000</ele>
        <time>2019-05-09T08:52:17Z</time>
      </trkpt>
      <trkpt lat="37.319203" lon="-3.128293">
        <ele>947.000000</ele>
        <time>2019-05-09T08:52:18Z</time>
      </trkpt>
      <trkpt lat="37.319197" lon="-3.128297">
        <ele>947.000000</ele>
        <time>2019-05-09T08:52:19Z</time>
      </trkpt>
      <trkpt lat="37.319187" lon="-3.128302">
        <ele>947.000000</ele>
        <time>2019-05-09T08:52:20Z</time>
      </trkpt>
      <trkpt lat="37.319182" lon="-3.128306">
        <ele>947.000000</ele>
        <time>2019-05-09T08:52:21Z</time>
      </trkpt>
      <trkpt lat="37.319173" lon="-3.128315">
        <ele>947.000000</ele>
        <time>2019-05-09T08:52:23Z</time>
      </trkpt>
      <trkpt lat="37.319167" lon="-3.128332">
        <ele>947.000000</ele>
        <time>2019-05-09T08:52:23Z</time>
      </trkpt>
      <trkpt lat="37.319160" lon="-3.128343">
        <ele>947.000000</ele>
        <time>2019-05-09T08:52:24Z</time>
      </trkpt>
      <trkpt lat="37.319152" lon="-3.128358">
        <ele>947.000000</ele>
        <time>2019-05-09T08:52:25Z</time>
      </trkpt>
      <trkpt lat="37.319145" lon="-3.128368">
        <ele>947.000000</ele>
        <time>2019-05-09T08:52:26Z</time>
      </trkpt>
      <trkpt lat="37.319137" lon="-3.128387">
        <ele>947.000000</ele>
        <time>2019-05-09T08:52:27Z</time>
      </trkpt>
      <trkpt lat="37.319131" lon="-3.128405">
        <ele>947.000000</ele>
        <time>2019-05-09T08:52:28Z</time>
      </trkpt>
      <trkpt lat="37.319128" lon="-3.128422">
        <ele>947.000000</ele>
        <time>2019-05-09T08:52:29Z</time>
      </trkpt>
      <trkpt lat="37.319125" lon="-3.128440">
        <ele>947.000000</ele>
        <time>2019-05-09T08:52:30Z</time>
      </trkpt>
      <trkpt lat="37.319122" lon="-3.128455">
        <ele>947.000000</ele>
        <time>2019-05-09T08:52:31Z</time>
      </trkpt>
      <trkpt lat="37.319118" lon="-3.128472">
        <ele>947.000000</ele>
        <time>2019-05-09T08:52:32Z</time>
      </trkpt>
      <trkpt lat="37.319115" lon="-3.128488">
        <ele>947.000000</ele>
        <time>2019-05-09T08:52:33Z</time>
      </trkpt>
      <trkpt lat="37.319113" lon="-3.128503">
        <ele>947.000000</ele>
        <time>2019-05-09T08:52:34Z</time>
      </trkpt>
      <trkpt lat="37.319112" lon="-3.128523">
        <ele>947.000000</ele>
        <time>2019-05-09T08:52:35Z</time>
      </trkpt>
      <trkpt lat="37.319111" lon="-3.128542">
        <ele>947.000000</ele>
        <time>2019-05-09T08:52:36Z</time>
      </trkpt>
      <trkpt lat="37.319111" lon="-3.128563">
        <ele>947.000000</ele>
        <time>2019-05-09T08:52:37Z</time>
      </trkpt>
      <trkpt lat="37.319111" lon="-3.128578">
        <ele>947.000000</ele>
        <time>2019-05-09T08:52:38Z</time>
      </trkpt>
      <trkpt lat="37.319113" lon="-3.128598">
        <ele>947.000000</ele>
        <time>2019-05-09T08:52:39Z</time>
      </trkpt>
      <trkpt lat="37.319114" lon="-3.128617">
        <ele>946.000000</ele>
        <time>2019-05-09T08:52:40Z</time>
      </trkpt>
      <trkpt lat="37.319115" lon="-3.128633">
        <ele>946.000000</ele>
        <time>2019-05-09T08:52:41Z</time>
      </trkpt>
      <trkpt lat="37.319116" lon="-3.128650">
        <ele>946.000000</ele>
        <time>2019-05-09T08:52:42Z</time>
      </trkpt>
      <trkpt lat="37.319116" lon="-3.128670">
        <ele>946.000000</ele>
        <time>2019-05-09T08:52:43Z</time>
      </trkpt>
      <trkpt lat="37.319118" lon="-3.128688">
        <ele>946.000000</ele>
        <time>2019-05-09T08:52:44Z</time>
      </trkpt>
      <trkpt lat="37.319119" lon="-3.128707">
        <ele>946.000000</ele>
        <time>2019-05-09T08:52:45Z</time>
      </trkpt>
      <trkpt lat="37.319119" lon="-3.128725">
        <ele>946.000000</ele>
        <time>2019-05-09T08:52:46Z</time>
      </trkpt>
      <trkpt lat="37.319118" lon="-3.128738">
        <ele>946.000000</ele>
        <time>2019-05-09T08:52:48Z</time>
      </trkpt>
      <trkpt lat="37.319118" lon="-3.128755">
        <ele>946.000000</ele>
        <time>2019-05-09T08:52:48Z</time>
      </trkpt>
      <trkpt lat="37.319117" lon="-3.128767">
        <ele>945.000000</ele>
        <time>2019-05-09T08:52:49Z</time>
      </trkpt>
      <trkpt lat="37.319116" lon="-3.128783">
        <ele>945.000000</ele>
        <time>2019-05-09T08:52:50Z</time>
      </trkpt>
      <trkpt lat="37.319115" lon="-3.128807">
        <ele>945.000000</ele>
        <time>2019-05-09T08:52:51Z</time>
      </trkpt>
      <trkpt lat="37.319113" lon="-3.128825">
        <ele>945.000000</ele>
        <time>2019-05-09T08:52:52Z</time>
      </trkpt>
      <trkpt lat="37.319112" lon="-3.128845">
        <ele>945.000000</ele>
        <time>2019-05-09T08:52:53Z</time>
      </trkpt>
      <trkpt lat="37.319110" lon="-3.128863">
        <ele>945.000000</ele>
        <time>2019-05-09T08:52:54Z</time>
      </trkpt>
      <trkpt lat="37.319109" lon="-3.128883">
        <ele>945.000000</ele>
        <time>2019-05-09T08:52:55Z</time>
      </trkpt>
      <trkpt lat="37.319107" lon="-3.128902">
        <ele>945.000000</ele>
        <time>2019-05-09T08:52:56Z</time>
      </trkpt>
      <trkpt lat="37.319106" lon="-3.128917">
        <ele>945.000000</ele>
        <time>2019-05-09T08:52:57Z</time>
      </trkpt>
      <trkpt lat="37.319105" lon="-3.128935">
        <ele>945.000000</ele>
        <time>2019-05-09T08:52:58Z</time>
      </trkpt>
      <trkpt lat="37.319104" lon="-3.128953">
        <ele>945.000000</ele>
        <time>2019-05-09T08:52:59Z</time>
      </trkpt>
      <trkpt lat="37.319103" lon="-3.128967">
        <ele>945.000000</ele>
        <time>2019-05-09T08:53:00Z</time>
      </trkpt>
      <trkpt lat="37.319102" lon="-3.128990">
        <ele>945.000000</ele>
        <time>2019-05-09T08:53:01Z</time>
      </trkpt>
      <trkpt lat="37.319101" lon="-3.129007">
        <ele>945.000000</ele>
        <time>2019-05-09T08:53:02Z</time>
      </trkpt>
      <trkpt lat="37.319099" lon="-3.129030">
        <ele>944.000000</ele>
        <time>2019-05-09T08:53:03Z</time>
      </trkpt>
      <trkpt lat="37.319098" lon="-3.129047">
        <ele>944.000000</ele>
        <time>2019-05-09T08:53:04Z</time>
      </trkpt>
      <trkpt lat="37.319097" lon="-3.129068">
        <ele>944.000000</ele>
        <time>2019-05-09T08:53:05Z</time>
      </trkpt>
      <trkpt lat="37.319096" lon="-3.129087">
        <ele>944.000000</ele>
        <time>2019-05-09T08:53:06Z</time>
      </trkpt>
      <trkpt lat="37.319095" lon="-3.129105">
        <ele>944.000000</ele>
        <time>2019-05-09T08:53:07Z</time>
      </trkpt>
      <trkpt lat="37.319093" lon="-3.129123">
        <ele>944.000000</ele>
        <time>2019-05-09T08:53:09Z</time>
      </trkpt>
      <trkpt lat="37.319092" lon="-3.129138">
        <ele>944.000000</ele>
        <time>2019-05-09T08:53:09Z</time>
      </trkpt>
      <trkpt lat="37.319091" lon="-3.129153">
        <ele>943.000000</ele>
        <time>2019-05-09T08:53:10Z</time>
      </trkpt>
      <trkpt lat="37.319090" lon="-3.129173">
        <ele>943.000000</ele>
        <time>2019-05-09T08:53:11Z</time>
      </trkpt>
      <trkpt lat="37.319089" lon="-3.129193">
        <ele>943.000000</ele>
        <time>2019-05-09T08:53:12Z</time>
      </trkpt>
      <trkpt lat="37.319086" lon="-3.129213">
        <ele>943.000000</ele>
        <time>2019-05-09T08:53:13Z</time>
      </trkpt>
      <trkpt lat="37.319085" lon="-3.129228">
        <ele>943.000000</ele>
        <time>2019-05-09T08:53:14Z</time>
      </trkpt>
      <trkpt lat="37.319084" lon="-3.129248">
        <ele>943.000000</ele>
        <time>2019-05-09T08:53:15Z</time>
      </trkpt>
      <trkpt lat="37.319081" lon="-3.129263">
        <ele>942.000000</ele>
        <time>2019-05-09T08:53:16Z</time>
      </trkpt>
      <trkpt lat="37.319080" lon="-3.129283">
        <ele>942.000000</ele>
        <time>2019-05-09T08:53:17Z</time>
      </trkpt>
      <trkpt lat="37.319077" lon="-3.129305">
        <ele>942.000000</ele>
        <time>2019-05-09T08:53:18Z</time>
      </trkpt>
      <trkpt lat="37.319076" lon="-3.129317">
        <ele>942.000000</ele>
        <time>2019-05-09T08:53:19Z</time>
      </trkpt>
      <trkpt lat="37.319073" lon="-3.129333">
        <ele>942.000000</ele>
        <time>2019-05-09T08:53:20Z</time>
      </trkpt>
      <trkpt lat="37.319070" lon="-3.129347">
        <ele>942.000000</ele>
        <time>2019-05-09T08:53:21Z</time>
      </trkpt>
      <trkpt lat="37.319067" lon="-3.129360">
        <ele>942.000000</ele>
        <time>2019-05-09T08:53:22Z</time>
      </trkpt>
      <trkpt lat="37.319062" lon="-3.129377">
        <ele>941.000000</ele>
        <time>2019-05-09T08:53:23Z</time>
      </trkpt>
      <trkpt lat="37.319059" lon="-3.129395">
        <ele>941.000000</ele>
        <time>2019-05-09T08:53:24Z</time>
      </trkpt>
      <trkpt lat="37.319055" lon="-3.129413">
        <ele>941.000000</ele>
        <time>2019-05-09T08:53:25Z</time>
      </trkpt>
      <trkpt lat="37.319050" lon="-3.129430">
        <ele>941.000000</ele>
        <time>2019-05-09T08:53:26Z</time>
      </trkpt>
      <trkpt lat="37.319047" lon="-3.129452">
        <ele>941.000000</ele>
        <time>2019-05-09T08:53:27Z</time>
      </trkpt>
      <trkpt lat="37.319043" lon="-3.129475">
        <ele>941.000000</ele>
        <time>2019-05-09T08:53:28Z</time>
      </trkpt>
      <trkpt lat="37.319038" lon="-3.129498">
        <ele>941.000000</ele>
        <time>2019-05-09T08:53:29Z</time>
      </trkpt>
      <trkpt lat="37.319035" lon="-3.129517">
        <ele>941.000000</ele>
        <time>2019-05-09T08:53:30Z</time>
      </trkpt>
      <trkpt lat="37.319031" lon="-3.129532">
        <ele>940.000000</ele>
        <time>2019-05-09T08:53:31Z</time>
      </trkpt>
      <trkpt lat="37.319027" lon="-3.129548">
        <ele>940.000000</ele>
        <time>2019-05-09T08:53:32Z</time>
      </trkpt>
      <trkpt lat="37.319023" lon="-3.129573">
        <ele>940.000000</ele>
        <time>2019-05-09T08:53:33Z</time>
      </trkpt>
      <trkpt lat="37.319019" lon="-3.129588">
        <ele>940.000000</ele>
        <time>2019-05-09T08:53:33Z</time>
      </trkpt>
      <trkpt lat="37.319017" lon="-3.129608">
        <ele>939.000000</ele>
        <time>2019-05-09T08:53:33Z</time>
      </trkpt>
      <trkpt lat="37.319012" lon="-3.129627">
        <ele>939.000000</ele>
        <time>2019-05-09T08:53:34Z</time>
      </trkpt>
      <trkpt lat="37.319008" lon="-3.129643">
        <ele>939.000000</ele>
        <time>2019-05-09T08:53:35Z</time>
      </trkpt>
      <trkpt lat="37.319006" lon="-3.129660">
        <ele>939.000000</ele>
        <time>2019-05-09T08:53:36Z</time>
      </trkpt>
      <trkpt lat="37.319002" lon="-3.129683">
        <ele>939.000000</ele>
        <time>2019-05-09T08:53:37Z</time>
      </trkpt>
      <trkpt lat="37.318998" lon="-3.129698">
        <ele>939.000000</ele>
        <time>2019-05-09T08:53:38Z</time>
      </trkpt>
      <trkpt lat="37.318994" lon="-3.129715">
        <ele>939.000000</ele>
        <time>2019-05-09T08:53:39Z</time>
      </trkpt>
      <trkpt lat="37.318989" lon="-3.129737">
        <ele>939.000000</ele>
        <time>2019-05-09T08:53:40Z</time>
      </trkpt>
      <trkpt lat="37.318986" lon="-3.129762">
        <ele>939.000000</ele>
        <time>2019-05-09T08:53:41Z</time>
      </trkpt>
      <trkpt lat="37.318981" lon="-3.129782">
        <ele>939.000000</ele>
        <time>2019-05-09T08:53:42Z</time>
      </trkpt>
      <trkpt lat="37.318976" lon="-3.129803">
        <ele>939.000000</ele>
        <time>2019-05-09T08:53:43Z</time>
      </trkpt>
      <trkpt lat="37.318973" lon="-3.129823">
        <ele>939.000000</ele>
        <time>2019-05-09T08:53:44Z</time>
      </trkpt>
      <trkpt lat="37.318968" lon="-3.129845">
        <ele>939.000000</ele>
        <time>2019-05-09T08:53:45Z</time>
      </trkpt>
      <trkpt lat="37.318966" lon="-3.129862">
        <ele>939.000000</ele>
        <time>2019-05-09T08:53:46Z</time>
      </trkpt>
      <trkpt lat="37.318961" lon="-3.129882">
        <ele>939.000000</ele>
        <time>2019-05-09T08:53:47Z</time>
      </trkpt>
      <trkpt lat="37.318957" lon="-3.129907">
        <ele>939.000000</ele>
        <time>2019-05-09T08:53:48Z</time>
      </trkpt>
      <trkpt lat="37.318954" lon="-3.129927">
        <ele>939.000000</ele>
        <time>2019-05-09T08:53:49Z</time>
      </trkpt>
      <trkpt lat="37.318950" lon="-3.129945">
        <ele>939.000000</ele>
        <time>2019-05-09T08:53:50Z</time>
      </trkpt>
      <trkpt lat="37.318947" lon="-3.129963">
        <ele>939.000000</ele>
        <time>2019-05-09T08:53:51Z</time>
      </trkpt>
      <trkpt lat="37.318943" lon="-3.129987">
        <ele>939.000000</ele>
        <time>2019-05-09T08:53:52Z</time>
      </trkpt>
      <trkpt lat="37.318940" lon="-3.130005">
        <ele>939.000000</ele>
        <time>2019-05-09T08:53:54Z</time>
      </trkpt>
      <trkpt lat="37.318937" lon="-3.130020">
        <ele>939.000000</ele>
        <time>2019-05-09T08:53:54Z</time>
      </trkpt>
      <trkpt lat="37.318934" lon="-3.130040">
        <ele>939.000000</ele>
        <time>2019-05-09T08:53:55Z</time>
      </trkpt>
      <trkpt lat="37.318931" lon="-3.130057">
        <ele>939.000000</ele>
        <time>2019-05-09T08:53:56Z</time>
      </trkpt>
      <trkpt lat="37.318928" lon="-3.130075">
        <ele>939.000000</ele>
        <time>2019-05-09T08:53:57Z</time>
      </trkpt>
      <trkpt lat="37.318928" lon="-3.130092">
        <ele>938.000000</ele>
        <time>2019-05-09T08:53:58Z</time>
      </trkpt>
      <trkpt lat="37.318925" lon="-3.130107">
        <ele>938.000000</ele>
        <time>2019-05-09T08:53:59Z</time>
      </trkpt>
      <trkpt lat="37.318924" lon="-3.130123">
        <ele>938.000000</ele>
        <time>2019-05-09T08:54:00Z</time>
      </trkpt>
      <trkpt lat="37.318921" lon="-3.130142">
        <ele>938.000000</ele>
        <time>2019-05-09T08:54:01Z</time>
      </trkpt>
      <trkpt lat="37.318920" lon="-3.130160">
        <ele>938.000000</ele>
        <time>2019-05-09T08:54:02Z</time>
      </trkpt>
      <trkpt lat="37.318918" lon="-3.130183">
        <ele>938.000000</ele>
        <time>2019-05-09T08:54:03Z</time>
      </trkpt>
      <trkpt lat="37.318915" lon="-3.130202">
        <ele>938.000000</ele>
        <time>2019-05-09T08:54:04Z</time>
      </trkpt>
      <trkpt lat="37.318914" lon="-3.130223">
        <ele>938.000000</ele>
        <time>2019-05-09T08:54:05Z</time>
      </trkpt>
      <trkpt lat="37.318913" lon="-3.130240">
        <ele>938.000000</ele>
        <time>2019-05-09T08:54:06Z</time>
      </trkpt>
      <trkpt lat="37.318911" lon="-3.130250">
        <ele>937.000000</ele>
        <time>2019-05-09T08:54:07Z</time>
      </trkpt>
      <trkpt lat="37.318910" lon="-3.130272">
        <ele>937.000000</ele>
        <time>2019-05-09T08:54:08Z</time>
      </trkpt>
      <trkpt lat="37.318908" lon="-3.130285">
        <ele>937.000000</ele>
        <time>2019-05-09T08:54:09Z</time>
      </trkpt>
      <trkpt lat="37.318907" lon="-3.130307">
        <ele>937.000000</ele>
        <time>2019-05-09T08:54:10Z</time>
      </trkpt>
      <trkpt lat="37.318905" lon="-3.130328">
        <ele>937.000000</ele>
        <time>2019-05-09T08:54:11Z</time>
      </trkpt>
      <trkpt lat="37.318904" lon="-3.130343">
        <ele>937.000000</ele>
        <time>2019-05-09T08:54:12Z</time>
      </trkpt>
      <trkpt lat="37.318902" lon="-3.130365">
        <ele>937.000000</ele>
        <time>2019-05-09T08:54:13Z</time>
      </trkpt>
      <trkpt lat="37.318901" lon="-3.130385">
        <ele>937.000000</ele>
        <time>2019-05-09T08:54:14Z</time>
      </trkpt>
      <trkpt lat="37.318899" lon="-3.130402">
        <ele>937.000000</ele>
        <time>2019-05-09T08:54:15Z</time>
      </trkpt>
      <trkpt lat="37.318899" lon="-3.130417">
        <ele>937.000000</ele>
        <time>2019-05-09T08:54:16Z</time>
      </trkpt>
      <trkpt lat="37.318897" lon="-3.130427">
        <ele>937.000000</ele>
        <time>2019-05-09T08:54:17Z</time>
      </trkpt>
      <trkpt lat="37.318897" lon="-3.130443">
        <ele>937.000000</ele>
        <time>2019-05-09T08:54:19Z</time>
      </trkpt>
      <trkpt lat="37.318894" lon="-3.130462">
        <ele>936.000000</ele>
        <time>2019-05-09T08:54:19Z</time>
      </trkpt>
      <trkpt lat="37.318892" lon="-3.130477">
        <ele>936.000000</ele>
        <time>2019-05-09T08:54:20Z</time>
      </trkpt>
      <trkpt lat="37.318890" lon="-3.130498">
        <ele>936.000000</ele>
        <time>2019-05-09T08:54:21Z</time>
      </trkpt>
      <trkpt lat="37.318889" lon="-3.130515">
        <ele>936.000000</ele>
        <time>2019-05-09T08:54:22Z</time>
      </trkpt>
      <trkpt lat="37.318887" lon="-3.130537">
        <ele>936.000000</ele>
        <time>2019-05-09T08:54:23Z</time>
      </trkpt>
      <trkpt lat="37.318887" lon="-3.130552">
        <ele>936.000000</ele>
        <time>2019-05-09T08:54:24Z</time>
      </trkpt>
      <trkpt lat="37.318885" lon="-3.130568">
        <ele>936.000000</ele>
        <time>2019-05-09T08:54:25Z</time>
      </trkpt>
      <trkpt lat="37.318885" lon="-3.130585">
        <ele>936.000000</ele>
        <time>2019-05-09T08:54:26Z</time>
      </trkpt>
      <trkpt lat="37.318885" lon="-3.130600">
        <ele>936.000000</ele>
        <time>2019-05-09T08:54:27Z</time>
      </trkpt>
      <trkpt lat="37.318882" lon="-3.130620">
        <ele>936.000000</ele>
        <time>2019-05-09T08:54:28Z</time>
      </trkpt>
      <trkpt lat="37.318880" lon="-3.130640">
        <ele>936.000000</ele>
        <time>2019-05-09T08:54:29Z</time>
      </trkpt>
      <trkpt lat="37.318879" lon="-3.130663">
        <ele>936.000000</ele>
        <time>2019-05-09T08:54:30Z</time>
      </trkpt>
      <trkpt lat="37.318877" lon="-3.130680">
        <ele>936.000000</ele>
        <time>2019-05-09T08:54:31Z</time>
      </trkpt>
      <trkpt lat="37.318877" lon="-3.130702">
        <ele>936.000000</ele>
        <time>2019-05-09T08:54:32Z</time>
      </trkpt>
      <trkpt lat="37.318874" lon="-3.130723">
        <ele>936.000000</ele>
        <time>2019-05-09T08:54:33Z</time>
      </trkpt>
      <trkpt lat="37.318871" lon="-3.130748">
        <ele>935.000000</ele>
        <time>2019-05-09T08:54:34Z</time>
      </trkpt>
      <trkpt lat="37.318869" lon="-3.130772">
        <ele>935.000000</ele>
        <time>2019-05-09T08:54:35Z</time>
      </trkpt>
      <trkpt lat="37.318868" lon="-3.130795">
        <ele>935.000000</ele>
        <time>2019-05-09T08:54:36Z</time>
      </trkpt>
      <trkpt lat="37.318866" lon="-3.130817">
        <ele>935.000000</ele>
        <time>2019-05-09T08:54:37Z</time>
      </trkpt>
      <trkpt lat="37.318864" lon="-3.130837">
        <ele>935.000000</ele>
        <time>2019-05-09T08:54:38Z</time>
      </trkpt>
      <trkpt lat="37.318862" lon="-3.130858">
        <ele>935.000000</ele>
        <time>2019-05-09T08:54:39Z</time>
      </trkpt>
      <trkpt lat="37.318859" lon="-3.130873">
        <ele>935.000000</ele>
        <time>2019-05-09T08:54:40Z</time>
      </trkpt>
      <trkpt lat="37.318856" lon="-3.130898">
        <ele>935.000000</ele>
        <time>2019-05-09T08:54:41Z</time>
      </trkpt>
      <trkpt lat="37.318854" lon="-3.130918">
        <ele>935.000000</ele>
        <time>2019-05-09T08:54:42Z</time>
      </trkpt>
      <trkpt lat="37.318852" lon="-3.130942">
        <ele>934.000000</ele>
        <time>2019-05-09T08:54:43Z</time>
      </trkpt>
      <trkpt lat="37.318848" lon="-3.130958">
        <ele>934.000000</ele>
        <time>2019-05-09T08:54:44Z</time>
      </trkpt>
      <trkpt lat="37.318845" lon="-3.130982">
        <ele>934.000000</ele>
        <time>2019-05-09T08:54:45Z</time>
      </trkpt>
      <trkpt lat="37.318843" lon="-3.131008">
        <ele>934.000000</ele>
        <time>2019-05-09T08:54:46Z</time>
      </trkpt>
      <trkpt lat="37.318838" lon="-3.131032">
        <ele>934.000000</ele>
        <time>2019-05-09T08:54:47Z</time>
      </trkpt>
      <trkpt lat="37.318836" lon="-3.131052">
        <ele>934.000000</ele>
        <time>2019-05-09T08:54:48Z</time>
      </trkpt>
      <trkpt lat="37.318835" lon="-3.131067">
        <ele>934.000000</ele>
        <time>2019-05-09T08:54:49Z</time>
      </trkpt>
      <trkpt lat="37.318833" lon="-3.131085">
        <ele>934.000000</ele>
        <time>2019-05-09T08:54:50Z</time>
      </trkpt>
      <trkpt lat="37.318830" lon="-3.131108">
        <ele>934.000000</ele>
        <time>2019-05-09T08:54:51Z</time>
      </trkpt>
      <trkpt lat="37.318829" lon="-3.131123">
        <ele>934.000000</ele>
        <time>2019-05-09T08:54:52Z</time>
      </trkpt>
      <trkpt lat="37.318827" lon="-3.131143">
        <ele>934.000000</ele>
        <time>2019-05-09T08:54:53Z</time>
      </trkpt>
      <trkpt lat="37.318825" lon="-3.131160">
        <ele>933.000000</ele>
        <time>2019-05-09T08:54:54Z</time>
      </trkpt>
      <trkpt lat="37.318823" lon="-3.131178">
        <ele>933.000000</ele>
        <time>2019-05-09T08:54:55Z</time>
      </trkpt>
      <trkpt lat="37.318821" lon="-3.131198">
        <ele>933.000000</ele>
        <time>2019-05-09T08:54:56Z</time>
      </trkpt>
      <trkpt lat="37.318820" lon="-3.131218">
        <ele>933.000000</ele>
        <time>2019-05-09T08:54:57Z</time>
      </trkpt>
      <trkpt lat="37.318818" lon="-3.131237">
        <ele>933.000000</ele>
        <time>2019-05-09T08:54:58Z</time>
      </trkpt>
      <trkpt lat="37.318817" lon="-3.131260">
        <ele>933.000000</ele>
        <time>2019-05-09T08:54:59Z</time>
      </trkpt>
      <trkpt lat="37.318815" lon="-3.131278">
        <ele>933.000000</ele>
        <time>2019-05-09T08:55:00Z</time>
      </trkpt>
      <trkpt lat="37.318814" lon="-3.131297">
        <ele>933.000000</ele>
        <time>2019-05-09T08:55:01Z</time>
      </trkpt>
      <trkpt lat="37.318812" lon="-3.131317">
        <ele>933.000000</ele>
        <time>2019-05-09T08:55:02Z</time>
      </trkpt>
      <trkpt lat="37.318811" lon="-3.131338">
        <ele>933.000000</ele>
        <time>2019-05-09T08:55:03Z</time>
      </trkpt>
      <trkpt lat="37.318810" lon="-3.131360">
        <ele>933.000000</ele>
        <time>2019-05-09T08:55:04Z</time>
      </trkpt>
      <trkpt lat="37.318807" lon="-3.131385">
        <ele>933.000000</ele>
        <time>2019-05-09T08:55:06Z</time>
      </trkpt>
      <trkpt lat="37.318807" lon="-3.131402">
        <ele>933.000000</ele>
        <time>2019-05-09T08:55:06Z</time>
      </trkpt>
      <trkpt lat="37.318805" lon="-3.131425">
        <ele>933.000000</ele>
        <time>2019-05-09T08:55:07Z</time>
      </trkpt>
      <trkpt lat="37.318803" lon="-3.131448">
        <ele>933.000000</ele>
        <time>2019-05-09T08:55:08Z</time>
      </trkpt>
      <trkpt lat="37.318801" lon="-3.131467">
        <ele>932.000000</ele>
        <time>2019-05-09T08:55:09Z</time>
      </trkpt>
      <trkpt lat="37.318799" lon="-3.131483">
        <ele>932.000000</ele>
        <time>2019-05-09T08:55:10Z</time>
      </trkpt>
      <trkpt lat="37.318798" lon="-3.131498">
        <ele>932.000000</ele>
        <time>2019-05-09T08:55:11Z</time>
      </trkpt>
      <trkpt lat="37.318796" lon="-3.131518">
        <ele>932.000000</ele>
        <time>2019-05-09T08:55:12Z</time>
      </trkpt>
      <trkpt lat="37.318794" lon="-3.131538">
        <ele>932.000000</ele>
        <time>2019-05-09T08:55:13Z</time>
      </trkpt>
      <trkpt lat="37.318792" lon="-3.131558">
        <ele>932.000000</ele>
        <time>2019-05-09T08:55:14Z</time>
      </trkpt>
      <trkpt lat="37.318791" lon="-3.131578">
        <ele>932.000000</ele>
        <time>2019-05-09T08:55:15Z</time>
      </trkpt>
      <trkpt lat="37.318791" lon="-3.131593">
        <ele>932.000000</ele>
        <time>2019-05-09T08:55:16Z</time>
      </trkpt>
      <trkpt lat="37.318789" lon="-3.131612">
        <ele>931.000000</ele>
        <time>2019-05-09T08:55:17Z</time>
      </trkpt>
      <trkpt lat="37.318787" lon="-3.131630">
        <ele>931.000000</ele>
        <time>2019-05-09T08:55:18Z</time>
      </trkpt>
      <trkpt lat="37.318788" lon="-3.131647">
        <ele>931.000000</ele>
        <time>2019-05-09T08:55:19Z</time>
      </trkpt>
      <trkpt lat="37.318786" lon="-3.131662">
        <ele>931.000000</ele>
        <time>2019-05-09T08:55:20Z</time>
      </trkpt>
      <trkpt lat="37.318784" lon="-3.131678">
        <ele>931.000000</ele>
        <time>2019-05-09T08:55:21Z</time>
      </trkpt>
      <trkpt lat="37.318782" lon="-3.131695">
        <ele>931.000000</ele>
        <time>2019-05-09T08:55:22Z</time>
      </trkpt>
      <trkpt lat="37.318781" lon="-3.131715">
        <ele>931.000000</ele>
        <time>2019-05-09T08:55:23Z</time>
      </trkpt>
      <trkpt lat="37.318779" lon="-3.131732">
        <ele>931.000000</ele>
        <time>2019-05-09T08:55:24Z</time>
      </trkpt>
      <trkpt lat="37.318777" lon="-3.131747">
        <ele>931.000000</ele>
        <time>2019-05-09T08:55:25Z</time>
      </trkpt>
      <trkpt lat="37.318775" lon="-3.131772">
        <ele>931.000000</ele>
        <time>2019-05-09T08:55:26Z</time>
      </trkpt>
      <trkpt lat="37.318773" lon="-3.131792">
        <ele>931.000000</ele>
        <time>2019-05-09T08:55:27Z</time>
      </trkpt>
      <trkpt lat="37.318769" lon="-3.131813">
        <ele>931.000000</ele>
        <time>2019-05-09T08:55:28Z</time>
      </trkpt>
      <trkpt lat="37.318766" lon="-3.131837">
        <ele>931.000000</ele>
        <time>2019-05-09T08:55:29Z</time>
      </trkpt>
      <trkpt lat="37.318762" lon="-3.131853">
        <ele>931.000000</ele>
        <time>2019-05-09T08:55:31Z</time>
      </trkpt>
      <trkpt lat="37.318708" lon="-3.131858">
        <ele>930.000000</ele>
        <time>2019-05-09T08:55:31Z</time>
      </trkpt>
      <trkpt lat="37.318688" lon="-3.131862">
        <ele>930.000000</ele>
        <time>2019-05-09T08:55:32Z</time>
      </trkpt>
      <trkpt lat="37.318667" lon="-3.131862">
        <ele>930.000000</ele>
        <time>2019-05-09T08:55:33Z</time>
      </trkpt>
      <trkpt lat="37.318650" lon="-3.131855">
        <ele>930.000000</ele>
        <time>2019-05-09T08:55:34Z</time>
      </trkpt>
      <trkpt lat="37.318632" lon="-3.131848">
        <ele>929.000000</ele>
        <time>2019-05-09T08:55:35Z</time>
      </trkpt>
      <trkpt lat="37.318615" lon="-3.131838">
        <ele>929.000000</ele>
        <time>2019-05-09T08:55:36Z</time>
      </trkpt>
      <trkpt lat="37.318600" lon="-3.131827">
        <ele>929.000000</ele>
        <time>2019-05-09T08:55:37Z</time>
      </trkpt>
      <trkpt lat="37.318583" lon="-3.131817">
        <ele>929.000000</ele>
        <time>2019-05-09T08:55:38Z</time>
      </trkpt>
      <trkpt lat="37.318567" lon="-3.131807">
        <ele>929.000000</ele>
        <time>2019-05-09T08:55:39Z</time>
      </trkpt>
      <trkpt lat="37.318555" lon="-3.131797">
        <ele>929.000000</ele>
        <time>2019-05-09T08:55:40Z</time>
      </trkpt>
      <trkpt lat="37.318542" lon="-3.131792">
        <ele>929.000000</ele>
        <time>2019-05-09T08:55:41Z</time>
      </trkpt>
      <trkpt lat="37.318530" lon="-3.131785">
        <ele>929.000000</ele>
        <time>2019-05-09T08:55:42Z</time>
      </trkpt>
      <trkpt lat="37.318517" lon="-3.131777">
        <ele>929.000000</ele>
        <time>2019-05-09T08:55:43Z</time>
      </trkpt>
      <trkpt lat="37.318502" lon="-3.131768">
        <ele>929.000000</ele>
        <time>2019-05-09T08:55:44Z</time>
      </trkpt>
      <trkpt lat="37.318488" lon="-3.131760">
        <ele>929.000000</ele>
        <time>2019-05-09T08:55:45Z</time>
      </trkpt>
      <trkpt lat="37.318472" lon="-3.131751">
        <ele>929.000000</ele>
        <time>2019-05-09T08:55:46Z</time>
      </trkpt>
      <trkpt lat="37.318458" lon="-3.131745">
        <ele>929.000000</ele>
        <time>2019-05-09T08:55:47Z</time>
      </trkpt>
      <trkpt lat="37.318445" lon="-3.131739">
        <ele>929.000000</ele>
        <time>2019-05-09T08:55:48Z</time>
      </trkpt>
      <trkpt lat="37.318430" lon="-3.131732">
        <ele>929.000000</ele>
        <time>2019-05-09T08:55:49Z</time>
      </trkpt>
      <trkpt lat="37.318413" lon="-3.131725">
        <ele>929.000000</ele>
        <time>2019-05-09T08:55:50Z</time>
      </trkpt>
      <trkpt lat="37.318400" lon="-3.131718">
        <ele>929.000000</ele>
        <time>2019-05-09T08:55:51Z</time>
      </trkpt>
      <trkpt lat="37.318388" lon="-3.131710">
        <ele>929.000000</ele>
        <time>2019-05-09T08:55:52Z</time>
      </trkpt>
      <trkpt lat="37.318375" lon="-3.131701">
        <ele>929.000000</ele>
        <time>2019-05-09T08:55:54Z</time>
      </trkpt>
      <trkpt lat="37.318360" lon="-3.131691">
        <ele>929.000000</ele>
        <time>2019-05-09T08:55:54Z</time>
      </trkpt>
      <trkpt lat="37.318338" lon="-3.131679">
        <ele>929.000000</ele>
        <time>2019-05-09T08:55:55Z</time>
      </trkpt>
      <trkpt lat="37.318323" lon="-3.131671">
        <ele>929.000000</ele>
        <time>2019-05-09T08:55:56Z</time>
      </trkpt>
      <trkpt lat="37.318307" lon="-3.131663">
        <ele>929.000000</ele>
        <time>2019-05-09T08:55:57Z</time>
      </trkpt>
      <trkpt lat="37.318293" lon="-3.131656">
        <ele>929.000000</ele>
        <time>2019-05-09T08:55:58Z</time>
      </trkpt>
      <trkpt lat="37.318280" lon="-3.131649">
        <ele>929.000000</ele>
        <time>2019-05-09T08:55:59Z</time>
      </trkpt>
      <trkpt lat="37.318265" lon="-3.131641">
        <ele>929.000000</ele>
        <time>2019-05-09T08:56:00Z</time>
      </trkpt>
      <trkpt lat="37.318245" lon="-3.131630">
        <ele>929.000000</ele>
        <time>2019-05-09T08:56:01Z</time>
      </trkpt>
      <trkpt lat="37.318232" lon="-3.131622">
        <ele>929.000000</ele>
        <time>2019-05-09T08:56:02Z</time>
      </trkpt>
      <trkpt lat="37.318213" lon="-3.131611">
        <ele>929.000000</ele>
        <time>2019-05-09T08:56:03Z</time>
      </trkpt>
      <trkpt lat="37.318200" lon="-3.131602">
        <ele>929.000000</ele>
        <time>2019-05-09T08:56:04Z</time>
      </trkpt>
      <trkpt lat="37.318185" lon="-3.131592">
        <ele>929.000000</ele>
        <time>2019-05-09T08:56:05Z</time>
      </trkpt>
      <trkpt lat="37.318170" lon="-3.131581">
        <ele>929.000000</ele>
        <time>2019-05-09T08:56:06Z</time>
      </trkpt>
      <trkpt lat="37.318157" lon="-3.131571">
        <ele>929.000000</ele>
        <time>2019-05-09T08:56:07Z</time>
      </trkpt>
      <trkpt lat="37.318140" lon="-3.131559">
        <ele>929.000000</ele>
        <time>2019-05-09T08:56:08Z</time>
      </trkpt>
      <trkpt lat="37.318125" lon="-3.131548">
        <ele>929.000000</ele>
        <time>2019-05-09T08:56:09Z</time>
      </trkpt>
      <trkpt lat="37.318110" lon="-3.131538">
        <ele>929.000000</ele>
        <time>2019-05-09T08:56:10Z</time>
      </trkpt>
      <trkpt lat="37.318098" lon="-3.131529">
        <ele>929.000000</ele>
        <time>2019-05-09T08:56:11Z</time>
      </trkpt>
      <trkpt lat="37.318087" lon="-3.131520">
        <ele>929.000000</ele>
        <time>2019-05-09T08:56:12Z</time>
      </trkpt>
      <trkpt lat="37.318073" lon="-3.131511">
        <ele>929.000000</ele>
        <time>2019-05-09T08:56:13Z</time>
      </trkpt>
      <trkpt lat="37.318060" lon="-3.131501">
        <ele>929.000000</ele>
        <time>2019-05-09T08:56:14Z</time>
      </trkpt>
      <trkpt lat="37.318050" lon="-3.131495">
        <ele>929.000000</ele>
        <time>2019-05-09T08:56:15Z</time>
      </trkpt>
      <trkpt lat="37.318037" lon="-3.131485">
        <ele>929.000000</ele>
        <time>2019-05-09T08:56:17Z</time>
      </trkpt>
      <trkpt lat="37.318025" lon="-3.131478">
        <ele>929.000000</ele>
        <time>2019-05-09T08:56:17Z</time>
      </trkpt>
      <trkpt lat="37.318008" lon="-3.131468">
        <ele>929.000000</ele>
        <time>2019-05-09T08:56:18Z</time>
      </trkpt>
      <trkpt lat="37.317995" lon="-3.131459">
        <ele>929.000000</ele>
        <time>2019-05-09T08:56:19Z</time>
      </trkpt>
      <trkpt lat="37.317983" lon="-3.131452">
        <ele>929.000000</ele>
        <time>2019-05-09T08:56:20Z</time>
      </trkpt>
      <trkpt lat="37.317972" lon="-3.131443">
        <ele>929.000000</ele>
        <time>2019-05-09T08:56:21Z</time>
      </trkpt>
      <trkpt lat="37.317960" lon="-3.131436">
        <ele>929.000000</ele>
        <time>2019-05-09T08:56:22Z</time>
      </trkpt>
      <trkpt lat="37.317943" lon="-3.131425">
        <ele>929.000000</ele>
        <time>2019-05-09T08:56:23Z</time>
      </trkpt>
      <trkpt lat="37.317930" lon="-3.131415">
        <ele>929.000000</ele>
        <time>2019-05-09T08:56:24Z</time>
      </trkpt>
      <trkpt lat="37.317915" lon="-3.131405">
        <ele>929.000000</ele>
        <time>2019-05-09T08:56:25Z</time>
      </trkpt>
      <trkpt lat="37.317903" lon="-3.131397">
        <ele>929.000000</ele>
        <time>2019-05-09T08:56:26Z</time>
      </trkpt>
      <trkpt lat="37.317892" lon="-3.131388">
        <ele>929.000000</ele>
        <time>2019-05-09T08:56:28Z</time>
      </trkpt>
      <trkpt lat="37.317875" lon="-3.131375">
        <ele>929.000000</ele>
        <time>2019-05-09T08:56:28Z</time>
      </trkpt>
      <trkpt lat="37.317862" lon="-3.131363">
        <ele>929.000000</ele>
        <time>2019-05-09T08:56:29Z</time>
      </trkpt>
      <trkpt lat="37.317852" lon="-3.131354">
        <ele>929.000000</ele>
        <time>2019-05-09T08:56:30Z</time>
      </trkpt>
      <trkpt lat="37.317840" lon="-3.131342">
        <ele>929.000000</ele>
        <time>2019-05-09T08:56:31Z</time>
      </trkpt>
      <trkpt lat="37.317830" lon="-3.131332">
        <ele>929.000000</ele>
        <time>2019-05-09T08:56:32Z</time>
      </trkpt>
      <trkpt lat="37.317817" lon="-3.131319">
        <ele>929.000000</ele>
        <time>2019-05-09T08:56:33Z</time>
      </trkpt>
      <trkpt lat="37.317805" lon="-3.131253">
        <ele>929.000000</ele>
        <time>2019-05-09T08:56:34Z</time>
      </trkpt>
      <trkpt lat="37.317797" lon="-3.131240">
        <ele>929.000000</ele>
        <time>2019-05-09T08:56:35Z</time>
      </trkpt>
      <trkpt lat="37.317784" lon="-3.131225">
        <ele>929.000000</ele>
        <time>2019-05-09T08:56:36Z</time>
      </trkpt>
      <trkpt lat="37.317774" lon="-3.131215">
        <ele>929.000000</ele>
        <time>2019-05-09T08:56:37Z</time>
      </trkpt>
      <trkpt lat="37.317763" lon="-3.131200">
        <ele>929.000000</ele>
        <time>2019-05-09T08:56:38Z</time>
      </trkpt>
      <trkpt lat="37.317755" lon="-3.131190">
        <ele>929.000000</ele>
        <time>2019-05-09T08:56:39Z</time>
      </trkpt>
      <trkpt lat="37.317744" lon="-3.131177">
        <ele>929.000000</ele>
        <time>2019-05-09T08:56:40Z</time>
      </trkpt>
      <trkpt lat="37.317733" lon="-3.131170">
        <ele>929.000000</ele>
        <time>2019-05-09T08:56:42Z</time>
      </trkpt>
      <trkpt lat="37.317722" lon="-3.131165">
        <ele>929.000000</ele>
        <time>2019-05-09T08:56:42Z</time>
      </trkpt>
      <trkpt lat="37.317710" lon="-3.131157">
        <ele>930.000000</ele>
        <time>2019-05-09T08:56:43Z</time>
      </trkpt>
      <trkpt lat="37.317695" lon="-3.131150">
        <ele>930.000000</ele>
        <time>2019-05-09T08:56:44Z</time>
      </trkpt>
      <trkpt lat="37.317683" lon="-3.131144">
        <ele>930.000000</ele>
        <time>2019-05-09T08:56:45Z</time>
      </trkpt>
      <trkpt lat="37.317665" lon="-3.131139">
        <ele>930.000000</ele>
        <time>2019-05-09T08:56:46Z</time>
      </trkpt>
      <trkpt lat="37.317653" lon="-3.131138">
        <ele>930.000000</ele>
        <time>2019-05-09T08:56:47Z</time>
      </trkpt>
      <trkpt lat="37.317637" lon="-3.131142">
        <ele>930.000000</ele>
        <time>2019-05-09T08:56:48Z</time>
      </trkpt>
      <trkpt lat="37.317627" lon="-3.131140">
        <ele>930.000000</ele>
        <time>2019-05-09T08:56:49Z</time>
      </trkpt>
      <trkpt lat="37.317613" lon="-3.131142">
        <ele>930.000000</ele>
        <time>2019-05-09T08:56:50Z</time>
      </trkpt>
      <trkpt lat="37.317600" lon="-3.131142">
        <ele>930.000000</ele>
        <time>2019-05-09T08:56:51Z</time>
      </trkpt>
      <trkpt lat="37.317587" lon="-3.131143">
        <ele>930.000000</ele>
        <time>2019-05-09T08:56:52Z</time>
      </trkpt>
      <trkpt lat="37.317572" lon="-3.131142">
        <ele>931.000000</ele>
        <time>2019-05-09T08:56:53Z</time>
      </trkpt>
      <trkpt lat="37.317558" lon="-3.131141">
        <ele>931.000000</ele>
        <time>2019-05-09T08:56:54Z</time>
      </trkpt>
      <trkpt lat="37.317538" lon="-3.131139">
        <ele>931.000000</ele>
        <time>2019-05-09T08:56:55Z</time>
      </trkpt>
      <trkpt lat="37.317525" lon="-3.131139">
        <ele>931.000000</ele>
        <time>2019-05-09T08:56:56Z</time>
      </trkpt>
      <trkpt lat="37.317503" lon="-3.131136">
        <ele>931.000000</ele>
        <time>2019-05-09T08:56:57Z</time>
      </trkpt>
      <trkpt lat="37.317488" lon="-3.131134">
        <ele>931.000000</ele>
        <time>2019-05-09T08:56:58Z</time>
      </trkpt>
      <trkpt lat="37.317470" lon="-3.131130">
        <ele>932.000000</ele>
        <time>2019-05-09T08:56:59Z</time>
      </trkpt>
      <trkpt lat="37.317458" lon="-3.131127">
        <ele>932.000000</ele>
        <time>2019-05-09T08:57:00Z</time>
      </trkpt>
      <trkpt lat="37.317438" lon="-3.131122">
        <ele>932.000000</ele>
        <time>2019-05-09T08:57:01Z</time>
      </trkpt>
      <trkpt lat="37.317425" lon="-3.131119">
        <ele>932.000000</ele>
        <time>2019-05-09T08:57:03Z</time>
      </trkpt>
      <trkpt lat="37.317407" lon="-3.131115">
        <ele>932.000000</ele>
        <time>2019-05-09T08:57:03Z</time>
      </trkpt>
      <trkpt lat="37.317390" lon="-3.131113">
        <ele>932.000000</ele>
        <time>2019-05-09T08:57:04Z</time>
      </trkpt>
      <trkpt lat="37.317370" lon="-3.131111">
        <ele>933.000000</ele>
        <time>2019-05-09T08:57:05Z</time>
      </trkpt>
      <trkpt lat="37.317353" lon="-3.131109">
        <ele>933.000000</ele>
        <time>2019-05-09T08:57:06Z</time>
      </trkpt>
      <trkpt lat="37.317335" lon="-3.131107">
        <ele>933.000000</ele>
        <time>2019-05-09T08:57:07Z</time>
      </trkpt>
      <trkpt lat="37.317318" lon="-3.131105">
        <ele>933.000000</ele>
        <time>2019-05-09T08:57:08Z</time>
      </trkpt>
      <trkpt lat="37.317297" lon="-3.131103">
        <ele>933.000000</ele>
        <time>2019-05-09T08:57:09Z</time>
      </trkpt>
      <trkpt lat="37.317283" lon="-3.131103">
        <ele>933.000000</ele>
        <time>2019-05-09T08:57:10Z</time>
      </trkpt>
      <trkpt lat="37.317265" lon="-3.131102">
        <ele>933.000000</ele>
        <time>2019-05-09T08:57:11Z</time>
      </trkpt>
      <trkpt lat="37.317250" lon="-3.131101">
        <ele>933.000000</ele>
        <time>2019-05-09T08:57:12Z</time>
      </trkpt>
      <trkpt lat="37.317233" lon="-3.131101">
        <ele>933.000000</ele>
        <time>2019-05-09T08:57:13Z</time>
      </trkpt>
      <trkpt lat="37.317217" lon="-3.131101">
        <ele>933.000000</ele>
        <time>2019-05-09T08:57:14Z</time>
      </trkpt>
      <trkpt lat="37.317202" lon="-3.131101">
        <ele>933.000000</ele>
        <time>2019-05-09T08:57:15Z</time>
      </trkpt>
      <trkpt lat="37.317188" lon="-3.131101">
        <ele>933.000000</ele>
        <time>2019-05-09T08:57:16Z</time>
      </trkpt>
      <trkpt lat="37.317175" lon="-3.131101">
        <ele>933.000000</ele>
        <time>2019-05-09T08:57:17Z</time>
      </trkpt>
      <trkpt lat="37.317158" lon="-3.131101">
        <ele>934.000000</ele>
        <time>2019-05-09T08:57:18Z</time>
      </trkpt>
      <trkpt lat="37.317148" lon="-3.131101">
        <ele>934.000000</ele>
        <time>2019-05-09T08:57:19Z</time>
      </trkpt>
      <trkpt lat="37.317133" lon="-3.131101">
        <ele>934.000000</ele>
        <time>2019-05-09T08:57:20Z</time>
      </trkpt>
      <trkpt lat="37.317123" lon="-3.131101">
        <ele>934.000000</ele>
        <time>2019-05-09T08:57:21Z</time>
      </trkpt>
      <trkpt lat="37.317108" lon="-3.131102">
        <ele>934.000000</ele>
        <time>2019-05-09T08:57:22Z</time>
      </trkpt>
      <trkpt lat="37.317095" lon="-3.131101">
        <ele>934.000000</ele>
        <time>2019-05-09T08:57:23Z</time>
      </trkpt>
      <trkpt lat="37.317080" lon="-3.131101">
        <ele>934.000000</ele>
        <time>2019-05-09T08:57:24Z</time>
      </trkpt>
      <trkpt lat="37.317068" lon="-3.131102">
        <ele>934.000000</ele>
        <time>2019-05-09T08:57:25Z</time>
      </trkpt>
      <trkpt lat="37.317053" lon="-3.131101">
        <ele>935.000000</ele>
        <time>2019-05-09T08:57:26Z</time>
      </trkpt>
      <trkpt lat="37.317042" lon="-3.131102">
        <ele>935.000000</ele>
        <time>2019-05-09T08:57:28Z</time>
      </trkpt>
      <trkpt lat="37.317027" lon="-3.131100">
        <ele>935.000000</ele>
        <time>2019-05-09T08:57:28Z</time>
      </trkpt>
      <trkpt lat="37.317013" lon="-3.131100">
        <ele>935.000000</ele>
        <time>2019-05-09T08:57:29Z</time>
      </trkpt>
      <trkpt lat="37.317000" lon="-3.131098">
        <ele>935.000000</ele>
        <time>2019-05-09T08:57:30Z</time>
      </trkpt>
      <trkpt lat="37.316985" lon="-3.131096">
        <ele>935.000000</ele>
        <time>2019-05-09T08:57:32Z</time>
      </trkpt>
      <trkpt lat="37.316972" lon="-3.131096">
        <ele>935.000000</ele>
        <time>2019-05-09T08:57:32Z</time>
      </trkpt>
      <trkpt lat="37.316962" lon="-3.131095">
        <ele>935.000000</ele>
        <time>2019-05-09T08:57:33Z</time>
      </trkpt>
      <trkpt lat="37.316947" lon="-3.131092">
        <ele>935.000000</ele>
        <time>2019-05-09T08:57:34Z</time>
      </trkpt>
      <trkpt lat="37.316933" lon="-3.131091">
        <ele>935.000000</ele>
        <time>2019-05-09T08:57:35Z</time>
      </trkpt>
      <trkpt lat="37.316920" lon="-3.131090">
        <ele>935.000000</ele>
        <time>2019-05-09T08:57:36Z</time>
      </trkpt>
      <trkpt lat="37.316908" lon="-3.131088">
        <ele>935.000000</ele>
        <time>2019-05-09T08:57:37Z</time>
      </trkpt>
      <trkpt lat="37.316895" lon="-3.131087">
        <ele>935.000000</ele>
        <time>2019-05-09T08:57:38Z</time>
      </trkpt>
      <trkpt lat="37.316882" lon="-3.131084">
        <ele>935.000000</ele>
        <time>2019-05-09T08:57:39Z</time>
      </trkpt>
      <trkpt lat="37.316867" lon="-3.131081">
        <ele>935.000000</ele>
        <time>2019-05-09T08:57:40Z</time>
      </trkpt>
      <trkpt lat="37.316853" lon="-3.131078">
        <ele>935.000000</ele>
        <time>2019-05-09T08:57:41Z</time>
      </trkpt>
      <trkpt lat="37.316837" lon="-3.131076">
        <ele>935.000000</ele>
        <time>2019-05-09T08:57:42Z</time>
      </trkpt>
      <trkpt lat="37.316818" lon="-3.131072">
        <ele>935.000000</ele>
        <time>2019-05-09T08:57:43Z</time>
      </trkpt>
      <trkpt lat="37.316802" lon="-3.131068">
        <ele>935.000000</ele>
        <time>2019-05-09T08:57:44Z</time>
      </trkpt>
      <trkpt lat="37.316783" lon="-3.131064">
        <ele>935.000000</ele>
        <time>2019-05-09T08:57:45Z</time>
      </trkpt>
      <trkpt lat="37.316768" lon="-3.131060">
        <ele>935.000000</ele>
        <time>2019-05-09T08:57:46Z</time>
      </trkpt>
      <trkpt lat="37.316750" lon="-3.131055">
        <ele>935.000000</ele>
        <time>2019-05-09T08:57:47Z</time>
      </trkpt>
      <trkpt lat="37.316733" lon="-3.131051">
        <ele>935.000000</ele>
        <time>2019-05-09T08:57:48Z</time>
      </trkpt>
      <trkpt lat="37.316720" lon="-3.131044">
        <ele>935.000000</ele>
        <time>2019-05-09T08:57:48Z</time>
      </trkpt>
      <trkpt lat="37.316703" lon="-3.131039">
        <ele>935.000000</ele>
        <time>2019-05-09T08:57:49Z</time>
      </trkpt>
      <trkpt lat="37.316687" lon="-3.131032">
        <ele>935.000000</ele>
        <time>2019-05-09T08:57:50Z</time>
      </trkpt>
      <trkpt lat="37.316668" lon="-3.131023">
        <ele>935.000000</ele>
        <time>2019-05-09T08:57:51Z</time>
      </trkpt>
      <trkpt lat="37.316650" lon="-3.131015">
        <ele>935.000000</ele>
        <time>2019-05-09T08:57:53Z</time>
      </trkpt>
      <trkpt lat="37.316633" lon="-3.131006">
        <ele>935.000000</ele>
        <time>2019-05-09T08:57:53Z</time>
      </trkpt>
      <trkpt lat="37.316615" lon="-3.130996">
        <ele>935.000000</ele>
        <time>2019-05-09T08:57:54Z</time>
      </trkpt>
      <trkpt lat="37.316600" lon="-3.130987">
        <ele>935.000000</ele>
        <time>2019-05-09T08:57:55Z</time>
      </trkpt>
      <trkpt lat="37.316582" lon="-3.130977">
        <ele>935.000000</ele>
        <time>2019-05-09T08:57:56Z</time>
      </trkpt>
      <trkpt lat="37.316568" lon="-3.130967">
        <ele>935.000000</ele>
        <time>2019-05-09T08:57:57Z</time>
      </trkpt>
      <trkpt lat="37.316552" lon="-3.130957">
        <ele>935.000000</ele>
        <time>2019-05-09T08:57:58Z</time>
      </trkpt>
      <trkpt lat="37.316535" lon="-3.130949">
        <ele>935.000000</ele>
        <time>2019-05-09T08:57:59Z</time>
      </trkpt>
      <trkpt lat="37.316517" lon="-3.130938">
        <ele>935.000000</ele>
        <time>2019-05-09T08:58:00Z</time>
      </trkpt>
      <trkpt lat="37.316507" lon="-3.130931">
        <ele>935.000000</ele>
        <time>2019-05-09T08:58:01Z</time>
      </trkpt>
      <trkpt lat="37.316493" lon="-3.130922">
        <ele>935.000000</ele>
        <time>2019-05-09T08:58:02Z</time>
      </trkpt>
      <trkpt lat="37.316480" lon="-3.130914">
        <ele>935.000000</ele>
        <time>2019-05-09T08:58:03Z</time>
      </trkpt>
      <trkpt lat="37.316468" lon="-3.130906">
        <ele>935.000000</ele>
        <time>2019-05-09T08:58:04Z</time>
      </trkpt>
      <trkpt lat="37.316453" lon="-3.130897">
        <ele>935.000000</ele>
        <time>2019-05-09T08:58:05Z</time>
      </trkpt>
      <trkpt lat="37.316443" lon="-3.130891">
        <ele>935.000000</ele>
        <time>2019-05-09T08:58:06Z</time>
      </trkpt>
      <trkpt lat="37.316428" lon="-3.130881">
        <ele>935.000000</ele>
        <time>2019-05-09T08:58:07Z</time>
      </trkpt>
      <trkpt lat="37.316415" lon="-3.130874">
        <ele>934.000000</ele>
        <time>2019-05-09T08:58:08Z</time>
      </trkpt>
      <trkpt lat="37.316392" lon="-3.130861">
        <ele>934.000000</ele>
        <time>2019-05-09T08:58:10Z</time>
      </trkpt>
      <trkpt lat="37.316375" lon="-3.130852">
        <ele>934.000000</ele>
        <time>2019-05-09T08:58:11Z</time>
      </trkpt>
      <trkpt lat="37.316360" lon="-3.130843">
        <ele>934.000000</ele>
        <time>2019-05-09T08:58:12Z</time>
      </trkpt>
      <trkpt lat="37.316352" lon="-3.130837">
        <ele>934.000000</ele>
        <time>2019-05-09T08:58:14Z</time>
      </trkpt>
      <trkpt lat="37.316337" lon="-3.130827">
        <ele>934.000000</ele>
        <time>2019-05-09T08:58:14Z</time>
      </trkpt>
      <trkpt lat="37.316323" lon="-3.130819">
        <ele>934.000000</ele>
        <time>2019-05-09T08:58:15Z</time>
      </trkpt>
      <trkpt lat="37.316310" lon="-3.130811">
        <ele>934.000000</ele>
        <time>2019-05-09T08:58:16Z</time>
      </trkpt>
      <trkpt lat="37.316293" lon="-3.130800">
        <ele>934.000000</ele>
        <time>2019-05-09T08:58:17Z</time>
      </trkpt>
      <trkpt lat="37.316280" lon="-3.130792">
        <ele>934.000000</ele>
        <time>2019-05-09T08:58:18Z</time>
      </trkpt>
      <trkpt lat="37.316263" lon="-3.130781">
        <ele>934.000000</ele>
        <time>2019-05-09T08:58:19Z</time>
      </trkpt>
      <trkpt lat="37.316247" lon="-3.130771">
        <ele>934.000000</ele>
        <time>2019-05-09T08:58:20Z</time>
      </trkpt>
      <trkpt lat="37.316230" lon="-3.130762">
        <ele>934.000000</ele>
        <time>2019-05-09T08:58:21Z</time>
      </trkpt>
      <trkpt lat="37.316213" lon="-3.130751">
        <ele>934.000000</ele>
        <time>2019-05-09T08:58:22Z</time>
      </trkpt>
      <trkpt lat="37.316195" lon="-3.130741">
        <ele>934.000000</ele>
        <time>2019-05-09T08:58:23Z</time>
      </trkpt>
      <trkpt lat="37.316177" lon="-3.130731">
        <ele>934.000000</ele>
        <time>2019-05-09T08:58:24Z</time>
      </trkpt>
      <trkpt lat="37.316160" lon="-3.130720">
        <ele>934.000000</ele>
        <time>2019-05-09T08:58:25Z</time>
      </trkpt>
      <trkpt lat="37.316142" lon="-3.130709">
        <ele>934.000000</ele>
        <time>2019-05-09T08:58:26Z</time>
      </trkpt>
      <trkpt lat="37.316127" lon="-3.130701">
        <ele>934.000000</ele>
        <time>2019-05-09T08:58:27Z</time>
      </trkpt>
      <trkpt lat="37.316110" lon="-3.130691">
        <ele>934.000000</ele>
        <time>2019-05-09T08:58:28Z</time>
      </trkpt>
      <trkpt lat="37.316095" lon="-3.130683">
        <ele>934.000000</ele>
        <time>2019-05-09T08:58:29Z</time>
      </trkpt>
      <trkpt lat="37.316078" lon="-3.130674">
        <ele>934.000000</ele>
        <time>2019-05-09T08:58:30Z</time>
      </trkpt>
      <trkpt lat="37.316063" lon="-3.130665">
        <ele>934.000000</ele>
        <time>2019-05-09T08:58:31Z</time>
      </trkpt>
      <trkpt lat="37.316043" lon="-3.130655">
        <ele>934.000000</ele>
        <time>2019-05-09T08:58:32Z</time>
      </trkpt>
      <trkpt lat="37.316027" lon="-3.130649">
        <ele>934.000000</ele>
        <time>2019-05-09T08:58:33Z</time>
      </trkpt>
      <trkpt lat="37.316015" lon="-3.130643">
        <ele>934.000000</ele>
        <time>2019-05-09T08:58:34Z</time>
      </trkpt>
      <trkpt lat="37.315997" lon="-3.130636">
        <ele>934.000000</ele>
        <time>2019-05-09T08:58:35Z</time>
      </trkpt>
      <trkpt lat="37.315978" lon="-3.130628">
        <ele>933.000000</ele>
        <time>2019-05-09T08:58:36Z</time>
      </trkpt>
      <trkpt lat="37.315965" lon="-3.130624">
        <ele>933.000000</ele>
        <time>2019-05-09T08:58:37Z</time>
      </trkpt>
      <trkpt lat="37.315953" lon="-3.130621">
        <ele>933.000000</ele>
        <time>2019-05-09T08:58:39Z</time>
      </trkpt>
      <trkpt lat="37.315938" lon="-3.130616">
        <ele>933.000000</ele>
        <time>2019-05-09T08:58:39Z</time>
      </trkpt>
      <trkpt lat="37.315922" lon="-3.130609">
        <ele>933.000000</ele>
        <time>2019-05-09T08:58:40Z</time>
      </trkpt>
      <trkpt lat="37.315905" lon="-3.130605">
        <ele>933.000000</ele>
        <time>2019-05-09T08:58:41Z</time>
      </trkpt>
      <trkpt lat="37.315888" lon="-3.130599">
        <ele>933.000000</ele>
        <time>2019-05-09T08:58:42Z</time>
      </trkpt>
      <trkpt lat="37.315870" lon="-3.130592">
        <ele>933.000000</ele>
        <time>2019-05-09T08:58:43Z</time>
      </trkpt>
      <trkpt lat="37.315853" lon="-3.130588">
        <ele>933.000000</ele>
        <time>2019-05-09T08:58:44Z</time>
      </trkpt>
      <trkpt lat="37.315838" lon="-3.130583">
        <ele>933.000000</ele>
        <time>2019-05-09T08:58:45Z</time>
      </trkpt>
      <trkpt lat="37.315825" lon="-3.130580">
        <ele>933.000000</ele>
        <time>2019-05-09T08:58:46Z</time>
      </trkpt>
      <trkpt lat="37.315812" lon="-3.130576">
        <ele>933.000000</ele>
        <time>2019-05-09T08:58:47Z</time>
      </trkpt>
      <trkpt lat="37.315800" lon="-3.130573">
        <ele>932.000000</ele>
        <time>2019-05-09T08:58:48Z</time>
      </trkpt>
      <trkpt lat="37.315788" lon="-3.130569">
        <ele>932.000000</ele>
        <time>2019-05-09T08:58:49Z</time>
      </trkpt>
      <trkpt lat="37.315778" lon="-3.130566">
        <ele>932.000000</ele>
        <time>2019-05-09T08:58:50Z</time>
      </trkpt>
      <trkpt lat="37.315767" lon="-3.130562">
        <ele>932.000000</ele>
        <time>2019-05-09T08:58:51Z</time>
      </trkpt>
      <trkpt lat="37.315753" lon="-3.130557">
        <ele>932.000000</ele>
        <time>2019-05-09T08:58:52Z</time>
      </trkpt>
      <trkpt lat="37.315742" lon="-3.130551">
        <ele>932.000000</ele>
        <time>2019-05-09T08:58:53Z</time>
      </trkpt>
      <trkpt lat="37.315730" lon="-3.130547">
        <ele>932.000000</ele>
        <time>2019-05-09T08:58:54Z</time>
      </trkpt>
      <trkpt lat="37.315720" lon="-3.130540">
        <ele>932.000000</ele>
        <time>2019-05-09T08:58:55Z</time>
      </trkpt>
      <trkpt lat="37.315712" lon="-3.130536">
        <ele>932.000000</ele>
        <time>2019-05-09T08:58:56Z</time>
      </trkpt>
      <trkpt lat="37.315700" lon="-3.130528">
        <ele>932.000000</ele>
        <time>2019-05-09T08:58:57Z</time>
      </trkpt>
      <trkpt lat="37.315687" lon="-3.130521">
        <ele>932.000000</ele>
        <time>2019-05-09T08:58:58Z</time>
      </trkpt>
      <trkpt lat="37.315677" lon="-3.130514">
        <ele>932.000000</ele>
        <time>2019-05-09T08:59:00Z</time>
      </trkpt>
      <trkpt lat="37.315663" lon="-3.130504">
        <ele>932.000000</ele>
        <time>2019-05-09T08:59:00Z</time>
      </trkpt>
      <trkpt lat="37.315657" lon="-3.130499">
        <ele>932.000000</ele>
        <time>2019-05-09T08:59:01Z</time>
      </trkpt>
      <trkpt lat="37.315645" lon="-3.130490">
        <ele>932.000000</ele>
        <time>2019-05-09T08:59:02Z</time>
      </trkpt>
      <trkpt lat="37.315635" lon="-3.130483">
        <ele>932.000000</ele>
        <time>2019-05-09T08:59:03Z</time>
      </trkpt>
      <trkpt lat="37.315625" lon="-3.130473">
        <ele>932.000000</ele>
        <time>2019-05-09T08:59:04Z</time>
      </trkpt>
      <trkpt lat="37.315618" lon="-3.130466">
        <ele>932.000000</ele>
        <time>2019-05-09T08:59:05Z</time>
      </trkpt>
      <trkpt lat="37.315612" lon="-3.130459">
        <ele>932.000000</ele>
        <time>2019-05-09T08:59:06Z</time>
      </trkpt>
      <trkpt lat="37.315605" lon="-3.130452">
        <ele>932.000000</ele>
        <time>2019-05-09T08:59:07Z</time>
      </trkpt>
      <trkpt lat="37.315593" lon="-3.130441">
        <ele>932.000000</ele>
        <time>2019-05-09T08:59:08Z</time>
      </trkpt>
      <trkpt lat="37.315582" lon="-3.130430">
        <ele>932.000000</ele>
        <time>2019-05-09T08:59:09Z</time>
      </trkpt>
      <trkpt lat="37.315570" lon="-3.130419">
        <ele>932.000000</ele>
        <time>2019-05-09T08:59:10Z</time>
      </trkpt>
      <trkpt lat="37.315560" lon="-3.130408">
        <ele>932.000000</ele>
        <time>2019-05-09T08:59:11Z</time>
      </trkpt>
      <trkpt lat="37.315552" lon="-3.130399">
        <ele>932.000000</ele>
        <time>2019-05-09T08:59:12Z</time>
      </trkpt>
      <trkpt lat="37.315538" lon="-3.130386">
        <ele>932.000000</ele>
        <time>2019-05-09T08:59:13Z</time>
      </trkpt>
      <trkpt lat="37.315527" lon="-3.130373">
        <ele>932.000000</ele>
        <time>2019-05-09T08:59:14Z</time>
      </trkpt>
      <trkpt lat="37.315515" lon="-3.130359">
        <ele>932.000000</ele>
        <time>2019-05-09T08:59:15Z</time>
      </trkpt>
      <trkpt lat="37.315498" lon="-3.130343">
        <ele>932.000000</ele>
        <time>2019-05-09T08:59:16Z</time>
      </trkpt>
      <trkpt lat="37.315490" lon="-3.130332">
        <ele>932.000000</ele>
        <time>2019-05-09T08:59:17Z</time>
      </trkpt>
      <trkpt lat="37.315475" lon="-3.130315">
        <ele>932.000000</ele>
        <time>2019-05-09T08:59:18Z</time>
      </trkpt>
      <trkpt lat="37.315462" lon="-3.130301">
        <ele>932.000000</ele>
        <time>2019-05-09T08:59:19Z</time>
      </trkpt>
      <trkpt lat="37.315448" lon="-3.130287">
        <ele>932.000000</ele>
        <time>2019-05-09T08:59:20Z</time>
      </trkpt>
      <trkpt lat="37.315433" lon="-3.130271">
        <ele>932.000000</ele>
        <time>2019-05-09T08:59:21Z</time>
      </trkpt>
      <trkpt lat="37.315417" lon="-3.130256">
        <ele>932.000000</ele>
        <time>2019-05-09T08:59:23Z</time>
      </trkpt>
      <trkpt lat="37.315398" lon="-3.130238">
        <ele>932.000000</ele>
        <time>2019-05-09T08:59:23Z</time>
      </trkpt>
      <trkpt lat="37.315383" lon="-3.130224">
        <ele>932.000000</ele>
        <time>2019-05-09T08:59:24Z</time>
      </trkpt>
      <trkpt lat="37.315367" lon="-3.130208">
        <ele>932.000000</ele>
        <time>2019-05-09T08:59:26Z</time>
      </trkpt>
      <trkpt lat="37.315348" lon="-3.130191">
        <ele>932.000000</ele>
        <time>2019-05-09T08:59:26Z</time>
      </trkpt>
      <trkpt lat="37.315335" lon="-3.130179">
        <ele>932.000000</ele>
        <time>2019-05-09T08:59:27Z</time>
      </trkpt>
      <trkpt lat="37.315323" lon="-3.130168">
        <ele>932.000000</ele>
        <time>2019-05-09T08:59:28Z</time>
      </trkpt>
      <trkpt lat="37.315308" lon="-3.130154">
        <ele>932.000000</ele>
        <time>2019-05-09T08:59:29Z</time>
      </trkpt>
      <trkpt lat="37.315293" lon="-3.130141">
        <ele>932.000000</ele>
        <time>2019-05-09T08:59:30Z</time>
      </trkpt>
      <trkpt lat="37.315277" lon="-3.130127">
        <ele>932.000000</ele>
        <time>2019-05-09T08:59:31Z</time>
      </trkpt>
      <trkpt lat="37.315265" lon="-3.130116">
        <ele>932.000000</ele>
        <time>2019-05-09T08:59:32Z</time>
      </trkpt>
      <trkpt lat="37.315255" lon="-3.130106">
        <ele>932.000000</ele>
        <time>2019-05-09T08:59:33Z</time>
      </trkpt>
      <trkpt lat="37.315240" lon="-3.130092">
        <ele>932.000000</ele>
        <time>2019-05-09T08:59:34Z</time>
      </trkpt>
      <trkpt lat="37.315228" lon="-3.130081">
        <ele>932.000000</ele>
        <time>2019-05-09T08:59:35Z</time>
      </trkpt>
      <trkpt lat="37.315213" lon="-3.130067">
        <ele>932.000000</ele>
        <time>2019-05-09T08:59:36Z</time>
      </trkpt>
      <trkpt lat="37.315198" lon="-3.130054">
        <ele>932.000000</ele>
        <time>2019-05-09T08:59:37Z</time>
      </trkpt>
      <trkpt lat="37.315183" lon="-3.130042">
        <ele>932.000000</ele>
        <time>2019-05-09T08:59:38Z</time>
      </trkpt>
      <trkpt lat="37.315167" lon="-3.130027">
        <ele>932.000000</ele>
        <time>2019-05-09T08:59:39Z</time>
      </trkpt>
      <trkpt lat="37.315152" lon="-3.130015">
        <ele>932.000000</ele>
        <time>2019-05-09T08:59:40Z</time>
      </trkpt>
      <trkpt lat="37.315138" lon="-3.130006">
        <ele>932.000000</ele>
        <time>2019-05-09T08:59:41Z</time>
      </trkpt>
      <trkpt lat="37.315123" lon="-3.129994">
        <ele>932.000000</ele>
        <time>2019-05-09T08:59:42Z</time>
      </trkpt>
      <trkpt lat="37.315105" lon="-3.129981">
        <ele>932.000000</ele>
        <time>2019-05-09T08:59:43Z</time>
      </trkpt>
      <trkpt lat="37.315093" lon="-3.129976">
        <ele>932.000000</ele>
        <time>2019-05-09T08:59:44Z</time>
      </trkpt>
      <trkpt lat="37.315077" lon="-3.129965">
        <ele>932.000000</ele>
        <time>2019-05-09T08:59:45Z</time>
      </trkpt>
      <trkpt lat="37.315060" lon="-3.130003">
        <ele>932.000000</ele>
        <time>2019-05-09T08:59:46Z</time>
      </trkpt>
      <trkpt lat="37.315048" lon="-3.130005">
        <ele>932.000000</ele>
        <time>2019-05-09T08:59:47Z</time>
      </trkpt>
      <trkpt lat="37.315037" lon="-3.130007">
        <ele>932.000000</ele>
        <time>2019-05-09T08:59:48Z</time>
      </trkpt>
      <trkpt lat="37.315025" lon="-3.130008">
        <ele>932.000000</ele>
        <time>2019-05-09T08:59:49Z</time>
      </trkpt>
      <trkpt lat="37.315015" lon="-3.130010">
        <ele>932.000000</ele>
        <time>2019-05-09T08:59:51Z</time>
      </trkpt>
      <trkpt lat="37.315002" lon="-3.130013">
        <ele>932.000000</ele>
        <time>2019-05-09T08:59:51Z</time>
      </trkpt>
      <trkpt lat="37.314990" lon="-3.130018">
        <ele>932.000000</ele>
        <time>2019-05-09T08:59:52Z</time>
      </trkpt>
      <trkpt lat="37.314978" lon="-3.130025">
        <ele>932.000000</ele>
        <time>2019-05-09T08:59:53Z</time>
      </trkpt>
      <trkpt lat="37.314967" lon="-3.130031">
        <ele>932.000000</ele>
        <time>2019-05-09T08:59:54Z</time>
      </trkpt>
      <trkpt lat="37.314957" lon="-3.130035">
        <ele>932.000000</ele>
        <time>2019-05-09T08:59:55Z</time>
      </trkpt>
      <trkpt lat="37.314947" lon="-3.130040">
        <ele>932.000000</ele>
        <time>2019-05-09T08:59:56Z</time>
      </trkpt>
      <trkpt lat="37.314935" lon="-3.130047">
        <ele>932.000000</ele>
        <time>2019-05-09T08:59:57Z</time>
      </trkpt>
      <trkpt lat="37.314925" lon="-3.130054">
        <ele>932.000000</ele>
        <time>2019-05-09T08:59:58Z</time>
      </trkpt>
      <trkpt lat="37.314912" lon="-3.130063">
        <ele>932.000000</ele>
        <time>2019-05-09T08:59:59Z</time>
      </trkpt>
      <trkpt lat="37.314898" lon="-3.130071">
        <ele>932.000000</ele>
        <time>2019-05-09T09:00:00Z</time>
      </trkpt>
      <trkpt lat="37.314887" lon="-3.130079">
        <ele>932.000000</ele>
        <time>2019-05-09T09:00:01Z</time>
      </trkpt>
      <trkpt lat="37.314875" lon="-3.130087">
        <ele>932.000000</ele>
        <time>2019-05-09T09:00:02Z</time>
      </trkpt>
      <trkpt lat="37.314863" lon="-3.130094">
        <ele>932.000000</ele>
        <time>2019-05-09T09:00:03Z</time>
      </trkpt>
      <trkpt lat="37.314850" lon="-3.130101">
        <ele>932.000000</ele>
        <time>2019-05-09T09:00:04Z</time>
      </trkpt>
      <trkpt lat="37.314838" lon="-3.130108">
        <ele>932.000000</ele>
        <time>2019-05-09T09:00:05Z</time>
      </trkpt>
      <trkpt lat="37.314825" lon="-3.130116">
        <ele>932.000000</ele>
        <time>2019-05-09T09:00:06Z</time>
      </trkpt>
      <trkpt lat="37.314810" lon="-3.130123">
        <ele>932.000000</ele>
        <time>2019-05-09T09:00:07Z</time>
      </trkpt>
      <trkpt lat="37.314798" lon="-3.130130">
        <ele>932.000000</ele>
        <time>2019-05-09T09:00:08Z</time>
      </trkpt>
      <trkpt lat="37.314785" lon="-3.130137">
        <ele>933.000000</ele>
        <time>2019-05-09T09:00:09Z</time>
      </trkpt>
      <trkpt lat="37.314773" lon="-3.130143">
        <ele>933.000000</ele>
        <time>2019-05-09T09:00:10Z</time>
      </trkpt>
      <trkpt lat="37.314760" lon="-3.130150">
        <ele>933.000000</ele>
        <time>2019-05-09T09:00:12Z</time>
      </trkpt>
      <trkpt lat="37.314745" lon="-3.130158">
        <ele>933.000000</ele>
        <time>2019-05-09T09:00:12Z</time>
      </trkpt>
      <trkpt lat="37.314732" lon="-3.130164">
        <ele>933.000000</ele>
        <time>2019-05-09T09:00:13Z</time>
      </trkpt>
      <trkpt lat="37.314717" lon="-3.130170">
        <ele>933.000000</ele>
        <time>2019-05-09T09:00:14Z</time>
      </trkpt>
      <trkpt lat="37.314697" lon="-3.130179">
        <ele>933.000000</ele>
        <time>2019-05-09T09:00:15Z</time>
      </trkpt>
      <trkpt lat="37.314685" lon="-3.130184">
        <ele>933.000000</ele>
        <time>2019-05-09T09:00:16Z</time>
      </trkpt>
      <trkpt lat="37.314670" lon="-3.130190">
        <ele>933.000000</ele>
        <time>2019-05-09T09:00:17Z</time>
      </trkpt>
      <trkpt lat="37.314653" lon="-3.130197">
        <ele>933.000000</ele>
        <time>2019-05-09T09:00:18Z</time>
      </trkpt>
      <trkpt lat="37.314640" lon="-3.130202">
        <ele>933.000000</ele>
        <time>2019-05-09T09:00:19Z</time>
      </trkpt>
      <trkpt lat="37.314623" lon="-3.130208">
        <ele>933.000000</ele>
        <time>2019-05-09T09:00:20Z</time>
      </trkpt>
      <trkpt lat="37.314607" lon="-3.130214">
        <ele>933.000000</ele>
        <time>2019-05-09T09:00:21Z</time>
      </trkpt>
      <trkpt lat="37.314590" lon="-3.130221">
        <ele>933.000000</ele>
        <time>2019-05-09T09:00:22Z</time>
      </trkpt>
      <trkpt lat="37.314573" lon="-3.130227">
        <ele>933.000000</ele>
        <time>2019-05-09T09:00:23Z</time>
      </trkpt>
      <trkpt lat="37.314557" lon="-3.130233">
        <ele>933.000000</ele>
        <time>2019-05-09T09:00:24Z</time>
      </trkpt>
      <trkpt lat="37.314540" lon="-3.130239">
        <ele>933.000000</ele>
        <time>2019-05-09T09:00:25Z</time>
      </trkpt>
      <trkpt lat="37.314523" lon="-3.130245">
        <ele>933.000000</ele>
        <time>2019-05-09T09:00:26Z</time>
      </trkpt>
      <trkpt lat="37.314507" lon="-3.130251">
        <ele>933.000000</ele>
        <time>2019-05-09T09:00:27Z</time>
      </trkpt>
      <trkpt lat="37.314488" lon="-3.130257">
        <ele>933.000000</ele>
        <time>2019-05-09T09:00:28Z</time>
      </trkpt>
      <trkpt lat="37.314472" lon="-3.130263">
        <ele>933.000000</ele>
        <time>2019-05-09T09:00:29Z</time>
      </trkpt>
      <trkpt lat="37.314457" lon="-3.130268">
        <ele>933.000000</ele>
        <time>2019-05-09T09:00:30Z</time>
      </trkpt>
      <trkpt lat="37.314440" lon="-3.130274">
        <ele>933.000000</ele>
        <time>2019-05-09T09:00:31Z</time>
      </trkpt>
      <trkpt lat="37.314425" lon="-3.130279">
        <ele>933.000000</ele>
        <time>2019-05-09T09:00:32Z</time>
      </trkpt>
      <trkpt lat="37.314407" lon="-3.130286">
        <ele>933.000000</ele>
        <time>2019-05-09T09:00:33Z</time>
      </trkpt>
      <trkpt lat="37.314388" lon="-3.130293">
        <ele>933.000000</ele>
        <time>2019-05-09T09:00:34Z</time>
      </trkpt>
      <trkpt lat="37.314370" lon="-3.130300">
        <ele>933.000000</ele>
        <time>2019-05-09T09:00:35Z</time>
      </trkpt>
      <trkpt lat="37.314358" lon="-3.130306">
        <ele>933.000000</ele>
        <time>2019-05-09T09:00:36Z</time>
      </trkpt>
      <trkpt lat="37.314343" lon="-3.130311">
        <ele>933.000000</ele>
        <time>2019-05-09T09:00:38Z</time>
      </trkpt>
      <trkpt lat="37.314327" lon="-3.130317">
        <ele>933.000000</ele>
        <time>2019-05-09T09:00:38Z</time>
      </trkpt>
      <trkpt lat="37.314313" lon="-3.130323">
        <ele>933.000000</ele>
        <time>2019-05-09T09:00:39Z</time>
      </trkpt>
      <trkpt lat="37.314297" lon="-3.130329">
        <ele>933.000000</ele>
        <time>2019-05-09T09:00:40Z</time>
      </trkpt>
      <trkpt lat="37.314282" lon="-3.130336">
        <ele>933.000000</ele>
        <time>2019-05-09T09:00:41Z</time>
      </trkpt>
      <trkpt lat="37.314268" lon="-3.130341">
        <ele>933.000000</ele>
        <time>2019-05-09T09:00:42Z</time>
      </trkpt>
      <trkpt lat="37.314252" lon="-3.130348">
        <ele>933.000000</ele>
        <time>2019-05-09T09:00:43Z</time>
      </trkpt>
      <trkpt lat="37.314238" lon="-3.130353">
        <ele>933.000000</ele>
        <time>2019-05-09T09:00:44Z</time>
      </trkpt>
      <trkpt lat="37.314225" lon="-3.130359">
        <ele>933.000000</ele>
        <time>2019-05-09T09:00:45Z</time>
      </trkpt>
      <trkpt lat="37.314213" lon="-3.130364">
        <ele>933.000000</ele>
        <time>2019-05-09T09:00:46Z</time>
      </trkpt>
      <trkpt lat="37.314200" lon="-3.130371">
        <ele>933.000000</ele>
        <time>2019-05-09T09:00:47Z</time>
      </trkpt>
      <trkpt lat="37.314188" lon="-3.130376">
        <ele>933.000000</ele>
        <time>2019-05-09T09:00:48Z</time>
      </trkpt>
      <trkpt lat="37.314173" lon="-3.130382">
        <ele>933.000000</ele>
        <time>2019-05-09T09:00:49Z</time>
      </trkpt>
      <trkpt lat="37.314162" lon="-3.130388">
        <ele>933.000000</ele>
        <time>2019-05-09T09:00:50Z</time>
      </trkpt>
      <trkpt lat="37.314148" lon="-3.130395">
        <ele>933.000000</ele>
        <time>2019-05-09T09:00:51Z</time>
      </trkpt>
      <trkpt lat="37.314137" lon="-3.130400">
        <ele>933.000000</ele>
        <time>2019-05-09T09:00:52Z</time>
      </trkpt>
      <trkpt lat="37.314122" lon="-3.130407">
        <ele>933.000000</ele>
        <time>2019-05-09T09:00:53Z</time>
      </trkpt>
      <trkpt lat="37.314108" lon="-3.130414">
        <ele>933.000000</ele>
        <time>2019-05-09T09:00:54Z</time>
      </trkpt>
      <trkpt lat="37.314095" lon="-3.130419">
        <ele>933.000000</ele>
        <time>2019-05-09T09:00:55Z</time>
      </trkpt>
      <trkpt lat="37.314078" lon="-3.130426">
        <ele>933.000000</ele>
        <time>2019-05-09T09:00:56Z</time>
      </trkpt>
      <trkpt lat="37.314068" lon="-3.130431">
        <ele>933.000000</ele>
        <time>2019-05-09T09:00:57Z</time>
      </trkpt>
      <trkpt lat="37.314055" lon="-3.130436">
        <ele>933.000000</ele>
        <time>2019-05-09T09:00:59Z</time>
      </trkpt>
      <trkpt lat="37.314042" lon="-3.130439">
        <ele>933.000000</ele>
        <time>2019-05-09T09:00:59Z</time>
      </trkpt>
      <trkpt lat="37.314027" lon="-3.130445">
        <ele>933.000000</ele>
        <time>2019-05-09T09:01:00Z</time>
      </trkpt>
      <trkpt lat="37.314013" lon="-3.130449">
        <ele>933.000000</ele>
        <time>2019-05-09T09:01:01Z</time>
      </trkpt>
      <trkpt lat="37.313998" lon="-3.130453">
        <ele>933.000000</ele>
        <time>2019-05-09T09:01:02Z</time>
      </trkpt>
      <trkpt lat="37.313985" lon="-3.130456">
        <ele>933.000000</ele>
        <time>2019-05-09T09:01:03Z</time>
      </trkpt>
      <trkpt lat="37.313972" lon="-3.130459">
        <ele>933.000000</ele>
        <time>2019-05-09T09:01:04Z</time>
      </trkpt>
      <trkpt lat="37.313955" lon="-3.130460">
        <ele>933.000000</ele>
        <time>2019-05-09T09:01:05Z</time>
      </trkpt>
      <trkpt lat="37.313943" lon="-3.130461">
        <ele>933.000000</ele>
        <time>2019-05-09T09:01:06Z</time>
      </trkpt>
      <trkpt lat="37.313932" lon="-3.130460">
        <ele>933.000000</ele>
        <time>2019-05-09T09:01:07Z</time>
      </trkpt>
      <trkpt lat="37.313918" lon="-3.130460">
        <ele>933.000000</ele>
        <time>2019-05-09T09:01:08Z</time>
      </trkpt>
      <trkpt lat="37.313905" lon="-3.130459">
        <ele>933.000000</ele>
        <time>2019-05-09T09:01:09Z</time>
      </trkpt>
      <trkpt lat="37.313892" lon="-3.130457">
        <ele>933.000000</ele>
        <time>2019-05-09T09:01:10Z</time>
      </trkpt>
      <trkpt lat="37.313878" lon="-3.130455">
        <ele>933.000000</ele>
        <time>2019-05-09T09:01:11Z</time>
      </trkpt>
      <trkpt lat="37.313867" lon="-3.130451">
        <ele>933.000000</ele>
        <time>2019-05-09T09:01:12Z</time>
      </trkpt>
      <trkpt lat="37.313855" lon="-3.130447">
        <ele>933.000000</ele>
        <time>2019-05-09T09:01:13Z</time>
      </trkpt>
      <trkpt lat="37.313842" lon="-3.130443">
        <ele>933.000000</ele>
        <time>2019-05-09T09:01:14Z</time>
      </trkpt>
      <trkpt lat="37.313828" lon="-3.130437">
        <ele>933.000000</ele>
        <time>2019-05-09T09:01:15Z</time>
      </trkpt>
      <trkpt lat="37.313817" lon="-3.130430">
        <ele>933.000000</ele>
        <time>2019-05-09T09:01:16Z</time>
      </trkpt>
      <trkpt lat="37.313805" lon="-3.130424">
        <ele>933.000000</ele>
        <time>2019-05-09T09:01:17Z</time>
      </trkpt>
      <trkpt lat="37.313793" lon="-3.130416">
        <ele>933.000000</ele>
        <time>2019-05-09T09:01:18Z</time>
      </trkpt>
      <trkpt lat="37.313782" lon="-3.130408">
        <ele>933.000000</ele>
        <time>2019-05-09T09:01:19Z</time>
      </trkpt>
      <trkpt lat="37.313765" lon="-3.130400">
        <ele>933.000000</ele>
        <time>2019-05-09T09:01:20Z</time>
      </trkpt>
      <trkpt lat="37.313755" lon="-3.130392">
        <ele>933.000000</ele>
        <time>2019-05-09T09:01:21Z</time>
      </trkpt>
      <trkpt lat="37.313742" lon="-3.130382">
        <ele>932.000000</ele>
        <time>2019-05-09T09:01:22Z</time>
      </trkpt>
      <trkpt lat="37.313728" lon="-3.130373">
        <ele>932.000000</ele>
        <time>2019-05-09T09:01:24Z</time>
      </trkpt>
      <trkpt lat="37.313717" lon="-3.130365">
        <ele>932.000000</ele>
        <time>2019-05-09T09:01:24Z</time>
      </trkpt>
      <trkpt lat="37.313705" lon="-3.130355">
        <ele>932.000000</ele>
        <time>2019-05-09T09:01:25Z</time>
      </trkpt>
      <trkpt lat="37.313692" lon="-3.130346">
        <ele>932.000000</ele>
        <time>2019-05-09T09:01:26Z</time>
      </trkpt>
      <trkpt lat="37.313678" lon="-3.130337">
        <ele>931.000000</ele>
        <time>2019-05-09T09:01:27Z</time>
      </trkpt>
      <trkpt lat="37.313660" lon="-3.130327">
        <ele>931.000000</ele>
        <time>2019-05-09T09:01:28Z</time>
      </trkpt>
      <trkpt lat="37.313647" lon="-3.130317">
        <ele>931.000000</ele>
        <time>2019-05-09T09:01:29Z</time>
      </trkpt>
      <trkpt lat="37.313633" lon="-3.130306">
        <ele>931.000000</ele>
        <time>2019-05-09T09:01:30Z</time>
      </trkpt>
      <trkpt lat="37.313620" lon="-3.130297">
        <ele>931.000000</ele>
        <time>2019-05-09T09:01:31Z</time>
      </trkpt>
      <trkpt lat="37.313605" lon="-3.130288">
        <ele>931.000000</ele>
        <time>2019-05-09T09:01:32Z</time>
      </trkpt>
      <trkpt lat="37.313595" lon="-3.130278">
        <ele>931.000000</ele>
        <time>2019-05-09T09:01:33Z</time>
      </trkpt>
      <trkpt lat="37.313582" lon="-3.130268">
        <ele>931.000000</ele>
        <time>2019-05-09T09:01:34Z</time>
      </trkpt>
      <trkpt lat="37.313565" lon="-3.130258">
        <ele>931.000000</ele>
        <time>2019-05-09T09:01:35Z</time>
      </trkpt>
      <trkpt lat="37.313552" lon="-3.130249">
        <ele>931.000000</ele>
        <time>2019-05-09T09:01:36Z</time>
      </trkpt>
      <trkpt lat="37.313537" lon="-3.130240">
        <ele>931.000000</ele>
        <time>2019-05-09T09:01:37Z</time>
      </trkpt>
      <trkpt lat="37.313522" lon="-3.130231">
        <ele>931.000000</ele>
        <time>2019-05-09T09:01:38Z</time>
      </trkpt>
      <trkpt lat="37.313508" lon="-3.130222">
        <ele>931.000000</ele>
        <time>2019-05-09T09:01:39Z</time>
      </trkpt>
      <trkpt lat="37.313495" lon="-3.130214">
        <ele>931.000000</ele>
        <time>2019-05-09T09:01:40Z</time>
      </trkpt>
      <trkpt lat="37.313482" lon="-3.130206">
        <ele>931.000000</ele>
        <time>2019-05-09T09:01:41Z</time>
      </trkpt>
      <trkpt lat="37.313468" lon="-3.130198">
        <ele>930.000000</ele>
        <time>2019-05-09T09:01:42Z</time>
      </trkpt>
      <trkpt lat="37.313455" lon="-3.130191">
        <ele>930.000000</ele>
        <time>2019-05-09T09:01:43Z</time>
      </trkpt>
      <trkpt lat="37.313442" lon="-3.130184">
        <ele>930.000000</ele>
        <time>2019-05-09T09:01:44Z</time>
      </trkpt>
      <trkpt lat="37.313427" lon="-3.130177">
        <ele>930.000000</ele>
        <time>2019-05-09T09:01:45Z</time>
      </trkpt>
      <trkpt lat="37.313412" lon="-3.130172">
        <ele>930.000000</ele>
        <time>2019-05-09T09:01:46Z</time>
      </trkpt>
      <trkpt lat="37.313397" lon="-3.130165">
        <ele>930.000000</ele>
        <time>2019-05-09T09:01:47Z</time>
      </trkpt>
      <trkpt lat="37.313382" lon="-3.130159">
        <ele>930.000000</ele>
        <time>2019-05-09T09:01:49Z</time>
      </trkpt>
      <trkpt lat="37.313365" lon="-3.130152">
        <ele>930.000000</ele>
        <time>2019-05-09T09:01:49Z</time>
      </trkpt>
      <trkpt lat="37.313348" lon="-3.130147">
        <ele>930.000000</ele>
        <time>2019-05-09T09:01:50Z</time>
      </trkpt>
      <trkpt lat="37.313335" lon="-3.130142">
        <ele>930.000000</ele>
        <time>2019-05-09T09:01:51Z</time>
      </trkpt>
      <trkpt lat="37.313322" lon="-3.130138">
        <ele>930.000000</ele>
        <time>2019-05-09T09:01:52Z</time>
      </trkpt>
      <trkpt lat="37.313307" lon="-3.130133">
        <ele>930.000000</ele>
        <time>2019-05-09T09:01:53Z</time>
      </trkpt>
      <trkpt lat="37.313292" lon="-3.130128">
        <ele>930.000000</ele>
        <time>2019-05-09T09:01:54Z</time>
      </trkpt>
      <trkpt lat="37.313277" lon="-3.130123">
        <ele>930.000000</ele>
        <time>2019-05-09T09:01:55Z</time>
      </trkpt>
      <trkpt lat="37.313262" lon="-3.130117">
        <ele>930.000000</ele>
        <time>2019-05-09T09:01:56Z</time>
      </trkpt>
      <trkpt lat="37.313247" lon="-3.130112">
        <ele>930.000000</ele>
        <time>2019-05-09T09:01:57Z</time>
      </trkpt>
      <trkpt lat="37.313227" lon="-3.130106">
        <ele>930.000000</ele>
        <time>2019-05-09T09:01:58Z</time>
      </trkpt>
      <trkpt lat="37.313208" lon="-3.130099">
        <ele>930.000000</ele>
        <time>2019-05-09T09:01:59Z</time>
      </trkpt>
      <trkpt lat="37.313190" lon="-3.130093">
        <ele>930.000000</ele>
        <time>2019-05-09T09:02:00Z</time>
      </trkpt>
      <trkpt lat="37.313172" lon="-3.130087">
        <ele>930.000000</ele>
        <time>2019-05-09T09:02:01Z</time>
      </trkpt>
      <trkpt lat="37.313157" lon="-3.130083">
        <ele>930.000000</ele>
        <time>2019-05-09T09:02:02Z</time>
      </trkpt>
      <trkpt lat="37.313140" lon="-3.130078">
        <ele>930.000000</ele>
        <time>2019-05-09T09:02:03Z</time>
      </trkpt>
      <trkpt lat="37.313122" lon="-3.130071">
        <ele>930.000000</ele>
        <time>2019-05-09T09:02:03Z</time>
      </trkpt>
      <trkpt lat="37.313105" lon="-3.130066">
        <ele>930.000000</ele>
        <time>2019-05-09T09:02:04Z</time>
      </trkpt>
      <trkpt lat="37.313087" lon="-3.130060">
        <ele>930.000000</ele>
        <time>2019-05-09T09:02:05Z</time>
      </trkpt>
      <trkpt lat="37.313070" lon="-3.130054">
        <ele>930.000000</ele>
        <time>2019-05-09T09:02:06Z</time>
      </trkpt>
      <trkpt lat="37.313052" lon="-3.130049">
        <ele>930.000000</ele>
        <time>2019-05-09T09:02:07Z</time>
      </trkpt>
      <trkpt lat="37.313035" lon="-3.130043">
        <ele>930.000000</ele>
        <time>2019-05-09T09:02:08Z</time>
      </trkpt>
      <trkpt lat="37.313020" lon="-3.130037">
        <ele>930.000000</ele>
        <time>2019-05-09T09:02:10Z</time>
      </trkpt>
      <trkpt lat="37.313000" lon="-3.130032">
        <ele>930.000000</ele>
        <time>2019-05-09T09:02:10Z</time>
      </trkpt>
      <trkpt lat="37.312982" lon="-3.130025">
        <ele>930.000000</ele>
        <time>2019-05-09T09:02:11Z</time>
      </trkpt>
      <trkpt lat="37.312967" lon="-3.130019">
        <ele>930.000000</ele>
        <time>2019-05-09T09:02:12Z</time>
      </trkpt>
      <trkpt lat="37.312948" lon="-3.130013">
        <ele>930.000000</ele>
        <time>2019-05-09T09:02:13Z</time>
      </trkpt>
      <trkpt lat="37.312933" lon="-3.130005">
        <ele>930.000000</ele>
        <time>2019-05-09T09:02:14Z</time>
      </trkpt>
      <trkpt lat="37.312915" lon="-3.129998">
        <ele>930.000000</ele>
        <time>2019-05-09T09:02:15Z</time>
      </trkpt>
      <trkpt lat="37.312897" lon="-3.129992">
        <ele>930.000000</ele>
        <time>2019-05-09T09:02:16Z</time>
      </trkpt>
      <trkpt lat="37.312880" lon="-3.129985">
        <ele>930.000000</ele>
        <time>2019-05-09T09:02:17Z</time>
      </trkpt>
      <trkpt lat="37.312862" lon="-3.129978">
        <ele>930.000000</ele>
        <time>2019-05-09T09:02:18Z</time>
      </trkpt>
      <trkpt lat="37.312845" lon="-3.129970">
        <ele>930.000000</ele>
        <time>2019-05-09T09:02:19Z</time>
      </trkpt>
      <trkpt lat="37.312827" lon="-3.129963">
        <ele>930.000000</ele>
        <time>2019-05-09T09:02:20Z</time>
      </trkpt>
      <trkpt lat="37.312810" lon="-3.129957">
        <ele>930.000000</ele>
        <time>2019-05-09T09:02:21Z</time>
      </trkpt>
      <trkpt lat="37.312793" lon="-3.129949">
        <ele>930.000000</ele>
        <time>2019-05-09T09:02:22Z</time>
      </trkpt>
      <trkpt lat="37.312777" lon="-3.129941">
        <ele>930.000000</ele>
        <time>2019-05-09T09:02:23Z</time>
      </trkpt>
      <trkpt lat="37.312757" lon="-3.129934">
        <ele>930.000000</ele>
        <time>2019-05-09T09:02:24Z</time>
      </trkpt>
      <trkpt lat="37.312740" lon="-3.129927">
        <ele>930.000000</ele>
        <time>2019-05-09T09:02:25Z</time>
      </trkpt>
      <trkpt lat="37.312723" lon="-3.129921">
        <ele>930.000000</ele>
        <time>2019-05-09T09:02:26Z</time>
      </trkpt>
      <trkpt lat="37.312707" lon="-3.129915">
        <ele>930.000000</ele>
        <time>2019-05-09T09:02:27Z</time>
      </trkpt>
      <trkpt lat="37.312690" lon="-3.129909">
        <ele>930.000000</ele>
        <time>2019-05-09T09:02:28Z</time>
      </trkpt>
      <trkpt lat="37.312675" lon="-3.129902">
        <ele>930.000000</ele>
        <time>2019-05-09T09:02:29Z</time>
      </trkpt>
      <trkpt lat="37.312660" lon="-3.129896">
        <ele>930.000000</ele>
        <time>2019-05-09T09:02:30Z</time>
      </trkpt>
      <trkpt lat="37.312645" lon="-3.129889">
        <ele>930.000000</ele>
        <time>2019-05-09T09:02:31Z</time>
      </trkpt>
      <trkpt lat="37.312632" lon="-3.129884">
        <ele>930.000000</ele>
        <time>2019-05-09T09:02:32Z</time>
      </trkpt>
      <trkpt lat="37.312613" lon="-3.129875">
        <ele>930.000000</ele>
        <time>2019-05-09T09:02:33Z</time>
      </trkpt>
      <trkpt lat="37.312598" lon="-3.129870">
        <ele>930.000000</ele>
        <time>2019-05-09T09:02:35Z</time>
      </trkpt>
      <trkpt lat="37.312585" lon="-3.129865">
        <ele>930.000000</ele>
        <time>2019-05-09T09:02:35Z</time>
      </trkpt>
      <trkpt lat="37.312568" lon="-3.129858">
        <ele>930.000000</ele>
        <time>2019-05-09T09:02:36Z</time>
      </trkpt>
      <trkpt lat="37.312553" lon="-3.129852">
        <ele>930.000000</ele>
        <time>2019-05-09T09:02:37Z</time>
      </trkpt>
      <trkpt lat="37.312538" lon="-3.129847">
        <ele>930.000000</ele>
        <time>2019-05-09T09:02:38Z</time>
      </trkpt>
      <trkpt lat="37.312525" lon="-3.129843">
        <ele>930.000000</ele>
        <time>2019-05-09T09:02:39Z</time>
      </trkpt>
      <trkpt lat="37.312512" lon="-3.129838">
        <ele>930.000000</ele>
        <time>2019-05-09T09:02:40Z</time>
      </trkpt>
      <trkpt lat="37.312498" lon="-3.129835">
        <ele>930.000000</ele>
        <time>2019-05-09T09:02:41Z</time>
      </trkpt>
      <trkpt lat="37.312485" lon="-3.129830">
        <ele>930.000000</ele>
        <time>2019-05-09T09:02:42Z</time>
      </trkpt>
      <trkpt lat="37.312470" lon="-3.129824">
        <ele>930.000000</ele>
        <time>2019-05-09T09:02:43Z</time>
      </trkpt>
      <trkpt lat="37.312458" lon="-3.129820">
        <ele>930.000000</ele>
        <time>2019-05-09T09:02:44Z</time>
      </trkpt>
      <trkpt lat="37.312447" lon="-3.129815">
        <ele>930.000000</ele>
        <time>2019-05-09T09:02:45Z</time>
      </trkpt>
      <trkpt lat="37.312437" lon="-3.129812">
        <ele>930.000000</ele>
        <time>2019-05-09T09:02:46Z</time>
      </trkpt>
      <trkpt lat="37.312425" lon="-3.129806">
        <ele>930.000000</ele>
        <time>2019-05-09T09:02:47Z</time>
      </trkpt>
      <trkpt lat="37.312412" lon="-3.129801">
        <ele>930.000000</ele>
        <time>2019-05-09T09:02:48Z</time>
      </trkpt>
      <trkpt lat="37.312400" lon="-3.129797">
        <ele>930.000000</ele>
        <time>2019-05-09T09:02:49Z</time>
      </trkpt>
      <trkpt lat="37.312388" lon="-3.129794">
        <ele>930.000000</ele>
        <time>2019-05-09T09:02:50Z</time>
      </trkpt>
      <trkpt lat="37.312375" lon="-3.129789">
        <ele>930.000000</ele>
        <time>2019-05-09T09:02:51Z</time>
      </trkpt>
      <trkpt lat="37.312363" lon="-3.129786">
        <ele>930.000000</ele>
        <time>2019-05-09T09:02:52Z</time>
      </trkpt>
      <trkpt lat="37.312350" lon="-3.129783">
        <ele>930.000000</ele>
        <time>2019-05-09T09:02:53Z</time>
      </trkpt>
      <trkpt lat="37.312340" lon="-3.129783">
        <ele>930.000000</ele>
        <time>2019-05-09T09:02:54Z</time>
      </trkpt>
      <trkpt lat="37.312328" lon="-3.129782">
        <ele>930.000000</ele>
        <time>2019-05-09T09:02:56Z</time>
      </trkpt>
      <trkpt lat="37.312317" lon="-3.129781">
        <ele>930.000000</ele>
        <time>2019-05-09T09:02:56Z</time>
      </trkpt>
      <trkpt lat="37.312303" lon="-3.129779">
        <ele>930.000000</ele>
        <time>2019-05-09T09:02:57Z</time>
      </trkpt>
      <trkpt lat="37.312292" lon="-3.129780">
        <ele>930.000000</ele>
        <time>2019-05-09T09:02:58Z</time>
      </trkpt>
      <trkpt lat="37.312278" lon="-3.129780">
        <ele>930.000000</ele>
        <time>2019-05-09T09:02:59Z</time>
      </trkpt>
      <trkpt lat="37.312267" lon="-3.129781">
        <ele>930.000000</ele>
        <time>2019-05-09T09:03:00Z</time>
      </trkpt>
      <trkpt lat="37.312253" lon="-3.129781">
        <ele>930.000000</ele>
        <time>2019-05-09T09:03:01Z</time>
      </trkpt>
      <trkpt lat="37.312242" lon="-3.129784">
        <ele>930.000000</ele>
        <time>2019-05-09T09:03:02Z</time>
      </trkpt>
      <trkpt lat="37.312228" lon="-3.129786">
        <ele>930.000000</ele>
        <time>2019-05-09T09:03:03Z</time>
      </trkpt>
      <trkpt lat="37.312213" lon="-3.129788">
        <ele>930.000000</ele>
        <time>2019-05-09T09:03:04Z</time>
      </trkpt>
      <trkpt lat="37.312198" lon="-3.129792">
        <ele>930.000000</ele>
        <time>2019-05-09T09:03:05Z</time>
      </trkpt>
      <trkpt lat="37.312183" lon="-3.129796">
        <ele>930.000000</ele>
        <time>2019-05-09T09:03:06Z</time>
      </trkpt>
      <trkpt lat="37.312168" lon="-3.129800">
        <ele>930.000000</ele>
        <time>2019-05-09T09:03:07Z</time>
      </trkpt>
      <trkpt lat="37.312153" lon="-3.129804">
        <ele>930.000000</ele>
        <time>2019-05-09T09:03:08Z</time>
      </trkpt>
      <trkpt lat="37.312138" lon="-3.129810">
        <ele>930.000000</ele>
        <time>2019-05-09T09:03:09Z</time>
      </trkpt>
      <trkpt lat="37.312122" lon="-3.129815">
        <ele>930.000000</ele>
        <time>2019-05-09T09:03:10Z</time>
      </trkpt>
      <trkpt lat="37.312105" lon="-3.129820">
        <ele>930.000000</ele>
        <time>2019-05-09T09:03:11Z</time>
      </trkpt>
      <trkpt lat="37.312088" lon="-3.129826">
        <ele>930.000000</ele>
        <time>2019-05-09T09:03:12Z</time>
      </trkpt>
      <trkpt lat="37.312072" lon="-3.129833">
        <ele>930.000000</ele>
        <time>2019-05-09T09:03:13Z</time>
      </trkpt>
      <trkpt lat="37.312057" lon="-3.129839">
        <ele>930.000000</ele>
        <time>2019-05-09T09:03:14Z</time>
      </trkpt>
      <trkpt lat="37.312040" lon="-3.129846">
        <ele>930.000000</ele>
        <time>2019-05-09T09:03:15Z</time>
      </trkpt>
      <trkpt lat="37.312023" lon="-3.129851">
        <ele>930.000000</ele>
        <time>2019-05-09T09:03:16Z</time>
      </trkpt>
      <trkpt lat="37.312008" lon="-3.129859">
        <ele>930.000000</ele>
        <time>2019-05-09T09:03:17Z</time>
      </trkpt>
      <trkpt lat="37.311995" lon="-3.129865">
        <ele>930.000000</ele>
        <time>2019-05-09T09:03:18Z</time>
      </trkpt>
      <trkpt lat="37.311980" lon="-3.129872">
        <ele>930.000000</ele>
        <time>2019-05-09T09:03:19Z</time>
      </trkpt>
      <trkpt lat="37.311963" lon="-3.129878">
        <ele>930.000000</ele>
        <time>2019-05-09T09:03:21Z</time>
      </trkpt>
      <trkpt lat="37.311947" lon="-3.129884">
        <ele>930.000000</ele>
        <time>2019-05-09T09:03:21Z</time>
      </trkpt>
      <trkpt lat="37.311930" lon="-3.129889">
        <ele>930.000000</ele>
        <time>2019-05-09T09:03:22Z</time>
      </trkpt>
      <trkpt lat="37.311915" lon="-3.129895">
        <ele>930.000000</ele>
        <time>2019-05-09T09:03:23Z</time>
      </trkpt>
      <trkpt lat="37.311897" lon="-3.129899">
        <ele>930.000000</ele>
        <time>2019-05-09T09:03:24Z</time>
      </trkpt>
      <trkpt lat="37.311880" lon="-3.129905">
        <ele>930.000000</ele>
        <time>2019-05-09T09:03:25Z</time>
      </trkpt>
      <trkpt lat="37.311863" lon="-3.129909">
        <ele>930.000000</ele>
        <time>2019-05-09T09:03:26Z</time>
      </trkpt>
      <trkpt lat="37.311847" lon="-3.129913">
        <ele>930.000000</ele>
        <time>2019-05-09T09:03:28Z</time>
      </trkpt>
      <trkpt lat="37.311828" lon="-3.129916">
        <ele>930.000000</ele>
        <time>2019-05-09T09:03:28Z</time>
      </trkpt>
      <trkpt lat="37.311812" lon="-3.129919">
        <ele>930.000000</ele>
        <time>2019-05-09T09:03:30Z</time>
      </trkpt>
      <trkpt lat="37.311797" lon="-3.129922">
        <ele>930.000000</ele>
        <time>2019-05-09T09:03:30Z</time>
      </trkpt>
      <trkpt lat="37.311780" lon="-3.129925">
        <ele>930.000000</ele>
        <time>2019-05-09T09:03:31Z</time>
      </trkpt>
      <trkpt lat="37.311763" lon="-3.129928">
        <ele>930.000000</ele>
        <time>2019-05-09T09:03:32Z</time>
      </trkpt>
      <trkpt lat="37.311747" lon="-3.129930">
        <ele>930.000000</ele>
        <time>2019-05-09T09:03:33Z</time>
      </trkpt>
      <trkpt lat="37.311728" lon="-3.129933">
        <ele>930.000000</ele>
        <time>2019-05-09T09:03:34Z</time>
      </trkpt>
      <trkpt lat="37.311715" lon="-3.129935">
        <ele>930.000000</ele>
        <time>2019-05-09T09:03:35Z</time>
      </trkpt>
      <trkpt lat="37.311700" lon="-3.129938">
        <ele>930.000000</ele>
        <time>2019-05-09T09:03:37Z</time>
      </trkpt>
      <trkpt lat="37.311687" lon="-3.129938">
        <ele>930.000000</ele>
        <time>2019-05-09T09:03:38Z</time>
      </trkpt>
      <trkpt lat="37.311672" lon="-3.129939">
        <ele>930.000000</ele>
        <time>2019-05-09T09:03:38Z</time>
      </trkpt>
      <trkpt lat="37.311657" lon="-3.129942">
        <ele>930.000000</ele>
        <time>2019-05-09T09:03:39Z</time>
      </trkpt>
      <trkpt lat="37.311643" lon="-3.129943">
        <ele>930.000000</ele>
        <time>2019-05-09T09:03:40Z</time>
      </trkpt>
      <trkpt lat="37.311630" lon="-3.129946">
        <ele>930.000000</ele>
        <time>2019-05-09T09:03:41Z</time>
      </trkpt>
      <trkpt lat="37.311617" lon="-3.129947">
        <ele>930.000000</ele>
        <time>2019-05-09T09:03:42Z</time>
      </trkpt>
      <trkpt lat="37.311603" lon="-3.129950">
        <ele>930.000000</ele>
        <time>2019-05-09T09:03:43Z</time>
      </trkpt>
      <trkpt lat="37.311588" lon="-3.129951">
        <ele>930.000000</ele>
        <time>2019-05-09T09:03:44Z</time>
      </trkpt>
      <trkpt lat="37.311577" lon="-3.129954">
        <ele>930.000000</ele>
        <time>2019-05-09T09:03:45Z</time>
      </trkpt>
      <trkpt lat="37.311565" lon="-3.129956">
        <ele>930.000000</ele>
        <time>2019-05-09T09:03:46Z</time>
      </trkpt>
      <trkpt lat="37.311553" lon="-3.129957">
        <ele>930.000000</ele>
        <time>2019-05-09T09:03:47Z</time>
      </trkpt>
      <trkpt lat="37.311540" lon="-3.129960">
        <ele>930.000000</ele>
        <time>2019-05-09T09:03:48Z</time>
      </trkpt>
      <trkpt lat="37.311527" lon="-3.129962">
        <ele>930.000000</ele>
        <time>2019-05-09T09:03:49Z</time>
      </trkpt>
      <trkpt lat="37.311513" lon="-3.129965">
        <ele>930.000000</ele>
        <time>2019-05-09T09:03:50Z</time>
      </trkpt>
      <trkpt lat="37.311498" lon="-3.129968">
        <ele>930.000000</ele>
        <time>2019-05-09T09:03:51Z</time>
      </trkpt>
      <trkpt lat="37.311488" lon="-3.129970">
        <ele>930.000000</ele>
        <time>2019-05-09T09:03:52Z</time>
      </trkpt>
      <trkpt lat="37.311472" lon="-3.129973">
        <ele>930.000000</ele>
        <time>2019-05-09T09:03:53Z</time>
      </trkpt>
      <trkpt lat="37.311460" lon="-3.129975">
        <ele>930.000000</ele>
        <time>2019-05-09T09:03:54Z</time>
      </trkpt>
      <trkpt lat="37.311445" lon="-3.129979">
        <ele>930.000000</ele>
        <time>2019-05-09T09:03:55Z</time>
      </trkpt>
      <trkpt lat="37.311432" lon="-3.129983">
        <ele>930.000000</ele>
        <time>2019-05-09T09:03:56Z</time>
      </trkpt>
      <trkpt lat="37.311418" lon="-3.129987">
        <ele>930.000000</ele>
        <time>2019-05-09T09:03:57Z</time>
      </trkpt>
      <trkpt lat="37.311405" lon="-3.129991">
        <ele>930.000000</ele>
        <time>2019-05-09T09:03:59Z</time>
      </trkpt>
      <trkpt lat="37.311388" lon="-3.129995">
        <ele>930.000000</ele>
        <time>2019-05-09T09:03:59Z</time>
      </trkpt>
      <trkpt lat="37.311373" lon="-3.130001">
        <ele>930.000000</ele>
        <time>2019-05-09T09:04:00Z</time>
      </trkpt>
      <trkpt lat="37.311360" lon="-3.130005">
        <ele>930.000000</ele>
        <time>2019-05-09T09:04:01Z</time>
      </trkpt>
      <trkpt lat="37.311347" lon="-3.130010">
        <ele>930.000000</ele>
        <time>2019-05-09T09:04:02Z</time>
      </trkpt>
      <trkpt lat="37.311332" lon="-3.130016">
        <ele>930.000000</ele>
        <time>2019-05-09T09:04:03Z</time>
      </trkpt>
      <trkpt lat="37.311318" lon="-3.130022">
        <ele>930.000000</ele>
        <time>2019-05-09T09:04:04Z</time>
      </trkpt>
      <trkpt lat="37.311305" lon="-3.130027">
        <ele>930.000000</ele>
        <time>2019-05-09T09:04:05Z</time>
      </trkpt>
      <trkpt lat="37.311292" lon="-3.130033">
        <ele>930.000000</ele>
        <time>2019-05-09T09:04:06Z</time>
      </trkpt>
      <trkpt lat="37.311278" lon="-3.130038">
        <ele>930.000000</ele>
        <time>2019-05-09T09:04:07Z</time>
      </trkpt>
      <trkpt lat="37.311265" lon="-3.130044">
        <ele>930.000000</ele>
        <time>2019-05-09T09:04:08Z</time>
      </trkpt>
      <trkpt lat="37.311252" lon="-3.130051">
        <ele>930.000000</ele>
        <time>2019-05-09T09:04:09Z</time>
      </trkpt>
      <trkpt lat="37.311240" lon="-3.130056">
        <ele>930.000000</ele>
        <time>2019-05-09T09:04:10Z</time>
      </trkpt>
      <trkpt lat="37.311228" lon="-3.130062">
        <ele>930.000000</ele>
        <time>2019-05-09T09:04:11Z</time>
      </trkpt>
      <trkpt lat="37.311217" lon="-3.130067">
        <ele>930.000000</ele>
        <time>2019-05-09T09:04:12Z</time>
      </trkpt>
      <trkpt lat="37.311202" lon="-3.130074">
        <ele>930.000000</ele>
        <time>2019-05-09T09:04:13Z</time>
      </trkpt>
      <trkpt lat="37.311187" lon="-3.130080">
        <ele>930.000000</ele>
        <time>2019-05-09T09:04:14Z</time>
      </trkpt>
      <trkpt lat="37.311172" lon="-3.130086">
        <ele>930.000000</ele>
        <time>2019-05-09T09:04:15Z</time>
      </trkpt>
      <trkpt lat="37.311158" lon="-3.130092">
        <ele>930.000000</ele>
        <time>2019-05-09T09:04:16Z</time>
      </trkpt>
      <trkpt lat="37.311145" lon="-3.130097">
        <ele>930.000000</ele>
        <time>2019-05-09T09:04:17Z</time>
      </trkpt>
      <trkpt lat="37.311133" lon="-3.130100">
        <ele>930.000000</ele>
        <time>2019-05-09T09:04:18Z</time>
      </trkpt>
      <trkpt lat="37.311117" lon="-3.130106">
        <ele>930.000000</ele>
        <time>2019-05-09T09:04:19Z</time>
      </trkpt>
      <trkpt lat="37.311103" lon="-3.130110">
        <ele>930.000000</ele>
        <time>2019-05-09T09:04:20Z</time>
      </trkpt>
      <trkpt lat="37.311088" lon="-3.130115">
        <ele>930.000000</ele>
        <time>2019-05-09T09:04:21Z</time>
      </trkpt>
      <trkpt lat="37.311077" lon="-3.130118">
        <ele>930.000000</ele>
        <time>2019-05-09T09:04:22Z</time>
      </trkpt>
      <trkpt lat="37.311063" lon="-3.130122">
        <ele>930.000000</ele>
        <time>2019-05-09T09:04:23Z</time>
      </trkpt>
      <trkpt lat="37.311052" lon="-3.130125">
        <ele>930.000000</ele>
        <time>2019-05-09T09:04:25Z</time>
      </trkpt>
      <trkpt lat="37.311038" lon="-3.130128">
        <ele>930.000000</ele>
        <time>2019-05-09T09:04:25Z</time>
      </trkpt>
      <trkpt lat="37.311023" lon="-3.130132">
        <ele>930.000000</ele>
        <time>2019-05-09T09:04:26Z</time>
      </trkpt>
      <trkpt lat="37.311010" lon="-3.130136">
        <ele>930.000000</ele>
        <time>2019-05-09T09:04:27Z</time>
      </trkpt>
      <trkpt lat="37.310997" lon="-3.130138">
        <ele>930.000000</ele>
        <time>2019-05-09T09:04:28Z</time>
      </trkpt>
      <trkpt lat="37.310982" lon="-3.130141">
        <ele>930.000000</ele>
        <time>2019-05-09T09:04:29Z</time>
      </trkpt>
      <trkpt lat="37.310968" lon="-3.130145">
        <ele>930.000000</ele>
        <time>2019-05-09T09:04:30Z</time>
      </trkpt>
      <trkpt lat="37.310952" lon="-3.130148">
        <ele>930.000000</ele>
        <time>2019-05-09T09:04:31Z</time>
      </trkpt>
      <trkpt lat="37.310938" lon="-3.130150">
        <ele>930.000000</ele>
        <time>2019-05-09T09:04:32Z</time>
      </trkpt>
      <trkpt lat="37.310925" lon="-3.130151">
        <ele>930.000000</ele>
        <time>2019-05-09T09:04:33Z</time>
      </trkpt>
      <trkpt lat="37.310910" lon="-3.130153">
        <ele>930.000000</ele>
        <time>2019-05-09T09:04:34Z</time>
      </trkpt>
      <trkpt lat="37.310895" lon="-3.130156">
        <ele>930.000000</ele>
        <time>2019-05-09T09:04:35Z</time>
      </trkpt>
      <trkpt lat="37.310878" lon="-3.130157">
        <ele>930.000000</ele>
        <time>2019-05-09T09:04:36Z</time>
      </trkpt>
      <trkpt lat="37.310863" lon="-3.130158">
        <ele>930.000000</ele>
        <time>2019-05-09T09:04:37Z</time>
      </trkpt>
      <trkpt lat="37.310847" lon="-3.130159">
        <ele>930.000000</ele>
        <time>2019-05-09T09:04:38Z</time>
      </trkpt>
      <trkpt lat="37.310833" lon="-3.130159">
        <ele>930.000000</ele>
        <time>2019-05-09T09:04:39Z</time>
      </trkpt>
      <trkpt lat="37.310818" lon="-3.130160">
        <ele>930.000000</ele>
        <time>2019-05-09T09:04:40Z</time>
      </trkpt>
      <trkpt lat="37.310802" lon="-3.130159">
        <ele>930.000000</ele>
        <time>2019-05-09T09:04:41Z</time>
      </trkpt>
      <trkpt lat="37.310787" lon="-3.130160">
        <ele>930.000000</ele>
        <time>2019-05-09T09:04:42Z</time>
      </trkpt>
      <trkpt lat="37.310770" lon="-3.130159">
        <ele>930.000000</ele>
        <time>2019-05-09T09:04:43Z</time>
      </trkpt>
      <trkpt lat="37.310757" lon="-3.130158">
        <ele>930.000000</ele>
        <time>2019-05-09T09:04:44Z</time>
      </trkpt>
      <trkpt lat="37.310740" lon="-3.130158">
        <ele>930.000000</ele>
        <time>2019-05-09T09:04:45Z</time>
      </trkpt>
      <trkpt lat="37.310725" lon="-3.130156">
        <ele>930.000000</ele>
        <time>2019-05-09T09:04:46Z</time>
      </trkpt>
      <trkpt lat="37.310710" lon="-3.130155">
        <ele>930.000000</ele>
        <time>2019-05-09T09:04:47Z</time>
      </trkpt>
      <trkpt lat="37.310695" lon="-3.130151">
        <ele>930.000000</ele>
        <time>2019-05-09T09:04:48Z</time>
      </trkpt>
      <trkpt lat="37.310680" lon="-3.130149">
        <ele>930.000000</ele>
        <time>2019-05-09T09:04:50Z</time>
      </trkpt>
      <trkpt lat="37.310665" lon="-3.130147">
        <ele>930.000000</ele>
        <time>2019-05-09T09:04:50Z</time>
      </trkpt>
      <trkpt lat="37.310648" lon="-3.130145">
        <ele>930.000000</ele>
        <time>2019-05-09T09:04:51Z</time>
      </trkpt>
      <trkpt lat="37.310633" lon="-3.130142">
        <ele>930.000000</ele>
        <time>2019-05-09T09:04:52Z</time>
      </trkpt>
      <trkpt lat="37.310620" lon="-3.130139">
        <ele>930.000000</ele>
        <time>2019-05-09T09:04:53Z</time>
      </trkpt>
      <trkpt lat="37.310605" lon="-3.130136">
        <ele>930.000000</ele>
        <time>2019-05-09T09:04:54Z</time>
      </trkpt>
      <trkpt lat="37.310592" lon="-3.130133">
        <ele>930.000000</ele>
        <time>2019-05-09T09:04:55Z</time>
      </trkpt>
      <trkpt lat="37.310577" lon="-3.130130">
        <ele>930.000000</ele>
        <time>2019-05-09T09:04:56Z</time>
      </trkpt>
      <trkpt lat="37.310562" lon="-3.130124">
        <ele>930.000000</ele>
        <time>2019-05-09T09:04:57Z</time>
      </trkpt>
      <trkpt lat="37.310545" lon="-3.130121">
        <ele>930.000000</ele>
        <time>2019-05-09T09:04:58Z</time>
      </trkpt>
      <trkpt lat="37.310527" lon="-3.130118">
        <ele>930.000000</ele>
        <time>2019-05-09T09:04:59Z</time>
      </trkpt>
      <trkpt lat="37.310510" lon="-3.130114">
        <ele>930.000000</ele>
        <time>2019-05-09T09:05:00Z</time>
      </trkpt>
      <trkpt lat="37.310495" lon="-3.130111">
        <ele>930.000000</ele>
        <time>2019-05-09T09:05:01Z</time>
      </trkpt>
      <trkpt lat="37.310482" lon="-3.130107">
        <ele>930.000000</ele>
        <time>2019-05-09T09:05:02Z</time>
      </trkpt>
      <trkpt lat="37.310467" lon="-3.130102">
        <ele>930.000000</ele>
        <time>2019-05-09T09:05:03Z</time>
      </trkpt>
      <trkpt lat="37.310452" lon="-3.130097">
        <ele>930.000000</ele>
        <time>2019-05-09T09:05:04Z</time>
      </trkpt>
      <trkpt lat="37.310437" lon="-3.130094">
        <ele>930.000000</ele>
        <time>2019-05-09T09:05:05Z</time>
      </trkpt>
      <trkpt lat="37.310423" lon="-3.130090">
        <ele>930.000000</ele>
        <time>2019-05-09T09:05:06Z</time>
      </trkpt>
      <trkpt lat="37.310408" lon="-3.130087">
        <ele>930.000000</ele>
        <time>2019-05-09T09:05:07Z</time>
      </trkpt>
      <trkpt lat="37.310395" lon="-3.130084">
        <ele>930.000000</ele>
        <time>2019-05-09T09:05:08Z</time>
      </trkpt>
      <trkpt lat="37.310382" lon="-3.130080">
        <ele>930.000000</ele>
        <time>2019-05-09T09:05:09Z</time>
      </trkpt>
      <trkpt lat="37.310367" lon="-3.130078">
        <ele>930.000000</ele>
        <time>2019-05-09T09:05:11Z</time>
      </trkpt>
      <trkpt lat="37.310352" lon="-3.130076">
        <ele>930.000000</ele>
        <time>2019-05-09T09:05:11Z</time>
      </trkpt>
      <trkpt lat="37.310337" lon="-3.130074">
        <ele>930.000000</ele>
        <time>2019-05-09T09:05:12Z</time>
      </trkpt>
      <trkpt lat="37.310325" lon="-3.130074">
        <ele>930.000000</ele>
        <time>2019-05-09T09:05:13Z</time>
      </trkpt>
      <trkpt lat="37.310310" lon="-3.130073">
        <ele>930.000000</ele>
        <time>2019-05-09T09:05:14Z</time>
      </trkpt>
      <trkpt lat="37.310297" lon="-3.130073">
        <ele>930.000000</ele>
        <time>2019-05-09T09:05:15Z</time>
      </trkpt>
      <trkpt lat="37.310283" lon="-3.130073">
        <ele>930.000000</ele>
        <time>2019-05-09T09:05:16Z</time>
      </trkpt>
      <trkpt lat="37.310267" lon="-3.130074">
        <ele>930.000000</ele>
        <time>2019-05-09T09:05:17Z</time>
      </trkpt>
      <trkpt lat="37.310253" lon="-3.130075">
        <ele>930.000000</ele>
        <time>2019-05-09T09:05:18Z</time>
      </trkpt>
      <trkpt lat="37.310240" lon="-3.130076">
        <ele>929.000000</ele>
        <time>2019-05-09T09:05:19Z</time>
      </trkpt>
      <trkpt lat="37.310227" lon="-3.130079">
        <ele>929.000000</ele>
        <time>2019-05-09T09:05:20Z</time>
      </trkpt>
      <trkpt lat="37.310215" lon="-3.130082">
        <ele>929.000000</ele>
        <time>2019-05-09T09:05:21Z</time>
      </trkpt>
      <trkpt lat="37.310202" lon="-3.130085">
        <ele>929.000000</ele>
        <time>2019-05-09T09:05:22Z</time>
      </trkpt>
      <trkpt lat="37.310185" lon="-3.130089">
        <ele>929.000000</ele>
        <time>2019-05-09T09:05:23Z</time>
      </trkpt>
      <trkpt lat="37.310172" lon="-3.130093">
        <ele>929.000000</ele>
        <time>2019-05-09T09:05:24Z</time>
      </trkpt>
      <trkpt lat="37.310160" lon="-3.130097">
        <ele>929.000000</ele>
        <time>2019-05-09T09:05:25Z</time>
      </trkpt>
      <trkpt lat="37.310142" lon="-3.130100">
        <ele>929.000000</ele>
        <time>2019-05-09T09:05:26Z</time>
      </trkpt>
      <trkpt lat="37.310123" lon="-3.130104">
        <ele>929.000000</ele>
        <time>2019-05-09T09:05:27Z</time>
      </trkpt>
      <trkpt lat="37.310105" lon="-3.130107">
        <ele>929.000000</ele>
        <time>2019-05-09T09:05:28Z</time>
      </trkpt>
      <trkpt lat="37.310088" lon="-3.130111">
        <ele>929.000000</ele>
        <time>2019-05-09T09:05:29Z</time>
      </trkpt>
      <trkpt lat="37.310073" lon="-3.130115">
        <ele>929.000000</ele>
        <time>2019-05-09T09:05:30Z</time>
      </trkpt>
      <trkpt lat="37.310057" lon="-3.130118">
        <ele>929.000000</ele>
        <time>2019-05-09T09:05:31Z</time>
      </trkpt>
      <trkpt lat="37.310040" lon="-3.130123">
        <ele>929.000000</ele>
        <time>2019-05-09T09:05:32Z</time>
      </trkpt>
      <trkpt lat="37.310025" lon="-3.130126">
        <ele>929.000000</ele>
        <time>2019-05-09T09:05:33Z</time>
      </trkpt>
      <trkpt lat="37.310012" lon="-3.130127">
        <ele>929.000000</ele>
        <time>2019-05-09T09:05:34Z</time>
      </trkpt>
      <trkpt lat="37.309997" lon="-3.130130">
        <ele>929.000000</ele>
        <time>2019-05-09T09:05:36Z</time>
      </trkpt>
      <trkpt lat="37.309980" lon="-3.130131">
        <ele>929.000000</ele>
        <time>2019-05-09T09:05:36Z</time>
      </trkpt>
      <trkpt lat="37.309963" lon="-3.130133">
        <ele>929.000000</ele>
        <time>2019-05-09T09:05:37Z</time>
      </trkpt>
      <trkpt lat="37.309948" lon="-3.130133">
        <ele>929.000000</ele>
        <time>2019-05-09T09:05:38Z</time>
      </trkpt>
      <trkpt lat="37.309935" lon="-3.130132">
        <ele>929.000000</ele>
        <time>2019-05-09T09:05:39Z</time>
      </trkpt>
      <trkpt lat="37.309918" lon="-3.130132">
        <ele>929.000000</ele>
        <time>2019-05-09T09:05:40Z</time>
      </trkpt>
      <trkpt lat="37.309903" lon="-3.130132">
        <ele>929.000000</ele>
        <time>2019-05-09T09:05:41Z</time>
      </trkpt>
      <trkpt lat="37.309885" lon="-3.130132">
        <ele>929.000000</ele>
        <time>2019-05-09T09:05:42Z</time>
      </trkpt>
      <trkpt lat="37.309867" lon="-3.130130">
        <ele>929.000000</ele>
        <time>2019-05-09T09:05:43Z</time>
      </trkpt>
      <trkpt lat="37.309853" lon="-3.130130">
        <ele>929.000000</ele>
        <time>2019-05-09T09:05:44Z</time>
      </trkpt>
      <trkpt lat="37.309840" lon="-3.130128">
        <ele>929.000000</ele>
        <time>2019-05-09T09:05:45Z</time>
      </trkpt>
      <trkpt lat="37.309827" lon="-3.130125">
        <ele>929.000000</ele>
        <time>2019-05-09T09:05:46Z</time>
      </trkpt>
      <trkpt lat="37.309815" lon="-3.130123">
        <ele>929.000000</ele>
        <time>2019-05-09T09:05:47Z</time>
      </trkpt>
      <trkpt lat="37.309802" lon="-3.130120">
        <ele>929.000000</ele>
        <time>2019-05-09T09:05:48Z</time>
      </trkpt>
      <trkpt lat="37.309788" lon="-3.130117">
        <ele>929.000000</ele>
        <time>2019-05-09T09:05:49Z</time>
      </trkpt>
      <trkpt lat="37.309777" lon="-3.130114">
        <ele>929.000000</ele>
        <time>2019-05-09T09:05:50Z</time>
      </trkpt>
      <trkpt lat="37.309765" lon="-3.130109">
        <ele>929.000000</ele>
        <time>2019-05-09T09:05:51Z</time>
      </trkpt>
      <trkpt lat="37.309755" lon="-3.130105">
        <ele>929.000000</ele>
        <time>2019-05-09T09:05:53Z</time>
      </trkpt>
      <trkpt lat="37.309752" lon="-3.130100">
        <ele>928.000000</ele>
        <time>2019-05-09T09:05:53Z</time>
      </trkpt>
      <trkpt lat="37.309750" lon="-3.130096">
        <ele>928.000000</ele>
        <time>2019-05-09T09:05:54Z</time>
      </trkpt>
      <trkpt lat="37.309747" lon="-3.130092">
        <ele>928.000000</ele>
        <time>2019-05-09T09:05:55Z</time>
      </trkpt>
      <trkpt lat="37.309745" lon="-3.130088">
        <ele>928.000000</ele>
        <time>2019-05-09T09:05:57Z</time>
      </trkpt>
      <trkpt lat="37.309743" lon="-3.130084">
        <ele>928.000000</ele>
        <time>2019-05-09T09:05:58Z</time>
      </trkpt>
      <trkpt lat="37.309735" lon="-3.130050">
        <ele>928.000000</ele>
        <time>2019-05-09T09:05:59Z</time>
      </trkpt>
      <trkpt lat="37.309727" lon="-3.130048">
        <ele>928.000000</ele>
        <time>2019-05-09T09:06:00Z</time>
      </trkpt>
      <trkpt lat="37.309717" lon="-3.130045">
        <ele>928.000000</ele>
        <time>2019-05-09T09:06:02Z</time>
      </trkpt>
      <trkpt lat="37.309705" lon="-3.130043">
        <ele>928.000000</ele>
        <time>2019-05-09T09:06:02Z</time>
      </trkpt>
      <trkpt lat="37.309693" lon="-3.130041">
        <ele>928.000000</ele>
        <time>2019-05-09T09:06:04Z</time>
      </trkpt>
      <trkpt lat="37.309680" lon="-3.130036">
        <ele>928.000000</ele>
        <time>2019-05-09T09:06:05Z</time>
      </trkpt>
      <trkpt lat="37.309667" lon="-3.130032">
        <ele>928.000000</ele>
        <time>2019-05-09T09:06:05Z</time>
      </trkpt>
      <trkpt lat="37.309657" lon="-3.130028">
        <ele>928.000000</ele>
        <time>2019-05-09T09:06:06Z</time>
      </trkpt>
      <trkpt lat="37.309642" lon="-3.130023">
        <ele>928.000000</ele>
        <time>2019-05-09T09:06:07Z</time>
      </trkpt>
      <trkpt lat="37.309628" lon="-3.130019">
        <ele>928.000000</ele>
        <time>2019-05-09T09:06:08Z</time>
      </trkpt>
      <trkpt lat="37.309613" lon="-3.130014">
        <ele>928.000000</ele>
        <time>2019-05-09T09:06:09Z</time>
      </trkpt>
      <trkpt lat="37.309598" lon="-3.130010">
        <ele>928.000000</ele>
        <time>2019-05-09T09:06:10Z</time>
      </trkpt>
      <trkpt lat="37.309585" lon="-3.130005">
        <ele>928.000000</ele>
        <time>2019-05-09T09:06:12Z</time>
      </trkpt>
      <trkpt lat="37.309573" lon="-3.130000">
        <ele>928.000000</ele>
        <time>2019-05-09T09:06:12Z</time>
      </trkpt>
      <trkpt lat="37.309560" lon="-3.129995">
        <ele>928.000000</ele>
        <time>2019-05-09T09:06:13Z</time>
      </trkpt>
      <trkpt lat="37.309547" lon="-3.129990">
        <ele>928.000000</ele>
        <time>2019-05-09T09:06:14Z</time>
      </trkpt>
      <trkpt lat="37.309530" lon="-3.129987">
        <ele>928.000000</ele>
        <time>2019-05-09T09:06:16Z</time>
      </trkpt>
      <trkpt lat="37.309515" lon="-3.129986">
        <ele>928.000000</ele>
        <time>2019-05-09T09:06:16Z</time>
      </trkpt>
      <trkpt lat="37.309502" lon="-3.129987">
        <ele>928.000000</ele>
        <time>2019-05-09T09:06:18Z</time>
      </trkpt>
      <trkpt lat="37.309487" lon="-3.130010">
        <ele>928.000000</ele>
        <time>2019-05-09T09:06:18Z</time>
      </trkpt>
      <trkpt lat="37.309475" lon="-3.130011">
        <ele>928.000000</ele>
        <time>2019-05-09T09:06:18Z</time>
      </trkpt>
      <trkpt lat="37.309462" lon="-3.130015">
        <ele>928.000000</ele>
        <time>2019-05-09T09:06:19Z</time>
      </trkpt>
      <trkpt lat="37.309448" lon="-3.130020">
        <ele>928.000000</ele>
        <time>2019-05-09T09:06:20Z</time>
      </trkpt>
      <trkpt lat="37.309435" lon="-3.130027">
        <ele>928.000000</ele>
        <time>2019-05-09T09:06:21Z</time>
      </trkpt>
      <trkpt lat="37.309422" lon="-3.130034">
        <ele>928.000000</ele>
        <time>2019-05-09T09:06:22Z</time>
      </trkpt>
      <trkpt lat="37.309408" lon="-3.130042">
        <ele>928.000000</ele>
        <time>2019-05-09T09:06:23Z</time>
      </trkpt>
      <trkpt lat="37.309397" lon="-3.130048">
        <ele>928.000000</ele>
        <time>2019-05-09T09:06:24Z</time>
      </trkpt>
      <trkpt lat="37.309387" lon="-3.130053">
        <ele>928.000000</ele>
        <time>2019-05-09T09:06:26Z</time>
      </trkpt>
      <trkpt lat="37.309375" lon="-3.130060">
        <ele>928.000000</ele>
        <time>2019-05-09T09:06:26Z</time>
      </trkpt>
      <trkpt lat="37.309363" lon="-3.130067">
        <ele>928.000000</ele>
        <time>2019-05-09T09:06:27Z</time>
      </trkpt>
      <trkpt lat="37.309347" lon="-3.130075">
        <ele>928.000000</ele>
        <time>2019-05-09T09:06:28Z</time>
      </trkpt>
      <trkpt lat="37.309323" lon="-3.130082">
        <ele>928.000000</ele>
        <time>2019-05-09T09:06:29Z</time>
      </trkpt>
      <trkpt lat="37.309300" lon="-3.130084">
        <ele>928.000000</ele>
        <time>2019-05-09T09:06:30Z</time>
      </trkpt>
      <trkpt lat="37.309278" lon="-3.130084">
        <ele>928.000000</ele>
        <time>2019-05-09T09:06:31Z</time>
      </trkpt>
      <trkpt lat="37.309263" lon="-3.130083">
        <ele>928.000000</ele>
        <time>2019-05-09T09:06:32Z</time>
      </trkpt>
      <trkpt lat="37.309248" lon="-3.130087">
        <ele>928.000000</ele>
        <time>2019-05-09T09:06:33Z</time>
      </trkpt>
      <trkpt lat="37.309242" lon="-3.130091">
        <ele>928.000000</ele>
        <time>2019-05-09T09:06:35Z</time>
      </trkpt>
      <trkpt lat="37.309238" lon="-3.130096">
        <ele>928.000000</ele>
        <time>2019-05-09T09:06:35Z</time>
      </trkpt>
      <trkpt lat="37.309228" lon="-3.130132">
        <ele>928.000000</ele>
        <time>2019-05-09T09:06:36Z</time>
      </trkpt>
      <trkpt lat="37.309218" lon="-3.130148">
        <ele>928.000000</ele>
        <time>2019-05-09T09:06:37Z</time>
      </trkpt>
      <trkpt lat="37.309208" lon="-3.130161">
        <ele>928.000000</ele>
        <time>2019-05-09T09:06:38Z</time>
      </trkpt>
      <trkpt lat="37.309198" lon="-3.130175">
        <ele>928.000000</ele>
        <time>2019-05-09T09:06:40Z</time>
      </trkpt>
      <trkpt lat="37.309185" lon="-3.130190">
        <ele>928.000000</ele>
        <time>2019-05-09T09:06:40Z</time>
      </trkpt>
      <trkpt lat="37.309173" lon="-3.130202">
        <ele>928.000000</ele>
        <time>2019-05-09T09:06:41Z</time>
      </trkpt>
      <trkpt lat="37.309162" lon="-3.130214">
        <ele>928.000000</ele>
        <time>2019-05-09T09:06:42Z</time>
      </trkpt>
      <trkpt lat="37.309148" lon="-3.130228">
        <ele>928.000000</ele>
        <time>2019-05-09T09:06:43Z</time>
      </trkpt>
      <trkpt lat="37.309138" lon="-3.130237">
        <ele>928.000000</ele>
        <time>2019-05-09T09:06:44Z</time>
      </trkpt>
      <trkpt lat="37.309130" lon="-3.130245">
        <ele>928.000000</ele>
        <time>2019-05-09T09:06:45Z</time>
      </trkpt>
      <trkpt lat="37.309120" lon="-3.130253">
        <ele>928.000000</ele>
        <time>2019-05-09T09:06:46Z</time>
      </trkpt>
      <trkpt lat="37.309110" lon="-3.130262">
        <ele>928.000000</ele>
        <time>2019-05-09T09:06:48Z</time>
      </trkpt>
      <trkpt lat="37.309100" lon="-3.130271">
        <ele>928.000000</ele>
        <time>2019-05-09T09:06:48Z</time>
      </trkpt>
      <trkpt lat="37.309090" lon="-3.130280">
        <ele>928.000000</ele>
        <time>2019-05-09T09:06:49Z</time>
      </trkpt>
      <trkpt lat="37.309078" lon="-3.130290">
        <ele>928.000000</ele>
        <time>2019-05-09T09:06:50Z</time>
      </trkpt>
      <trkpt lat="37.309073" lon="-3.130294">
        <ele>928.000000</ele>
        <time>2019-05-09T09:06:51Z</time>
      </trkpt>
      <trkpt lat="37.309063" lon="-3.130303">
        <ele>928.000000</ele>
        <time>2019-05-09T09:06:52Z</time>
      </trkpt>
      <trkpt lat="37.309052" lon="-3.130314">
        <ele>928.000000</ele>
        <time>2019-05-09T09:06:53Z</time>
      </trkpt>
      <trkpt lat="37.309040" lon="-3.130325">
        <ele>928.000000</ele>
        <time>2019-05-09T09:06:54Z</time>
      </trkpt>
      <trkpt lat="37.309027" lon="-3.130336">
        <ele>928.000000</ele>
        <time>2019-05-09T09:06:55Z</time>
      </trkpt>
      <trkpt lat="37.309013" lon="-3.130348">
        <ele>928.000000</ele>
        <time>2019-05-09T09:06:56Z</time>
      </trkpt>
      <trkpt lat="37.309003" lon="-3.130356">
        <ele>928.000000</ele>
        <time>2019-05-09T09:06:57Z</time>
      </trkpt>
      <trkpt lat="37.308990" lon="-3.130367">
        <ele>928.000000</ele>
        <time>2019-05-09T09:06:58Z</time>
      </trkpt>
      <trkpt lat="37.308978" lon="-3.130377">
        <ele>928.000000</ele>
        <time>2019-05-09T09:07:00Z</time>
      </trkpt>
      <trkpt lat="37.308967" lon="-3.130387">
        <ele>928.000000</ele>
        <time>2019-05-09T09:07:00Z</time>
      </trkpt>
      <trkpt lat="37.308953" lon="-3.130400">
        <ele>928.000000</ele>
        <time>2019-05-09T09:07:01Z</time>
      </trkpt>
      <trkpt lat="37.308938" lon="-3.130414">
        <ele>928.000000</ele>
        <time>2019-05-09T09:07:02Z</time>
      </trkpt>
      <trkpt lat="37.308923" lon="-3.130428">
        <ele>928.000000</ele>
        <time>2019-05-09T09:07:03Z</time>
      </trkpt>
      <trkpt lat="37.308908" lon="-3.130443">
        <ele>928.000000</ele>
        <time>2019-05-09T09:07:04Z</time>
      </trkpt>
      <trkpt lat="37.308897" lon="-3.130454">
        <ele>928.000000</ele>
        <time>2019-05-09T09:07:05Z</time>
      </trkpt>
      <trkpt lat="37.308887" lon="-3.130464">
        <ele>928.000000</ele>
        <time>2019-05-09T09:07:06Z</time>
      </trkpt>
      <trkpt lat="37.308875" lon="-3.130476">
        <ele>928.000000</ele>
        <time>2019-05-09T09:07:07Z</time>
      </trkpt>
      <trkpt lat="37.308867" lon="-3.130484">
        <ele>928.000000</ele>
        <time>2019-05-09T09:07:09Z</time>
      </trkpt>
      <trkpt lat="37.308857" lon="-3.130494">
        <ele>927.000000</ele>
        <time>2019-05-09T09:07:09Z</time>
      </trkpt>
      <trkpt lat="37.308847" lon="-3.130505">
        <ele>927.000000</ele>
        <time>2019-05-09T09:07:10Z</time>
      </trkpt>
      <trkpt lat="37.308837" lon="-3.130515">
        <ele>927.000000</ele>
        <time>2019-05-09T09:07:11Z</time>
      </trkpt>
      <trkpt lat="37.308827" lon="-3.130526">
        <ele>927.000000</ele>
        <time>2019-05-09T09:07:12Z</time>
      </trkpt>
      <trkpt lat="37.308818" lon="-3.130534">
        <ele>927.000000</ele>
        <time>2019-05-09T09:07:13Z</time>
      </trkpt>
      <trkpt lat="37.308807" lon="-3.130547">
        <ele>927.000000</ele>
        <time>2019-05-09T09:07:14Z</time>
      </trkpt>
      <trkpt lat="37.308797" lon="-3.130557">
        <ele>927.000000</ele>
        <time>2019-05-09T09:07:15Z</time>
      </trkpt>
      <trkpt lat="37.308787" lon="-3.130568">
        <ele>927.000000</ele>
        <time>2019-05-09T09:07:16Z</time>
      </trkpt>
      <trkpt lat="37.308775" lon="-3.130580">
        <ele>927.000000</ele>
        <time>2019-05-09T09:07:17Z</time>
      </trkpt>
      <trkpt lat="37.308763" lon="-3.130591">
        <ele>927.000000</ele>
        <time>2019-05-09T09:07:18Z</time>
      </trkpt>
      <trkpt lat="37.308748" lon="-3.130604">
        <ele>927.000000</ele>
        <time>2019-05-09T09:07:19Z</time>
      </trkpt>
      <trkpt lat="37.308735" lon="-3.130616">
        <ele>927.000000</ele>
        <time>2019-05-09T09:07:20Z</time>
      </trkpt>
      <trkpt lat="37.308725" lon="-3.130624">
        <ele>927.000000</ele>
        <time>2019-05-09T09:07:21Z</time>
      </trkpt>
      <trkpt lat="37.308713" lon="-3.130634">
        <ele>927.000000</ele>
        <time>2019-05-09T09:07:22Z</time>
      </trkpt>
      <trkpt lat="37.308703" lon="-3.130644">
        <ele>927.000000</ele>
        <time>2019-05-09T09:07:23Z</time>
      </trkpt>
      <trkpt lat="37.308692" lon="-3.130653">
        <ele>927.000000</ele>
        <time>2019-05-09T09:07:25Z</time>
      </trkpt>
      <trkpt lat="37.308687" lon="-3.130657">
        <ele>927.000000</ele>
        <time>2019-05-09T09:07:25Z</time>
      </trkpt>
      <trkpt lat="37.308677" lon="-3.130665">
        <ele>927.000000</ele>
        <time>2019-05-09T09:07:26Z</time>
      </trkpt>
      <trkpt lat="37.308663" lon="-3.130676">
        <ele>927.000000</ele>
        <time>2019-05-09T09:07:27Z</time>
      </trkpt>
      <trkpt lat="37.308648" lon="-3.130688">
        <ele>927.000000</ele>
        <time>2019-05-09T09:07:28Z</time>
      </trkpt>
      <trkpt lat="37.308635" lon="-3.130699">
        <ele>927.000000</ele>
        <time>2019-05-09T09:07:29Z</time>
      </trkpt>
      <trkpt lat="37.308622" lon="-3.130709">
        <ele>927.000000</ele>
        <time>2019-05-09T09:07:30Z</time>
      </trkpt>
      <trkpt lat="37.308610" lon="-3.130719">
        <ele>927.000000</ele>
        <time>2019-05-09T09:07:31Z</time>
      </trkpt>
      <trkpt lat="37.308600" lon="-3.130727">
        <ele>927.000000</ele>
        <time>2019-05-09T09:07:32Z</time>
      </trkpt>
      <trkpt lat="37.308588" lon="-3.130736">
        <ele>927.000000</ele>
        <time>2019-05-09T09:07:33Z</time>
      </trkpt>
      <trkpt lat="37.308575" lon="-3.130748">
        <ele>927.000000</ele>
        <time>2019-05-09T09:07:34Z</time>
      </trkpt>
      <trkpt lat="37.308558" lon="-3.130762">
        <ele>927.000000</ele>
        <time>2019-05-09T09:07:35Z</time>
      </trkpt>
      <trkpt lat="37.308547" lon="-3.130772">
        <ele>927.000000</ele>
        <time>2019-05-09T09:07:36Z</time>
      </trkpt>
      <trkpt lat="37.308533" lon="-3.130784">
        <ele>927.000000</ele>
        <time>2019-05-09T09:07:37Z</time>
      </trkpt>
      <trkpt lat="37.308518" lon="-3.130797">
        <ele>927.000000</ele>
        <time>2019-05-09T09:07:38Z</time>
      </trkpt>
      <trkpt lat="37.308503" lon="-3.130810">
        <ele>927.000000</ele>
        <time>2019-05-09T09:07:39Z</time>
      </trkpt>
      <trkpt lat="37.308488" lon="-3.130824">
        <ele>927.000000</ele>
        <time>2019-05-09T09:07:40Z</time>
      </trkpt>
      <trkpt lat="37.308473" lon="-3.130837">
        <ele>926.000000</ele>
        <time>2019-05-09T09:07:41Z</time>
      </trkpt>
      <trkpt lat="37.308458" lon="-3.130850">
        <ele>926.000000</ele>
        <time>2019-05-09T09:07:42Z</time>
      </trkpt>
      <trkpt lat="37.308443" lon="-3.130862">
        <ele>926.000000</ele>
        <time>2019-05-09T09:07:43Z</time>
      </trkpt>
      <trkpt lat="37.308428" lon="-3.130875">
        <ele>926.000000</ele>
        <time>2019-05-09T09:07:44Z</time>
      </trkpt>
      <trkpt lat="37.308413" lon="-3.130888">
        <ele>926.000000</ele>
        <time>2019-05-09T09:07:45Z</time>
      </trkpt>
      <trkpt lat="37.308400" lon="-3.130899">
        <ele>926.000000</ele>
        <time>2019-05-09T09:07:46Z</time>
      </trkpt>
      <trkpt lat="37.308387" lon="-3.130909">
        <ele>926.000000</ele>
        <time>2019-05-09T09:07:47Z</time>
      </trkpt>
      <trkpt lat="37.308370" lon="-3.130923">
        <ele>925.000000</ele>
        <time>2019-05-09T09:07:48Z</time>
      </trkpt>
      <trkpt lat="37.308357" lon="-3.130933">
        <ele>925.000000</ele>
        <time>2019-05-09T09:07:49Z</time>
      </trkpt>
      <trkpt lat="37.308343" lon="-3.130944">
        <ele>925.000000</ele>
        <time>2019-05-09T09:07:50Z</time>
      </trkpt>
      <trkpt lat="37.308330" lon="-3.130956">
        <ele>925.000000</ele>
        <time>2019-05-09T09:07:51Z</time>
      </trkpt>
      <trkpt lat="37.308315" lon="-3.130968">
        <ele>925.000000</ele>
        <time>2019-05-09T09:07:52Z</time>
      </trkpt>
      <trkpt lat="37.308302" lon="-3.130977">
        <ele>925.000000</ele>
        <time>2019-05-09T09:07:53Z</time>
      </trkpt>
      <trkpt lat="37.308287" lon="-3.130987">
        <ele>925.000000</ele>
        <time>2019-05-09T09:07:54Z</time>
      </trkpt>
      <trkpt lat="37.308272" lon="-3.130997">
        <ele>925.000000</ele>
        <time>2019-05-09T09:07:55Z</time>
      </trkpt>
      <trkpt lat="37.308257" lon="-3.131005">
        <ele>925.000000</ele>
        <time>2019-05-09T09:07:56Z</time>
      </trkpt>
      <trkpt lat="37.308243" lon="-3.130952">
        <ele>924.000000</ele>
        <time>2019-05-09T09:07:57Z</time>
      </trkpt>
      <trkpt lat="37.308232" lon="-3.130947">
        <ele>924.000000</ele>
        <time>2019-05-09T09:07:58Z</time>
      </trkpt>
      <trkpt lat="37.308217" lon="-3.130945">
        <ele>924.000000</ele>
        <time>2019-05-09T09:07:59Z</time>
      </trkpt>
      <trkpt lat="37.308203" lon="-3.130945">
        <ele>924.000000</ele>
        <time>2019-05-09T09:08:00Z</time>
      </trkpt>
      <trkpt lat="37.308188" lon="-3.130947">
        <ele>924.000000</ele>
        <time>2019-05-09T09:08:01Z</time>
      </trkpt>
      <trkpt lat="37.308173" lon="-3.130953">
        <ele>924.000000</ele>
        <time>2019-05-09T09:08:02Z</time>
      </trkpt>
      <trkpt lat="37.308158" lon="-3.130961">
        <ele>924.000000</ele>
        <time>2019-05-09T09:08:03Z</time>
      </trkpt>
      <trkpt lat="37.308145" lon="-3.130969">
        <ele>924.000000</ele>
        <time>2019-05-09T09:08:04Z</time>
      </trkpt>
      <trkpt lat="37.308133" lon="-3.130976">
        <ele>924.000000</ele>
        <time>2019-05-09T09:08:05Z</time>
      </trkpt>
      <trkpt lat="37.308123" lon="-3.130988">
        <ele>924.000000</ele>
        <time>2019-05-09T09:08:06Z</time>
      </trkpt>
      <trkpt lat="37.308113" lon="-3.130993">
        <ele>924.000000</ele>
        <time>2019-05-09T09:08:07Z</time>
      </trkpt>
      <trkpt lat="37.308105" lon="-3.130999">
        <ele>924.000000</ele>
        <time>2019-05-09T09:08:08Z</time>
      </trkpt>
      <trkpt lat="37.308093" lon="-3.131010">
        <ele>924.000000</ele>
        <time>2019-05-09T09:08:09Z</time>
      </trkpt>
      <trkpt lat="37.308083" lon="-3.131021">
        <ele>924.000000</ele>
        <time>2019-05-09T09:08:10Z</time>
      </trkpt>
      <trkpt lat="37.308072" lon="-3.131033">
        <ele>924.000000</ele>
        <time>2019-05-09T09:08:12Z</time>
      </trkpt>
      <trkpt lat="37.308062" lon="-3.131042">
        <ele>924.000000</ele>
        <time>2019-05-09T09:08:12Z</time>
      </trkpt>
      <trkpt lat="37.308050" lon="-3.131052">
        <ele>924.000000</ele>
        <time>2019-05-09T09:08:13Z</time>
      </trkpt>
      <trkpt lat="37.308037" lon="-3.131064">
        <ele>924.000000</ele>
        <time>2019-05-09T09:08:14Z</time>
      </trkpt>
      <trkpt lat="37.308023" lon="-3.131075">
        <ele>924.000000</ele>
        <time>2019-05-09T09:08:15Z</time>
      </trkpt>
      <trkpt lat="37.308008" lon="-3.131086">
        <ele>924.000000</ele>
        <time>2019-05-09T09:08:16Z</time>
      </trkpt>
      <trkpt lat="37.307997" lon="-3.131095">
        <ele>924.000000</ele>
        <time>2019-05-09T09:08:17Z</time>
      </trkpt>
      <trkpt lat="37.307982" lon="-3.131105">
        <ele>924.000000</ele>
        <time>2019-05-09T09:08:18Z</time>
      </trkpt>
      <trkpt lat="37.307968" lon="-3.131115">
        <ele>924.000000</ele>
        <time>2019-05-09T09:08:19Z</time>
      </trkpt>
      <trkpt lat="37.307953" lon="-3.131126">
        <ele>924.000000</ele>
        <time>2019-05-09T09:08:20Z</time>
      </trkpt>
      <trkpt lat="37.307940" lon="-3.131134">
        <ele>924.000000</ele>
        <time>2019-05-09T09:08:21Z</time>
      </trkpt>
      <trkpt lat="37.307927" lon="-3.131143">
        <ele>924.000000</ele>
        <time>2019-05-09T09:08:22Z</time>
      </trkpt>
      <trkpt lat="37.307913" lon="-3.131153">
        <ele>924.000000</ele>
        <time>2019-05-09T09:08:23Z</time>
      </trkpt>
      <trkpt lat="37.307903" lon="-3.131161">
        <ele>924.000000</ele>
        <time>2019-05-09T09:08:24Z</time>
      </trkpt>
      <trkpt lat="37.307890" lon="-3.131171">
        <ele>924.000000</ele>
        <time>2019-05-09T09:08:25Z</time>
      </trkpt>
      <trkpt lat="37.307875" lon="-3.131183">
        <ele>924.000000</ele>
        <time>2019-05-09T09:08:26Z</time>
      </trkpt>
      <trkpt lat="37.307860" lon="-3.131195">
        <ele>924.000000</ele>
        <time>2019-05-09T09:08:27Z</time>
      </trkpt>
      <trkpt lat="37.307845" lon="-3.131206">
        <ele>924.000000</ele>
        <time>2019-05-09T09:08:28Z</time>
      </trkpt>
      <trkpt lat="37.307832" lon="-3.131217">
        <ele>923.000000</ele>
        <time>2019-05-09T09:08:29Z</time>
      </trkpt>
      <trkpt lat="37.307820" lon="-3.131225">
        <ele>923.000000</ele>
        <time>2019-05-09T09:08:30Z</time>
      </trkpt>
      <trkpt lat="37.307807" lon="-3.131235">
        <ele>923.000000</ele>
        <time>2019-05-09T09:08:31Z</time>
      </trkpt>
      <trkpt lat="37.307792" lon="-3.131245">
        <ele>923.000000</ele>
        <time>2019-05-09T09:08:32Z</time>
      </trkpt>
      <trkpt lat="37.307777" lon="-3.131255">
        <ele>923.000000</ele>
        <time>2019-05-09T09:08:33Z</time>
      </trkpt>
      <trkpt lat="37.307763" lon="-3.131263">
        <ele>923.000000</ele>
        <time>2019-05-09T09:08:34Z</time>
      </trkpt>
      <trkpt lat="37.307750" lon="-3.131273">
        <ele>923.000000</ele>
        <time>2019-05-09T09:08:35Z</time>
      </trkpt>
      <trkpt lat="37.307735" lon="-3.131284">
        <ele>923.000000</ele>
        <time>2019-05-09T09:08:37Z</time>
      </trkpt>
      <trkpt lat="37.307720" lon="-3.131295">
        <ele>923.000000</ele>
        <time>2019-05-09T09:08:37Z</time>
      </trkpt>
      <trkpt lat="37.307707" lon="-3.131304">
        <ele>923.000000</ele>
        <time>2019-05-09T09:08:38Z</time>
      </trkpt>
      <trkpt lat="37.307693" lon="-3.131313">
        <ele>923.000000</ele>
        <time>2019-05-09T09:08:39Z</time>
      </trkpt>
      <trkpt lat="37.307680" lon="-3.131322">
        <ele>923.000000</ele>
        <time>2019-05-09T09:08:40Z</time>
      </trkpt>
      <trkpt lat="37.307668" lon="-3.131330">
        <ele>923.000000</ele>
        <time>2019-05-09T09:08:41Z</time>
      </trkpt>
      <trkpt lat="37.307655" lon="-3.131338">
        <ele>923.000000</ele>
        <time>2019-05-09T09:08:42Z</time>
      </trkpt>
      <trkpt lat="37.307640" lon="-3.131349">
        <ele>923.000000</ele>
        <time>2019-05-09T09:08:43Z</time>
      </trkpt>
      <trkpt lat="37.307623" lon="-3.131360">
        <ele>923.000000</ele>
        <time>2019-05-09T09:08:44Z</time>
      </trkpt>
      <trkpt lat="37.307608" lon="-3.131368">
        <ele>923.000000</ele>
        <time>2019-05-09T09:08:45Z</time>
      </trkpt>
      <trkpt lat="37.307595" lon="-3.131376">
        <ele>923.000000</ele>
        <time>2019-05-09T09:08:46Z</time>
      </trkpt>
      <trkpt lat="37.307582" lon="-3.131385">
        <ele>923.000000</ele>
        <time>2019-05-09T09:08:47Z</time>
      </trkpt>
      <trkpt lat="37.307570" lon="-3.131392">
        <ele>923.000000</ele>
        <time>2019-05-09T09:08:48Z</time>
      </trkpt>
      <trkpt lat="37.307560" lon="-3.131398">
        <ele>923.000000</ele>
        <time>2019-05-09T09:08:49Z</time>
      </trkpt>
      <trkpt lat="37.307547" lon="-3.131405">
        <ele>923.000000</ele>
        <time>2019-05-09T09:08:50Z</time>
      </trkpt>
      <trkpt lat="37.307535" lon="-3.131411">
        <ele>923.000000</ele>
        <time>2019-05-09T09:08:51Z</time>
      </trkpt>
      <trkpt lat="37.307522" lon="-3.131419">
        <ele>923.000000</ele>
        <time>2019-05-09T09:08:52Z</time>
      </trkpt>
      <trkpt lat="37.307510" lon="-3.131425">
        <ele>923.000000</ele>
        <time>2019-05-09T09:08:53Z</time>
      </trkpt>
      <trkpt lat="37.307497" lon="-3.131433">
        <ele>923.000000</ele>
        <time>2019-05-09T09:08:54Z</time>
      </trkpt>
      <trkpt lat="37.307485" lon="-3.131441">
        <ele>923.000000</ele>
        <time>2019-05-09T09:08:55Z</time>
      </trkpt>
      <trkpt lat="37.307472" lon="-3.131447">
        <ele>923.000000</ele>
        <time>2019-05-09T09:08:56Z</time>
      </trkpt>
      <trkpt lat="37.307462" lon="-3.131453">
        <ele>923.000000</ele>
        <time>2019-05-09T09:08:58Z</time>
      </trkpt>
      <trkpt lat="37.307450" lon="-3.131458">
        <ele>923.000000</ele>
        <time>2019-05-09T09:08:58Z</time>
      </trkpt>
      <trkpt lat="37.307438" lon="-3.131465">
        <ele>923.000000</ele>
        <time>2019-05-09T09:08:59Z</time>
      </trkpt>
      <trkpt lat="37.307422" lon="-3.131475">
        <ele>922.000000</ele>
        <time>2019-05-09T09:09:00Z</time>
      </trkpt>
      <trkpt lat="37.307408" lon="-3.131482">
        <ele>922.000000</ele>
        <time>2019-05-09T09:09:01Z</time>
      </trkpt>
      <trkpt lat="37.307397" lon="-3.131489">
        <ele>922.000000</ele>
        <time>2019-05-09T09:09:02Z</time>
      </trkpt>
      <trkpt lat="37.307385" lon="-3.131497">
        <ele>922.000000</ele>
        <time>2019-05-09T09:09:03Z</time>
      </trkpt>
      <trkpt lat="37.307375" lon="-3.131504">
        <ele>922.000000</ele>
        <time>2019-05-09T09:09:04Z</time>
      </trkpt>
      <trkpt lat="37.307363" lon="-3.131512">
        <ele>922.000000</ele>
        <time>2019-05-09T09:09:05Z</time>
      </trkpt>
      <trkpt lat="37.307350" lon="-3.131521">
        <ele>922.000000</ele>
        <time>2019-05-09T09:09:06Z</time>
      </trkpt>
      <trkpt lat="37.307337" lon="-3.131531">
        <ele>922.000000</ele>
        <time>2019-05-09T09:09:07Z</time>
      </trkpt>
      <trkpt lat="37.307325" lon="-3.131539">
        <ele>922.000000</ele>
        <time>2019-05-09T09:09:08Z</time>
      </trkpt>
      <trkpt lat="37.307312" lon="-3.131549">
        <ele>922.000000</ele>
        <time>2019-05-09T09:09:09Z</time>
      </trkpt>
      <trkpt lat="37.307302" lon="-3.131556">
        <ele>922.000000</ele>
        <time>2019-05-09T09:09:10Z</time>
      </trkpt>
      <trkpt lat="37.307292" lon="-3.131565">
        <ele>922.000000</ele>
        <time>2019-05-09T09:09:11Z</time>
      </trkpt>
      <trkpt lat="37.307278" lon="-3.131574">
        <ele>922.000000</ele>
        <time>2019-05-09T09:09:12Z</time>
      </trkpt>
      <trkpt lat="37.307267" lon="-3.131583">
        <ele>922.000000</ele>
        <time>2019-05-09T09:09:13Z</time>
      </trkpt>
      <trkpt lat="37.307253" lon="-3.131594">
        <ele>922.000000</ele>
        <time>2019-05-09T09:09:14Z</time>
      </trkpt>
      <trkpt lat="37.307242" lon="-3.131605">
        <ele>922.000000</ele>
        <time>2019-05-09T09:09:15Z</time>
      </trkpt>
      <trkpt lat="37.307233" lon="-3.131612">
        <ele>922.000000</ele>
        <time>2019-05-09T09:09:16Z</time>
      </trkpt>
      <trkpt lat="37.307227" lon="-3.131621">
        <ele>921.000000</ele>
        <time>2019-05-09T09:09:17Z</time>
      </trkpt>
      <trkpt lat="37.307215" lon="-3.131632">
        <ele>921.000000</ele>
        <time>2019-05-09T09:09:18Z</time>
      </trkpt>
      <trkpt lat="37.307203" lon="-3.131642">
        <ele>921.000000</ele>
        <time>2019-05-09T09:09:19Z</time>
      </trkpt>
      <trkpt lat="37.307190" lon="-3.131655">
        <ele>921.000000</ele>
        <time>2019-05-09T09:09:20Z</time>
      </trkpt>
      <trkpt lat="37.307178" lon="-3.131667">
        <ele>921.000000</ele>
        <time>2019-05-09T09:09:21Z</time>
      </trkpt>
      <trkpt lat="37.307163" lon="-3.131680">
        <ele>921.000000</ele>
        <time>2019-05-09T09:09:22Z</time>
      </trkpt>
      <trkpt lat="37.307148" lon="-3.131693">
        <ele>920.000000</ele>
        <time>2019-05-09T09:09:24Z</time>
      </trkpt>
      <trkpt lat="37.307135" lon="-3.131706">
        <ele>920.000000</ele>
        <time>2019-05-09T09:09:24Z</time>
      </trkpt>
      <trkpt lat="37.307120" lon="-3.131719">
        <ele>920.000000</ele>
        <time>2019-05-09T09:09:25Z</time>
      </trkpt>
      <trkpt lat="37.307103" lon="-3.131732">
        <ele>920.000000</ele>
        <time>2019-05-09T09:09:26Z</time>
      </trkpt>
      <trkpt lat="37.307090" lon="-3.131744">
        <ele>920.000000</ele>
        <time>2019-05-09T09:09:27Z</time>
      </trkpt>
      <trkpt lat="37.307080" lon="-3.131751">
        <ele>920.000000</ele>
        <time>2019-05-09T09:09:28Z</time>
      </trkpt>
      <trkpt lat="37.307067" lon="-3.131730">
        <ele>920.000000</ele>
        <time>2019-05-09T09:09:30Z</time>
      </trkpt>
      <trkpt lat="37.307060" lon="-3.131723">
        <ele>920.000000</ele>
        <time>2019-05-09T09:09:30Z</time>
      </trkpt>
      <trkpt lat="37.307048" lon="-3.131717">
        <ele>920.000000</ele>
        <time>2019-05-09T09:09:31Z</time>
      </trkpt>
      <trkpt lat="37.307033" lon="-3.131707">
        <ele>920.000000</ele>
        <time>2019-05-09T09:09:32Z</time>
      </trkpt>
      <trkpt lat="37.307018" lon="-3.131693">
        <ele>920.000000</ele>
        <time>2019-05-09T09:09:33Z</time>
      </trkpt>
      <trkpt lat="37.307003" lon="-3.131682">
        <ele>920.000000</ele>
        <time>2019-05-09T09:09:34Z</time>
      </trkpt>
      <trkpt lat="37.306993" lon="-3.131670">
        <ele>920.000000</ele>
        <time>2019-05-09T09:09:35Z</time>
      </trkpt>
      <trkpt lat="37.306985" lon="-3.131655">
        <ele>920.000000</ele>
        <time>2019-05-09T09:09:36Z</time>
      </trkpt>
      <trkpt lat="37.306975" lon="-3.131642">
        <ele>920.000000</ele>
        <time>2019-05-09T09:09:37Z</time>
      </trkpt>
      <trkpt lat="37.306962" lon="-3.131628">
        <ele>920.000000</ele>
        <time>2019-05-09T09:09:38Z</time>
      </trkpt>
      <trkpt lat="37.306953" lon="-3.131617">
        <ele>920.000000</ele>
        <time>2019-05-09T09:09:39Z</time>
      </trkpt>
      <trkpt lat="37.306940" lon="-3.131606">
        <ele>920.000000</ele>
        <time>2019-05-09T09:09:40Z</time>
      </trkpt>
      <trkpt lat="37.306930" lon="-3.131596">
        <ele>920.000000</ele>
        <time>2019-05-09T09:09:41Z</time>
      </trkpt>
      <trkpt lat="37.306918" lon="-3.131584">
        <ele>920.000000</ele>
        <time>2019-05-09T09:09:42Z</time>
      </trkpt>
      <trkpt lat="37.306903" lon="-3.131569">
        <ele>920.000000</ele>
        <time>2019-05-09T09:09:43Z</time>
      </trkpt>
      <trkpt lat="37.306890" lon="-3.131558">
        <ele>920.000000</ele>
        <time>2019-05-09T09:09:44Z</time>
      </trkpt>
      <trkpt lat="37.306878" lon="-3.131546">
        <ele>920.000000</ele>
        <time>2019-05-09T09:09:45Z</time>
      </trkpt>
      <trkpt lat="37.306868" lon="-3.131537">
        <ele>920.000000</ele>
        <time>2019-05-09T09:09:46Z</time>
      </trkpt>
      <trkpt lat="37.306855" lon="-3.131526">
        <ele>920.000000</ele>
        <time>2019-05-09T09:09:47Z</time>
      </trkpt>
      <trkpt lat="37.306842" lon="-3.131517">
        <ele>920.000000</ele>
        <time>2019-05-09T09:09:49Z</time>
      </trkpt>
      <trkpt lat="37.306828" lon="-3.131509">
        <ele>920.000000</ele>
        <time>2019-05-09T09:09:50Z</time>
      </trkpt>
      <trkpt lat="37.306815" lon="-3.131501">
        <ele>920.000000</ele>
        <time>2019-05-09T09:09:50Z</time>
      </trkpt>
      <trkpt lat="37.306805" lon="-3.131498">
        <ele>920.000000</ele>
        <time>2019-05-09T09:09:52Z</time>
      </trkpt>
      <trkpt lat="37.306785" lon="-3.131492">
        <ele>920.000000</ele>
        <time>2019-05-09T09:09:54Z</time>
      </trkpt>
      <trkpt lat="37.306772" lon="-3.131515">
        <ele>920.000000</ele>
        <time>2019-05-09T09:09:54Z</time>
      </trkpt>
      <trkpt lat="37.306753" lon="-3.131517">
        <ele>920.000000</ele>
        <time>2019-05-09T09:09:55Z</time>
      </trkpt>
      <trkpt lat="37.306740" lon="-3.131528">
        <ele>920.000000</ele>
        <time>2019-05-09T09:09:56Z</time>
      </trkpt>
      <trkpt lat="37.306728" lon="-3.131538">
        <ele>920.000000</ele>
        <time>2019-05-09T09:09:57Z</time>
      </trkpt>
      <trkpt lat="37.306715" lon="-3.131545">
        <ele>920.000000</ele>
        <time>2019-05-09T09:09:58Z</time>
      </trkpt>
      <trkpt lat="37.306705" lon="-3.131557">
        <ele>920.000000</ele>
        <time>2019-05-09T09:09:59Z</time>
      </trkpt>
      <trkpt lat="37.306693" lon="-3.131568">
        <ele>920.000000</ele>
        <time>2019-05-09T09:10:00Z</time>
      </trkpt>
      <trkpt lat="37.306675" lon="-3.131575">
        <ele>920.000000</ele>
        <time>2019-05-09T09:10:01Z</time>
      </trkpt>
      <trkpt lat="37.306662" lon="-3.131578">
        <ele>920.000000</ele>
        <time>2019-05-09T09:10:02Z</time>
      </trkpt>
      <trkpt lat="37.306648" lon="-3.131585">
        <ele>920.000000</ele>
        <time>2019-05-09T09:10:03Z</time>
      </trkpt>
      <trkpt lat="37.306638" lon="-3.131594">
        <ele>920.000000</ele>
        <time>2019-05-09T09:10:04Z</time>
      </trkpt>
      <trkpt lat="37.306627" lon="-3.131606">
        <ele>920.000000</ele>
        <time>2019-05-09T09:10:05Z</time>
      </trkpt>
      <trkpt lat="37.306617" lon="-3.131618">
        <ele>920.000000</ele>
        <time>2019-05-09T09:10:06Z</time>
      </trkpt>
      <trkpt lat="37.306602" lon="-3.131632">
        <ele>920.000000</ele>
        <time>2019-05-09T09:10:08Z</time>
      </trkpt>
      <trkpt lat="37.306595" lon="-3.131642">
        <ele>920.000000</ele>
        <time>2019-05-09T09:10:08Z</time>
      </trkpt>
      <trkpt lat="37.306583" lon="-3.131656">
        <ele>920.000000</ele>
        <time>2019-05-09T09:10:09Z</time>
      </trkpt>
      <trkpt lat="37.306570" lon="-3.131672">
        <ele>920.000000</ele>
        <time>2019-05-09T09:10:10Z</time>
      </trkpt>
      <trkpt lat="37.306558" lon="-3.131684">
        <ele>920.000000</ele>
        <time>2019-05-09T09:10:11Z</time>
      </trkpt>
      <trkpt lat="37.306547" lon="-3.131697">
        <ele>920.000000</ele>
        <time>2019-05-09T09:10:13Z</time>
      </trkpt>
      <trkpt lat="37.306533" lon="-3.131710">
        <ele>920.000000</ele>
        <time>2019-05-09T09:10:13Z</time>
      </trkpt>
      <trkpt lat="37.306523" lon="-3.131719">
        <ele>920.000000</ele>
        <time>2019-05-09T09:10:14Z</time>
      </trkpt>
      <trkpt lat="37.306513" lon="-3.131729">
        <ele>920.000000</ele>
        <time>2019-05-09T09:10:15Z</time>
      </trkpt>
      <trkpt lat="37.306502" lon="-3.131740">
        <ele>920.000000</ele>
        <time>2019-05-09T09:10:16Z</time>
      </trkpt>
      <trkpt lat="37.306490" lon="-3.131750">
        <ele>920.000000</ele>
        <time>2019-05-09T09:10:17Z</time>
      </trkpt>
      <trkpt lat="37.306480" lon="-3.131761">
        <ele>920.000000</ele>
        <time>2019-05-09T09:10:18Z</time>
      </trkpt>
      <trkpt lat="37.306467" lon="-3.131774">
        <ele>920.000000</ele>
        <time>2019-05-09T09:10:19Z</time>
      </trkpt>
      <trkpt lat="37.306455" lon="-3.131786">
        <ele>920.000000</ele>
        <time>2019-05-09T09:10:20Z</time>
      </trkpt>
      <trkpt lat="37.306445" lon="-3.131797">
        <ele>919.000000</ele>
        <time>2019-05-09T09:10:21Z</time>
      </trkpt>
      <trkpt lat="37.306435" lon="-3.131810">
        <ele>919.000000</ele>
        <time>2019-05-09T09:10:22Z</time>
      </trkpt>
      <trkpt lat="37.306422" lon="-3.131826">
        <ele>919.000000</ele>
        <time>2019-05-09T09:10:23Z</time>
      </trkpt>
      <trkpt lat="37.306410" lon="-3.131839">
        <ele>919.000000</ele>
        <time>2019-05-09T09:10:24Z</time>
      </trkpt>
      <trkpt lat="37.306400" lon="-3.131852">
        <ele>919.000000</ele>
        <time>2019-05-09T09:10:25Z</time>
      </trkpt>
      <trkpt lat="37.306390" lon="-3.131864">
        <ele>919.000000</ele>
        <time>2019-05-09T09:10:26Z</time>
      </trkpt>
      <trkpt lat="37.306380" lon="-3.131879">
        <ele>919.000000</ele>
        <time>2019-05-09T09:10:27Z</time>
      </trkpt>
      <trkpt lat="37.306370" lon="-3.131892">
        <ele>919.000000</ele>
        <time>2019-05-09T09:10:28Z</time>
      </trkpt>
      <trkpt lat="37.306360" lon="-3.131906">
        <ele>919.000000</ele>
        <time>2019-05-09T09:10:29Z</time>
      </trkpt>
      <trkpt lat="37.306348" lon="-3.131920">
        <ele>919.000000</ele>
        <time>2019-05-09T09:10:31Z</time>
      </trkpt>
      <trkpt lat="37.306337" lon="-3.131934">
        <ele>919.000000</ele>
        <time>2019-05-09T09:10:31Z</time>
      </trkpt>
      <trkpt lat="37.306322" lon="-3.131949">
        <ele>919.000000</ele>
        <time>2019-05-09T09:10:33Z</time>
      </trkpt>
      <trkpt lat="37.306308" lon="-3.131959">
        <ele>919.000000</ele>
        <time>2019-05-09T09:10:33Z</time>
      </trkpt>
      <trkpt lat="37.306295" lon="-3.131930">
        <ele>919.000000</ele>
        <time>2019-05-09T09:10:33Z</time>
      </trkpt>
      <trkpt lat="37.306285" lon="-3.131940">
        <ele>919.000000</ele>
        <time>2019-05-09T09:10:34Z</time>
      </trkpt>
      <trkpt lat="37.306273" lon="-3.131949">
        <ele>919.000000</ele>
        <time>2019-05-09T09:10:35Z</time>
      </trkpt>
      <trkpt lat="37.306260" lon="-3.131955">
        <ele>919.000000</ele>
        <time>2019-05-09T09:10:36Z</time>
      </trkpt>
      <trkpt lat="37.306248" lon="-3.131964">
        <ele>919.000000</ele>
        <time>2019-05-09T09:10:37Z</time>
      </trkpt>
      <trkpt lat="37.306232" lon="-3.131968">
        <ele>919.000000</ele>
        <time>2019-05-09T09:10:38Z</time>
      </trkpt>
      <trkpt lat="37.306215" lon="-3.131971">
        <ele>919.000000</ele>
        <time>2019-05-09T09:10:39Z</time>
      </trkpt>
      <trkpt lat="37.306202" lon="-3.131975">
        <ele>919.000000</ele>
        <time>2019-05-09T09:10:40Z</time>
      </trkpt>
      <trkpt lat="37.306188" lon="-3.131981">
        <ele>919.000000</ele>
        <time>2019-05-09T09:10:41Z</time>
      </trkpt>
      <trkpt lat="37.306180" lon="-3.131990">
        <ele>919.000000</ele>
        <time>2019-05-09T09:10:42Z</time>
      </trkpt>
      <trkpt lat="37.306175" lon="-3.132000">
        <ele>919.000000</ele>
        <time>2019-05-09T09:10:43Z</time>
      </trkpt>
      <trkpt lat="37.306168" lon="-3.132032">
        <ele>919.000000</ele>
        <time>2019-05-09T09:10:44Z</time>
      </trkpt>
      <trkpt lat="37.306158" lon="-3.132032">
        <ele>919.000000</ele>
        <time>2019-05-09T09:10:45Z</time>
      </trkpt>
      <trkpt lat="37.306143" lon="-3.132030">
        <ele>919.000000</ele>
        <time>2019-05-09T09:10:46Z</time>
      </trkpt>
      <trkpt lat="37.306128" lon="-3.132039">
        <ele>919.000000</ele>
        <time>2019-05-09T09:10:47Z</time>
      </trkpt>
      <trkpt lat="37.306122" lon="-3.132055">
        <ele>919.000000</ele>
        <time>2019-05-09T09:10:48Z</time>
      </trkpt>
      <trkpt lat="37.306113" lon="-3.132068">
        <ele>919.000000</ele>
        <time>2019-05-09T09:10:49Z</time>
      </trkpt>
      <trkpt lat="37.306103" lon="-3.132095">
        <ele>919.000000</ele>
        <time>2019-05-09T09:10:50Z</time>
      </trkpt>
      <trkpt lat="37.306085" lon="-3.132103">
        <ele>919.000000</ele>
        <time>2019-05-09T09:10:51Z</time>
      </trkpt>
      <trkpt lat="37.306073" lon="-3.132103">
        <ele>919.000000</ele>
        <time>2019-05-09T09:10:52Z</time>
      </trkpt>
      <trkpt lat="37.306062" lon="-3.132116">
        <ele>919.000000</ele>
        <time>2019-05-09T09:10:54Z</time>
      </trkpt>
      <trkpt lat="37.306047" lon="-3.132130">
        <ele>919.000000</ele>
        <time>2019-05-09T09:10:56Z</time>
      </trkpt>
      <trkpt lat="37.306017" lon="-3.132148">
        <ele>919.000000</ele>
        <time>2019-05-09T09:10:56Z</time>
      </trkpt>
      <trkpt lat="37.306002" lon="-3.132155">
        <ele>919.000000</ele>
        <time>2019-05-09T09:10:57Z</time>
      </trkpt>
      <trkpt lat="37.305990" lon="-3.132164">
        <ele>919.000000</ele>
        <time>2019-05-09T09:10:58Z</time>
      </trkpt>
      <trkpt lat="37.305977" lon="-3.132173">
        <ele>919.000000</ele>
        <time>2019-05-09T09:10:59Z</time>
      </trkpt>
      <trkpt lat="37.305967" lon="-3.132179">
        <ele>919.000000</ele>
        <time>2019-05-09T09:11:01Z</time>
      </trkpt>
      <trkpt lat="37.305955" lon="-3.132186">
        <ele>919.000000</ele>
        <time>2019-05-09T09:11:01Z</time>
      </trkpt>
      <trkpt lat="37.305943" lon="-3.132192">
        <ele>919.000000</ele>
        <time>2019-05-09T09:11:02Z</time>
      </trkpt>
      <trkpt lat="37.305928" lon="-3.132200">
        <ele>919.000000</ele>
        <time>2019-05-09T09:11:03Z</time>
      </trkpt>
      <trkpt lat="37.305913" lon="-3.132207">
        <ele>919.000000</ele>
        <time>2019-05-09T09:11:04Z</time>
      </trkpt>
      <trkpt lat="37.305898" lon="-3.132214">
        <ele>919.000000</ele>
        <time>2019-05-09T09:11:05Z</time>
      </trkpt>
      <trkpt lat="37.305883" lon="-3.132221">
        <ele>919.000000</ele>
        <time>2019-05-09T09:11:06Z</time>
      </trkpt>
      <trkpt lat="37.305867" lon="-3.132228">
        <ele>919.000000</ele>
        <time>2019-05-09T09:11:07Z</time>
      </trkpt>
      <trkpt lat="37.305852" lon="-3.132234">
        <ele>919.000000</ele>
        <time>2019-05-09T09:11:08Z</time>
      </trkpt>
      <trkpt lat="37.305835" lon="-3.132242">
        <ele>919.000000</ele>
        <time>2019-05-09T09:11:09Z</time>
      </trkpt>
      <trkpt lat="37.305823" lon="-3.132247">
        <ele>919.000000</ele>
        <time>2019-05-09T09:11:10Z</time>
      </trkpt>
      <trkpt lat="37.305812" lon="-3.132253">
        <ele>919.000000</ele>
        <time>2019-05-09T09:11:11Z</time>
      </trkpt>
      <trkpt lat="37.305797" lon="-3.132261">
        <ele>919.000000</ele>
        <time>2019-05-09T09:11:12Z</time>
      </trkpt>
      <trkpt lat="37.305782" lon="-3.132267">
        <ele>919.000000</ele>
        <time>2019-05-09T09:11:13Z</time>
      </trkpt>
      <trkpt lat="37.305770" lon="-3.132273">
        <ele>919.000000</ele>
        <time>2019-05-09T09:11:14Z</time>
      </trkpt>
      <trkpt lat="37.305760" lon="-3.132277">
        <ele>919.000000</ele>
        <time>2019-05-09T09:11:15Z</time>
      </trkpt>
      <trkpt lat="37.305752" lon="-3.132280">
        <ele>919.000000</ele>
        <time>2019-05-09T09:11:16Z</time>
      </trkpt>
      <trkpt lat="37.305740" lon="-3.132286">
        <ele>919.000000</ele>
        <time>2019-05-09T09:11:18Z</time>
      </trkpt>
      <trkpt lat="37.305725" lon="-3.132293">
        <ele>919.000000</ele>
        <time>2019-05-09T09:11:18Z</time>
      </trkpt>
      <trkpt lat="37.305712" lon="-3.132300">
        <ele>919.000000</ele>
        <time>2019-05-09T09:11:19Z</time>
      </trkpt>
      <trkpt lat="37.305698" lon="-3.132307">
        <ele>919.000000</ele>
        <time>2019-05-09T09:11:20Z</time>
      </trkpt>
      <trkpt lat="37.305683" lon="-3.132315">
        <ele>919.000000</ele>
        <time>2019-05-09T09:11:21Z</time>
      </trkpt>
      <trkpt lat="37.305668" lon="-3.132324">
        <ele>919.000000</ele>
        <time>2019-05-09T09:11:22Z</time>
      </trkpt>
      <trkpt lat="37.305655" lon="-3.132332">
        <ele>919.000000</ele>
        <time>2019-05-09T09:11:24Z</time>
      </trkpt>
      <trkpt lat="37.305643" lon="-3.132339">
        <ele>919.000000</ele>
        <time>2019-05-09T09:11:24Z</time>
      </trkpt>
      <trkpt lat="37.305630" lon="-3.132347">
        <ele>919.000000</ele>
        <time>2019-05-09T09:11:25Z</time>
      </trkpt>
      <trkpt lat="37.305617" lon="-3.132355">
        <ele>919.000000</ele>
        <time>2019-05-09T09:11:26Z</time>
      </trkpt>
      <trkpt lat="37.305607" lon="-3.132362">
        <ele>919.000000</ele>
        <time>2019-05-09T09:11:27Z</time>
      </trkpt>
      <trkpt lat="37.305593" lon="-3.132370">
        <ele>919.000000</ele>
        <time>2019-05-09T09:11:28Z</time>
      </trkpt>
      <trkpt lat="37.305580" lon="-3.132378">
        <ele>919.000000</ele>
        <time>2019-05-09T09:11:29Z</time>
      </trkpt>
      <trkpt lat="37.305565" lon="-3.132387">
        <ele>919.000000</ele>
        <time>2019-05-09T09:11:30Z</time>
      </trkpt>
      <trkpt lat="37.305550" lon="-3.132397">
        <ele>919.000000</ele>
        <time>2019-05-09T09:11:31Z</time>
      </trkpt>
      <trkpt lat="37.305537" lon="-3.132405">
        <ele>919.000000</ele>
        <time>2019-05-09T09:11:32Z</time>
      </trkpt>
      <trkpt lat="37.305522" lon="-3.132414">
        <ele>919.000000</ele>
        <time>2019-05-09T09:11:33Z</time>
      </trkpt>
      <trkpt lat="37.305512" lon="-3.132420">
        <ele>919.000000</ele>
        <time>2019-05-09T09:11:34Z</time>
      </trkpt>
      <trkpt lat="37.305500" lon="-3.132427">
        <ele>919.000000</ele>
        <time>2019-05-09T09:11:35Z</time>
      </trkpt>
      <trkpt lat="37.305488" lon="-3.132433">
        <ele>919.000000</ele>
        <time>2019-05-09T09:11:36Z</time>
      </trkpt>
      <trkpt lat="37.305472" lon="-3.132442">
        <ele>919.000000</ele>
        <time>2019-05-09T09:11:37Z</time>
      </trkpt>
      <trkpt lat="37.305460" lon="-3.132448">
        <ele>919.000000</ele>
        <time>2019-05-09T09:11:38Z</time>
      </trkpt>
      <trkpt lat="37.305445" lon="-3.132456">
        <ele>919.000000</ele>
        <time>2019-05-09T09:11:39Z</time>
      </trkpt>
      <trkpt lat="37.305432" lon="-3.132462">
        <ele>919.000000</ele>
        <time>2019-05-09T09:11:40Z</time>
      </trkpt>
      <trkpt lat="37.305418" lon="-3.132470">
        <ele>919.000000</ele>
        <time>2019-05-09T09:11:41Z</time>
      </trkpt>
      <trkpt lat="37.305405" lon="-3.132476">
        <ele>919.000000</ele>
        <time>2019-05-09T09:11:43Z</time>
      </trkpt>
      <trkpt lat="37.305385" lon="-3.132485">
        <ele>919.000000</ele>
        <time>2019-05-09T09:11:43Z</time>
      </trkpt>
      <trkpt lat="37.305372" lon="-3.132492">
        <ele>919.000000</ele>
        <time>2019-05-09T09:11:44Z</time>
      </trkpt>
      <trkpt lat="37.305353" lon="-3.132502">
        <ele>919.000000</ele>
        <time>2019-05-09T09:11:45Z</time>
      </trkpt>
      <trkpt lat="37.305342" lon="-3.132507">
        <ele>919.000000</ele>
        <time>2019-05-09T09:11:46Z</time>
      </trkpt>
      <trkpt lat="37.305328" lon="-3.132514">
        <ele>919.000000</ele>
        <time>2019-05-09T09:11:47Z</time>
      </trkpt>
      <trkpt lat="37.305313" lon="-3.132520">
        <ele>919.000000</ele>
        <time>2019-05-09T09:11:48Z</time>
      </trkpt>
      <trkpt lat="37.305297" lon="-3.132529">
        <ele>919.000000</ele>
        <time>2019-05-09T09:11:49Z</time>
      </trkpt>
      <trkpt lat="37.305283" lon="-3.132536">
        <ele>919.000000</ele>
        <time>2019-05-09T09:11:50Z</time>
      </trkpt>
      <trkpt lat="37.305267" lon="-3.132544">
        <ele>919.000000</ele>
        <time>2019-05-09T09:11:51Z</time>
      </trkpt>
      <trkpt lat="37.305252" lon="-3.132552">
        <ele>919.000000</ele>
        <time>2019-05-09T09:11:52Z</time>
      </trkpt>
      <trkpt lat="37.305235" lon="-3.132559">
        <ele>919.000000</ele>
        <time>2019-05-09T09:11:53Z</time>
      </trkpt>
      <trkpt lat="37.305222" lon="-3.132566">
        <ele>919.000000</ele>
        <time>2019-05-09T09:11:54Z</time>
      </trkpt>
      <trkpt lat="37.305210" lon="-3.132572">
        <ele>919.000000</ele>
        <time>2019-05-09T09:11:55Z</time>
      </trkpt>
      <trkpt lat="37.305195" lon="-3.132578">
        <ele>919.000000</ele>
        <time>2019-05-09T09:11:56Z</time>
      </trkpt>
      <trkpt lat="37.305182" lon="-3.132586">
        <ele>919.000000</ele>
        <time>2019-05-09T09:11:57Z</time>
      </trkpt>
      <trkpt lat="37.305168" lon="-3.132593">
        <ele>919.000000</ele>
        <time>2019-05-09T09:11:58Z</time>
      </trkpt>
      <trkpt lat="37.305155" lon="-3.132600">
        <ele>919.000000</ele>
        <time>2019-05-09T09:11:59Z</time>
      </trkpt>
      <trkpt lat="37.305142" lon="-3.132607">
        <ele>919.000000</ele>
        <time>2019-05-09T09:12:00Z</time>
      </trkpt>
      <trkpt lat="37.305130" lon="-3.132615">
        <ele>919.000000</ele>
        <time>2019-05-09T09:12:01Z</time>
      </trkpt>
      <trkpt lat="37.305117" lon="-3.132623">
        <ele>919.000000</ele>
        <time>2019-05-09T09:12:02Z</time>
      </trkpt>
      <trkpt lat="37.305102" lon="-3.132632">
        <ele>919.000000</ele>
        <time>2019-05-09T09:12:04Z</time>
      </trkpt>
      <trkpt lat="37.305087" lon="-3.132641">
        <ele>919.000000</ele>
        <time>2019-05-09T09:12:04Z</time>
      </trkpt>
      <trkpt lat="37.305073" lon="-3.132650">
        <ele>919.000000</ele>
        <time>2019-05-09T09:12:05Z</time>
      </trkpt>
      <trkpt lat="37.305060" lon="-3.132658">
        <ele>919.000000</ele>
        <time>2019-05-09T09:12:06Z</time>
      </trkpt>
      <trkpt lat="37.305043" lon="-3.132667">
        <ele>919.000000</ele>
        <time>2019-05-09T09:12:07Z</time>
      </trkpt>
      <trkpt lat="37.305028" lon="-3.132677">
        <ele>919.000000</ele>
        <time>2019-05-09T09:12:08Z</time>
      </trkpt>
      <trkpt lat="37.305013" lon="-3.132686">
        <ele>919.000000</ele>
        <time>2019-05-09T09:12:09Z</time>
      </trkpt>
      <trkpt lat="37.304998" lon="-3.132696">
        <ele>919.000000</ele>
        <time>2019-05-09T09:12:10Z</time>
      </trkpt>
      <trkpt lat="37.304980" lon="-3.132708">
        <ele>919.000000</ele>
        <time>2019-05-09T09:12:11Z</time>
      </trkpt>
      <trkpt lat="37.304963" lon="-3.132719">
        <ele>919.000000</ele>
        <time>2019-05-09T09:12:12Z</time>
      </trkpt>
      <trkpt lat="37.304950" lon="-3.132728">
        <ele>919.000000</ele>
        <time>2019-05-09T09:12:13Z</time>
      </trkpt>
      <trkpt lat="37.304937" lon="-3.132737">
        <ele>919.000000</ele>
        <time>2019-05-09T09:12:14Z</time>
      </trkpt>
      <trkpt lat="37.304923" lon="-3.132746">
        <ele>919.000000</ele>
        <time>2019-05-09T09:12:15Z</time>
      </trkpt>
      <trkpt lat="37.304910" lon="-3.132757">
        <ele>919.000000</ele>
        <time>2019-05-09T09:12:16Z</time>
      </trkpt>
      <trkpt lat="37.304897" lon="-3.132766">
        <ele>919.000000</ele>
        <time>2019-05-09T09:12:17Z</time>
      </trkpt>
      <trkpt lat="37.304883" lon="-3.132776">
        <ele>919.000000</ele>
        <time>2019-05-09T09:12:18Z</time>
      </trkpt>
      <trkpt lat="37.304870" lon="-3.132787">
        <ele>919.000000</ele>
        <time>2019-05-09T09:12:19Z</time>
      </trkpt>
      <trkpt lat="37.304860" lon="-3.132798">
        <ele>919.000000</ele>
        <time>2019-05-09T09:12:20Z</time>
      </trkpt>
      <trkpt lat="37.304848" lon="-3.132807">
        <ele>919.000000</ele>
        <time>2019-05-09T09:12:21Z</time>
      </trkpt>
      <trkpt lat="37.304840" lon="-3.132817">
        <ele>919.000000</ele>
        <time>2019-05-09T09:12:22Z</time>
      </trkpt>
      <trkpt lat="37.304832" lon="-3.132826">
        <ele>919.000000</ele>
        <time>2019-05-09T09:12:23Z</time>
      </trkpt>
      <trkpt lat="37.304823" lon="-3.132837">
        <ele>919.000000</ele>
        <time>2019-05-09T09:12:24Z</time>
      </trkpt>
      <trkpt lat="37.304815" lon="-3.132847">
        <ele>919.000000</ele>
        <time>2019-05-09T09:12:25Z</time>
      </trkpt>
      <trkpt lat="37.304808" lon="-3.132856">
        <ele>919.000000</ele>
        <time>2019-05-09T09:12:26Z</time>
      </trkpt>
      <trkpt lat="37.304803" lon="-3.132865">
        <ele>919.000000</ele>
        <time>2019-05-09T09:12:28Z</time>
      </trkpt>
      <trkpt lat="37.304800" lon="-3.132940">
        <ele>919.000000</ele>
        <time>2019-05-09T09:12:28Z</time>
      </trkpt>
      <trkpt lat="37.304797" lon="-3.132953">
        <ele>919.000000</ele>
        <time>2019-05-09T09:12:29Z</time>
      </trkpt>
      <trkpt lat="37.304792" lon="-3.132962">
        <ele>919.000000</ele>
        <time>2019-05-09T09:12:30Z</time>
      </trkpt>
      <trkpt lat="37.304787" lon="-3.132965">
        <ele>919.000000</ele>
        <time>2019-05-09T09:12:31Z</time>
      </trkpt>
      <trkpt lat="37.304775" lon="-3.132977">
        <ele>919.000000</ele>
        <time>2019-05-09T09:12:32Z</time>
      </trkpt>
      <trkpt lat="37.304768" lon="-3.132991">
        <ele>919.000000</ele>
        <time>2019-05-09T09:12:33Z</time>
      </trkpt>
      <trkpt lat="37.304762" lon="-3.133005">
        <ele>919.000000</ele>
        <time>2019-05-09T09:12:34Z</time>
      </trkpt>
      <trkpt lat="37.304753" lon="-3.133020">
        <ele>919.000000</ele>
        <time>2019-05-09T09:12:35Z</time>
      </trkpt>
      <trkpt lat="37.304745" lon="-3.133032">
        <ele>919.000000</ele>
        <time>2019-05-09T09:12:36Z</time>
      </trkpt>
      <trkpt lat="37.304737" lon="-3.133045">
        <ele>919.000000</ele>
        <time>2019-05-09T09:12:37Z</time>
      </trkpt>
      <trkpt lat="37.304723" lon="-3.133055">
        <ele>919.000000</ele>
        <time>2019-05-09T09:12:38Z</time>
      </trkpt>
      <trkpt lat="37.304710" lon="-3.133063">
        <ele>919.000000</ele>
        <time>2019-05-09T09:12:39Z</time>
      </trkpt>
      <trkpt lat="37.304697" lon="-3.133076">
        <ele>920.000000</ele>
        <time>2019-05-09T09:12:40Z</time>
      </trkpt>
      <trkpt lat="37.304690" lon="-3.133085">
        <ele>920.000000</ele>
        <time>2019-05-09T09:12:42Z</time>
      </trkpt>
      <trkpt lat="37.304680" lon="-3.133099">
        <ele>920.000000</ele>
        <time>2019-05-09T09:12:42Z</time>
      </trkpt>
      <trkpt lat="37.304667" lon="-3.133112">
        <ele>920.000000</ele>
        <time>2019-05-09T09:12:43Z</time>
      </trkpt>
      <trkpt lat="37.304657" lon="-3.133123">
        <ele>920.000000</ele>
        <time>2019-05-09T09:12:44Z</time>
      </trkpt>
      <trkpt lat="37.304645" lon="-3.133134">
        <ele>920.000000</ele>
        <time>2019-05-09T09:12:45Z</time>
      </trkpt>
      <trkpt lat="37.304632" lon="-3.133145">
        <ele>920.000000</ele>
        <time>2019-05-09T09:12:46Z</time>
      </trkpt>
      <trkpt lat="37.304617" lon="-3.133154">
        <ele>920.000000</ele>
        <time>2019-05-09T09:12:47Z</time>
      </trkpt>
      <trkpt lat="37.304602" lon="-3.133161">
        <ele>920.000000</ele>
        <time>2019-05-09T09:12:48Z</time>
      </trkpt>
      <trkpt lat="37.304588" lon="-3.133167">
        <ele>920.000000</ele>
        <time>2019-05-09T09:12:50Z</time>
      </trkpt>
      <trkpt lat="37.304573" lon="-3.133173">
        <ele>920.000000</ele>
        <time>2019-05-09T09:12:50Z</time>
      </trkpt>
      <trkpt lat="37.304560" lon="-3.133180">
        <ele>920.000000</ele>
        <time>2019-05-09T09:12:51Z</time>
      </trkpt>
      <trkpt lat="37.304547" lon="-3.133188">
        <ele>920.000000</ele>
        <time>2019-05-09T09:12:52Z</time>
      </trkpt>
      <trkpt lat="37.304533" lon="-3.133198">
        <ele>920.000000</ele>
        <time>2019-05-09T09:12:53Z</time>
      </trkpt>
      <trkpt lat="37.304518" lon="-3.133208">
        <ele>920.000000</ele>
        <time>2019-05-09T09:12:54Z</time>
      </trkpt>
      <trkpt lat="37.304503" lon="-3.133219">
        <ele>920.000000</ele>
        <time>2019-05-09T09:12:55Z</time>
      </trkpt>
      <trkpt lat="37.304492" lon="-3.133228">
        <ele>920.000000</ele>
        <time>2019-05-09T09:12:56Z</time>
      </trkpt>
      <trkpt lat="37.304482" lon="-3.133236">
        <ele>920.000000</ele>
        <time>2019-05-09T09:12:57Z</time>
      </trkpt>
      <trkpt lat="37.304473" lon="-3.133244">
        <ele>920.000000</ele>
        <time>2019-05-09T09:12:58Z</time>
      </trkpt>
      <trkpt lat="37.304462" lon="-3.133256">
        <ele>920.000000</ele>
        <time>2019-05-09T09:12:59Z</time>
      </trkpt>
      <trkpt lat="37.304450" lon="-3.133268">
        <ele>920.000000</ele>
        <time>2019-05-09T09:13:00Z</time>
      </trkpt>
      <trkpt lat="37.304437" lon="-3.133282">
        <ele>920.000000</ele>
        <time>2019-05-09T09:13:01Z</time>
      </trkpt>
      <trkpt lat="37.304422" lon="-3.133297">
        <ele>920.000000</ele>
        <time>2019-05-09T09:13:02Z</time>
      </trkpt>
      <trkpt lat="37.304412" lon="-3.133308">
        <ele>920.000000</ele>
        <time>2019-05-09T09:13:03Z</time>
      </trkpt>
      <trkpt lat="37.304395" lon="-3.133324">
        <ele>920.000000</ele>
        <time>2019-05-09T09:13:04Z</time>
      </trkpt>
      <trkpt lat="37.304380" lon="-3.133339">
        <ele>920.000000</ele>
        <time>2019-05-09T09:13:05Z</time>
      </trkpt>
      <trkpt lat="37.304370" lon="-3.133350">
        <ele>920.000000</ele>
        <time>2019-05-09T09:13:07Z</time>
      </trkpt>
      <trkpt lat="37.304357" lon="-3.133365">
        <ele>920.000000</ele>
        <time>2019-05-09T09:13:07Z</time>
      </trkpt>
      <trkpt lat="37.304342" lon="-3.133379">
        <ele>920.000000</ele>
        <time>2019-05-09T09:13:08Z</time>
      </trkpt>
      <trkpt lat="37.304328" lon="-3.133392">
        <ele>920.000000</ele>
        <time>2019-05-09T09:13:09Z</time>
      </trkpt>
      <trkpt lat="37.304313" lon="-3.133406">
        <ele>920.000000</ele>
        <time>2019-05-09T09:13:10Z</time>
      </trkpt>
      <trkpt lat="37.304302" lon="-3.133419">
        <ele>920.000000</ele>
        <time>2019-05-09T09:13:11Z</time>
      </trkpt>
      <trkpt lat="37.304292" lon="-3.133428">
        <ele>920.000000</ele>
        <time>2019-05-09T09:13:12Z</time>
      </trkpt>
      <trkpt lat="37.304280" lon="-3.133440">
        <ele>920.000000</ele>
        <time>2019-05-09T09:13:14Z</time>
      </trkpt>
      <trkpt lat="37.304267" lon="-3.133453">
        <ele>920.000000</ele>
        <time>2019-05-09T09:13:14Z</time>
      </trkpt>
      <trkpt lat="37.304252" lon="-3.133467">
        <ele>920.000000</ele>
        <time>2019-05-09T09:13:15Z</time>
      </trkpt>
      <trkpt lat="37.304238" lon="-3.133480">
        <ele>920.000000</ele>
        <time>2019-05-09T09:13:16Z</time>
      </trkpt>
      <trkpt lat="37.304223" lon="-3.133493">
        <ele>920.000000</ele>
        <time>2019-05-09T09:13:17Z</time>
      </trkpt>
      <trkpt lat="37.304208" lon="-3.133507">
        <ele>920.000000</ele>
        <time>2019-05-09T09:13:19Z</time>
      </trkpt>
      <trkpt lat="37.304195" lon="-3.133517">
        <ele>920.000000</ele>
        <time>2019-05-09T09:13:19Z</time>
      </trkpt>
      <trkpt lat="37.304183" lon="-3.133528">
        <ele>920.000000</ele>
        <time>2019-05-09T09:13:20Z</time>
      </trkpt>
      <trkpt lat="37.304172" lon="-3.133537">
        <ele>920.000000</ele>
        <time>2019-05-09T09:13:21Z</time>
      </trkpt>
      <trkpt lat="37.304155" lon="-3.133550">
        <ele>920.000000</ele>
        <time>2019-05-09T09:13:22Z</time>
      </trkpt>
      <trkpt lat="37.304142" lon="-3.133562">
        <ele>920.000000</ele>
        <time>2019-05-09T09:13:23Z</time>
      </trkpt>
      <trkpt lat="37.304127" lon="-3.133573">
        <ele>920.000000</ele>
        <time>2019-05-09T09:13:24Z</time>
      </trkpt>
      <trkpt lat="37.304112" lon="-3.133585">
        <ele>920.000000</ele>
        <time>2019-05-09T09:13:25Z</time>
      </trkpt>
      <trkpt lat="37.304097" lon="-3.133596">
        <ele>920.000000</ele>
        <time>2019-05-09T09:13:26Z</time>
      </trkpt>
      <trkpt lat="37.304087" lon="-3.133603">
        <ele>920.000000</ele>
        <time>2019-05-09T09:13:27Z</time>
      </trkpt>
      <trkpt lat="37.304073" lon="-3.133613">
        <ele>920.000000</ele>
        <time>2019-05-09T09:13:28Z</time>
      </trkpt>
      <trkpt lat="37.304060" lon="-3.133623">
        <ele>920.000000</ele>
        <time>2019-05-09T09:13:29Z</time>
      </trkpt>
      <trkpt lat="37.304047" lon="-3.133633">
        <ele>920.000000</ele>
        <time>2019-05-09T09:13:30Z</time>
      </trkpt>
      <trkpt lat="37.304033" lon="-3.133642">
        <ele>920.000000</ele>
        <time>2019-05-09T09:13:31Z</time>
      </trkpt>
      <trkpt lat="37.304020" lon="-3.133653">
        <ele>920.000000</ele>
        <time>2019-05-09T09:13:32Z</time>
      </trkpt>
      <trkpt lat="37.304012" lon="-3.133660">
        <ele>920.000000</ele>
        <time>2019-05-09T09:13:33Z</time>
      </trkpt>
      <trkpt lat="37.304000" lon="-3.133669">
        <ele>920.000000</ele>
        <time>2019-05-09T09:13:34Z</time>
      </trkpt>
      <trkpt lat="37.303987" lon="-3.133680">
        <ele>920.000000</ele>
        <time>2019-05-09T09:13:35Z</time>
      </trkpt>
      <trkpt lat="37.303977" lon="-3.133690">
        <ele>919.000000</ele>
        <time>2019-05-09T09:13:36Z</time>
      </trkpt>
      <trkpt lat="37.303965" lon="-3.133698">
        <ele>919.000000</ele>
        <time>2019-05-09T09:13:37Z</time>
      </trkpt>
      <trkpt lat="37.303955" lon="-3.133706">
        <ele>919.000000</ele>
        <time>2019-05-09T09:13:39Z</time>
      </trkpt>
      <trkpt lat="37.303943" lon="-3.133714">
        <ele>919.000000</ele>
        <time>2019-05-09T09:13:39Z</time>
      </trkpt>
      <trkpt lat="37.303932" lon="-3.133723">
        <ele>919.000000</ele>
        <time>2019-05-09T09:13:40Z</time>
      </trkpt>
      <trkpt lat="37.303920" lon="-3.133732">
        <ele>919.000000</ele>
        <time>2019-05-09T09:13:41Z</time>
      </trkpt>
      <trkpt lat="37.303908" lon="-3.133739">
        <ele>919.000000</ele>
        <time>2019-05-09T09:13:42Z</time>
      </trkpt>
      <trkpt lat="37.303898" lon="-3.133747">
        <ele>919.000000</ele>
        <time>2019-05-09T09:13:43Z</time>
      </trkpt>
      <trkpt lat="37.303887" lon="-3.133756">
        <ele>919.000000</ele>
        <time>2019-05-09T09:13:44Z</time>
      </trkpt>
      <trkpt lat="37.303872" lon="-3.133766">
        <ele>919.000000</ele>
        <time>2019-05-09T09:13:45Z</time>
      </trkpt>
      <trkpt lat="37.303857" lon="-3.133777">
        <ele>919.000000</ele>
        <time>2019-05-09T09:13:46Z</time>
      </trkpt>
      <trkpt lat="37.303843" lon="-3.133787">
        <ele>919.000000</ele>
        <time>2019-05-09T09:13:47Z</time>
      </trkpt>
      <trkpt lat="37.303832" lon="-3.133796">
        <ele>919.000000</ele>
        <time>2019-05-09T09:13:48Z</time>
      </trkpt>
      <trkpt lat="37.303818" lon="-3.133805">
        <ele>919.000000</ele>
        <time>2019-05-09T09:13:49Z</time>
      </trkpt>
      <trkpt lat="37.303807" lon="-3.133814">
        <ele>919.000000</ele>
        <time>2019-05-09T09:13:50Z</time>
      </trkpt>
      <trkpt lat="37.303797" lon="-3.133821">
        <ele>919.000000</ele>
        <time>2019-05-09T09:13:51Z</time>
      </trkpt>
      <trkpt lat="37.303788" lon="-3.133828">
        <ele>919.000000</ele>
        <time>2019-05-09T09:13:52Z</time>
      </trkpt>
      <trkpt lat="37.303778" lon="-3.133836">
        <ele>919.000000</ele>
        <time>2019-05-09T09:13:53Z</time>
      </trkpt>
      <trkpt lat="37.303767" lon="-3.133846">
        <ele>919.000000</ele>
        <time>2019-05-09T09:13:54Z</time>
      </trkpt>
      <trkpt lat="37.303757" lon="-3.133856">
        <ele>919.000000</ele>
        <time>2019-05-09T09:13:55Z</time>
      </trkpt>
      <trkpt lat="37.303752" lon="-3.133861">
        <ele>919.000000</ele>
        <time>2019-05-09T09:13:57Z</time>
      </trkpt>
      <trkpt lat="37.303742" lon="-3.133871">
        <ele>919.000000</ele>
        <time>2019-05-09T09:13:57Z</time>
      </trkpt>
      <trkpt lat="37.303732" lon="-3.133881">
        <ele>919.000000</ele>
        <time>2019-05-09T09:13:58Z</time>
      </trkpt>
      <trkpt lat="37.303723" lon="-3.133890">
        <ele>919.000000</ele>
        <time>2019-05-09T09:13:59Z</time>
      </trkpt>
      <trkpt lat="37.303713" lon="-3.133900">
        <ele>919.000000</ele>
        <time>2019-05-09T09:14:01Z</time>
      </trkpt>
      <trkpt lat="37.303700" lon="-3.133914">
        <ele>919.000000</ele>
        <time>2019-05-09T09:14:01Z</time>
      </trkpt>
      <trkpt lat="37.303688" lon="-3.133926">
        <ele>919.000000</ele>
        <time>2019-05-09T09:14:03Z</time>
      </trkpt>
      <trkpt lat="37.303677" lon="-3.133936">
        <ele>919.000000</ele>
        <time>2019-05-09T09:14:03Z</time>
      </trkpt>
      <trkpt lat="37.303665" lon="-3.133948">
        <ele>919.000000</ele>
        <time>2019-05-09T09:14:04Z</time>
      </trkpt>
      <trkpt lat="37.303653" lon="-3.133960">
        <ele>919.000000</ele>
        <time>2019-05-09T09:14:05Z</time>
      </trkpt>
      <trkpt lat="37.303642" lon="-3.133971">
        <ele>919.000000</ele>
        <time>2019-05-09T09:14:06Z</time>
      </trkpt>
      <trkpt lat="37.303630" lon="-3.133983">
        <ele>919.000000</ele>
        <time>2019-05-09T09:14:07Z</time>
      </trkpt>
      <trkpt lat="37.303620" lon="-3.133992">
        <ele>919.000000</ele>
        <time>2019-05-09T09:14:08Z</time>
      </trkpt>
      <trkpt lat="37.303610" lon="-3.134003">
        <ele>919.000000</ele>
        <time>2019-05-09T09:14:09Z</time>
      </trkpt>
      <trkpt lat="37.303600" lon="-3.134014">
        <ele>919.000000</ele>
        <time>2019-05-09T09:14:10Z</time>
      </trkpt>
      <trkpt lat="37.303590" lon="-3.134023">
        <ele>919.000000</ele>
        <time>2019-05-09T09:14:11Z</time>
      </trkpt>
      <trkpt lat="37.303583" lon="-3.134030">
        <ele>919.000000</ele>
        <time>2019-05-09T09:14:12Z</time>
      </trkpt>
      <trkpt lat="37.303573" lon="-3.134041">
        <ele>919.000000</ele>
        <time>2019-05-09T09:14:13Z</time>
      </trkpt>
      <trkpt lat="37.303563" lon="-3.134051">
        <ele>919.000000</ele>
        <time>2019-05-09T09:14:14Z</time>
      </trkpt>
      <trkpt lat="37.303552" lon="-3.134062">
        <ele>919.000000</ele>
        <time>2019-05-09T09:14:15Z</time>
      </trkpt>
      <trkpt lat="37.303542" lon="-3.134072">
        <ele>919.000000</ele>
        <time>2019-05-09T09:14:16Z</time>
      </trkpt>
      <trkpt lat="37.303532" lon="-3.134082">
        <ele>919.000000</ele>
        <time>2019-05-09T09:14:17Z</time>
      </trkpt>
      <trkpt lat="37.303520" lon="-3.134094">
        <ele>919.000000</ele>
        <time>2019-05-09T09:14:18Z</time>
      </trkpt>
      <trkpt lat="37.303512" lon="-3.134104">
        <ele>919.000000</ele>
        <time>2019-05-09T09:14:19Z</time>
      </trkpt>
      <trkpt lat="37.303505" lon="-3.134138">
        <ele>919.000000</ele>
        <time>2019-05-09T09:14:20Z</time>
      </trkpt>
      <trkpt lat="37.303497" lon="-3.134155">
        <ele>919.000000</ele>
        <time>2019-05-09T09:14:21Z</time>
      </trkpt>
      <trkpt lat="37.303490" lon="-3.134168">
        <ele>919.000000</ele>
        <time>2019-05-09T09:14:22Z</time>
      </trkpt>
      <trkpt lat="37.303484" lon="-3.134182">
        <ele>919.000000</ele>
        <time>2019-05-09T09:14:23Z</time>
      </trkpt>
      <trkpt lat="37.303481" lon="-3.134200">
        <ele>919.000000</ele>
        <time>2019-05-09T09:14:24Z</time>
      </trkpt>
      <trkpt lat="37.303478" lon="-3.134215">
        <ele>919.000000</ele>
        <time>2019-05-09T09:14:26Z</time>
      </trkpt>
      <trkpt lat="37.303478" lon="-3.134233">
        <ele>919.000000</ele>
        <time>2019-05-09T09:14:26Z</time>
      </trkpt>
      <trkpt lat="37.303478" lon="-3.134248">
        <ele>919.000000</ele>
        <time>2019-05-09T09:14:27Z</time>
      </trkpt>
      <trkpt lat="37.303483" lon="-3.134265">
        <ele>919.000000</ele>
        <time>2019-05-09T09:14:28Z</time>
      </trkpt>
      <trkpt lat="37.303485" lon="-3.134282">
        <ele>919.000000</ele>
        <time>2019-05-09T09:14:29Z</time>
      </trkpt>
      <trkpt lat="37.303485" lon="-3.134300">
        <ele>919.000000</ele>
        <time>2019-05-09T09:14:30Z</time>
      </trkpt>
      <trkpt lat="37.303488" lon="-3.134317">
        <ele>919.000000</ele>
        <time>2019-05-09T09:14:31Z</time>
      </trkpt>
      <trkpt lat="37.303492" lon="-3.134332">
        <ele>919.000000</ele>
        <time>2019-05-09T09:14:33Z</time>
      </trkpt>
      <trkpt lat="37.303503" lon="-3.134343">
        <ele>919.000000</ele>
        <time>2019-05-09T09:14:33Z</time>
      </trkpt>
      <trkpt lat="37.303510" lon="-3.134353">
        <ele>919.000000</ele>
        <time>2019-05-09T09:14:34Z</time>
      </trkpt>
      <trkpt lat="37.303520" lon="-3.134360">
        <ele>919.000000</ele>
        <time>2019-05-09T09:14:35Z</time>
      </trkpt>
      <trkpt lat="37.303521" lon="-3.134380">
        <ele>919.000000</ele>
        <time>2019-05-09T09:14:36Z</time>
      </trkpt>
      <trkpt lat="37.303528" lon="-3.134392">
        <ele>920.000000</ele>
        <time>2019-05-09T09:14:37Z</time>
      </trkpt>
      <trkpt lat="37.303536" lon="-3.134397">
        <ele>920.000000</ele>
        <time>2019-05-09T09:14:38Z</time>
      </trkpt>
      <trkpt lat="37.303552" lon="-3.134400">
        <ele>920.000000</ele>
        <time>2019-05-09T09:14:39Z</time>
      </trkpt>
      <trkpt lat="37.303565" lon="-3.134402">
        <ele>920.000000</ele>
        <time>2019-05-09T09:14:41Z</time>
      </trkpt>
      <trkpt lat="37.303567" lon="-3.134417">
        <ele>920.000000</ele>
        <time>2019-05-09T09:14:42Z</time>
      </trkpt>
      <trkpt lat="37.303565" lon="-3.134432">
        <ele>920.000000</ele>
        <time>2019-05-09T09:14:43Z</time>
      </trkpt>
      <trkpt lat="37.303567" lon="-3.134445">
        <ele>920.000000</ele>
        <time>2019-05-09T09:14:43Z</time>
      </trkpt>
      <trkpt lat="37.303570" lon="-3.134463">
        <ele>920.000000</ele>
        <time>2019-05-09T09:14:44Z</time>
      </trkpt>
      <trkpt lat="37.303575" lon="-3.134477">
        <ele>920.000000</ele>
        <time>2019-05-09T09:14:45Z</time>
      </trkpt>
      <trkpt lat="37.303581" lon="-3.134488">
        <ele>920.000000</ele>
        <time>2019-05-09T09:14:46Z</time>
      </trkpt>
      <trkpt lat="37.303588" lon="-3.134502">
        <ele>920.000000</ele>
        <time>2019-05-09T09:14:47Z</time>
      </trkpt>
      <trkpt lat="37.303595" lon="-3.134518">
        <ele>920.000000</ele>
        <time>2019-05-09T09:14:48Z</time>
      </trkpt>
      <trkpt lat="37.303603" lon="-3.134533">
        <ele>920.000000</ele>
        <time>2019-05-09T09:14:48Z</time>
      </trkpt>
      <trkpt lat="37.303610" lon="-3.134548">
        <ele>921.000000</ele>
        <time>2019-05-09T09:14:49Z</time>
      </trkpt>
      <trkpt lat="37.303613" lon="-3.134565">
        <ele>921.000000</ele>
        <time>2019-05-09T09:14:50Z</time>
      </trkpt>
      <trkpt lat="37.303611" lon="-3.134577">
        <ele>921.000000</ele>
        <time>2019-05-09T09:14:51Z</time>
      </trkpt>
      <trkpt lat="37.303597" lon="-3.134592">
        <ele>921.000000</ele>
        <time>2019-05-09T09:14:53Z</time>
      </trkpt>
      <trkpt lat="37.303588" lon="-3.134603">
        <ele>922.000000</ele>
        <time>2019-05-09T09:14:53Z</time>
      </trkpt>
      <trkpt lat="37.303577" lon="-3.134620">
        <ele>922.000000</ele>
        <time>2019-05-09T09:14:54Z</time>
      </trkpt>
      <trkpt lat="37.303568" lon="-3.134630">
        <ele>922.000000</ele>
        <time>2019-05-09T09:14:55Z</time>
      </trkpt>
      <trkpt lat="37.303557" lon="-3.134643">
        <ele>922.000000</ele>
        <time>2019-05-09T09:14:56Z</time>
      </trkpt>
      <trkpt lat="37.303545" lon="-3.134653">
        <ele>922.000000</ele>
        <time>2019-05-09T09:14:57Z</time>
      </trkpt>
      <trkpt lat="37.303535" lon="-3.134663">
        <ele>922.000000</ele>
        <time>2019-05-09T09:14:58Z</time>
      </trkpt>
      <trkpt lat="37.303525" lon="-3.134670">
        <ele>922.000000</ele>
        <time>2019-05-09T09:14:59Z</time>
      </trkpt>
      <trkpt lat="37.303517" lon="-3.134677">
        <ele>922.000000</ele>
        <time>2019-05-09T09:15:00Z</time>
      </trkpt>
      <trkpt lat="37.303508" lon="-3.134692">
        <ele>922.000000</ele>
        <time>2019-05-09T09:15:01Z</time>
      </trkpt>
      <trkpt lat="37.303500" lon="-3.134712">
        <ele>922.000000</ele>
        <time>2019-05-09T09:15:02Z</time>
      </trkpt>
      <trkpt lat="37.303494" lon="-3.134732">
        <ele>922.000000</ele>
        <time>2019-05-09T09:15:03Z</time>
      </trkpt>
      <trkpt lat="37.303487" lon="-3.134750">
        <ele>922.000000</ele>
        <time>2019-05-09T09:15:04Z</time>
      </trkpt>
      <trkpt lat="37.303478" lon="-3.134770">
        <ele>922.000000</ele>
        <time>2019-05-09T09:15:05Z</time>
      </trkpt>
      <trkpt lat="37.303471" lon="-3.134788">
        <ele>922.000000</ele>
        <time>2019-05-09T09:15:07Z</time>
      </trkpt>
      <trkpt lat="37.303462" lon="-3.134810">
        <ele>922.000000</ele>
        <time>2019-05-09T09:15:07Z</time>
      </trkpt>
      <trkpt lat="37.303450" lon="-3.134835">
        <ele>922.000000</ele>
        <time>2019-05-09T09:15:09Z</time>
      </trkpt>
      <trkpt lat="37.303444" lon="-3.134847">
        <ele>922.000000</ele>
        <time>2019-05-09T09:15:09Z</time>
      </trkpt>
      <trkpt lat="37.303434" lon="-3.134862">
        <ele>922.000000</ele>
        <time>2019-05-09T09:15:10Z</time>
      </trkpt>
      <trkpt lat="37.303423" lon="-3.134877">
        <ele>922.000000</ele>
        <time>2019-05-09T09:15:11Z</time>
      </trkpt>
      <trkpt lat="37.303411" lon="-3.134893">
        <ele>922.000000</ele>
        <time>2019-05-09T09:15:12Z</time>
      </trkpt>
      <trkpt lat="37.303399" lon="-3.134908">
        <ele>922.000000</ele>
        <time>2019-05-09T09:15:13Z</time>
      </trkpt>
      <trkpt lat="37.303386" lon="-3.134923">
        <ele>922.000000</ele>
        <time>2019-05-09T09:15:14Z</time>
      </trkpt>
      <trkpt lat="37.303372" lon="-3.134940">
        <ele>922.000000</ele>
        <time>2019-05-09T09:15:15Z</time>
      </trkpt>
      <trkpt lat="37.303359" lon="-3.134953">
        <ele>922.000000</ele>
        <time>2019-05-09T09:15:16Z</time>
      </trkpt>
      <trkpt lat="37.303327" lon="-3.134965">
        <ele>922.000000</ele>
        <time>2019-05-09T09:15:17Z</time>
      </trkpt>
      <trkpt lat="37.303315" lon="-3.134980">
        <ele>922.000000</ele>
        <time>2019-05-09T09:15:18Z</time>
      </trkpt>
      <trkpt lat="37.303305" lon="-3.134994">
        <ele>922.000000</ele>
        <time>2019-05-09T09:15:19Z</time>
      </trkpt>
      <trkpt lat="37.303293" lon="-3.135010">
        <ele>922.000000</ele>
        <time>2019-05-09T09:15:20Z</time>
      </trkpt>
      <trkpt lat="37.303283" lon="-3.135023">
        <ele>922.000000</ele>
        <time>2019-05-09T09:15:21Z</time>
      </trkpt>
      <trkpt lat="37.303272" lon="-3.135040">
        <ele>922.000000</ele>
        <time>2019-05-09T09:15:22Z</time>
      </trkpt>
      <trkpt lat="37.303260" lon="-3.135058">
        <ele>922.000000</ele>
        <time>2019-05-09T09:15:23Z</time>
      </trkpt>
      <trkpt lat="37.303250" lon="-3.135070">
        <ele>922.000000</ele>
        <time>2019-05-09T09:15:24Z</time>
      </trkpt>
      <trkpt lat="37.303241" lon="-3.135087">
        <ele>922.000000</ele>
        <time>2019-05-09T09:15:25Z</time>
      </trkpt>
      <trkpt lat="37.303231" lon="-3.135102">
        <ele>922.000000</ele>
        <time>2019-05-09T09:15:27Z</time>
      </trkpt>
      <trkpt lat="37.303223" lon="-3.135117">
        <ele>922.000000</ele>
        <time>2019-05-09T09:15:27Z</time>
      </trkpt>
      <trkpt lat="37.303214" lon="-3.135130">
        <ele>922.000000</ele>
        <time>2019-05-09T09:15:28Z</time>
      </trkpt>
      <trkpt lat="37.303203" lon="-3.135145">
        <ele>922.000000</ele>
        <time>2019-05-09T09:15:29Z</time>
      </trkpt>
      <trkpt lat="37.303191" lon="-3.135162">
        <ele>922.000000</ele>
        <time>2019-05-09T09:15:30Z</time>
      </trkpt>
      <trkpt lat="37.303181" lon="-3.135177">
        <ele>922.000000</ele>
        <time>2019-05-09T09:15:31Z</time>
      </trkpt>
      <trkpt lat="37.303170" lon="-3.135195">
        <ele>922.000000</ele>
        <time>2019-05-09T09:15:32Z</time>
      </trkpt>
      <trkpt lat="37.303158" lon="-3.135215">
        <ele>922.000000</ele>
        <time>2019-05-09T09:15:34Z</time>
      </trkpt>
      <trkpt lat="37.303148" lon="-3.135233">
        <ele>922.000000</ele>
        <time>2019-05-09T09:15:35Z</time>
      </trkpt>
      <trkpt lat="37.303139" lon="-3.135253">
        <ele>922.000000</ele>
        <time>2019-05-09T09:15:35Z</time>
      </trkpt>
      <trkpt lat="37.303133" lon="-3.135270">
        <ele>922.000000</ele>
        <time>2019-05-09T09:15:36Z</time>
      </trkpt>
      <trkpt lat="37.303125" lon="-3.135292">
        <ele>922.000000</ele>
        <time>2019-05-09T09:15:37Z</time>
      </trkpt>
      <trkpt lat="37.303119" lon="-3.135310">
        <ele>922.000000</ele>
        <time>2019-05-09T09:15:38Z</time>
      </trkpt>
      <trkpt lat="37.303114" lon="-3.135328">
        <ele>922.000000</ele>
        <time>2019-05-09T09:15:39Z</time>
      </trkpt>
      <trkpt lat="37.303107" lon="-3.135348">
        <ele>922.000000</ele>
        <time>2019-05-09T09:15:40Z</time>
      </trkpt>
      <trkpt lat="37.303101" lon="-3.135367">
        <ele>922.000000</ele>
        <time>2019-05-09T09:15:41Z</time>
      </trkpt>
      <trkpt lat="37.303094" lon="-3.135383">
        <ele>922.000000</ele>
        <time>2019-05-09T09:15:42Z</time>
      </trkpt>
      <trkpt lat="37.303089" lon="-3.135398">
        <ele>922.000000</ele>
        <time>2019-05-09T09:15:43Z</time>
      </trkpt>
      <trkpt lat="37.303085" lon="-3.135413">
        <ele>922.000000</ele>
        <time>2019-05-09T09:15:44Z</time>
      </trkpt>
      <trkpt lat="37.303080" lon="-3.135428">
        <ele>922.000000</ele>
        <time>2019-05-09T09:15:46Z</time>
      </trkpt>
      <trkpt lat="37.303073" lon="-3.135450">
        <ele>922.000000</ele>
        <time>2019-05-09T09:15:46Z</time>
      </trkpt>
      <trkpt lat="37.303070" lon="-3.135465">
        <ele>922.000000</ele>
        <time>2019-05-09T09:15:47Z</time>
      </trkpt>
      <trkpt lat="37.303066" lon="-3.135478">
        <ele>922.000000</ele>
        <time>2019-05-09T09:15:48Z</time>
      </trkpt>
      <trkpt lat="37.303063" lon="-3.135492">
        <ele>921.000000</ele>
        <time>2019-05-09T09:15:49Z</time>
      </trkpt>
      <trkpt lat="37.303060" lon="-3.135505">
        <ele>921.000000</ele>
        <time>2019-05-09T09:15:50Z</time>
      </trkpt>
      <trkpt lat="37.303057" lon="-3.135518">
        <ele>921.000000</ele>
        <time>2019-05-09T09:15:51Z</time>
      </trkpt>
      <trkpt lat="37.303054" lon="-3.135532">
        <ele>921.000000</ele>
        <time>2019-05-09T09:15:52Z</time>
      </trkpt>
      <trkpt lat="37.303050" lon="-3.135545">
        <ele>921.000000</ele>
        <time>2019-05-09T09:15:53Z</time>
      </trkpt>
      <trkpt lat="37.303045" lon="-3.135558">
        <ele>921.000000</ele>
        <time>2019-05-09T09:15:55Z</time>
      </trkpt>
      <trkpt lat="37.303040" lon="-3.135570">
        <ele>921.000000</ele>
        <time>2019-05-09T09:15:55Z</time>
      </trkpt>
      <trkpt lat="37.303035" lon="-3.135583">
        <ele>921.000000</ele>
        <time>2019-05-09T09:15:56Z</time>
      </trkpt>
      <trkpt lat="37.303027" lon="-3.135600">
        <ele>921.000000</ele>
        <time>2019-05-09T09:15:57Z</time>
      </trkpt>
      <trkpt lat="37.303021" lon="-3.135612">
        <ele>921.000000</ele>
        <time>2019-05-09T09:15:59Z</time>
      </trkpt>
      <trkpt lat="37.303015" lon="-3.135623">
        <ele>921.000000</ele>
        <time>2019-05-09T09:15:59Z</time>
      </trkpt>
      <trkpt lat="37.303009" lon="-3.135632">
        <ele>921.000000</ele>
        <time>2019-05-09T09:16:00Z</time>
      </trkpt>
      <trkpt lat="37.303001" lon="-3.135647">
        <ele>922.000000</ele>
        <time>2019-05-09T09:16:01Z</time>
      </trkpt>
      <trkpt lat="37.302993" lon="-3.135658">
        <ele>922.000000</ele>
        <time>2019-05-09T09:16:02Z</time>
      </trkpt>
      <trkpt lat="37.302984" lon="-3.135673">
        <ele>922.000000</ele>
        <time>2019-05-09T09:16:03Z</time>
      </trkpt>
      <trkpt lat="37.302977" lon="-3.135685">
        <ele>922.000000</ele>
        <time>2019-05-09T09:16:04Z</time>
      </trkpt>
      <trkpt lat="37.302971" lon="-3.135692">
        <ele>922.000000</ele>
        <time>2019-05-09T09:16:05Z</time>
      </trkpt>
      <trkpt lat="37.302962" lon="-3.135703">
        <ele>922.000000</ele>
        <time>2019-05-09T09:16:06Z</time>
      </trkpt>
      <trkpt lat="37.302955" lon="-3.135713">
        <ele>922.000000</ele>
        <time>2019-05-09T09:16:07Z</time>
      </trkpt>
      <trkpt lat="37.302948" lon="-3.135725">
        <ele>922.000000</ele>
        <time>2019-05-09T09:16:08Z</time>
      </trkpt>
      <trkpt lat="37.302941" lon="-3.135735">
        <ele>922.000000</ele>
        <time>2019-05-09T09:16:09Z</time>
      </trkpt>
      <trkpt lat="37.302932" lon="-3.135748">
        <ele>922.000000</ele>
        <time>2019-05-09T09:16:10Z</time>
      </trkpt>
      <trkpt lat="37.302920" lon="-3.135765">
        <ele>922.000000</ele>
        <time>2019-05-09T09:16:12Z</time>
      </trkpt>
      <trkpt lat="37.302910" lon="-3.135780">
        <ele>922.000000</ele>
        <time>2019-05-09T09:16:13Z</time>
      </trkpt>
      <trkpt lat="37.302902" lon="-3.135788">
        <ele>922.000000</ele>
        <time>2019-05-09T09:16:13Z</time>
      </trkpt>
      <trkpt lat="37.302830" lon="-3.135795">
        <ele>922.000000</ele>
        <time>2019-05-09T09:16:14Z</time>
      </trkpt>
      <trkpt lat="37.302817" lon="-3.135795">
        <ele>922.000000</ele>
        <time>2019-05-09T09:16:15Z</time>
      </trkpt>
      <trkpt lat="37.302802" lon="-3.135797">
        <ele>922.000000</ele>
        <time>2019-05-09T09:16:16Z</time>
      </trkpt>
      <trkpt lat="37.302788" lon="-3.135800">
        <ele>922.000000</ele>
        <time>2019-05-09T09:16:17Z</time>
      </trkpt>
      <trkpt lat="37.302773" lon="-3.135800">
        <ele>922.000000</ele>
        <time>2019-05-09T09:16:18Z</time>
      </trkpt>
      <trkpt lat="37.302755" lon="-3.135807">
        <ele>922.000000</ele>
        <time>2019-05-09T09:16:19Z</time>
      </trkpt>
      <trkpt lat="37.302740" lon="-3.135809">
        <ele>922.000000</ele>
        <time>2019-05-09T09:16:21Z</time>
      </trkpt>
      <trkpt lat="37.302725" lon="-3.135811">
        <ele>922.000000</ele>
        <time>2019-05-09T09:16:21Z</time>
      </trkpt>
      <trkpt lat="37.302708" lon="-3.135809">
        <ele>922.000000</ele>
        <time>2019-05-09T09:16:22Z</time>
      </trkpt>
      <trkpt lat="37.302693" lon="-3.135804">
        <ele>922.000000</ele>
        <time>2019-05-09T09:16:23Z</time>
      </trkpt>
      <trkpt lat="37.302678" lon="-3.135793">
        <ele>922.000000</ele>
        <time>2019-05-09T09:16:24Z</time>
      </trkpt>
      <trkpt lat="37.302663" lon="-3.135785">
        <ele>922.000000</ele>
        <time>2019-05-09T09:16:25Z</time>
      </trkpt>
      <trkpt lat="37.302648" lon="-3.135780">
        <ele>922.000000</ele>
        <time>2019-05-09T09:16:26Z</time>
      </trkpt>
      <trkpt lat="37.302633" lon="-3.135776">
        <ele>922.000000</ele>
        <time>2019-05-09T09:16:27Z</time>
      </trkpt>
      <trkpt lat="37.302618" lon="-3.135774">
        <ele>922.000000</ele>
        <time>2019-05-09T09:16:28Z</time>
      </trkpt>
      <trkpt lat="37.302600" lon="-3.135771">
        <ele>922.000000</ele>
        <time>2019-05-09T09:16:29Z</time>
      </trkpt>
      <trkpt lat="37.302585" lon="-3.135766">
        <ele>922.000000</ele>
        <time>2019-05-09T09:16:30Z</time>
      </trkpt>
      <trkpt lat="37.302568" lon="-3.135762">
        <ele>922.000000</ele>
        <time>2019-05-09T09:16:31Z</time>
      </trkpt>
      <trkpt lat="37.302553" lon="-3.135757">
        <ele>922.000000</ele>
        <time>2019-05-09T09:16:32Z</time>
      </trkpt>
      <trkpt lat="37.302537" lon="-3.135749">
        <ele>922.000000</ele>
        <time>2019-05-09T09:16:33Z</time>
      </trkpt>
      <trkpt lat="37.302518" lon="-3.135743">
        <ele>922.000000</ele>
        <time>2019-05-09T09:16:34Z</time>
      </trkpt>
      <trkpt lat="37.302500" lon="-3.135738">
        <ele>922.000000</ele>
        <time>2019-05-09T09:16:35Z</time>
      </trkpt>
      <trkpt lat="37.302482" lon="-3.135735">
        <ele>922.000000</ele>
        <time>2019-05-09T09:16:36Z</time>
      </trkpt>
      <trkpt lat="37.302467" lon="-3.135736">
        <ele>922.000000</ele>
        <time>2019-05-09T09:16:37Z</time>
      </trkpt>
      <trkpt lat="37.302452" lon="-3.135737">
        <ele>922.000000</ele>
        <time>2019-05-09T09:16:38Z</time>
      </trkpt>
      <trkpt lat="37.302437" lon="-3.135739">
        <ele>922.000000</ele>
        <time>2019-05-09T09:16:39Z</time>
      </trkpt>
      <trkpt lat="37.302423" lon="-3.135740">
        <ele>922.000000</ele>
        <time>2019-05-09T09:16:40Z</time>
      </trkpt>
      <trkpt lat="37.302408" lon="-3.135742">
        <ele>922.000000</ele>
        <time>2019-05-09T09:16:41Z</time>
      </trkpt>
      <trkpt lat="37.302392" lon="-3.135742">
        <ele>922.000000</ele>
        <time>2019-05-09T09:16:42Z</time>
      </trkpt>
      <trkpt lat="37.302378" lon="-3.135741">
        <ele>922.000000</ele>
        <time>2019-05-09T09:16:43Z</time>
      </trkpt>
      <trkpt lat="37.302363" lon="-3.135738">
        <ele>922.000000</ele>
        <time>2019-05-09T09:16:44Z</time>
      </trkpt>
      <trkpt lat="37.302350" lon="-3.135736">
        <ele>922.000000</ele>
        <time>2019-05-09T09:16:46Z</time>
      </trkpt>
      <trkpt lat="37.302335" lon="-3.135733">
        <ele>922.000000</ele>
        <time>2019-05-09T09:16:46Z</time>
      </trkpt>
      <trkpt lat="37.302322" lon="-3.135729">
        <ele>922.000000</ele>
        <time>2019-05-09T09:16:47Z</time>
      </trkpt>
      <trkpt lat="37.302308" lon="-3.135725">
        <ele>922.000000</ele>
        <time>2019-05-09T09:16:48Z</time>
      </trkpt>
      <trkpt lat="37.302295" lon="-3.135721">
        <ele>922.000000</ele>
        <time>2019-05-09T09:16:49Z</time>
      </trkpt>
      <trkpt lat="37.302283" lon="-3.135716">
        <ele>922.000000</ele>
        <time>2019-05-09T09:16:50Z</time>
      </trkpt>
      <trkpt lat="37.302272" lon="-3.135710">
        <ele>922.000000</ele>
        <time>2019-05-09T09:16:51Z</time>
      </trkpt>
      <trkpt lat="37.302257" lon="-3.135705">
        <ele>923.000000</ele>
        <time>2019-05-09T09:16:52Z</time>
      </trkpt>
      <trkpt lat="37.302240" lon="-3.135700">
        <ele>923.000000</ele>
        <time>2019-05-09T09:16:53Z</time>
      </trkpt>
      <trkpt lat="37.302223" lon="-3.135695">
        <ele>923.000000</ele>
        <time>2019-05-09T09:16:54Z</time>
      </trkpt>
      <trkpt lat="37.302208" lon="-3.135692">
        <ele>923.000000</ele>
        <time>2019-05-09T09:16:55Z</time>
      </trkpt>
      <trkpt lat="37.302193" lon="-3.135689">
        <ele>923.000000</ele>
        <time>2019-05-09T09:16:56Z</time>
      </trkpt>
      <trkpt lat="37.302178" lon="-3.135689">
        <ele>923.000000</ele>
        <time>2019-05-09T09:16:57Z</time>
      </trkpt>
      <trkpt lat="37.302160" lon="-3.135686">
        <ele>923.000000</ele>
        <time>2019-05-09T09:16:58Z</time>
      </trkpt>
      <trkpt lat="37.302143" lon="-3.135686">
        <ele>923.000000</ele>
        <time>2019-05-09T09:16:59Z</time>
      </trkpt>
      <trkpt lat="37.302125" lon="-3.135686">
        <ele>924.000000</ele>
        <time>2019-05-09T09:17:00Z</time>
      </trkpt>
      <trkpt lat="37.302108" lon="-3.135686">
        <ele>924.000000</ele>
        <time>2019-05-09T09:17:01Z</time>
      </trkpt>
      <trkpt lat="37.302092" lon="-3.135687">
        <ele>924.000000</ele>
        <time>2019-05-09T09:17:02Z</time>
      </trkpt>
      <trkpt lat="37.302075" lon="-3.135686">
        <ele>924.000000</ele>
        <time>2019-05-09T09:17:03Z</time>
      </trkpt>
      <trkpt lat="37.302058" lon="-3.135686">
        <ele>924.000000</ele>
        <time>2019-05-09T09:17:04Z</time>
      </trkpt>
      <trkpt lat="37.302040" lon="-3.135685">
        <ele>924.000000</ele>
        <time>2019-05-09T09:17:05Z</time>
      </trkpt>
      <trkpt lat="37.302028" lon="-3.135685">
        <ele>924.000000</ele>
        <time>2019-05-09T09:17:07Z</time>
      </trkpt>
      <trkpt lat="37.302013" lon="-3.135685">
        <ele>924.000000</ele>
        <time>2019-05-09T09:17:07Z</time>
      </trkpt>
      <trkpt lat="37.301997" lon="-3.135683">
        <ele>924.000000</ele>
        <time>2019-05-09T09:17:08Z</time>
      </trkpt>
      <trkpt lat="37.301983" lon="-3.135683">
        <ele>924.000000</ele>
        <time>2019-05-09T09:17:09Z</time>
      </trkpt>
      <trkpt lat="37.301970" lon="-3.135681">
        <ele>925.000000</ele>
        <time>2019-05-09T09:17:11Z</time>
      </trkpt>
      <trkpt lat="37.301952" lon="-3.135679">
        <ele>925.000000</ele>
        <time>2019-05-09T09:17:11Z</time>
      </trkpt>
      <trkpt lat="37.301937" lon="-3.135677">
        <ele>925.000000</ele>
        <time>2019-05-09T09:17:12Z</time>
      </trkpt>
      <trkpt lat="37.301922" lon="-3.135675">
        <ele>925.000000</ele>
        <time>2019-05-09T09:17:13Z</time>
      </trkpt>
      <trkpt lat="37.301908" lon="-3.135673">
        <ele>925.000000</ele>
        <time>2019-05-09T09:17:14Z</time>
      </trkpt>
      <trkpt lat="37.301898" lon="-3.135673">
        <ele>925.000000</ele>
        <time>2019-05-09T09:17:15Z</time>
      </trkpt>
      <trkpt lat="37.301882" lon="-3.135672">
        <ele>925.000000</ele>
        <time>2019-05-09T09:17:16Z</time>
      </trkpt>
      <trkpt lat="37.301865" lon="-3.135670">
        <ele>925.000000</ele>
        <time>2019-05-09T09:17:18Z</time>
      </trkpt>
      <trkpt lat="37.301850" lon="-3.135669">
        <ele>925.000000</ele>
        <time>2019-05-09T09:17:18Z</time>
      </trkpt>
      <trkpt lat="37.301838" lon="-3.135669">
        <ele>925.000000</ele>
        <time>2019-05-09T09:17:19Z</time>
      </trkpt>
      <trkpt lat="37.301825" lon="-3.135667">
        <ele>925.000000</ele>
        <time>2019-05-09T09:17:20Z</time>
      </trkpt>
      <trkpt lat="37.301808" lon="-3.135665">
        <ele>925.000000</ele>
        <time>2019-05-09T09:17:21Z</time>
      </trkpt>
      <trkpt lat="37.301795" lon="-3.135663">
        <ele>925.000000</ele>
        <time>2019-05-09T09:17:22Z</time>
      </trkpt>
      <trkpt lat="37.301780" lon="-3.135660">
        <ele>925.000000</ele>
        <time>2019-05-09T09:17:24Z</time>
      </trkpt>
      <trkpt lat="37.301765" lon="-3.135656">
        <ele>925.000000</ele>
        <time>2019-05-09T09:17:24Z</time>
      </trkpt>
      <trkpt lat="37.301750" lon="-3.135653">
        <ele>925.000000</ele>
        <time>2019-05-09T09:17:25Z</time>
      </trkpt>
      <trkpt lat="37.301738" lon="-3.135649">
        <ele>925.000000</ele>
        <time>2019-05-09T09:17:26Z</time>
      </trkpt>
      <trkpt lat="37.301723" lon="-3.135647">
        <ele>926.000000</ele>
        <time>2019-05-09T09:17:27Z</time>
      </trkpt>
      <trkpt lat="37.301710" lon="-3.135645">
        <ele>926.000000</ele>
        <time>2019-05-09T09:17:28Z</time>
      </trkpt>
      <trkpt lat="37.301697" lon="-3.135643">
        <ele>926.000000</ele>
        <time>2019-05-09T09:17:29Z</time>
      </trkpt>
      <trkpt lat="37.301682" lon="-3.135640">
        <ele>926.000000</ele>
        <time>2019-05-09T09:17:30Z</time>
      </trkpt>
      <trkpt lat="37.301670" lon="-3.135638">
        <ele>926.000000</ele>
        <time>2019-05-09T09:17:32Z</time>
      </trkpt>
      <trkpt lat="37.301658" lon="-3.135636">
        <ele>927.000000</ele>
        <time>2019-05-09T09:17:32Z</time>
      </trkpt>
      <trkpt lat="37.301645" lon="-3.135633">
        <ele>927.000000</ele>
        <time>2019-05-09T09:17:33Z</time>
      </trkpt>
      <trkpt lat="37.301635" lon="-3.135630">
        <ele>927.000000</ele>
        <time>2019-05-09T09:17:34Z</time>
      </trkpt>
      <trkpt lat="37.301622" lon="-3.135626">
        <ele>927.000000</ele>
        <time>2019-05-09T09:17:35Z</time>
      </trkpt>
      <trkpt lat="37.301612" lon="-3.135624">
        <ele>927.000000</ele>
        <time>2019-05-09T09:17:36Z</time>
      </trkpt>
      <trkpt lat="37.301598" lon="-3.135619">
        <ele>928.000000</ele>
        <time>2019-05-09T09:17:37Z</time>
      </trkpt>
      <trkpt lat="37.301585" lon="-3.135615">
        <ele>928.000000</ele>
        <time>2019-05-09T09:17:38Z</time>
      </trkpt>
      <trkpt lat="37.301573" lon="-3.135611">
        <ele>928.000000</ele>
        <time>2019-05-09T09:17:39Z</time>
      </trkpt>
      <trkpt lat="37.301562" lon="-3.135606">
        <ele>928.000000</ele>
        <time>2019-05-09T09:17:40Z</time>
      </trkpt>
      <trkpt lat="37.301545" lon="-3.135600">
        <ele>928.000000</ele>
        <time>2019-05-09T09:17:41Z</time>
      </trkpt>
      <trkpt lat="37.301535" lon="-3.135595">
        <ele>928.000000</ele>
        <time>2019-05-09T09:17:42Z</time>
      </trkpt>
      <trkpt lat="37.301522" lon="-3.135589">
        <ele>929.000000</ele>
        <time>2019-05-09T09:17:43Z</time>
      </trkpt>
      <trkpt lat="37.301507" lon="-3.135583">
        <ele>929.000000</ele>
        <time>2019-05-09T09:17:44Z</time>
      </trkpt>
      <trkpt lat="37.301495" lon="-3.135577">
        <ele>929.000000</ele>
        <time>2019-05-09T09:17:45Z</time>
      </trkpt>
      <trkpt lat="37.301482" lon="-3.135572">
        <ele>929.000000</ele>
        <time>2019-05-09T09:17:46Z</time>
      </trkpt>
      <trkpt lat="37.301468" lon="-3.135567">
        <ele>929.000000</ele>
        <time>2019-05-09T09:17:47Z</time>
      </trkpt>
      <trkpt lat="37.301457" lon="-3.135562">
        <ele>929.000000</ele>
        <time>2019-05-09T09:17:48Z</time>
      </trkpt>
      <trkpt lat="37.301442" lon="-3.135558">
        <ele>929.000000</ele>
        <time>2019-05-09T09:17:49Z</time>
      </trkpt>
      <trkpt lat="37.301428" lon="-3.135553">
        <ele>929.000000</ele>
        <time>2019-05-09T09:17:50Z</time>
      </trkpt>
      <trkpt lat="37.301415" lon="-3.135549">
        <ele>929.000000</ele>
        <time>2019-05-09T09:17:51Z</time>
      </trkpt>
      <trkpt lat="37.301400" lon="-3.135545">
        <ele>930.000000</ele>
        <time>2019-05-09T09:17:52Z</time>
      </trkpt>
      <trkpt lat="37.301390" lon="-3.135543">
        <ele>930.000000</ele>
        <time>2019-05-09T09:17:54Z</time>
      </trkpt>
      <trkpt lat="37.301378" lon="-3.135539">
        <ele>930.000000</ele>
        <time>2019-05-09T09:17:54Z</time>
      </trkpt>
      <trkpt lat="37.301365" lon="-3.135537">
        <ele>930.000000</ele>
        <time>2019-05-09T09:17:55Z</time>
      </trkpt>
      <trkpt lat="37.301352" lon="-3.135534">
        <ele>930.000000</ele>
        <time>2019-05-09T09:17:56Z</time>
      </trkpt>
      <trkpt lat="37.301337" lon="-3.135532">
        <ele>930.000000</ele>
        <time>2019-05-09T09:17:57Z</time>
      </trkpt>
      <trkpt lat="37.301323" lon="-3.135529">
        <ele>931.000000</ele>
        <time>2019-05-09T09:17:58Z</time>
      </trkpt>
      <trkpt lat="37.301310" lon="-3.135526">
        <ele>931.000000</ele>
        <time>2019-05-09T09:17:59Z</time>
      </trkpt>
      <trkpt lat="37.301302" lon="-3.135524">
        <ele>931.000000</ele>
        <time>2019-05-09T09:18:00Z</time>
      </trkpt>
      <trkpt lat="37.301288" lon="-3.135523">
        <ele>931.000000</ele>
        <time>2019-05-09T09:18:01Z</time>
      </trkpt>
      <trkpt lat="37.301278" lon="-3.135521">
        <ele>931.000000</ele>
        <time>2019-05-09T09:18:02Z</time>
      </trkpt>
      <trkpt lat="37.301265" lon="-3.135519">
        <ele>931.000000</ele>
        <time>2019-05-09T09:18:03Z</time>
      </trkpt>
      <trkpt lat="37.301253" lon="-3.135518">
        <ele>931.000000</ele>
        <time>2019-05-09T09:18:04Z</time>
      </trkpt>
      <trkpt lat="37.301238" lon="-3.135516">
        <ele>931.000000</ele>
        <time>2019-05-09T09:18:05Z</time>
      </trkpt>
      <trkpt lat="37.301225" lon="-3.135516">
        <ele>931.000000</ele>
        <time>2019-05-09T09:18:06Z</time>
      </trkpt>
      <trkpt lat="37.301212" lon="-3.135517">
        <ele>931.000000</ele>
        <time>2019-05-09T09:18:07Z</time>
      </trkpt>
      <trkpt lat="37.301198" lon="-3.135517">
        <ele>931.000000</ele>
        <time>2019-05-09T09:18:08Z</time>
      </trkpt>
      <trkpt lat="37.301183" lon="-3.135520">
        <ele>931.000000</ele>
        <time>2019-05-09T09:18:09Z</time>
      </trkpt>
      <trkpt lat="37.301172" lon="-3.135522">
        <ele>931.000000</ele>
        <time>2019-05-09T09:18:10Z</time>
      </trkpt>
      <trkpt lat="37.301158" lon="-3.135524">
        <ele>931.000000</ele>
        <time>2019-05-09T09:18:11Z</time>
      </trkpt>
      <trkpt lat="37.301150" lon="-3.135528">
        <ele>931.000000</ele>
        <time>2019-05-09T09:18:12Z</time>
      </trkpt>
      <trkpt lat="37.301143" lon="-3.135531">
        <ele>931.000000</ele>
        <time>2019-05-09T09:18:13Z</time>
      </trkpt>
      <trkpt lat="37.301140" lon="-3.135536">
        <ele>931.000000</ele>
        <time>2019-05-09T09:18:14Z</time>
      </trkpt>
      <trkpt lat="37.301130" lon="-3.135540">
        <ele>932.000000</ele>
        <time>2019-05-09T09:18:15Z</time>
      </trkpt>
      <trkpt lat="37.301125" lon="-3.135545">
        <ele>932.000000</ele>
        <time>2019-05-09T09:18:16Z</time>
      </trkpt>
      <trkpt lat="37.301122" lon="-3.135551">
        <ele>932.000000</ele>
        <time>2019-05-09T09:18:17Z</time>
      </trkpt>
      <trkpt lat="37.301118" lon="-3.135633">
        <ele>932.000000</ele>
        <time>2019-05-09T09:18:19Z</time>
      </trkpt>
      <trkpt lat="37.301115" lon="-3.135642">
        <ele>932.000000</ele>
        <time>2019-05-09T09:18:19Z</time>
      </trkpt>
      <trkpt lat="37.301115" lon="-3.135653">
        <ele>932.000000</ele>
        <time>2019-05-09T09:18:20Z</time>
      </trkpt>
      <trkpt lat="37.301117" lon="-3.135675">
        <ele>933.000000</ele>
        <time>2019-05-09T09:18:21Z</time>
      </trkpt>
      <trkpt lat="37.301113" lon="-3.135693">
        <ele>933.000000</ele>
        <time>2019-05-09T09:18:22Z</time>
      </trkpt>
      <trkpt lat="37.301112" lon="-3.135707">
        <ele>933.000000</ele>
        <time>2019-05-09T09:18:23Z</time>
      </trkpt>
      <trkpt lat="37.301103" lon="-3.135722">
        <ele>933.000000</ele>
        <time>2019-05-09T09:18:24Z</time>
      </trkpt>
      <trkpt lat="37.301097" lon="-3.135722">
        <ele>933.000000</ele>
        <time>2019-05-09T09:18:25Z</time>
      </trkpt>
      <trkpt lat="37.301080" lon="-3.135720">
        <ele>933.000000</ele>
        <time>2019-05-09T09:18:26Z</time>
      </trkpt>
      <trkpt lat="37.301075" lon="-3.135712">
        <ele>933.000000</ele>
        <time>2019-05-09T09:18:27Z</time>
      </trkpt>
      <trkpt lat="37.301082" lon="-3.135696">
        <ele>933.000000</ele>
        <time>2019-05-09T09:18:28Z</time>
      </trkpt>
      <trkpt lat="37.301072" lon="-3.135697">
        <ele>933.000000</ele>
        <time>2019-05-09T09:18:29Z</time>
      </trkpt>
      <trkpt lat="37.301067" lon="-3.135677">
        <ele>933.000000</ele>
        <time>2019-05-09T09:18:30Z</time>
      </trkpt>
      <trkpt lat="37.301060" lon="-3.135667">
        <ele>933.000000</ele>
        <time>2019-05-09T09:18:31Z</time>
      </trkpt>
      <trkpt lat="37.301052" lon="-3.135655">
        <ele>933.000000</ele>
        <time>2019-05-09T09:18:33Z</time>
      </trkpt>
      <trkpt lat="37.301039" lon="-3.135652">
        <ele>933.000000</ele>
        <time>2019-05-09T09:18:33Z</time>
      </trkpt>
      <trkpt lat="37.301018" lon="-3.135645">
        <ele>933.000000</ele>
        <time>2019-05-09T09:18:34Z</time>
      </trkpt>
      <trkpt lat="37.300999" lon="-3.135632">
        <ele>933.000000</ele>
        <time>2019-05-09T09:18:35Z</time>
      </trkpt>
      <trkpt lat="37.300996" lon="-3.135630">
        <ele>933.000000</ele>
        <time>2019-05-09T09:18:36Z</time>
      </trkpt>
      <trkpt lat="37.300995" lon="-3.135630">
        <ele>933.000000</ele>
        <time>2019-05-09T09:18:37Z</time>
      </trkpt>
      <trkpt lat="37.300986" lon="-3.135625">
        <ele>933.000000</ele>
        <time>2019-05-09T09:18:38Z</time>
      </trkpt>
      <trkpt lat="37.300980" lon="-3.135622">
        <ele>933.000000</ele>
        <time>2019-05-09T09:18:39Z</time>
      </trkpt>
      <trkpt lat="37.300977" lon="-3.135620">
        <ele>933.000000</ele>
        <time>2019-05-09T09:18:40Z</time>
      </trkpt>
      <trkpt lat="37.300968" lon="-3.135615">
        <ele>932.000000</ele>
        <time>2019-05-09T09:18:41Z</time>
      </trkpt>
      <trkpt lat="37.300957" lon="-3.135617">
        <ele>932.000000</ele>
        <time>2019-05-09T09:18:42Z</time>
      </trkpt>
      <trkpt lat="37.300943" lon="-3.135621">
        <ele>932.000000</ele>
        <time>2019-05-09T09:18:44Z</time>
      </trkpt>
      <trkpt lat="37.300937" lon="-3.135612">
        <ele>932.000000</ele>
        <time>2019-05-09T09:18:44Z</time>
      </trkpt>
      <trkpt lat="37.300930" lon="-3.135598">
        <ele>932.000000</ele>
        <time>2019-05-09T09:18:45Z</time>
      </trkpt>
      <trkpt lat="37.300923" lon="-3.135590">
        <ele>932.000000</ele>
        <time>2019-05-09T09:18:46Z</time>
      </trkpt>
      <trkpt lat="37.300923" lon="-3.135582">
        <ele>932.000000</ele>
        <time>2019-05-09T09:18:47Z</time>
      </trkpt>
      <trkpt lat="37.300918" lon="-3.135565">
        <ele>932.000000</ele>
        <time>2019-05-09T09:18:48Z</time>
      </trkpt>
      <trkpt lat="37.300912" lon="-3.135545">
        <ele>932.000000</ele>
        <time>2019-05-09T09:18:49Z</time>
      </trkpt>
      <trkpt lat="37.300908" lon="-3.135528">
        <ele>932.000000</ele>
        <time>2019-05-09T09:18:50Z</time>
      </trkpt>
      <trkpt lat="37.300895" lon="-3.135513">
        <ele>932.000000</ele>
        <time>2019-05-09T09:18:51Z</time>
      </trkpt>
      <trkpt lat="37.300886" lon="-3.135500">
        <ele>932.000000</ele>
        <time>2019-05-09T09:18:52Z</time>
      </trkpt>
      <trkpt lat="37.300881" lon="-3.135483">
        <ele>932.000000</ele>
        <time>2019-05-09T09:18:53Z</time>
      </trkpt>
      <trkpt lat="37.300881" lon="-3.135498">
        <ele>932.000000</ele>
        <time>2019-05-09T09:18:54Z</time>
      </trkpt>
      <trkpt lat="37.300858" lon="-3.135502">
        <ele>932.000000</ele>
        <time>2019-05-09T09:18:55Z</time>
      </trkpt>
      <trkpt lat="37.300847" lon="-3.135507">
        <ele>932.000000</ele>
        <time>2019-05-09T09:18:56Z</time>
      </trkpt>
      <trkpt lat="37.300815" lon="-3.135517">
        <ele>932.000000</ele>
        <time>2019-05-09T09:18:57Z</time>
      </trkpt>
      <trkpt lat="37.300835" lon="-3.135531">
        <ele>932.000000</ele>
        <time>2019-05-09T09:18:58Z</time>
      </trkpt>
      <trkpt lat="37.300832" lon="-3.135539">
        <ele>932.000000</ele>
        <time>2019-05-09T09:18:59Z</time>
      </trkpt>
      <trkpt lat="37.300857" lon="-3.135542">
        <ele>932.000000</ele>
        <time>2019-05-09T09:19:00Z</time>
      </trkpt>
      <trkpt lat="37.300855" lon="-3.135546">
        <ele>932.000000</ele>
        <time>2019-05-09T09:19:01Z</time>
      </trkpt>
      <trkpt lat="37.300847" lon="-3.135546">
        <ele>932.000000</ele>
        <time>2019-05-09T09:19:02Z</time>
      </trkpt>
      <trkpt lat="37.300822" lon="-3.135548">
        <ele>932.000000</ele>
        <time>2019-05-09T09:19:03Z</time>
      </trkpt>
      <trkpt lat="37.300798" lon="-3.135578">
        <ele>932.000000</ele>
        <time>2019-05-09T09:19:04Z</time>
      </trkpt>
      <trkpt lat="37.300792" lon="-3.135595">
        <ele>932.000000</ele>
        <time>2019-05-09T09:19:04Z</time>
      </trkpt>
      <trkpt lat="37.300552" lon="-3.135600">
        <ele>932.000000</ele>
        <time>2019-05-09T09:19:06Z</time>
      </trkpt>
      <trkpt lat="37.300458" lon="-3.135601">
        <ele>932.000000</ele>
        <time>2019-05-09T09:19:07Z</time>
      </trkpt>
      <trkpt lat="37.300375" lon="-3.135606">
        <ele>932.000000</ele>
        <time>2019-05-09T09:19:08Z</time>
      </trkpt>
    </trkseg>
  </trk>
</gpx>
